﻿<?xml version="1.0" encoding="utf-8"?><gpx creator="Garmin Desktop App" version="1.1" xsi:schemaLocation="http://www.topografix.com/GPX/1/1 http://www.topografix.com/GPX/1/1/gpx.xsd http://www.garmin.com/xmlschemas/WaypointExtension/v1 http://www8.garmin.com/xmlschemas/WaypointExtensionv1.xsd http://www.garmin.com/xmlschemas/TrackPointExtension/v1 http://www.garmin.com/xmlschemas/TrackPointExtensionv1.xsd http://www.garmin.com/xmlschemas/GpxExtensions/v3 http://www8.garmin.com/xmlschemas/GpxExtensionsv3.xsd http://www.garmin.com/xmlschemas/ActivityExtension/v1 http://www8.garmin.com/xmlschemas/ActivityExtensionv1.xsd http://www.garmin.com/xmlschemas/AdventuresExtensions/v1 http://www8.garmin.com/xmlschemas/AdventuresExtensionv1.xsd http://www.garmin.com/xmlschemas/PressureExtension/v1 http://www.garmin.com/xmlschemas/PressureExtensionv1.xsd http://www.garmin.com/xmlschemas/TripExtensions/v1 http://www.garmin.com/xmlschemas/TripExtensionsv1.xsd http://www.garmin.com/xmlschemas/TripMetaDataExtensions/v1 http://www.garmin.com/xmlschemas/TripMetaDataExtensionsv1.xsd http://www.garmin.com/xmlschemas/ViaPointTransportationModeExtensions/v1 http://www.garmin.com/xmlschemas/ViaPointTransportationModeExtensionsv1.xsd http://www.garmin.com/xmlschemas/CreationTimeExtension/v1 http://www.garmin.com/xmlschemas/CreationTimeExtensionsv1.xsd http://www.garmin.com/xmlschemas/AccelerationExtension/v1 http://www.garmin.com/xmlschemas/AccelerationExtensionv1.xsd http://www.garmin.com/xmlschemas/PowerExtension/v1 http://www.garmin.com/xmlschemas/PowerExtensionv1.xsd http://www.garmin.com/xmlschemas/VideoExtension/v1 http://www.garmin.com/xmlschemas/VideoExtensionv1.xsd" xmlns="http://www.topografix.com/GPX/1/1" xmlns:xsi="http://www.w3.org/2001/XMLSchema-instance" xmlns:wptx1="http://www.garmin.com/xmlschemas/WaypointExtension/v1" xmlns:gpxtrx="http://www.garmin.com/xmlschemas/GpxExtensions/v3" xmlns:gpxtpx="http://www.garmin.com/xmlschemas/TrackPointExtension/v1" xmlns:gpxx="http://www.garmin.com/xmlschemas/GpxExtensions/v3" xmlns:trp="http://www.garmin.com/xmlschemas/TripExtensions/v1" xmlns:adv="http://www.garmin.com/xmlschemas/AdventuresExtensions/v1" xmlns:prs="http://www.garmin.com/xmlschemas/PressureExtension/v1" xmlns:tmd="http://www.garmin.com/xmlschemas/TripMetaDataExtensions/v1" xmlns:vptm="http://www.garmin.com/xmlschemas/ViaPointTransportationModeExtensions/v1" xmlns:ctx="http://www.garmin.com/xmlschemas/CreationTimeExtension/v1" xmlns:gpxacc="http://www.garmin.com/xmlschemas/AccelerationExtension/v1" xmlns:gpxpx="http://www.garmin.com/xmlschemas/PowerExtension/v1" xmlns:vidx1="http://www.garmin.com/xmlschemas/VideoExtension/v1">

  <metadata>
    <link href="http://www.garmin.com">
      <text>Garmin International</text>
    </link>
    <time>2024-09-14T17:38:50Z</time>
    <bounds maxlat="54.450153009966016" maxlon="13.098205961287022" minlat="53.361009014770389" minlon="11.416785959154367" />
  </metadata>

  <trk>
    <name>Track 240914</name>
    <extensions>
      <gpxx:TrackExtension>
        <gpxx:DisplayColor>DarkGray</gpxx:DisplayColor>
      </gpxx:TrackExtension>
    </extensions>
    <trkseg>
      <trkpt lat="53.625674983486533" lon="11.416785959154367">
        <ele>31.859999999999999</ele>
        <time>2024-09-14T07:10:02Z</time>
      </trkpt>
      <trkpt lat="53.625699039548635" lon="11.416815966367722">
        <ele>26.09</ele>
        <time>2024-09-14T07:10:37Z</time>
      </trkpt>
      <trkpt lat="53.625686969608068" lon="11.416999027132988">
        <ele>26.57</ele>
        <time>2024-09-14T07:10:49Z</time>
      </trkpt>
      <trkpt lat="53.625633995980024" lon="11.417015036568046">
        <ele>25.129999999999999</ele>
        <time>2024-09-14T07:10:51Z</time>
      </trkpt>
      <trkpt lat="53.625637013465166" lon="11.417184015735984">
        <ele>24.170000000000002</ele>
        <time>2024-09-14T07:10:52Z</time>
      </trkpt>
      <trkpt lat="53.625662997364998" lon="11.41726297326386">
        <ele>23.690000000000001</ele>
        <time>2024-09-14T07:10:53Z</time>
      </trkpt>
      <trkpt lat="53.625683030113578" lon="11.417328016832471">
        <ele>22.73</ele>
        <time>2024-09-14T07:10:54Z</time>
      </trkpt>
      <trkpt lat="53.625702979043126" lon="11.41739297658205">
        <ele>22.25</ele>
        <time>2024-09-14T07:10:55Z</time>
      </trkpt>
      <trkpt lat="53.625728040933609" lon="11.417472017928958">
        <ele>21.289999999999999</ele>
        <time>2024-09-14T07:10:56Z</time>
      </trkpt>
      <trkpt lat="53.626098018139601" lon="11.418657973408699">
        <ele>20.809999999999999</ele>
        <time>2024-09-14T07:11:06Z</time>
      </trkpt>
      <trkpt lat="53.62659003585577" lon="11.420179037377238">
        <ele>24.170000000000002</ele>
        <time>2024-09-14T07:11:18Z</time>
      </trkpt>
      <trkpt lat="53.626650972291827" lon="11.420274004340172">
        <ele>24.649999999999999</ele>
        <time>2024-09-14T07:11:19Z</time>
      </trkpt>
      <trkpt lat="53.626709980890155" lon="11.420367965474725">
        <ele>25.129999999999999</ele>
        <time>2024-09-14T07:11:20Z</time>
      </trkpt>
      <trkpt lat="53.626780975610018" lon="11.420405013486743">
        <ele>25.129999999999999</ele>
        <time>2024-09-14T07:11:21Z</time>
      </trkpt>
      <trkpt lat="53.626858005300164" lon="11.420440971851349">
        <ele>25.609999999999999</ele>
        <time>2024-09-14T07:11:22Z</time>
      </trkpt>
      <trkpt lat="53.626935034990311" lon="11.420477014034986">
        <ele>26.09</ele>
        <time>2024-09-14T07:11:23Z</time>
      </trkpt>
      <trkpt lat="53.627010975033045" lon="11.420511966571212">
        <ele>26.57</ele>
        <time>2024-09-14T07:11:24Z</time>
      </trkpt>
      <trkpt lat="53.627980006858706" lon="11.420739032328129">
        <ele>31.859999999999999</ele>
        <time>2024-09-14T07:11:36Z</time>
      </trkpt>
      <trkpt lat="53.628879971802235" lon="11.420921003445983">
        <ele>31.379999999999999</ele>
        <time>2024-09-14T07:11:49Z</time>
      </trkpt>
      <trkpt lat="53.629003018140793" lon="11.420941036194563">
        <ele>30.899999999999999</ele>
        <time>2024-09-14T07:11:51Z</time>
      </trkpt>
      <trkpt lat="53.629281967878342" lon="11.420997027307749">
        <ele>29.460000000000001</ele>
        <time>2024-09-14T07:11:55Z</time>
      </trkpt>
      <trkpt lat="53.629353968426585" lon="11.421017982065678">
        <ele>29.460000000000001</ele>
        <time>2024-09-14T07:11:56Z</time>
      </trkpt>
      <trkpt lat="53.630112027749419" lon="11.421163994818926">
        <ele>30.420000000000002</ele>
        <time>2024-09-14T07:12:06Z</time>
      </trkpt>
      <trkpt lat="53.630183022469282" lon="11.421178998425603">
        <ele>29.940000000000001</ele>
        <time>2024-09-14T07:12:07Z</time>
      </trkpt>
      <trkpt lat="53.630404975265265" lon="11.421228032559156">
        <ele>29.460000000000001</ele>
        <time>2024-09-14T07:12:10Z</time>
      </trkpt>
      <trkpt lat="53.630474964156747" lon="11.421243958175182">
        <ele>29.460000000000001</ele>
        <time>2024-09-14T07:12:11Z</time>
      </trkpt>
      <trkpt lat="53.630548976361752" lon="11.421262985095382">
        <ele>28.98</ele>
        <time>2024-09-14T07:12:12Z</time>
      </trkpt>
      <trkpt lat="53.630707981064916" lon="11.421315958723426">
        <ele>28.5</ele>
        <time>2024-09-14T07:12:14Z</time>
      </trkpt>
      <trkpt lat="53.630784004926682" lon="11.421344038099051">
        <ele>28.02</ele>
        <time>2024-09-14T07:12:15Z</time>
      </trkpt>
      <trkpt lat="53.63114501349628" lon="11.421453002840281">
        <ele>26.09</ele>
        <time>2024-09-14T07:12:20Z</time>
      </trkpt>
      <trkpt lat="53.631218019872904" lon="11.42147496342659">
        <ele>26.09</ele>
        <time>2024-09-14T07:12:21Z</time>
      </trkpt>
      <trkpt lat="53.631569975987077" lon="11.421587029471993">
        <ele>25.609999999999999</ele>
        <time>2024-09-14T07:12:26Z</time>
      </trkpt>
      <trkpt lat="53.631811961531639" lon="11.421662969514728">
        <ele>26.09</ele>
        <time>2024-09-14T07:12:32Z</time>
      </trkpt>
      <trkpt lat="53.631959985941648" lon="11.42170999199152">
        <ele>26.09</ele>
        <time>2024-09-14T07:12:35Z</time>
      </trkpt>
      <trkpt lat="53.632079008966684" lon="11.421747040003538">
        <ele>26.57</ele>
        <time>2024-09-14T07:12:37Z</time>
      </trkpt>
      <trkpt lat="53.632167018949986" lon="11.421772018074989">
        <ele>27.530000000000001</ele>
        <time>2024-09-14T07:12:39Z</time>
      </trkpt>
      <trkpt lat="53.632227033376694" lon="11.421790039166808">
        <ele>28.02</ele>
        <time>2024-09-14T07:12:40Z</time>
      </trkpt>
      <trkpt lat="53.632446974515915" lon="11.421851981431246">
        <ele>28.98</ele>
        <time>2024-09-14T07:12:43Z</time>
      </trkpt>
      <trkpt lat="53.632529033347964" lon="11.421876037493348">
        <ele>29.940000000000001</ele>
        <time>2024-09-14T07:12:44Z</time>
      </trkpt>
      <trkpt lat="53.633257001638412" lon="11.422130009159446">
        <ele>33.299999999999997</ele>
        <time>2024-09-14T07:12:54Z</time>
      </trkpt>
      <trkpt lat="53.633614992722869" lon="11.422238973900676">
        <ele>35.710000000000001</ele>
        <time>2024-09-14T07:12:59Z</time>
      </trkpt>
      <trkpt lat="53.633678024634719" lon="11.422258000820875">
        <ele>35.710000000000001</ele>
        <time>2024-09-14T07:13:00Z</time>
      </trkpt>
      <trkpt lat="53.633740972727537" lon="11.422278033569455">
        <ele>36.189999999999998</ele>
        <time>2024-09-14T07:13:01Z</time>
      </trkpt>
      <trkpt lat="53.634568015113473" lon="11.422532005235553">
        <ele>40.509999999999998</ele>
        <time>2024-09-14T07:13:12Z</time>
      </trkpt>
      <trkpt lat="53.634784016758204" lon="11.422606017440557">
        <ele>41.950000000000003</ele>
        <time>2024-09-14T07:13:15Z</time>
      </trkpt>
      <trkpt lat="53.634843025356531" lon="11.42263300716877">
        <ele>41.950000000000003</ele>
        <time>2024-09-14T07:13:16Z</time>
      </trkpt>
      <trkpt lat="53.634916031733155" lon="11.422654967755079">
        <ele>42.439999999999998</ele>
        <time>2024-09-14T07:13:17Z</time>
      </trkpt>
      <trkpt lat="53.635467980057001" lon="11.422825958579779">
        <ele>45.32</ele>
        <time>2024-09-14T07:13:25Z</time>
      </trkpt>
      <trkpt lat="53.635525982826948" lon="11.422841968014836">
        <ele>45.799999999999997</ele>
        <time>2024-09-14T07:13:26Z</time>
      </trkpt>
      <trkpt lat="53.635593960061669" lon="11.422860994935036">
        <ele>45.799999999999997</ele>
        <time>2024-09-14T07:13:27Z</time>
      </trkpt>
      <trkpt lat="53.635667972266674" lon="11.422882033511996">
        <ele>46.280000000000001</ele>
        <time>2024-09-14T07:13:28Z</time>
      </trkpt>
      <trkpt lat="53.635741984471679" lon="11.422902988269925">
        <ele>46.280000000000001</ele>
        <time>2024-09-14T07:13:29Z</time>
      </trkpt>
      <trkpt lat="53.636403987184167" lon="11.42310700379312">
        <ele>51.090000000000003</ele>
        <time>2024-09-14T07:13:38Z</time>
      </trkpt>
      <trkpt lat="53.636541031301022" lon="11.423151008784771">
        <ele>52.049999999999997</ele>
        <time>2024-09-14T07:13:40Z</time>
      </trkpt>
      <trkpt lat="53.637251984328032" lon="11.423360975459218">
        <ele>54.450000000000003</ele>
        <time>2024-09-14T07:13:48Z</time>
      </trkpt>
      <trkpt lat="53.637812985107303" lon="11.423506988212466">
        <ele>54.450000000000003</ele>
        <time>2024-09-14T07:13:53Z</time>
      </trkpt>
      <trkpt lat="53.637936031445861" lon="11.423545964062214">
        <ele>54.450000000000003</ele>
        <time>2024-09-14T07:13:54Z</time>
      </trkpt>
      <trkpt lat="53.639276968315244" lon="11.423989031463861">
        <ele>50.609999999999999</ele>
        <time>2024-09-14T07:14:06Z</time>
      </trkpt>
      <trkpt lat="53.640484968200326" lon="11.424359008669853">
        <ele>44.359999999999999</ele>
        <time>2024-09-14T07:14:18Z</time>
      </trkpt>
      <trkpt lat="53.641624990850687" lon="11.424726974219084">
        <ele>37.149999999999999</ele>
        <time>2024-09-14T07:14:29Z</time>
      </trkpt>
      <trkpt lat="53.642560997977853" lon="11.425040038302541">
        <ele>35.710000000000001</ele>
        <time>2024-09-14T07:14:38Z</time>
      </trkpt>
      <trkpt lat="53.64356598816812" lon="11.425330974161625">
        <ele>34.740000000000002</ele>
        <time>2024-09-14T07:14:47Z</time>
      </trkpt>
      <trkpt lat="53.644549017772079" lon="11.425924999639392">
        <ele>33.299999999999997</ele>
        <time>2024-09-14T07:14:57Z</time>
      </trkpt>
      <trkpt lat="53.644786980003119" lon="11.426150975748897">
        <ele>33.780000000000001</ele>
        <time>2024-09-14T07:15:00Z</time>
      </trkpt>
      <trkpt lat="53.644849006086588" lon="11.426213001832366">
        <ele>33.299999999999997</ele>
        <time>2024-09-14T07:15:01Z</time>
      </trkpt>
      <trkpt lat="53.644911032170057" lon="11.426276033744216">
        <ele>33.299999999999997</ele>
        <time>2024-09-14T07:15:02Z</time>
      </trkpt>
      <trkpt lat="53.644984038546681" lon="11.426322972401977">
        <ele>33.299999999999997</ele>
        <time>2024-09-14T07:15:03Z</time>
      </trkpt>
      <trkpt lat="53.645107001066208" lon="11.426332024857402">
        <ele>32.82</ele>
        <time>2024-09-14T07:15:04Z</time>
      </trkpt>
      <trkpt lat="53.645138014107943" lon="11.426446018740535">
        <ele>32.82</ele>
        <time>2024-09-14T07:15:05Z</time>
      </trkpt>
      <trkpt lat="53.64517598412931" lon="11.426553977653384">
        <ele>32.82</ele>
        <time>2024-09-14T07:15:06Z</time>
      </trkpt>
      <trkpt lat="53.645360972732306" lon="11.426682975143194">
        <ele>32.340000000000003</ele>
        <time>2024-09-14T07:15:07Z</time>
      </trkpt>
      <trkpt lat="53.645373964682221" lon="11.426708037033677">
        <ele>32.340000000000003</ele>
        <time>2024-09-14T07:15:08Z</time>
      </trkpt>
      <trkpt lat="53.645447976887226" lon="11.426852038130164">
        <ele>32.340000000000003</ele>
        <time>2024-09-14T07:15:09Z</time>
      </trkpt>
      <trkpt lat="53.646218022331595" lon="11.428058026358485">
        <ele>31.379999999999999</ele>
        <time>2024-09-14T07:15:18Z</time>
      </trkpt>
      <trkpt lat="53.647096026688814" lon="11.429158989340067">
        <ele>29.460000000000001</ele>
        <time>2024-09-14T07:15:27Z</time>
      </trkpt>
      <trkpt lat="53.647918961942196" lon="11.429861979559064">
        <ele>28.98</ele>
        <time>2024-09-14T07:15:35Z</time>
      </trkpt>
      <trkpt lat="53.648824039846659" lon="11.430327007547021">
        <ele>28.5</ele>
        <time>2024-09-14T07:15:43Z</time>
      </trkpt>
      <trkpt lat="53.649713024497032" lon="11.430767979472876">
        <ele>30.899999999999999</ele>
        <time>2024-09-14T07:15:51Z</time>
      </trkpt>
      <trkpt lat="53.650840977206826" lon="11.431624023243785">
        <ele>34.259999999999998</ele>
        <time>2024-09-14T07:16:01Z</time>
      </trkpt>
      <trkpt lat="53.651767009869218" lon="11.432351991534233">
        <ele>35.710000000000001</ele>
        <time>2024-09-14T07:16:07Z</time>
      </trkpt>
      <trkpt lat="53.65329897031188" lon="11.433974979445338">
        <ele>37.149999999999999</ele>
        <time>2024-09-14T07:16:16Z</time>
      </trkpt>
      <trkpt lat="53.654495989903808" lon="11.436258964240551">
        <ele>36.670000000000002</ele>
        <time>2024-09-14T07:16:25Z</time>
      </trkpt>
      <trkpt lat="53.655855031684041" lon="11.438323007896543">
        <ele>33.299999999999997</ele>
        <time>2024-09-14T07:16:34Z</time>
      </trkpt>
      <trkpt lat="53.657138971611857" lon="11.440260987728834">
        <ele>32.340000000000003</ele>
        <time>2024-09-14T07:16:42Z</time>
      </trkpt>
      <trkpt lat="53.658663975074887" lon="11.442687967792153">
        <ele>31.379999999999999</ele>
        <time>2024-09-14T07:16:51Z</time>
      </trkpt>
      <trkpt lat="53.660010024905205" lon="11.445379983633757">
        <ele>30.899999999999999</ele>
        <time>2024-09-14T07:17:00Z</time>
      </trkpt>
      <trkpt lat="53.661002023145556" lon="11.447401028126478">
        <ele>29.460000000000001</ele>
        <time>2024-09-14T07:17:08Z</time>
      </trkpt>
      <trkpt lat="53.66199997253716" lon="11.449215961620212">
        <ele>29.940000000000001</ele>
        <time>2024-09-14T07:17:16Z</time>
      </trkpt>
      <trkpt lat="53.662143973633647" lon="11.449304977431893">
        <ele>29.460000000000001</ele>
        <time>2024-09-14T07:17:17Z</time>
      </trkpt>
      <trkpt lat="53.662313036620617" lon="11.449394999071956">
        <ele>29.940000000000001</ele>
        <time>2024-09-14T07:17:18Z</time>
      </trkpt>
      <trkpt lat="53.662480004131794" lon="11.449411008507013">
        <ele>29.460000000000001</ele>
        <time>2024-09-14T07:17:19Z</time>
      </trkpt>
      <trkpt lat="53.662672033533454" lon="11.449417965486646">
        <ele>29.460000000000001</ele>
        <time>2024-09-14T07:17:20Z</time>
      </trkpt>
      <trkpt lat="53.662872025743127" lon="11.44942500628531">
        <ele>29.460000000000001</ele>
        <time>2024-09-14T07:17:21Z</time>
      </trkpt>
      <trkpt lat="53.664930034428835" lon="11.44944897852838">
        <ele>27.530000000000001</ele>
        <time>2024-09-14T07:17:31Z</time>
      </trkpt>
      <trkpt lat="53.666470041498542" lon="11.449460964649916">
        <ele>24.170000000000002</ele>
        <time>2024-09-14T07:17:39Z</time>
      </trkpt>
      <trkpt lat="53.668216997757554" lon="11.449471022933722">
        <ele>22.25</ele>
        <time>2024-09-14T07:17:48Z</time>
      </trkpt>
      <trkpt lat="53.66999396122992" lon="11.449471022933722">
        <ele>22.73</ele>
        <time>2024-09-14T07:17:57Z</time>
      </trkpt>
      <trkpt lat="53.672198988497257" lon="11.449471022933722">
        <ele>23.210000000000001</ele>
        <time>2024-09-14T07:18:06Z</time>
      </trkpt>
      <trkpt lat="53.674575006589293" lon="11.449471022933722">
        <ele>22.73</ele>
        <time>2024-09-14T07:18:15Z</time>
      </trkpt>
      <trkpt lat="53.675912003964186" lon="11.449504969641566">
        <ele>22.25</ele>
        <time>2024-09-14T07:18:22Z</time>
      </trkpt>
      <trkpt lat="53.677140036597848" lon="11.449672020971775">
        <ele>23.210000000000001</ele>
        <time>2024-09-14T07:18:30Z</time>
      </trkpt>
      <trkpt lat="53.677307004109025" lon="11.449742009863257">
        <ele>23.210000000000001</ele>
        <time>2024-09-14T07:18:31Z</time>
      </trkpt>
      <trkpt lat="53.677474977448583" lon="11.449839994311333">
        <ele>23.210000000000001</ele>
        <time>2024-09-14T07:18:32Z</time>
      </trkpt>
      <trkpt lat="53.67764001712203" lon="11.449965974316001">
        <ele>23.690000000000001</ele>
        <time>2024-09-14T07:18:33Z</time>
      </trkpt>
      <trkpt lat="53.678424982354045" lon="11.450927965342999">
        <ele>24.649999999999999</ele>
        <time>2024-09-14T07:18:38Z</time>
      </trkpt>
      <trkpt lat="53.67856596596539" lon="11.451176991686225">
        <ele>24.649999999999999</ele>
        <time>2024-09-14T07:18:39Z</time>
      </trkpt>
      <trkpt lat="53.67869202978909" lon="11.451458036899567">
        <ele>24.649999999999999</ele>
        <time>2024-09-14T07:18:40Z</time>
      </trkpt>
      <trkpt lat="53.678805017843843" lon="11.451749978587031">
        <ele>24.649999999999999</ele>
        <time>2024-09-14T07:18:41Z</time>
      </trkpt>
      <trkpt lat="53.678918005898595" lon="11.452039992436767">
        <ele>24.649999999999999</ele>
        <time>2024-09-14T07:18:42Z</time>
      </trkpt>
      <trkpt lat="53.679033005610108" lon="11.452349033206701">
        <ele>24.649999999999999</ele>
        <time>2024-09-14T07:18:43Z</time>
      </trkpt>
      <trkpt lat="53.679099977016449" lon="11.452678022906184">
        <ele>24.649999999999999</ele>
        <time>2024-09-14T07:18:44Z</time>
      </trkpt>
      <trkpt lat="53.67916502058506" lon="11.452997038140893">
        <ele>24.170000000000002</ele>
        <time>2024-09-14T07:18:45Z</time>
      </trkpt>
      <trkpt lat="53.679228974506259" lon="11.453305995091796">
        <ele>23.690000000000001</ele>
        <time>2024-09-14T07:18:46Z</time>
      </trkpt>
      <trkpt lat="53.679269040003419" lon="11.453639008104801">
        <ele>23.210000000000001</ele>
        <time>2024-09-14T07:18:47Z</time>
      </trkpt>
      <trkpt lat="53.679455034434795" lon="11.456467984244227">
        <ele>22.25</ele>
        <time>2024-09-14T07:18:56Z</time>
      </trkpt>
      <trkpt lat="53.679769020527601" lon="11.460558017715812">
        <ele>23.210000000000001</ele>
        <time>2024-09-14T07:19:10Z</time>
      </trkpt>
      <trkpt lat="53.679834986105561" lon="11.460827998816967">
        <ele>23.210000000000001</ele>
        <time>2024-09-14T07:19:11Z</time>
      </trkpt>
      <trkpt lat="53.679922996088862" lon="11.461074007675052">
        <ele>23.210000000000001</ele>
        <time>2024-09-14T07:19:12Z</time>
      </trkpt>
      <trkpt lat="53.680036989971995" lon="11.461314987391233">
        <ele>23.690000000000001</ele>
        <time>2024-09-14T07:19:13Z</time>
      </trkpt>
      <trkpt lat="53.680167999118567" lon="11.461486984044313">
        <ele>24.170000000000002</ele>
        <time>2024-09-14T07:19:14Z</time>
      </trkpt>
      <trkpt lat="53.680307976901531" lon="11.461671972647309">
        <ele>24.649999999999999</ele>
        <time>2024-09-14T07:19:15Z</time>
      </trkpt>
      <trkpt lat="53.681549001485109" lon="11.462801015004516">
        <ele>25.609999999999999</ele>
        <time>2024-09-14T07:19:23Z</time>
      </trkpt>
      <trkpt lat="53.683770038187504" lon="11.464490974321961">
        <ele>25.129999999999999</ele>
        <time>2024-09-14T07:19:37Z</time>
      </trkpt>
      <trkpt lat="53.684075977653265" lon="11.464747963473201">
        <ele>25.129999999999999</ele>
        <time>2024-09-14T07:19:39Z</time>
      </trkpt>
      <trkpt lat="53.684375965967774" lon="11.465052980929613">
        <ele>24.649999999999999</ele>
        <time>2024-09-14T07:19:41Z</time>
      </trkpt>
      <trkpt lat="53.684498006477952" lon="11.465277029201388">
        <ele>24.649999999999999</ele>
        <time>2024-09-14T07:19:42Z</time>
      </trkpt>
      <trkpt lat="53.684585010632873" lon="11.465527983382344">
        <ele>24.649999999999999</ele>
        <time>2024-09-14T07:19:43Z</time>
      </trkpt>
      <trkpt lat="53.684674026444554" lon="11.465785978361964">
        <ele>24.649999999999999</ele>
        <time>2024-09-14T07:19:44Z</time>
      </trkpt>
      <trkpt lat="53.684763964265585" lon="11.466043973341584">
        <ele>24.649999999999999</ele>
        <time>2024-09-14T07:19:45Z</time>
      </trkpt>
      <trkpt lat="53.685603998601437" lon="11.468609003350139">
        <ele>23.210000000000001</ele>
        <time>2024-09-14T07:19:55Z</time>
      </trkpt>
      <trkpt lat="53.685684967786074" lon="11.468874039128423">
        <ele>23.210000000000001</ele>
        <time>2024-09-14T07:19:56Z</time>
      </trkpt>
      <trkpt lat="53.685730984434485" lon="11.469137985259295">
        <ele>22.73</ele>
        <time>2024-09-14T07:19:57Z</time>
      </trkpt>
      <trkpt lat="53.685747999697924" lon="11.46942900493741">
        <ele>22.73</ele>
        <time>2024-09-14T07:19:58Z</time>
      </trkpt>
      <trkpt lat="53.685952015221119" lon="11.472700964659452">
        <ele>23.690000000000001</ele>
        <time>2024-09-14T07:20:09Z</time>
      </trkpt>
      <trkpt lat="53.686164999380708" lon="11.47561501711607">
        <ele>22.25</ele>
        <time>2024-09-14T07:20:19Z</time>
      </trkpt>
      <trkpt lat="53.686635978519917" lon="11.478105029091239">
        <ele>20.32</ele>
        <time>2024-09-14T07:20:28Z</time>
      </trkpt>
      <trkpt lat="53.687021965160966" lon="11.480060024186969">
        <ele>20.809999999999999</ele>
        <time>2024-09-14T07:20:35Z</time>
      </trkpt>
      <trkpt lat="53.687049960717559" lon="11.480676010251045">
        <ele>21.289999999999999</ele>
        <time>2024-09-14T07:20:37Z</time>
      </trkpt>
      <trkpt lat="53.687026994302869" lon="11.480972981080413">
        <ele>21.77</ele>
        <time>2024-09-14T07:20:38Z</time>
      </trkpt>
      <trkpt lat="53.686987012624741" lon="11.481265006586909">
        <ele>22.25</ele>
        <time>2024-09-14T07:20:39Z</time>
      </trkpt>
      <trkpt lat="53.686947030946612" lon="11.481555020436645">
        <ele>23.210000000000001</ele>
        <time>2024-09-14T07:20:40Z</time>
      </trkpt>
      <trkpt lat="53.686897996813059" lon="11.481841010972857">
        <ele>24.170000000000002</ele>
        <time>2024-09-14T07:20:41Z</time>
      </trkpt>
      <trkpt lat="53.686683000996709" lon="11.482869973406196">
        <ele>28.02</ele>
        <time>2024-09-14T07:20:46Z</time>
      </trkpt>
      <trkpt lat="53.686548974364996" lon="11.483876975253224">
        <ele>31.859999999999999</ele>
        <time>2024-09-14T07:20:52Z</time>
      </trkpt>
      <trkpt lat="53.686501029878855" lon="11.485080029815435">
        <ele>33.299999999999997</ele>
        <time>2024-09-14T07:20:59Z</time>
      </trkpt>
      <trkpt lat="53.686519972980022" lon="11.485381023958325">
        <ele>33.780000000000001</ele>
        <time>2024-09-14T07:21:01Z</time>
      </trkpt>
      <trkpt lat="53.686527013778687" lon="11.485507003962994">
        <ele>33.780000000000001</ele>
        <time>2024-09-14T07:21:02Z</time>
      </trkpt>
      <trkpt lat="53.686532964929938" lon="11.48560700006783">
        <ele>33.780000000000001</ele>
        <time>2024-09-14T07:21:03Z</time>
      </trkpt>
      <trkpt lat="53.686437997967005" lon="11.485708002001047">
        <ele>33.780000000000001</ele>
        <time>2024-09-14T07:21:04Z</time>
      </trkpt>
      <trkpt lat="53.686388963833451" lon="11.48571596480906">
        <ele>33.780000000000001</ele>
        <time>2024-09-14T07:21:05Z</time>
      </trkpt>
      <trkpt lat="53.686316963285208" lon="11.485728034749627">
        <ele>33.780000000000001</ele>
        <time>2024-09-14T07:21:06Z</time>
      </trkpt>
      <trkpt lat="53.686232976615429" lon="11.485742032527924">
        <ele>33.780000000000001</ele>
        <time>2024-09-14T07:21:07Z</time>
      </trkpt>
      <trkpt lat="53.68522304110229" lon="11.48588502779603">
        <ele>37.630000000000003</ele>
        <time>2024-09-14T07:21:16Z</time>
      </trkpt>
      <trkpt lat="53.683799039572477" lon="11.486184010282159">
        <ele>41.469999999999999</ele>
        <time>2024-09-14T07:21:28Z</time>
      </trkpt>
      <trkpt lat="53.682794971391559" lon="11.486750962212682">
        <ele>43.399999999999999</ele>
        <time>2024-09-14T07:21:35Z</time>
      </trkpt>
      <trkpt lat="53.680999986827374" lon="11.487857960164547">
        <ele>42.920000000000002</ele>
        <time>2024-09-14T07:21:45Z</time>
      </trkpt>
      <trkpt lat="53.67834703065455" lon="11.4894940238446">
        <ele>40.990000000000002</ele>
        <time>2024-09-14T07:22:00Z</time>
      </trkpt>
      <trkpt lat="53.67675899527967" lon="11.490134987980127">
        <ele>42.439999999999998</ele>
        <time>2024-09-14T07:22:09Z</time>
      </trkpt>
      <trkpt lat="53.675516964867711" lon="11.490425001829863">
        <ele>41.950000000000003</ele>
        <time>2024-09-14T07:22:17Z</time>
      </trkpt>
      <trkpt lat="53.673896994441748" lon="11.49072197265923">
        <ele>38.590000000000003</ele>
        <time>2024-09-14T07:22:28Z</time>
      </trkpt>
      <trkpt lat="53.672297978773713" lon="11.490760026499629">
        <ele>37.149999999999999</ele>
        <time>2024-09-14T07:22:37Z</time>
      </trkpt>
      <trkpt lat="53.67078697308898" lon="11.490680985152721">
        <ele>38.109999999999999</ele>
        <time>2024-09-14T07:22:45Z</time>
      </trkpt>
      <trkpt lat="53.668515980243683" lon="11.490693977102637">
        <ele>45.799999999999997</ele>
        <time>2024-09-14T07:22:56Z</time>
      </trkpt>
      <trkpt lat="53.66676801815629" lon="11.491024978458881">
        <ele>50.609999999999999</ele>
        <time>2024-09-14T07:23:05Z</time>
      </trkpt>
      <trkpt lat="53.666599038988352" lon="11.49110502563417">
        <ele>50.609999999999999</ele>
        <time>2024-09-14T07:23:06Z</time>
      </trkpt>
      <trkpt lat="53.666426036506891" lon="11.491189012303948">
        <ele>50.609999999999999</ele>
        <time>2024-09-14T07:23:07Z</time>
      </trkpt>
      <trkpt lat="53.666262002661824" lon="11.491318009793758">
        <ele>50.130000000000003</ele>
        <time>2024-09-14T07:23:08Z</time>
      </trkpt>
      <trkpt lat="53.666133005172014" lon="11.491490006446838">
        <ele>50.130000000000003</ele>
        <time>2024-09-14T07:23:09Z</time>
      </trkpt>
      <trkpt lat="53.666013982146978" lon="11.491649011150002">
        <ele>50.130000000000003</ele>
        <time>2024-09-14T07:23:10Z</time>
      </trkpt>
      <trkpt lat="53.665903005748987" lon="11.491798041388392">
        <ele>50.130000000000003</ele>
        <time>2024-09-14T07:23:11Z</time>
      </trkpt>
      <trkpt lat="53.665809966623783" lon="11.491970038041472">
        <ele>50.130000000000003</ele>
        <time>2024-09-14T07:23:12Z</time>
      </trkpt>
      <trkpt lat="53.664934979751706" lon="11.493684975430369">
        <ele>52.049999999999997</ele>
        <time>2024-09-14T07:23:23Z</time>
      </trkpt>
      <trkpt lat="53.664480010047555" lon="11.494660964235663">
        <ele>52.530000000000001</ele>
        <time>2024-09-14T07:23:29Z</time>
      </trkpt>
      <trkpt lat="53.664438016712666" lon="11.494807982817292">
        <ele>52.530000000000001</ele>
        <time>2024-09-14T07:23:30Z</time>
      </trkpt>
      <trkpt lat="53.664394011721015" lon="11.495004035532475">
        <ele>52.530000000000001</ele>
        <time>2024-09-14T07:23:31Z</time>
      </trkpt>
      <trkpt lat="53.66438596509397" lon="11.495815990492702">
        <ele>51.57</ele>
        <time>2024-09-14T07:23:35Z</time>
      </trkpt>
      <trkpt lat="53.664366016164422" lon="11.497282991185784">
        <ele>48.200000000000003</ele>
        <time>2024-09-14T07:23:43Z</time>
      </trkpt>
      <trkpt lat="53.664341038092971" lon="11.497452976182103">
        <ele>48.200000000000003</ele>
        <time>2024-09-14T07:23:44Z</time>
      </trkpt>
      <trkpt lat="53.66429996676743" lon="11.497607035562396">
        <ele>47.719999999999999</ele>
        <time>2024-09-14T07:23:45Z</time>
      </trkpt>
      <trkpt lat="53.664240036159754" lon="11.497751958668232">
        <ele>47.719999999999999</ele>
        <time>2024-09-14T07:23:46Z</time>
      </trkpt>
      <trkpt lat="53.664165018126369" lon="11.497849021106958">
        <ele>47.719999999999999</ele>
        <time>2024-09-14T07:23:47Z</time>
      </trkpt>
      <trkpt lat="53.664072984829545" lon="11.497938958927989">
        <ele>47.719999999999999</ele>
        <time>2024-09-14T07:23:48Z</time>
      </trkpt>
      <trkpt lat="53.663981035351753" lon="11.498027974739671">
        <ele>47.719999999999999</ele>
        <time>2024-09-14T07:23:49Z</time>
      </trkpt>
      <trkpt lat="53.662788039073348" lon="11.499166991561651">
        <ele>48.200000000000003</ele>
        <time>2024-09-14T07:24:02Z</time>
      </trkpt>
      <trkpt lat="53.662476986646652" lon="11.499401014298201">
        <ele>49.159999999999997</ele>
        <time>2024-09-14T07:24:06Z</time>
      </trkpt>
      <trkpt lat="53.662401968613267" lon="11.499452982097864">
        <ele>49.159999999999997</ele>
        <time>2024-09-14T07:24:07Z</time>
      </trkpt>
      <trkpt lat="53.662089994177222" lon="11.499590026214719">
        <ele>50.130000000000003</ele>
        <time>2024-09-14T07:24:12Z</time>
      </trkpt>
      <trkpt lat="53.66204003803432" lon="11.499605029821396">
        <ele>50.130000000000003</ele>
        <time>2024-09-14T07:24:13Z</time>
      </trkpt>
      <trkpt lat="53.661989998072386" lon="11.499620033428073">
        <ele>50.609999999999999</ele>
        <time>2024-09-14T07:24:14Z</time>
      </trkpt>
      <trkpt lat="53.661940963938832" lon="11.499757999554276">
        <ele>50.609999999999999</ele>
        <time>2024-09-14T07:24:15Z</time>
      </trkpt>
      <trkpt lat="53.661953033879399" lon="11.499855984002352">
        <ele>50.609999999999999</ele>
        <time>2024-09-14T07:24:16Z</time>
      </trkpt>
      <trkpt lat="53.661968037486076" lon="11.499975007027388">
        <ele>51.090000000000003</ele>
        <time>2024-09-14T07:24:17Z</time>
      </trkpt>
      <trkpt lat="53.661984968930483" lon="11.500104004517198">
        <ele>51.090000000000003</ele>
        <time>2024-09-14T07:24:18Z</time>
      </trkpt>
      <trkpt lat="53.661997960880399" lon="11.500230990350246">
        <ele>51.57</ele>
        <time>2024-09-14T07:24:19Z</time>
      </trkpt>
      <trkpt lat="53.662034003064036" lon="11.500480016693473">
        <ele>51.57</ele>
        <time>2024-09-14T07:24:21Z</time>
      </trkpt>
      <trkpt lat="53.662155959755182" lon="11.501810979098082">
        <ele>53.490000000000002</ele>
        <time>2024-09-14T07:24:29Z</time>
      </trkpt>
      <trkpt lat="53.662334997206926" lon="11.503664972260594">
        <ele>52.049999999999997</ele>
        <time>2024-09-14T07:24:38Z</time>
      </trkpt>
      <trkpt lat="53.662476986646652" lon="11.505414023995399">
        <ele>53.009999999999998</ele>
        <time>2024-09-14T07:24:47Z</time>
      </trkpt>
      <trkpt lat="53.662490984424949" lon="11.50657600723207">
        <ele>53.009999999999998</ele>
        <time>2024-09-14T07:24:52Z</time>
      </trkpt>
      <trkpt lat="53.66247396916151" lon="11.506832996383309">
        <ele>53.009999999999998</ele>
        <time>2024-09-14T07:24:53Z</time>
      </trkpt>
      <trkpt lat="53.662456031888723" lon="11.507100965827703">
        <ele>53.490000000000002</ele>
        <time>2024-09-14T07:24:54Z</time>
      </trkpt>
      <trkpt lat="53.661986980587244" lon="11.509260982275009">
        <ele>53.009999999999998</ele>
        <time>2024-09-14T07:25:02Z</time>
      </trkpt>
      <trkpt lat="53.661336963996291" lon="11.512321969494224">
        <ele>51.090000000000003</ele>
        <time>2024-09-14T07:25:13Z</time>
      </trkpt>
      <trkpt lat="53.660823991522193" lon="11.514892028644681">
        <ele>52.049999999999997</ele>
        <time>2024-09-14T07:25:22Z</time>
      </trkpt>
      <trkpt lat="53.660045983269811" lon="11.517486982047558">
        <ele>48.200000000000003</ele>
        <time>2024-09-14T07:25:32Z</time>
      </trkpt>
      <trkpt lat="53.659768039360642" lon="11.518458025529981">
        <ele>47.240000000000002</ele>
        <time>2024-09-14T07:25:36Z</time>
      </trkpt>
      <trkpt lat="53.658915013074875" lon="11.520594991743565">
        <ele>47.719999999999999</ele>
        <time>2024-09-14T07:25:45Z</time>
      </trkpt>
      <trkpt lat="53.658101968467236" lon="11.522606983780861">
        <ele>46.280000000000001</ele>
        <time>2024-09-14T07:25:53Z</time>
      </trkpt>
      <trkpt lat="53.657689997926354" lon="11.523985974490643">
        <ele>42.920000000000002</ele>
        <time>2024-09-14T07:25:59Z</time>
      </trkpt>
      <trkpt lat="53.657672982662916" lon="11.524232989177108">
        <ele>41.950000000000003</ele>
        <time>2024-09-14T07:26:00Z</time>
      </trkpt>
      <trkpt lat="53.657654961571097" lon="11.524489978328347">
        <ele>40.509999999999998</ele>
        <time>2024-09-14T07:26:01Z</time>
      </trkpt>
      <trkpt lat="53.657635012641549" lon="11.524787032976747">
        <ele>39.549999999999997</ele>
        <time>2024-09-14T07:26:02Z</time>
      </trkpt>
      <trkpt lat="53.657667031511664" lon="11.525018038228154">
        <ele>38.590000000000003</ele>
        <time>2024-09-14T07:26:03Z</time>
      </trkpt>
      <trkpt lat="53.657705001533031" lon="11.525290030986071">
        <ele>37.149999999999999</ele>
        <time>2024-09-14T07:26:04Z</time>
      </trkpt>
      <trkpt lat="53.657740959897637" lon="11.525549031794071">
        <ele>36.189999999999998</ele>
        <time>2024-09-14T07:26:05Z</time>
      </trkpt>
      <trkpt lat="53.65780902095139" lon="11.526036020368338">
        <ele>33.780000000000001</ele>
        <time>2024-09-14T07:26:07Z</time>
      </trkpt>
      <trkpt lat="53.657884038984776" lon="11.526700034737587">
        <ele>30.420000000000002</ele>
        <time>2024-09-14T07:26:10Z</time>
      </trkpt>
      <trkpt lat="53.657855037599802" lon="11.526932967826724">
        <ele>29.460000000000001</ele>
        <time>2024-09-14T07:26:11Z</time>
      </trkpt>
      <trkpt lat="53.657825030386448" lon="11.527173025533557">
        <ele>28.5</ele>
        <time>2024-09-14T07:26:12Z</time>
      </trkpt>
      <trkpt lat="53.657781025394797" lon="11.527391038835049">
        <ele>27.050000000000001</ele>
        <time>2024-09-14T07:26:13Z</time>
      </trkpt>
      <trkpt lat="53.657700978219509" lon="11.52761198580265">
        <ele>25.609999999999999</ele>
        <time>2024-09-14T07:26:14Z</time>
      </trkpt>
      <trkpt lat="53.657620009034872" lon="11.527836034074426">
        <ele>24.649999999999999</ele>
        <time>2024-09-14T07:26:15Z</time>
      </trkpt>
      <trkpt lat="53.65753099322319" lon="11.528053963556886">
        <ele>23.690000000000001</ele>
        <time>2024-09-14T07:26:16Z</time>
      </trkpt>
      <trkpt lat="53.656723983585835" lon="11.529851965606213">
        <ele>17.920000000000002</ele>
        <time>2024-09-14T07:26:24Z</time>
      </trkpt>
      <trkpt lat="53.656595991924405" lon="11.530029997229576">
        <ele>17.440000000000001</ele>
        <time>2024-09-14T07:26:25Z</time>
      </trkpt>
      <trkpt lat="53.656462971121073" lon="11.530210040509701">
        <ele>16.960000000000001</ele>
        <time>2024-09-14T07:26:26Z</time>
      </trkpt>
      <trkpt lat="53.655563006177545" lon="11.531129032373428">
        <ele>15.039999999999999</ele>
        <time>2024-09-14T07:26:32Z</time>
      </trkpt>
      <trkpt lat="53.654631022363901" lon="11.532728970050812">
        <ele>17.920000000000002</ele>
        <time>2024-09-14T07:26:40Z</time>
      </trkpt>
      <trkpt lat="53.654549969360232" lon="11.533000962808728">
        <ele>18.399999999999999</ele>
        <time>2024-09-14T07:26:41Z</time>
      </trkpt>
      <trkpt lat="53.654488027095795" lon="11.533272033557296">
        <ele>19.359999999999999</ele>
        <time>2024-09-14T07:26:42Z</time>
      </trkpt>
      <trkpt lat="53.654117966070771" lon="11.53517103753984">
        <ele>25.129999999999999</ele>
        <time>2024-09-14T07:26:49Z</time>
      </trkpt>
      <trkpt lat="53.653934989124537" lon="11.536273006349802">
        <ele>26.09</ele>
        <time>2024-09-14T07:26:53Z</time>
      </trkpt>
      <trkpt lat="53.653897019103169" lon="11.536556985229254">
        <ele>26.57</ele>
        <time>2024-09-14T07:26:54Z</time>
      </trkpt>
      <trkpt lat="53.653631983324885" lon="11.538725970312953">
        <ele>27.050000000000001</ele>
        <time>2024-09-14T07:27:02Z</time>
      </trkpt>
      <trkpt lat="53.653627960011363" lon="11.538983965292573">
        <ele>27.050000000000001</ele>
        <time>2024-09-14T07:27:03Z</time>
      </trkpt>
      <trkpt lat="53.653669031336904" lon="11.539239026606083">
        <ele>27.050000000000001</ele>
        <time>2024-09-14T07:27:04Z</time>
      </trkpt>
      <trkpt lat="53.653708007186651" lon="11.539486041292548">
        <ele>27.050000000000001</ele>
        <time>2024-09-14T07:27:05Z</time>
      </trkpt>
      <trkpt lat="53.653774978592992" lon="11.539751999080181">
        <ele>27.050000000000001</ele>
        <time>2024-09-14T07:27:06Z</time>
      </trkpt>
      <trkpt lat="53.653852008283138" lon="11.539994990453124">
        <ele>27.050000000000001</ele>
        <time>2024-09-14T07:27:07Z</time>
      </trkpt>
      <trkpt lat="53.653954016044736" lon="11.540220966562629">
        <ele>26.57</ele>
        <time>2024-09-14T07:27:08Z</time>
      </trkpt>
      <trkpt lat="53.654057029634714" lon="11.540450965985656">
        <ele>26.57</ele>
        <time>2024-09-14T07:27:09Z</time>
      </trkpt>
      <trkpt lat="53.655033018440008" lon="11.542595978826284">
        <ele>28.02</ele>
        <time>2024-09-14T07:27:18Z</time>
      </trkpt>
      <trkpt lat="53.65581102669239" lon="11.544271018356085">
        <ele>24.170000000000002</ele>
        <time>2024-09-14T07:27:26Z</time>
      </trkpt>
      <trkpt lat="53.656415026634932" lon="11.545459991320968">
        <ele>16</ele>
        <time>2024-09-14T07:27:34Z</time>
      </trkpt>
      <trkpt lat="53.657264029607177" lon="11.546920035034418">
        <ele>19.359999999999999</ele>
        <time>2024-09-14T07:27:44Z</time>
      </trkpt>
      <trkpt lat="53.657371988520026" lon="11.547278026118875">
        <ele>20.32</ele>
        <time>2024-09-14T07:27:46Z</time>
      </trkpt>
      <trkpt lat="53.657424040138721" lon="11.547452034428716">
        <ele>20.809999999999999</ele>
        <time>2024-09-14T07:27:47Z</time>
      </trkpt>
      <trkpt lat="53.657451029866934" lon="11.547655966132879">
        <ele>20.809999999999999</ele>
        <time>2024-09-14T07:27:48Z</time>
      </trkpt>
      <trkpt lat="53.657602993771434" lon="11.550499023869634">
        <ele>28.98</ele>
        <time>2024-09-14T07:28:02Z</time>
      </trkpt>
      <trkpt lat="53.657748000696301" lon="11.553430007770658">
        <ele>32.82</ele>
        <time>2024-09-14T07:28:16Z</time>
      </trkpt>
      <trkpt lat="53.657897030934691" lon="11.556740021333098">
        <ele>34.259999999999998</ele>
        <time>2024-09-14T07:28:30Z</time>
      </trkpt>
      <trkpt lat="53.658073972910643" lon="11.560172997415066">
        <ele>33.299999999999997</ele>
        <time>2024-09-14T07:28:45Z</time>
      </trkpt>
      <trkpt lat="53.658200036734343" lon="11.562719000503421">
        <ele>32.82</ele>
        <time>2024-09-14T07:28:55Z</time>
      </trkpt>
      <trkpt lat="53.658314030617476" lon="11.565421996638179">
        <ele>30.420000000000002</ele>
        <time>2024-09-14T07:29:05Z</time>
      </trkpt>
      <trkpt lat="53.65828100591898" lon="11.566267982125282">
        <ele>28.5</ele>
        <time>2024-09-14T07:29:08Z</time>
      </trkpt>
      <trkpt lat="53.658114960417151" lon="11.568145025521517">
        <ele>23.690000000000001</ele>
        <time>2024-09-14T07:29:15Z</time>
      </trkpt>
      <trkpt lat="53.658058969303966" lon="11.56892697326839">
        <ele>22.73</ele>
        <time>2024-09-14T07:29:18Z</time>
      </trkpt>
      <trkpt lat="53.658042959868908" lon="11.56916200183332">
        <ele>22.25</ele>
        <time>2024-09-14T07:29:19Z</time>
      </trkpt>
      <trkpt lat="53.658108003437519" lon="11.569422008469701">
        <ele>21.77</ele>
        <time>2024-09-14T07:29:20Z</time>
      </trkpt>
      <trkpt lat="53.658163994550705" lon="11.569646978750825">
        <ele>21.289999999999999</ele>
        <time>2024-09-14T07:29:21Z</time>
      </trkpt>
      <trkpt lat="53.658245969563723" lon="11.569833979010582">
        <ele>20.809999999999999</ele>
        <time>2024-09-14T07:29:22Z</time>
      </trkpt>
      <trkpt lat="53.658361975103617" lon="11.569991977885365">
        <ele>20.32</ele>
        <time>2024-09-14T07:29:23Z</time>
      </trkpt>
      <trkpt lat="53.658492984250188" lon="11.570170009508729">
        <ele>19.84</ele>
        <time>2024-09-14T07:29:24Z</time>
      </trkpt>
      <trkpt lat="53.658621981739998" lon="11.570256007835269">
        <ele>19.359999999999999</ele>
        <time>2024-09-14T07:29:25Z</time>
      </trkpt>
      <trkpt lat="53.658758020028472" lon="11.570353992283344">
        <ele>18.399999999999999</ele>
        <time>2024-09-14T07:29:26Z</time>
      </trkpt>
      <trkpt lat="53.659003023058176" lon="11.570553984493017">
        <ele>16.960000000000001</ele>
        <time>2024-09-14T07:29:28Z</time>
      </trkpt>
      <trkpt lat="53.659179965034127" lon="11.570792030543089">
        <ele>15.039999999999999</ele>
        <time>2024-09-14T07:29:30Z</time>
      </trkpt>
      <trkpt lat="53.659258000552654" lon="11.57101096585393">
        <ele>14.08</ele>
        <time>2024-09-14T07:29:31Z</time>
      </trkpt>
      <trkpt lat="53.659304017201066" lon="11.571186985820532">
        <ele>12.630000000000001</ele>
        <time>2024-09-14T07:29:32Z</time>
      </trkpt>
      <trkpt lat="53.659347016364336" lon="11.571430983021855">
        <ele>11.19</ele>
        <time>2024-09-14T07:29:33Z</time>
      </trkpt>
      <trkpt lat="53.659390015527606" lon="11.571695012971759">
        <ele>9.75</ele>
        <time>2024-09-14T07:29:34Z</time>
      </trkpt>
      <trkpt lat="53.65974398329854" lon="11.573915965855122">
        <ele>-0.82</ele>
        <time>2024-09-14T07:29:42Z</time>
      </trkpt>
      <trkpt lat="53.660226026549935" lon="11.576162986457348">
        <ele>-9</ele>
        <time>2024-09-14T07:29:50Z</time>
      </trkpt>
      <trkpt lat="53.660318981856108" lon="11.576416036114097">
        <ele>-9.960000000000001</ele>
        <time>2024-09-14T07:29:51Z</time>
      </trkpt>
      <trkpt lat="53.660673033446074" lon="11.577376015484333">
        <ele>-14.76</ele>
        <time>2024-09-14T07:29:55Z</time>
      </trkpt>
      <trkpt lat="53.660760959610343" lon="11.577612971886992">
        <ele>-16.210000000000001</ele>
        <time>2024-09-14T07:29:56Z</time>
      </trkpt>
      <trkpt lat="53.661166978999972" lon="11.578714018687606">
        <ele>-18.129999999999999</ele>
        <time>2024-09-14T07:30:01Z</time>
      </trkpt>
      <trkpt lat="53.661252977326512" lon="11.578946029767394">
        <ele>-18.129999999999999</ele>
        <time>2024-09-14T07:30:02Z</time>
      </trkpt>
      <trkpt lat="53.661873992532492" lon="11.580887027084827">
        <ele>-19.57</ele>
        <time>2024-09-14T07:30:10Z</time>
      </trkpt>
      <trkpt lat="53.66217004135251" lon="11.582157975062728">
        <ele>-20.050000000000001</ele>
        <time>2024-09-14T07:30:15Z</time>
      </trkpt>
      <trkpt lat="53.662338014692068" lon="11.582972025498748">
        <ele>-19.09</ele>
        <time>2024-09-14T07:30:19Z</time>
      </trkpt>
      <trkpt lat="53.662371039390564" lon="11.583139998838305">
        <ele>-18.609999999999999</ele>
        <time>2024-09-14T07:30:20Z</time>
      </trkpt>
      <trkpt lat="53.662402974441648" lon="11.583350971341133">
        <ele>-18.129999999999999</ele>
        <time>2024-09-14T07:30:21Z</time>
      </trkpt>
      <trkpt lat="53.662414038553834" lon="11.583543000742793">
        <ele>-18.129999999999999</ele>
        <time>2024-09-14T07:30:22Z</time>
      </trkpt>
      <trkpt lat="53.662425018846989" lon="11.583738969638944">
        <ele>-17.170000000000002</ele>
        <time>2024-09-14T07:30:23Z</time>
      </trkpt>
      <trkpt lat="53.662441028282046" lon="11.585007989779115">
        <ele>-13.32</ele>
        <time>2024-09-14T07:30:29Z</time>
      </trkpt>
      <trkpt lat="53.662441028282046" lon="11.585223991423845">
        <ele>-12.359999999999999</ele>
        <time>2024-09-14T07:30:30Z</time>
      </trkpt>
      <trkpt lat="53.662441028282046" lon="11.586364014074206">
        <ele>-5.63</ele>
        <time>2024-09-14T07:30:36Z</time>
      </trkpt>
      <trkpt lat="53.662441028282046" lon="11.586521007120609">
        <ele>-4.19</ele>
        <time>2024-09-14T07:30:37Z</time>
      </trkpt>
      <trkpt lat="53.662390988320112" lon="11.587020987644792">
        <ele>1.58</ele>
        <time>2024-09-14T07:30:40Z</time>
      </trkpt>
      <trkpt lat="53.662368021905422" lon="11.587162977084517">
        <ele>3.02</ele>
        <time>2024-09-14T07:30:41Z</time>
      </trkpt>
      <trkpt lat="53.66234396584332" lon="11.587311001494527">
        <ele>4.94</ele>
        <time>2024-09-14T07:30:42Z</time>
      </trkpt>
      <trkpt lat="53.662262996658683" lon="11.587632028385997">
        <ele>8.310000000000001</ele>
        <time>2024-09-14T07:30:44Z</time>
      </trkpt>
      <trkpt lat="53.662203988060355" lon="11.587763959541917">
        <ele>9.27</ele>
        <time>2024-09-14T07:30:45Z</time>
      </trkpt>
      <trkpt lat="53.662140034139156" lon="11.587878037244081">
        <ele>9.75</ele>
        <time>2024-09-14T07:30:46Z</time>
      </trkpt>
      <trkpt lat="53.662011958658695" lon="11.588080041110516">
        <ele>10.710000000000001</ele>
        <time>2024-09-14T07:30:48Z</time>
      </trkpt>
      <trkpt lat="53.661955967545509" lon="11.588167967274785">
        <ele>10.710000000000001</ele>
        <time>2024-09-14T07:30:49Z</time>
      </trkpt>
      <trkpt lat="53.661901988089085" lon="11.588250026106834">
        <ele>10.710000000000001</ele>
        <time>2024-09-14T07:30:50Z</time>
      </trkpt>
      <trkpt lat="53.661853959783912" lon="11.588324038311839">
        <ele>11.67</ele>
        <time>2024-09-14T07:30:51Z</time>
      </trkpt>
      <trkpt lat="53.661831999197602" lon="11.588385980576277">
        <ele>12.15</ele>
        <time>2024-09-14T07:30:52Z</time>
      </trkpt>
      <trkpt lat="53.661812972277403" lon="11.588482959195971">
        <ele>13.119999999999999</ele>
        <time>2024-09-14T07:30:53Z</time>
      </trkpt>
      <trkpt lat="53.661792017519474" lon="11.588584966957569">
        <ele>13.6</ele>
        <time>2024-09-14T07:30:54Z</time>
      </trkpt>
      <trkpt lat="53.661776008084416" lon="11.588690998032689">
        <ele>14.08</ele>
        <time>2024-09-14T07:30:55Z</time>
      </trkpt>
      <trkpt lat="53.661776008084416" lon="11.588813960552216">
        <ele>14.08</ele>
        <time>2024-09-14T07:30:56Z</time>
      </trkpt>
      <trkpt lat="53.661776008084416" lon="11.588932983577251">
        <ele>14.08</ele>
        <time>2024-09-14T07:30:57Z</time>
      </trkpt>
      <trkpt lat="53.661801991984248" lon="11.589184021577239">
        <ele>14.08</ele>
        <time>2024-09-14T07:30:59Z</time>
      </trkpt>
      <trkpt lat="53.661815989762545" lon="11.589307989925146">
        <ele>13.6</ele>
        <time>2024-09-14T07:31:00Z</time>
      </trkpt>
      <trkpt lat="53.66182797588408" lon="11.589431036263704">
        <ele>13.6</ele>
        <time>2024-09-14T07:31:01Z</time>
      </trkpt>
      <trkpt lat="53.661921015009284" lon="11.591108003631234">
        <ele>14.08</ele>
        <time>2024-09-14T07:31:14Z</time>
      </trkpt>
      <trkpt lat="53.66191397421062" lon="11.591250998899341">
        <ele>14.56</ele>
        <time>2024-09-14T07:31:15Z</time>
      </trkpt>
      <trkpt lat="53.661754969507456" lon="11.592089021578431">
        <ele>15.52</ele>
        <time>2024-09-14T07:31:20Z</time>
      </trkpt>
      <trkpt lat="53.661693027243018" lon="11.592263029888272">
        <ele>15.52</ele>
        <time>2024-09-14T07:31:21Z</time>
      </trkpt>
      <trkpt lat="53.661629995331168" lon="11.592436032369733">
        <ele>16</ele>
        <time>2024-09-14T07:31:22Z</time>
      </trkpt>
      <trkpt lat="53.661556988954544" lon="11.592606017366052">
        <ele>16.48</ele>
        <time>2024-09-14T07:31:23Z</time>
      </trkpt>
      <trkpt lat="53.661480965092778" lon="11.592799974605441">
        <ele>17.440000000000001</ele>
        <time>2024-09-14T07:31:24Z</time>
      </trkpt>
      <trkpt lat="53.661404019221663" lon="11.592998960986733">
        <ele>17.920000000000002</ele>
        <time>2024-09-14T07:31:25Z</time>
      </trkpt>
      <trkpt lat="53.661324977874756" lon="11.593201970681548">
        <ele>18.399999999999999</ele>
        <time>2024-09-14T07:31:26Z</time>
      </trkpt>
      <trkpt lat="53.661247026175261" lon="11.593402968719602">
        <ele>18.879999999999999</ele>
        <time>2024-09-14T07:31:27Z</time>
      </trkpt>
      <trkpt lat="53.661163961514831" lon="11.593616958707571">
        <ele>19.359999999999999</ele>
        <time>2024-09-14T07:31:28Z</time>
      </trkpt>
      <trkpt lat="53.661082992330194" lon="11.593826003372669">
        <ele>19.84</ele>
        <time>2024-09-14T07:31:29Z</time>
      </trkpt>
      <trkpt lat="53.660840000957251" lon="11.594505021348596">
        <ele>21.289999999999999</ele>
        <time>2024-09-14T07:31:32Z</time>
      </trkpt>
      <trkpt lat="53.660789038985968" lon="11.594845997169614">
        <ele>21.77</ele>
        <time>2024-09-14T07:31:33Z</time>
      </trkpt>
      <trkpt lat="53.66075299680233" lon="11.59558704122901">
        <ele>22.73</ele>
        <time>2024-09-14T07:31:36Z</time>
      </trkpt>
      <trkpt lat="53.660586029291153" lon="11.596995033323765">
        <ele>25.129999999999999</ele>
        <time>2024-09-14T07:31:41Z</time>
      </trkpt>
      <trkpt lat="53.660520985722542" lon="11.597263002768159">
        <ele>25.129999999999999</ele>
        <time>2024-09-14T07:31:42Z</time>
      </trkpt>
      <trkpt lat="53.66045200265944" lon="11.597544969990849">
        <ele>25.609999999999999</ele>
        <time>2024-09-14T07:31:43Z</time>
      </trkpt>
      <trkpt lat="53.660002984106541" lon="11.599636003375053">
        <ele>27.530000000000001</ele>
        <time>2024-09-14T07:31:50Z</time>
      </trkpt>
      <trkpt lat="53.659607023000717" lon="11.602417035028338">
        <ele>29.940000000000001</ele>
        <time>2024-09-14T07:31:59Z</time>
      </trkpt>
      <trkpt lat="53.659370988607407" lon="11.604688027873635">
        <ele>28.02</ele>
        <time>2024-09-14T07:32:06Z</time>
      </trkpt>
      <trkpt lat="53.659287001937628" lon="11.606282014399767">
        <ele>25.129999999999999</ele>
        <time>2024-09-14T07:32:11Z</time>
      </trkpt>
      <trkpt lat="53.659007968381047" lon="11.609304025769234">
        <ele>21.289999999999999</ele>
        <time>2024-09-14T07:32:21Z</time>
      </trkpt>
      <trkpt lat="53.658766988664865" lon="11.610762979835272">
        <ele>20.32</ele>
        <time>2024-09-14T07:32:26Z</time>
      </trkpt>
      <trkpt lat="53.658637991175056" lon="11.611314006149769">
        <ele>19.359999999999999</ele>
        <time>2024-09-14T07:32:28Z</time>
      </trkpt>
      <trkpt lat="53.657854031771421" lon="11.61383100785315">
        <ele>16.48</ele>
        <time>2024-09-14T07:32:37Z</time>
      </trkpt>
      <trkpt lat="53.657585978507996" lon="11.61469099111855">
        <ele>15.52</ele>
        <time>2024-09-14T07:32:40Z</time>
      </trkpt>
      <trkpt lat="53.656934034079313" lon="11.6169039811939">
        <ele>8.789999999999999</ele>
        <time>2024-09-14T07:32:48Z</time>
      </trkpt>
      <trkpt lat="53.65677896887064" lon="11.617412008345127">
        <ele>7.35</ele>
        <time>2024-09-14T07:32:50Z</time>
      </trkpt>
      <trkpt lat="53.656098023056984" lon="11.619205987080932">
        <ele>-0.34</ele>
        <time>2024-09-14T07:32:57Z</time>
      </trkpt>
      <trkpt lat="53.655903981998563" lon="11.61971895955503">
        <ele>-2.75</ele>
        <time>2024-09-14T07:32:59Z</time>
      </trkpt>
      <trkpt lat="53.655301993712783" lon="11.621272964403033">
        <ele>-8.029999999999999</ele>
        <time>2024-09-14T07:33:05Z</time>
      </trkpt>
      <trkpt lat="53.655203003436327" lon="11.621539006009698">
        <ele>-9</ele>
        <time>2024-09-14T07:33:06Z</time>
      </trkpt>
      <trkpt lat="53.654938973486423" lon="11.622310979291797">
        <ele>-11.4</ele>
        <time>2024-09-14T07:33:09Z</time>
      </trkpt>
      <trkpt lat="53.654274037107825" lon="11.624351972714067">
        <ele>-18.129999999999999</ele>
        <time>2024-09-14T07:33:17Z</time>
      </trkpt>
      <trkpt lat="53.654208993539214" lon="11.624608961865306">
        <ele>-19.57</ele>
        <time>2024-09-14T07:33:18Z</time>
      </trkpt>
      <trkpt lat="53.654090976342559" lon="11.625479003414512">
        <ele>-22.93</ele>
        <time>2024-09-14T07:33:21Z</time>
      </trkpt>
      <trkpt lat="53.654076978564262" lon="11.625765999779105">
        <ele>-24.379999999999999</ele>
        <time>2024-09-14T07:33:22Z</time>
      </trkpt>
      <trkpt lat="53.654007995501161" lon="11.62659103050828">
        <ele>-26.780000000000001</ele>
        <time>2024-09-14T07:33:25Z</time>
      </trkpt>
      <trkpt lat="53.653969019651413" lon="11.626867968589067">
        <ele>-27.739999999999998</ele>
        <time>2024-09-14T07:33:26Z</time>
      </trkpt>
      <trkpt lat="53.653929037973285" lon="11.627153037115932">
        <ele>-28.219999999999999</ele>
        <time>2024-09-14T07:33:27Z</time>
      </trkpt>
      <trkpt lat="53.65338396281004" lon="11.62874199450016">
        <ele>-33.030000000000001</ele>
        <time>2024-09-14T07:33:33Z</time>
      </trkpt>
      <trkpt lat="53.653293019160628" lon="11.628983980044723">
        <ele>-33.990000000000002</ele>
        <time>2024-09-14T07:33:34Z</time>
      </trkpt>
      <trkpt lat="53.652573013678193" lon="11.631021033972502">
        <ele>-38.32</ele>
        <time>2024-09-14T07:33:42Z</time>
      </trkpt>
      <trkpt lat="53.652060041204095" lon="11.632756004109979">
        <ele>-37.350000000000001</ele>
        <time>2024-09-14T07:33:48Z</time>
      </trkpt>
      <trkpt lat="53.651980999857187" lon="11.633043000474572">
        <ele>-37.350000000000001</ele>
        <time>2024-09-14T07:33:49Z</time>
      </trkpt>
      <trkpt lat="53.65189902484417" lon="11.633337959647179">
        <ele>-37.350000000000001</ele>
        <time>2024-09-14T07:33:50Z</time>
      </trkpt>
      <trkpt lat="53.651818977668881" lon="11.633625961840153">
        <ele>-37.350000000000001</ele>
        <time>2024-09-14T07:33:51Z</time>
      </trkpt>
      <trkpt lat="53.651743037626147" lon="11.633906001225114">
        <ele>-37.350000000000001</ele>
        <time>2024-09-14T07:33:52Z</time>
      </trkpt>
      <trkpt lat="53.651527035981417" lon="11.634750980883837">
        <ele>-37.829999999999998</ele>
        <time>2024-09-14T07:33:55Z</time>
      </trkpt>
      <trkpt lat="53.651316985487938" lon="11.635571988299489">
        <ele>-38.799999999999997</ele>
        <time>2024-09-14T07:33:58Z</time>
      </trkpt>
      <trkpt lat="53.65125697106123" lon="11.635899972170591">
        <ele>-39.280000000000001</ele>
        <time>2024-09-14T07:33:59Z</time>
      </trkpt>
      <trkpt lat="53.651216989383101" lon="11.636750986799598">
        <ele>-40.719999999999999</ele>
        <time>2024-09-14T07:34:02Z</time>
      </trkpt>
      <trkpt lat="53.651207014918327" lon="11.636965982615948">
        <ele>-42.159999999999997</ele>
        <time>2024-09-14T07:34:03Z</time>
      </trkpt>
      <trkpt lat="53.651195028796792" lon="11.637211991474032">
        <ele>-42.159999999999997</ele>
        <time>2024-09-14T07:34:04Z</time>
      </trkpt>
      <trkpt lat="53.651167033240199" lon="11.637811968103051">
        <ele>-44.079999999999998</ele>
        <time>2024-09-14T07:34:06Z</time>
      </trkpt>
      <trkpt lat="53.651126967743039" lon="11.638666000217199">
        <ele>-45.039999999999999</ele>
        <time>2024-09-14T07:34:09Z</time>
      </trkpt>
      <trkpt lat="53.651115987449884" lon="11.639090040698647">
        <ele>-45.530000000000001</ele>
        <time>2024-09-14T07:34:11Z</time>
      </trkpt>
      <trkpt lat="53.651126967743039" lon="11.639334037899971">
        <ele>-46.490000000000002</ele>
        <time>2024-09-14T07:34:12Z</time>
      </trkpt>
      <trkpt lat="53.651189999654889" lon="11.640758961439133">
        <ele>-42.159999999999997</ele>
        <time>2024-09-14T07:34:18Z</time>
      </trkpt>
      <trkpt lat="53.651200979948044" lon="11.641025003045797">
        <ele>-43.119999999999997</ele>
        <time>2024-09-14T07:34:19Z</time>
      </trkpt>
      <trkpt lat="53.651219001039863" lon="11.641431022435427">
        <ele>-43.119999999999997</ele>
        <time>2024-09-14T07:34:20Z</time>
      </trkpt>
      <trkpt lat="53.651202991604805" lon="11.641584997996688">
        <ele>-43.119999999999997</ele>
        <time>2024-09-14T07:34:21Z</time>
      </trkpt>
      <trkpt lat="53.65114901214838" lon="11.641921028494835">
        <ele>-43.119999999999997</ele>
        <time>2024-09-14T07:34:22Z</time>
      </trkpt>
      <trkpt lat="53.651076005771756" lon="11.642139041796327">
        <ele>-41.68</ele>
        <time>2024-09-14T07:34:23Z</time>
      </trkpt>
      <trkpt lat="53.651008028537035" lon="11.642343979328871">
        <ele>-41.200000000000003</ele>
        <time>2024-09-14T07:34:24Z</time>
      </trkpt>
      <trkpt lat="53.650921024382114" lon="11.642561992630363">
        <ele>-39.759999999999998</ele>
        <time>2024-09-14T07:34:25Z</time>
      </trkpt>
      <trkpt lat="53.650380978360772" lon="11.643581986427307">
        <ele>-33.509999999999998</ele>
        <time>2024-09-14T07:34:32Z</time>
      </trkpt>
      <trkpt lat="53.650295985862613" lon="11.643725987523794">
        <ele>-32.07</ele>
        <time>2024-09-14T07:34:33Z</time>
      </trkpt>
      <trkpt lat="53.650057017803192" lon="11.644238959997892">
        <ele>-30.140000000000001</ele>
        <time>2024-09-14T07:34:36Z</time>
      </trkpt>
      <trkpt lat="53.649648986756802" lon="11.645341012626886">
        <ele>-24.859999999999999</ele>
        <time>2024-09-14T07:34:42Z</time>
      </trkpt>
      <trkpt lat="53.649584027007222" lon="11.645531030371785">
        <ele>-24.379999999999999</ele>
        <time>2024-09-14T07:34:43Z</time>
      </trkpt>
      <trkpt lat="53.649529041722417" lon="11.645691962912679">
        <ele>-23.899999999999999</ele>
        <time>2024-09-14T07:34:44Z</time>
      </trkpt>
      <trkpt lat="53.649486964568496" lon="11.645815009251237">
        <ele>-23.41</ele>
        <time>2024-09-14T07:34:45Z</time>
      </trkpt>
      <trkpt lat="53.649438014253974" lon="11.645959010347724">
        <ele>-22.449999999999999</ele>
        <time>2024-09-14T07:34:46Z</time>
      </trkpt>
      <trkpt lat="53.64925998263061" lon="11.646514981985092">
        <ele>-14.76</ele>
        <time>2024-09-14T07:34:53Z</time>
      </trkpt>
      <trkpt lat="53.649136014282703" lon="11.646567033603787">
        <ele>-14.279999999999999</ele>
        <time>2024-09-14T07:34:54Z</time>
      </trkpt>
      <trkpt lat="53.649029983207583" lon="11.64657399058342">
        <ele>-13.32</ele>
        <time>2024-09-14T07:34:55Z</time>
      </trkpt>
      <trkpt lat="53.648911966010928" lon="11.646577008068562">
        <ele>-12.359999999999999</ele>
        <time>2024-09-14T07:34:56Z</time>
      </trkpt>
      <trkpt lat="53.648789003491402" lon="11.646564016118646">
        <ele>-11.880000000000001</ele>
        <time>2024-09-14T07:34:57Z</time>
      </trkpt>
      <trkpt lat="53.648653971031308" lon="11.646550018340349">
        <ele>-11.4</ele>
        <time>2024-09-14T07:34:58Z</time>
      </trkpt>
      <trkpt lat="53.647635988891125" lon="11.646285988390446">
        <ele>-7.07</ele>
        <time>2024-09-14T07:35:04Z</time>
      </trkpt>
      <trkpt lat="53.645827006548643" lon="11.645506974309683">
        <ele>-2.27</ele>
        <time>2024-09-14T07:35:13Z</time>
      </trkpt>
      <trkpt lat="53.644073009490967" lon="11.644782023504376">
        <ele>-0.34</ele>
        <time>2024-09-14T07:35:22Z</time>
      </trkpt>
      <trkpt lat="53.642609026283026" lon="11.644776994362473">
        <ele>2.06</ele>
        <time>2024-09-14T07:35:29Z</time>
      </trkpt>
      <trkpt lat="53.641058960929513" lon="11.645573023706675">
        <ele>7.83</ele>
        <time>2024-09-14T07:35:36Z</time>
      </trkpt>
      <trkpt lat="53.639464974403381" lon="11.64655102416873">
        <ele>14.56</ele>
        <time>2024-09-14T07:35:44Z</time>
      </trkpt>
      <trkpt lat="53.637888003140688" lon="11.647512009367347">
        <ele>16.48</ele>
        <time>2024-09-14T07:35:52Z</time>
      </trkpt>
      <trkpt lat="53.635692028328776" lon="11.64885001257062">
        <ele>19.84</ele>
        <time>2024-09-14T07:36:03Z</time>
      </trkpt>
      <trkpt lat="53.633329002186656" lon="11.650256998836994">
        <ele>25.129999999999999</ele>
        <time>2024-09-14T07:36:15Z</time>
      </trkpt>
      <trkpt lat="53.632166013121605" lon="11.650941967964172">
        <ele>27.530000000000001</ele>
        <time>2024-09-14T07:36:22Z</time>
      </trkpt>
      <trkpt lat="53.631792012602091" lon="11.651161992922425">
        <ele>28.02</ele>
        <time>2024-09-14T07:36:26Z</time>
      </trkpt>
      <trkpt lat="53.63172797486186" lon="11.651199962943792">
        <ele>27.530000000000001</ele>
        <time>2024-09-14T07:36:27Z</time>
      </trkpt>
      <trkpt lat="53.631668966263533" lon="11.651233993470669">
        <ele>27.050000000000001</ele>
        <time>2024-09-14T07:36:28Z</time>
      </trkpt>
      <trkpt lat="53.631668966263533" lon="11.651433985680342">
        <ele>27.050000000000001</ele>
        <time>2024-09-14T07:36:29Z</time>
      </trkpt>
      <trkpt lat="53.631696961820126" lon="11.651556026190519">
        <ele>27.530000000000001</ele>
        <time>2024-09-14T07:36:30Z</time>
      </trkpt>
      <trkpt lat="53.631736021488905" lon="11.651725005358458">
        <ele>27.530000000000001</ele>
        <time>2024-09-14T07:36:31Z</time>
      </trkpt>
      <trkpt lat="53.631883962079883" lon="11.652363035827875">
        <ele>26.57</ele>
        <time>2024-09-14T07:36:34Z</time>
      </trkpt>
      <trkpt lat="53.63194196484983" lon="11.65261298418045">
        <ele>26.09</ele>
        <time>2024-09-14T07:36:35Z</time>
      </trkpt>
      <trkpt lat="53.632000973448157" lon="11.65287097916007">
        <ele>25.609999999999999</ele>
        <time>2024-09-14T07:36:36Z</time>
      </trkpt>
      <trkpt lat="53.632060987874866" lon="11.653129979968071">
        <ele>25.609999999999999</ele>
        <time>2024-09-14T07:36:37Z</time>
      </trkpt>
      <trkpt lat="53.632119996473193" lon="11.653382023796439">
        <ele>25.609999999999999</ele>
        <time>2024-09-14T07:36:38Z</time>
      </trkpt>
      <trkpt lat="53.632814018055797" lon="11.656318036839366">
        <ele>22.73</ele>
        <time>2024-09-14T07:36:49Z</time>
      </trkpt>
      <trkpt lat="53.632895993068814" lon="11.656576031818986">
        <ele>22.73</ele>
        <time>2024-09-14T07:36:50Z</time>
      </trkpt>
      <trkpt lat="53.632999006658792" lon="11.656810976564884">
        <ele>22.73</ele>
        <time>2024-09-14T07:36:51Z</time>
      </trkpt>
      <trkpt lat="53.633105037733912" lon="11.657053967937827">
        <ele>22.25</ele>
        <time>2024-09-14T07:36:52Z</time>
      </trkpt>
      <trkpt lat="53.633950017392635" lon="11.658990019932389">
        <ele>19.84</ele>
        <time>2024-09-14T07:37:00Z</time>
      </trkpt>
      <trkpt lat="53.634120002388954" lon="11.659511961042881">
        <ele>18.879999999999999</ele>
        <time>2024-09-14T07:37:02Z</time>
      </trkpt>
      <trkpt lat="53.634616965427995" lon="11.661651022732258">
        <ele>15.52</ele>
        <time>2024-09-14T07:37:09Z</time>
      </trkpt>
      <trkpt lat="53.6352280061692" lon="11.664457032456994">
        <ele>13.6</ele>
        <time>2024-09-14T07:37:18Z</time>
      </trkpt>
      <trkpt lat="53.635949017480016" lon="11.667764028534293">
        <ele>13.119999999999999</ele>
        <time>2024-09-14T07:37:28Z</time>
      </trkpt>
      <trkpt lat="53.636177005246282" lon="11.668663993477821">
        <ele>13.119999999999999</ele>
        <time>2024-09-14T07:37:31Z</time>
      </trkpt>
      <trkpt lat="53.636256968602538" lon="11.668932968750596">
        <ele>13.119999999999999</ele>
        <time>2024-09-14T07:37:32Z</time>
      </trkpt>
      <trkpt lat="53.63636702299118" lon="11.669186018407345">
        <ele>13.119999999999999</ele>
        <time>2024-09-14T07:37:33Z</time>
      </trkpt>
      <trkpt lat="53.636671034619212" lon="11.66992899030447">
        <ele>13.6</ele>
        <time>2024-09-14T07:37:36Z</time>
      </trkpt>
      <trkpt lat="53.63675300963223" lon="11.670194026082754">
        <ele>13.6</ele>
        <time>2024-09-14T07:37:37Z</time>
      </trkpt>
      <trkpt lat="53.637002035975456" lon="11.670996006578207">
        <ele>13.6</ele>
        <time>2024-09-14T07:37:40Z</time>
      </trkpt>
      <trkpt lat="53.637088034301996" lon="11.671273028478026">
        <ele>13.6</ele>
        <time>2024-09-14T07:37:41Z</time>
      </trkpt>
      <trkpt lat="53.637967966496944" lon="11.674131006002426">
        <ele>11.19</ele>
        <time>2024-09-14T07:37:51Z</time>
      </trkpt>
      <trkpt lat="53.638509018346667" lon="11.675950968638062">
        <ele>11.67</ele>
        <time>2024-09-14T07:37:57Z</time>
      </trkpt>
      <trkpt lat="53.639593971893191" lon="11.679555019363761">
        <ele>8.789999999999999</ele>
        <time>2024-09-14T07:38:08Z</time>
      </trkpt>
      <trkpt lat="53.640584964305162" lon="11.682954970747232">
        <ele>4.46</ele>
        <time>2024-09-14T07:38:19Z</time>
      </trkpt>
      <trkpt lat="53.641206985339522" lon="11.685158992186189">
        <ele>3.5</ele>
        <time>2024-09-14T07:38:26Z</time>
      </trkpt>
      <trkpt lat="53.641911987215281" lon="11.68784799054265">
        <ele>2.54</ele>
        <time>2024-09-14T07:38:34Z</time>
      </trkpt>
      <trkpt lat="53.64259704016149" lon="11.690718038007617">
        <ele>3.98</ele>
        <time>2024-09-14T07:38:43Z</time>
      </trkpt>
      <trkpt lat="53.643384017050266" lon="11.694027967751026">
        <ele>8.310000000000001</ele>
        <time>2024-09-14T07:38:53Z</time>
      </trkpt>
      <trkpt lat="53.644097987562418" lon="11.697028018534184">
        <ele>10.710000000000001</ele>
        <time>2024-09-14T07:39:02Z</time>
      </trkpt>
      <trkpt lat="53.644516998901963" lon="11.698752008378506">
        <ele>12.630000000000001</ele>
        <time>2024-09-14T07:39:08Z</time>
      </trkpt>
      <trkpt lat="53.644628981128335" lon="11.699190968647599">
        <ele>13.6</ele>
        <time>2024-09-14T07:39:10Z</time>
      </trkpt>
      <trkpt lat="53.64470299333334" lon="11.699418034404516">
        <ele>14.08</ele>
        <time>2024-09-14T07:39:11Z</time>
      </trkpt>
      <trkpt lat="53.644801983609796" lon="11.699592964723706">
        <ele>15.039999999999999</ele>
        <time>2024-09-14T07:39:12Z</time>
      </trkpt>
      <trkpt lat="53.644901979714632" lon="11.699769990518689">
        <ele>15.52</ele>
        <time>2024-09-14T07:39:13Z</time>
      </trkpt>
      <trkpt lat="53.64504799246788" lon="11.69992296025157">
        <ele>16</ele>
        <time>2024-09-14T07:39:14Z</time>
      </trkpt>
      <trkpt lat="53.645195011049509" lon="11.700021028518677">
        <ele>16</ele>
        <time>2024-09-14T07:39:15Z</time>
      </trkpt>
      <trkpt lat="53.645356027409434" lon="11.700107026845217">
        <ele>16.48</ele>
        <time>2024-09-14T07:39:16Z</time>
      </trkpt>
      <trkpt lat="53.645517965778708" lon="11.700191013514996">
        <ele>16.48</ele>
        <time>2024-09-14T07:39:17Z</time>
      </trkpt>
      <trkpt lat="53.646842977032065" lon="11.700782021507621">
        <ele>18.879999999999999</ele>
        <time>2024-09-14T07:39:26Z</time>
      </trkpt>
      <trkpt lat="53.647572034969926" lon="11.701128026470542">
        <ele>20.809999999999999</ele>
        <time>2024-09-14T07:39:34Z</time>
      </trkpt>
      <trkpt lat="53.647727016359568" lon="11.701218970119953">
        <ele>20.809999999999999</ele>
        <time>2024-09-14T07:39:36Z</time>
      </trkpt>
      <trkpt lat="53.647805973887444" lon="11.701264986768365">
        <ele>20.809999999999999</ele>
        <time>2024-09-14T07:39:37Z</time>
      </trkpt>
      <trkpt lat="53.647880991920829" lon="11.701308991760015">
        <ele>20.809999999999999</ele>
        <time>2024-09-14T07:39:38Z</time>
      </trkpt>
      <trkpt lat="53.647953998297453" lon="11.701358025893569">
        <ele>20.32</ele>
        <time>2024-09-14T07:39:39Z</time>
      </trkpt>
      <trkpt lat="53.648021975532174" lon="11.701427008956671">
        <ele>19.84</ele>
        <time>2024-09-14T07:39:40Z</time>
      </trkpt>
      <trkpt lat="53.648081989958882" lon="11.701487023383379">
        <ele>19.84</ele>
        <time>2024-09-14T07:39:41Z</time>
      </trkpt>
      <trkpt lat="53.648157007992268" lon="11.701542008668184">
        <ele>18.879999999999999</ele>
        <time>2024-09-14T07:39:42Z</time>
      </trkpt>
      <trkpt lat="53.648234037682414" lon="11.701563969254494">
        <ele>18.399999999999999</ele>
        <time>2024-09-14T07:39:43Z</time>
      </trkpt>
      <trkpt lat="53.648315006867051" lon="11.701588025316596">
        <ele>18.399999999999999</ele>
        <time>2024-09-14T07:39:44Z</time>
      </trkpt>
      <trkpt lat="53.648929987102747" lon="11.701767984777689">
        <ele>15.039999999999999</ele>
        <time>2024-09-14T07:39:51Z</time>
      </trkpt>
      <trkpt lat="53.649120004847646" lon="11.701791035011411">
        <ele>14.56</ele>
        <time>2024-09-14T07:39:53Z</time>
      </trkpt>
      <trkpt lat="53.649232992902398" lon="11.701772008091211">
        <ele>14.08</ele>
        <time>2024-09-14T07:39:54Z</time>
      </trkpt>
      <trkpt lat="53.649352015927434" lon="11.701739989221096">
        <ele>14.08</ele>
        <time>2024-09-14T07:39:55Z</time>
      </trkpt>
      <trkpt lat="53.64949400536716" lon="11.701695984229445">
        <ele>14.08</ele>
        <time>2024-09-14T07:39:56Z</time>
      </trkpt>
      <trkpt lat="53.649620991200209" lon="11.70159799978137">
        <ele>13.6</ele>
        <time>2024-09-14T07:39:57Z</time>
      </trkpt>
      <trkpt lat="53.649756023660302" lon="11.701492974534631">
        <ele>13.6</ele>
        <time>2024-09-14T07:39:58Z</time>
      </trkpt>
      <trkpt lat="53.65116803906858" lon="11.700525032356381">
        <ele>16.48</ele>
        <time>2024-09-14T07:40:07Z</time>
      </trkpt>
      <trkpt lat="53.652659012004733" lon="11.70004902407527">
        <ele>21.77</ele>
        <time>2024-09-14T07:40:15Z</time>
      </trkpt>
      <trkpt lat="53.653989974409342" lon="11.700127981603146">
        <ele>24.170000000000002</ele>
        <time>2024-09-14T07:40:22Z</time>
      </trkpt>
      <trkpt lat="53.654370009899139" lon="11.700150026008487">
        <ele>24.649999999999999</ele>
        <time>2024-09-14T07:40:24Z</time>
      </trkpt>
      <trkpt lat="53.656029962003231" lon="11.700450014322996">
        <ele>32.82</ele>
        <time>2024-09-14T07:40:32Z</time>
      </trkpt>
      <trkpt lat="53.656415026634932" lon="11.700517991557717">
        <ele>34.740000000000002</ele>
        <time>2024-09-14T07:40:34Z</time>
      </trkpt>
      <trkpt lat="53.65660403855145" lon="11.700508017092943">
        <ele>35.710000000000001</ele>
        <time>2024-09-14T07:40:35Z</time>
      </trkpt>
      <trkpt lat="53.65679900161922" lon="11.700456971302629">
        <ele>36.670000000000002</ele>
        <time>2024-09-14T07:40:36Z</time>
      </trkpt>
      <trkpt lat="53.657193034887314" lon="11.700311964377761">
        <ele>38.590000000000003</ele>
        <time>2024-09-14T07:40:38Z</time>
      </trkpt>
      <trkpt lat="53.657399984076619" lon="11.700285980477929">
        <ele>40.030000000000001</ele>
        <time>2024-09-14T07:40:39Z</time>
      </trkpt>
      <trkpt lat="53.65759695880115" lon="11.700327973812819">
        <ele>40.990000000000002</ele>
        <time>2024-09-14T07:40:40Z</time>
      </trkpt>
      <trkpt lat="53.658574959263206" lon="11.700500976294279">
        <ele>46.280000000000001</ele>
        <time>2024-09-14T07:40:45Z</time>
      </trkpt>
      <trkpt lat="53.658742010593414" lon="11.700456971302629">
        <ele>47.240000000000002</ele>
        <time>2024-09-14T07:40:46Z</time>
      </trkpt>
      <trkpt lat="53.659600988030434" lon="11.70017902739346">
        <ele>50.609999999999999</ele>
        <time>2024-09-14T07:40:51Z</time>
      </trkpt>
      <trkpt lat="53.659738032147288" lon="11.700204005464911">
        <ele>51.090000000000003</ele>
        <time>2024-09-14T07:40:52Z</time>
      </trkpt>
      <trkpt lat="53.659955961629748" lon="11.700317999348044">
        <ele>51.57</ele>
        <time>2024-09-14T07:40:53Z</time>
      </trkpt>
      <trkpt lat="53.660146985203028" lon="11.700417995452881">
        <ele>52.530000000000001</ele>
        <time>2024-09-14T07:40:54Z</time>
      </trkpt>
      <trkpt lat="53.660333985462785" lon="11.700515979900956">
        <ele>53.009999999999998</ele>
        <time>2024-09-14T07:40:55Z</time>
      </trkpt>
      <trkpt lat="53.660511011257768" lon="11.70060801319778">
        <ele>53.969999999999999</ele>
        <time>2024-09-14T07:40:56Z</time>
      </trkpt>
      <trkpt lat="53.661216013133526" lon="11.700740028172731">
        <ele>57.340000000000003</ele>
        <time>2024-09-14T07:41:00Z</time>
      </trkpt>
      <trkpt lat="53.661391027271748" lon="11.700771963223815">
        <ele>58.299999999999997</ele>
        <time>2024-09-14T07:41:01Z</time>
      </trkpt>
      <trkpt lat="53.661882039159536" lon="11.700899032875896">
        <ele>61.18</ele>
        <time>2024-09-14T07:41:04Z</time>
      </trkpt>
      <trkpt lat="53.662044983357191" lon="11.700999028980732">
        <ele>62.140000000000001</ele>
        <time>2024-09-14T07:41:05Z</time>
      </trkpt>
      <trkpt lat="53.662216980010271" lon="11.70110397040844">
        <ele>63.100000000000001</ele>
        <time>2024-09-14T07:41:06Z</time>
      </trkpt>
      <trkpt lat="53.663232028484344" lon="11.701699001714587">
        <ele>68.870000000000005</ele>
        <time>2024-09-14T07:41:12Z</time>
      </trkpt>
      <trkpt lat="53.664102992042899" lon="11.702077025547624">
        <ele>73.200000000000003</ele>
        <time>2024-09-14T07:41:17Z</time>
      </trkpt>
      <trkpt lat="53.66438202559948" lon="11.702351029962301">
        <ele>74.640000000000001</ele>
        <time>2024-09-14T07:41:19Z</time>
      </trkpt>
      <trkpt lat="53.664518985897303" lon="11.702529983595014">
        <ele>75.120000000000005</ele>
        <time>2024-09-14T07:41:20Z</time>
      </trkpt>
      <trkpt lat="53.66464396007359" lon="11.702737016603351">
        <ele>75.599999999999994</ele>
        <time>2024-09-14T07:41:21Z</time>
      </trkpt>
      <trkpt lat="53.665293976664543" lon="11.703860023990273">
        <ele>78.969999999999999</ele>
        <time>2024-09-14T07:41:26Z</time>
      </trkpt>
      <trkpt lat="53.665751041844487" lon="11.704340977594256">
        <ele>82.329999999999998</ele>
        <time>2024-09-14T07:41:29Z</time>
      </trkpt>
      <trkpt lat="53.665875010192394" lon="11.704409038648009">
        <ele>82.810000000000002</ele>
        <time>2024-09-14T07:41:30Z</time>
      </trkpt>
      <trkpt lat="53.666085982695222" lon="11.704437034204602">
        <ele>83.769999999999996</ele>
        <time>2024-09-14T07:41:31Z</time>
      </trkpt>
      <trkpt lat="53.666196037083864" lon="11.704452037811279">
        <ele>84.730000000000004</ele>
        <time>2024-09-14T07:41:32Z</time>
      </trkpt>
      <trkpt lat="53.666412960737944" lon="11.70439001172781">
        <ele>85.689999999999998</ele>
        <time>2024-09-14T07:41:33Z</time>
      </trkpt>
      <trkpt lat="53.666799031198025" lon="11.704278029501438">
        <ele>87.140000000000001</ele>
        <time>2024-09-14T07:41:35Z</time>
      </trkpt>
      <trkpt lat="53.667007992044091" lon="11.704217009246349">
        <ele>87.620000000000005</ele>
        <time>2024-09-14T07:41:36Z</time>
      </trkpt>
      <trkpt lat="53.667245032265782" lon="11.704254979267716">
        <ele>88.579999999999998</ele>
        <time>2024-09-14T07:41:37Z</time>
      </trkpt>
      <trkpt lat="53.667398001998663" lon="11.704280963167548">
        <ele>88.579999999999998</ele>
        <time>2024-09-14T07:41:38Z</time>
      </trkpt>
      <trkpt lat="53.667655996978283" lon="11.704466035589576">
        <ele>88.099999999999994</ele>
        <time>2024-09-14T07:41:39Z</time>
      </trkpt>
      <trkpt lat="53.667846014723182" lon="11.704602995887399">
        <ele>87.620000000000005</ele>
        <time>2024-09-14T07:41:40Z</time>
      </trkpt>
      <trkpt lat="53.668027985841036" lon="11.70473400503397">
        <ele>85.689999999999998</ele>
        <time>2024-09-14T07:41:41Z</time>
      </trkpt>
      <trkpt lat="53.668200988322496" lon="11.704858979210258">
        <ele>83.290000000000006</ele>
        <time>2024-09-14T07:41:42Z</time>
      </trkpt>
      <trkpt lat="53.668377008289099" lon="11.704985965043306">
        <ele>81.849999999999994</ele>
        <time>2024-09-14T07:41:43Z</time>
      </trkpt>
      <trkpt lat="53.668713038787246" lon="11.7052280344069">
        <ele>78</ele>
        <time>2024-09-14T07:41:45Z</time>
      </trkpt>
      <trkpt lat="53.669163985177875" lon="11.705655008554459">
        <ele>74.640000000000001</ele>
        <time>2024-09-14T07:41:48Z</time>
      </trkpt>
      <trkpt lat="53.6694320384413" lon="11.706017022952437">
        <ele>72.239999999999995</ele>
        <time>2024-09-14T07:41:50Z</time>
      </trkpt>
      <trkpt lat="53.670272994786501" lon="11.707176994532347">
        <ele>63.100000000000001</ele>
        <time>2024-09-14T07:41:57Z</time>
      </trkpt>
      <trkpt lat="53.670367961749434" lon="11.707215970382094">
        <ele>62.619999999999997</ele>
        <time>2024-09-14T07:41:58Z</time>
      </trkpt>
      <trkpt lat="53.670538030564785" lon="11.707286965101957">
        <ele>61.659999999999997</ele>
        <time>2024-09-14T07:42:00Z</time>
      </trkpt>
      <trkpt lat="53.670626040548086" lon="11.70731102116406">
        <ele>61.18</ele>
        <time>2024-09-14T07:42:01Z</time>
      </trkpt>
      <trkpt lat="53.670802982524037" lon="11.707360977306962">
        <ele>60.219999999999999</ele>
        <time>2024-09-14T07:42:03Z</time>
      </trkpt>
      <trkpt lat="53.670891998335719" lon="11.707386039197445">
        <ele>59.740000000000002</ele>
        <time>2024-09-14T07:42:04Z</time>
      </trkpt>
      <trkpt lat="53.67098000831902" lon="11.707411017268896">
        <ele>59.259999999999998</ele>
        <time>2024-09-14T07:42:05Z</time>
      </trkpt>
      <trkpt lat="53.6711520049721" lon="11.707458961755037">
        <ele>56.859999999999999</ele>
        <time>2024-09-14T07:42:07Z</time>
      </trkpt>
      <trkpt lat="53.671684004366398" lon="11.707608997821808">
        <ele>53.009999999999998</ele>
        <time>2024-09-14T07:42:13Z</time>
      </trkpt>
      <trkpt lat="53.671764973551035" lon="11.707630958408117">
        <ele>52.049999999999997</ele>
        <time>2024-09-14T07:42:14Z</time>
      </trkpt>
      <trkpt lat="53.671840997412801" lon="11.707653002813458">
        <ele>50.609999999999999</ele>
        <time>2024-09-14T07:42:15Z</time>
      </trkpt>
      <trkpt lat="53.672657981514931" lon="11.707775965332985">
        <ele>41.950000000000003</ele>
        <time>2024-09-14T07:42:26Z</time>
      </trkpt>
      <trkpt lat="53.67280500009656" lon="11.70780697837472">
        <ele>40.030000000000001</ele>
        <time>2024-09-14T07:42:28Z</time>
      </trkpt>
      <trkpt lat="53.672941038385034" lon="11.707883002236485">
        <ele>37.630000000000003</ele>
        <time>2024-09-14T07:42:30Z</time>
      </trkpt>
      <trkpt lat="53.673005998134613" lon="11.707939999178052">
        <ele>36.189999999999998</ele>
        <time>2024-09-14T07:42:31Z</time>
      </trkpt>
      <trkpt lat="53.67306400090456" lon="11.708013005554676">
        <ele>36.189999999999998</ele>
        <time>2024-09-14T07:42:32Z</time>
      </trkpt>
      <trkpt lat="53.673109011724591" lon="11.708096992224455">
        <ele>34.740000000000002</ele>
        <time>2024-09-14T07:42:33Z</time>
      </trkpt>
      <trkpt lat="53.673157962039113" lon="11.708187013864517">
        <ele>34.740000000000002</ele>
        <time>2024-09-14T07:42:34Z</time>
      </trkpt>
      <trkpt lat="53.673208002001047" lon="11.70827996917069">
        <ele>34.259999999999998</ele>
        <time>2024-09-14T07:42:35Z</time>
      </trkpt>
      <trkpt lat="53.673370024189353" lon="11.708569983020425">
        <ele>33.780000000000001</ele>
        <time>2024-09-14T07:42:38Z</time>
      </trkpt>
      <trkpt lat="53.673431966453791" lon="11.708681965246797">
        <ele>34.259999999999998</ele>
        <time>2024-09-14T07:42:39Z</time>
      </trkpt>
      <trkpt lat="53.673802027478814" lon="11.709108017385006">
        <ele>33.780000000000001</ele>
        <time>2024-09-14T07:42:43Z</time>
      </trkpt>
      <trkpt lat="53.673905041068792" lon="11.709193009883165">
        <ele>33.299999999999997</ele>
        <time>2024-09-14T07:42:44Z</time>
      </trkpt>
      <trkpt lat="53.674780027940869" lon="11.709950985386968">
        <ele>27.050000000000001</ele>
        <time>2024-09-14T07:42:52Z</time>
      </trkpt>
      <trkpt lat="53.675497015938163" lon="11.710862014442682">
        <ele>27.050000000000001</ele>
        <time>2024-09-14T07:43:00Z</time>
      </trkpt>
      <trkpt lat="53.675607992336154" lon="11.7109439894557">
        <ele>27.050000000000001</ele>
        <time>2024-09-14T07:43:01Z</time>
      </trkpt>
      <trkpt lat="53.675729027017951" lon="11.711010038852692">
        <ele>27.050000000000001</ele>
        <time>2024-09-14T07:43:02Z</time>
      </trkpt>
      <trkpt lat="53.676764024421573" lon="11.711307009682059">
        <ele>27.050000000000001</ele>
        <time>2024-09-14T07:43:09Z</time>
      </trkpt>
      <trkpt lat="53.676942978054285" lon="11.711358977481723">
        <ele>26.57</ele>
        <time>2024-09-14T07:43:10Z</time>
      </trkpt>
      <trkpt lat="53.679042980074883" lon="11.712095998227596">
        <ele>31.859999999999999</ele>
        <time>2024-09-14T07:43:21Z</time>
      </trkpt>
      <trkpt lat="53.679922996088862" lon="11.712518027052283">
        <ele>36.670000000000002</ele>
        <time>2024-09-14T07:43:26Z</time>
      </trkpt>
      <trkpt lat="53.680082000792027" lon="11.712560020387173">
        <ele>37.630000000000003</ele>
        <time>2024-09-14T07:43:27Z</time>
      </trkpt>
      <trkpt lat="53.680248968303204" lon="11.712552979588509">
        <ele>38.109999999999999</ele>
        <time>2024-09-14T07:43:28Z</time>
      </trkpt>
      <trkpt lat="53.681945968419313" lon="11.712322980165482">
        <ele>34.740000000000002</ele>
        <time>2024-09-14T07:43:37Z</time>
      </trkpt>
      <trkpt lat="53.683707006275654" lon="11.712228013202548">
        <ele>28.5</ele>
        <time>2024-09-14T07:43:46Z</time>
      </trkpt>
      <trkpt lat="53.685295963659883" lon="11.712534036487341">
        <ele>22.73</ele>
        <time>2024-09-14T07:43:54Z</time>
      </trkpt>
      <trkpt lat="53.68563299998641" lon="11.712741991505027">
        <ele>21.289999999999999</ele>
        <time>2024-09-14T07:43:56Z</time>
      </trkpt>
      <trkpt lat="53.685800973325968" lon="11.712847016751766">
        <ele>20.809999999999999</ele>
        <time>2024-09-14T07:43:57Z</time>
      </trkpt>
      <trkpt lat="53.68595696054399" lon="11.712960004806519">
        <ele>20.32</ele>
        <time>2024-09-14T07:43:58Z</time>
      </trkpt>
      <trkpt lat="53.687194967642426" lon="11.713810013607144">
        <ele>14.56</ele>
        <time>2024-09-14T07:44:05Z</time>
      </trkpt>
      <trkpt lat="53.687366964295506" lon="11.713934987783432">
        <ele>14.08</ele>
        <time>2024-09-14T07:44:06Z</time>
      </trkpt>
      <trkpt lat="53.687529992312193" lon="11.714074965566397">
        <ele>13.6</ele>
        <time>2024-09-14T07:44:07Z</time>
      </trkpt>
      <trkpt lat="53.68767399340868" lon="11.714260037988424">
        <ele>12.630000000000001</ele>
        <time>2024-09-14T07:44:08Z</time>
      </trkpt>
      <trkpt lat="53.687809025868773" lon="11.714453995227814">
        <ele>12.15</ele>
        <time>2024-09-14T07:44:09Z</time>
      </trkpt>
      <trkpt lat="53.687939029186964" lon="11.714640995487571">
        <ele>11.67</ele>
        <time>2024-09-14T07:44:10Z</time>
      </trkpt>
      <trkpt lat="53.688064003363252" lon="11.714821038767695">
        <ele>11.67</ele>
        <time>2024-09-14T07:44:11Z</time>
      </trkpt>
      <trkpt lat="53.688315041363239" lon="11.715149022638798">
        <ele>11.19</ele>
        <time>2024-09-14T07:44:13Z</time>
      </trkpt>
      <trkpt lat="53.688620980829" lon="11.715426966547966">
        <ele>10.710000000000001</ele>
        <time>2024-09-14T07:44:15Z</time>
      </trkpt>
      <trkpt lat="53.689836021512747" lon="11.716303965076804">
        <ele>9.75</ele>
        <time>2024-09-14T07:44:22Z</time>
      </trkpt>
      <trkpt lat="53.691293969750404" lon="11.717747999355197">
        <ele>10.23</ele>
        <time>2024-09-14T07:44:31Z</time>
      </trkpt>
      <trkpt lat="53.692371966317296" lon="11.719037974253297">
        <ele>12.630000000000001</ele>
        <time>2024-09-14T07:44:38Z</time>
      </trkpt>
      <trkpt lat="53.693011002615094" lon="11.719912961125374">
        <ele>13.6</ele>
        <time>2024-09-14T07:44:42Z</time>
      </trkpt>
      <trkpt lat="53.693763026967645" lon="11.721455985680223">
        <ele>11.67</ele>
        <time>2024-09-14T07:44:48Z</time>
      </trkpt>
      <trkpt lat="53.693870985880494" lon="11.721719009801745">
        <ele>11.19</ele>
        <time>2024-09-14T07:44:49Z</time>
      </trkpt>
      <trkpt lat="53.694072989746928" lon="11.722210021689534">
        <ele>9.75</ele>
        <time>2024-09-14T07:44:51Z</time>
      </trkpt>
      <trkpt lat="53.694170974195004" lon="11.722441026940942">
        <ele>8.789999999999999</ele>
        <time>2024-09-14T07:44:52Z</time>
      </trkpt>
      <trkpt lat="53.694294020533562" lon="11.72267597168684">
        <ele>8.310000000000001</ele>
        <time>2024-09-14T07:44:53Z</time>
      </trkpt>
      <trkpt lat="53.694406002759933" lon="11.722881998866796">
        <ele>7.35</ele>
        <time>2024-09-14T07:44:54Z</time>
      </trkpt>
      <trkpt lat="53.694556960836053" lon="11.723084002733231">
        <ele>6.87</ele>
        <time>2024-09-14T07:44:55Z</time>
      </trkpt>
      <trkpt lat="53.694845968857408" lon="11.723467977717519">
        <ele>5.91</ele>
        <time>2024-09-14T07:44:57Z</time>
      </trkpt>
      <trkpt lat="53.694959040731192" lon="11.723681967705488">
        <ele>5.91</ele>
        <time>2024-09-14T07:44:58Z</time>
      </trkpt>
      <trkpt lat="53.69504202157259" lon="11.723892018198967">
        <ele>5.42</ele>
        <time>2024-09-14T07:44:59Z</time>
      </trkpt>
      <trkpt lat="53.695132965222001" lon="11.724122017621994">
        <ele>5.42</ele>
        <time>2024-09-14T07:45:00Z</time>
      </trkpt>
      <trkpt lat="53.695222986862063" lon="11.72435101121664">
        <ele>5.42</ele>
        <time>2024-09-14T07:45:01Z</time>
      </trkpt>
      <trkpt lat="53.69527998380363" lon="11.724620992317796">
        <ele>5.42</ele>
        <time>2024-09-14T07:45:02Z</time>
      </trkpt>
      <trkpt lat="53.695328012108803" lon="11.724897008389235">
        <ele>5.42</ele>
        <time>2024-09-14T07:45:03Z</time>
      </trkpt>
      <trkpt lat="53.69536698795855" lon="11.725190039724112">
        <ele>5.91</ele>
        <time>2024-09-14T07:45:04Z</time>
      </trkpt>
      <trkpt lat="53.695403030142188" lon="11.725492961704731">
        <ele>5.91</ele>
        <time>2024-09-14T07:45:05Z</time>
      </trkpt>
      <trkpt lat="53.695505959913135" lon="11.727822041139007">
        <ele>9.75</ele>
        <time>2024-09-14T07:45:13Z</time>
      </trkpt>
      <trkpt lat="53.695534039288759" lon="11.72806603834033">
        <ele>10.710000000000001</ele>
        <time>2024-09-14T07:45:14Z</time>
      </trkpt>
      <trkpt lat="53.695626994594932" lon="11.728473985567689">
        <ele>10.710000000000001</ele>
        <time>2024-09-14T07:45:16Z</time>
      </trkpt>
      <trkpt lat="53.696040976792574" lon="11.730048023164272">
        <ele>11.19</ele>
        <time>2024-09-14T07:45:25Z</time>
      </trkpt>
      <trkpt lat="53.696092022582889" lon="11.730233011767268">
        <ele>11.19</ele>
        <time>2024-09-14T07:45:26Z</time>
      </trkpt>
      <trkpt lat="53.696165028959513" lon="11.730378018692136">
        <ele>11.19</ele>
        <time>2024-09-14T07:45:27Z</time>
      </trkpt>
      <trkpt lat="53.696237029507756" lon="11.730523025617003">
        <ele>11.19</ele>
        <time>2024-09-14T07:45:28Z</time>
      </trkpt>
      <trkpt lat="53.696344988420606" lon="11.730606006458402">
        <ele>11.19</ele>
        <time>2024-09-14T07:45:29Z</time>
      </trkpt>
      <trkpt lat="53.696450013667345" lon="11.730679012835026">
        <ele>11.67</ele>
        <time>2024-09-14T07:45:30Z</time>
      </trkpt>
      <trkpt lat="53.696563001722097" lon="11.730714971199632">
        <ele>11.67</ele>
        <time>2024-09-14T07:45:31Z</time>
      </trkpt>
      <trkpt lat="53.696680013090372" lon="11.73075201921165">
        <ele>11.19</ele>
        <time>2024-09-14T07:45:32Z</time>
      </trkpt>
      <trkpt lat="53.697464978322387" lon="11.731000961735845">
        <ele>11.67</ele>
        <time>2024-09-14T07:45:39Z</time>
      </trkpt>
      <trkpt lat="53.697585007175803" lon="11.731039015576243">
        <ele>11.67</ele>
        <time>2024-09-14T07:45:40Z</time>
      </trkpt>
      <trkpt lat="53.697947021573782" lon="11.731046978384256">
        <ele>11.67</ele>
        <time>2024-09-14T07:45:43Z</time>
      </trkpt>
      <trkpt lat="53.698065038770437" lon="11.731029041111469">
        <ele>11.67</ele>
        <time>2024-09-14T07:45:44Z</time>
      </trkpt>
      <trkpt lat="53.698807004839182" lon="11.730897026136518">
        <ele>12.630000000000001</ele>
        <time>2024-09-14T07:45:51Z</time>
      </trkpt>
      <trkpt lat="53.698855033144355" lon="11.730887973681092">
        <ele>12.15</ele>
        <time>2024-09-14T07:45:52Z</time>
      </trkpt>
      <trkpt lat="53.698962992057204" lon="11.730942036956549">
        <ele>12.630000000000001</ele>
        <time>2024-09-14T07:45:53Z</time>
      </trkpt>
      <trkpt lat="53.699043039232492" lon="11.730996016412973">
        <ele>12.15</ele>
        <time>2024-09-14T07:45:54Z</time>
      </trkpt>
      <trkpt lat="53.69912400841713" lon="11.731110010296106">
        <ele>12.15</ele>
        <time>2024-09-14T07:45:55Z</time>
      </trkpt>
      <trkpt lat="53.699198020622134" lon="11.731250993907452">
        <ele>12.15</ele>
        <time>2024-09-14T07:45:56Z</time>
      </trkpt>
      <trkpt lat="53.699359036982059" lon="11.731573026627302">
        <ele>12.630000000000001</ele>
        <time>2024-09-14T07:45:58Z</time>
      </trkpt>
      <trkpt lat="53.699442017823458" lon="11.731739994138479">
        <ele>12.630000000000001</ele>
        <time>2024-09-14T07:45:59Z</time>
      </trkpt>
      <trkpt lat="53.699531033635139" lon="11.73191299661994">
        <ele>13.119999999999999</ele>
        <time>2024-09-14T07:46:00Z</time>
      </trkpt>
      <trkpt lat="53.700238969177008" lon="11.733287964016199">
        <ele>18.399999999999999</ele>
        <time>2024-09-14T07:46:07Z</time>
      </trkpt>
      <trkpt lat="53.700441978871822" lon="11.733616031706333">
        <ele>19.84</ele>
        <time>2024-09-14T07:46:09Z</time>
      </trkpt>
      <trkpt lat="53.700548009946942" lon="11.733732037246227">
        <ele>20.32</ele>
        <time>2024-09-14T07:46:10Z</time>
      </trkpt>
      <trkpt lat="53.700897032395005" lon="11.734006041660905">
        <ele>21.289999999999999</ele>
        <time>2024-09-14T07:46:13Z</time>
      </trkpt>
      <trkpt lat="53.702332014217973" lon="11.734911035746336">
        <ele>17.920000000000002</ele>
        <time>2024-09-14T07:46:24Z</time>
      </trkpt>
      <trkpt lat="53.702461011707783" lon="11.734992004930973">
        <ele>16.960000000000001</ele>
        <time>2024-09-14T07:46:25Z</time>
      </trkpt>
      <trkpt lat="53.702592020854354" lon="11.735074985772371">
        <ele>16</ele>
        <time>2024-09-14T07:46:26Z</time>
      </trkpt>
      <trkpt lat="53.702725963667035" lon="11.73515796661377">
        <ele>15.039999999999999</ele>
        <time>2024-09-14T07:46:27Z</time>
      </trkpt>
      <trkpt lat="53.703820975497365" lon="11.735843019559979">
        <ele>6.87</ele>
        <time>2024-09-14T07:46:36Z</time>
      </trkpt>
      <trkpt lat="53.704493036493659" lon="11.736273011192679">
        <ele>7.35</ele>
        <time>2024-09-14T07:46:42Z</time>
      </trkpt>
      <trkpt lat="53.70458398014307" lon="11.736389016732574">
        <ele>7.83</ele>
        <time>2024-09-14T07:46:43Z</time>
      </trkpt>
      <trkpt lat="53.705540020018816" lon="11.737614031881094">
        <ele>7.83</ele>
        <time>2024-09-14T07:46:53Z</time>
      </trkpt>
      <trkpt lat="53.706388017162681" lon="11.738700997084379">
        <ele>2.06</ele>
        <time>2024-09-14T07:47:01Z</time>
      </trkpt>
      <trkpt lat="53.707554023712873" lon="11.740193981677294">
        <ele>0.14</ele>
        <time>2024-09-14T07:47:12Z</time>
      </trkpt>
      <trkpt lat="53.708054004237056" lon="11.740832012146711">
        <ele>1.1</ele>
        <time>2024-09-14T07:47:17Z</time>
      </trkpt>
      <trkpt lat="53.708146959543228" lon="11.740949023514986">
        <ele>1.58</ele>
        <time>2024-09-14T07:47:18Z</time>
      </trkpt>
      <trkpt lat="53.708244021981955" lon="11.741071986034513">
        <ele>1.58</ele>
        <time>2024-09-14T07:47:19Z</time>
      </trkpt>
      <trkpt lat="53.709267033264041" lon="11.742361038923264">
        <ele>3.98</ele>
        <time>2024-09-14T07:47:29Z</time>
      </trkpt>
      <trkpt lat="53.70937398634851" lon="11.742496993392706">
        <ele>3.98</ele>
        <time>2024-09-14T07:47:30Z</time>
      </trkpt>
      <trkpt lat="53.709484962746501" lon="11.74263596534729">
        <ele>3.98</ele>
        <time>2024-09-14T07:47:31Z</time>
      </trkpt>
      <trkpt lat="53.710479978471994" lon="11.743890987709165">
        <ele>3.02</ele>
        <time>2024-09-14T07:47:40Z</time>
      </trkpt>
      <trkpt lat="53.711410034447908" lon="11.745120026171207">
        <ele>3.02</ele>
        <time>2024-09-14T07:47:49Z</time>
      </trkpt>
      <trkpt lat="53.712499011307955" lon="11.746298018842936">
        <ele>3.02</ele>
        <time>2024-09-14T07:47:58Z</time>
      </trkpt>
      <trkpt lat="53.713953020051122" lon="11.747394036501646">
        <ele>1.58</ele>
        <time>2024-09-14T07:48:09Z</time>
      </trkpt>
      <trkpt lat="53.715279037132859" lon="11.74839299172163">
        <ele>2.06</ele>
        <time>2024-09-14T07:48:20Z</time>
      </trkpt>
      <trkpt lat="53.715836014598608" lon="11.748831029981375">
        <ele>1.1</ele>
        <time>2024-09-14T07:48:26Z</time>
      </trkpt>
      <trkpt lat="53.716701027005911" lon="11.749493032693863">
        <ele>-1.3</ele>
        <time>2024-09-14T07:48:34Z</time>
      </trkpt>
      <trkpt lat="53.717572996392846" lon="11.750142965465784">
        <ele>-3.23</ele>
        <time>2024-09-14T07:48:43Z</time>
      </trkpt>
      <trkpt lat="53.717735018581152" lon="11.750272968783975">
        <ele>-4.19</ele>
        <time>2024-09-14T07:48:46Z</time>
      </trkpt>
      <trkpt lat="53.717772988602519" lon="11.75030498765409">
        <ele>-4.19</ele>
        <time>2024-09-14T07:48:47Z</time>
      </trkpt>
      <trkpt lat="53.717796038836241" lon="11.750322002917528">
        <ele>-4.67</ele>
        <time>2024-09-14T07:48:48Z</time>
      </trkpt>
      <trkpt lat="53.717819005250931" lon="11.750341029837728">
        <ele>-5.15</ele>
        <time>2024-09-14T07:48:58Z</time>
      </trkpt>
      <trkpt lat="53.717882037162781" lon="11.75060598179698">
        <ele>-5.15</ele>
        <time>2024-09-14T07:48:59Z</time>
      </trkpt>
      <trkpt lat="53.717839037999511" lon="11.750680999830365">
        <ele>-4.67</ele>
        <time>2024-09-14T07:49:00Z</time>
      </trkpt>
      <trkpt lat="53.717782963067293" lon="11.750768003985286">
        <ele>-4.67</ele>
        <time>2024-09-14T07:49:01Z</time>
      </trkpt>
      <trkpt lat="53.71771096251905" lon="11.750879986211658">
        <ele>-4.19</ele>
        <time>2024-09-14T07:49:02Z</time>
      </trkpt>
      <trkpt lat="53.717626975849271" lon="11.751008983701468">
        <ele>-3.71</ele>
        <time>2024-09-14T07:49:03Z</time>
      </trkpt>
      <trkpt lat="53.716861959546804" lon="11.75236701965332">
        <ele>-0.34</ele>
        <time>2024-09-14T07:49:10Z</time>
      </trkpt>
      <trkpt lat="53.716060984879732" lon="11.75440700724721">
        <ele>4.94</ele>
        <time>2024-09-14T07:49:17Z</time>
      </trkpt>
      <trkpt lat="53.716015974059701" lon="11.754743037745357">
        <ele>5.91</ele>
        <time>2024-09-14T07:49:18Z</time>
      </trkpt>
      <trkpt lat="53.71597196906805" lon="11.755064986646175">
        <ele>6.39</ele>
        <time>2024-09-14T07:49:19Z</time>
      </trkpt>
      <trkpt lat="53.715946990996599" lon="11.755385007709265">
        <ele>7.35</ele>
        <time>2024-09-14T07:49:20Z</time>
      </trkpt>
      <trkpt lat="53.715935004875064" lon="11.755704022943974">
        <ele>7.83</ele>
        <time>2024-09-14T07:49:21Z</time>
      </trkpt>
      <trkpt lat="53.715935004875064" lon="11.756006022915244">
        <ele>8.310000000000001</ele>
        <time>2024-09-14T07:49:22Z</time>
      </trkpt>
      <trkpt lat="53.715975992381573" lon="11.758148018270731">
        <ele>10.23</ele>
        <time>2024-09-14T07:49:29Z</time>
      </trkpt>
      <trkpt lat="53.715978004038334" lon="11.760395038872957">
        <ele>11.19</ele>
        <time>2024-09-14T07:49:36Z</time>
      </trkpt>
      <trkpt lat="53.715802989900112" lon="11.763312024995685">
        <ele>12.630000000000001</ele>
        <time>2024-09-14T07:49:45Z</time>
      </trkpt>
      <trkpt lat="53.71541297994554" lon="11.766177965328097">
        <ele>9.75</ele>
        <time>2024-09-14T07:49:54Z</time>
      </trkpt>
      <trkpt lat="53.715065969154239" lon="11.768722040578723">
        <ele>4.46</ele>
        <time>2024-09-14T07:50:01Z</time>
      </trkpt>
      <trkpt lat="53.714776039123535" lon="11.770858000963926">
        <ele>-0.34</ele>
        <time>2024-09-14T07:50:07Z</time>
      </trkpt>
      <trkpt lat="53.714411007240415" lon="11.773553034290671">
        <ele>-6.59</ele>
        <time>2024-09-14T07:50:15Z</time>
      </trkpt>
      <trkpt lat="53.713890993967652" lon="11.777373002842069">
        <ele>-8.029999999999999</ele>
        <time>2024-09-14T07:50:27Z</time>
      </trkpt>
      <trkpt lat="53.713430995121598" lon="11.780720986425877">
        <ele>-3.23</ele>
        <time>2024-09-14T07:50:37Z</time>
      </trkpt>
      <trkpt lat="53.712935037910938" lon="11.783668985590339">
        <ele>3.98</ele>
        <time>2024-09-14T07:50:46Z</time>
      </trkpt>
      <trkpt lat="53.712384011596441" lon="11.786071993410587">
        <ele>10.710000000000001</ele>
        <time>2024-09-14T07:50:54Z</time>
      </trkpt>
      <trkpt lat="53.711790991947055" lon="11.788435019552708">
        <ele>13.6</ele>
        <time>2024-09-14T07:51:02Z</time>
      </trkpt>
      <trkpt lat="53.711270978674293" lon="11.790506020188332">
        <ele>16.48</ele>
        <time>2024-09-14T07:51:10Z</time>
      </trkpt>
      <trkpt lat="53.710477966815233" lon="11.793764987960458">
        <ele>16</ele>
        <time>2024-09-14T07:51:21Z</time>
      </trkpt>
      <trkpt lat="53.710103966295719" lon="11.795983007177711">
        <ele>12.630000000000001</ele>
        <time>2024-09-14T07:51:28Z</time>
      </trkpt>
      <trkpt lat="53.709730971604586" lon="11.79948597215116">
        <ele>6.87</ele>
        <time>2024-09-14T07:51:39Z</time>
      </trkpt>
      <trkpt lat="53.709435006603599" lon="11.802183017134666">
        <ele>3.5</ele>
        <time>2024-09-14T07:51:49Z</time>
      </trkpt>
      <trkpt lat="53.709200983867049" lon="11.80438200943172">
        <ele>2.54</ele>
        <time>2024-09-14T07:51:57Z</time>
      </trkpt>
      <trkpt lat="53.709090007469058" lon="11.80691602639854">
        <ele>2.54</ele>
        <time>2024-09-14T07:52:06Z</time>
      </trkpt>
      <trkpt lat="53.70911599136889" lon="11.809581974521279">
        <ele>1.1</ele>
        <time>2024-09-14T07:52:16Z</time>
      </trkpt>
      <trkpt lat="53.709132000803947" lon="11.810191003605723">
        <ele>0.14</ele>
        <time>2024-09-14T07:52:19Z</time>
      </trkpt>
      <trkpt lat="53.709154967218637" lon="11.810359982773662">
        <ele>-0.34</ele>
        <time>2024-09-14T07:52:20Z</time>
      </trkpt>
      <trkpt lat="53.709211964160204" lon="11.810681009665132">
        <ele>-0.34</ele>
        <time>2024-09-14T07:52:22Z</time>
      </trkpt>
      <trkpt lat="53.709243983030319" lon="11.810859963297844">
        <ele>0.14</ele>
        <time>2024-09-14T07:52:23Z</time>
      </trkpt>
      <trkpt lat="53.709279019385576" lon="11.811060039326549">
        <ele>0.14</ele>
        <time>2024-09-14T07:52:24Z</time>
      </trkpt>
      <trkpt lat="53.709913026541471" lon="11.812763996422291">
        <ele>0.62</ele>
        <time>2024-09-14T07:52:33Z</time>
      </trkpt>
      <trkpt lat="53.710585003718734" lon="11.814298974350095">
        <ele>1.58</ele>
        <time>2024-09-14T07:52:42Z</time>
      </trkpt>
      <trkpt lat="53.710893038660288" lon="11.815024008974433">
        <ele>2.54</ele>
        <time>2024-09-14T07:52:46Z</time>
      </trkpt>
      <trkpt lat="53.711469965055585" lon="11.8163070268929">
        <ele>4.94</ele>
        <time>2024-09-14T07:52:55Z</time>
      </trkpt>
      <trkpt lat="53.711859975010157" lon="11.817356022074819">
        <ele>4.94</ele>
        <time>2024-09-14T07:53:04Z</time>
      </trkpt>
      <trkpt lat="53.712282003834844" lon="11.819321997463703">
        <ele>4.46</ele>
        <time>2024-09-14T07:53:14Z</time>
      </trkpt>
      <trkpt lat="53.712314022704959" lon="11.819492988288403">
        <ele>4.94</ele>
        <time>2024-09-14T07:53:15Z</time>
      </trkpt>
      <trkpt lat="53.712561037391424" lon="11.82148695923388">
        <ele>4.94</ele>
        <time>2024-09-14T07:53:25Z</time>
      </trkpt>
      <trkpt lat="53.712750971317291" lon="11.823080023750663">
        <ele>4.46</ele>
        <time>2024-09-14T07:53:33Z</time>
      </trkpt>
      <trkpt lat="53.712771004065871" lon="11.823279010131955">
        <ele>4.46</ele>
        <time>2024-09-14T07:53:34Z</time>
      </trkpt>
      <trkpt lat="53.712880974635482" lon="11.824432024732232">
        <ele>2.54</ele>
        <time>2024-09-14T07:53:42Z</time>
      </trkpt>
      <trkpt lat="53.712917016819119" lon="11.824778029695153">
        <ele>1.58</ele>
        <time>2024-09-14T07:53:50Z</time>
      </trkpt>
      <trkpt lat="53.712950041517615" lon="11.825090004131198">
        <ele>1.58</ele>
        <time>2024-09-14T07:54:04Z</time>
      </trkpt>
      <trkpt lat="53.713081972673535" lon="11.826567985117435">
        <ele>1.1</ele>
        <time>2024-09-14T07:54:13Z</time>
      </trkpt>
      <trkpt lat="53.713268972933292" lon="11.828868985176086">
        <ele>-2.27</ele>
        <time>2024-09-14T07:54:25Z</time>
      </trkpt>
      <trkpt lat="53.713240977376699" lon="11.830132976174355">
        <ele>-4.67</ele>
        <time>2024-09-14T07:54:31Z</time>
      </trkpt>
      <trkpt lat="53.713212981820107" lon="11.83031796477735">
        <ele>-4.67</ele>
        <time>2024-09-14T07:54:32Z</time>
      </trkpt>
      <trkpt lat="53.712700009346008" lon="11.83169100433588">
        <ele>-5.15</ele>
        <time>2024-09-14T07:54:40Z</time>
      </trkpt>
      <trkpt lat="53.712496999651194" lon="11.831929972395301">
        <ele>-5.15</ele>
        <time>2024-09-14T07:54:42Z</time>
      </trkpt>
      <trkpt lat="53.712391974404454" lon="11.832029968500137">
        <ele>-4.67</ele>
        <time>2024-09-14T07:54:43Z</time>
      </trkpt>
      <trkpt lat="53.712288038805127" lon="11.832128958776593">
        <ele>-4.67</ele>
        <time>2024-09-14T07:54:44Z</time>
      </trkpt>
      <trkpt lat="53.710932014510036" lon="11.832847036421299">
        <ele>-0.82</ele>
        <time>2024-09-14T07:54:56Z</time>
      </trkpt>
      <trkpt lat="53.709420002996922" lon="11.833569975569844">
        <ele>2.54</ele>
        <time>2024-09-14T07:55:09Z</time>
      </trkpt>
      <trkpt lat="53.708002036437392" lon="11.834126031026244">
        <ele>1.58</ele>
        <time>2024-09-14T07:55:21Z</time>
      </trkpt>
      <trkpt lat="53.707183040678501" lon="11.834275983273983">
        <ele>1.58</ele>
        <time>2024-09-14T07:55:28Z</time>
      </trkpt>
      <trkpt lat="53.706776015460491" lon="11.834426019340754">
        <ele>0.62</ele>
        <time>2024-09-14T07:55:33Z</time>
      </trkpt>
      <trkpt lat="53.706733016297221" lon="11.834360975772142">
        <ele>0.14</ele>
        <time>2024-09-14T07:55:34Z</time>
      </trkpt>
      <trkpt lat="53.706682976335287" lon="11.834262991324067">
        <ele>0.14</ele>
        <time>2024-09-14T07:55:35Z</time>
      </trkpt>
      <trkpt lat="53.706669984385371" lon="11.834168024361134">
        <ele>0.14</ele>
        <time>2024-09-14T07:55:36Z</time>
      </trkpt>
      <trkpt lat="53.706644000485539" lon="11.833970965817571">
        <ele>0.14</ele>
        <time>2024-09-14T07:55:37Z</time>
      </trkpt>
      <trkpt lat="53.706656992435455" lon="11.833854960277677">
        <ele>0.14</ele>
        <time>2024-09-14T07:55:38Z</time>
      </trkpt>
      <trkpt lat="53.706675013527274" lon="11.833691010251641">
        <ele>0.62</ele>
        <time>2024-09-14T07:55:39Z</time>
      </trkpt>
      <trkpt lat="53.706875005736947" lon="11.831939024850726">
        <ele>4.46</ele>
        <time>2024-09-14T07:55:49Z</time>
      </trkpt>
      <trkpt lat="53.706963015720248" lon="11.831396967172623">
        <ele>5.91</ele>
        <time>2024-09-14T07:55:52Z</time>
      </trkpt>
      <trkpt lat="53.706994028761983" lon="11.831208039075136">
        <ele>5.91</ele>
        <time>2024-09-14T07:55:53Z</time>
      </trkpt>
      <trkpt lat="53.707029987126589" lon="11.831031013280153">
        <ele>6.39</ele>
        <time>2024-09-14T07:55:54Z</time>
      </trkpt>
      <trkpt lat="53.707123026251793" lon="11.83087402023375">
        <ele>6.87</ele>
        <time>2024-09-14T07:55:55Z</time>
      </trkpt>
      <trkpt lat="53.707209024578333" lon="11.830728007480502">
        <ele>6.87</ele>
        <time>2024-09-14T07:55:56Z</time>
      </trkpt>
      <trkpt lat="53.707309020683169" lon="11.830559028312564">
        <ele>7.35</ele>
        <time>2024-09-14T07:55:57Z</time>
      </trkpt>
      <trkpt lat="53.7073989585042" lon="11.83044402860105">
        <ele>7.35</ele>
        <time>2024-09-14T07:55:58Z</time>
      </trkpt>
      <trkpt lat="53.708187025040388" lon="11.829390004277229">
        <ele>9.27</ele>
        <time>2024-09-14T07:56:06Z</time>
      </trkpt>
      <trkpt lat="53.708259025588632" lon="11.829223036766052">
        <ele>9.75</ele>
        <time>2024-09-14T07:56:07Z</time>
      </trkpt>
      <trkpt lat="53.708328008651733" lon="11.829062020406127">
        <ele>10.23</ele>
        <time>2024-09-14T07:56:08Z</time>
      </trkpt>
      <trkpt lat="53.708376958966255" lon="11.828884994611144">
        <ele>10.23</ele>
        <time>2024-09-14T07:56:09Z</time>
      </trkpt>
      <trkpt lat="53.708418030291796" lon="11.828720960766077">
        <ele>10.710000000000001</ele>
        <time>2024-09-14T07:56:10Z</time>
      </trkpt>
      <trkpt lat="53.708538981154561" lon="11.82808100245893">
        <ele>11.67</ele>
        <time>2024-09-14T07:56:14Z</time>
      </trkpt>
      <trkpt lat="53.708547027781606" lon="11.82793197222054">
        <ele>12.15</ele>
        <time>2024-09-14T07:56:15Z</time>
      </trkpt>
      <trkpt lat="53.70851400308311" lon="11.827772967517376">
        <ele>12.630000000000001</ele>
        <time>2024-09-14T07:56:16Z</time>
      </trkpt>
      <trkpt lat="53.708439990878105" lon="11.827699039131403">
        <ele>12.630000000000001</ele>
        <time>2024-09-14T07:56:17Z</time>
      </trkpt>
      <trkpt lat="53.708361033350229" lon="11.827618991956115">
        <ele>13.119999999999999</ele>
        <time>2024-09-14T07:56:18Z</time>
      </trkpt>
      <trkpt lat="53.708282997831702" lon="11.82754497975111">
        <ele>13.119999999999999</ele>
        <time>2024-09-14T07:56:19Z</time>
      </trkpt>
      <trkpt lat="53.708204962313175" lon="11.827485971152782">
        <ele>13.6</ele>
        <time>2024-09-14T07:56:20Z</time>
      </trkpt>
      <trkpt lat="53.707364005967975" lon="11.826897980645299">
        <ele>15.039999999999999</ele>
        <time>2024-09-14T07:56:31Z</time>
      </trkpt>
      <trkpt lat="53.707364005967975" lon="11.826897980645299">
        <ele>15.039999999999999</ele>
        <time>2024-09-14T07:56:41Z</time>
      </trkpt>
      <trkpt lat="53.707288987934589" lon="11.826844001188874">
        <ele>15.039999999999999</ele>
        <time>2024-09-14T07:57:03Z</time>
      </trkpt>
      <trkpt lat="53.706686999648809" lon="11.826503025367856">
        <ele>14.56</ele>
        <time>2024-09-14T07:57:11Z</time>
      </trkpt>
      <trkpt lat="53.706585997715592" lon="11.826503025367856">
        <ele>14.56</ele>
        <time>2024-09-14T07:57:12Z</time>
      </trkpt>
      <trkpt lat="53.706475021317601" lon="11.82651299983263">
        <ele>14.56</ele>
        <time>2024-09-14T07:57:13Z</time>
      </trkpt>
      <trkpt lat="53.705920977517962" lon="11.826853975653648">
        <ele>14.08</ele>
        <time>2024-09-14T07:57:18Z</time>
      </trkpt>
      <trkpt lat="53.705817963927984" lon="11.826949026435614">
        <ele>14.56</ele>
        <time>2024-09-14T07:57:19Z</time>
      </trkpt>
      <trkpt lat="53.705710005015135" lon="11.82704902254045">
        <ele>14.56</ele>
        <time>2024-09-14T07:57:20Z</time>
      </trkpt>
      <trkpt lat="53.704663021489978" lon="11.828074967488647">
        <ele>12.630000000000001</ele>
        <time>2024-09-14T07:57:30Z</time>
      </trkpt>
      <trkpt lat="53.70325000025332" lon="11.829191017895937">
        <ele>13.119999999999999</ele>
        <time>2024-09-14T07:57:41Z</time>
      </trkpt>
      <trkpt lat="53.702302007004619" lon="11.830300027504563">
        <ele>14.56</ele>
        <time>2024-09-14T07:57:48Z</time>
      </trkpt>
      <trkpt lat="53.701493991538882" lon="11.831845985725522">
        <ele>14.08</ele>
        <time>2024-09-14T07:57:56Z</time>
      </trkpt>
      <trkpt lat="53.70133800432086" lon="11.832001972943544">
        <ele>14.08</ele>
        <time>2024-09-14T07:57:57Z</time>
      </trkpt>
      <trkpt lat="53.701204983517528" lon="11.832134993746877">
        <ele>14.08</ele>
        <time>2024-09-14T07:57:58Z</time>
      </trkpt>
      <trkpt lat="53.701075986027718" lon="11.832223003730178">
        <ele>14.08</ele>
        <time>2024-09-14T07:57:59Z</time>
      </trkpt>
      <trkpt lat="53.700927961617708" lon="11.832282012328506">
        <ele>13.6</ele>
        <time>2024-09-14T07:58:00Z</time>
      </trkpt>
      <trkpt lat="53.700754959136248" lon="11.832318976521492">
        <ele>13.6</ele>
        <time>2024-09-14T07:58:01Z</time>
      </trkpt>
      <trkpt lat="53.700564019382" lon="11.832359964028001">
        <ele>13.6</ele>
        <time>2024-09-14T07:58:02Z</time>
      </trkpt>
      <trkpt lat="53.700366038829088" lon="11.832402041181922">
        <ele>13.6</ele>
        <time>2024-09-14T07:58:03Z</time>
      </trkpt>
      <trkpt lat="53.698655962944031" lon="11.832483010366559">
        <ele>11.19</ele>
        <time>2024-09-14T07:58:12Z</time>
      </trkpt>
      <trkpt lat="53.696413971483707" lon="11.832617959007621">
        <ele>15.52</ele>
        <time>2024-09-14T07:58:24Z</time>
      </trkpt>
      <trkpt lat="53.69605204090476" lon="11.832769000902772">
        <ele>16.48</ele>
        <time>2024-09-14T07:58:26Z</time>
      </trkpt>
      <trkpt lat="53.695861017331481" lon="11.832864973694086">
        <ele>17.440000000000001</ele>
        <time>2024-09-14T07:58:27Z</time>
      </trkpt>
      <trkpt lat="53.695683991536498" lon="11.833030013367534">
        <ele>17.920000000000002</ele>
        <time>2024-09-14T07:58:28Z</time>
      </trkpt>
      <trkpt lat="53.695508977398276" lon="11.833221036940813">
        <ele>18.399999999999999</ele>
        <time>2024-09-14T07:58:29Z</time>
      </trkpt>
      <trkpt lat="53.695350978523493" lon="11.833437960594893">
        <ele>19.359999999999999</ele>
        <time>2024-09-14T07:58:30Z</time>
      </trkpt>
      <trkpt lat="53.693907028064132" lon="11.835416005924344">
        <ele>26.57</ele>
        <time>2024-09-14T07:58:40Z</time>
      </trkpt>
      <trkpt lat="53.692667009308934" lon="11.837113006040454">
        <ele>29.940000000000001</ele>
        <time>2024-09-14T07:58:49Z</time>
      </trkpt>
      <trkpt lat="53.691328000277281" lon="11.838985020294785">
        <ele>31.859999999999999</ele>
        <time>2024-09-14T07:58:57Z</time>
      </trkpt>
      <trkpt lat="53.690046994015574" lon="11.841146964579821">
        <ele>35.229999999999997</ele>
        <time>2024-09-14T07:59:05Z</time>
      </trkpt>
      <trkpt lat="53.688503969460726" lon="11.844620006158948">
        <ele>35.710000000000001</ele>
        <time>2024-09-14T07:59:18Z</time>
      </trkpt>
      <trkpt lat="53.687020959332585" lon="11.847930019721389">
        <ele>33.780000000000001</ele>
        <time>2024-09-14T07:59:29Z</time>
      </trkpt>
      <trkpt lat="53.685314990580082" lon="11.851716041564941">
        <ele>35.229999999999997</ele>
        <time>2024-09-14T07:59:42Z</time>
      </trkpt>
      <trkpt lat="53.684037001803517" lon="11.854175962507725">
        <ele>41.950000000000003</ele>
        <time>2024-09-14T07:59:52Z</time>
      </trkpt>
      <trkpt lat="53.682367997244" lon="11.857242984697223">
        <ele>46.280000000000001</ele>
        <time>2024-09-14T08:00:05Z</time>
      </trkpt>
      <trkpt lat="53.681017002090812" lon="11.859591007232666">
        <ele>44.359999999999999</ele>
        <time>2024-09-14T08:00:15Z</time>
      </trkpt>
      <trkpt lat="53.679653014987707" lon="11.861969036981463">
        <ele>40.030000000000001</ele>
        <time>2024-09-14T08:00:26Z</time>
      </trkpt>
      <trkpt lat="53.67894901894033" lon="11.863728985190392">
        <ele>39.07</ele>
        <time>2024-09-14T08:00:33Z</time>
      </trkpt>
      <trkpt lat="53.678075037896633" lon="11.867362037301064">
        <ele>38.109999999999999</ele>
        <time>2024-09-14T08:00:46Z</time>
      </trkpt>
      <trkpt lat="53.677730960771441" lon="11.868786960840225">
        <ele>34.259999999999998</ele>
        <time>2024-09-14T08:00:53Z</time>
      </trkpt>
      <trkpt lat="53.677691984921694" lon="11.868953006342053">
        <ele>33.780000000000001</ele>
        <time>2024-09-14T08:00:54Z</time>
      </trkpt>
      <trkpt lat="53.677350003272295" lon="11.870384970679879">
        <ele>31.379999999999999</ele>
        <time>2024-09-14T08:01:02Z</time>
      </trkpt>
      <trkpt lat="53.676623040810227" lon="11.873400025069714">
        <ele>29.460000000000001</ele>
        <time>2024-09-14T08:01:18Z</time>
      </trkpt>
      <trkpt lat="53.675977969542146" lon="11.876132022589445">
        <ele>28.98</ele>
        <time>2024-09-14T08:01:33Z</time>
      </trkpt>
      <trkpt lat="53.675676975399256" lon="11.877375980839133">
        <ele>27.530000000000001</ele>
        <time>2024-09-14T08:01:40Z</time>
      </trkpt>
      <trkpt lat="53.675066018477082" lon="11.879921983927488">
        <ele>26.57</ele>
        <time>2024-09-14T08:01:51Z</time>
      </trkpt>
      <trkpt lat="53.674414996057749" lon="11.882092980667949">
        <ele>26.57</ele>
        <time>2024-09-14T08:01:59Z</time>
      </trkpt>
      <trkpt lat="53.673378992825747" lon="11.88510300591588">
        <ele>28.98</ele>
        <time>2024-09-14T08:02:10Z</time>
      </trkpt>
      <trkpt lat="53.672107039019465" lon="11.888295002281666">
        <ele>28.5</ele>
        <time>2024-09-14T08:02:24Z</time>
      </trkpt>
      <trkpt lat="53.670866014435887" lon="11.89098902978003">
        <ele>28.5</ele>
        <time>2024-09-14T08:02:35Z</time>
      </trkpt>
      <trkpt lat="53.670090017840266" lon="11.893388014286757">
        <ele>27.050000000000001</ele>
        <time>2024-09-14T08:02:44Z</time>
      </trkpt>
      <trkpt lat="53.669574027881026" lon="11.89502902328968">
        <ele>27.530000000000001</ele>
        <time>2024-09-14T08:02:53Z</time>
      </trkpt>
      <trkpt lat="53.668955024331808" lon="11.896994998678565">
        <ele>28.5</ele>
        <time>2024-09-14T08:03:03Z</time>
      </trkpt>
      <trkpt lat="53.668319005519152" lon="11.899056024849415">
        <ele>26.09</ele>
        <time>2024-09-14T08:03:14Z</time>
      </trkpt>
      <trkpt lat="53.667556000873446" lon="11.901590041816235">
        <ele>24.649999999999999</ele>
        <time>2024-09-14T08:03:28Z</time>
      </trkpt>
      <trkpt lat="53.666875977069139" lon="11.903746034950018">
        <ele>23.210000000000001</ele>
        <time>2024-09-14T08:03:40Z</time>
      </trkpt>
      <trkpt lat="53.666311036795378" lon="11.905495002865791">
        <ele>22.73</ele>
        <time>2024-09-14T08:03:49Z</time>
      </trkpt>
      <trkpt lat="53.665515007451177" lon="11.907947966828942">
        <ele>19.359999999999999</ele>
        <time>2024-09-14T08:03:59Z</time>
      </trkpt>
      <trkpt lat="53.664658041670918" lon="11.910379976034164">
        <ele>18.879999999999999</ele>
        <time>2024-09-14T08:04:08Z</time>
      </trkpt>
      <trkpt lat="53.664345983415842" lon="11.911173993721604">
        <ele>19.84</ele>
        <time>2024-09-14T08:04:11Z</time>
      </trkpt>
      <trkpt lat="53.664285968989134" lon="11.91146501339972">
        <ele>20.32</ele>
        <time>2024-09-14T08:04:12Z</time>
      </trkpt>
      <trkpt lat="53.664236012846231" lon="11.911754021421075">
        <ele>20.32</ele>
        <time>2024-09-14T08:04:13Z</time>
      </trkpt>
      <trkpt lat="53.664200976490974" lon="11.912048980593681">
        <ele>20.32</ele>
        <time>2024-09-14T08:04:14Z</time>
      </trkpt>
      <trkpt lat="53.664200976490974" lon="11.912353998050094">
        <ele>20.809999999999999</ele>
        <time>2024-09-14T08:04:15Z</time>
      </trkpt>
      <trkpt lat="53.664200976490974" lon="11.912663038820028">
        <ele>20.809999999999999</ele>
        <time>2024-09-14T08:04:16Z</time>
      </trkpt>
      <trkpt lat="53.664372973144054" lon="11.915093958377838">
        <ele>21.289999999999999</ele>
        <time>2024-09-14T08:04:23Z</time>
      </trkpt>
      <trkpt lat="53.664485039189458" lon="11.917379032820463">
        <ele>19.359999999999999</ele>
        <time>2024-09-14T08:04:29Z</time>
      </trkpt>
      <trkpt lat="53.664457965642214" lon="11.917750015854836">
        <ele>18.879999999999999</ele>
        <time>2024-09-14T08:04:30Z</time>
      </trkpt>
      <trkpt lat="53.664397029206157" lon="11.918137008324265">
        <ele>18.879999999999999</ele>
        <time>2024-09-14T08:04:31Z</time>
      </trkpt>
      <trkpt lat="53.66412503644824" lon="11.920178001746535">
        <ele>19.359999999999999</ele>
        <time>2024-09-14T08:04:37Z</time>
      </trkpt>
      <trkpt lat="53.663774002343416" lon="11.922666002064943">
        <ele>23.690000000000001</ele>
        <time>2024-09-14T08:04:45Z</time>
      </trkpt>
      <trkpt lat="53.663349039852619" lon="11.925824973732233">
        <ele>28.5</ele>
        <time>2024-09-14T08:04:54Z</time>
      </trkpt>
      <trkpt lat="53.662952994927764" lon="11.928839022293687">
        <ele>33.780000000000001</ele>
        <time>2024-09-14T08:05:02Z</time>
      </trkpt>
      <trkpt lat="53.662598021328449" lon="11.931753996759653">
        <ele>36.670000000000002</ele>
        <time>2024-09-14T08:05:10Z</time>
      </trkpt>
      <trkpt lat="53.66225503385067" lon="11.934595964848995">
        <ele>36.670000000000002</ele>
        <time>2024-09-14T08:05:18Z</time>
      </trkpt>
      <trkpt lat="53.661839962005615" lon="11.938108988106251">
        <ele>38.590000000000003</ele>
        <time>2024-09-14T08:05:29Z</time>
      </trkpt>
      <trkpt lat="53.66154701448977" lon="11.940523982048035">
        <ele>38.109999999999999</ele>
        <time>2024-09-14T08:05:38Z</time>
      </trkpt>
      <trkpt lat="53.661468978971243" lon="11.942269010469317">
        <ele>34.259999999999998</ele>
        <time>2024-09-14T08:05:46Z</time>
      </trkpt>
      <trkpt lat="53.661997960880399" lon="11.944220988079906">
        <ele>28.98</ele>
        <time>2024-09-14T08:05:56Z</time>
      </trkpt>
      <trkpt lat="53.662474974989891" lon="11.945828972384334">
        <ele>25.609999999999999</ele>
        <time>2024-09-14T08:06:05Z</time>
      </trkpt>
      <trkpt lat="53.663061037659645" lon="11.947813974693418">
        <ele>25.609999999999999</ele>
        <time>2024-09-14T08:06:16Z</time>
      </trkpt>
      <trkpt lat="53.663689009845257" lon="11.950474977493286">
        <ele>24.649999999999999</ele>
        <time>2024-09-14T08:06:30Z</time>
      </trkpt>
      <trkpt lat="53.663793029263616" lon="11.951250974088907">
        <ele>24.649999999999999</ele>
        <time>2024-09-14T08:06:34Z</time>
      </trkpt>
      <trkpt lat="53.663788000121713" lon="11.951849022880197">
        <ele>25.129999999999999</ele>
        <time>2024-09-14T08:06:37Z</time>
      </trkpt>
      <trkpt lat="53.663681969046593" lon="11.952627031132579">
        <ele>26.09</ele>
        <time>2024-09-14T08:06:41Z</time>
      </trkpt>
      <trkpt lat="53.663636036217213" lon="11.952814031392336">
        <ele>26.57</ele>
        <time>2024-09-14T08:06:42Z</time>
      </trkpt>
      <trkpt lat="53.663128009065986" lon="11.954426039010286">
        <ele>31.859999999999999</ele>
        <time>2024-09-14T08:06:49Z</time>
      </trkpt>
      <trkpt lat="53.662250004708767" lon="11.957152001559734">
        <ele>33.780000000000001</ele>
        <time>2024-09-14T08:06:58Z</time>
      </trkpt>
      <trkpt lat="53.661507032811642" lon="11.960228998214006">
        <ele>30.420000000000002</ele>
        <time>2024-09-14T08:07:07Z</time>
      </trkpt>
      <trkpt lat="53.661039993166924" lon="11.963944025337696">
        <ele>28.5</ele>
        <time>2024-09-14T08:07:17Z</time>
      </trkpt>
      <trkpt lat="53.660504976287484" lon="11.968211000785232">
        <ele>28.02</ele>
        <time>2024-09-14T08:07:28Z</time>
      </trkpt>
      <trkpt lat="53.660122007131577" lon="11.971316998824477">
        <ele>28.02</ele>
        <time>2024-09-14T08:07:36Z</time>
      </trkpt>
      <trkpt lat="53.659661002457142" lon="11.974980980157852">
        <ele>28.98</ele>
        <time>2024-09-14T08:07:46Z</time>
      </trkpt>
      <trkpt lat="53.659145012497902" lon="11.978878984227777">
        <ele>31.859999999999999</ele>
        <time>2024-09-14T08:07:57Z</time>
      </trkpt>
      <trkpt lat="53.658842006698251" lon="11.982391001656651">
        <ele>33.299999999999997</ele>
        <time>2024-09-14T08:08:07Z</time>
      </trkpt>
      <trkpt lat="53.658716026693583" lon="11.985500017181039">
        <ele>34.259999999999998</ele>
        <time>2024-09-14T08:08:16Z</time>
      </trkpt>
      <trkpt lat="53.658549981191754" lon="11.988203013315797">
        <ele>37.630000000000003</ele>
        <time>2024-09-14T08:08:24Z</time>
      </trkpt>
      <trkpt lat="53.657935000956059" lon="11.992010995745659">
        <ele>36.670000000000002</ele>
        <time>2024-09-14T08:08:36Z</time>
      </trkpt>
      <trkpt lat="53.65735799074173" lon="11.995285972952843">
        <ele>31.859999999999999</ele>
        <time>2024-09-14T08:08:46Z</time>
      </trkpt>
      <trkpt lat="53.656809981912374" lon="11.997958961874247">
        <ele>26.57</ele>
        <time>2024-09-14T08:08:54Z</time>
      </trkpt>
      <trkpt lat="53.656711997464299" lon="11.998282000422478">
        <ele>26.57</ele>
        <time>2024-09-14T08:08:55Z</time>
      </trkpt>
      <trkpt lat="53.656581994146109" lon="11.998574025928974">
        <ele>27.050000000000001</ele>
        <time>2024-09-14T08:08:56Z</time>
      </trkpt>
      <trkpt lat="53.655170984566212" lon="12.00159402564168">
        <ele>31.859999999999999</ele>
        <time>2024-09-14T08:09:06Z</time>
      </trkpt>
      <trkpt lat="53.654554998502135" lon="12.002782998606563">
        <ele>30.899999999999999</ele>
        <time>2024-09-14T08:09:10Z</time>
      </trkpt>
      <trkpt lat="53.654398005455732" lon="12.003048034384847">
        <ele>30.899999999999999</ele>
        <time>2024-09-14T08:09:11Z</time>
      </trkpt>
      <trkpt lat="53.653758969157934" lon="12.004236001521349">
        <ele>31.859999999999999</ele>
        <time>2024-09-14T08:09:16Z</time>
      </trkpt>
      <trkpt lat="53.653666013851762" lon="12.004515035077929">
        <ele>32.340000000000003</ele>
        <time>2024-09-14T08:09:17Z</time>
      </trkpt>
      <trkpt lat="53.653596024960279" lon="12.004822986200452">
        <ele>32.340000000000003</ele>
        <time>2024-09-14T08:09:18Z</time>
      </trkpt>
      <trkpt lat="53.653524024412036" lon="12.005142001435161">
        <ele>32.340000000000003</ele>
        <time>2024-09-14T08:09:19Z</time>
      </trkpt>
      <trkpt lat="53.653484964743257" lon="12.005496975034475">
        <ele>32.340000000000003</ele>
        <time>2024-09-14T08:09:20Z</time>
      </trkpt>
      <trkpt lat="53.653450012207031" lon="12.005852032452822">
        <ele>32.340000000000003</ele>
        <time>2024-09-14T08:09:21Z</time>
      </trkpt>
      <trkpt lat="53.653421010822058" lon="12.00795697979629">
        <ele>33.299999999999997</ele>
        <time>2024-09-14T08:09:27Z</time>
      </trkpt>
      <trkpt lat="53.653527041897178" lon="12.010507006198168">
        <ele>31.859999999999999</ele>
        <time>2024-09-14T08:09:34Z</time>
      </trkpt>
      <trkpt lat="53.653622008860111" lon="12.012279024347663">
        <ele>32.82</ele>
        <time>2024-09-14T08:09:39Z</time>
      </trkpt>
      <trkpt lat="53.653688980266452" lon="12.012604996562004">
        <ele>32.82</ele>
        <time>2024-09-14T08:09:40Z</time>
      </trkpt>
      <trkpt lat="53.653771039098501" lon="12.012930968776345">
        <ele>32.82</ele>
        <time>2024-09-14T08:09:41Z</time>
      </trkpt>
      <trkpt lat="53.653870029374957" lon="12.013246966525912">
        <ele>32.82</ele>
        <time>2024-09-14T08:09:42Z</time>
      </trkpt>
      <trkpt lat="53.653973964974284" lon="12.013578973710537">
        <ele>32.82</ele>
        <time>2024-09-14T08:09:43Z</time>
      </trkpt>
      <trkpt lat="53.654447961598635" lon="12.015279997140169">
        <ele>33.299999999999997</ele>
        <time>2024-09-14T08:09:48Z</time>
      </trkpt>
      <trkpt lat="53.654889017343521" lon="12.018294967710972">
        <ele>32.340000000000003</ele>
        <time>2024-09-14T08:09:56Z</time>
      </trkpt>
      <trkpt lat="53.655240973457694" lon="12.020368985831738">
        <ele>29.460000000000001</ele>
        <time>2024-09-14T08:10:02Z</time>
      </trkpt>
      <trkpt lat="53.655267963185906" lon="12.0207180082798">
        <ele>28.98</ele>
        <time>2024-09-14T08:10:03Z</time>
      </trkpt>
      <trkpt lat="53.655223958194256" lon="12.024028021842241">
        <ele>29.940000000000001</ele>
        <time>2024-09-14T08:10:12Z</time>
      </trkpt>
      <trkpt lat="53.654975015670061" lon="12.026527002453804">
        <ele>30.899999999999999</ele>
        <time>2024-09-14T08:10:19Z</time>
      </trkpt>
      <trkpt lat="53.654872002080083" lon="12.026803018525243">
        <ele>30.899999999999999</ele>
        <time>2024-09-14T08:10:20Z</time>
      </trkpt>
      <trkpt lat="53.654768988490105" lon="12.027078028768301">
        <ele>31.379999999999999</ele>
        <time>2024-09-14T08:10:21Z</time>
      </trkpt>
      <trkpt lat="53.654663963243365" lon="12.027359995990992">
        <ele>31.379999999999999</ele>
        <time>2024-09-14T08:10:22Z</time>
      </trkpt>
      <trkpt lat="53.654546029865742" lon="12.027642969042063">
        <ele>31.379999999999999</ele>
        <time>2024-09-14T08:10:23Z</time>
      </trkpt>
      <trkpt lat="53.6541130207479" lon="12.028483003377914">
        <ele>32.340000000000003</ele>
        <time>2024-09-14T08:10:26Z</time>
      </trkpt>
      <trkpt lat="53.652885993942618" lon="12.030946025624871">
        <ele>42.920000000000002</ele>
        <time>2024-09-14T08:10:34Z</time>
      </trkpt>
      <trkpt lat="53.651167033240199" lon="12.034559966996312">
        <ele>48.200000000000003</ele>
        <time>2024-09-14T08:10:45Z</time>
      </trkpt>
      <trkpt lat="53.650191966444254" lon="12.036973033100367">
        <ele>49.649999999999999</ele>
        <time>2024-09-14T08:10:52Z</time>
      </trkpt>
      <trkpt lat="53.649370959028602" lon="12.039579972624779">
        <ele>46.759999999999998</ele>
        <time>2024-09-14T08:10:59Z</time>
      </trkpt>
      <trkpt lat="53.648392036557198" lon="12.043160973116755">
        <ele>43.399999999999999</ele>
        <time>2024-09-14T08:11:09Z</time>
      </trkpt>
      <trkpt lat="53.64771100692451" lon="12.046203017234802">
        <ele>41.950000000000003</ele>
        <time>2024-09-14T08:11:17Z</time>
      </trkpt>
      <trkpt lat="53.647114969789982" lon="12.049112962558866">
        <ele>40.990000000000002</ele>
        <time>2024-09-14T08:11:25Z</time>
      </trkpt>
      <trkpt lat="53.646821016445756" lon="12.050636960193515">
        <ele>41.950000000000003</ele>
        <time>2024-09-14T08:11:31Z</time>
      </trkpt>
      <trkpt lat="53.646640973165631" lon="12.051576990634203">
        <ele>42.920000000000002</ele>
        <time>2024-09-14T08:11:35Z</time>
      </trkpt>
      <trkpt lat="53.646583976224065" lon="12.052077976986766">
        <ele>43.399999999999999</ele>
        <time>2024-09-14T08:11:37Z</time>
      </trkpt>
      <trkpt lat="53.646583976224065" lon="12.052334966138005">
        <ele>42.439999999999998</ele>
        <time>2024-09-14T08:11:38Z</time>
      </trkpt>
      <trkpt lat="53.646583976224065" lon="12.053622007369995">
        <ele>40.509999999999998</ele>
        <time>2024-09-14T08:11:43Z</time>
      </trkpt>
      <trkpt lat="53.646580958738923" lon="12.053878996521235">
        <ele>40.509999999999998</ele>
        <time>2024-09-14T08:11:44Z</time>
      </trkpt>
      <trkpt lat="53.646513987332582" lon="12.054098015651107">
        <ele>40.030000000000001</ele>
        <time>2024-09-14T08:11:45Z</time>
      </trkpt>
      <trkpt lat="53.646407034248114" lon="12.054308988153934">
        <ele>40.030000000000001</ele>
        <time>2024-09-14T08:11:46Z</time>
      </trkpt>
      <trkpt lat="53.646290022879839" lon="12.054518032819033">
        <ele>40.030000000000001</ele>
        <time>2024-09-14T08:11:47Z</time>
      </trkpt>
      <trkpt lat="53.6461659707129" lon="12.054738979786634">
        <ele>40.030000000000001</ele>
        <time>2024-09-14T08:11:48Z</time>
      </trkpt>
      <trkpt lat="53.645208002999425" lon="12.056536981835961">
        <ele>36.670000000000002</ele>
        <time>2024-09-14T08:11:57Z</time>
      </trkpt>
      <trkpt lat="53.644320024177432" lon="12.058789031580091">
        <ele>30.899999999999999</ele>
        <time>2024-09-14T08:12:06Z</time>
      </trkpt>
      <trkpt lat="53.643849967047572" lon="12.059872979298234">
        <ele>29.940000000000001</ele>
        <time>2024-09-14T08:12:10Z</time>
      </trkpt>
      <trkpt lat="53.643699008971453" lon="12.060110019519925">
        <ele>29.460000000000001</ele>
        <time>2024-09-14T08:12:11Z</time>
      </trkpt>
      <trkpt lat="53.643532041460276" lon="12.060295008122921">
        <ele>29.460000000000001</ele>
        <time>2024-09-14T08:12:12Z</time>
      </trkpt>
      <trkpt lat="53.643359038978815" lon="12.060476979240775">
        <ele>29.460000000000001</ele>
        <time>2024-09-14T08:12:13Z</time>
      </trkpt>
      <trkpt lat="53.643168015405536" lon="12.06061796285212">
        <ele>29.460000000000001</ele>
        <time>2024-09-14T08:12:14Z</time>
      </trkpt>
      <trkpt lat="53.642971962690353" lon="12.060761963948607">
        <ele>29.460000000000001</ele>
        <time>2024-09-14T08:12:15Z</time>
      </trkpt>
      <trkpt lat="53.640436017885804" lon="12.062672032043338">
        <ele>28.5</ele>
        <time>2024-09-14T08:12:27Z</time>
      </trkpt>
      <trkpt lat="53.637883979827166" lon="12.064612023532391">
        <ele>34.259999999999998</ele>
        <time>2024-09-14T08:12:39Z</time>
      </trkpt>
      <trkpt lat="53.636010037735105" lon="12.066014986485243">
        <ele>33.780000000000001</ele>
        <time>2024-09-14T08:12:48Z</time>
      </trkpt>
      <trkpt lat="53.635362032800913" lon="12.066514967009425">
        <ele>32.82</ele>
        <time>2024-09-14T08:12:51Z</time>
      </trkpt>
      <trkpt lat="53.635147036984563" lon="12.066680006682873">
        <ele>32.340000000000003</ele>
        <time>2024-09-14T08:12:52Z</time>
      </trkpt>
      <trkpt lat="53.63372303545475" lon="12.068094033747911">
        <ele>27.050000000000001</ele>
        <time>2024-09-14T08:12:59Z</time>
      </trkpt>
      <trkpt lat="53.632030980661511" lon="12.07026100717485">
        <ele>20.32</ele>
        <time>2024-09-14T08:13:08Z</time>
      </trkpt>
      <trkpt lat="53.630232978612185" lon="12.072580028325319">
        <ele>18.879999999999999</ele>
        <time>2024-09-14T08:13:18Z</time>
      </trkpt>
      <trkpt lat="53.628431959077716" lon="12.074396973475814">
        <ele>20.809999999999999</ele>
        <time>2024-09-14T08:13:27Z</time>
      </trkpt>
      <trkpt lat="53.626063987612724" lon="12.0759760402143">
        <ele>27.530000000000001</ele>
        <time>2024-09-14T08:13:38Z</time>
      </trkpt>
      <trkpt lat="53.625419000163674" lon="12.076415000483394">
        <ele>29.940000000000001</ele>
        <time>2024-09-14T08:13:43Z</time>
      </trkpt>
      <trkpt lat="53.624214017763734" lon="12.077214969322085">
        <ele>33.780000000000001</ele>
        <time>2024-09-14T08:13:54Z</time>
      </trkpt>
      <trkpt lat="53.622753974050283" lon="12.078214008361101">
        <ele>33.780000000000001</ele>
        <time>2024-09-14T08:14:07Z</time>
      </trkpt>
      <trkpt lat="53.621639013290405" lon="12.078967960551381">
        <ele>32.82</ele>
        <time>2024-09-14T08:14:17Z</time>
      </trkpt>
      <trkpt lat="53.621418988332152" lon="12.079145992174745">
        <ele>31.859999999999999</ele>
        <time>2024-09-14T08:14:19Z</time>
      </trkpt>
      <trkpt lat="53.621325027197599" lon="12.079255040735006">
        <ele>31.379999999999999</ele>
        <time>2024-09-14T08:14:20Z</time>
      </trkpt>
      <trkpt lat="53.621237017214298" lon="12.079371968284249">
        <ele>30.899999999999999</ele>
        <time>2024-09-14T08:14:21Z</time>
      </trkpt>
      <trkpt lat="53.621159987524152" lon="12.079526027664542">
        <ele>30.420000000000002</ele>
        <time>2024-09-14T08:14:22Z</time>
      </trkpt>
      <trkpt lat="53.621083041653037" lon="12.079680003225803">
        <ele>29.940000000000001</ele>
        <time>2024-09-14T08:14:23Z</time>
      </trkpt>
      <trkpt lat="53.620702000334859" lon="12.080692034214735">
        <ele>29.940000000000001</ele>
        <time>2024-09-14T08:14:29Z</time>
      </trkpt>
      <trkpt lat="53.62064098007977" lon="12.080865036696196">
        <ele>29.940000000000001</ele>
        <time>2024-09-14T08:14:30Z</time>
      </trkpt>
      <trkpt lat="53.619969002902508" lon="12.082774015143514">
        <ele>31.379999999999999</ele>
        <time>2024-09-14T08:14:41Z</time>
      </trkpt>
      <trkpt lat="53.619377994909883" lon="12.084801010787487">
        <ele>30.899999999999999</ele>
        <time>2024-09-14T08:14:51Z</time>
      </trkpt>
      <trkpt lat="53.618941968306899" lon="12.087399987503886">
        <ele>31.859999999999999</ele>
        <time>2024-09-14T08:14:59Z</time>
      </trkpt>
      <trkpt lat="53.618517005816102" lon="12.090149000287056">
        <ele>32.340000000000003</ele>
        <time>2024-09-14T08:15:06Z</time>
      </trkpt>
      <trkpt lat="53.617945024743676" lon="12.093812981620431">
        <ele>32.82</ele>
        <time>2024-09-14T08:15:16Z</time>
      </trkpt>
      <trkpt lat="53.617789037525654" lon="12.094680005684495">
        <ele>32.82</ele>
        <time>2024-09-14T08:15:19Z</time>
      </trkpt>
      <trkpt lat="53.617713013663888" lon="12.094953004270792">
        <ele>33.299999999999997</ele>
        <time>2024-09-14T08:15:20Z</time>
      </trkpt>
      <trkpt lat="53.617623997852206" lon="12.095213010907173">
        <ele>33.780000000000001</ele>
        <time>2024-09-14T08:15:21Z</time>
      </trkpt>
      <trkpt lat="53.616874990984797" lon="12.096568029373884">
        <ele>38.109999999999999</ele>
        <time>2024-09-14T08:15:28Z</time>
      </trkpt>
      <trkpt lat="53.616281971335411" lon="12.097566984593868">
        <ele>38.109999999999999</ele>
        <time>2024-09-14T08:15:36Z</time>
      </trkpt>
      <trkpt lat="53.616242995485663" lon="12.097634039819241">
        <ele>38.109999999999999</ele>
        <time>2024-09-14T08:15:37Z</time>
      </trkpt>
      <trkpt lat="53.616230003535748" lon="12.09780503064394">
        <ele>37.630000000000003</ele>
        <time>2024-09-14T08:15:38Z</time>
      </trkpt>
      <trkpt lat="53.616265039891005" lon="12.097917012870312">
        <ele>37.630000000000003</ele>
        <time>2024-09-14T08:15:39Z</time>
      </trkpt>
      <trkpt lat="53.616322036832571" lon="12.09806302562356">
        <ele>37.630000000000003</ele>
        <time>2024-09-14T08:15:40Z</time>
      </trkpt>
      <trkpt lat="53.616392025724053" lon="12.098210966214538">
        <ele>37.630000000000003</ele>
        <time>2024-09-14T08:15:41Z</time>
      </trkpt>
      <trkpt lat="53.617056962102652" lon="12.099616024643183">
        <ele>38.590000000000003</ele>
        <time>2024-09-14T08:15:48Z</time>
      </trkpt>
      <trkpt lat="53.617702033370733" lon="12.101128036156297">
        <ele>39.549999999999997</ele>
        <time>2024-09-14T08:15:55Z</time>
      </trkpt>
      <trkpt lat="53.617745032534003" lon="12.101332973688841">
        <ele>39.549999999999997</ele>
        <time>2024-09-14T08:15:56Z</time>
      </trkpt>
      <trkpt lat="53.617745032534003" lon="12.101572025567293">
        <ele>39.549999999999997</ele>
        <time>2024-09-14T08:15:57Z</time>
      </trkpt>
      <trkpt lat="53.617745032534003" lon="12.101848041638732">
        <ele>39.549999999999997</ele>
        <time>2024-09-14T08:15:58Z</time>
      </trkpt>
      <trkpt lat="53.617715025320649" lon="12.10206001996994">
        <ele>39.07</ele>
        <time>2024-09-14T08:15:59Z</time>
      </trkpt>
      <trkpt lat="53.617444960400462" lon="12.104040998965502">
        <ele>37.630000000000003</ele>
        <time>2024-09-14T08:16:06Z</time>
      </trkpt>
      <trkpt lat="53.617406990379095" lon="12.104581966996193">
        <ele>37.149999999999999</ele>
        <time>2024-09-14T08:16:08Z</time>
      </trkpt>
      <trkpt lat="53.617433980107307" lon="12.104834010824561">
        <ele>37.149999999999999</ele>
        <time>2024-09-14T08:16:09Z</time>
      </trkpt>
      <trkpt lat="53.617512015625834" lon="12.105333991348743">
        <ele>36.189999999999998</ele>
        <time>2024-09-14T08:16:11Z</time>
      </trkpt>
      <trkpt lat="53.617569012567401" lon="12.105587041005492">
        <ele>35.710000000000001</ele>
        <time>2024-09-14T08:16:12Z</time>
      </trkpt>
      <trkpt lat="53.617871012538671" lon="12.106956979259849">
        <ele>34.259999999999998</ele>
        <time>2024-09-14T08:16:17Z</time>
      </trkpt>
      <trkpt lat="53.617915017530322" lon="12.107210028916597">
        <ele>34.259999999999998</ele>
        <time>2024-09-14T08:16:18Z</time>
      </trkpt>
      <trkpt lat="53.617960028350353" lon="12.107470035552979">
        <ele>34.259999999999998</ele>
        <time>2024-09-14T08:16:19Z</time>
      </trkpt>
      <trkpt lat="53.617938989773393" lon="12.107716966420412">
        <ele>34.259999999999998</ele>
        <time>2024-09-14T08:16:20Z</time>
      </trkpt>
      <trkpt lat="53.617915017530322" lon="12.10799097083509">
        <ele>34.740000000000002</ele>
        <time>2024-09-14T08:16:21Z</time>
      </trkpt>
      <trkpt lat="53.617882998660207" lon="12.108274027705193">
        <ele>34.740000000000002</ele>
        <time>2024-09-14T08:16:22Z</time>
      </trkpt>
      <trkpt lat="53.617818038910627" lon="12.108562029898167">
        <ele>35.229999999999997</ele>
        <time>2024-09-14T08:16:23Z</time>
      </trkpt>
      <trkpt lat="53.617217978462577" lon="12.110926983878016">
        <ele>37.630000000000003</ele>
        <time>2024-09-14T08:16:31Z</time>
      </trkpt>
      <trkpt lat="53.616322036832571" lon="12.113293027505279">
        <ele>40.030000000000001</ele>
        <time>2024-09-14T08:16:40Z</time>
      </trkpt>
      <trkpt lat="53.615552997216582" lon="12.115364028140903">
        <ele>42.920000000000002</ele>
        <time>2024-09-14T08:16:48Z</time>
      </trkpt>
      <trkpt lat="53.614656971767545" lon="12.117995023727417">
        <ele>44.359999999999999</ele>
        <time>2024-09-14T08:16:57Z</time>
      </trkpt>
      <trkpt lat="53.614572985097766" lon="12.118305992335081">
        <ele>44.359999999999999</ele>
        <time>2024-09-14T08:16:58Z</time>
      </trkpt>
      <trkpt lat="53.614511964842677" lon="12.118627019226551">
        <ele>44.359999999999999</ele>
        <time>2024-09-14T08:16:59Z</time>
      </trkpt>
      <trkpt lat="53.614249024540186" lon="12.121403021737933">
        <ele>42.439999999999998</ele>
        <time>2024-09-14T08:17:07Z</time>
      </trkpt>
      <trkpt lat="53.614078033715487" lon="12.123756995424628">
        <ele>40.990000000000002</ele>
        <time>2024-09-14T08:17:14Z</time>
      </trkpt>
      <trkpt lat="53.614059006795287" lon="12.124228980392218">
        <ele>41.469999999999999</ele>
        <time>2024-09-14T08:17:16Z</time>
      </trkpt>
      <trkpt lat="53.614053977653384" lon="12.124426038935781">
        <ele>41.469999999999999</ele>
        <time>2024-09-14T08:17:17Z</time>
      </trkpt>
      <trkpt lat="53.614149028435349" lon="12.126396959647536">
        <ele>44.359999999999999</ele>
        <time>2024-09-14T08:17:28Z</time>
      </trkpt>
      <trkpt lat="53.614180041477084" lon="12.127038007602096">
        <ele>45.799999999999997</ele>
        <time>2024-09-14T08:17:32Z</time>
      </trkpt>
      <trkpt lat="53.614233015105128" lon="12.12717798538506">
        <ele>46.280000000000001</ele>
        <time>2024-09-14T08:17:33Z</time>
      </trkpt>
      <trkpt lat="53.614305015653372" lon="12.127287033945322">
        <ele>46.759999999999998</ele>
        <time>2024-09-14T08:17:34Z</time>
      </trkpt>
      <trkpt lat="53.61440802924335" lon="12.127364985644817">
        <ele>47.240000000000002</ele>
        <time>2024-09-14T08:17:35Z</time>
      </trkpt>
      <trkpt lat="53.614522023126483" lon="12.1274349745363">
        <ele>47.719999999999999</ele>
        <time>2024-09-14T08:17:36Z</time>
      </trkpt>
      <trkpt lat="53.614649008959532" lon="12.127501023933291">
        <ele>48.200000000000003</ele>
        <time>2024-09-14T08:17:37Z</time>
      </trkpt>
      <trkpt lat="53.615703033283353" lon="12.128103012219071">
        <ele>49.159999999999997</ele>
        <time>2024-09-14T08:17:44Z</time>
      </trkpt>
      <trkpt lat="53.615832030773163" lon="12.128256987780333">
        <ele>49.159999999999997</ele>
        <time>2024-09-14T08:17:45Z</time>
      </trkpt>
      <trkpt lat="53.615958010777831" lon="12.128406018018723">
        <ele>49.649999999999999</ele>
        <time>2024-09-14T08:17:46Z</time>
      </trkpt>
      <trkpt lat="53.61602196469903" lon="12.128591006621718">
        <ele>50.130000000000003</ele>
        <time>2024-09-14T08:17:47Z</time>
      </trkpt>
      <trkpt lat="53.616331005468965" lon="12.13033402338624">
        <ele>52.049999999999997</ele>
        <time>2024-09-14T08:17:53Z</time>
      </trkpt>
      <trkpt lat="53.616720009595156" lon="12.13340800255537">
        <ele>53.490000000000002</ele>
        <time>2024-09-14T08:18:02Z</time>
      </trkpt>
      <trkpt lat="53.617142038419843" lon="12.136610979214311">
        <ele>53.009999999999998</ele>
        <time>2024-09-14T08:18:11Z</time>
      </trkpt>
      <trkpt lat="53.617666997015476" lon="12.140600010752678">
        <ele>52.530000000000001</ele>
        <time>2024-09-14T08:18:22Z</time>
      </trkpt>
      <trkpt lat="53.618166977539659" lon="12.144550988450646">
        <ele>50.130000000000003</ele>
        <time>2024-09-14T08:18:32Z</time>
      </trkpt>
      <trkpt lat="53.618535026907921" lon="12.147462023422122">
        <ele>49.159999999999997</ele>
        <time>2024-09-14T08:18:40Z</time>
      </trkpt>
      <trkpt lat="53.618627982214093" lon="12.149996040388942">
        <ele>49.159999999999997</ele>
        <time>2024-09-14T08:18:47Z</time>
      </trkpt>
      <trkpt lat="53.618696965277195" lon="12.15321796014905">
        <ele>50.130000000000003</ele>
        <time>2024-09-14T08:18:55Z</time>
      </trkpt>
      <trkpt lat="53.618750022724271" lon="12.155705960467458">
        <ele>52.530000000000001</ele>
        <time>2024-09-14T08:19:01Z</time>
      </trkpt>
      <trkpt lat="53.618824034929276" lon="12.159158969298005">
        <ele>58.780000000000001</ele>
        <time>2024-09-14T08:19:10Z</time>
      </trkpt>
      <trkpt lat="53.618887988850474" lon="12.16217402368784">
        <ele>63.579999999999998</ele>
        <time>2024-09-14T08:19:18Z</time>
      </trkpt>
      <trkpt lat="53.618992008268833" lon="12.166403029114008">
        <ele>63.579999999999998</ele>
        <time>2024-09-14T08:19:29Z</time>
      </trkpt>
      <trkpt lat="53.619030984118581" lon="12.168679973110557">
        <ele>64.069999999999993</ele>
        <time>2024-09-14T08:19:35Z</time>
      </trkpt>
      <trkpt lat="53.618996031582355" lon="12.16905003413558">
        <ele>64.549999999999997</ele>
        <time>2024-09-14T08:19:36Z</time>
      </trkpt>
      <trkpt lat="53.618950014933944" lon="12.169429985806346">
        <ele>65.030000000000001</ele>
        <time>2024-09-14T08:19:37Z</time>
      </trkpt>
      <trkpt lat="53.618681039661169" lon="12.172227026894689">
        <ele>66.950000000000003</ele>
        <time>2024-09-14T08:19:44Z</time>
      </trkpt>
      <trkpt lat="53.618347020819783" lon="12.176523003727198">
        <ele>67.909999999999997</ele>
        <time>2024-09-14T08:19:55Z</time>
      </trkpt>
      <trkpt lat="53.618115009739995" lon="12.179526994004846">
        <ele>69.829999999999998</ele>
        <time>2024-09-14T08:20:03Z</time>
      </trkpt>
      <trkpt lat="53.617890039458871" lon="12.18243601731956">
        <ele>72.239999999999995</ele>
        <time>2024-09-14T08:20:11Z</time>
      </trkpt>
      <trkpt lat="53.617642018944025" lon="12.185652991756797">
        <ele>70.310000000000002</ele>
        <time>2024-09-14T08:20:20Z</time>
      </trkpt>
      <trkpt lat="53.617303976789117" lon="12.190017029643059">
        <ele>65.989999999999995</ele>
        <time>2024-09-14T08:20:31Z</time>
      </trkpt>
      <trkpt lat="53.617045981809497" lon="12.193365013226867">
        <ele>65.989999999999995</ele>
        <time>2024-09-14T08:20:40Z</time>
      </trkpt>
      <trkpt lat="53.616853030398488" lon="12.19597396440804">
        <ele>66.469999999999999</ele>
        <time>2024-09-14T08:20:47Z</time>
      </trkpt>
      <trkpt lat="53.616701988503337" lon="12.197266034781933">
        <ele>67.430000000000007</ele>
        <time>2024-09-14T08:20:51Z</time>
      </trkpt>
      <trkpt lat="53.616602998226881" lon="12.197532998397946">
        <ele>67.909999999999997</ele>
        <time>2024-09-14T08:20:52Z</time>
      </trkpt>
      <trkpt lat="53.616489004343748" lon="12.197808008641005">
        <ele>68.390000000000001</ele>
        <time>2024-09-14T08:20:53Z</time>
      </trkpt>
      <trkpt lat="53.615388963371515" lon="12.199640041217208">
        <ele>69.829999999999998</ele>
        <time>2024-09-14T08:21:00Z</time>
      </trkpt>
      <trkpt lat="53.613941995427012" lon="12.202079007402062">
        <ele>70.790000000000006</ele>
        <time>2024-09-14T08:21:09Z</time>
      </trkpt>
      <trkpt lat="53.613472022116184" lon="12.202967992052436">
        <ele>70.310000000000002</ele>
        <time>2024-09-14T08:21:12Z</time>
      </trkpt>
      <trkpt lat="53.61258496530354" lon="12.205435037612915">
        <ele>70.310000000000002</ele>
        <time>2024-09-14T08:21:19Z</time>
      </trkpt>
      <trkpt lat="53.611772004514933" lon="12.207711981609464">
        <ele>72.719999999999999</ele>
        <time>2024-09-14T08:21:26Z</time>
      </trkpt>
      <trkpt lat="53.611381994560361" lon="12.208811016753316">
        <ele>75.599999999999994</ele>
        <time>2024-09-14T08:21:30Z</time>
      </trkpt>
      <trkpt lat="53.611270012333989" lon="12.209318038076162">
        <ele>77.040000000000006</ele>
        <time>2024-09-14T08:21:32Z</time>
      </trkpt>
      <trkpt lat="53.611230030655861" lon="12.209586007520556">
        <ele>77.519999999999996</ele>
        <time>2024-09-14T08:21:33Z</time>
      </trkpt>
      <trkpt lat="53.611201029270887" lon="12.209878033027053">
        <ele>78</ele>
        <time>2024-09-14T08:21:34Z</time>
      </trkpt>
      <trkpt lat="53.611203962936997" lon="12.210205011069775">
        <ele>78.480000000000004</ele>
        <time>2024-09-14T08:21:35Z</time>
      </trkpt>
      <trkpt lat="53.611206980422139" lon="12.210568031296134">
        <ele>78.969999999999999</ele>
        <time>2024-09-14T08:21:36Z</time>
      </trkpt>
      <trkpt lat="53.611225001513958" lon="12.212255978956819">
        <ele>81.370000000000005</ele>
        <time>2024-09-14T08:21:40Z</time>
      </trkpt>
      <trkpt lat="53.611298007890582" lon="12.21545803360641">
        <ele>90.980000000000004</ele>
        <time>2024-09-14T08:21:48Z</time>
      </trkpt>
      <trkpt lat="53.611363973468542" lon="12.218506028875709">
        <ele>99.150000000000006</ele>
        <time>2024-09-14T08:21:56Z</time>
      </trkpt>
      <trkpt lat="53.611421976238489" lon="12.221670029684901">
        <ele>103</ele>
        <time>2024-09-14T08:22:04Z</time>
      </trkpt>
      <trkpt lat="53.611399009823799" lon="12.224685000255704">
        <ele>96.75</ele>
        <time>2024-09-14T08:22:12Z</time>
      </trkpt>
      <trkpt lat="53.611097009852529" lon="12.226884998381138">
        <ele>88.099999999999994</ele>
        <time>2024-09-14T08:22:18Z</time>
      </trkpt>
      <trkpt lat="53.610959965735674" lon="12.229376016184688">
        <ele>79.930000000000007</ele>
        <time>2024-09-14T08:22:25Z</time>
      </trkpt>
      <trkpt lat="53.611048981547356" lon="12.23243398591876">
        <ele>78</ele>
        <time>2024-09-14T08:22:34Z</time>
      </trkpt>
      <trkpt lat="53.611144032329321" lon="12.23312197253108">
        <ele>77.040000000000006</ele>
        <time>2024-09-14T08:22:36Z</time>
      </trkpt>
      <trkpt lat="53.611913993954659" lon="12.23694697022438">
        <ele>74.159999999999997</ele>
        <time>2024-09-14T08:22:47Z</time>
      </trkpt>
      <trkpt lat="53.612285982817411" lon="12.238844968378544">
        <ele>74.159999999999997</ele>
        <time>2024-09-14T08:22:54Z</time>
      </trkpt>
      <trkpt lat="53.612707005813718" lon="12.24117798730731">
        <ele>70.790000000000006</ele>
        <time>2024-09-14T08:23:05Z</time>
      </trkpt>
      <trkpt lat="53.613126017153263" lon="12.243528021499515">
        <ele>67.430000000000007</ele>
        <time>2024-09-14T08:23:14Z</time>
      </trkpt>
      <trkpt lat="53.613200029358268" lon="12.243741005659103">
        <ele>66.469999999999999</ele>
        <time>2024-09-14T08:23:15Z</time>
      </trkpt>
      <trkpt lat="53.613282004371285" lon="12.243962036445737">
        <ele>65.030000000000001</ele>
        <time>2024-09-14T08:23:16Z</time>
      </trkpt>
      <trkpt lat="53.613405972719193" lon="12.244123974815011">
        <ele>64.069999999999993</ele>
        <time>2024-09-14T08:23:17Z</time>
      </trkpt>
      <trkpt lat="53.613535976037383" lon="12.24429395981133">
        <ele>62.619999999999997</ele>
        <time>2024-09-14T08:23:18Z</time>
      </trkpt>
      <trkpt lat="53.613685006275773" lon="12.244398985058069">
        <ele>61.18</ele>
        <time>2024-09-14T08:23:19Z</time>
      </trkpt>
      <trkpt lat="53.613836970180273" lon="12.24448699504137">
        <ele>60.219999999999999</ele>
        <time>2024-09-14T08:23:20Z</time>
      </trkpt>
      <trkpt lat="53.613991029560566" lon="12.244581039994955">
        <ele>59.259999999999998</ele>
        <time>2024-09-14T08:23:21Z</time>
      </trkpt>
      <trkpt lat="53.614134024828672" lon="12.244692016392946">
        <ele>57.82</ele>
        <time>2024-09-14T08:23:22Z</time>
      </trkpt>
      <trkpt lat="53.614280959591269" lon="12.244806010276079">
        <ele>56.859999999999999</ele>
        <time>2024-09-14T08:23:23Z</time>
      </trkpt>
      <trkpt lat="53.614869033917785" lon="12.245275983586907">
        <ele>53.969999999999999</ele>
        <time>2024-09-14T08:23:27Z</time>
      </trkpt>
      <trkpt lat="53.615360967814922" lon="12.24579700268805">
        <ele>52.049999999999997</ele>
        <time>2024-09-14T08:23:31Z</time>
      </trkpt>
      <trkpt lat="53.615466998890042" lon="12.246002024039626">
        <ele>52.049999999999997</ele>
        <time>2024-09-14T08:23:32Z</time>
      </trkpt>
      <trkpt lat="53.615577975288033" lon="12.246215008199215">
        <ele>52.049999999999997</ele>
        <time>2024-09-14T08:23:33Z</time>
      </trkpt>
      <trkpt lat="53.615660034120083" lon="12.246468979865313">
        <ele>51.57</ele>
        <time>2024-09-14T08:23:34Z</time>
      </trkpt>
      <trkpt lat="53.615739997476339" lon="12.246717000380158">
        <ele>51.57</ele>
        <time>2024-09-14T08:23:35Z</time>
      </trkpt>
      <trkpt lat="53.616033028811216" lon="12.24762199446559">
        <ele>49.649999999999999</ele>
        <time>2024-09-14T08:23:39Z</time>
      </trkpt>
      <trkpt lat="53.616079967468977" lon="12.247844031080604">
        <ele>49.159999999999997</ele>
        <time>2024-09-14T08:23:40Z</time>
      </trkpt>
      <trkpt lat="53.616101006045938" lon="12.248091967776418">
        <ele>49.159999999999997</ele>
        <time>2024-09-14T08:23:41Z</time>
      </trkpt>
      <trkpt lat="53.61610502935946" lon="12.248352980241179">
        <ele>49.159999999999997</ele>
        <time>2024-09-14T08:23:42Z</time>
      </trkpt>
      <trkpt lat="53.616070998832583" lon="12.248725974932313">
        <ele>49.159999999999997</ele>
        <time>2024-09-14T08:23:43Z</time>
      </trkpt>
      <trkpt lat="53.616038979962468" lon="12.248913981020451">
        <ele>49.159999999999997</ele>
        <time>2024-09-14T08:23:44Z</time>
      </trkpt>
      <trkpt lat="53.615992963314056" lon="12.249180022627115">
        <ele>49.159999999999997</ele>
        <time>2024-09-14T08:23:45Z</time>
      </trkpt>
      <trkpt lat="53.615742009133101" lon="12.250672001391649">
        <ele>51.57</ele>
        <time>2024-09-14T08:23:52Z</time>
      </trkpt>
      <trkpt lat="53.615707978606224" lon="12.250841986387968">
        <ele>52.049999999999997</ele>
        <time>2024-09-14T08:23:53Z</time>
      </trkpt>
      <trkpt lat="53.615678977221251" lon="12.250987999141216">
        <ele>52.049999999999997</ele>
        <time>2024-09-14T08:23:54Z</time>
      </trkpt>
      <trkpt lat="53.615653999149799" lon="12.251113979145885">
        <ele>52.049999999999997</ele>
        <time>2024-09-14T08:23:55Z</time>
      </trkpt>
      <trkpt lat="53.615642013028264" lon="12.251207018271089">
        <ele>52.049999999999997</ele>
        <time>2024-09-14T08:23:56Z</time>
      </trkpt>
      <trkpt lat="53.615642013028264" lon="12.251270972192287">
        <ele>52.049999999999997</ele>
        <time>2024-09-14T08:23:57Z</time>
      </trkpt>
      <trkpt lat="53.615669002756476" lon="12.251521004363894">
        <ele>51.090000000000003</ele>
        <time>2024-09-14T08:24:01Z</time>
      </trkpt>
      <trkpt lat="53.615737985819578" lon="12.251537013798952">
        <ele>51.090000000000003</ele>
        <time>2024-09-14T08:24:02Z</time>
      </trkpt>
      <trkpt lat="53.615834964439273" lon="12.251557968556881">
        <ele>51.090000000000003</ele>
        <time>2024-09-14T08:24:03Z</time>
      </trkpt>
      <trkpt lat="53.615922974422574" lon="12.2515759896487">
        <ele>51.090000000000003</ele>
        <time>2024-09-14T08:24:04Z</time>
      </trkpt>
      <trkpt lat="53.616031017154455" lon="12.251598034054041">
        <ele>51.090000000000003</ele>
        <time>2024-09-14T08:24:05Z</time>
      </trkpt>
      <trkpt lat="53.616160014644265" lon="12.251623012125492">
        <ele>51.090000000000003</ele>
        <time>2024-09-14T08:24:06Z</time>
      </trkpt>
      <trkpt lat="53.616304015740752" lon="12.251652013510466">
        <ele>51.57</ele>
        <time>2024-09-14T08:24:07Z</time>
      </trkpt>
      <trkpt lat="53.617572030052543" lon="12.251924006268382">
        <ele>51.090000000000003</ele>
        <time>2024-09-14T08:24:14Z</time>
      </trkpt>
      <trkpt lat="53.619448989629745" lon="12.252322984859347">
        <ele>45.799999999999997</ele>
        <time>2024-09-14T08:24:22Z</time>
      </trkpt>
      <trkpt lat="53.621781002730131" lon="12.252810979261994">
        <ele>39.549999999999997</ele>
        <time>2024-09-14T08:24:32Z</time>
      </trkpt>
      <trkpt lat="53.623527036979795" lon="12.253180034458637">
        <ele>36.670000000000002</ele>
        <time>2024-09-14T08:24:40Z</time>
      </trkpt>
      <trkpt lat="53.625444984063506" lon="12.253598961979151">
        <ele>39.549999999999997</ele>
        <time>2024-09-14T08:24:48Z</time>
      </trkpt>
      <trkpt lat="53.627413976937532" lon="12.254020990803838">
        <ele>41.469999999999999</ele>
        <time>2024-09-14T08:24:56Z</time>
      </trkpt>
      <trkpt lat="53.629210973158479" lon="12.2543890401721">
        <ele>40.990000000000002</ele>
        <time>2024-09-14T08:25:04Z</time>
      </trkpt>
      <trkpt lat="53.630656013265252" lon="12.254691962152719">
        <ele>39.549999999999997</ele>
        <time>2024-09-14T08:25:10Z</time>
      </trkpt>
      <trkpt lat="53.632691977545619" lon="12.255122037604451">
        <ele>37.630000000000003</ele>
        <time>2024-09-14T08:25:18Z</time>
      </trkpt>
      <trkpt lat="53.635510979220271" lon="12.255723020061851">
        <ele>38.109999999999999</ele>
        <time>2024-09-14T08:25:30Z</time>
      </trkpt>
      <trkpt lat="53.639923967421055" lon="12.256692973896861">
        <ele>44.359999999999999</ele>
        <time>2024-09-14T08:25:49Z</time>
      </trkpt>
      <trkpt lat="53.642114996910095" lon="12.257768958806992">
        <ele>44.359999999999999</ele>
        <time>2024-09-14T08:25:59Z</time>
      </trkpt>
      <trkpt lat="53.64450803026557" lon="12.259313995018601">
        <ele>40.509999999999998</ele>
        <time>2024-09-14T08:26:10Z</time>
      </trkpt>
      <trkpt lat="53.645604969933629" lon="12.260482013225555">
        <ele>40.509999999999998</ele>
        <time>2024-09-14T08:26:15Z</time>
      </trkpt>
      <trkpt lat="53.646839037537575" lon="12.262539016082883">
        <ele>41.469999999999999</ele>
        <time>2024-09-14T08:26:22Z</time>
      </trkpt>
      <trkpt lat="53.647317979484797" lon="12.263492038473487">
        <ele>43.399999999999999</ele>
        <time>2024-09-14T08:26:27Z</time>
      </trkpt>
      <trkpt lat="53.647820977494121" lon="12.264461992308497">
        <ele>43.399999999999999</ele>
        <time>2024-09-14T08:26:34Z</time>
      </trkpt>
      <trkpt lat="53.648891011252999" lon="12.265782980248332">
        <ele>43.399999999999999</ele>
        <time>2024-09-14T08:26:45Z</time>
      </trkpt>
      <trkpt lat="53.649850990623236" lon="12.266590995714068">
        <ele>42.920000000000002</ele>
        <time>2024-09-14T08:26:54Z</time>
      </trkpt>
      <trkpt lat="53.64994796924293" lon="12.266666013747454">
        <ele>42.920000000000002</ele>
        <time>2024-09-14T08:26:55Z</time>
      </trkpt>
      <trkpt lat="53.65035398863256" lon="12.266972959041595">
        <ele>42.439999999999998</ele>
        <time>2024-09-14T08:27:02Z</time>
      </trkpt>
      <trkpt lat="53.650593040511012" lon="12.267146967351437">
        <ele>42.439999999999998</ele>
        <time>2024-09-14T08:27:06Z</time>
      </trkpt>
      <trkpt lat="53.650656994432211" lon="12.267193989828229">
        <ele>42.920000000000002</ele>
        <time>2024-09-14T08:27:07Z</time>
      </trkpt>
      <trkpt lat="53.650713991373777" lon="12.267234977334738">
        <ele>42.439999999999998</ele>
        <time>2024-09-14T08:27:08Z</time>
      </trkpt>
      <trkpt lat="53.650693036615849" lon="12.26736699230969">
        <ele>42.439999999999998</ele>
        <time>2024-09-14T08:27:09Z</time>
      </trkpt>
      <trkpt lat="53.650665041059256" lon="12.267476040869951">
        <ele>42.439999999999998</ele>
        <time>2024-09-14T08:27:10Z</time>
      </trkpt>
      <trkpt lat="53.650627993047237" lon="12.267617024481297">
        <ele>42.439999999999998</ele>
        <time>2024-09-14T08:27:11Z</time>
      </trkpt>
      <trkpt lat="53.650587005540729" lon="12.26777502335608">
        <ele>42.439999999999998</ele>
        <time>2024-09-14T08:27:12Z</time>
      </trkpt>
      <trkpt lat="53.650326998904347" lon="12.268779007717967">
        <ele>42.439999999999998</ele>
        <time>2024-09-14T08:27:18Z</time>
      </trkpt>
      <trkpt lat="53.650280982255936" lon="12.268941029906273">
        <ele>41.950000000000003</ele>
        <time>2024-09-14T08:27:19Z</time>
      </trkpt>
      <trkpt lat="53.650234965607524" lon="12.269101040437818">
        <ele>41.469999999999999</ele>
        <time>2024-09-14T08:27:20Z</time>
      </trkpt>
      <trkpt lat="53.64985903725028" lon="12.270395960658789">
        <ele>39.07</ele>
        <time>2024-09-14T08:27:28Z</time>
      </trkpt>
      <trkpt lat="53.649798016995192" lon="12.270518001168966">
        <ele>39.549999999999997</ele>
        <time>2024-09-14T08:27:29Z</time>
      </trkpt>
      <trkpt lat="53.649721993133426" lon="12.270640041679144">
        <ele>39.549999999999997</ele>
        <time>2024-09-14T08:27:30Z</time>
      </trkpt>
      <trkpt lat="53.64964404143393" lon="12.270767027512193">
        <ele>39.549999999999997</ele>
        <time>2024-09-14T08:27:31Z</time>
      </trkpt>
      <trkpt lat="53.649567011743784" lon="12.27089200168848">
        <ele>39.549999999999997</ele>
        <time>2024-09-14T08:27:32Z</time>
      </trkpt>
      <trkpt lat="53.648919006809592" lon="12.271776963025331">
        <ele>40.030000000000001</ele>
        <time>2024-09-14T08:27:40Z</time>
      </trkpt>
      <trkpt lat="53.648090036585927" lon="12.272971970960498">
        <ele>42.920000000000002</ele>
        <time>2024-09-14T08:27:49Z</time>
      </trkpt>
      <trkpt lat="53.64753901027143" lon="12.273452002555132">
        <ele>45.32</ele>
        <time>2024-09-14T08:27:54Z</time>
      </trkpt>
      <trkpt lat="53.647418981418014" lon="12.273513022810221">
        <ele>45.799999999999997</ele>
        <time>2024-09-14T08:27:55Z</time>
      </trkpt>
      <trkpt lat="53.647304987534881" lon="12.273572031408548">
        <ele>45.799999999999997</ele>
        <time>2024-09-14T08:27:56Z</time>
      </trkpt>
      <trkpt lat="53.645879980176687" lon="12.274346016347408">
        <ele>47.240000000000002</ele>
        <time>2024-09-14T08:28:07Z</time>
      </trkpt>
      <trkpt lat="53.645719969645143" lon="12.274446012452245">
        <ele>47.719999999999999</ele>
        <time>2024-09-14T08:28:08Z</time>
      </trkpt>
      <trkpt lat="53.645569011569023" lon="12.274585990235209">
        <ele>47.240000000000002</ele>
        <time>2024-09-14T08:28:09Z</time>
      </trkpt>
      <trkpt lat="53.645419981330633" lon="12.274776007980108">
        <ele>47.240000000000002</ele>
        <time>2024-09-14T08:28:10Z</time>
      </trkpt>
      <trkpt lat="53.645264999940991" lon="12.274971976876259">
        <ele>46.759999999999998</ele>
        <time>2024-09-14T08:28:11Z</time>
      </trkpt>
      <trkpt lat="53.64511102437973" lon="12.275167023763061">
        <ele>46.280000000000001</ele>
        <time>2024-09-14T08:28:12Z</time>
      </trkpt>
      <trkpt lat="53.644807012751698" lon="12.27555301040411">
        <ele>44.840000000000003</ele>
        <time>2024-09-14T08:28:14Z</time>
      </trkpt>
      <trkpt lat="53.644655970856547" lon="12.275744033977389">
        <ele>44.359999999999999</ele>
        <time>2024-09-14T08:28:15Z</time>
      </trkpt>
      <trkpt lat="53.643365995958447" lon="12.277265014126897">
        <ele>44.359999999999999</ele>
        <time>2024-09-14T08:28:23Z</time>
      </trkpt>
      <trkpt lat="53.643262982368469" lon="12.277553016319871">
        <ele>44.840000000000003</ele>
        <time>2024-09-14T08:28:24Z</time>
      </trkpt>
      <trkpt lat="53.643159968778491" lon="12.277844035997987">
        <ele>45.32</ele>
        <time>2024-09-14T08:28:25Z</time>
      </trkpt>
      <trkpt lat="53.643075982108712" lon="12.278160033747554">
        <ele>45.799999999999997</ele>
        <time>2024-09-14T08:28:26Z</time>
      </trkpt>
      <trkpt lat="53.642998030409217" lon="12.278492962941527">
        <ele>46.280000000000001</ele>
        <time>2024-09-14T08:28:27Z</time>
      </trkpt>
      <trkpt lat="53.642128994688392" lon="12.282069018110633">
        <ele>47.719999999999999</ele>
        <time>2024-09-14T08:28:37Z</time>
      </trkpt>
      <trkpt lat="53.641320979222655" lon="12.285167975351214">
        <ele>45.799999999999997</ele>
        <time>2024-09-14T08:28:46Z</time>
      </trkpt>
      <trkpt lat="53.640532996505499" lon="12.289237976074219">
        <ele>40.990000000000002</ele>
        <time>2024-09-14T08:28:58Z</time>
      </trkpt>
      <trkpt lat="53.64012798294425" lon="12.291852040216327">
        <ele>42.439999999999998</ele>
        <time>2024-09-14T08:29:07Z</time>
      </trkpt>
      <trkpt lat="53.639778960496187" lon="12.29310697875917">
        <ele>40.030000000000001</ele>
        <time>2024-09-14T08:29:12Z</time>
      </trkpt>
      <trkpt lat="53.639561031013727" lon="12.293541999533772">
        <ele>39.07</ele>
        <time>2024-09-14T08:29:14Z</time>
      </trkpt>
      <trkpt lat="53.638400975614786" lon="12.295725988224149">
        <ele>35.710000000000001</ele>
        <time>2024-09-14T08:29:24Z</time>
      </trkpt>
      <trkpt lat="53.637416018173099" lon="12.297434974461794">
        <ele>32.82</ele>
        <time>2024-09-14T08:29:32Z</time>
      </trkpt>
      <trkpt lat="53.637251984328032" lon="12.297547040507197">
        <ele>32.82</ele>
        <time>2024-09-14T08:29:33Z</time>
      </trkpt>
      <trkpt lat="53.637070013210177" lon="12.297606971114874">
        <ele>32.340000000000003</ele>
        <time>2024-09-14T08:29:34Z</time>
      </trkpt>
      <trkpt lat="53.635822031646967" lon="12.297947024926543">
        <ele>30.420000000000002</ele>
        <time>2024-09-14T08:29:40Z</time>
      </trkpt>
      <trkpt lat="53.635125998407602" lon="12.298238966614008">
        <ele>29.460000000000001</ele>
        <time>2024-09-14T08:29:44Z</time>
      </trkpt>
      <trkpt lat="53.634998006746173" lon="12.298405012115836">
        <ele>29.460000000000001</ele>
        <time>2024-09-14T08:29:45Z</time>
      </trkpt>
      <trkpt lat="53.634862974286079" lon="12.298602992668748">
        <ele>29.460000000000001</ele>
        <time>2024-09-14T08:29:46Z</time>
      </trkpt>
      <trkpt lat="53.634750992059708" lon="12.298858975991607">
        <ele>28.98</ele>
        <time>2024-09-14T08:29:47Z</time>
      </trkpt>
      <trkpt lat="53.634644038975239" lon="12.29914496652782">
        <ele>28.5</ele>
        <time>2024-09-14T08:29:48Z</time>
      </trkpt>
      <trkpt lat="53.633962003514171" lon="12.300686985254288">
        <ele>27.050000000000001</ele>
        <time>2024-09-14T08:29:54Z</time>
      </trkpt>
      <trkpt lat="53.633829988539219" lon="12.30088303796947">
        <ele>27.050000000000001</ele>
        <time>2024-09-14T08:29:55Z</time>
      </trkpt>
      <trkpt lat="53.633697973564267" lon="12.301073977723718">
        <ele>27.050000000000001</ele>
        <time>2024-09-14T08:29:56Z</time>
      </trkpt>
      <trkpt lat="53.632016982883215" lon="12.302804002538323">
        <ele>30.899999999999999</ele>
        <time>2024-09-14T08:30:07Z</time>
      </trkpt>
      <trkpt lat="53.631811961531639" lon="12.302962001413107">
        <ele>31.379999999999999</ele>
        <time>2024-09-14T08:30:08Z</time>
      </trkpt>
      <trkpt lat="53.631594032049179" lon="12.303127041086555">
        <ele>32.340000000000003</ele>
        <time>2024-09-14T08:30:09Z</time>
      </trkpt>
      <trkpt lat="53.629824025556445" lon="12.303986018523574">
        <ele>38.109999999999999</ele>
        <time>2024-09-14T08:30:16Z</time>
      </trkpt>
      <trkpt lat="53.629593020305037" lon="12.304229009896517">
        <ele>38.590000000000003</ele>
        <time>2024-09-14T08:30:17Z</time>
      </trkpt>
      <trkpt lat="53.629376012831926" lon="12.304527992382646">
        <ele>39.549999999999997</ele>
        <time>2024-09-14T08:30:18Z</time>
      </trkpt>
      <trkpt lat="53.629167973995209" lon="12.30485999956727">
        <ele>40.030000000000001</ele>
        <time>2024-09-14T08:30:19Z</time>
      </trkpt>
      <trkpt lat="53.628960018977523" lon="12.30520298704505">
        <ele>40.509999999999998</ele>
        <time>2024-09-14T08:30:20Z</time>
      </trkpt>
      <trkpt lat="53.627688987180591" lon="12.307386975735426">
        <ele>43.880000000000003</ele>
        <time>2024-09-14T08:30:27Z</time>
      </trkpt>
      <trkpt lat="53.627550015226007" lon="12.307716971263289">
        <ele>44.359999999999999</ele>
        <time>2024-09-14T08:30:28Z</time>
      </trkpt>
      <trkpt lat="53.627423029392958" lon="12.308045960962772">
        <ele>44.840000000000003</ele>
        <time>2024-09-14T08:30:29Z</time>
      </trkpt>
      <trkpt lat="53.62732102163136" lon="12.308415016159415">
        <ele>45.32</ele>
        <time>2024-09-14T08:30:30Z</time>
      </trkpt>
      <trkpt lat="53.627237034961581" lon="12.30879002250731">
        <ele>45.799999999999997</ele>
        <time>2024-09-14T08:30:31Z</time>
      </trkpt>
      <trkpt lat="53.627165034413338" lon="12.309191012755036">
        <ele>46.280000000000001</ele>
        <time>2024-09-14T08:30:32Z</time>
      </trkpt>
      <trkpt lat="53.627093033865094" lon="12.309593008831143">
        <ele>46.280000000000001</ele>
        <time>2024-09-14T08:30:33Z</time>
      </trkpt>
      <trkpt lat="53.626245958730578" lon="12.314246976748109">
        <ele>49.159999999999997</ele>
        <time>2024-09-14T08:30:45Z</time>
      </trkpt>
      <trkpt lat="53.625252032652497" lon="12.318765996024013">
        <ele>52.530000000000001</ele>
        <time>2024-09-14T08:30:56Z</time>
      </trkpt>
      <trkpt lat="53.624236984178424" lon="12.322401981800795">
        <ele>55.409999999999997</ele>
        <time>2024-09-14T08:31:06Z</time>
      </trkpt>
      <trkpt lat="53.624101029708982" lon="12.32271202839911">
        <ele>55.409999999999997</ele>
        <time>2024-09-14T08:31:07Z</time>
      </trkpt>
      <trkpt lat="53.623844040557742" lon="12.323307981714606">
        <ele>54.93</ele>
        <time>2024-09-14T08:31:09Z</time>
      </trkpt>
      <trkpt lat="53.623727029189467" lon="12.323628002777696">
        <ele>54.450000000000003</ele>
        <time>2024-09-14T08:31:10Z</time>
      </trkpt>
      <trkpt lat="53.623623009771109" lon="12.323947018012404">
        <ele>54.450000000000003</ele>
        <time>2024-09-14T08:31:11Z</time>
      </trkpt>
      <trkpt lat="53.623536005616188" lon="12.324310960248113">
        <ele>54.450000000000003</ele>
        <time>2024-09-14T08:31:12Z</time>
      </trkpt>
      <trkpt lat="53.623447995632887" lon="12.324678003787994">
        <ele>54.450000000000003</ele>
        <time>2024-09-14T08:31:13Z</time>
      </trkpt>
      <trkpt lat="53.623361997306347" lon="12.325035994872451">
        <ele>54.450000000000003</ele>
        <time>2024-09-14T08:31:14Z</time>
      </trkpt>
      <trkpt lat="53.622320964932442" lon="12.329511009156704">
        <ele>51.090000000000003</ele>
        <time>2024-09-14T08:31:27Z</time>
      </trkpt>
      <trkpt lat="53.621962973847985" lon="12.331036012619734">
        <ele>48.68</ele>
        <time>2024-09-14T08:31:34Z</time>
      </trkpt>
      <trkpt lat="53.621844034641981" lon="12.331614028662443">
        <ele>47.719999999999999</ele>
        <time>2024-09-14T08:31:39Z</time>
      </trkpt>
      <trkpt lat="53.621826013550162" lon="12.331702960655093">
        <ele>47.719999999999999</ele>
        <time>2024-09-14T08:31:40Z</time>
      </trkpt>
      <trkpt lat="53.621740015223622" lon="12.33171695843339">
        <ele>47.719999999999999</ele>
        <time>2024-09-14T08:31:41Z</time>
      </trkpt>
      <trkpt lat="53.621669020503759" lon="12.331710001453757">
        <ele>47.240000000000002</ele>
        <time>2024-09-14T08:31:42Z</time>
      </trkpt>
      <trkpt lat="53.621586039662361" lon="12.331702960655093">
        <ele>47.240000000000002</ele>
        <time>2024-09-14T08:31:43Z</time>
      </trkpt>
      <trkpt lat="53.621413959190249" lon="12.331875041127205">
        <ele>47.240000000000002</ele>
        <time>2024-09-14T08:31:44Z</time>
      </trkpt>
      <trkpt lat="53.621321003884077" lon="12.331846039742231">
        <ele>47.719999999999999</ele>
        <time>2024-09-14T08:31:45Z</time>
      </trkpt>
      <trkpt lat="53.620128007605672" lon="12.331486959010363">
        <ele>49.159999999999997</ele>
        <time>2024-09-14T08:31:52Z</time>
      </trkpt>
      <trkpt lat="53.618871979415417" lon="12.331099966540933">
        <ele>50.130000000000003</ele>
        <time>2024-09-14T08:31:59Z</time>
      </trkpt>
      <trkpt lat="53.618140993639827" lon="12.330927969887853">
        <ele>52.530000000000001</ele>
        <time>2024-09-14T08:32:06Z</time>
      </trkpt>
      <trkpt lat="53.618080979213119" lon="12.330962000414729">
        <ele>53.009999999999998</ele>
        <time>2024-09-14T08:32:07Z</time>
      </trkpt>
      <trkpt lat="53.617972014471889" lon="12.330969041213393">
        <ele>53.009999999999998</ele>
        <time>2024-09-14T08:32:09Z</time>
      </trkpt>
      <trkpt lat="53.617920968681574" lon="12.330928975716233">
        <ele>53.490000000000002</ele>
        <time>2024-09-14T08:32:10Z</time>
      </trkpt>
      <trkpt lat="53.617856008931994" lon="12.330840965732932">
        <ele>53.490000000000002</ele>
        <time>2024-09-14T08:32:11Z</time>
      </trkpt>
      <trkpt lat="53.61728897318244" lon="12.329983999952674">
        <ele>53.969999999999999</ele>
        <time>2024-09-14T08:32:18Z</time>
      </trkpt>
      <trkpt lat="53.617234993726015" lon="12.329857014119625">
        <ele>53.969999999999999</ele>
        <time>2024-09-14T08:32:19Z</time>
      </trkpt>
      <trkpt lat="53.617209009826183" lon="12.329659033566713">
        <ele>54.450000000000003</ele>
        <time>2024-09-14T08:32:20Z</time>
      </trkpt>
      <trkpt lat="53.617209009826183" lon="12.329493993893266">
        <ele>54.450000000000003</ele>
        <time>2024-09-14T08:32:21Z</time>
      </trkpt>
      <trkpt lat="53.617209009826183" lon="12.329320991411805">
        <ele>54.450000000000003</ele>
        <time>2024-09-14T08:32:22Z</time>
      </trkpt>
      <trkpt lat="53.617209009826183" lon="12.329158969223499">
        <ele>53.969999999999999</ele>
        <time>2024-09-14T08:32:23Z</time>
      </trkpt>
      <trkpt lat="53.617209009826183" lon="12.328843977302313">
        <ele>53.490000000000002</ele>
        <time>2024-09-14T08:32:25Z</time>
      </trkpt>
      <trkpt lat="53.617209009826183" lon="12.328677009791136">
        <ele>53.490000000000002</ele>
        <time>2024-09-14T08:32:26Z</time>
      </trkpt>
      <trkpt lat="53.617166010662913" lon="12.328483974561095">
        <ele>53.490000000000002</ele>
        <time>2024-09-14T08:32:27Z</time>
      </trkpt>
      <trkpt lat="53.617139020934701" lon="12.32844902202487">
        <ele>53.490000000000002</ele>
        <time>2024-09-14T08:32:28Z</time>
      </trkpt>
      <trkpt lat="53.617050005123019" lon="12.328360006213188">
        <ele>53.009999999999998</ele>
        <time>2024-09-14T08:32:29Z</time>
      </trkpt>
      <trkpt lat="53.616949003189802" lon="12.328284988179803">
        <ele>52.530000000000001</ele>
        <time>2024-09-14T08:32:30Z</time>
      </trkpt>
      <trkpt lat="53.61664499156177" lon="12.328038979321718">
        <ele>51.57</ele>
        <time>2024-09-14T08:32:33Z</time>
      </trkpt>
      <trkpt lat="53.616327987983823" lon="12.327598007395864">
        <ele>51.090000000000003</ele>
        <time>2024-09-14T08:32:37Z</time>
      </trkpt>
      <trkpt lat="53.615605970844626" lon="12.326154978945851">
        <ele>48.68</ele>
        <time>2024-09-14T08:32:47Z</time>
      </trkpt>
      <trkpt lat="53.615405978634953" lon="12.325737979263067">
        <ele>47.719999999999999</ele>
        <time>2024-09-14T08:32:49Z</time>
      </trkpt>
      <trkpt lat="53.614708017557859" lon="12.324205012992024">
        <ele>46.280000000000001</ele>
        <time>2024-09-14T08:32:56Z</time>
      </trkpt>
      <trkpt lat="53.614597963169217" lon="12.323955986648798">
        <ele>46.280000000000001</ele>
        <time>2024-09-14T08:32:57Z</time>
      </trkpt>
      <trkpt lat="53.61389203928411" lon="12.32236803509295">
        <ele>44.840000000000003</ele>
        <time>2024-09-14T08:33:03Z</time>
      </trkpt>
      <trkpt lat="53.613705961033702" lon="12.321837963536382">
        <ele>44.840000000000003</ele>
        <time>2024-09-14T08:33:05Z</time>
      </trkpt>
      <trkpt lat="53.613664973527193" lon="12.321557002142072">
        <ele>44.359999999999999</ele>
        <time>2024-09-14T08:33:06Z</time>
      </trkpt>
      <trkpt lat="53.613631026819348" lon="12.321248967200518">
        <ele>43.880000000000003</ele>
        <time>2024-09-14T08:33:07Z</time>
      </trkpt>
      <trkpt lat="53.613595990464091" lon="12.320924000814557">
        <ele>43.399999999999999</ele>
        <time>2024-09-14T08:33:08Z</time>
      </trkpt>
      <trkpt lat="53.613560032099485" lon="12.320591993629932">
        <ele>43.399999999999999</ele>
        <time>2024-09-14T08:33:09Z</time>
      </trkpt>
      <trkpt lat="53.613470010459423" lon="12.31871603988111">
        <ele>41.950000000000003</ele>
        <time>2024-09-14T08:33:15Z</time>
      </trkpt>
      <trkpt lat="53.613454001024365" lon="12.318485034629703">
        <ele>41.950000000000003</ele>
        <time>2024-09-14T08:33:16Z</time>
      </trkpt>
      <trkpt lat="53.613339001312852" lon="12.318157972767949">
        <ele>41.469999999999999</ele>
        <time>2024-09-14T08:33:17Z</time>
      </trkpt>
      <trkpt lat="53.613302959129214" lon="12.318055965006351">
        <ele>40.990000000000002</ele>
        <time>2024-09-14T08:33:18Z</time>
      </trkpt>
      <trkpt lat="53.613102966919541" lon="12.317736027762294">
        <ele>40.990000000000002</ele>
        <time>2024-09-14T08:33:19Z</time>
      </trkpt>
      <trkpt lat="53.612970029935241" lon="12.317607030272484">
        <ele>40.990000000000002</ele>
        <time>2024-09-14T08:33:20Z</time>
      </trkpt>
      <trkpt lat="53.612823011353612" lon="12.317479960620403">
        <ele>40.509999999999998</ele>
        <time>2024-09-14T08:33:21Z</time>
      </trkpt>
      <trkpt lat="53.612670041620731" lon="12.317351968958974">
        <ele>40.509999999999998</ele>
        <time>2024-09-14T08:33:22Z</time>
      </trkpt>
      <trkpt lat="53.612514976412058" lon="12.317221965640783">
        <ele>40.990000000000002</ele>
        <time>2024-09-14T08:33:23Z</time>
      </trkpt>
      <trkpt lat="53.611433962360024" lon="12.316213035956025">
        <ele>42.920000000000002</ele>
        <time>2024-09-14T08:33:30Z</time>
      </trkpt>
      <trkpt lat="53.611074965447187" lon="12.315570982173085">
        <ele>43.880000000000003</ele>
        <time>2024-09-14T08:33:33Z</time>
      </trkpt>
      <trkpt lat="53.610369963571429" lon="12.313738027587533">
        <ele>45.32</ele>
        <time>2024-09-14T08:33:41Z</time>
      </trkpt>
      <trkpt lat="53.609932009130716" lon="12.312676040455699">
        <ele>46.759999999999998</ele>
        <time>2024-09-14T08:33:48Z</time>
      </trkpt>
      <trkpt lat="53.609870988875628" lon="12.312533967196941">
        <ele>47.240000000000002</ele>
        <time>2024-09-14T08:33:49Z</time>
      </trkpt>
      <trkpt lat="53.609720030799508" lon="12.312175976112485">
        <ele>48.200000000000003</ele>
        <time>2024-09-14T08:33:52Z</time>
      </trkpt>
      <trkpt lat="53.609563959762454" lon="12.312016971409321">
        <ele>48.200000000000003</ele>
        <time>2024-09-14T08:33:53Z</time>
      </trkpt>
      <trkpt lat="53.609459018334746" lon="12.311910018324852">
        <ele>48.200000000000003</ele>
        <time>2024-09-14T08:33:54Z</time>
      </trkpt>
      <trkpt lat="53.609345024451613" lon="12.311795018613338">
        <ele>48.200000000000003</ele>
        <time>2024-09-14T08:33:55Z</time>
      </trkpt>
      <trkpt lat="53.609233964234591" lon="12.311681024730206">
        <ele>48.200000000000003</ele>
        <time>2024-09-14T08:33:56Z</time>
      </trkpt>
      <trkpt lat="53.609126005321741" lon="12.311570970341563">
        <ele>48.200000000000003</ele>
        <time>2024-09-14T08:33:57Z</time>
      </trkpt>
      <trkpt lat="53.60822101123631" lon="12.310669999569654">
        <ele>49.159999999999997</ele>
        <time>2024-09-14T08:34:05Z</time>
      </trkpt>
      <trkpt lat="53.606798015534878" lon="12.309302994981408">
        <ele>53.969999999999999</ele>
        <time>2024-09-14T08:34:16Z</time>
      </trkpt>
      <trkpt lat="53.605381976813078" lon="12.307943031191826">
        <ele>55.890000000000001</ele>
        <time>2024-09-14T08:34:28Z</time>
      </trkpt>
      <trkpt lat="53.605306036770344" lon="12.30782400816679">
        <ele>56.369999999999997</ele>
        <time>2024-09-14T08:34:29Z</time>
      </trkpt>
      <trkpt lat="53.605260020121932" lon="12.307642959058285">
        <ele>56.369999999999997</ele>
        <time>2024-09-14T08:34:30Z</time>
      </trkpt>
      <trkpt lat="53.604808989912271" lon="12.305855015292764">
        <ele>53.969999999999999</ele>
        <time>2024-09-14T08:34:38Z</time>
      </trkpt>
      <trkpt lat="53.604084961116314" lon="12.302984967827797">
        <ele>54.93</ele>
        <time>2024-09-14T08:34:50Z</time>
      </trkpt>
      <trkpt lat="53.603385994210839" lon="12.300550024956465">
        <ele>53.490000000000002</ele>
        <time>2024-09-14T08:35:02Z</time>
      </trkpt>
      <trkpt lat="53.603316005319357" lon="12.300379034131765">
        <ele>53.490000000000002</ele>
        <time>2024-09-14T08:35:03Z</time>
      </trkpt>
      <trkpt lat="53.603242998942733" lon="12.300199996680021">
        <ele>53.490000000000002</ele>
        <time>2024-09-14T08:35:04Z</time>
      </trkpt>
      <trkpt lat="53.603164963424206" lon="12.300007967278361">
        <ele>53.490000000000002</ele>
        <time>2024-09-14T08:35:05Z</time>
      </trkpt>
      <trkpt lat="53.602486029267311" lon="12.298438036814332">
        <ele>52.049999999999997</ele>
        <time>2024-09-14T08:35:13Z</time>
      </trkpt>
      <trkpt lat="53.602338004857302" lon="12.298099994659424">
        <ele>52.530000000000001</ele>
        <time>2024-09-14T08:35:15Z</time>
      </trkpt>
      <trkpt lat="53.602246977388859" lon="12.297963034361601">
        <ele>52.530000000000001</ele>
        <time>2024-09-14T08:35:16Z</time>
      </trkpt>
      <trkpt lat="53.602151004597545" lon="12.297819033265114">
        <ele>53.009999999999998</ele>
        <time>2024-09-14T08:35:17Z</time>
      </trkpt>
      <trkpt lat="53.602050002664328" lon="12.297666985541582">
        <ele>53.490000000000002</ele>
        <time>2024-09-14T08:35:18Z</time>
      </trkpt>
      <trkpt lat="53.601941959932446" lon="12.297506975010037">
        <ele>53.969999999999999</ele>
        <time>2024-09-14T08:35:19Z</time>
      </trkpt>
      <trkpt lat="53.600504966452718" lon="12.295695981010795">
        <ele>55.890000000000001</ele>
        <time>2024-09-14T08:35:30Z</time>
      </trkpt>
      <trkpt lat="53.599980007857084" lon="12.295074965804815">
        <ele>53.009999999999998</ele>
        <time>2024-09-14T08:35:36Z</time>
      </trkpt>
      <trkpt lat="53.599939020350575" lon="12.295026015490294">
        <ele>53.009999999999998</ele>
        <time>2024-09-14T08:35:37Z</time>
      </trkpt>
      <trkpt lat="53.599870959296823" lon="12.294945968315005">
        <ele>52.530000000000001</ele>
        <time>2024-09-14T08:35:38Z</time>
      </trkpt>
      <trkpt lat="53.599870959296823" lon="12.294945968315005">
        <ele>52.049999999999997</ele>
        <time>2024-09-14T08:35:39Z</time>
      </trkpt>
      <trkpt lat="53.599818991497159" lon="12.294927025213838">
        <ele>52.049999999999997</ele>
        <time>2024-09-14T08:35:40Z</time>
      </trkpt>
      <trkpt lat="53.599739028140903" lon="12.294897018000484">
        <ele>51.57</ele>
        <time>2024-09-14T08:35:41Z</time>
      </trkpt>
      <trkpt lat="53.599651018157601" lon="12.294864999130368">
        <ele>51.090000000000003</ele>
        <time>2024-09-14T08:35:42Z</time>
      </trkpt>
      <trkpt lat="53.598859012126923" lon="12.294383039698005">
        <ele>48.68</ele>
        <time>2024-09-14T08:35:50Z</time>
      </trkpt>
      <trkpt lat="53.598577966913581" lon="12.294156979769468">
        <ele>46.759999999999998</ele>
        <time>2024-09-14T08:35:53Z</time>
      </trkpt>
      <trkpt lat="53.598412005230784" lon="12.294023036956787">
        <ele>45.799999999999997</ele>
        <time>2024-09-14T08:35:54Z</time>
      </trkpt>
      <trkpt lat="53.598325001075864" lon="12.294006021693349">
        <ele>44.840000000000003</ele>
        <time>2024-09-14T08:35:55Z</time>
      </trkpt>
      <trkpt lat="53.597512040287256" lon="12.293843999505043">
        <ele>40.990000000000002</ele>
        <time>2024-09-14T08:36:01Z</time>
      </trkpt>
      <trkpt lat="53.597214985638857" lon="12.293736962601542">
        <ele>40.030000000000001</ele>
        <time>2024-09-14T08:36:03Z</time>
      </trkpt>
      <trkpt lat="53.597068972885609" lon="12.293684994801879">
        <ele>39.07</ele>
        <time>2024-09-14T08:36:04Z</time>
      </trkpt>
      <trkpt lat="53.596026012673974" lon="12.293261038139462">
        <ele>33.780000000000001</ele>
        <time>2024-09-14T08:36:11Z</time>
      </trkpt>
      <trkpt lat="53.595411032438278" lon="12.292971024289727">
        <ele>33.299999999999997</ele>
        <time>2024-09-14T08:36:16Z</time>
      </trkpt>
      <trkpt lat="53.595322016626596" lon="12.292929030954838">
        <ele>33.780000000000001</ele>
        <time>2024-09-14T08:36:17Z</time>
      </trkpt>
      <trkpt lat="53.594918008893728" lon="12.293045958504081">
        <ele>35.229999999999997</ele>
        <time>2024-09-14T08:36:21Z</time>
      </trkpt>
      <trkpt lat="53.594155004248023" lon="12.293769987300038">
        <ele>39.549999999999997</ele>
        <time>2024-09-14T08:36:28Z</time>
      </trkpt>
      <trkpt lat="53.594061965122819" lon="12.293851962313056">
        <ele>40.030000000000001</ele>
        <time>2024-09-14T08:36:29Z</time>
      </trkpt>
      <trkpt lat="53.593951994553208" lon="12.293851962313056">
        <ele>40.030000000000001</ele>
        <time>2024-09-14T08:36:30Z</time>
      </trkpt>
      <trkpt lat="53.593846969306469" lon="12.293827990069985">
        <ele>40.030000000000001</ele>
        <time>2024-09-14T08:36:31Z</time>
      </trkpt>
      <trkpt lat="53.593712020665407" lon="12.293787002563477">
        <ele>40.509999999999998</ele>
        <time>2024-09-14T08:36:32Z</time>
      </trkpt>
      <trkpt lat="53.5936329793185" lon="12.293719025328755">
        <ele>40.990000000000002</ele>
        <time>2024-09-14T08:36:33Z</time>
      </trkpt>
      <trkpt lat="53.593515967950225" lon="12.293645013123751">
        <ele>41.950000000000003</ele>
        <time>2024-09-14T08:36:34Z</time>
      </trkpt>
      <trkpt lat="53.593163006007671" lon="12.293544011190534">
        <ele>43.880000000000003</ele>
        <time>2024-09-14T08:36:37Z</time>
      </trkpt>
      <trkpt lat="53.593065021559596" lon="12.293516015633941">
        <ele>44.840000000000003</ele>
        <time>2024-09-14T08:36:38Z</time>
      </trkpt>
      <trkpt lat="53.592771990224719" lon="12.293433034792542">
        <ele>47.240000000000002</ele>
        <time>2024-09-14T08:36:42Z</time>
      </trkpt>
      <trkpt lat="53.592692026868463" lon="12.293409984558821">
        <ele>48.200000000000003</ele>
        <time>2024-09-14T08:36:43Z</time>
      </trkpt>
      <trkpt lat="53.592608962208033" lon="12.29338601231575">
        <ele>49.159999999999997</ele>
        <time>2024-09-14T08:36:44Z</time>
      </trkpt>
      <trkpt lat="53.592441994696856" lon="12.293337984010577">
        <ele>51.090000000000003</ele>
        <time>2024-09-14T08:36:46Z</time>
      </trkpt>
      <trkpt lat="53.592333029955626" lon="12.293181996792555">
        <ele>52.049999999999997</ele>
        <time>2024-09-14T08:36:47Z</time>
      </trkpt>
      <trkpt lat="53.592305034399033" lon="12.293043024837971">
        <ele>52.530000000000001</ele>
        <time>2024-09-14T08:36:48Z</time>
      </trkpt>
      <trkpt lat="53.592276033014059" lon="12.292897012084723">
        <ele>53.490000000000002</ele>
        <time>2024-09-14T08:36:49Z</time>
      </trkpt>
      <trkpt lat="53.592244014143944" lon="12.29274001903832">
        <ele>53.969999999999999</ele>
        <time>2024-09-14T08:36:50Z</time>
      </trkpt>
      <trkpt lat="53.592103030532598" lon="12.292049014940858">
        <ele>55.890000000000001</ele>
        <time>2024-09-14T08:36:53Z</time>
      </trkpt>
      <trkpt lat="53.592101018875837" lon="12.292038034647703">
        <ele>56.369999999999997</ele>
        <time>2024-09-14T08:36:54Z</time>
      </trkpt>
      <trkpt lat="53.59206598252058" lon="12.291847011074424">
        <ele>56.859999999999999</ele>
        <time>2024-09-14T08:36:55Z</time>
      </trkpt>
      <trkpt lat="53.591772029176354" lon="12.290243972092867">
        <ele>57.82</ele>
        <time>2024-09-14T08:37:02Z</time>
      </trkpt>
      <trkpt lat="53.591545969247818" lon="12.289450960233808">
        <ele>56.859999999999999</ele>
        <time>2024-09-14T08:37:05Z</time>
      </trkpt>
      <trkpt lat="53.591427030041814" lon="12.289206963032484">
        <ele>56.859999999999999</ele>
        <time>2024-09-14T08:37:06Z</time>
      </trkpt>
      <trkpt lat="53.590837027877569" lon="12.288100970908999">
        <ele>54.450000000000003</ele>
        <time>2024-09-14T08:37:11Z</time>
      </trkpt>
      <trkpt lat="53.590615997090936" lon="12.287898967042565">
        <ele>53.490000000000002</ele>
        <time>2024-09-14T08:37:12Z</time>
      </trkpt>
      <trkpt lat="53.590448023751378" lon="12.287745997309685">
        <ele>53.009999999999998</ele>
        <time>2024-09-14T08:37:13Z</time>
      </trkpt>
      <trkpt lat="53.58918403275311" lon="12.286594994366169">
        <ele>47.240000000000002</ele>
        <time>2024-09-14T08:37:21Z</time>
      </trkpt>
      <trkpt lat="53.589142039418221" lon="12.286556018516421">
        <ele>46.759999999999998</ele>
        <time>2024-09-14T08:37:22Z</time>
      </trkpt>
      <trkpt lat="53.589026033878326" lon="12.286303974688053">
        <ele>45.799999999999997</ele>
        <time>2024-09-14T08:37:23Z</time>
      </trkpt>
      <trkpt lat="53.589004995301366" lon="12.28618998080492">
        <ele>45.32</ele>
        <time>2024-09-14T08:37:24Z</time>
      </trkpt>
      <trkpt lat="53.58899200335145" lon="12.286061989143491">
        <ele>43.880000000000003</ele>
        <time>2024-09-14T08:37:25Z</time>
      </trkpt>
      <trkpt lat="53.589019998908043" lon="12.285936009138823">
        <ele>42.920000000000002</ele>
        <time>2024-09-14T08:37:26Z</time>
      </trkpt>
      <trkpt lat="53.589067021384835" lon="12.285725036635995">
        <ele>41.469999999999999</ele>
        <time>2024-09-14T08:37:27Z</time>
      </trkpt>
      <trkpt lat="53.589118989184499" lon="12.285494031384587">
        <ele>40.509999999999998</ele>
        <time>2024-09-14T08:37:28Z</time>
      </trkpt>
      <trkpt lat="53.589171962812543" lon="12.285257996991277">
        <ele>39.07</ele>
        <time>2024-09-14T08:37:29Z</time>
      </trkpt>
      <trkpt lat="53.589688958600163" lon="12.283466029912233">
        <ele>33.299999999999997</ele>
        <time>2024-09-14T08:37:37Z</time>
      </trkpt>
      <trkpt lat="53.589763976633549" lon="12.283315993845463">
        <ele>32.340000000000003</ele>
        <time>2024-09-14T08:37:38Z</time>
      </trkpt>
      <trkpt lat="53.589880988001823" lon="12.28318297304213">
        <ele>31.379999999999999</ele>
        <time>2024-09-14T08:37:39Z</time>
      </trkpt>
      <trkpt lat="53.590264962986112" lon="12.282691961154342">
        <ele>28.5</ele>
        <time>2024-09-14T08:37:42Z</time>
      </trkpt>
      <trkpt lat="53.590351967141032" lon="12.282501021400094">
        <ele>28.02</ele>
        <time>2024-09-14T08:37:43Z</time>
      </trkpt>
      <trkpt lat="53.590439977124333" lon="12.282308991998434">
        <ele>27.050000000000001</ele>
        <time>2024-09-14T08:37:44Z</time>
      </trkpt>
      <trkpt lat="53.591202981770039" lon="12.280740989372134">
        <ele>23.690000000000001</ele>
        <time>2024-09-14T08:37:53Z</time>
      </trkpt>
      <trkpt lat="53.591272970661521" lon="12.280536973848939">
        <ele>23.690000000000001</ele>
        <time>2024-09-14T08:37:54Z</time>
      </trkpt>
      <trkpt lat="53.591734981164336" lon="12.278376035392284">
        <ele>26.09</ele>
        <time>2024-09-14T08:38:02Z</time>
      </trkpt>
      <trkpt lat="53.592079980298877" lon="12.276234040036798">
        <ele>28.98</ele>
        <time>2024-09-14T08:38:10Z</time>
      </trkpt>
      <trkpt lat="53.59230101108551" lon="12.273562978953123">
        <ele>31.379999999999999</ele>
        <time>2024-09-14T08:38:20Z</time>
      </trkpt>
      <trkpt lat="53.5924949683249" lon="12.271023010835052">
        <ele>33.299999999999997</ele>
        <time>2024-09-14T08:38:29Z</time>
      </trkpt>
      <trkpt lat="53.592510977759957" lon="12.270248020067811">
        <ele>34.740000000000002</ele>
        <time>2024-09-14T08:38:32Z</time>
      </trkpt>
      <trkpt lat="53.592464961111546" lon="12.269952977076173">
        <ele>34.740000000000002</ele>
        <time>2024-09-14T08:38:33Z</time>
      </trkpt>
      <trkpt lat="53.592424979433417" lon="12.269700011238456">
        <ele>35.710000000000001</ele>
        <time>2024-09-14T08:38:34Z</time>
      </trkpt>
      <trkpt lat="53.592205960303545" lon="12.268672976642847">
        <ele>37.630000000000003</ele>
        <time>2024-09-14T08:38:38Z</time>
      </trkpt>
      <trkpt lat="53.592124991118908" lon="12.268381034955382">
        <ele>37.630000000000003</ele>
        <time>2024-09-14T08:38:39Z</time>
      </trkpt>
      <trkpt lat="53.591255033388734" lon="12.266371976584196">
        <ele>39.07</ele>
        <time>2024-09-14T08:38:48Z</time>
      </trkpt>
      <trkpt lat="53.591187978163362" lon="12.266214983537793">
        <ele>39.07</ele>
        <time>2024-09-14T08:38:49Z</time>
      </trkpt>
      <trkpt lat="53.591067027300596" lon="12.265937039628625">
        <ele>39.07</ele>
        <time>2024-09-14T08:38:51Z</time>
      </trkpt>
      <trkpt lat="53.591006007045507" lon="12.265795972198248">
        <ele>39.07</ele>
        <time>2024-09-14T08:38:52Z</time>
      </trkpt>
      <trkpt lat="53.590943980962038" lon="12.265651971101761">
        <ele>38.590000000000003</ele>
        <time>2024-09-14T08:38:53Z</time>
      </trkpt>
      <trkpt lat="53.59088497236371" lon="12.265516016632318">
        <ele>38.590000000000003</ele>
        <time>2024-09-14T08:38:54Z</time>
      </trkpt>
      <trkpt lat="53.590825963765383" lon="12.265380984172225">
        <ele>38.590000000000003</ele>
        <time>2024-09-14T08:38:55Z</time>
      </trkpt>
      <trkpt lat="53.590784976258874" lon="12.265207981690764">
        <ele>38.109999999999999</ele>
        <time>2024-09-14T08:38:56Z</time>
      </trkpt>
      <trkpt lat="53.590750023722649" lon="12.265037996694446">
        <ele>37.630000000000003</ele>
        <time>2024-09-14T08:38:57Z</time>
      </trkpt>
      <trkpt lat="53.59071297571063" lon="12.264860970899463">
        <ele>37.149999999999999</ele>
        <time>2024-09-14T08:38:58Z</time>
      </trkpt>
      <trkpt lat="53.590678023174405" lon="12.264689980074763">
        <ele>36.189999999999998</ele>
        <time>2024-09-14T08:38:59Z</time>
      </trkpt>
      <trkpt lat="53.590642986819148" lon="12.264522006735206">
        <ele>35.710000000000001</ele>
        <time>2024-09-14T08:39:00Z</time>
      </trkpt>
      <trkpt lat="53.590613985434175" lon="12.26438102312386">
        <ele>35.229999999999997</ele>
        <time>2024-09-14T08:39:01Z</time>
      </trkpt>
      <trkpt lat="53.590588001534343" lon="12.26425495930016">
        <ele>34.740000000000002</ele>
        <time>2024-09-14T08:39:02Z</time>
      </trkpt>
      <trkpt lat="53.59056000597775" lon="12.26412202231586">
        <ele>34.259999999999998</ele>
        <time>2024-09-14T08:39:03Z</time>
      </trkpt>
      <trkpt lat="53.590538967400789" lon="12.263980032876134">
        <ele>33.780000000000001</ele>
        <time>2024-09-14T08:39:04Z</time>
      </trkpt>
      <trkpt lat="53.590521030128002" lon="12.263850029557943">
        <ele>33.299999999999997</ele>
        <time>2024-09-14T08:39:05Z</time>
      </trkpt>
      <trkpt lat="53.590504014864564" lon="12.26373502984643">
        <ele>32.340000000000003</ele>
        <time>2024-09-14T08:39:06Z</time>
      </trkpt>
      <trkpt lat="53.590489011257887" lon="12.263627992942929">
        <ele>31.859999999999999</ele>
        <time>2024-09-14T08:39:07Z</time>
      </trkpt>
      <trkpt lat="53.590470990166068" lon="12.263504024595022">
        <ele>31.379999999999999</ele>
        <time>2024-09-14T08:39:08Z</time>
      </trkpt>
      <trkpt lat="53.59045104123652" lon="12.263364968821406">
        <ele>30.899999999999999</ele>
        <time>2024-09-14T08:39:09Z</time>
      </trkpt>
      <trkpt lat="53.590433020144701" lon="12.263241000473499">
        <ele>30.420000000000002</ele>
        <time>2024-09-14T08:39:10Z</time>
      </trkpt>
      <trkpt lat="53.590418016538024" lon="12.26313597522676">
        <ele>29.460000000000001</ele>
        <time>2024-09-14T08:39:11Z</time>
      </trkpt>
      <trkpt lat="53.590394966304302" lon="12.262983005493879">
        <ele>28.02</ele>
        <time>2024-09-14T08:39:13Z</time>
      </trkpt>
      <trkpt lat="53.590351967141032" lon="12.262681005522609">
        <ele>27.050000000000001</ele>
        <time>2024-09-14T08:39:21Z</time>
      </trkpt>
      <trkpt lat="53.590332018211484" lon="12.262541027739644">
        <ele>28.98</ele>
        <time>2024-09-14T08:39:23Z</time>
      </trkpt>
      <trkpt lat="53.590298993512988" lon="12.262019002810121">
        <ele>30.420000000000002</ele>
        <time>2024-09-14T08:39:24Z</time>
      </trkpt>
      <trkpt lat="53.590226992964745" lon="12.262040041387081">
        <ele>31.379999999999999</ele>
        <time>2024-09-14T08:39:25Z</time>
      </trkpt>
      <trkpt lat="53.590135965496302" lon="12.262071976438165">
        <ele>31.379999999999999</ele>
        <time>2024-09-14T08:39:26Z</time>
      </trkpt>
      <trkpt lat="53.590028006583452" lon="12.262109024450183">
        <ele>30.899999999999999</ele>
        <time>2024-09-14T08:39:27Z</time>
      </trkpt>
      <trkpt lat="53.589195013046265" lon="12.262501968070865">
        <ele>27.530000000000001</ele>
        <time>2024-09-14T08:39:32Z</time>
      </trkpt>
      <trkpt lat="53.587500024586916" lon="12.263638973236084">
        <ele>23.210000000000001</ele>
        <time>2024-09-14T08:39:40Z</time>
      </trkpt>
      <trkpt lat="53.585290974006057" lon="12.265119971707463">
        <ele>26.57</ele>
        <time>2024-09-14T08:39:51Z</time>
      </trkpt>
      <trkpt lat="53.58353597112" lon="12.266306011006236">
        <ele>31.379999999999999</ele>
        <time>2024-09-14T08:40:00Z</time>
      </trkpt>
      <trkpt lat="53.581769987940788" lon="12.267505964264274">
        <ele>34.740000000000002</ele>
        <time>2024-09-14T08:40:08Z</time>
      </trkpt>
      <trkpt lat="53.579309983178973" lon="12.269117971882224">
        <ele>38.109999999999999</ele>
        <time>2024-09-14T08:40:18Z</time>
      </trkpt>
      <trkpt lat="53.57734601944685" lon="12.270305017009377">
        <ele>40.030000000000001</ele>
        <time>2024-09-14T08:40:26Z</time>
      </trkpt>
      <trkpt lat="53.573984960094094" lon="12.271085036918521">
        <ele>42.439999999999998</ele>
        <time>2024-09-14T08:40:39Z</time>
      </trkpt>
      <trkpt lat="53.572497004643083" lon="12.271411009132862">
        <ele>42.439999999999998</ele>
        <time>2024-09-14T08:40:45Z</time>
      </trkpt>
      <trkpt lat="53.570461040362716" lon="12.271858016029">
        <ele>40.030000000000001</ele>
        <time>2024-09-14T08:40:53Z</time>
      </trkpt>
      <trkpt lat="53.568514008074999" lon="12.2722880076617">
        <ele>35.229999999999997</ele>
        <time>2024-09-14T08:41:01Z</time>
      </trkpt>
      <trkpt lat="53.56583003886044" lon="12.27290902286768">
        <ele>32.82</ele>
        <time>2024-09-14T08:41:12Z</time>
      </trkpt>
      <trkpt lat="53.563846964389086" lon="12.273368015885353">
        <ele>33.299999999999997</ele>
        <time>2024-09-14T08:41:20Z</time>
      </trkpt>
      <trkpt lat="53.56127598322928" lon="12.273890962824225">
        <ele>35.229999999999997</ele>
        <time>2024-09-14T08:41:31Z</time>
      </trkpt>
      <trkpt lat="53.560429997742176" lon="12.273823991417885">
        <ele>34.740000000000002</ele>
        <time>2024-09-14T08:41:35Z</time>
      </trkpt>
      <trkpt lat="53.56022397056222" lon="12.273697005584836">
        <ele>34.740000000000002</ele>
        <time>2024-09-14T08:41:36Z</time>
      </trkpt>
      <trkpt lat="53.56000998057425" lon="12.273563984781504">
        <ele>34.259999999999998</ele>
        <time>2024-09-14T08:41:37Z</time>
      </trkpt>
      <trkpt lat="53.558551026508212" lon="12.272650022059679">
        <ele>30.420000000000002</ele>
        <time>2024-09-14T08:41:44Z</time>
      </trkpt>
      <trkpt lat="53.558350028470159" lon="12.272521024569869">
        <ele>30.420000000000002</ele>
        <time>2024-09-14T08:41:45Z</time>
      </trkpt>
      <trkpt lat="53.558152969926596" lon="12.27239403873682">
        <ele>29.940000000000001</ele>
        <time>2024-09-14T08:41:46Z</time>
      </trkpt>
      <trkpt lat="53.557448973879218" lon="12.27194300852716">
        <ele>29.460000000000001</ele>
        <time>2024-09-14T08:41:49Z</time>
      </trkpt>
      <trkpt lat="53.557316036894917" lon="12.271910989657044">
        <ele>28.98</ele>
        <time>2024-09-14T08:41:50Z</time>
      </trkpt>
      <trkpt lat="53.555741999298334" lon="12.271637991070747">
        <ele>31.379999999999999</ele>
        <time>2024-09-14T08:41:57Z</time>
      </trkpt>
      <trkpt lat="53.553603021427989" lon="12.271333979442716">
        <ele>31.859999999999999</ele>
        <time>2024-09-14T08:42:06Z</time>
      </trkpt>
      <trkpt lat="53.551936028525233" lon="12.271099034696817">
        <ele>35.710000000000001</ele>
        <time>2024-09-14T08:42:13Z</time>
      </trkpt>
      <trkpt lat="53.549224985763431" lon="12.270714975893497">
        <ele>41.950000000000003</ele>
        <time>2024-09-14T08:42:24Z</time>
      </trkpt>
      <trkpt lat="53.547656983137131" lon="12.270493023097515">
        <ele>40.990000000000002</ele>
        <time>2024-09-14T08:42:31Z</time>
      </trkpt>
      <trkpt lat="53.546376982703805" lon="12.27031197398901">
        <ele>44.840000000000003</ele>
        <time>2024-09-14T08:42:38Z</time>
      </trkpt>
      <trkpt lat="53.545767031610012" lon="12.270243996754289">
        <ele>45.32</ele>
        <time>2024-09-14T08:42:42Z</time>
      </trkpt>
      <trkpt lat="53.545638034120202" lon="12.27022597566247">
        <ele>45.32</ele>
        <time>2024-09-14T08:42:43Z</time>
      </trkpt>
      <trkpt lat="53.54455903172493" lon="12.270218012854457">
        <ele>52.049999999999997</ele>
        <time>2024-09-14T08:42:52Z</time>
      </trkpt>
      <trkpt lat="53.543521016836166" lon="12.27078203111887">
        <ele>58.299999999999997</ele>
        <time>2024-09-14T08:43:01Z</time>
      </trkpt>
      <trkpt lat="53.541954020038247" lon="12.271979972720146">
        <ele>63.100000000000001</ele>
        <time>2024-09-14T08:43:15Z</time>
      </trkpt>
      <trkpt lat="53.53987799026072" lon="12.273644031956792">
        <ele>65.030000000000001</ele>
        <time>2024-09-14T08:43:34Z</time>
      </trkpt>
      <trkpt lat="53.537891982123256" lon="12.275138022378087">
        <ele>67.909999999999997</ele>
        <time>2024-09-14T08:43:52Z</time>
      </trkpt>
      <trkpt lat="53.536592032760382" lon="12.275989959016442">
        <ele>68.390000000000001</ele>
        <time>2024-09-14T08:44:02Z</time>
      </trkpt>
      <trkpt lat="53.535188985988498" lon="12.276819013059139">
        <ele>66.469999999999999</ele>
        <time>2024-09-14T08:44:09Z</time>
      </trkpt>
      <trkpt lat="53.532604007050395" lon="12.278056014329195">
        <ele>69.349999999999994</ele>
        <time>2024-09-14T08:44:20Z</time>
      </trkpt>
      <trkpt lat="53.531523998826742" lon="12.27849799208343">
        <ele>70.310000000000002</ele>
        <time>2024-09-14T08:44:26Z</time>
      </trkpt>
      <trkpt lat="53.530630990862846" lon="12.278812984004617">
        <ele>69.349999999999994</ele>
        <time>2024-09-14T08:44:34Z</time>
      </trkpt>
      <trkpt lat="53.530460000038147" lon="12.278866041451693">
        <ele>68.870000000000005</ele>
        <time>2024-09-14T08:44:42Z</time>
      </trkpt>
      <trkpt lat="53.530321028083563" lon="12.278897976502776">
        <ele>68.390000000000001</ele>
        <time>2024-09-14T08:45:13Z</time>
      </trkpt>
      <trkpt lat="53.529588030651212" lon="12.278987998142838">
        <ele>66.950000000000003</ele>
        <time>2024-09-14T08:45:19Z</time>
      </trkpt>
      <trkpt lat="53.528119018301368" lon="12.278917003422976">
        <ele>64.549999999999997</ele>
        <time>2024-09-14T08:45:27Z</time>
      </trkpt>
      <trkpt lat="53.526220014318824" lon="12.278405958786607">
        <ele>65.030000000000001</ele>
        <time>2024-09-14T08:45:36Z</time>
      </trkpt>
      <trkpt lat="53.522430974990129" lon="12.277253028005362">
        <ele>65.030000000000001</ele>
        <time>2024-09-14T08:45:53Z</time>
      </trkpt>
      <trkpt lat="53.520839000120759" lon="12.27677701972425">
        <ele>66.469999999999999</ele>
        <time>2024-09-14T08:46:00Z</time>
      </trkpt>
      <trkpt lat="53.520210022106767" lon="12.276535034179688">
        <ele>66.950000000000003</ele>
        <time>2024-09-14T08:46:03Z</time>
      </trkpt>
      <trkpt lat="53.518571024760604" lon="12.275316976010799">
        <ele>66.469999999999999</ele>
        <time>2024-09-14T08:46:11Z</time>
      </trkpt>
      <trkpt lat="53.516527013853192" lon="12.273686025291681">
        <ele>66.469999999999999</ele>
        <time>2024-09-14T08:46:21Z</time>
      </trkpt>
      <trkpt lat="53.514790032058954" lon="12.272318014875054">
        <ele>65.030000000000001</ele>
        <time>2024-09-14T08:46:29Z</time>
      </trkpt>
      <trkpt lat="53.513396037742496" lon="12.271241024136543">
        <ele>64.069999999999993</ele>
        <time>2024-09-14T08:46:37Z</time>
      </trkpt>
      <trkpt lat="53.51147398352623" lon="12.270007040351629">
        <ele>65.510000000000005</ele>
        <time>2024-09-14T08:46:48Z</time>
      </trkpt>
      <trkpt lat="53.509914027526975" lon="12.269016969949007">
        <ele>66.950000000000003</ele>
        <time>2024-09-14T08:46:56Z</time>
      </trkpt>
      <trkpt lat="53.508264971897006" lon="12.267706040292978">
        <ele>64.069999999999993</ele>
        <time>2024-09-14T08:47:05Z</time>
      </trkpt>
      <trkpt lat="53.506614994257689" lon="12.266747988760471">
        <ele>60.219999999999999</ele>
        <time>2024-09-14T08:47:14Z</time>
      </trkpt>
      <trkpt lat="53.506427993997931" lon="12.266728961840272">
        <ele>60.219999999999999</ele>
        <time>2024-09-14T08:47:15Z</time>
      </trkpt>
      <trkpt lat="53.504755971953273" lon="12.266552019864321">
        <ele>60.219999999999999</ele>
        <time>2024-09-14T08:47:25Z</time>
      </trkpt>
      <trkpt lat="53.503582002595067" lon="12.266403995454311">
        <ele>64.549999999999997</ele>
        <time>2024-09-14T08:47:33Z</time>
      </trkpt>
      <trkpt lat="53.502092035487294" lon="12.266245996579528">
        <ele>67.430000000000007</ele>
        <time>2024-09-14T08:47:41Z</time>
      </trkpt>
      <trkpt lat="53.500760989263654" lon="12.266108030453324">
        <ele>67.909999999999997</ele>
        <time>2024-09-14T08:47:46Z</time>
      </trkpt>
      <trkpt lat="53.499181000515819" lon="12.265936033800244">
        <ele>68.870000000000005</ele>
        <time>2024-09-14T08:47:53Z</time>
      </trkpt>
      <trkpt lat="53.497931007295847" lon="12.265792032703757">
        <ele>70.310000000000002</ele>
        <time>2024-09-14T08:48:01Z</time>
      </trkpt>
      <trkpt lat="53.496629968285561" lon="12.265643002465367">
        <ele>71.269999999999996</ele>
        <time>2024-09-14T08:48:12Z</time>
      </trkpt>
      <trkpt lat="53.495184006169438" lon="12.265482991933823">
        <ele>71.269999999999996</ele>
        <time>2024-09-14T08:48:24Z</time>
      </trkpt>
      <trkpt lat="53.49366101436317" lon="12.265321975573897">
        <ele>70.790000000000006</ele>
        <time>2024-09-14T08:48:36Z</time>
      </trkpt>
      <trkpt lat="53.491766033694148" lon="12.265119971707463">
        <ele>70.790000000000006</ele>
        <time>2024-09-14T08:48:47Z</time>
      </trkpt>
      <trkpt lat="53.489693021401763" lon="12.264879997819662">
        <ele>72.239999999999995</ele>
        <time>2024-09-14T08:48:56Z</time>
      </trkpt>
      <trkpt lat="53.487648004665971" lon="12.264649998396635">
        <ele>69.829999999999998</ele>
        <time>2024-09-14T08:49:05Z</time>
      </trkpt>
      <trkpt lat="53.485510032624006" lon="12.264410024508834">
        <ele>69.349999999999994</ele>
        <time>2024-09-14T08:49:14Z</time>
      </trkpt>
      <trkpt lat="53.483689986169338" lon="12.264206008985639">
        <ele>68.390000000000001</ele>
        <time>2024-09-14T08:49:22Z</time>
      </trkpt>
      <trkpt lat="53.481364008039236" lon="12.26395103149116">
        <ele>66.469999999999999</ele>
        <time>2024-09-14T08:49:32Z</time>
      </trkpt>
      <trkpt lat="53.47896502353251" lon="12.26369597017765">
        <ele>64.549999999999997</ele>
        <time>2024-09-14T08:49:42Z</time>
      </trkpt>
      <trkpt lat="53.476781034842134" lon="12.26367199793458">
        <ele>65.030000000000001</ele>
        <time>2024-09-14T08:49:52Z</time>
      </trkpt>
      <trkpt lat="53.474392024800181" lon="12.263661017641425">
        <ele>67.430000000000007</ele>
        <time>2024-09-14T08:50:02Z</time>
      </trkpt>
      <trkpt lat="53.471869993954897" lon="12.263681972399354">
        <ele>68.870000000000005</ele>
        <time>2024-09-14T08:50:13Z</time>
      </trkpt>
      <trkpt lat="53.470798032358289" lon="12.263681972399354">
        <ele>68.870000000000005</ele>
        <time>2024-09-14T08:50:20Z</time>
      </trkpt>
      <trkpt lat="53.469682987779379" lon="12.263703010976315">
        <ele>66.950000000000003</ele>
        <time>2024-09-14T08:50:29Z</time>
      </trkpt>
      <trkpt lat="53.469404960051179" lon="12.263703010976315">
        <ele>65.510000000000005</ele>
        <time>2024-09-14T08:50:32Z</time>
      </trkpt>
      <trkpt lat="53.469278980046511" lon="12.263532020151615">
        <ele>65.030000000000001</ele>
        <time>2024-09-14T08:50:33Z</time>
      </trkpt>
      <trkpt lat="53.469258025288582" lon="12.263513999059796">
        <ele>65.030000000000001</ele>
        <time>2024-09-14T08:50:34Z</time>
      </trkpt>
      <trkpt lat="53.469189964234829" lon="12.26345700211823">
        <ele>65.030000000000001</ele>
        <time>2024-09-14T08:50:35Z</time>
      </trkpt>
      <trkpt lat="53.469115030020475" lon="12.263449961319566">
        <ele>65.030000000000001</ele>
        <time>2024-09-14T08:50:36Z</time>
      </trkpt>
      <trkpt lat="53.469045963138342" lon="12.263498995453119">
        <ele>65.030000000000001</ele>
        <time>2024-09-14T08:50:37Z</time>
      </trkpt>
      <trkpt lat="53.469000030308962" lon="12.263532020151615">
        <ele>65.510000000000005</ele>
        <time>2024-09-14T08:50:38Z</time>
      </trkpt>
      <trkpt lat="53.468904979526997" lon="12.263703010976315">
        <ele>65.030000000000001</ele>
        <time>2024-09-14T08:50:39Z</time>
      </trkpt>
      <trkpt lat="53.46882501617074" lon="12.263703010976315">
        <ele>65.030000000000001</ele>
        <time>2024-09-14T08:50:40Z</time>
      </trkpt>
      <trkpt lat="53.468733988702297" lon="12.263703010976315">
        <ele>65.030000000000001</ele>
        <time>2024-09-14T08:50:41Z</time>
      </trkpt>
      <trkpt lat="53.468629969283938" lon="12.263703010976315">
        <ele>65.030000000000001</ele>
        <time>2024-09-14T08:50:42Z</time>
      </trkpt>
      <trkpt lat="53.468513963744044" lon="12.263703010976315">
        <ele>65.030000000000001</ele>
        <time>2024-09-14T08:50:43Z</time>
      </trkpt>
      <trkpt lat="53.46725600771606" lon="12.263703010976315">
        <ele>65.989999999999995</ele>
        <time>2024-09-14T08:50:52Z</time>
      </trkpt>
      <trkpt lat="53.46588397398591" lon="12.263852963224053">
        <ele>67.430000000000007</ele>
        <time>2024-09-14T08:51:03Z</time>
      </trkpt>
      <trkpt lat="53.465392040088773" lon="12.264040969312191">
        <ele>67.430000000000007</ele>
        <time>2024-09-14T08:51:08Z</time>
      </trkpt>
      <trkpt lat="53.464552005752921" lon="12.264560982584953">
        <ele>66.950000000000003</ele>
        <time>2024-09-14T08:51:17Z</time>
      </trkpt>
      <trkpt lat="53.464500959962606" lon="12.264600964263082">
        <ele>66.469999999999999</ele>
        <time>2024-09-14T08:51:18Z</time>
      </trkpt>
      <trkpt lat="53.464329969137907" lon="12.264735996723175">
        <ele>65.030000000000001</ele>
        <time>2024-09-14T08:51:23Z</time>
      </trkpt>
      <trkpt lat="53.464305996894836" lon="12.264755023643374">
        <ele>65.030000000000001</ele>
        <time>2024-09-14T08:51:24Z</time>
      </trkpt>
      <trkpt lat="53.464305996894836" lon="12.264755023643374">
        <ele>65.030000000000001</ele>
        <time>2024-09-14T08:51:33Z</time>
      </trkpt>
      <trkpt lat="53.464290993288159" lon="12.26476700976491">
        <ele>65.510000000000005</ele>
        <time>2024-09-14T08:52:08Z</time>
      </trkpt>
      <trkpt lat="53.463946999981999" lon="12.265033973380923">
        <ele>64.549999999999997</ele>
        <time>2024-09-14T08:52:15Z</time>
      </trkpt>
      <trkpt lat="53.463399996981025" lon="12.265419960021973">
        <ele>63.100000000000001</ele>
        <time>2024-09-14T08:52:21Z</time>
      </trkpt>
      <trkpt lat="53.462285958230495" lon="12.26627198047936">
        <ele>60.219999999999999</ele>
        <time>2024-09-14T08:52:31Z</time>
      </trkpt>
      <trkpt lat="53.460901016369462" lon="12.26732399314642">
        <ele>59.259999999999998</ele>
        <time>2024-09-14T08:52:41Z</time>
      </trkpt>
      <trkpt lat="53.459390010684729" lon="12.268169978633523">
        <ele>59.740000000000002</ele>
        <time>2024-09-14T08:52:50Z</time>
      </trkpt>
      <trkpt lat="53.457944970577955" lon="12.268230998888612">
        <ele>60.700000000000003</ele>
        <time>2024-09-14T08:52:58Z</time>
      </trkpt>
      <trkpt lat="53.456386020407081" lon="12.268478013575077">
        <ele>62.619999999999997</ele>
        <time>2024-09-14T08:53:07Z</time>
      </trkpt>
      <trkpt lat="53.45522403717041" lon="12.269463976845145">
        <ele>63.100000000000001</ele>
        <time>2024-09-14T08:53:14Z</time>
      </trkpt>
      <trkpt lat="53.453427962958813" lon="12.271284023299813">
        <ele>59.740000000000002</ele>
        <time>2024-09-14T08:53:24Z</time>
      </trkpt>
      <trkpt lat="53.452449040487409" lon="12.271820968016982">
        <ele>58.299999999999997</ele>
        <time>2024-09-14T08:53:30Z</time>
      </trkpt>
      <trkpt lat="53.451821990311146" lon="12.27190000936389">
        <ele>57.82</ele>
        <time>2024-09-14T08:53:35Z</time>
      </trkpt>
      <trkpt lat="53.451731968671083" lon="12.27190000936389">
        <ele>57.340000000000003</ele>
        <time>2024-09-14T08:53:41Z</time>
      </trkpt>
      <trkpt lat="53.451673965901136" lon="12.27190000936389">
        <ele>57.82</ele>
        <time>2024-09-14T08:53:58Z</time>
      </trkpt>
      <trkpt lat="53.451194018125534" lon="12.271831026300788">
        <ele>57.82</ele>
        <time>2024-09-14T08:54:03Z</time>
      </trkpt>
      <trkpt lat="53.451064014807343" lon="12.271800013259053">
        <ele>57.82</ele>
        <time>2024-09-14T08:54:04Z</time>
      </trkpt>
      <trkpt lat="53.450916996225715" lon="12.271764976903796">
        <ele>57.340000000000003</ele>
        <time>2024-09-14T08:54:05Z</time>
      </trkpt>
      <trkpt lat="53.449449995532632" lon="12.27125896140933">
        <ele>56.369999999999997</ele>
        <time>2024-09-14T08:54:13Z</time>
      </trkpt>
      <trkpt lat="53.446992002427578" lon="12.270313985645771">
        <ele>54.93</ele>
        <time>2024-09-14T08:54:24Z</time>
      </trkpt>
      <trkpt lat="53.44452403485775" lon="12.269418966025114">
        <ele>53.490000000000002</ele>
        <time>2024-09-14T08:54:35Z</time>
      </trkpt>
      <trkpt lat="53.442411962896585" lon="12.268646992743015">
        <ele>52.049999999999997</ele>
        <time>2024-09-14T08:54:44Z</time>
      </trkpt>
      <trkpt lat="53.440061006695032" lon="12.267877031117678">
        <ele>54.93</ele>
        <time>2024-09-14T08:54:54Z</time>
      </trkpt>
      <trkpt lat="53.438625019043684" lon="12.267956994473934">
        <ele>56.369999999999997</ele>
        <time>2024-09-14T08:55:00Z</time>
      </trkpt>
      <trkpt lat="53.436272973194718" lon="12.268311968073249">
        <ele>57.340000000000003</ele>
        <time>2024-09-14T08:55:10Z</time>
      </trkpt>
      <trkpt lat="53.434640010818839" lon="12.268540961667895">
        <ele>57.82</ele>
        <time>2024-09-14T08:55:17Z</time>
      </trkpt>
      <trkpt lat="53.433163035660982" lon="12.268737014383078">
        <ele>56.859999999999999</ele>
        <time>2024-09-14T08:55:24Z</time>
      </trkpt>
      <trkpt lat="53.431338965892792" lon="12.268651016056538">
        <ele>54.450000000000003</ele>
        <time>2024-09-14T08:55:32Z</time>
      </trkpt>
      <trkpt lat="53.429677002131939" lon="12.268280033022165">
        <ele>53.969999999999999</ele>
        <time>2024-09-14T08:55:39Z</time>
      </trkpt>
      <trkpt lat="53.427473986521363" lon="12.267792038619518">
        <ele>54.93</ele>
        <time>2024-09-14T08:55:49Z</time>
      </trkpt>
      <trkpt lat="53.426107987761497" lon="12.267271019518375">
        <ele>58.299999999999997</ele>
        <time>2024-09-14T08:55:56Z</time>
      </trkpt>
      <trkpt lat="53.424674011766911" lon="12.266194028779864">
        <ele>63.579999999999998</ele>
        <time>2024-09-14T08:56:05Z</time>
      </trkpt>
      <trkpt lat="53.423574976623058" lon="12.264715963974595">
        <ele>72.719999999999999</ele>
        <time>2024-09-14T08:56:13Z</time>
      </trkpt>
      <trkpt lat="53.422351973131299" lon="12.262951992452145">
        <ele>80.409999999999997</ele>
        <time>2024-09-14T08:56:22Z</time>
      </trkpt>
      <trkpt lat="53.420687997713685" lon="12.260789964348078">
        <ele>84.730000000000004</ele>
        <time>2024-09-14T08:56:33Z</time>
      </trkpt>
      <trkpt lat="53.419700022786856" lon="12.259592022746801">
        <ele>85.209999999999994</ele>
        <time>2024-09-14T08:56:39Z</time>
      </trkpt>
      <trkpt lat="53.419527020305395" lon="12.259484985843301">
        <ele>85.209999999999994</ele>
        <time>2024-09-14T08:56:40Z</time>
      </trkpt>
      <trkpt lat="53.419354017823935" lon="12.259379960596561">
        <ele>85.689999999999998</ele>
        <time>2024-09-14T08:56:41Z</time>
      </trkpt>
      <trkpt lat="53.418345004320145" lon="12.25875198841095">
        <ele>87.620000000000005</ele>
        <time>2024-09-14T08:56:48Z</time>
      </trkpt>
      <trkpt lat="53.41715301387012" lon="12.258183024823666">
        <ele>87.140000000000001</ele>
        <time>2024-09-14T08:56:57Z</time>
      </trkpt>
      <trkpt lat="53.416885966435075" lon="12.258052015677094">
        <ele>87.140000000000001</ele>
        <time>2024-09-14T08:57:00Z</time>
      </trkpt>
      <trkpt lat="53.416816983371973" lon="12.258017985150218">
        <ele>86.659999999999997</ele>
        <time>2024-09-14T08:57:01Z</time>
      </trkpt>
      <trkpt lat="53.416769038885832" lon="12.25808403454721">
        <ele>86.659999999999997</ele>
        <time>2024-09-14T08:57:02Z</time>
      </trkpt>
      <trkpt lat="53.416763003915548" lon="12.258199034258723">
        <ele>86.180000000000007</ele>
        <time>2024-09-14T08:57:03Z</time>
      </trkpt>
      <trkpt lat="53.416755963116884" lon="12.258356027305126">
        <ele>86.180000000000007</ele>
        <time>2024-09-14T08:57:04Z</time>
      </trkpt>
      <trkpt lat="53.416754035279155" lon="12.258524000644684">
        <ele>85.689999999999998</ele>
        <time>2024-09-14T08:57:05Z</time>
      </trkpt>
      <trkpt lat="53.416763003915548" lon="12.258726004511118">
        <ele>85.209999999999994</ele>
        <time>2024-09-14T08:57:06Z</time>
      </trkpt>
      <trkpt lat="53.416772978380322" lon="12.258951980620623">
        <ele>85.209999999999994</ele>
        <time>2024-09-14T08:57:07Z</time>
      </trkpt>
      <trkpt lat="53.416785970330238" lon="12.259194971993566">
        <ele>84.730000000000004</ele>
        <time>2024-09-14T08:57:08Z</time>
      </trkpt>
      <trkpt lat="53.416828969493508" lon="12.260011034086347">
        <ele>84.730000000000004</ele>
        <time>2024-09-14T08:57:11Z</time>
      </trkpt>
      <trkpt lat="53.416813965886831" lon="12.26032099686563">
        <ele>84.25</ele>
        <time>2024-09-14T08:57:12Z</time>
      </trkpt>
      <trkpt lat="53.416770966723561" lon="12.260622996836901">
        <ele>84.25</ele>
        <time>2024-09-14T08:57:13Z</time>
      </trkpt>
      <trkpt lat="53.416726961731911" lon="12.260932959616184">
        <ele>84.25</ele>
        <time>2024-09-14T08:57:14Z</time>
      </trkpt>
      <trkpt lat="53.416654039174318" lon="12.261231020092964">
        <ele>84.25</ele>
        <time>2024-09-14T08:57:15Z</time>
      </trkpt>
      <trkpt lat="53.416565023362637" lon="12.261509969830513">
        <ele>83.769999999999996</ele>
        <time>2024-09-14T08:57:16Z</time>
      </trkpt>
      <trkpt lat="53.416462009772658" lon="12.261766036972404">
        <ele>83.290000000000006</ele>
        <time>2024-09-14T08:57:17Z</time>
      </trkpt>
      <trkpt lat="53.416341980919242" lon="12.261996036395431">
        <ele>83.290000000000006</ele>
        <time>2024-09-14T08:57:18Z</time>
      </trkpt>
      <trkpt lat="53.416205020621419" lon="12.262201979756355">
        <ele>83.769999999999996</ele>
        <time>2024-09-14T08:57:19Z</time>
      </trkpt>
      <trkpt lat="53.41605699621141" lon="12.262386968359351">
        <ele>83.290000000000006</ele>
        <time>2024-09-14T08:57:20Z</time>
      </trkpt>
      <trkpt lat="53.414620002731681" lon="12.264384962618351">
        <ele>84.25</ele>
        <time>2024-09-14T08:57:29Z</time>
      </trkpt>
      <trkpt lat="53.412862988188863" lon="12.266819989308715">
        <ele>84.730000000000004</ele>
        <time>2024-09-14T08:57:39Z</time>
      </trkpt>
      <trkpt lat="53.411298003047705" lon="12.268982017412782">
        <ele>86.659999999999997</ele>
        <time>2024-09-14T08:57:49Z</time>
      </trkpt>
      <trkpt lat="53.409256003797054" lon="12.271799007430673">
        <ele>87.140000000000001</ele>
        <time>2024-09-14T08:58:01Z</time>
      </trkpt>
      <trkpt lat="53.407138986513019" lon="12.274728985503316">
        <ele>87.620000000000005</ele>
        <time>2024-09-14T08:58:14Z</time>
      </trkpt>
      <trkpt lat="53.404796998947859" lon="12.277975967153907">
        <ele>85.689999999999998</ele>
        <time>2024-09-14T08:58:28Z</time>
      </trkpt>
      <trkpt lat="53.403649013489485" lon="12.279558973386884">
        <ele>81.370000000000005</ele>
        <time>2024-09-14T08:58:36Z</time>
      </trkpt>
      <trkpt lat="53.403289010748267" lon="12.280075969174504">
        <ele>78.969999999999999</ele>
        <time>2024-09-14T08:58:39Z</time>
      </trkpt>
      <trkpt lat="53.403165964409709" lon="12.28023799136281">
        <ele>78.480000000000004</ele>
        <time>2024-09-14T08:58:40Z</time>
      </trkpt>
      <trkpt lat="53.401884958148003" lon="12.282033981755376">
        <ele>72.239999999999995</ele>
        <time>2024-09-14T08:58:50Z</time>
      </trkpt>
      <trkpt lat="53.40121298097074" lon="12.282980969175696">
        <ele>70.310000000000002</ele>
        <time>2024-09-14T08:58:55Z</time>
      </trkpt>
      <trkpt lat="53.40108398348093" lon="12.283161012455821">
        <ele>70.790000000000006</ele>
        <time>2024-09-14T08:58:56Z</time>
      </trkpt>
      <trkpt lat="53.399844970554113" lon="12.284869998693466">
        <ele>75.599999999999994</ele>
        <time>2024-09-14T08:59:05Z</time>
      </trkpt>
      <trkpt lat="53.398669995367527" lon="12.286493992432952">
        <ele>78.480000000000004</ele>
        <time>2024-09-14T08:59:12Z</time>
      </trkpt>
      <trkpt lat="53.39680602774024" lon="12.2890679910779">
        <ele>82.810000000000002</ele>
        <time>2024-09-14T08:59:24Z</time>
      </trkpt>
      <trkpt lat="53.396451976150274" lon="12.289556991308928">
        <ele>85.689999999999998</ele>
        <time>2024-09-14T08:59:28Z</time>
      </trkpt>
      <trkpt lat="53.396349968388677" lon="12.289697974920273">
        <ele>90.019999999999996</ele>
        <time>2024-09-14T08:59:34Z</time>
      </trkpt>
      <trkpt lat="53.396349968388677" lon="12.289697974920273">
        <ele>90.980000000000004</ele>
        <time>2024-09-14T08:59:47Z</time>
      </trkpt>
      <trkpt lat="53.396267993375659" lon="12.289621029049158">
        <ele>114.05</ele>
        <time>2024-09-14T09:02:55Z</time>
      </trkpt>
      <trkpt lat="53.396207978948951" lon="12.289649024605751">
        <ele>101.56</ele>
        <time>2024-09-14T09:03:35Z</time>
      </trkpt>
      <trkpt lat="53.396232035011053" lon="12.289680037647486">
        <ele>105.88</ele>
        <time>2024-09-14T09:04:10Z</time>
      </trkpt>
      <trkpt lat="53.396233040839434" lon="12.289723958820105">
        <ele>104.92</ele>
        <time>2024-09-14T09:04:12Z</time>
      </trkpt>
      <trkpt lat="53.396252989768982" lon="12.289832001551986">
        <ele>104.44</ele>
        <time>2024-09-14T09:04:14Z</time>
      </trkpt>
      <trkpt lat="53.396222982555628" lon="12.289873994886875">
        <ele>104.44</ele>
        <time>2024-09-14T09:04:15Z</time>
      </trkpt>
      <trkpt lat="53.396178977563977" lon="12.289934009313583">
        <ele>103.95999999999999</ele>
        <time>2024-09-14T09:04:16Z</time>
      </trkpt>
      <trkpt lat="53.39611804112792" lon="12.290017995983362">
        <ele>103.48</ele>
        <time>2024-09-14T09:04:17Z</time>
      </trkpt>
      <trkpt lat="53.395499959588051" lon="12.29087202809751">
        <ele>102.04000000000001</ele>
        <time>2024-09-14T09:04:22Z</time>
      </trkpt>
      <trkpt lat="53.394343005493283" lon="12.292470959946513">
        <ele>101.56</ele>
        <time>2024-09-14T09:04:29Z</time>
      </trkpt>
      <trkpt lat="53.392819007858634" lon="12.294575991109014">
        <ele>100.59999999999999</ele>
        <time>2024-09-14T09:04:37Z</time>
      </trkpt>
      <trkpt lat="53.391743022948503" lon="12.296062018722296">
        <ele>99.629999999999995</ele>
        <time>2024-09-14T09:04:44Z</time>
      </trkpt>
      <trkpt lat="53.390577016398311" lon="12.297672014683485">
        <ele>98.189999999999998</ele>
        <time>2024-09-14T09:04:52Z</time>
      </trkpt>
      <trkpt lat="53.389255022630095" lon="12.299540005624294">
        <ele>97.709999999999994</ele>
        <time>2024-09-14T09:05:00Z</time>
      </trkpt>
      <trkpt lat="53.38810795918107" lon="12.301427023485303">
        <ele>97.230000000000004</ele>
        <time>2024-09-14T09:05:07Z</time>
      </trkpt>
      <trkpt lat="53.38797602802515" lon="12.301736986264586">
        <ele>97.709999999999994</ele>
        <time>2024-09-14T09:05:08Z</time>
      </trkpt>
      <trkpt lat="53.3869459759444" lon="12.30430101044476">
        <ele>99.629999999999995</ele>
        <time>2024-09-14T09:05:16Z</time>
      </trkpt>
      <trkpt lat="53.385919025167823" lon="12.307026972994208">
        <ele>96.75</ele>
        <time>2024-09-14T09:05:25Z</time>
      </trkpt>
      <trkpt lat="53.3849479816854" lon="12.309902971610427">
        <ele>93.870000000000005</ele>
        <time>2024-09-14T09:05:34Z</time>
      </trkpt>
      <trkpt lat="53.384261000901461" lon="12.313167974352837">
        <ele>90.019999999999996</ele>
        <time>2024-09-14T09:05:43Z</time>
      </trkpt>
      <trkpt lat="53.38372397236526" lon="12.315721018239856">
        <ele>87.140000000000001</ele>
        <time>2024-09-14T09:05:50Z</time>
      </trkpt>
      <trkpt lat="53.382996004074812" lon="12.319176960736513">
        <ele>86.659999999999997</ele>
        <time>2024-09-14T09:05:59Z</time>
      </trkpt>
      <trkpt lat="53.382053039968014" lon="12.323497999459505">
        <ele>90.019999999999996</ele>
        <time>2024-09-14T09:06:10Z</time>
      </trkpt>
      <trkpt lat="53.381428001448512" lon="12.326021958142519">
        <ele>90.5</ele>
        <time>2024-09-14T09:06:17Z</time>
      </trkpt>
      <trkpt lat="53.380777984857559" lon="12.328577013686299">
        <ele>88.099999999999994</ele>
        <time>2024-09-14T09:06:25Z</time>
      </trkpt>
      <trkpt lat="53.380239028483629" lon="12.330683972686529">
        <ele>86.180000000000007</ele>
        <time>2024-09-14T09:06:32Z</time>
      </trkpt>
      <trkpt lat="53.379540983587503" lon="12.3333690315485">
        <ele>80.890000000000001</ele>
        <time>2024-09-14T09:06:41Z</time>
      </trkpt>
      <trkpt lat="53.379171006381512" lon="12.334819016978145">
        <ele>76.560000000000002</ele>
        <time>2024-09-14T09:06:47Z</time>
      </trkpt>
      <trkpt lat="53.378854002803564" lon="12.336660018190742">
        <ele>75.120000000000005</ele>
        <time>2024-09-14T09:06:56Z</time>
      </trkpt>
      <trkpt lat="53.378644958138466" lon="12.338790027424693">
        <ele>75.599999999999994</ele>
        <time>2024-09-14T09:07:06Z</time>
      </trkpt>
      <trkpt lat="53.378286967054009" lon="12.340583000332117">
        <ele>76.560000000000002</ele>
        <time>2024-09-14T09:07:15Z</time>
      </trkpt>
      <trkpt lat="53.377654971554875" lon="12.342375973239541">
        <ele>78.480000000000004</ele>
        <time>2024-09-14T09:07:22Z</time>
      </trkpt>
      <trkpt lat="53.376415958628058" lon="12.345387004315853">
        <ele>83.769999999999996</ele>
        <time>2024-09-14T09:07:33Z</time>
      </trkpt>
      <trkpt lat="53.374934960156679" lon="12.349044028669596">
        <ele>89.060000000000002</ele>
        <time>2024-09-14T09:07:45Z</time>
      </trkpt>
      <trkpt lat="53.373785968869925" lon="12.351831011474133">
        <ele>92.420000000000002</ele>
        <time>2024-09-14T09:07:55Z</time>
      </trkpt>
      <trkpt lat="53.372359033674002" lon="12.355374963954091">
        <ele>88.579999999999998</ele>
        <time>2024-09-14T09:08:08Z</time>
      </trkpt>
      <trkpt lat="53.371256981045008" lon="12.358623035252094">
        <ele>92.900000000000006</ele>
        <time>2024-09-14T09:08:18Z</time>
      </trkpt>
      <trkpt lat="53.369880001991987" lon="12.362959999591112">
        <ele>96.75</ele>
        <time>2024-09-14T09:08:31Z</time>
      </trkpt>
      <trkpt lat="53.368831006810069" lon="12.366338996216655">
        <ele>101.56</ele>
        <time>2024-09-14T09:08:41Z</time>
      </trkpt>
      <trkpt lat="53.36814402602613" lon="12.369429990649223">
        <ele>102.04000000000001</ele>
        <time>2024-09-14T09:08:50Z</time>
      </trkpt>
      <trkpt lat="53.367236014455557" lon="12.374574970453978">
        <ele>96.75</ele>
        <time>2024-09-14T09:09:04Z</time>
      </trkpt>
      <trkpt lat="53.366449037566781" lon="12.379115028306842">
        <ele>94.829999999999998</ele>
        <time>2024-09-14T09:09:16Z</time>
      </trkpt>
      <trkpt lat="53.365735989063978" lon="12.383184023201466">
        <ele>90.5</ele>
        <time>2024-09-14T09:09:27Z</time>
      </trkpt>
      <trkpt lat="53.364954041317105" lon="12.38759801723063">
        <ele>84.730000000000004</ele>
        <time>2024-09-14T09:09:39Z</time>
      </trkpt>
      <trkpt lat="53.364459006115794" lon="12.391324024647474">
        <ele>86.180000000000007</ele>
        <time>2024-09-14T09:09:48Z</time>
      </trkpt>
      <trkpt lat="53.36447199806571" lon="12.393829040229321">
        <ele>89.060000000000002</ele>
        <time>2024-09-14T09:09:54Z</time>
      </trkpt>
      <trkpt lat="53.36464399471879" lon="12.397944973781705">
        <ele>89.540000000000006</ele>
        <time>2024-09-14T09:10:04Z</time>
      </trkpt>
      <trkpt lat="53.364959992468357" lon="12.402391992509365">
        <ele>89.060000000000002</ele>
        <time>2024-09-14T09:10:14Z</time>
      </trkpt>
      <trkpt lat="53.365229973569512" lon="12.406185977160931">
        <ele>87.620000000000005</ele>
        <time>2024-09-14T09:10:23Z</time>
      </trkpt>
      <trkpt lat="53.365471959114075" lon="12.409547036513686">
        <ele>87.620000000000005</ele>
        <time>2024-09-14T09:10:31Z</time>
      </trkpt>
      <trkpt lat="53.365702964365482" lon="12.413457026705146">
        <ele>85.209999999999994</ele>
        <time>2024-09-14T09:10:40Z</time>
      </trkpt>
      <trkpt lat="53.365688966587186" lon="12.416393961757421">
        <ele>85.209999999999994</ele>
        <time>2024-09-14T09:10:48Z</time>
      </trkpt>
      <trkpt lat="53.365617971867323" lon="12.420677030459046">
        <ele>82.810000000000002</ele>
        <time>2024-09-14T09:10:59Z</time>
      </trkpt>
      <trkpt lat="53.365521999076009" lon="12.421052036806941">
        <ele>82.329999999999998</ele>
        <time>2024-09-14T09:11:00Z</time>
      </trkpt>
      <trkpt lat="53.365425020456314" lon="12.421424025669694">
        <ele>81.849999999999994</ele>
        <time>2024-09-14T09:11:01Z</time>
      </trkpt>
      <trkpt lat="53.365310020744801" lon="12.42180498316884">
        <ele>81.849999999999994</ele>
        <time>2024-09-14T09:11:02Z</time>
      </trkpt>
      <trkpt lat="53.364594038575888" lon="12.423978997394443">
        <ele>79.930000000000007</ele>
        <time>2024-09-14T09:11:08Z</time>
      </trkpt>
      <trkpt lat="53.36451499722898" lon="12.424390967935324">
        <ele>79.930000000000007</ele>
        <time>2024-09-14T09:11:09Z</time>
      </trkpt>
      <trkpt lat="53.364488007500768" lon="12.424836969003081">
        <ele>79.930000000000007</ele>
        <time>2024-09-14T09:11:10Z</time>
      </trkpt>
      <trkpt lat="53.364479960873723" lon="12.427701987326145">
        <ele>80.409999999999997</ele>
        <time>2024-09-14T09:11:17Z</time>
      </trkpt>
      <trkpt lat="53.364493036642671" lon="12.432193011045456">
        <ele>80.890000000000001</ele>
        <time>2024-09-14T09:11:29Z</time>
      </trkpt>
      <trkpt lat="53.364522960036993" lon="12.43579002097249">
        <ele>79.450000000000003</ele>
        <time>2024-09-14T09:11:38Z</time>
      </trkpt>
      <trkpt lat="53.364546010270715" lon="12.4408820271492">
        <ele>78.480000000000004</ele>
        <time>2024-09-14T09:11:50Z</time>
      </trkpt>
      <trkpt lat="53.364562019705772" lon="12.445532977581024">
        <ele>78.969999999999999</ele>
        <time>2024-09-14T09:12:01Z</time>
      </trkpt>
      <trkpt lat="53.364660004153848" lon="12.449264014139771">
        <ele>79.450000000000003</ele>
        <time>2024-09-14T09:12:10Z</time>
      </trkpt>
      <trkpt lat="53.365181023254991" lon="12.452976023778319">
        <ele>76.079999999999998</ele>
        <time>2024-09-14T09:12:19Z</time>
      </trkpt>
      <trkpt lat="53.365500960499048" lon="12.455183984711766">
        <ele>73.200000000000003</ele>
        <time>2024-09-14T09:12:25Z</time>
      </trkpt>
      <trkpt lat="53.366018962115049" lon="12.458768002688885">
        <ele>72.239999999999995</ele>
        <time>2024-09-14T09:12:37Z</time>
      </trkpt>
      <trkpt lat="53.366521960124373" lon="12.462142976000905">
        <ele>70.790000000000006</ele>
        <time>2024-09-14T09:12:49Z</time>
      </trkpt>
      <trkpt lat="53.366957986727357" lon="12.465188959613442">
        <ele>69.829999999999998</ele>
        <time>2024-09-14T09:13:00Z</time>
      </trkpt>
      <trkpt lat="53.367054965347052" lon="12.465913994237781">
        <ele>71.760000000000005</ele>
        <time>2024-09-14T09:13:04Z</time>
      </trkpt>
      <trkpt lat="53.367078015580773" lon="12.466042991727591">
        <ele>72.239999999999995</ele>
        <time>2024-09-14T09:13:05Z</time>
      </trkpt>
      <trkpt lat="53.367048008367419" lon="12.466226974502206">
        <ele>72.719999999999999</ele>
        <time>2024-09-14T09:13:06Z</time>
      </trkpt>
      <trkpt lat="53.366991011425853" lon="12.466324036940932">
        <ele>73.680000000000007</ele>
        <time>2024-09-14T09:13:07Z</time>
      </trkpt>
      <trkpt lat="53.366991011425853" lon="12.466446999460459">
        <ele>74.159999999999997</ele>
        <time>2024-09-14T09:13:08Z</time>
      </trkpt>
      <trkpt lat="53.367035016417503" lon="12.466544983908534">
        <ele>74.640000000000001</ele>
        <time>2024-09-14T09:13:09Z</time>
      </trkpt>
      <trkpt lat="53.367085978388786" lon="12.4666210077703">
        <ele>74.640000000000001</ele>
        <time>2024-09-14T09:13:10Z</time>
      </trkpt>
      <trkpt lat="53.367119003087282" lon="12.466671969741583">
        <ele>75.120000000000005</ele>
        <time>2024-09-14T09:13:11Z</time>
      </trkpt>
      <trkpt lat="53.367253029718995" lon="12.466727960854769">
        <ele>75.599999999999994</ele>
        <time>2024-09-14T09:13:12Z</time>
      </trkpt>
      <trkpt lat="53.367298962548375" lon="12.466860981658101">
        <ele>75.599999999999994</ele>
        <time>2024-09-14T09:13:13Z</time>
      </trkpt>
      <trkpt lat="53.367371968924999" lon="12.467020992189646">
        <ele>76.079999999999998</ele>
        <time>2024-09-14T09:13:14Z</time>
      </trkpt>
      <trkpt lat="53.367785029113293" lon="12.46872796677053">
        <ele>78.969999999999999</ele>
        <time>2024-09-14T09:13:22Z</time>
      </trkpt>
      <trkpt lat="53.367879996076226" lon="12.46945702470839">
        <ele>78.969999999999999</ele>
        <time>2024-09-14T09:13:27Z</time>
      </trkpt>
      <trkpt lat="53.36788896471262" lon="12.469570012763143">
        <ele>78.969999999999999</ele>
        <time>2024-09-14T09:13:28Z</time>
      </trkpt>
      <trkpt lat="53.367796009406447" lon="12.469821972772479">
        <ele>78.969999999999999</ele>
        <time>2024-09-14T09:13:30Z</time>
      </trkpt>
      <trkpt lat="53.367785029113293" lon="12.469933032989502">
        <ele>78.969999999999999</ele>
        <time>2024-09-14T09:13:31Z</time>
      </trkpt>
      <trkpt lat="53.367856023833156" lon="12.470061024650931">
        <ele>78.480000000000004</ele>
        <time>2024-09-14T09:13:32Z</time>
      </trkpt>
      <trkpt lat="53.367970017716289" lon="12.47036000713706">
        <ele>78</ele>
        <time>2024-09-14T09:13:34Z</time>
      </trkpt>
      <trkpt lat="53.367984015494585" lon="12.470550024881959">
        <ele>78</ele>
        <time>2024-09-14T09:13:35Z</time>
      </trkpt>
      <trkpt lat="53.368042018264532" lon="12.472350038588047">
        <ele>74.640000000000001</ele>
        <time>2024-09-14T09:13:42Z</time>
      </trkpt>
      <trkpt lat="53.367825010791421" lon="12.474891012534499">
        <ele>70.310000000000002</ele>
        <time>2024-09-14T09:13:51Z</time>
      </trkpt>
      <trkpt lat="53.367073992267251" lon="12.47708497568965">
        <ele>71.760000000000005</ele>
        <time>2024-09-14T09:14:00Z</time>
      </trkpt>
      <trkpt lat="53.3657590392977" lon="12.479515979066491">
        <ele>73.680000000000007</ele>
        <time>2024-09-14T09:14:11Z</time>
      </trkpt>
      <trkpt lat="53.364332020282745" lon="12.482125014066696">
        <ele>73.200000000000003</ele>
        <time>2024-09-14T09:14:22Z</time>
      </trkpt>
      <trkpt lat="53.363170037046075" lon="12.48417497612536">
        <ele>73.680000000000007</ele>
        <time>2024-09-14T09:14:31Z</time>
      </trkpt>
      <trkpt lat="53.361663976684213" lon="12.487119035795331">
        <ele>73.200000000000003</ele>
        <time>2024-09-14T09:14:43Z</time>
      </trkpt>
      <trkpt lat="53.361512012779713" lon="12.487717000767589">
        <ele>73.680000000000007</ele>
        <time>2024-09-14T09:14:45Z</time>
      </trkpt>
      <trkpt lat="53.361468007788062" lon="12.488044984638691">
        <ele>73.680000000000007</ele>
        <time>2024-09-14T09:14:46Z</time>
      </trkpt>
      <trkpt lat="53.361424002796412" lon="12.488371040672064">
        <ele>73.680000000000007</ele>
        <time>2024-09-14T09:14:47Z</time>
      </trkpt>
      <trkpt lat="53.361386032775044" lon="12.488691983744502">
        <ele>73.680000000000007</ele>
        <time>2024-09-14T09:14:48Z</time>
      </trkpt>
      <trkpt lat="53.361367005854845" lon="12.489022985100746">
        <ele>73.680000000000007</ele>
        <time>2024-09-14T09:14:49Z</time>
      </trkpt>
      <trkpt lat="53.361229039728642" lon="12.492121020331979">
        <ele>74.640000000000001</ele>
        <time>2024-09-14T09:14:59Z</time>
      </trkpt>
      <trkpt lat="53.361166007816792" lon="12.493873005732894">
        <ele>74.159999999999997</ele>
        <time>2024-09-14T09:15:06Z</time>
      </trkpt>
      <trkpt lat="53.361072968691587" lon="12.49461798928678">
        <ele>73.680000000000007</ele>
        <time>2024-09-14T09:15:12Z</time>
      </trkpt>
      <trkpt lat="53.361065005883574" lon="12.494682027027011">
        <ele>73.680000000000007</ele>
        <time>2024-09-14T09:15:21Z</time>
      </trkpt>
      <trkpt lat="53.361009014770389" lon="12.495049992576241">
        <ele>74.159999999999997</ele>
        <time>2024-09-14T09:15:26Z</time>
      </trkpt>
      <trkpt lat="53.361053019762039" lon="12.495141020044684">
        <ele>74.159999999999997</ele>
        <time>2024-09-14T09:15:27Z</time>
      </trkpt>
      <trkpt lat="53.361105993390083" lon="12.495202962309122">
        <ele>74.159999999999997</ele>
        <time>2024-09-14T09:15:28Z</time>
      </trkpt>
      <trkpt lat="53.361173970624804" lon="12.495285021141171">
        <ele>73.680000000000007</ele>
        <time>2024-09-14T09:15:29Z</time>
      </trkpt>
      <trkpt lat="53.361247982829809" lon="12.495398009195924">
        <ele>73.680000000000007</ele>
        <time>2024-09-14T09:15:30Z</time>
      </trkpt>
      <trkpt lat="53.361305985599756" lon="12.495513008907437">
        <ele>73.680000000000007</ele>
        <time>2024-09-14T09:15:31Z</time>
      </trkpt>
      <trkpt lat="53.361363988369703" lon="12.495630020275712">
        <ele>73.680000000000007</ele>
        <time>2024-09-14T09:15:32Z</time>
      </trkpt>
      <trkpt lat="53.36142199113965" lon="12.495747031643987">
        <ele>73.680000000000007</ele>
        <time>2024-09-14T09:15:33Z</time>
      </trkpt>
      <trkpt lat="53.361469013616443" lon="12.49588499777019">
        <ele>73.200000000000003</ele>
        <time>2024-09-14T09:15:34Z</time>
      </trkpt>
      <trkpt lat="53.361500026658177" lon="12.49603696167469">
        <ele>73.200000000000003</ele>
        <time>2024-09-14T09:15:35Z</time>
      </trkpt>
      <trkpt lat="53.361532967537642" lon="12.496202001348138">
        <ele>73.200000000000003</ele>
        <time>2024-09-14T09:15:36Z</time>
      </trkpt>
      <trkpt lat="53.361568003892899" lon="12.49637802131474">
        <ele>73.200000000000003</ele>
        <time>2024-09-14T09:15:37Z</time>
      </trkpt>
      <trkpt lat="53.361812001094222" lon="12.498147021979094">
        <ele>72.239999999999995</ele>
        <time>2024-09-14T09:15:45Z</time>
      </trkpt>
      <trkpt lat="53.362077036872506" lon="12.500552041456103">
        <ele>72.719999999999999</ele>
        <time>2024-09-14T09:15:57Z</time>
      </trkpt>
      <trkpt lat="53.362077036872506" lon="12.500711968168616">
        <ele>72.719999999999999</ele>
        <time>2024-09-14T09:15:58Z</time>
      </trkpt>
      <trkpt lat="53.362077036872506" lon="12.500856975093484">
        <ele>72.719999999999999</ele>
        <time>2024-09-14T09:15:59Z</time>
      </trkpt>
      <trkpt lat="53.362039988860488" lon="12.501270035281777">
        <ele>72.239999999999995</ele>
        <time>2024-09-14T09:16:02Z</time>
      </trkpt>
      <trkpt lat="53.36202003993094" lon="12.501419987529516">
        <ele>71.760000000000005</ele>
        <time>2024-09-14T09:16:03Z</time>
      </trkpt>
      <trkpt lat="53.361962959170341" lon="12.501858025789261">
        <ele>71.760000000000005</ele>
        <time>2024-09-14T09:16:06Z</time>
      </trkpt>
      <trkpt lat="53.361943010240793" lon="12.502001021057367">
        <ele>71.760000000000005</ele>
        <time>2024-09-14T09:16:07Z</time>
      </trkpt>
      <trkpt lat="53.361922977492213" lon="12.502148961648345">
        <ele>71.760000000000005</ele>
        <time>2024-09-14T09:16:08Z</time>
      </trkpt>
      <trkpt lat="53.361761039122939" lon="12.503373976796865">
        <ele>71.760000000000005</ele>
        <time>2024-09-14T09:16:16Z</time>
      </trkpt>
      <trkpt lat="53.361630029976368" lon="12.504409980028868">
        <ele>73.200000000000003</ele>
        <time>2024-09-14T09:16:22Z</time>
      </trkpt>
      <trkpt lat="53.361604968085885" lon="12.504612989723682">
        <ele>73.200000000000003</ele>
        <time>2024-09-14T09:16:24Z</time>
      </trkpt>
      <trkpt lat="53.361594993621111" lon="12.50469203107059">
        <ele>73.200000000000003</ele>
        <time>2024-09-14T09:16:25Z</time>
      </trkpt>
      <trkpt lat="53.361586024984717" lon="12.504761014133692">
        <ele>73.680000000000007</ele>
        <time>2024-09-14T09:16:26Z</time>
      </trkpt>
      <trkpt lat="53.361576972529292" lon="12.504822034388781">
        <ele>73.680000000000007</ele>
        <time>2024-09-14T09:16:27Z</time>
      </trkpt>
      <trkpt lat="53.36157102137804" lon="12.50486696138978">
        <ele>73.680000000000007</ele>
        <time>2024-09-14T09:16:28Z</time>
      </trkpt>
      <trkpt lat="53.361564986407757" lon="12.504905015230179">
        <ele>74.159999999999997</ele>
        <time>2024-09-14T09:16:29Z</time>
      </trkpt>
      <trkpt lat="53.361560963094234" lon="12.504933010786772">
        <ele>74.159999999999997</ele>
        <time>2024-09-14T09:16:30Z</time>
      </trkpt>
      <trkpt lat="53.361557023599744" lon="12.504960000514984">
        <ele>74.159999999999997</ele>
        <time>2024-09-14T09:16:31Z</time>
      </trkpt>
      <trkpt lat="53.361543025821447" lon="12.504764031618834">
        <ele>74.159999999999997</ele>
        <time>2024-09-14T09:16:32Z</time>
      </trkpt>
      <trkpt lat="53.361554006114602" lon="12.504768976941705">
        <ele>74.159999999999997</ele>
        <time>2024-09-14T09:16:33Z</time>
      </trkpt>
      <trkpt lat="53.361558029428124" lon="12.504948014393449">
        <ele>74.159999999999997</ele>
        <time>2024-09-14T09:16:36Z</time>
      </trkpt>
      <trkpt lat="53.361564986407757" lon="12.504908032715321">
        <ele>74.159999999999997</ele>
        <time>2024-09-14T09:16:37Z</time>
      </trkpt>
      <trkpt lat="53.361577978357673" lon="12.504815999418497">
        <ele>74.159999999999997</ele>
        <time>2024-09-14T09:16:38Z</time>
      </trkpt>
      <trkpt lat="53.361597005277872" lon="12.504669986665249">
        <ele>74.159999999999997</ele>
        <time>2024-09-14T09:16:39Z</time>
      </trkpt>
      <trkpt lat="53.361619971692562" lon="12.504493966698647">
        <ele>74.159999999999997</ele>
        <time>2024-09-14T09:16:40Z</time>
      </trkpt>
      <trkpt lat="53.361838990822434" lon="12.502766037359834">
        <ele>74.159999999999997</ele>
        <time>2024-09-14T09:16:47Z</time>
      </trkpt>
      <trkpt lat="53.362077036872506" lon="12.500652959570289">
        <ele>70.310000000000002</ele>
        <time>2024-09-14T09:16:56Z</time>
      </trkpt>
      <trkpt lat="53.362077036872506" lon="12.500464031472802">
        <ele>69.349999999999994</ele>
        <time>2024-09-14T09:16:58Z</time>
      </trkpt>
      <trkpt lat="53.362176027148962" lon="12.500298991799355">
        <ele>68.870000000000005</ele>
        <time>2024-09-14T09:16:59Z</time>
      </trkpt>
      <trkpt lat="53.362212991341949" lon="12.500322964042425">
        <ele>67.909999999999997</ele>
        <time>2024-09-14T09:17:00Z</time>
      </trkpt>
      <trkpt lat="53.362265964969993" lon="12.500360012054443">
        <ele>67.430000000000007</ele>
        <time>2024-09-14T09:17:01Z</time>
      </trkpt>
      <trkpt lat="53.362339977174997" lon="12.500409968197346">
        <ele>66.950000000000003</ele>
        <time>2024-09-14T09:17:02Z</time>
      </trkpt>
      <trkpt lat="53.362426981329918" lon="12.500467970967293">
        <ele>65.989999999999995</ele>
        <time>2024-09-14T09:17:03Z</time>
      </trkpt>
      <trkpt lat="53.362527983263135" lon="12.500537959858775">
        <ele>65.510000000000005</ele>
        <time>2024-09-14T09:17:04Z</time>
      </trkpt>
      <trkpt lat="53.363506989553571" lon="12.50119099393487">
        <ele>64.549999999999997</ele>
        <time>2024-09-14T09:17:11Z</time>
      </trkpt>
      <trkpt lat="53.364867037162185" lon="12.502129012718797">
        <ele>65.989999999999995</ele>
        <time>2024-09-14T09:17:20Z</time>
      </trkpt>
      <trkpt lat="53.36614896543324" lon="12.503015985712409">
        <ele>66.950000000000003</ele>
        <time>2024-09-14T09:17:29Z</time>
      </trkpt>
      <trkpt lat="53.36840302683413" lon="12.504575019702315">
        <ele>65.989999999999995</ele>
        <time>2024-09-14T09:17:43Z</time>
      </trkpt>
      <trkpt lat="53.369741030037403" lon="12.505482025444508">
        <ele>65.030000000000001</ele>
        <time>2024-09-14T09:17:53Z</time>
      </trkpt>
      <trkpt lat="53.370262971147895" lon="12.505852002650499">
        <ele>65.510000000000005</ele>
        <time>2024-09-14T09:18:02Z</time>
      </trkpt>
      <trkpt lat="53.37042398750782" lon="12.505906987935305">
        <ele>65.510000000000005</ele>
        <time>2024-09-14T09:18:04Z</time>
      </trkpt>
      <trkpt lat="53.370504034683108" lon="12.505927020683885">
        <ele>65.030000000000001</ele>
        <time>2024-09-14T09:18:05Z</time>
      </trkpt>
      <trkpt lat="53.370786001905799" lon="12.505975970998406">
        <ele>64.069999999999993</ele>
        <time>2024-09-14T09:18:08Z</time>
      </trkpt>
      <trkpt lat="53.371252035722136" lon="12.505925009027123">
        <ele>61.659999999999997</ele>
        <time>2024-09-14T09:18:15Z</time>
      </trkpt>
      <trkpt lat="53.371284976601601" lon="12.505921991541982">
        <ele>61.18</ele>
        <time>2024-09-14T09:18:16Z</time>
      </trkpt>
      <trkpt lat="53.371348008513451" lon="12.505915034562349">
        <ele>60.700000000000003</ele>
        <time>2024-09-14T09:18:20Z</time>
      </trkpt>
      <trkpt lat="53.371358988806605" lon="12.505914028733969">
        <ele>60.700000000000003</ele>
        <time>2024-09-14T09:18:21Z</time>
      </trkpt>
      <trkpt lat="53.371366029605269" lon="12.505913022905588">
        <ele>60.219999999999999</ele>
        <time>2024-09-14T09:18:22Z</time>
      </trkpt>
      <trkpt lat="53.371356977149844" lon="12.505914028733969">
        <ele>59.259999999999998</ele>
        <time>2024-09-14T09:18:26Z</time>
      </trkpt>
      <trkpt lat="53.371339039877057" lon="12.505915034562349">
        <ele>59.259999999999998</ele>
        <time>2024-09-14T09:18:27Z</time>
      </trkpt>
      <trkpt lat="53.371295034885406" lon="12.505919979885221">
        <ele>59.259999999999998</ele>
        <time>2024-09-14T09:18:28Z</time>
      </trkpt>
      <trkpt lat="53.370609981939197" lon="12.505954010412097">
        <ele>61.659999999999997</ele>
        <time>2024-09-14T09:18:34Z</time>
      </trkpt>
      <trkpt lat="53.369953008368611" lon="12.505631977692246">
        <ele>65.989999999999995</ele>
        <time>2024-09-14T09:18:41Z</time>
      </trkpt>
      <trkpt lat="53.369771959260106" lon="12.505503986030817">
        <ele>67.909999999999997</ele>
        <time>2024-09-14T09:18:46Z</time>
      </trkpt>
      <trkpt lat="53.369771037250757" lon="12.505501974374056">
        <ele>68.870000000000005</ele>
        <time>2024-09-14T09:18:51Z</time>
      </trkpt>
      <trkpt lat="53.369881007820368" lon="12.505183964967728">
        <ele>69.349999999999994</ele>
        <time>2024-09-14T09:18:53Z</time>
      </trkpt>
      <trkpt lat="53.370209997519851" lon="12.504554986953735">
        <ele>71.760000000000005</ele>
        <time>2024-09-14T09:19:05Z</time>
      </trkpt>
      <trkpt lat="53.370217960327864" lon="12.504382990300655">
        <ele>71.760000000000005</ele>
        <time>2024-09-14T09:19:08Z</time>
      </trkpt>
      <trkpt lat="53.370177978649735" lon="12.503922991454601">
        <ele>71.760000000000005</ele>
        <time>2024-09-14T09:19:13Z</time>
      </trkpt>
      <trkpt lat="53.370119975879788" lon="12.503626020625234">
        <ele>71.269999999999996</ele>
        <time>2024-09-14T09:19:16Z</time>
      </trkpt>
      <trkpt lat="53.370085023343563" lon="12.503183037042618">
        <ele>70.790000000000006</ele>
        <time>2024-09-14T09:19:20Z</time>
      </trkpt>
      <trkpt lat="53.370077982544899" lon="12.502956977114081">
        <ele>70.790000000000006</ele>
        <time>2024-09-14T09:19:22Z</time>
      </trkpt>
      <trkpt lat="53.370029032230377" lon="12.502534026280046">
        <ele>70.790000000000006</ele>
        <time>2024-09-14T09:19:26Z</time>
      </trkpt>
      <trkpt lat="53.369954014196992" lon="12.501975037157536">
        <ele>71.269999999999996</ele>
        <time>2024-09-14T09:19:31Z</time>
      </trkpt>
      <trkpt lat="53.369783023372293" lon="12.501243967562914">
        <ele>73.200000000000003</ele>
        <time>2024-09-14T09:19:38Z</time>
      </trkpt>
      <trkpt lat="53.369745975360274" lon="12.5011479947716">
        <ele>73.200000000000003</ele>
        <time>2024-09-14T09:19:39Z</time>
      </trkpt>
      <trkpt lat="53.369468031451106" lon="12.50041700899601">
        <ele>75.599999999999994</ele>
        <time>2024-09-14T09:19:47Z</time>
      </trkpt>
      <trkpt lat="53.369264015927911" lon="12.500130012631416">
        <ele>75.120000000000005</ele>
        <time>2024-09-14T09:19:56Z</time>
      </trkpt>
      <trkpt lat="53.369233002886176" lon="12.500058012083173">
        <ele>75.120000000000005</ele>
        <time>2024-09-14T09:20:08Z</time>
      </trkpt>
      <trkpt lat="53.369228979572654" lon="12.499948041513562">
        <ele>108.29000000000001</ele>
        <time>2024-09-14T09:46:22Z</time>
      </trkpt>
      <trkpt lat="53.369158990681171" lon="12.500043008476496">
        <ele>84.25</ele>
        <time>2024-09-14T09:46:34Z</time>
      </trkpt>
      <trkpt lat="53.369140969589353" lon="12.499979976564646">
        <ele>71.760000000000005</ele>
        <time>2024-09-14T09:47:08Z</time>
      </trkpt>
      <trkpt lat="53.369187992066145" lon="12.500008977949619">
        <ele>69.349999999999994</ele>
        <time>2024-09-14T09:47:52Z</time>
      </trkpt>
      <trkpt lat="53.369211964309216" lon="12.500033034011722">
        <ele>69.829999999999998</ele>
        <time>2024-09-14T09:48:31Z</time>
      </trkpt>
      <trkpt lat="53.369211964309216" lon="12.500034039840102">
        <ele>69.829999999999998</ele>
        <time>2024-09-14T09:49:16Z</time>
      </trkpt>
      <trkpt lat="53.369179023429751" lon="12.500080978497863">
        <ele>67.909999999999997</ele>
        <time>2024-09-14T09:49:48Z</time>
      </trkpt>
      <trkpt lat="53.369184974581003" lon="12.50009598210454">
        <ele>66.469999999999999</ele>
        <time>2024-09-14T09:49:50Z</time>
      </trkpt>
      <trkpt lat="53.36934900842607" lon="12.500118026509881">
        <ele>62.140000000000001</ele>
        <time>2024-09-14T09:50:01Z</time>
      </trkpt>
      <trkpt lat="53.369426960125566" lon="12.500206958502531">
        <ele>61.18</ele>
        <time>2024-09-14T09:50:03Z</time>
      </trkpt>
      <trkpt lat="53.369553023949265" lon="12.50044098123908">
        <ele>59.259999999999998</ele>
        <time>2024-09-14T09:50:07Z</time>
      </trkpt>
      <trkpt lat="53.369824010878801" lon="12.501227036118507">
        <ele>56.369999999999997</ele>
        <time>2024-09-14T09:50:18Z</time>
      </trkpt>
      <trkpt lat="53.369978992268443" lon="12.501974031329155">
        <ele>56.859999999999999</ele>
        <time>2024-09-14T09:50:26Z</time>
      </trkpt>
      <trkpt lat="53.370054010301828" lon="12.50241600908339">
        <ele>58.299999999999997</ele>
        <time>2024-09-14T09:50:31Z</time>
      </trkpt>
      <trkpt lat="53.370110001415014" lon="12.502877013757825">
        <ele>59.740000000000002</ele>
        <time>2024-09-14T09:50:36Z</time>
      </trkpt>
      <trkpt lat="53.370154006406665" lon="12.503667008131742">
        <ele>63.100000000000001</ele>
        <time>2024-09-14T09:50:44Z</time>
      </trkpt>
      <trkpt lat="53.370238998904824" lon="12.504348959773779">
        <ele>63.579999999999998</ele>
        <time>2024-09-14T09:50:52Z</time>
      </trkpt>
      <trkpt lat="53.369958959519863" lon="12.505008028820157">
        <ele>65.989999999999995</ele>
        <time>2024-09-14T09:50:59Z</time>
      </trkpt>
      <trkpt lat="53.3697360008955" lon="12.505478002130985">
        <ele>67.430000000000007</ele>
        <time>2024-09-14T09:51:07Z</time>
      </trkpt>
      <trkpt lat="53.36973499506712" lon="12.505437014624476">
        <ele>67.909999999999997</ele>
        <time>2024-09-14T09:51:12Z</time>
      </trkpt>
      <trkpt lat="53.369737006723881" lon="12.505479007959366">
        <ele>67.909999999999997</ele>
        <time>2024-09-14T09:51:14Z</time>
      </trkpt>
      <trkpt lat="53.369770031422377" lon="12.505501974374056">
        <ele>67.909999999999997</ele>
        <time>2024-09-14T09:51:15Z</time>
      </trkpt>
      <trkpt lat="53.369824010878801" lon="12.505541034042835">
        <ele>67.430000000000007</ele>
        <time>2024-09-14T09:51:16Z</time>
      </trkpt>
      <trkpt lat="53.369912020862103" lon="12.505602976307273">
        <ele>67.430000000000007</ele>
        <time>2024-09-14T09:51:17Z</time>
      </trkpt>
      <trkpt lat="53.370156018063426" lon="12.505775978788733">
        <ele>66.950000000000003</ele>
        <time>2024-09-14T09:51:19Z</time>
      </trkpt>
      <trkpt lat="53.37029499001801" lon="12.505874969065189">
        <ele>66.950000000000003</ele>
        <time>2024-09-14T09:51:20Z</time>
      </trkpt>
      <trkpt lat="53.370437985286117" lon="12.505910005420446">
        <ele>66.469999999999999</ele>
        <time>2024-09-14T09:51:21Z</time>
      </trkpt>
      <trkpt lat="53.370587015524507" lon="12.505947975441813">
        <ele>66.469999999999999</ele>
        <time>2024-09-14T09:51:22Z</time>
      </trkpt>
      <trkpt lat="53.37072397582233" lon="12.50598200596869">
        <ele>66.469999999999999</ele>
        <time>2024-09-14T09:51:23Z</time>
      </trkpt>
      <trkpt lat="53.370916005223989" lon="12.505960967391729">
        <ele>66.469999999999999</ele>
        <time>2024-09-14T09:51:24Z</time>
      </trkpt>
      <trkpt lat="53.371084984391928" lon="12.505943030118942">
        <ele>66.469999999999999</ele>
        <time>2024-09-14T09:51:25Z</time>
      </trkpt>
      <trkpt lat="53.372115036472678" lon="12.505831969901919">
        <ele>63.579999999999998</ele>
        <time>2024-09-14T09:51:31Z</time>
      </trkpt>
      <trkpt lat="53.372380994260311" lon="12.505783019587398">
        <ele>63.100000000000001</ele>
        <time>2024-09-14T09:51:33Z</time>
      </trkpt>
      <trkpt lat="53.372496999800205" lon="12.505737002938986">
        <ele>62.140000000000001</ele>
        <time>2024-09-14T09:51:34Z</time>
      </trkpt>
      <trkpt lat="53.372964039444923" lon="12.505550002679229">
        <ele>59.740000000000002</ele>
        <time>2024-09-14T09:51:38Z</time>
      </trkpt>
      <trkpt lat="53.373089013621211" lon="12.505514966323972">
        <ele>59.259999999999998</ele>
        <time>2024-09-14T09:51:39Z</time>
      </trkpt>
      <trkpt lat="53.373228991404176" lon="12.505542961880565">
        <ele>58.780000000000001</ele>
        <time>2024-09-14T09:51:40Z</time>
      </trkpt>
      <trkpt lat="53.373376009985805" lon="12.505611022934318">
        <ele>58.780000000000001</ele>
        <time>2024-09-14T09:51:41Z</time>
      </trkpt>
      <trkpt lat="53.373528979718685" lon="12.505701966583729">
        <ele>58.299999999999997</ele>
        <time>2024-09-14T09:51:42Z</time>
      </trkpt>
      <trkpt lat="53.373682033270597" lon="12.505792994052172">
        <ele>58.299999999999997</ele>
        <time>2024-09-14T09:51:43Z</time>
      </trkpt>
      <trkpt lat="53.373830979689956" lon="12.505881004035473">
        <ele>58.299999999999997</ele>
        <time>2024-09-14T09:51:44Z</time>
      </trkpt>
      <trkpt lat="53.373985039070249" lon="12.505959039554">
        <ele>58.299999999999997</ele>
        <time>2024-09-14T09:51:45Z</time>
      </trkpt>
      <trkpt lat="53.374137002974749" lon="12.505948981270194">
        <ele>58.780000000000001</ele>
        <time>2024-09-14T09:51:46Z</time>
      </trkpt>
      <trkpt lat="53.375970041379333" lon="12.505800034850836">
        <ele>62.140000000000001</ele>
        <time>2024-09-14T09:51:57Z</time>
      </trkpt>
      <trkpt lat="53.378358967602253" lon="12.505497029051185">
        <ele>68.870000000000005</ele>
        <time>2024-09-14T09:52:11Z</time>
      </trkpt>
      <trkpt lat="53.380055967718363" lon="12.505281027406454">
        <ele>68.870000000000005</ele>
        <time>2024-09-14T09:52:22Z</time>
      </trkpt>
      <trkpt lat="53.380980994552374" lon="12.505149012431502">
        <ele>65.989999999999995</ele>
        <time>2024-09-14T09:52:30Z</time>
      </trkpt>
      <trkpt lat="53.38127201423049" lon="12.505104001611471">
        <ele>64.549999999999997</ele>
        <time>2024-09-14T09:52:33Z</time>
      </trkpt>
      <trkpt lat="53.381363963708282" lon="12.505045998841524">
        <ele>64.069999999999993</ele>
        <time>2024-09-14T09:52:34Z</time>
      </trkpt>
      <trkpt lat="53.382139960303903" lon="12.504369998350739">
        <ele>61.18</ele>
        <time>2024-09-14T09:52:43Z</time>
      </trkpt>
      <trkpt lat="53.382399966940284" lon="12.504148967564106">
        <ele>61.18</ele>
        <time>2024-09-14T09:52:46Z</time>
      </trkpt>
      <trkpt lat="53.382483031600714" lon="12.504083001986146">
        <ele>61.18</ele>
        <time>2024-09-14T09:52:47Z</time>
      </trkpt>
      <trkpt lat="53.382704984396696" lon="12.503906982019544">
        <ele>60.700000000000003</ele>
        <time>2024-09-14T09:52:52Z</time>
      </trkpt>
      <trkpt lat="53.382731974124908" lon="12.503846967592835">
        <ele>61.18</ele>
        <time>2024-09-14T09:52:53Z</time>
      </trkpt>
      <trkpt lat="53.38271202519536" lon="12.503774967044592">
        <ele>61.18</ele>
        <time>2024-09-14T09:52:54Z</time>
      </trkpt>
      <trkpt lat="53.382686041295528" lon="12.503677988424897">
        <ele>61.18</ele>
        <time>2024-09-14T09:52:55Z</time>
      </trkpt>
      <trkpt lat="53.382656034082174" lon="12.503566006198525">
        <ele>61.18</ele>
        <time>2024-09-14T09:52:56Z</time>
      </trkpt>
      <trkpt lat="53.382295025512576" lon="12.502234037965536">
        <ele>60.700000000000003</ele>
        <time>2024-09-14T09:53:04Z</time>
      </trkpt>
      <trkpt lat="53.381947008892894" lon="12.500927969813347">
        <ele>62.619999999999997</ele>
        <time>2024-09-14T09:53:11Z</time>
      </trkpt>
      <trkpt lat="53.38185396976769" lon="12.500563021749258">
        <ele>62.619999999999997</ele>
        <time>2024-09-14T09:53:13Z</time>
      </trkpt>
      <trkpt lat="53.381818011403084" lon="12.500382978469133">
        <ele>62.619999999999997</ele>
        <time>2024-09-14T09:53:14Z</time>
      </trkpt>
      <trkpt lat="53.381818011403084" lon="12.500221040099859">
        <ele>62.619999999999997</ele>
        <time>2024-09-14T09:53:15Z</time>
      </trkpt>
      <trkpt lat="53.381818011403084" lon="12.500086007639766">
        <ele>62.619999999999997</ele>
        <time>2024-09-14T09:53:16Z</time>
      </trkpt>
      <trkpt lat="53.381898980587721" lon="12.500001015141606">
        <ele>61.659999999999997</ele>
        <time>2024-09-14T09:53:17Z</time>
      </trkpt>
      <trkpt lat="53.381969975307584" lon="12.499929014593363">
        <ele>60.700000000000003</ele>
        <time>2024-09-14T09:53:18Z</time>
      </trkpt>
      <trkpt lat="53.382053039968014" lon="12.499846033751965">
        <ele>59.740000000000002</ele>
        <time>2024-09-14T09:53:19Z</time>
      </trkpt>
      <trkpt lat="53.382151024416089" lon="12.499767998233438">
        <ele>58.780000000000001</ele>
        <time>2024-09-14T09:53:20Z</time>
      </trkpt>
      <trkpt lat="53.383203959092498" lon="12.499334989115596">
        <ele>56.369999999999997</ele>
        <time>2024-09-14T09:53:28Z</time>
      </trkpt>
      <trkpt lat="53.385319970548153" lon="12.498456984758377">
        <ele>56.369999999999997</ele>
        <time>2024-09-14T09:53:41Z</time>
      </trkpt>
      <trkpt lat="53.387676039710641" lon="12.497478984296322">
        <ele>57.340000000000003</ele>
        <time>2024-09-14T09:53:55Z</time>
      </trkpt>
      <trkpt lat="53.388859983533621" lon="12.496984032914042">
        <ele>56.859999999999999</ele>
        <time>2024-09-14T09:54:02Z</time>
      </trkpt>
      <trkpt lat="53.390750018879771" lon="12.496194038540125">
        <ele>57.82</ele>
        <time>2024-09-14T09:54:13Z</time>
      </trkpt>
      <trkpt lat="53.39223001152277" lon="12.495576040819287">
        <ele>59.259999999999998</ele>
        <time>2024-09-14T09:54:22Z</time>
      </trkpt>
      <trkpt lat="53.393682008609176" lon="12.494997018948197">
        <ele>58.299999999999997</ele>
        <time>2024-09-14T09:54:31Z</time>
      </trkpt>
      <trkpt lat="53.394303023815155" lon="12.494992995634675">
        <ele>60.219999999999999</ele>
        <time>2024-09-14T09:54:35Z</time>
      </trkpt>
      <trkpt lat="53.394454987719655" lon="12.495033983141184">
        <ele>60.700000000000003</ele>
        <time>2024-09-14T09:54:36Z</time>
      </trkpt>
      <trkpt lat="53.394608963280916" lon="12.495074970647693">
        <ele>61.18</ele>
        <time>2024-09-14T09:54:37Z</time>
      </trkpt>
      <trkpt lat="53.394907023757696" lon="12.495204973965883">
        <ele>62.140000000000001</ele>
        <time>2024-09-14T09:54:39Z</time>
      </trkpt>
      <trkpt lat="53.395320000126958" lon="12.495423993095756">
        <ele>63.100000000000001</ele>
        <time>2024-09-14T09:54:42Z</time>
      </trkpt>
      <trkpt lat="53.395445980131626" lon="12.495489036664367">
        <ele>63.579999999999998</ele>
        <time>2024-09-14T09:54:43Z</time>
      </trkpt>
      <trkpt lat="53.395575983449817" lon="12.49547403305769">
        <ele>64.069999999999993</ele>
        <time>2024-09-14T09:54:44Z</time>
      </trkpt>
      <trkpt lat="53.395707998424768" lon="12.495458023622632">
        <ele>64.549999999999997</ele>
        <time>2024-09-14T09:54:45Z</time>
      </trkpt>
      <trkpt lat="53.395843030884862" lon="12.495420975610614">
        <ele>65.030000000000001</ele>
        <time>2024-09-14T09:54:46Z</time>
      </trkpt>
      <trkpt lat="53.395974040031433" lon="12.495323996990919">
        <ele>65.510000000000005</ele>
        <time>2024-09-14T09:54:47Z</time>
      </trkpt>
      <trkpt lat="53.396106977015734" lon="12.495226012542844">
        <ele>65.510000000000005</ele>
        <time>2024-09-14T09:54:48Z</time>
      </trkpt>
      <trkpt lat="53.396238991990685" lon="12.495115036144853">
        <ele>65.989999999999995</ele>
        <time>2024-09-14T09:54:49Z</time>
      </trkpt>
      <trkpt lat="53.396353991702199" lon="12.494955025613308">
        <ele>65.989999999999995</ele>
        <time>2024-09-14T09:54:50Z</time>
      </trkpt>
      <trkpt lat="53.396473014727235" lon="12.49478898011148">
        <ele>66.469999999999999</ele>
        <time>2024-09-14T09:54:51Z</time>
      </trkpt>
      <trkpt lat="53.397821998223662" lon="12.493247967213392">
        <ele>71.269999999999996</ele>
        <time>2024-09-14T09:55:02Z</time>
      </trkpt>
      <trkpt lat="53.398489030078053" lon="12.492539025843143">
        <ele>74.640000000000001</ele>
        <time>2024-09-14T09:55:10Z</time>
      </trkpt>
      <trkpt lat="53.39854896068573" lon="12.492427965626121">
        <ele>75.120000000000005</ele>
        <time>2024-09-14T09:55:11Z</time>
      </trkpt>
      <trkpt lat="53.398579973727465" lon="12.492287987843156">
        <ele>75.599999999999994</ele>
        <time>2024-09-14T09:55:12Z</time>
      </trkpt>
      <trkpt lat="53.398586008697748" lon="12.492128983139992">
        <ele>75.599999999999994</ele>
        <time>2024-09-14T09:55:13Z</time>
      </trkpt>
      <trkpt lat="53.398591959849" lon="12.491962015628815">
        <ele>75.599999999999994</ele>
        <time>2024-09-14T09:55:14Z</time>
      </trkpt>
      <trkpt lat="53.398653985932469" lon="12.489864025264978">
        <ele>74.640000000000001</ele>
        <time>2024-09-14T09:55:27Z</time>
      </trkpt>
      <trkpt lat="53.398769991472363" lon="12.48795697465539">
        <ele>75.599999999999994</ele>
        <time>2024-09-14T09:55:38Z</time>
      </trkpt>
      <trkpt lat="53.398803016170859" lon="12.487775003537536">
        <ele>75.599999999999994</ele>
        <time>2024-09-14T09:55:39Z</time>
      </trkpt>
      <trkpt lat="53.398858001455665" lon="12.487619016319513">
        <ele>75.599999999999994</ele>
        <time>2024-09-14T09:55:40Z</time>
      </trkpt>
      <trkpt lat="53.398922961205244" lon="12.487468980252743">
        <ele>75.120000000000005</ele>
        <time>2024-09-14T09:55:41Z</time>
      </trkpt>
      <trkpt lat="53.398989010602236" lon="12.487320033833385">
        <ele>75.120000000000005</ele>
        <time>2024-09-14T09:55:42Z</time>
      </trkpt>
      <trkpt lat="53.399058999493718" lon="12.487171003594995">
        <ele>74.640000000000001</ele>
        <time>2024-09-14T09:55:43Z</time>
      </trkpt>
      <trkpt lat="53.399147009477019" lon="12.48705399222672">
        <ele>74.640000000000001</ele>
        <time>2024-09-14T09:55:44Z</time>
      </trkpt>
      <trkpt lat="53.399241976439953" lon="12.486928012222052">
        <ele>74.159999999999997</ele>
        <time>2024-09-14T09:55:45Z</time>
      </trkpt>
      <trkpt lat="53.399314982816577" lon="12.486790968105197">
        <ele>73.680000000000007</ele>
        <time>2024-09-14T09:55:46Z</time>
      </trkpt>
      <trkpt lat="53.399393018335104" lon="12.486619977280498">
        <ele>73.200000000000003</ele>
        <time>2024-09-14T09:55:47Z</time>
      </trkpt>
      <trkpt lat="53.399403998628259" lon="12.486437000334263">
        <ele>72.719999999999999</ele>
        <time>2024-09-14T09:55:48Z</time>
      </trkpt>
      <trkpt lat="53.399414978921413" lon="12.486254023388028">
        <ele>72.239999999999995</ele>
        <time>2024-09-14T09:55:49Z</time>
      </trkpt>
      <trkpt lat="53.399442974478006" lon="12.48434697277844">
        <ele>70.790000000000006</ele>
        <time>2024-09-14T09:55:59Z</time>
      </trkpt>
      <trkpt lat="53.399446997791529" lon="12.483771974220872">
        <ele>70.790000000000006</ele>
        <time>2024-09-14T09:56:02Z</time>
      </trkpt>
      <trkpt lat="53.399455966427922" lon="12.482196008786559">
        <ele>73.680000000000007</ele>
        <time>2024-09-14T09:56:11Z</time>
      </trkpt>
      <trkpt lat="53.399441968649626" lon="12.482029041275382">
        <ele>73.680000000000007</ele>
        <time>2024-09-14T09:56:12Z</time>
      </trkpt>
      <trkpt lat="53.399397041648626" lon="12.481871964409947">
        <ele>73.680000000000007</ele>
        <time>2024-09-14T09:56:13Z</time>
      </trkpt>
      <trkpt lat="53.399349013343453" lon="12.481701979413629">
        <ele>73.680000000000007</ele>
        <time>2024-09-14T09:56:14Z</time>
      </trkpt>
      <trkpt lat="53.399302996695042" lon="12.481540963053703">
        <ele>73.200000000000003</ele>
        <time>2024-09-14T09:56:15Z</time>
      </trkpt>
      <trkpt lat="53.399118008092046" lon="12.480819029733539">
        <ele>71.760000000000005</ele>
        <time>2024-09-14T09:56:20Z</time>
      </trkpt>
      <trkpt lat="53.399133011698723" lon="12.480661030858755">
        <ele>71.760000000000005</ele>
        <time>2024-09-14T09:56:21Z</time>
      </trkpt>
      <trkpt lat="53.399155978113413" lon="12.480426002293825">
        <ele>71.269999999999996</ele>
        <time>2024-09-14T09:56:22Z</time>
      </trkpt>
      <trkpt lat="53.399187996983528" lon="12.480300022289157">
        <ele>71.269999999999996</ele>
        <time>2024-09-14T09:56:23Z</time>
      </trkpt>
      <trkpt lat="53.399236025288701" lon="12.480115033686161">
        <ele>71.269999999999996</ele>
        <time>2024-09-14T09:56:24Z</time>
      </trkpt>
      <trkpt lat="53.399609019979835" lon="12.478658007457852">
        <ele>70.790000000000006</ele>
        <time>2024-09-14T09:56:32Z</time>
      </trkpt>
      <trkpt lat="53.399737011641264" lon="12.478162972256541">
        <ele>71.269999999999996</ele>
        <time>2024-09-14T09:56:35Z</time>
      </trkpt>
      <trkpt lat="53.399775987491012" lon="12.478007990866899">
        <ele>71.269999999999996</ele>
        <time>2024-09-14T09:56:36Z</time>
      </trkpt>
      <trkpt lat="53.399848993867636" lon="12.477891985327005">
        <ele>71.760000000000005</ele>
        <time>2024-09-14T09:56:37Z</time>
      </trkpt>
      <trkpt lat="53.399938009679317" lon="12.477756030857563">
        <ele>72.239999999999995</ele>
        <time>2024-09-14T09:56:38Z</time>
      </trkpt>
      <trkpt lat="53.400038005784154" lon="12.47760197147727">
        <ele>72.239999999999995</ele>
        <time>2024-09-14T09:56:39Z</time>
      </trkpt>
      <trkpt lat="53.400148982182145" lon="12.477462999522686">
        <ele>72.719999999999999</ele>
        <time>2024-09-14T09:56:40Z</time>
      </trkpt>
      <trkpt lat="53.400282002985477" lon="12.47734003700316">
        <ele>73.200000000000003</ele>
        <time>2024-09-14T09:56:41Z</time>
      </trkpt>
      <trkpt lat="53.401702987030149" lon="12.476169001311064">
        <ele>81.849999999999994</ele>
        <time>2024-09-14T09:56:50Z</time>
      </trkpt>
      <trkpt lat="53.403598973527551" lon="12.474995031952858">
        <ele>83.290000000000006</ele>
        <time>2024-09-14T09:57:00Z</time>
      </trkpt>
      <trkpt lat="53.406387967988849" lon="12.473452007398009">
        <ele>80.409999999999997</ele>
        <time>2024-09-14T09:57:15Z</time>
      </trkpt>
      <trkpt lat="53.408542033284903" lon="12.472261022776365">
        <ele>84.25</ele>
        <time>2024-09-14T09:57:26Z</time>
      </trkpt>
      <trkpt lat="53.411921029910445" lon="12.470411974936724">
        <ele>90.019999999999996</ele>
        <time>2024-09-14T09:57:42Z</time>
      </trkpt>
      <trkpt lat="53.415193995460868" lon="12.468608021736145">
        <ele>86.180000000000007</ele>
        <time>2024-09-14T09:57:57Z</time>
      </trkpt>
      <trkpt lat="53.41597099788487" lon="12.468175012618303">
        <ele>84.730000000000004</ele>
        <time>2024-09-14T09:58:02Z</time>
      </trkpt>
      <trkpt lat="53.417250998318195" lon="12.467452995479107">
        <ele>81.370000000000005</ele>
        <time>2024-09-14T09:58:13Z</time>
      </trkpt>
      <trkpt lat="53.418020037934184" lon="12.467072959989309">
        <ele>80.409999999999997</ele>
        <time>2024-09-14T09:58:20Z</time>
      </trkpt>
      <trkpt lat="53.418132020160556" lon="12.467098021879792">
        <ele>80.409999999999997</ele>
        <time>2024-09-14T09:58:21Z</time>
      </trkpt>
      <trkpt lat="53.418254982680082" lon="12.467125011608005">
        <ele>80.409999999999997</ele>
        <time>2024-09-14T09:58:22Z</time>
      </trkpt>
      <trkpt lat="53.419470023363829" lon="12.46741603128612">
        <ele>80.890000000000001</ele>
        <time>2024-09-14T09:58:32Z</time>
      </trkpt>
      <trkpt lat="53.41994795948267" lon="12.467550979927182">
        <ele>80.890000000000001</ele>
        <time>2024-09-14T09:58:37Z</time>
      </trkpt>
      <trkpt lat="53.420065976679325" lon="12.467556009069085">
        <ele>81.370000000000005</ele>
        <time>2024-09-14T09:58:38Z</time>
      </trkpt>
      <trkpt lat="53.420371999964118" lon="12.46756799519062">
        <ele>81.849999999999994</ele>
        <time>2024-09-14T09:58:41Z</time>
      </trkpt>
      <trkpt lat="53.42048498801887" lon="12.467573024332523">
        <ele>82.329999999999998</ele>
        <time>2024-09-14T09:58:42Z</time>
      </trkpt>
      <trkpt lat="53.420557994395494" lon="12.467507980763912">
        <ele>82.329999999999998</ele>
        <time>2024-09-14T09:58:43Z</time>
      </trkpt>
      <trkpt lat="53.420651033520699" lon="12.467428017407656">
        <ele>82.810000000000002</ele>
        <time>2024-09-14T09:58:44Z</time>
      </trkpt>
      <trkpt lat="53.420743988826871" lon="12.467345958575606">
        <ele>82.810000000000002</ele>
        <time>2024-09-14T09:58:45Z</time>
      </trkpt>
      <trkpt lat="53.421538006514311" lon="12.466728966683149">
        <ele>83.290000000000006</ele>
        <time>2024-09-14T09:58:53Z</time>
      </trkpt>
      <trkpt lat="53.42164303176105" lon="12.466680016368628">
        <ele>83.769999999999996</ele>
        <time>2024-09-14T09:58:54Z</time>
      </trkpt>
      <trkpt lat="53.4217509906739" lon="12.466628970578313">
        <ele>83.769999999999996</ele>
        <time>2024-09-14T09:58:55Z</time>
      </trkpt>
      <trkpt lat="53.422371000051498" lon="12.466369969770312">
        <ele>84.25</ele>
        <time>2024-09-14T09:59:03Z</time>
      </trkpt>
      <trkpt lat="53.422565963119268" lon="12.466314984485507">
        <ele>83.769999999999996</ele>
        <time>2024-09-14T09:59:06Z</time>
      </trkpt>
      <trkpt lat="53.422634024173021" lon="12.466328982263803">
        <ele>83.290000000000006</ele>
        <time>2024-09-14T09:59:07Z</time>
      </trkpt>
      <trkpt lat="53.422704013064504" lon="12.4663429800421">
        <ele>83.290000000000006</ele>
        <time>2024-09-14T09:59:08Z</time>
      </trkpt>
      <trkpt lat="53.423111960291862" lon="12.466246001422405">
        <ele>81.849999999999994</ele>
        <time>2024-09-14T09:59:15Z</time>
      </trkpt>
      <trkpt lat="53.42312403023243" lon="12.466241978108883">
        <ele>80.890000000000001</ele>
        <time>2024-09-14T09:59:16Z</time>
      </trkpt>
      <trkpt lat="53.423126041889191" lon="12.466176012530923">
        <ele>80.409999999999997</ele>
        <time>2024-09-14T09:59:17Z</time>
      </trkpt>
      <trkpt lat="53.42312796972692" lon="12.466094959527254">
        <ele>79.450000000000003</ele>
        <time>2024-09-14T09:59:18Z</time>
      </trkpt>
      <trkpt lat="53.423130987212062" lon="12.465992029756308">
        <ele>78.480000000000004</ele>
        <time>2024-09-14T09:59:19Z</time>
      </trkpt>
      <trkpt lat="53.423135010525584" lon="12.465868983417749">
        <ele>78</ele>
        <time>2024-09-14T09:59:20Z</time>
      </trkpt>
      <trkpt lat="53.423139033839107" lon="12.465723976492882">
        <ele>77.519999999999996</ele>
        <time>2024-09-14T09:59:21Z</time>
      </trkpt>
      <trkpt lat="53.42319100163877" lon="12.464005015790462">
        <ele>73.680000000000007</ele>
        <time>2024-09-14T09:59:30Z</time>
      </trkpt>
      <trkpt lat="53.423265013843775" lon="12.461751960217953">
        <ele>70.310000000000002</ele>
        <time>2024-09-14T09:59:40Z</time>
      </trkpt>
      <trkpt lat="53.423368027433753" lon="12.458748975768685">
        <ele>68.390000000000001</ele>
        <time>2024-09-14T09:59:49Z</time>
      </trkpt>
      <trkpt lat="53.423450002446771" lon="12.456235997378826">
        <ele>69.349999999999994</ele>
        <time>2024-09-14T09:59:57Z</time>
      </trkpt>
      <trkpt lat="53.423546981066465" lon="12.453444991260767">
        <ele>71.760000000000005</ele>
        <time>2024-09-14T10:00:06Z</time>
      </trkpt>
      <trkpt lat="53.423906983807683" lon="12.451363010331988">
        <ele>71.760000000000005</ele>
        <time>2024-09-14T10:00:13Z</time>
      </trkpt>
      <trkpt lat="53.424522969871759" lon="12.448557000607252">
        <ele>74.640000000000001</ele>
        <time>2024-09-14T10:00:23Z</time>
      </trkpt>
      <trkpt lat="53.425143985077739" lon="12.445732969790697">
        <ele>78.480000000000004</ele>
        <time>2024-09-14T10:00:33Z</time>
      </trkpt>
      <trkpt lat="53.42576902359724" lon="12.442885972559452">
        <ele>84.25</ele>
        <time>2024-09-14T10:00:43Z</time>
      </trkpt>
      <trkpt lat="53.426299011334777" lon="12.440446000546217">
        <ele>87.140000000000001</ele>
        <time>2024-09-14T10:00:52Z</time>
      </trkpt>
      <trkpt lat="53.426968976855278" lon="12.437361041083932">
        <ele>90.5</ele>
        <time>2024-09-14T10:01:03Z</time>
      </trkpt>
      <trkpt lat="53.427611030638218" lon="12.434401977807283">
        <ele>92.900000000000006</ele>
        <time>2024-09-14T10:01:13Z</time>
      </trkpt>
      <trkpt lat="53.427912024781108" lon="12.433016030117869">
        <ele>94.349999999999994</ele>
        <time>2024-09-14T10:01:20Z</time>
      </trkpt>
      <trkpt lat="53.428095001727343" lon="12.43230901658535">
        <ele>95.790000000000006</ele>
        <time>2024-09-14T10:01:27Z</time>
      </trkpt>
      <trkpt lat="53.428168008103967" lon="12.432201979681849">
        <ele>96.269999999999996</ele>
        <time>2024-09-14T10:01:28Z</time>
      </trkpt>
      <trkpt lat="53.428226010873914" lon="12.432217989116907">
        <ele>96.269999999999996</ele>
        <time>2024-09-14T10:01:29Z</time>
      </trkpt>
      <trkpt lat="53.428306980058551" lon="12.432241039350629">
        <ele>96.269999999999996</ele>
        <time>2024-09-14T10:01:30Z</time>
      </trkpt>
      <trkpt lat="53.428414016962051" lon="12.432270962744951">
        <ele>96.75</ele>
        <time>2024-09-14T10:01:31Z</time>
      </trkpt>
      <trkpt lat="53.429509028792381" lon="12.432580003514886">
        <ele>96.269999999999996</ele>
        <time>2024-09-14T10:01:38Z</time>
      </trkpt>
      <trkpt lat="53.431511968374252" lon="12.433138992637396">
        <ele>91.459999999999994</ele>
        <time>2024-09-14T10:01:48Z</time>
      </trkpt>
      <trkpt lat="53.433940960094333" lon="12.433809963986278">
        <ele>84.25</ele>
        <time>2024-09-14T10:02:00Z</time>
      </trkpt>
      <trkpt lat="53.436268027871847" lon="12.434452017769217">
        <ele>81.370000000000005</ele>
        <time>2024-09-14T10:02:11Z</time>
      </trkpt>
      <trkpt lat="53.438306003808975" lon="12.43480104021728">
        <ele>78.480000000000004</ele>
        <time>2024-09-14T10:02:21Z</time>
      </trkpt>
      <trkpt lat="53.438516976311803" lon="12.434770027175546">
        <ele>78</ele>
        <time>2024-09-14T10:02:22Z</time>
      </trkpt>
      <trkpt lat="53.440453028306365" lon="12.434196034446359">
        <ele>75.120000000000005</ele>
        <time>2024-09-14T10:02:31Z</time>
      </trkpt>
      <trkpt lat="53.44287296757102" lon="12.433411991223693">
        <ele>70.790000000000006</ele>
        <time>2024-09-14T10:02:43Z</time>
      </trkpt>
      <trkpt lat="53.445207998156548" lon="12.432643035426736">
        <ele>70.310000000000002</ele>
        <time>2024-09-14T10:02:55Z</time>
      </trkpt>
      <trkpt lat="53.445784002542496" lon="12.432386968284845">
        <ele>70.310000000000002</ele>
        <time>2024-09-14T10:02:58Z</time>
      </trkpt>
      <trkpt lat="53.44594401307404" lon="12.432271968573332">
        <ele>70.790000000000006</ele>
        <time>2024-09-14T10:02:59Z</time>
      </trkpt>
      <trkpt lat="53.446075022220612" lon="12.432107012718916">
        <ele>70.310000000000002</ele>
        <time>2024-09-14T10:03:00Z</time>
      </trkpt>
      <trkpt lat="53.446195973083377" lon="12.431953959167004">
        <ele>70.310000000000002</ele>
        <time>2024-09-14T10:03:01Z</time>
      </trkpt>
      <trkpt lat="53.446311978623271" lon="12.431809036061168">
        <ele>69.829999999999998</ele>
        <time>2024-09-14T10:03:02Z</time>
      </trkpt>
      <trkpt lat="53.446548013016582" lon="12.431544000282884">
        <ele>69.349999999999994</ele>
        <time>2024-09-14T10:03:04Z</time>
      </trkpt>
      <trkpt lat="53.446692014113069" lon="12.431421959772706">
        <ele>69.349999999999994</ele>
        <time>2024-09-14T10:03:05Z</time>
      </trkpt>
      <trkpt lat="53.446856969967484" lon="12.43136596865952">
        <ele>69.349999999999994</ele>
        <time>2024-09-14T10:03:06Z</time>
      </trkpt>
      <trkpt lat="53.447030978277326" lon="12.43131903000176">
        <ele>69.349999999999994</ele>
        <time>2024-09-14T10:03:07Z</time>
      </trkpt>
      <trkpt lat="53.447212027385831" lon="12.431288016960025">
        <ele>68.870000000000005</ele>
        <time>2024-09-14T10:03:08Z</time>
      </trkpt>
      <trkpt lat="53.449526019394398" lon="12.430922985076904">
        <ele>68.390000000000001</ele>
        <time>2024-09-14T10:03:20Z</time>
      </trkpt>
      <trkpt lat="53.450947003439069" lon="12.431012000888586">
        <ele>66.950000000000003</ele>
        <time>2024-09-14T10:03:27Z</time>
      </trkpt>
      <trkpt lat="53.452806025743484" lon="12.431174023076892">
        <ele>65.989999999999995</ele>
        <time>2024-09-14T10:03:36Z</time>
      </trkpt>
      <trkpt lat="53.454050989821553" lon="12.430644035339355">
        <ele>65.030000000000001</ele>
        <time>2024-09-14T10:03:42Z</time>
      </trkpt>
      <trkpt lat="53.455736003816128" lon="12.429704004898667">
        <ele>63.100000000000001</ele>
        <time>2024-09-14T10:03:50Z</time>
      </trkpt>
      <trkpt lat="53.457137038931251" lon="12.428921973332763">
        <ele>60.700000000000003</ele>
        <time>2024-09-14T10:03:57Z</time>
      </trkpt>
      <trkpt lat="53.459025984629989" lon="12.427869038656354">
        <ele>56.369999999999997</ele>
        <time>2024-09-14T10:04:07Z</time>
      </trkpt>
      <trkpt lat="53.460757015272975" lon="12.426905035972595">
        <ele>55.409999999999997</ele>
        <time>2024-09-14T10:04:16Z</time>
      </trkpt>
      <trkpt lat="53.46186300739646" lon="12.426110012456775">
        <ele>54.93</ele>
        <time>2024-09-14T10:04:22Z</time>
      </trkpt>
      <trkpt lat="53.46201597712934" lon="12.425942961126566">
        <ele>54.93</ele>
        <time>2024-09-14T10:04:23Z</time>
      </trkpt>
      <trkpt lat="53.462896998971701" lon="12.424478977918625">
        <ele>55.890000000000001</ele>
        <time>2024-09-14T10:04:31Z</time>
      </trkpt>
      <trkpt lat="53.463113000616431" lon="12.424105983227491">
        <ele>56.369999999999997</ele>
        <time>2024-09-14T10:04:34Z</time>
      </trkpt>
      <trkpt lat="53.463149964809418" lon="12.424042029306293">
        <ele>56.859999999999999</ele>
        <time>2024-09-14T10:04:35Z</time>
      </trkpt>
      <trkpt lat="53.463177960366011" lon="12.423992995172739">
        <ele>56.859999999999999</ele>
        <time>2024-09-14T10:04:36Z</time>
      </trkpt>
      <trkpt lat="53.46328298561275" lon="12.424010010436177">
        <ele>57.340000000000003</ele>
        <time>2024-09-14T10:04:37Z</time>
      </trkpt>
      <trkpt lat="53.463327996432781" lon="12.424096008762717">
        <ele>57.340000000000003</ele>
        <time>2024-09-14T10:04:38Z</time>
      </trkpt>
      <trkpt lat="53.463384993374348" lon="12.424203967675567">
        <ele>57.340000000000003</ele>
        <time>2024-09-14T10:04:39Z</time>
      </trkpt>
      <trkpt lat="53.463453976437449" lon="12.424334976822138">
        <ele>57.82</ele>
        <time>2024-09-14T10:04:40Z</time>
      </trkpt>
      <trkpt lat="53.464141963049769" lon="12.425713967531919">
        <ele>59.740000000000002</ele>
        <time>2024-09-14T10:04:48Z</time>
      </trkpt>
      <trkpt lat="53.465202022343874" lon="12.428026031702757">
        <ele>61.659999999999997</ele>
        <time>2024-09-14T10:04:59Z</time>
      </trkpt>
      <trkpt lat="53.46601297147572" lon="12.430313033983111">
        <ele>66.469999999999999</ele>
        <time>2024-09-14T10:05:08Z</time>
      </trkpt>
      <trkpt lat="53.467054003849626" lon="12.432305999100208">
        <ele>73.680000000000007</ele>
        <time>2024-09-14T10:05:16Z</time>
      </trkpt>
      <trkpt lat="53.46839401870966" lon="12.434848984703422">
        <ele>78.969999999999999</ele>
        <time>2024-09-14T10:05:25Z</time>
      </trkpt>
      <trkpt lat="53.469476960599422" lon="12.43716599419713">
        <ele>81.849999999999994</ele>
        <time>2024-09-14T10:05:34Z</time>
      </trkpt>
      <trkpt lat="53.470194032415748" lon="12.439156025648117">
        <ele>80.890000000000001</ele>
        <time>2024-09-14T10:05:43Z</time>
      </trkpt>
      <trkpt lat="53.47047901712358" lon="12.440759986639023">
        <ele>79.450000000000003</ele>
        <time>2024-09-14T10:05:52Z</time>
      </trkpt>
      <trkpt lat="53.470489997416735" lon="12.440893007442355">
        <ele>78.969999999999999</ele>
        <time>2024-09-14T10:05:53Z</time>
      </trkpt>
      <trkpt lat="53.470498966053128" lon="12.441001972183585">
        <ele>78.969999999999999</ele>
        <time>2024-09-14T10:05:54Z</time>
      </trkpt>
      <trkpt lat="53.470567027106881" lon="12.441025022417307">
        <ele>78.480000000000004</ele>
        <time>2024-09-14T10:05:55Z</time>
      </trkpt>
      <trkpt lat="53.470620000734925" lon="12.441003983840346">
        <ele>78</ele>
        <time>2024-09-14T10:05:56Z</time>
      </trkpt>
      <trkpt lat="53.470688983798027" lon="12.440975988283753">
        <ele>78</ele>
        <time>2024-09-14T10:05:57Z</time>
      </trkpt>
      <trkpt lat="53.470755033195019" lon="12.440936006605625">
        <ele>77.519999999999996</ele>
        <time>2024-09-14T10:05:58Z</time>
      </trkpt>
      <trkpt lat="53.470824016258121" lon="12.4408820271492">
        <ele>77.040000000000006</ele>
        <time>2024-09-14T10:05:59Z</time>
      </trkpt>
      <trkpt lat="53.470883024856448" lon="12.440836010500789">
        <ele>76.560000000000002</ele>
        <time>2024-09-14T10:06:00Z</time>
      </trkpt>
      <trkpt lat="53.47093197517097" lon="12.440798040479422">
        <ele>76.560000000000002</ele>
        <time>2024-09-14T10:06:01Z</time>
      </trkpt>
      <trkpt lat="53.470967011526227" lon="12.440770966932178">
        <ele>76.079999999999998</ele>
        <time>2024-09-14T10:06:02Z</time>
      </trkpt>
      <trkpt lat="53.471114030107856" lon="12.440875992178917">
        <ele>75.599999999999994</ele>
        <time>2024-09-14T10:06:03Z</time>
      </trkpt>
      <trkpt lat="53.471116963773966" lon="12.440941035747528">
        <ele>75.599999999999994</ele>
        <time>2024-09-14T10:06:04Z</time>
      </trkpt>
      <trkpt lat="53.471120987087488" lon="12.441023010760546">
        <ele>75.120000000000005</ele>
        <time>2024-09-14T10:06:05Z</time>
      </trkpt>
      <trkpt lat="53.471125010401011" lon="12.441104985773563">
        <ele>75.120000000000005</ele>
        <time>2024-09-14T10:06:06Z</time>
      </trkpt>
      <trkpt lat="53.471129033714533" lon="12.441185032948852">
        <ele>74.640000000000001</ele>
        <time>2024-09-14T10:06:07Z</time>
      </trkpt>
      <trkpt lat="53.471131967380643" lon="12.441256027668715">
        <ele>74.640000000000001</ele>
        <time>2024-09-14T10:06:08Z</time>
      </trkpt>
      <trkpt lat="53.471144959330559" lon="12.441530032083392">
        <ele>73.680000000000007</ele>
        <time>2024-09-14T10:06:14Z</time>
      </trkpt>
      <trkpt lat="53.471204973757267" lon="12.441689036786556">
        <ele>73.200000000000003</ele>
        <time>2024-09-14T10:06:25Z</time>
      </trkpt>
      <trkpt lat="53.471219977363944" lon="12.441745027899742">
        <ele>73.200000000000003</ele>
        <time>2024-09-14T10:06:32Z</time>
      </trkpt>
      <trkpt lat="53.471196005120873" lon="12.441614018753171">
        <ele>70.790000000000006</ele>
        <time>2024-09-14T10:06:42Z</time>
      </trkpt>
      <trkpt lat="53.471128027886152" lon="12.44169901125133">
        <ele>71.269999999999996</ele>
        <time>2024-09-14T10:06:54Z</time>
      </trkpt>
      <trkpt lat="53.471128027886152" lon="12.441701022908092">
        <ele>71.269999999999996</ele>
        <time>2024-09-14T10:07:32Z</time>
      </trkpt>
      <trkpt lat="53.471179995685816" lon="12.441745027899742">
        <ele>75.599999999999994</ele>
        <time>2024-09-14T10:10:56Z</time>
      </trkpt>
      <trkpt lat="53.471125010401011" lon="12.441822979599237">
        <ele>65.510000000000005</ele>
        <time>2024-09-14T10:11:28Z</time>
      </trkpt>
      <trkpt lat="53.471143031492829" lon="12.441873019561172">
        <ele>70.310000000000002</ele>
        <time>2024-09-14T10:11:50Z</time>
      </trkpt>
      <trkpt lat="53.471145965158939" lon="12.441545035690069">
        <ele>70.310000000000002</ele>
        <time>2024-09-14T10:11:52Z</time>
      </trkpt>
      <trkpt lat="53.471145965158939" lon="12.441545035690069">
        <ele>70.310000000000002</ele>
        <time>2024-09-14T10:11:53Z</time>
      </trkpt>
      <trkpt lat="53.471145965158939" lon="12.441545035690069">
        <ele>71.269999999999996</ele>
        <time>2024-09-14T10:11:56Z</time>
      </trkpt>
      <trkpt lat="53.471145965158939" lon="12.441545035690069">
        <ele>71.269999999999996</ele>
        <time>2024-09-14T10:11:57Z</time>
      </trkpt>
      <trkpt lat="53.471145965158939" lon="12.441545035690069">
        <ele>71.269999999999996</ele>
        <time>2024-09-14T10:11:58Z</time>
      </trkpt>
      <trkpt lat="53.471144959330559" lon="12.441528020426631">
        <ele>71.269999999999996</ele>
        <time>2024-09-14T10:11:59Z</time>
      </trkpt>
      <trkpt lat="53.471143031492829" lon="12.441474040970206">
        <ele>71.269999999999996</ele>
        <time>2024-09-14T10:12:00Z</time>
      </trkpt>
      <trkpt lat="53.471139008179307" lon="12.441402040421963">
        <ele>71.269999999999996</ele>
        <time>2024-09-14T10:12:01Z</time>
      </trkpt>
      <trkpt lat="53.471133979037404" lon="12.441299026831985">
        <ele>71.269999999999996</ele>
        <time>2024-09-14T10:12:02Z</time>
      </trkpt>
      <trkpt lat="53.471128027886152" lon="12.441166006028652">
        <ele>71.269999999999996</ele>
        <time>2024-09-14T10:12:03Z</time>
      </trkpt>
      <trkpt lat="53.471120987087488" lon="12.441025022417307">
        <ele>71.269999999999996</ele>
        <time>2024-09-14T10:12:04Z</time>
      </trkpt>
      <trkpt lat="53.47110397182405" lon="12.440668037161231">
        <ele>70.790000000000006</ele>
        <time>2024-09-14T10:12:07Z</time>
      </trkpt>
      <trkpt lat="53.471163986250758" lon="12.440595030784607">
        <ele>70.790000000000006</ele>
        <time>2024-09-14T10:12:08Z</time>
      </trkpt>
      <trkpt lat="53.471254007890821" lon="12.440493023023009">
        <ele>70.310000000000002</ele>
        <time>2024-09-14T10:12:09Z</time>
      </trkpt>
      <trkpt lat="53.471463974565268" lon="12.440032018348575">
        <ele>68.390000000000001</ele>
        <time>2024-09-14T10:12:12Z</time>
      </trkpt>
      <trkpt lat="53.471513008698821" lon="12.439820962026715">
        <ele>67.909999999999997</ele>
        <time>2024-09-14T10:12:13Z</time>
      </trkpt>
      <trkpt lat="53.472104016691446" lon="12.43731401860714">
        <ele>63.100000000000001</ele>
        <time>2024-09-14T10:12:24Z</time>
      </trkpt>
      <trkpt lat="53.472545994445682" lon="12.436061007902026">
        <ele>58.780000000000001</ele>
        <time>2024-09-14T10:12:32Z</time>
      </trkpt>
      <trkpt lat="53.473238004371524" lon="12.43508099578321">
        <ele>52.049999999999997</ele>
        <time>2024-09-14T10:12:43Z</time>
      </trkpt>
      <trkpt lat="53.473308999091387" lon="12.434998014941812">
        <ele>52.049999999999997</ele>
        <time>2024-09-14T10:12:44Z</time>
      </trkpt>
      <trkpt lat="53.473399020731449" lon="12.434892989695072">
        <ele>51.57</ele>
        <time>2024-09-14T10:12:46Z</time>
      </trkpt>
      <trkpt lat="53.473550984635949" lon="12.434874968603253">
        <ele>51.090000000000003</ele>
        <time>2024-09-14T10:12:47Z</time>
      </trkpt>
      <trkpt lat="53.473631031811237" lon="12.434654021635652">
        <ele>50.609999999999999</ele>
        <time>2024-09-14T10:12:50Z</time>
      </trkpt>
      <trkpt lat="53.473963961005211" lon="12.434279015287757">
        <ele>50.130000000000003</ele>
        <time>2024-09-14T10:12:58Z</time>
      </trkpt>
      <trkpt lat="53.474493026733398" lon="12.43368498980999">
        <ele>49.649999999999999</ele>
        <time>2024-09-14T10:13:09Z</time>
      </trkpt>
      <trkpt lat="53.474982026964426" lon="12.433134969323874">
        <ele>49.159999999999997</ele>
        <time>2024-09-14T10:13:21Z</time>
      </trkpt>
      <trkpt lat="53.475481001660228" lon="12.432573968544602">
        <ele>48.200000000000003</ele>
        <time>2024-09-14T10:13:34Z</time>
      </trkpt>
      <trkpt lat="53.475780989974737" lon="12.432238021865487">
        <ele>47.719999999999999</ele>
        <time>2024-09-14T10:13:42Z</time>
      </trkpt>
      <trkpt lat="53.475909987464547" lon="12.432102989405394">
        <ele>47.240000000000002</ele>
        <time>2024-09-14T10:13:45Z</time>
      </trkpt>
      <trkpt lat="53.475931026041508" lon="12.43207398802042">
        <ele>47.240000000000002</ele>
        <time>2024-09-14T10:13:46Z</time>
      </trkpt>
      <trkpt lat="53.475963966920972" lon="12.432026965543628">
        <ele>47.240000000000002</ele>
        <time>2024-09-14T10:13:47Z</time>
      </trkpt>
      <trkpt lat="53.475995985791087" lon="12.431982960551977">
        <ele>47.240000000000002</ele>
        <time>2024-09-14T10:13:48Z</time>
      </trkpt>
      <trkpt lat="53.476026998832822" lon="12.431939961388707">
        <ele>47.240000000000002</ele>
        <time>2024-09-14T10:13:49Z</time>
      </trkpt>
      <trkpt lat="53.476061029359698" lon="12.431892016902566">
        <ele>47.240000000000002</ele>
        <time>2024-09-14T10:13:50Z</time>
      </trkpt>
      <trkpt lat="53.476098999381065" lon="12.43183895945549">
        <ele>47.240000000000002</ele>
        <time>2024-09-14T10:13:51Z</time>
      </trkpt>
      <trkpt lat="53.476140992715955" lon="12.431780034676194">
        <ele>47.240000000000002</ele>
        <time>2024-09-14T10:13:52Z</time>
      </trkpt>
      <trkpt lat="53.476184997707605" lon="12.431719014421105">
        <ele>47.240000000000002</ele>
        <time>2024-09-14T10:13:53Z</time>
      </trkpt>
      <trkpt lat="53.476231014356017" lon="12.431653970852494">
        <ele>47.240000000000002</ele>
        <time>2024-09-14T10:13:54Z</time>
      </trkpt>
      <trkpt lat="53.476272001862526" lon="12.431584987789392">
        <ele>47.240000000000002</ele>
        <time>2024-09-14T10:13:55Z</time>
      </trkpt>
      <trkpt lat="53.476418014615774" lon="12.43134199641645">
        <ele>47.719999999999999</ele>
        <time>2024-09-14T10:13:59Z</time>
      </trkpt>
      <trkpt lat="53.476446010172367" lon="12.431274019181728">
        <ele>47.719999999999999</ele>
        <time>2024-09-14T10:14:00Z</time>
      </trkpt>
      <trkpt lat="53.476485991850495" lon="12.431148961186409">
        <ele>47.719999999999999</ele>
        <time>2024-09-14T10:14:01Z</time>
      </trkpt>
      <trkpt lat="53.476461013779044" lon="12.431080983951688">
        <ele>47.719999999999999</ele>
        <time>2024-09-14T10:14:02Z</time>
      </trkpt>
      <trkpt lat="53.476434024050832" lon="12.431005965918303">
        <ele>48.200000000000003</ele>
        <time>2024-09-14T10:14:03Z</time>
      </trkpt>
      <trkpt lat="53.476369986310601" lon="12.430907981470227">
        <ele>48.68</ele>
        <time>2024-09-14T10:14:04Z</time>
      </trkpt>
      <trkpt lat="53.476317012682557" lon="12.430885015055537">
        <ele>49.159999999999997</ele>
        <time>2024-09-14T10:14:05Z</time>
      </trkpt>
      <trkpt lat="53.476264961063862" lon="12.430861964821815">
        <ele>49.159999999999997</ele>
        <time>2024-09-14T10:14:06Z</time>
      </trkpt>
      <trkpt lat="53.476210981607437" lon="12.430837992578745">
        <ele>49.159999999999997</ele>
        <time>2024-09-14T10:14:07Z</time>
      </trkpt>
      <trkpt lat="53.476168988272548" lon="12.430795999243855">
        <ele>49.649999999999999</ele>
        <time>2024-09-14T10:14:08Z</time>
      </trkpt>
      <trkpt lat="53.476119032129645" lon="12.430745959281921">
        <ele>50.130000000000003</ele>
        <time>2024-09-14T10:14:09Z</time>
      </trkpt>
      <trkpt lat="53.476058011874557" lon="12.430691979825497">
        <ele>50.130000000000003</ele>
        <time>2024-09-14T10:14:10Z</time>
      </trkpt>
      <trkpt lat="53.476003026589751" lon="12.430651998147368">
        <ele>50.609999999999999</ele>
        <time>2024-09-14T10:14:11Z</time>
      </trkpt>
      <trkpt lat="53.475931026041508" lon="12.430601036176085">
        <ele>50.609999999999999</ele>
        <time>2024-09-14T10:14:12Z</time>
      </trkpt>
      <trkpt lat="53.475914010778069" lon="12.430564993992448">
        <ele>50.609999999999999</ele>
        <time>2024-09-14T10:14:13Z</time>
      </trkpt>
      <trkpt lat="53.475882997736335" lon="12.430498022586107">
        <ele>51.090000000000003</ele>
        <time>2024-09-14T10:14:14Z</time>
      </trkpt>
      <trkpt lat="53.47585097886622" lon="12.430430967360735">
        <ele>51.57</ele>
        <time>2024-09-14T10:14:15Z</time>
      </trkpt>
      <trkpt lat="53.475754000246525" lon="12.430223012343049">
        <ele>53.490000000000002</ele>
        <time>2024-09-14T10:14:18Z</time>
      </trkpt>
      <trkpt lat="53.47572198137641" lon="12.430154029279947">
        <ele>53.969999999999999</ele>
        <time>2024-09-14T10:14:19Z</time>
      </trkpt>
      <trkpt lat="53.475255025550723" lon="12.429212993010879">
        <ele>61.18</ele>
        <time>2024-09-14T10:14:31Z</time>
      </trkpt>
      <trkpt lat="53.475156035274267" lon="12.429123977199197">
        <ele>62.140000000000001</ele>
        <time>2024-09-14T10:14:33Z</time>
      </trkpt>
      <trkpt lat="53.47509803250432" lon="12.429101010784507">
        <ele>62.619999999999997</ele>
        <time>2024-09-14T10:14:34Z</time>
      </trkpt>
      <trkpt lat="53.475040029734373" lon="12.429077960550785">
        <ele>63.100000000000001</ele>
        <time>2024-09-14T10:14:35Z</time>
      </trkpt>
      <trkpt lat="53.474984038621187" lon="12.429054994136095">
        <ele>63.579999999999998</ele>
        <time>2024-09-14T10:14:36Z</time>
      </trkpt>
      <trkpt lat="53.474927041679621" lon="12.429032027721405">
        <ele>63.579999999999998</ele>
        <time>2024-09-14T10:14:37Z</time>
      </trkpt>
      <trkpt lat="53.474765019491315" lon="12.429032027721405">
        <ele>64.069999999999993</ele>
        <time>2024-09-14T10:14:40Z</time>
      </trkpt>
      <trkpt lat="53.474706010892987" lon="12.428949968889356">
        <ele>64.069999999999993</ele>
        <time>2024-09-14T10:14:41Z</time>
      </trkpt>
      <trkpt lat="53.474679021164775" lon="12.428895989432931">
        <ele>64.069999999999993</ele>
        <time>2024-09-14T10:14:42Z</time>
      </trkpt>
      <trkpt lat="53.47464700229466" lon="12.428834969177842">
        <ele>64.069999999999993</ele>
        <time>2024-09-14T10:14:43Z</time>
      </trkpt>
      <trkpt lat="53.474611965939403" lon="12.428769003599882">
        <ele>64.069999999999993</ele>
        <time>2024-09-14T10:14:44Z</time>
      </trkpt>
      <trkpt lat="53.47454097121954" lon="12.428632965311408">
        <ele>64.069999999999993</ele>
        <time>2024-09-14T10:14:46Z</time>
      </trkpt>
      <trkpt lat="53.47449897788465" lon="12.428488964214921">
        <ele>64.069999999999993</ele>
        <time>2024-09-14T10:14:48Z</time>
      </trkpt>
      <trkpt lat="53.474484980106354" lon="12.428404977545142">
        <ele>63.579999999999998</ele>
        <time>2024-09-14T10:14:49Z</time>
      </trkpt>
      <trkpt lat="53.474470982328057" lon="12.428320990875363">
        <ele>63.579999999999998</ele>
        <time>2024-09-14T10:14:50Z</time>
      </trkpt>
      <trkpt lat="53.474456984549761" lon="12.428235998377204">
        <ele>63.579999999999998</ele>
        <time>2024-09-14T10:14:51Z</time>
      </trkpt>
      <trkpt lat="53.474442986771464" lon="12.428151005879045">
        <ele>63.579999999999998</ele>
        <time>2024-09-14T10:14:52Z</time>
      </trkpt>
      <trkpt lat="53.474302003160119" lon="12.427150039002299">
        <ele>62.619999999999997</ele>
        <time>2024-09-14T10:15:03Z</time>
      </trkpt>
      <trkpt lat="53.474294962361455" lon="12.42704501375556">
        <ele>62.140000000000001</ele>
        <time>2024-09-14T10:15:04Z</time>
      </trkpt>
      <trkpt lat="53.474312983453274" lon="12.426647963002324">
        <ele>61.18</ele>
        <time>2024-09-14T10:15:08Z</time>
      </trkpt>
      <trkpt lat="53.474514987319708" lon="12.425601985305548">
        <ele>59.259999999999998</ele>
        <time>2024-09-14T10:15:21Z</time>
      </trkpt>
      <trkpt lat="53.474559998139739" lon="12.425425965338945">
        <ele>59.259999999999998</ele>
        <time>2024-09-14T10:15:23Z</time>
      </trkpt>
      <trkpt lat="53.474821010604501" lon="12.424328019842505">
        <ele>59.740000000000002</ele>
        <time>2024-09-14T10:15:35Z</time>
      </trkpt>
      <trkpt lat="53.475002981722355" lon="12.423545988276601">
        <ele>61.18</ele>
        <time>2024-09-14T10:15:43Z</time>
      </trkpt>
      <trkpt lat="53.475030977278948" lon="12.423445992171764">
        <ele>61.18</ele>
        <time>2024-09-14T10:15:44Z</time>
      </trkpt>
      <trkpt lat="53.475090991705656" lon="12.423229990527034">
        <ele>61.659999999999997</ele>
        <time>2024-09-14T10:15:46Z</time>
      </trkpt>
      <trkpt lat="53.475586026906967" lon="12.422026013955474">
        <ele>67.430000000000007</ele>
        <time>2024-09-14T10:15:58Z</time>
      </trkpt>
      <trkpt lat="53.475674036890268" lon="12.42195401340723">
        <ele>68.390000000000001</ele>
        <time>2024-09-14T10:15:59Z</time>
      </trkpt>
      <trkpt lat="53.475709995254874" lon="12.421901961788535">
        <ele>68.870000000000005</ele>
        <time>2024-09-14T10:16:00Z</time>
      </trkpt>
      <trkpt lat="53.475796999409795" lon="12.42180498316884">
        <ele>69.349999999999994</ele>
        <time>2024-09-14T10:16:01Z</time>
      </trkpt>
      <trkpt lat="53.475873023271561" lon="12.421812023967505">
        <ele>69.829999999999998</ele>
        <time>2024-09-14T10:16:02Z</time>
      </trkpt>
      <trkpt lat="53.47595801576972" lon="12.421819986775517">
        <ele>69.829999999999998</ele>
        <time>2024-09-14T10:16:03Z</time>
      </trkpt>
      <trkpt lat="53.476048959419131" lon="12.421828033402562">
        <ele>69.829999999999998</ele>
        <time>2024-09-14T10:16:04Z</time>
      </trkpt>
      <trkpt lat="53.477083034813404" lon="12.421960970386863">
        <ele>70.790000000000006</ele>
        <time>2024-09-14T10:16:14Z</time>
      </trkpt>
      <trkpt lat="53.4785389713943" lon="12.422235980629921">
        <ele>68.390000000000001</ele>
        <time>2024-09-14T10:16:26Z</time>
      </trkpt>
      <trkpt lat="53.479922991245985" lon="12.422608975321054">
        <ele>70.310000000000002</ele>
        <time>2024-09-14T10:16:38Z</time>
      </trkpt>
      <trkpt lat="53.4805369656533" lon="12.422912986949086">
        <ele>71.269999999999996</ele>
        <time>2024-09-14T10:16:46Z</time>
      </trkpt>
      <trkpt lat="53.480707034468651" lon="12.42300602607429">
        <ele>72.239999999999995</ele>
        <time>2024-09-14T10:16:51Z</time>
      </trkpt>
      <trkpt lat="53.480751039460301" lon="12.423029998317361">
        <ele>72.239999999999995</ele>
        <time>2024-09-14T10:16:52Z</time>
      </trkpt>
      <trkpt lat="53.480823962017894" lon="12.423137035220861">
        <ele>71.760000000000005</ele>
        <time>2024-09-14T10:16:53Z</time>
      </trkpt>
      <trkpt lat="53.480823962017894" lon="12.423240970820189">
        <ele>71.760000000000005</ele>
        <time>2024-09-14T10:16:54Z</time>
      </trkpt>
      <trkpt lat="53.480825973674655" lon="12.42324298247695">
        <ele>71.760000000000005</ele>
        <time>2024-09-14T10:16:55Z</time>
      </trkpt>
      <trkpt lat="53.480866961181164" lon="12.423283969983459">
        <ele>71.760000000000005</ele>
        <time>2024-09-14T10:16:56Z</time>
      </trkpt>
      <trkpt lat="53.480915995314717" lon="12.423283969983459">
        <ele>71.760000000000005</ele>
        <time>2024-09-14T10:16:57Z</time>
      </trkpt>
      <trkpt lat="53.481004005298018" lon="12.423258991912007">
        <ele>71.760000000000005</ele>
        <time>2024-09-14T10:16:58Z</time>
      </trkpt>
      <trkpt lat="53.481016997247934" lon="12.423155978322029">
        <ele>71.760000000000005</ele>
        <time>2024-09-14T10:16:59Z</time>
      </trkpt>
      <trkpt lat="53.481016997247934" lon="12.42309101857245">
        <ele>71.760000000000005</ele>
        <time>2024-09-14T10:17:00Z</time>
      </trkpt>
      <trkpt lat="53.481016997247934" lon="12.423026980832219">
        <ele>71.760000000000005</ele>
        <time>2024-09-14T10:17:01Z</time>
      </trkpt>
      <trkpt lat="53.481016997247934" lon="12.423026980832219">
        <ele>71.269999999999996</ele>
        <time>2024-09-14T10:17:02Z</time>
      </trkpt>
      <trkpt lat="53.480946002528071" lon="12.4228760227561">
        <ele>71.269999999999996</ele>
        <time>2024-09-14T10:17:03Z</time>
      </trkpt>
      <trkpt lat="53.480961006134748" lon="12.42279103025794">
        <ele>71.269999999999996</ele>
        <time>2024-09-14T10:17:04Z</time>
      </trkpt>
      <trkpt lat="53.480978021398187" lon="12.422696985304356">
        <ele>71.269999999999996</ele>
        <time>2024-09-14T10:17:05Z</time>
      </trkpt>
      <trkpt lat="53.480995958670974" lon="12.422595983371139">
        <ele>70.790000000000006</ele>
        <time>2024-09-14T10:17:06Z</time>
      </trkpt>
      <trkpt lat="53.481014985591173" lon="12.422487018629909">
        <ele>70.790000000000006</ele>
        <time>2024-09-14T10:17:07Z</time>
      </trkpt>
      <trkpt lat="53.481037029996514" lon="12.42236103862524">
        <ele>70.790000000000006</ele>
        <time>2024-09-14T10:17:08Z</time>
      </trkpt>
      <trkpt lat="53.481061002239585" lon="12.422227011993527">
        <ele>70.310000000000002</ele>
        <time>2024-09-14T10:17:09Z</time>
      </trkpt>
      <trkpt lat="53.481084974482656" lon="12.422087034210563">
        <ele>70.310000000000002</ele>
        <time>2024-09-14T10:17:10Z</time>
      </trkpt>
      <trkpt lat="53.481389991939068" lon="12.420366983860731">
        <ele>73.200000000000003</ele>
        <time>2024-09-14T10:17:21Z</time>
      </trkpt>
      <trkpt lat="53.481907993555069" lon="12.417931035161018">
        <ele>73.680000000000007</ele>
        <time>2024-09-14T10:17:33Z</time>
      </trkpt>
      <trkpt lat="53.482372015714645" lon="12.415568009018898">
        <ele>74.159999999999997</ele>
        <time>2024-09-14T10:17:42Z</time>
      </trkpt>
      <trkpt lat="53.482966041192412" lon="12.412510039284825">
        <ele>75.120000000000005</ele>
        <time>2024-09-14T10:17:52Z</time>
      </trkpt>
      <trkpt lat="53.483468033373356" lon="12.409921959042549">
        <ele>74.640000000000001</ele>
        <time>2024-09-14T10:18:00Z</time>
      </trkpt>
      <trkpt lat="53.484049988910556" lon="12.406836999580264">
        <ele>72.719999999999999</ele>
        <time>2024-09-14T10:18:10Z</time>
      </trkpt>
      <trkpt lat="53.484214022755623" lon="12.405795967206359">
        <ele>72.239999999999995</ele>
        <time>2024-09-14T10:18:14Z</time>
      </trkpt>
      <trkpt lat="53.484243024140596" lon="12.405508970841765">
        <ele>72.239999999999995</ele>
        <time>2024-09-14T10:18:15Z</time>
      </trkpt>
      <trkpt lat="53.484288034960628" lon="12.405052995309234">
        <ele>71.760000000000005</ele>
        <time>2024-09-14T10:18:17Z</time>
      </trkpt>
      <trkpt lat="53.484312007203698" lon="12.404817966744304">
        <ele>71.760000000000005</ele>
        <time>2024-09-14T10:18:18Z</time>
      </trkpt>
      <trkpt lat="53.484317036345601" lon="12.404605988413095">
        <ele>71.760000000000005</ele>
        <time>2024-09-14T10:18:19Z</time>
      </trkpt>
      <trkpt lat="53.484307983890176" lon="12.404373977333307">
        <ele>71.760000000000005</ele>
        <time>2024-09-14T10:18:20Z</time>
      </trkpt>
      <trkpt lat="53.484300021082163" lon="12.40414397791028">
        <ele>71.760000000000005</ele>
        <time>2024-09-14T10:18:21Z</time>
      </trkpt>
      <trkpt lat="53.484269008040428" lon="12.403937028720975">
        <ele>71.269999999999996</ele>
        <time>2024-09-14T10:18:22Z</time>
      </trkpt>
      <trkpt lat="53.484239000827074" lon="12.403736030682921">
        <ele>71.269999999999996</ele>
        <time>2024-09-14T10:18:23Z</time>
      </trkpt>
      <trkpt lat="53.484211005270481" lon="12.403550958260894">
        <ele>70.790000000000006</ele>
        <time>2024-09-14T10:18:24Z</time>
      </trkpt>
      <trkpt lat="53.484184015542269" lon="12.403373010456562">
        <ele>70.310000000000002</ele>
        <time>2024-09-14T10:18:25Z</time>
      </trkpt>
      <trkpt lat="53.484157025814056" lon="12.40319799631834">
        <ele>70.310000000000002</ele>
        <time>2024-09-14T10:18:26Z</time>
      </trkpt>
      <trkpt lat="53.484102040529251" lon="12.402845034375787">
        <ele>69.829999999999998</ele>
        <time>2024-09-14T10:18:28Z</time>
      </trkpt>
      <trkpt lat="53.484074966982007" lon="12.402670020237565">
        <ele>69.829999999999998</ele>
        <time>2024-09-14T10:18:29Z</time>
      </trkpt>
      <trkpt lat="53.484063986688852" lon="12.402495006099343">
        <ele>69.349999999999994</ele>
        <time>2024-09-14T10:18:30Z</time>
      </trkpt>
      <trkpt lat="53.484063986688852" lon="12.40231404080987">
        <ele>69.349999999999994</ele>
        <time>2024-09-14T10:18:31Z</time>
      </trkpt>
      <trkpt lat="53.484084019437432" lon="12.40214598365128">
        <ele>69.349999999999994</ele>
        <time>2024-09-14T10:18:32Z</time>
      </trkpt>
      <trkpt lat="53.484106985852122" lon="12.401977004483342">
        <ele>69.349999999999994</ele>
        <time>2024-09-14T10:18:33Z</time>
      </trkpt>
      <trkpt lat="53.484149985015392" lon="12.401819005608559">
        <ele>68.870000000000005</ele>
        <time>2024-09-14T10:18:34Z</time>
      </trkpt>
      <trkpt lat="53.484194995835423" lon="12.401657989248633">
        <ele>68.870000000000005</ele>
        <time>2024-09-14T10:18:35Z</time>
      </trkpt>
      <trkpt lat="53.484214022755623" lon="12.401590012013912">
        <ele>68.870000000000005</ele>
        <time>2024-09-14T10:18:36Z</time>
      </trkpt>
      <trkpt lat="53.484318964183331" lon="12.401436036452651">
        <ele>68.390000000000001</ele>
        <time>2024-09-14T10:18:37Z</time>
      </trkpt>
      <trkpt lat="53.484390964731574" lon="12.401330005377531">
        <ele>68.390000000000001</ele>
        <time>2024-09-14T10:18:38Z</time>
      </trkpt>
      <trkpt lat="53.484535971656442" lon="12.401118027046323">
        <ele>67.909999999999997</ele>
        <time>2024-09-14T10:18:40Z</time>
      </trkpt>
      <trkpt lat="53.484643008559942" lon="12.401053989306092">
        <ele>67.909999999999997</ele>
        <time>2024-09-14T10:18:41Z</time>
      </trkpt>
      <trkpt lat="53.484691036865115" lon="12.40104803815484">
        <ele>67.430000000000007</ele>
        <time>2024-09-14T10:18:42Z</time>
      </trkpt>
      <trkpt lat="53.484815005213022" lon="12.401033034548163">
        <ele>67.430000000000007</ele>
        <time>2024-09-14T10:18:43Z</time>
      </trkpt>
      <trkpt lat="53.484850963577628" lon="12.401051977649331">
        <ele>67.430000000000007</ele>
        <time>2024-09-14T10:18:44Z</time>
      </trkpt>
      <trkpt lat="53.48489798605442" lon="12.401077961549163">
        <ele>66.950000000000003</ele>
        <time>2024-09-14T10:18:45Z</time>
      </trkpt>
      <trkpt lat="53.48494098521769" lon="12.401460008695722">
        <ele>66.950000000000003</ele>
        <time>2024-09-14T10:18:46Z</time>
      </trkpt>
      <trkpt lat="53.484901003539562" lon="12.401568973436952">
        <ele>66.469999999999999</ele>
        <time>2024-09-14T10:18:47Z</time>
      </trkpt>
      <trkpt lat="53.484888011589646" lon="12.401634017005563">
        <ele>66.469999999999999</ele>
        <time>2024-09-14T10:18:48Z</time>
      </trkpt>
      <trkpt lat="53.484859010204673" lon="12.401785980910063">
        <ele>65.989999999999995</ele>
        <time>2024-09-14T10:18:49Z</time>
      </trkpt>
      <trkpt lat="53.484678966924548" lon="12.403072016313672">
        <ele>66.469999999999999</ele>
        <time>2024-09-14T10:18:54Z</time>
      </trkpt>
      <trkpt lat="53.484658012166619" lon="12.403400000184774">
        <ele>66.950000000000003</ele>
        <time>2024-09-14T10:18:55Z</time>
      </trkpt>
      <trkpt lat="53.484649965539575" lon="12.403731001541018">
        <ele>67.909999999999997</ele>
        <time>2024-09-14T10:18:56Z</time>
      </trkpt>
      <trkpt lat="53.484675027430058" lon="12.404028978198767">
        <ele>68.390000000000001</ele>
        <time>2024-09-14T10:18:57Z</time>
      </trkpt>
      <trkpt lat="53.484697993844748" lon="12.40431203506887">
        <ele>68.870000000000005</ele>
        <time>2024-09-14T10:18:58Z</time>
      </trkpt>
      <trkpt lat="53.484736969694495" lon="12.404583021998405">
        <ele>69.349999999999994</ele>
        <time>2024-09-14T10:18:59Z</time>
      </trkpt>
      <trkpt lat="53.484786003828049" lon="12.404853003099561">
        <ele>69.349999999999994</ele>
        <time>2024-09-14T10:19:00Z</time>
      </trkpt>
      <trkpt lat="53.485319009050727" lon="12.406383035704494">
        <ele>70.310000000000002</ele>
        <time>2024-09-14T10:19:06Z</time>
      </trkpt>
      <trkpt lat="53.486353000625968" lon="12.408844968304038">
        <ele>69.349999999999994</ele>
        <time>2024-09-14T10:19:15Z</time>
      </trkpt>
      <trkpt lat="53.487102007493377" lon="12.410797029733658">
        <ele>69.349999999999994</ele>
        <time>2024-09-14T10:19:22Z</time>
      </trkpt>
      <trkpt lat="53.488295003771782" lon="12.413182016462088">
        <ele>69.829999999999998</ele>
        <time>2024-09-14T10:19:31Z</time>
      </trkpt>
      <trkpt lat="53.488837983459234" lon="12.415255028754473">
        <ele>69.349999999999994</ele>
        <time>2024-09-14T10:19:37Z</time>
      </trkpt>
      <trkpt lat="53.488987013697624" lon="12.417418984696269">
        <ele>67.430000000000007</ele>
        <time>2024-09-14T10:19:43Z</time>
      </trkpt>
      <trkpt lat="53.489075023680925" lon="12.42135495878756">
        <ele>62.140000000000001</ele>
        <time>2024-09-14T10:19:54Z</time>
      </trkpt>
      <trkpt lat="53.48880797624588" lon="12.423987966030836">
        <ele>58.780000000000001</ele>
        <time>2024-09-14T10:20:02Z</time>
      </trkpt>
      <trkpt lat="53.488762965425849" lon="12.424949035048485">
        <ele>58.299999999999997</ele>
        <time>2024-09-14T10:20:05Z</time>
      </trkpt>
      <trkpt lat="53.488786015659571" lon="12.42526201531291">
        <ele>58.299999999999997</ele>
        <time>2024-09-14T10:20:06Z</time>
      </trkpt>
      <trkpt lat="53.488836977630854" lon="12.425555968657136">
        <ele>58.299999999999997</ele>
        <time>2024-09-14T10:20:07Z</time>
      </trkpt>
      <trkpt lat="53.488911995664239" lon="12.425825027748942">
        <ele>58.299999999999997</ele>
        <time>2024-09-14T10:20:08Z</time>
      </trkpt>
      <trkpt lat="53.488993970677257" lon="12.426086040213704">
        <ele>58.299999999999997</ele>
        <time>2024-09-14T10:20:09Z</time>
      </trkpt>
      <trkpt lat="53.489073012024164" lon="12.426334982737899">
        <ele>58.780000000000001</ele>
        <time>2024-09-14T10:20:10Z</time>
      </trkpt>
      <trkpt lat="53.489176025614142" lon="12.426538998261094">
        <ele>58.780000000000001</ele>
        <time>2024-09-14T10:20:11Z</time>
      </trkpt>
      <trkpt lat="53.489287002012134" lon="12.426742007955909">
        <ele>58.780000000000001</ele>
        <time>2024-09-14T10:20:12Z</time>
      </trkpt>
      <trkpt lat="53.489410970360041" lon="12.426909981295466">
        <ele>58.780000000000001</ele>
        <time>2024-09-14T10:20:13Z</time>
      </trkpt>
      <trkpt lat="53.489551031962037" lon="12.427075020968914">
        <ele>59.259999999999998</ele>
        <time>2024-09-14T10:20:14Z</time>
      </trkpt>
      <trkpt lat="53.489702995866537" lon="12.42721701040864">
        <ele>59.259999999999998</ele>
        <time>2024-09-14T10:20:15Z</time>
      </trkpt>
      <trkpt lat="53.489863006398082" lon="12.427352964878082">
        <ele>59.740000000000002</ele>
        <time>2024-09-14T10:20:16Z</time>
      </trkpt>
      <trkpt lat="53.490051012486219" lon="12.427447009831667">
        <ele>59.740000000000002</ele>
        <time>2024-09-14T10:20:17Z</time>
      </trkpt>
      <trkpt lat="53.490251004695892" lon="12.427512975409627">
        <ele>60.219999999999999</ele>
        <time>2024-09-14T10:20:18Z</time>
      </trkpt>
      <trkpt lat="53.490457031875849" lon="12.427553962916136">
        <ele>60.219999999999999</ele>
        <time>2024-09-14T10:20:19Z</time>
      </trkpt>
      <trkpt lat="53.492010030895472" lon="12.427773987874389">
        <ele>62.140000000000001</ele>
        <time>2024-09-14T10:20:27Z</time>
      </trkpt>
      <trkpt lat="53.493293970823288" lon="12.427466958761215">
        <ele>63.579999999999998</ele>
        <time>2024-09-14T10:20:33Z</time>
      </trkpt>
      <trkpt lat="53.494064016267657" lon="12.427197983488441">
        <ele>64.069999999999993</ele>
        <time>2024-09-14T10:20:37Z</time>
      </trkpt>
      <trkpt lat="53.494254034012556" lon="12.427068985998631">
        <ele>63.579999999999998</ele>
        <time>2024-09-14T10:20:38Z</time>
      </trkpt>
      <trkpt lat="53.49443600513041" lon="12.426896989345551">
        <ele>63.579999999999998</ele>
        <time>2024-09-14T10:20:39Z</time>
      </trkpt>
      <trkpt lat="53.49462702870369" lon="12.426718035712838">
        <ele>63.100000000000001</ele>
        <time>2024-09-14T10:20:40Z</time>
      </trkpt>
      <trkpt lat="53.494819980114698" lon="12.426535980775952">
        <ele>62.619999999999997</ele>
        <time>2024-09-14T10:20:41Z</time>
      </trkpt>
      <trkpt lat="53.496382031589746" lon="12.424648040905595">
        <ele>61.18</ele>
        <time>2024-09-14T10:20:50Z</time>
      </trkpt>
      <trkpt lat="53.497906029224396" lon="12.422838974744081">
        <ele>60.219999999999999</ele>
        <time>2024-09-14T10:20:59Z</time>
      </trkpt>
      <trkpt lat="53.498243987560272" lon="12.42251199670136">
        <ele>60.700000000000003</ele>
        <time>2024-09-14T10:21:01Z</time>
      </trkpt>
      <trkpt lat="53.498426964506507" lon="12.422390040010214">
        <ele>60.700000000000003</ele>
        <time>2024-09-14T10:21:02Z</time>
      </trkpt>
      <trkpt lat="53.498618993908167" lon="12.422316027805209">
        <ele>60.700000000000003</ele>
        <time>2024-09-14T10:21:03Z</time>
      </trkpt>
      <trkpt lat="53.498812029138207" lon="12.422242015600204">
        <ele>60.700000000000003</ele>
        <time>2024-09-14T10:21:04Z</time>
      </trkpt>
      <trkpt lat="53.499007998034358" lon="12.422201028093696">
        <ele>60.700000000000003</ele>
        <time>2024-09-14T10:21:05Z</time>
      </trkpt>
      <trkpt lat="53.499207990244031" lon="12.422184012830257">
        <ele>60.700000000000003</ele>
        <time>2024-09-14T10:21:06Z</time>
      </trkpt>
      <trkpt lat="53.501495998352766" lon="12.422001035884023">
        <ele>62.140000000000001</ele>
        <time>2024-09-14T10:21:17Z</time>
      </trkpt>
      <trkpt lat="53.503211019560695" lon="12.422030037268996">
        <ele>65.989999999999995</ele>
        <time>2024-09-14T10:21:25Z</time>
      </trkpt>
      <trkpt lat="53.505900017917156" lon="12.422400014474988">
        <ele>71.269999999999996</ele>
        <time>2024-09-14T10:21:37Z</time>
      </trkpt>
      <trkpt lat="53.508425988256931" lon="12.422749036923051">
        <ele>74.640000000000001</ele>
        <time>2024-09-14T10:21:49Z</time>
      </trkpt>
      <trkpt lat="53.511868016794324" lon="12.423007031902671">
        <ele>75.120000000000005</ele>
        <time>2024-09-14T10:22:05Z</time>
      </trkpt>
      <trkpt lat="53.514177985489368" lon="12.423024969175458">
        <ele>76.560000000000002</ele>
        <time>2024-09-14T10:22:16Z</time>
      </trkpt>
      <trkpt lat="53.517094971612096" lon="12.423056988045573">
        <ele>74.640000000000001</ele>
        <time>2024-09-14T10:22:31Z</time>
      </trkpt>
      <trkpt lat="53.518173974007368" lon="12.423068974167109">
        <ele>74.640000000000001</ele>
        <time>2024-09-14T10:22:39Z</time>
      </trkpt>
      <trkpt lat="53.518616035580635" lon="12.423069979995489">
        <ele>75.120000000000005</ele>
        <time>2024-09-14T10:22:44Z</time>
      </trkpt>
      <trkpt lat="53.518705973401666" lon="12.423137035220861">
        <ele>75.120000000000005</ele>
        <time>2024-09-14T10:22:45Z</time>
      </trkpt>
      <trkpt lat="53.518781997263432" lon="12.4233060143888">
        <ele>75.599999999999994</ele>
        <time>2024-09-14T10:22:47Z</time>
      </trkpt>
      <trkpt lat="53.51886598393321" lon="12.423271983861923">
        <ele>75.599999999999994</ele>
        <time>2024-09-14T10:22:48Z</time>
      </trkpt>
      <trkpt lat="53.518890039995313" lon="12.42326301522553">
        <ele>75.599999999999994</ele>
        <time>2024-09-14T10:22:49Z</time>
      </trkpt>
      <trkpt lat="53.51912003941834" lon="12.423069979995489">
        <ele>75.599999999999994</ele>
        <time>2024-09-14T10:22:51Z</time>
      </trkpt>
      <trkpt lat="53.519239984452724" lon="12.423069979995489">
        <ele>75.599999999999994</ele>
        <time>2024-09-14T10:22:52Z</time>
      </trkpt>
      <trkpt lat="53.520386964082718" lon="12.423088001087308">
        <ele>74.159999999999997</ele>
        <time>2024-09-14T10:22:59Z</time>
      </trkpt>
      <trkpt lat="53.522675978019834" lon="12.423133011907339">
        <ele>71.269999999999996</ele>
        <time>2024-09-14T10:23:11Z</time>
      </trkpt>
      <trkpt lat="53.524637008085847" lon="12.42322001606226">
        <ele>68.390000000000001</ele>
        <time>2024-09-14T10:23:23Z</time>
      </trkpt>
      <trkpt lat="53.525850959122181" lon="12.42332998663187">
        <ele>66.469999999999999</ele>
        <time>2024-09-14T10:23:32Z</time>
      </trkpt>
      <trkpt lat="53.527143029496074" lon="12.423455966636539">
        <ele>66.950000000000003</ele>
        <time>2024-09-14T10:23:42Z</time>
      </trkpt>
      <trkpt lat="53.528583962470293" lon="12.423594016581774">
        <ele>65.510000000000005</ele>
        <time>2024-09-14T10:23:54Z</time>
      </trkpt>
      <trkpt lat="53.529417039826512" lon="12.423667022958398">
        <ele>64.549999999999997</ele>
        <time>2024-09-14T10:24:02Z</time>
      </trkpt>
      <trkpt lat="53.530777003616095" lon="12.423799959942698">
        <ele>65.030000000000001</ele>
        <time>2024-09-14T10:24:14Z</time>
      </trkpt>
      <trkpt lat="53.532864013686776" lon="12.424029037356377">
        <ele>65.030000000000001</ele>
        <time>2024-09-14T10:24:32Z</time>
      </trkpt>
      <trkpt lat="53.534455988556147" lon="12.424373030662537">
        <ele>66.469999999999999</ele>
        <time>2024-09-14T10:24:46Z</time>
      </trkpt>
      <trkpt lat="53.535379003733397" lon="12.425123965367675">
        <ele>66.469999999999999</ele>
        <time>2024-09-14T10:24:55Z</time>
      </trkpt>
      <trkpt lat="53.536320040002465" lon="12.426258036866784">
        <ele>65.989999999999995</ele>
        <time>2024-09-14T10:25:06Z</time>
      </trkpt>
      <trkpt lat="53.536364967003465" lon="12.42631696164608">
        <ele>65.989999999999995</ele>
        <time>2024-09-14T10:25:07Z</time>
      </trkpt>
      <trkpt lat="53.536403020843863" lon="12.426365995779634">
        <ele>65.989999999999995</ele>
        <time>2024-09-14T10:25:08Z</time>
      </trkpt>
      <trkpt lat="53.536432022228837" lon="12.426403965801001">
        <ele>65.989999999999995</ele>
        <time>2024-09-14T10:25:09Z</time>
      </trkpt>
      <trkpt lat="53.536550039425492" lon="12.426338000223041">
        <ele>65.989999999999995</ele>
        <time>2024-09-14T10:25:10Z</time>
      </trkpt>
      <trkpt lat="53.536576023325324" lon="12.426243033260107">
        <ele>65.989999999999995</ele>
        <time>2024-09-14T10:25:11Z</time>
      </trkpt>
      <trkpt lat="53.536606030538678" lon="12.426129039376974">
        <ele>65.989999999999995</ele>
        <time>2024-09-14T10:25:12Z</time>
      </trkpt>
      <trkpt lat="53.536992017179728" lon="12.42502698674798">
        <ele>64.069999999999993</ele>
        <time>2024-09-14T10:25:20Z</time>
      </trkpt>
      <trkpt lat="53.53706200607121" lon="12.424922967329621">
        <ele>64.069999999999993</ele>
        <time>2024-09-14T10:25:21Z</time>
      </trkpt>
      <trkpt lat="53.537238026037812" lon="12.424775026738644">
        <ele>64.549999999999997</ele>
        <time>2024-09-14T10:25:23Z</time>
      </trkpt>
      <trkpt lat="53.53826598264277" lon="12.424047980457544">
        <ele>66.469999999999999</ele>
        <time>2024-09-14T10:25:34Z</time>
      </trkpt>
      <trkpt lat="53.538816003128886" lon="12.423680014908314">
        <ele>65.989999999999995</ele>
        <time>2024-09-14T10:25:40Z</time>
      </trkpt>
      <trkpt lat="53.538915999233723" lon="12.423612037673593">
        <ele>65.989999999999995</ele>
        <time>2024-09-14T10:25:41Z</time>
      </trkpt>
      <trkpt lat="53.539814036339521" lon="12.423008037731051">
        <ele>65.030000000000001</ele>
        <time>2024-09-14T10:25:49Z</time>
      </trkpt>
      <trkpt lat="53.54064803570509" lon="12.422542003914714">
        <ele>64.549999999999997</ele>
        <time>2024-09-14T10:25:55Z</time>
      </trkpt>
      <trkpt lat="53.541942033916712" lon="12.421850999817252">
        <ele>65.989999999999995</ele>
        <time>2024-09-14T10:26:03Z</time>
      </trkpt>
      <trkpt lat="53.543553035706282" lon="12.420990010723472">
        <ele>66.950000000000003</ele>
        <time>2024-09-14T10:26:13Z</time>
      </trkpt>
      <trkpt lat="53.545577013865113" lon="12.419913019984961">
        <ele>66.469999999999999</ele>
        <time>2024-09-14T10:26:25Z</time>
      </trkpt>
      <trkpt lat="53.54763301089406" lon="12.418850027024746">
        <ele>63.100000000000001</ele>
        <time>2024-09-14T10:26:36Z</time>
      </trkpt>
      <trkpt lat="53.549596974626184" lon="12.417833972722292">
        <ele>59.740000000000002</ele>
        <time>2024-09-14T10:26:46Z</time>
      </trkpt>
      <trkpt lat="53.552006017416716" lon="12.416588002815843">
        <ele>59.259999999999998</ele>
        <time>2024-09-14T10:26:58Z</time>
      </trkpt>
      <trkpt lat="53.553140005096793" lon="12.41600101813674">
        <ele>57.340000000000003</ele>
        <time>2024-09-14T10:27:05Z</time>
      </trkpt>
      <trkpt lat="53.554128985852003" lon="12.41548896767199">
        <ele>55.890000000000001</ele>
        <time>2024-09-14T10:27:14Z</time>
      </trkpt>
      <trkpt lat="53.55508703738451" lon="12.414994016289711">
        <ele>54.93</ele>
        <time>2024-09-14T10:27:20Z</time>
      </trkpt>
      <trkpt lat="53.556393021717668" lon="12.414318015798926">
        <ele>53.490000000000002</ele>
        <time>2024-09-14T10:27:28Z</time>
      </trkpt>
      <trkpt lat="53.556902976706624" lon="12.414053985849023">
        <ele>53.969999999999999</ele>
        <time>2024-09-14T10:27:34Z</time>
      </trkpt>
      <trkpt lat="53.556975983083248" lon="12.414017021656036">
        <ele>54.450000000000003</ele>
        <time>2024-09-14T10:27:35Z</time>
      </trkpt>
      <trkpt lat="53.557082014158368" lon="12.413865979760885">
        <ele>54.93</ele>
        <time>2024-09-14T10:27:36Z</time>
      </trkpt>
      <trkpt lat="53.557113027200103" lon="12.413699012249708">
        <ele>55.409999999999997</ele>
        <time>2024-09-14T10:27:37Z</time>
      </trkpt>
      <trkpt lat="53.557147979736328" lon="12.413506982848048">
        <ele>55.409999999999997</ele>
        <time>2024-09-14T10:27:38Z</time>
      </trkpt>
      <trkpt lat="53.557508988305926" lon="12.411544024944305">
        <ele>57.340000000000003</ele>
        <time>2024-09-14T10:27:46Z</time>
      </trkpt>
      <trkpt lat="53.557877959683537" lon="12.409534966573119">
        <ele>58.299999999999997</ele>
        <time>2024-09-14T10:27:54Z</time>
      </trkpt>
      <trkpt lat="53.55831298045814" lon="12.40719398483634">
        <ele>58.299999999999997</ele>
        <time>2024-09-14T10:28:03Z</time>
      </trkpt>
      <trkpt lat="53.558717994019389" lon="12.405131030827761">
        <ele>58.780000000000001</ele>
        <time>2024-09-14T10:28:10Z</time>
      </trkpt>
      <trkpt lat="53.559189978986979" lon="12.402722993865609">
        <ele>53.969999999999999</ele>
        <time>2024-09-14T10:28:19Z</time>
      </trkpt>
      <trkpt lat="53.559242030605674" lon="12.402456030249596">
        <ele>52.530000000000001</ele>
        <time>2024-09-14T10:28:20Z</time>
      </trkpt>
      <trkpt lat="53.559680990874767" lon="12.400215966627002">
        <ele>40.509999999999998</ele>
        <time>2024-09-14T10:28:28Z</time>
      </trkpt>
      <trkpt lat="53.560204021632671" lon="12.39754700101912">
        <ele>30.899999999999999</ele>
        <time>2024-09-14T10:28:38Z</time>
      </trkpt>
      <trkpt lat="53.560351962223649" lon="12.396791959181428">
        <ele>27.530000000000001</ele>
        <time>2024-09-14T10:28:42Z</time>
      </trkpt>
      <trkpt lat="53.560382975265384" lon="12.396633038297296">
        <ele>27.050000000000001</ele>
        <time>2024-09-14T10:28:43Z</time>
      </trkpt>
      <trkpt lat="53.56069503352046" lon="12.395041985437274">
        <ele>24.170000000000002</ele>
        <time>2024-09-14T10:28:51Z</time>
      </trkpt>
      <trkpt lat="53.561111027374864" lon="12.392921028658748">
        <ele>24.170000000000002</ele>
        <time>2024-09-14T10:28:58Z</time>
      </trkpt>
      <trkpt lat="53.561504976823926" lon="12.390912976115942">
        <ele>23.690000000000001</ele>
        <time>2024-09-14T10:29:06Z</time>
      </trkpt>
      <trkpt lat="53.56185601092875" lon="12.389121009036899">
        <ele>22.73</ele>
        <time>2024-09-14T10:29:13Z</time>
      </trkpt>
      <trkpt lat="53.562244009226561" lon="12.387111028656363">
        <ele>17.440000000000001</ele>
        <time>2024-09-14T10:29:22Z</time>
      </trkpt>
      <trkpt lat="53.562284996733069" lon="12.386765023693442">
        <ele>16</ele>
        <time>2024-09-14T10:29:24Z</time>
      </trkpt>
      <trkpt lat="53.562288014218211" lon="12.386576011776924">
        <ele>15.039999999999999</ele>
        <time>2024-09-14T10:29:25Z</time>
      </trkpt>
      <trkpt lat="53.562264963984489" lon="12.386411977931857">
        <ele>14.56</ele>
        <time>2024-09-14T10:29:26Z</time>
      </trkpt>
      <trkpt lat="53.562240991741419" lon="12.386235035955906">
        <ele>14.08</ele>
        <time>2024-09-14T10:29:27Z</time>
      </trkpt>
      <trkpt lat="53.562192041426897" lon="12.386063961312175">
        <ele>13.6</ele>
        <time>2024-09-14T10:29:28Z</time>
      </trkpt>
      <trkpt lat="53.562129009515047" lon="12.385888025164604">
        <ele>13.119999999999999</ele>
        <time>2024-09-14T10:29:29Z</time>
      </trkpt>
      <trkpt lat="53.561568008735776" lon="12.384306024760008">
        <ele>12.630000000000001</ele>
        <time>2024-09-14T10:29:36Z</time>
      </trkpt>
      <trkpt lat="53.56082302518189" lon="12.382207028567791">
        <ele>13.119999999999999</ele>
        <time>2024-09-14T10:29:44Z</time>
      </trkpt>
      <trkpt lat="53.559946026653051" lon="12.37973696552217">
        <ele>18.399999999999999</ele>
        <time>2024-09-14T10:29:54Z</time>
      </trkpt>
      <trkpt lat="53.55925896205008" lon="12.377799991518259">
        <ele>21.289999999999999</ele>
        <time>2024-09-14T10:30:02Z</time>
      </trkpt>
      <trkpt lat="53.558393027633429" lon="12.375362031161785">
        <ele>26.09</ele>
        <time>2024-09-14T10:30:12Z</time>
      </trkpt>
      <trkpt lat="53.5580750182271" lon="12.374441027641296">
        <ele>28.98</ele>
        <time>2024-09-14T10:30:18Z</time>
      </trkpt>
      <trkpt lat="53.558007040992379" lon="12.374211028218269">
        <ele>29.940000000000001</ele>
        <time>2024-09-14T10:30:19Z</time>
      </trkpt>
      <trkpt lat="53.557979967445135" lon="12.374037019908428">
        <ele>30.420000000000002</ele>
        <time>2024-09-14T10:30:21Z</time>
      </trkpt>
      <trkpt lat="53.557981979101896" lon="12.373718004673719">
        <ele>30.899999999999999</ele>
        <time>2024-09-14T10:30:22Z</time>
      </trkpt>
      <trkpt lat="53.558041993528605" lon="12.373588001355529">
        <ele>31.379999999999999</ele>
        <time>2024-09-14T10:30:23Z</time>
      </trkpt>
      <trkpt lat="53.558163028210402" lon="12.373436037451029">
        <ele>31.859999999999999</ele>
        <time>2024-09-14T10:30:24Z</time>
      </trkpt>
      <trkpt lat="53.558276016265154" lon="12.373327994719148">
        <ele>31.859999999999999</ele>
        <time>2024-09-14T10:30:25Z</time>
      </trkpt>
      <trkpt lat="53.559263991191983" lon="12.372368015348911">
        <ele>33.299999999999997</ele>
        <time>2024-09-14T10:30:32Z</time>
      </trkpt>
      <trkpt lat="53.56043603271246" lon="12.371150963008404">
        <ele>34.259999999999998</ele>
        <time>2024-09-14T10:30:40Z</time>
      </trkpt>
      <trkpt lat="53.561890963464975" lon="12.369640041142702">
        <ele>38.109999999999999</ele>
        <time>2024-09-14T10:30:50Z</time>
      </trkpt>
      <trkpt lat="53.562066983431578" lon="12.369467038661242">
        <ele>38.590000000000003</ele>
        <time>2024-09-14T10:30:51Z</time>
      </trkpt>
      <trkpt lat="53.563416972756386" lon="12.368139009922743">
        <ele>38.109999999999999</ele>
        <time>2024-09-14T10:30:59Z</time>
      </trkpt>
      <trkpt lat="53.56460896320641" lon="12.366966968402267">
        <ele>35.229999999999997</ele>
        <time>2024-09-14T10:31:06Z</time>
      </trkpt>
      <trkpt lat="53.565925005823374" lon="12.36572602763772">
        <ele>34.259999999999998</ele>
        <time>2024-09-14T10:31:15Z</time>
      </trkpt>
      <trkpt lat="53.566204039379954" lon="12.365598035976291">
        <ele>33.780000000000001</ele>
        <time>2024-09-14T10:31:17Z</time>
      </trkpt>
      <trkpt lat="53.5663259960711" lon="12.365561993792653">
        <ele>33.299999999999997</ele>
        <time>2024-09-14T10:31:18Z</time>
      </trkpt>
      <trkpt lat="53.566450970247388" lon="12.365557970479131">
        <ele>33.299999999999997</ele>
        <time>2024-09-14T10:31:19Z</time>
      </trkpt>
      <trkpt lat="53.566550966352224" lon="12.365587977692485">
        <ele>33.299999999999997</ele>
        <time>2024-09-14T10:31:20Z</time>
      </trkpt>
      <trkpt lat="53.566654985770583" lon="12.365635000169277">
        <ele>33.299999999999997</ele>
        <time>2024-09-14T10:31:21Z</time>
      </trkpt>
      <trkpt lat="53.566757999360561" lon="12.365710018202662">
        <ele>33.299999999999997</ele>
        <time>2024-09-14T10:31:22Z</time>
      </trkpt>
      <trkpt lat="53.566846009343863" lon="12.365792999044061">
        <ele>33.299999999999997</ele>
        <time>2024-09-14T10:31:23Z</time>
      </trkpt>
      <trkpt lat="53.567704986780882" lon="12.366349976509809">
        <ele>34.259999999999998</ele>
        <time>2024-09-14T10:31:32Z</time>
      </trkpt>
      <trkpt lat="53.567798025906086" lon="12.366402028128505">
        <ele>34.740000000000002</ele>
        <time>2024-09-14T10:31:33Z</time>
      </trkpt>
      <trkpt lat="53.567887963727117" lon="12.366437986493111">
        <ele>34.740000000000002</ele>
        <time>2024-09-14T10:31:34Z</time>
      </trkpt>
      <trkpt lat="53.568259030580521" lon="12.366587016731501">
        <ele>35.710000000000001</ele>
        <time>2024-09-14T10:31:38Z</time>
      </trkpt>
      <trkpt lat="53.568736966699362" lon="12.366796983405948">
        <ele>38.109999999999999</ele>
        <time>2024-09-14T10:31:43Z</time>
      </trkpt>
      <trkpt lat="53.569061011075974" lon="12.366954982280731">
        <ele>39.07</ele>
        <time>2024-09-14T10:31:46Z</time>
      </trkpt>
      <trkpt lat="53.569178022444248" lon="12.367012985050678">
        <ele>39.549999999999997</ele>
        <time>2024-09-14T10:31:47Z</time>
      </trkpt>
      <trkpt lat="53.569758972153068" lon="12.367295958101749">
        <ele>40.990000000000002</ele>
        <time>2024-09-14T10:31:52Z</time>
      </trkpt>
      <trkpt lat="53.569875983521342" lon="12.367353960871696">
        <ele>40.990000000000002</ele>
        <time>2024-09-14T10:31:53Z</time>
      </trkpt>
      <trkpt lat="53.570116041228175" lon="12.367470972239971">
        <ele>41.469999999999999</ele>
        <time>2024-09-14T10:31:55Z</time>
      </trkpt>
      <trkpt lat="53.570232968777418" lon="12.367527969181538">
        <ele>41.469999999999999</ele>
        <time>2024-09-14T10:31:56Z</time>
      </trkpt>
      <trkpt lat="53.57068701647222" lon="12.367748999968171">
        <ele>41.950000000000003</ele>
        <time>2024-09-14T10:32:00Z</time>
      </trkpt>
      <trkpt lat="53.570806039497256" lon="12.367808008566499">
        <ele>42.439999999999998</ele>
        <time>2024-09-14T10:32:01Z</time>
      </trkpt>
      <trkpt lat="53.571296967566013" lon="12.3680479824543">
        <ele>43.880000000000003</ele>
        <time>2024-09-14T10:32:05Z</time>
      </trkpt>
      <trkpt lat="53.571422025561333" lon="12.368107996881008">
        <ele>43.880000000000003</ele>
        <time>2024-09-14T10:32:06Z</time>
      </trkpt>
      <trkpt lat="53.571899039670825" lon="12.368341013789177">
        <ele>43.880000000000003</ele>
        <time>2024-09-14T10:32:10Z</time>
      </trkpt>
      <trkpt lat="53.572008004412055" lon="12.368394993245602">
        <ele>43.880000000000003</ele>
        <time>2024-09-14T10:32:11Z</time>
      </trkpt>
      <trkpt lat="53.572103977203369" lon="12.368442015722394">
        <ele>43.880000000000003</ele>
        <time>2024-09-14T10:32:12Z</time>
      </trkpt>
      <trkpt lat="53.572592977434397" lon="12.368679977953434">
        <ele>44.840000000000003</ele>
        <time>2024-09-14T10:32:18Z</time>
      </trkpt>
      <trkpt lat="53.573542982339859" lon="12.36914400011301">
        <ele>48.68</ele>
        <time>2024-09-14T10:32:28Z</time>
      </trkpt>
      <trkpt lat="53.574422998353839" lon="12.36957399174571">
        <ele>50.609999999999999</ele>
        <time>2024-09-14T10:32:37Z</time>
      </trkpt>
      <trkpt lat="53.574805967509747" lon="12.369760992005467">
        <ele>51.57</ele>
        <time>2024-09-14T10:32:41Z</time>
      </trkpt>
      <trkpt lat="53.575756978243589" lon="12.370259966701269">
        <ele>54.93</ele>
        <time>2024-09-14T10:32:50Z</time>
      </trkpt>
      <trkpt lat="53.575882958248258" lon="12.370326016098261">
        <ele>55.409999999999997</ele>
        <time>2024-09-14T10:32:51Z</time>
      </trkpt>
      <trkpt lat="53.576013967394829" lon="12.370394999161363">
        <ele>55.890000000000001</ele>
        <time>2024-09-14T10:32:52Z</time>
      </trkpt>
      <trkpt lat="53.576142964884639" lon="12.370462976396084">
        <ele>56.369999999999997</ele>
        <time>2024-09-14T10:32:53Z</time>
      </trkpt>
      <trkpt lat="53.576275985687971" lon="12.370532965287566">
        <ele>56.859999999999999</ele>
        <time>2024-09-14T10:32:54Z</time>
      </trkpt>
      <trkpt lat="53.576408000662923" lon="12.37060303799808">
        <ele>57.340000000000003</ele>
        <time>2024-09-14T10:32:55Z</time>
      </trkpt>
      <trkpt lat="53.577522039413452" lon="12.37150501459837">
        <ele>60.700000000000003</ele>
        <time>2024-09-14T10:33:03Z</time>
      </trkpt>
      <trkpt lat="53.578843027353287" lon="12.372488966211677">
        <ele>64.069999999999993</ele>
        <time>2024-09-14T10:33:11Z</time>
      </trkpt>
      <trkpt lat="53.580318996682763" lon="12.373252976685762">
        <ele>66.469999999999999</ele>
        <time>2024-09-14T10:33:19Z</time>
      </trkpt>
      <trkpt lat="53.581916000694036" lon="12.373833004385233">
        <ele>69.349999999999994</ele>
        <time>2024-09-14T10:33:27Z</time>
      </trkpt>
      <trkpt lat="53.583505963906646" lon="12.374124024063349">
        <ele>72.719999999999999</ele>
        <time>2024-09-14T10:33:36Z</time>
      </trkpt>
      <trkpt lat="53.58519097790122" lon="12.374644037336111">
        <ele>75.599999999999994</ele>
        <time>2024-09-14T10:33:46Z</time>
      </trkpt>
      <trkpt lat="53.585358029231429" lon="12.374701034277678">
        <ele>76.079999999999998</ele>
        <time>2024-09-14T10:33:47Z</time>
      </trkpt>
      <trkpt lat="53.585701016709208" lon="12.374864984303713">
        <ele>77.040000000000006</ele>
        <time>2024-09-14T10:33:49Z</time>
      </trkpt>
      <trkpt lat="53.58587502501905" lon="12.374947965145111">
        <ele>77.519999999999996</ele>
        <time>2024-09-14T10:33:50Z</time>
      </trkpt>
      <trkpt lat="53.587330039590597" lon="12.375646010041237">
        <ele>81.370000000000005</ele>
        <time>2024-09-14T10:33:58Z</time>
      </trkpt>
      <trkpt lat="53.588806008920074" lon="12.376354029402137">
        <ele>84.25</ele>
        <time>2024-09-14T10:34:06Z</time>
      </trkpt>
      <trkpt lat="53.588984040543437" lon="12.376439021900296">
        <ele>84.730000000000004</ele>
        <time>2024-09-14T10:34:07Z</time>
      </trkpt>
      <trkpt lat="53.59013001434505" lon="12.376988958567381">
        <ele>85.689999999999998</ele>
        <time>2024-09-14T10:34:14Z</time>
      </trkpt>
      <trkpt lat="53.591130981221795" lon="12.377468990162015">
        <ele>85.689999999999998</ele>
        <time>2024-09-14T10:34:20Z</time>
      </trkpt>
      <trkpt lat="53.59266403131187" lon="12.378203999251127">
        <ele>84.730000000000004</ele>
        <time>2024-09-14T10:34:29Z</time>
      </trkpt>
      <trkpt lat="53.593792989850044" lon="12.378744967281818">
        <ele>80.890000000000001</ele>
        <time>2024-09-14T10:34:36Z</time>
      </trkpt>
      <trkpt lat="53.593945037573576" lon="12.378817973658442">
        <ele>80.409999999999997</ele>
        <time>2024-09-14T10:34:37Z</time>
      </trkpt>
      <trkpt lat="53.594091972336173" lon="12.378888968378305">
        <ele>79.930000000000007</ele>
        <time>2024-09-14T10:34:38Z</time>
      </trkpt>
      <trkpt lat="53.594807032495737" lon="12.379232039675117">
        <ele>77.040000000000006</ele>
        <time>2024-09-14T10:34:43Z</time>
      </trkpt>
      <trkpt lat="53.594903005287051" lon="12.379433959722519">
        <ele>77.040000000000006</ele>
        <time>2024-09-14T10:34:44Z</time>
      </trkpt>
      <trkpt lat="53.594994032755494" lon="12.379625989124179">
        <ele>76.560000000000002</ele>
        <time>2024-09-14T10:34:45Z</time>
      </trkpt>
      <trkpt lat="53.59533098526299" lon="12.380541041493416">
        <ele>73.680000000000007</ele>
        <time>2024-09-14T10:34:49Z</time>
      </trkpt>
      <trkpt lat="53.595412038266659" lon="12.380760982632637">
        <ele>73.200000000000003</ele>
        <time>2024-09-14T10:34:50Z</time>
      </trkpt>
      <trkpt lat="53.59586700797081" lon="12.381997983902693">
        <ele>69.349999999999994</ele>
        <time>2024-09-14T10:34:55Z</time>
      </trkpt>
      <trkpt lat="53.596313009038568" lon="12.383201038464904">
        <ele>65.989999999999995</ele>
        <time>2024-09-14T10:35:01Z</time>
      </trkpt>
      <trkpt lat="53.596864035353065" lon="12.38465303555131">
        <ele>64.549999999999997</ele>
        <time>2024-09-14T10:35:09Z</time>
      </trkpt>
      <trkpt lat="53.597310958430171" lon="12.385828010737896">
        <ele>61.659999999999997</ele>
        <time>2024-09-14T10:35:15Z</time>
      </trkpt>
      <trkpt lat="53.597411960363388" lon="12.386094974353909">
        <ele>61.659999999999997</ele>
        <time>2024-09-14T10:35:17Z</time>
      </trkpt>
      <trkpt lat="53.597445990890265" lon="12.386183990165591">
        <ele>61.18</ele>
        <time>2024-09-14T10:35:18Z</time>
      </trkpt>
      <trkpt lat="53.597568031400442" lon="12.386489007622004">
        <ele>61.18</ele>
        <time>2024-09-14T10:35:21Z</time>
      </trkpt>
      <trkpt lat="53.597590997815132" lon="12.386547010391951">
        <ele>61.18</ele>
        <time>2024-09-14T10:35:22Z</time>
      </trkpt>
      <trkpt lat="53.597606001421809" lon="12.386583974584937">
        <ele>61.18</ele>
        <time>2024-09-14T10:35:23Z</time>
      </trkpt>
      <trkpt lat="53.597688982263207" lon="12.386603001505136">
        <ele>61.18</ele>
        <time>2024-09-14T10:35:24Z</time>
      </trkpt>
      <trkpt lat="53.597700968384743" lon="12.386550027877092">
        <ele>61.18</ele>
        <time>2024-09-14T10:35:25Z</time>
      </trkpt>
      <trkpt lat="53.597723012790084" lon="12.386459000408649">
        <ele>61.18</ele>
        <time>2024-09-14T10:35:26Z</time>
      </trkpt>
      <trkpt lat="53.597748996689916" lon="12.386349029839039">
        <ele>60.700000000000003</ele>
        <time>2024-09-14T10:35:27Z</time>
      </trkpt>
      <trkpt lat="53.597789984196424" lon="12.3862249776721">
        <ele>60.219999999999999</ele>
        <time>2024-09-14T10:35:28Z</time>
      </trkpt>
      <trkpt lat="53.597848992794752" lon="12.386102015152574">
        <ele>60.219999999999999</ele>
        <time>2024-09-14T10:35:29Z</time>
      </trkpt>
      <trkpt lat="53.597915964201093" lon="12.385962037369609">
        <ele>59.740000000000002</ele>
        <time>2024-09-14T10:35:30Z</time>
      </trkpt>
      <trkpt lat="53.597988970577717" lon="12.385809989646077">
        <ele>59.740000000000002</ele>
        <time>2024-09-14T10:35:31Z</time>
      </trkpt>
      <trkpt lat="53.598592970520258" lon="12.385116973891854">
        <ele>57.340000000000003</ele>
        <time>2024-09-14T10:35:36Z</time>
      </trkpt>
      <trkpt lat="53.599323034286499" lon="12.384405015036464">
        <ele>58.299999999999997</ele>
        <time>2024-09-14T10:35:42Z</time>
      </trkpt>
      <trkpt lat="53.59969099983573" lon="12.384066972881556">
        <ele>59.740000000000002</ele>
        <time>2024-09-14T10:35:46Z</time>
      </trkpt>
      <trkpt lat="53.599783033132553" lon="12.384027997031808">
        <ele>60.219999999999999</ele>
        <time>2024-09-14T10:35:47Z</time>
      </trkpt>
      <trkpt lat="53.599889986217022" lon="12.383997989818454">
        <ele>60.219999999999999</ele>
        <time>2024-09-14T10:35:48Z</time>
      </trkpt>
      <trkpt lat="53.600990027189255" lon="12.384158000349998">
        <ele>60.700000000000003</ele>
        <time>2024-09-14T10:35:55Z</time>
      </trkpt>
      <trkpt lat="53.602532967925072" lon="12.384382970631123">
        <ele>63.100000000000001</ele>
        <time>2024-09-14T10:36:04Z</time>
      </trkpt>
      <trkpt lat="53.60341097228229" lon="12.384582962840796">
        <ele>66.469999999999999</ele>
        <time>2024-09-14T10:36:10Z</time>
      </trkpt>
      <trkpt lat="53.604579996317625" lon="12.384981019422412">
        <ele>67.430000000000007</ele>
        <time>2024-09-14T10:36:17Z</time>
      </trkpt>
      <trkpt lat="53.605613987892866" lon="12.385383015498519">
        <ele>65.510000000000005</ele>
        <time>2024-09-14T10:36:24Z</time>
      </trkpt>
      <trkpt lat="53.60585798509419" lon="12.385454010218382">
        <ele>64.549999999999997</ele>
        <time>2024-09-14T10:36:27Z</time>
      </trkpt>
      <trkpt lat="53.60600802116096" lon="12.385389972478151">
        <ele>63.579999999999998</ele>
        <time>2024-09-14T10:36:29Z</time>
      </trkpt>
      <trkpt lat="53.60600802116096" lon="12.385389972478151">
        <ele>63.100000000000001</ele>
        <time>2024-09-14T10:36:30Z</time>
      </trkpt>
      <trkpt lat="53.606112040579319" lon="12.385268015787005">
        <ele>62.619999999999997</ele>
        <time>2024-09-14T10:36:31Z</time>
      </trkpt>
      <trkpt lat="53.606198038905859" lon="12.385183023288846">
        <ele>62.140000000000001</ele>
        <time>2024-09-14T10:36:32Z</time>
      </trkpt>
      <trkpt lat="53.606279008090496" lon="12.385108005255461">
        <ele>61.659999999999997</ele>
        <time>2024-09-14T10:36:33Z</time>
      </trkpt>
      <trkpt lat="53.606356959789991" lon="12.385034998878837">
        <ele>61.18</ele>
        <time>2024-09-14T10:36:34Z</time>
      </trkpt>
      <trkpt lat="53.606433989480138" lon="12.384964004158974">
        <ele>60.700000000000003</ele>
        <time>2024-09-14T10:36:35Z</time>
      </trkpt>
      <trkpt lat="53.606455028057098" lon="12.384898960590363">
        <ele>60.219999999999999</ele>
        <time>2024-09-14T10:36:36Z</time>
      </trkpt>
      <trkpt lat="53.606492998078465" lon="12.384766023606062">
        <ele>59.740000000000002</ele>
        <time>2024-09-14T10:36:37Z</time>
      </trkpt>
      <trkpt lat="53.606529040262103" lon="12.384639959782362">
        <ele>59.740000000000002</ele>
        <time>2024-09-14T10:36:38Z</time>
      </trkpt>
      <trkpt lat="53.606616966426373" lon="12.384458994492888">
        <ele>59.259999999999998</ele>
        <time>2024-09-14T10:36:39Z</time>
      </trkpt>
      <trkpt lat="53.606679998338223" lon="12.384395962581038">
        <ele>59.259999999999998</ele>
        <time>2024-09-14T10:36:40Z</time>
      </trkpt>
      <trkpt lat="53.606790974736214" lon="12.384380958974361">
        <ele>59.259999999999998</ele>
        <time>2024-09-14T10:36:41Z</time>
      </trkpt>
      <trkpt lat="53.606822993606329" lon="12.384380958974361">
        <ele>59.259999999999998</ele>
        <time>2024-09-14T10:36:42Z</time>
      </trkpt>
      <trkpt lat="53.60693003050983" lon="12.384448014199734">
        <ele>59.259999999999998</ele>
        <time>2024-09-14T10:36:43Z</time>
      </trkpt>
      <trkpt lat="53.607013011351228" lon="12.384499981999397">
        <ele>59.259999999999998</ele>
        <time>2024-09-14T10:36:44Z</time>
      </trkpt>
      <trkpt lat="53.607100015506148" lon="12.384553961455822">
        <ele>59.259999999999998</ele>
        <time>2024-09-14T10:36:45Z</time>
      </trkpt>
      <trkpt lat="53.607532018795609" lon="12.384824026376009">
        <ele>58.780000000000001</ele>
        <time>2024-09-14T10:36:50Z</time>
      </trkpt>
      <trkpt lat="53.607613993808627" lon="12.384875994175673">
        <ele>58.780000000000001</ele>
        <time>2024-09-14T10:36:51Z</time>
      </trkpt>
      <trkpt lat="53.607694040983915" lon="12.384926034137607">
        <ele>58.780000000000001</ele>
        <time>2024-09-14T10:36:52Z</time>
      </trkpt>
      <trkpt lat="53.607774004340172" lon="12.384974984452128">
        <ele>59.259999999999998</ele>
        <time>2024-09-14T10:36:53Z</time>
      </trkpt>
      <trkpt lat="53.607851034030318" lon="12.385024018585682">
        <ele>59.740000000000002</ele>
        <time>2024-09-14T10:36:54Z</time>
      </trkpt>
      <trkpt lat="53.607930997386575" lon="12.385073974728584">
        <ele>60.219999999999999</ele>
        <time>2024-09-14T10:36:55Z</time>
      </trkpt>
      <trkpt lat="53.608566010370851" lon="12.385469013825059">
        <ele>62.140000000000001</ele>
        <time>2024-09-14T10:37:04Z</time>
      </trkpt>
      <trkpt lat="53.608692996203899" lon="12.385570015758276">
        <ele>62.619999999999997</ele>
        <time>2024-09-14T10:37:07Z</time>
      </trkpt>
      <trkpt lat="53.608703976497054" lon="12.385660959407687">
        <ele>62.619999999999997</ele>
        <time>2024-09-14T10:37:08Z</time>
      </trkpt>
      <trkpt lat="53.608718980103731" lon="12.385786017403007">
        <ele>62.619999999999997</ele>
        <time>2024-09-14T10:37:09Z</time>
      </trkpt>
      <trkpt lat="53.608867004513741" lon="12.38701899535954">
        <ele>60.219999999999999</ele>
        <time>2024-09-14T10:37:15Z</time>
      </trkpt>
      <trkpt lat="53.609203035011888" lon="12.389668012037873">
        <ele>57.340000000000003</ele>
        <time>2024-09-14T10:37:25Z</time>
      </trkpt>
      <trkpt lat="53.609636966139078" lon="12.393226968124509">
        <ele>57.340000000000003</ele>
        <time>2024-09-14T10:37:37Z</time>
      </trkpt>
      <trkpt lat="53.610036028549075" lon="12.396756000816822">
        <ele>56.859999999999999</ele>
        <time>2024-09-14T10:37:48Z</time>
      </trkpt>
      <trkpt lat="53.610369963571429" lon="12.399921007454395">
        <ele>59.740000000000002</ele>
        <time>2024-09-14T10:37:58Z</time>
      </trkpt>
      <trkpt lat="53.610703982412815" lon="12.403192967176437">
        <ele>57.82</ele>
        <time>2024-09-14T10:38:07Z</time>
      </trkpt>
      <trkpt lat="53.610985027626157" lon="12.406128980219364">
        <ele>54.450000000000003</ele>
        <time>2024-09-14T10:38:15Z</time>
      </trkpt>
      <trkpt lat="53.610954014584422" lon="12.406449001282454">
        <ele>54.450000000000003</ele>
        <time>2024-09-14T10:38:16Z</time>
      </trkpt>
      <trkpt lat="53.610683027654886" lon="12.40908301435411">
        <ele>55.890000000000001</ele>
        <time>2024-09-14T10:38:24Z</time>
      </trkpt>
      <trkpt lat="53.610483035445213" lon="12.410965003073215">
        <ele>57.82</ele>
        <time>2024-09-14T10:38:30Z</time>
      </trkpt>
      <trkpt lat="53.610449004918337" lon="12.411283012479544">
        <ele>58.780000000000001</ele>
        <time>2024-09-14T10:38:31Z</time>
      </trkpt>
      <trkpt lat="53.610326964408159" lon="12.412204016000032">
        <ele>62.619999999999997</ele>
        <time>2024-09-14T10:38:34Z</time>
      </trkpt>
      <trkpt lat="53.610282959416509" lon="12.41252101957798">
        <ele>63.579999999999998</ele>
        <time>2024-09-14T10:38:35Z</time>
      </trkpt>
      <trkpt lat="53.609834024682641" lon="12.415498020127416">
        <ele>66.950000000000003</ele>
        <time>2024-09-14T10:38:44Z</time>
      </trkpt>
      <trkpt lat="53.609548034146428" lon="12.416602000594139">
        <ele>69.829999999999998</ele>
        <time>2024-09-14T10:38:49Z</time>
      </trkpt>
      <trkpt lat="53.609226001426578" lon="12.417919971048832">
        <ele>71.760000000000005</ele>
        <time>2024-09-14T10:38:57Z</time>
      </trkpt>
      <trkpt lat="53.609215021133423" lon="12.418089034035802">
        <ele>71.760000000000005</ele>
        <time>2024-09-14T10:38:58Z</time>
      </trkpt>
      <trkpt lat="53.609203035011888" lon="12.418276034295559">
        <ele>71.269999999999996</ele>
        <time>2024-09-14T10:38:59Z</time>
      </trkpt>
      <trkpt lat="53.60918995924294" lon="12.418460017070174">
        <ele>71.269999999999996</ele>
        <time>2024-09-14T10:39:00Z</time>
      </trkpt>
      <trkpt lat="53.609190965071321" lon="12.418640982359648">
        <ele>70.790000000000006</ele>
        <time>2024-09-14T10:39:01Z</time>
      </trkpt>
      <trkpt lat="53.60920999199152" lon="12.418835023418069">
        <ele>70.790000000000006</ele>
        <time>2024-09-14T10:39:02Z</time>
      </trkpt>
      <trkpt lat="53.609229018911719" lon="12.419030992314219">
        <ele>70.790000000000006</ele>
        <time>2024-09-14T10:39:03Z</time>
      </trkpt>
      <trkpt lat="53.609247962012887" lon="12.41922696121037">
        <ele>70.790000000000006</ele>
        <time>2024-09-14T10:39:04Z</time>
      </trkpt>
      <trkpt lat="53.609290039166808" lon="12.419400969520211">
        <ele>70.790000000000006</ele>
        <time>2024-09-14T10:39:05Z</time>
      </trkpt>
      <trkpt lat="53.609921028837562" lon="12.421907996758819">
        <ele>65.510000000000005</ele>
        <time>2024-09-14T10:39:18Z</time>
      </trkpt>
      <trkpt lat="53.610617984086275" lon="12.424549972638488">
        <ele>60.700000000000003</ele>
        <time>2024-09-14T10:39:31Z</time>
      </trkpt>
      <trkpt lat="53.610979998484254" lon="12.425939021632075">
        <ele>60.219999999999999</ele>
        <time>2024-09-14T10:39:39Z</time>
      </trkpt>
      <trkpt lat="53.611044036224484" lon="12.42618503049016">
        <ele>60.700000000000003</ele>
        <time>2024-09-14T10:39:42Z</time>
      </trkpt>
      <trkpt lat="53.611062979325652" lon="12.426257031038404">
        <ele>60.700000000000003</ele>
        <time>2024-09-14T10:39:43Z</time>
      </trkpt>
      <trkpt lat="53.611063985154033" lon="12.426431961357594">
        <ele>60.219999999999999</ele>
        <time>2024-09-14T10:39:44Z</time>
      </trkpt>
      <trkpt lat="53.611020985990763" lon="12.426517959684134">
        <ele>60.219999999999999</ele>
        <time>2024-09-14T10:39:45Z</time>
      </trkpt>
      <trkpt lat="53.610968012362719" lon="12.426622984930873">
        <ele>60.219999999999999</ele>
        <time>2024-09-14T10:39:46Z</time>
      </trkpt>
      <trkpt lat="53.610910009592772" lon="12.426741002127528">
        <ele>60.219999999999999</ele>
        <time>2024-09-14T10:39:47Z</time>
      </trkpt>
      <trkpt lat="53.610602980479598" lon="12.427283981814981">
        <ele>58.780000000000001</ele>
        <time>2024-09-14T10:39:51Z</time>
      </trkpt>
      <trkpt lat="53.609651969745755" lon="12.428504973649979">
        <ele>53.009999999999998</ele>
        <time>2024-09-14T10:40:01Z</time>
      </trkpt>
      <trkpt lat="53.608644967898726" lon="12.429722025990486">
        <ele>50.130000000000003</ele>
        <time>2024-09-14T10:40:12Z</time>
      </trkpt>
      <trkpt lat="53.607488013803959" lon="12.431237976998091">
        <ele>50.609999999999999</ele>
        <time>2024-09-14T10:40:24Z</time>
      </trkpt>
      <trkpt lat="53.606623001396656" lon="12.432936988770962">
        <ele>50.609999999999999</ele>
        <time>2024-09-14T10:40:31Z</time>
      </trkpt>
      <trkpt lat="53.605617005378008" lon="12.435567984357476">
        <ele>54.450000000000003</ele>
        <time>2024-09-14T10:40:40Z</time>
      </trkpt>
      <trkpt lat="53.605329003185034" lon="12.437453996390104">
        <ele>59.740000000000002</ele>
        <time>2024-09-14T10:40:46Z</time>
      </trkpt>
      <trkpt lat="53.605465963482857" lon="12.440935000777245">
        <ele>61.659999999999997</ele>
        <time>2024-09-14T10:40:56Z</time>
      </trkpt>
      <trkpt lat="53.605612982064486" lon="12.444075029343367">
        <ele>59.740000000000002</ele>
        <time>2024-09-14T10:41:06Z</time>
      </trkpt>
      <trkpt lat="53.605907019227743" lon="12.44732603430748">
        <ele>58.299999999999997</ele>
        <time>2024-09-14T10:41:16Z</time>
      </trkpt>
      <trkpt lat="53.606559969484806" lon="12.450331030413508">
        <ele>57.340000000000003</ele>
        <time>2024-09-14T10:41:26Z</time>
      </trkpt>
      <trkpt lat="53.606874039396644" lon="12.451776992529631">
        <ele>57.340000000000003</ele>
        <time>2024-09-14T10:41:32Z</time>
      </trkpt>
      <trkpt lat="53.606912009418011" lon="12.451934991404414">
        <ele>57.340000000000003</ele>
        <time>2024-09-14T10:41:33Z</time>
      </trkpt>
      <trkpt lat="53.606951991096139" lon="12.452101958915591">
        <ele>56.859999999999999</ele>
        <time>2024-09-14T10:41:34Z</time>
      </trkpt>
      <trkpt lat="53.607295984402299" lon="12.453724024817348">
        <ele>58.299999999999997</ele>
        <time>2024-09-14T10:41:45Z</time>
      </trkpt>
      <trkpt lat="53.607855979353189" lon="12.455769963562489">
        <ele>64.069999999999993</ele>
        <time>2024-09-14T10:41:58Z</time>
      </trkpt>
      <trkpt lat="53.608512030914426" lon="12.457592021673918">
        <ele>65.989999999999995</ele>
        <time>2024-09-14T10:42:09Z</time>
      </trkpt>
      <trkpt lat="53.608703976497054" lon="12.459277035668492">
        <ele>65.989999999999995</ele>
        <time>2024-09-14T10:42:18Z</time>
      </trkpt>
      <trkpt lat="53.608698025345802" lon="12.459471998736262">
        <ele>66.469999999999999</ele>
        <time>2024-09-14T10:42:19Z</time>
      </trkpt>
      <trkpt lat="53.608620995655656" lon="12.461822032928467">
        <ele>65.030000000000001</ele>
        <time>2024-09-14T10:42:30Z</time>
      </trkpt>
      <trkpt lat="53.608520999550819" lon="12.463951036334038">
        <ele>64.069999999999993</ele>
        <time>2024-09-14T10:42:38Z</time>
      </trkpt>
      <trkpt lat="53.608414968475699" lon="12.466397965326905">
        <ele>65.030000000000001</ele>
        <time>2024-09-14T10:42:49Z</time>
      </trkpt>
      <trkpt lat="53.608404994010925" lon="12.466741958633065">
        <ele>64.549999999999997</ele>
        <time>2024-09-14T10:42:51Z</time>
      </trkpt>
      <trkpt lat="53.608396025374532" lon="12.46703096665442">
        <ele>64.549999999999997</ele>
        <time>2024-09-14T10:42:53Z</time>
      </trkpt>
      <trkpt lat="53.608392002061009" lon="12.467145966365933">
        <ele>64.549999999999997</ele>
        <time>2024-09-14T10:42:54Z</time>
      </trkpt>
      <trkpt lat="53.608317989856005" lon="12.46728602796793">
        <ele>64.069999999999993</ele>
        <time>2024-09-14T10:42:55Z</time>
      </trkpt>
      <trkpt lat="53.608282031491399" lon="12.467336989939213">
        <ele>63.579999999999998</ele>
        <time>2024-09-14T10:42:56Z</time>
      </trkpt>
      <trkpt lat="53.608282031491399" lon="12.467436986044049">
        <ele>63.100000000000001</ele>
        <time>2024-09-14T10:42:57Z</time>
      </trkpt>
      <trkpt lat="53.608282031491399" lon="12.467465987429023">
        <ele>63.100000000000001</ele>
        <time>2024-09-14T10:42:58Z</time>
      </trkpt>
      <trkpt lat="53.608324024826288" lon="12.467518039047718">
        <ele>63.100000000000001</ele>
        <time>2024-09-14T10:42:59Z</time>
      </trkpt>
      <trkpt lat="53.608368029817939" lon="12.467573024332523">
        <ele>63.100000000000001</ele>
        <time>2024-09-14T10:43:00Z</time>
      </trkpt>
      <trkpt lat="53.608368029817939" lon="12.467573024332523">
        <ele>63.100000000000001</ele>
        <time>2024-09-14T10:43:01Z</time>
      </trkpt>
      <trkpt lat="53.608382027596235" lon="12.467559026554227">
        <ele>62.140000000000001</ele>
        <time>2024-09-14T10:43:02Z</time>
      </trkpt>
      <trkpt lat="53.608454028144479" lon="12.467487026005983">
        <ele>61.659999999999997</ele>
        <time>2024-09-14T10:43:03Z</time>
      </trkpt>
      <trkpt lat="53.608570033684373" lon="12.467362973839045">
        <ele>61.18</ele>
        <time>2024-09-14T10:43:04Z</time>
      </trkpt>
      <trkpt lat="53.608666006475687" lon="12.467326009646058">
        <ele>61.18</ele>
        <time>2024-09-14T10:43:05Z</time>
      </trkpt>
      <trkpt lat="53.608777988702059" lon="12.467283010482788">
        <ele>61.18</ele>
        <time>2024-09-14T10:43:06Z</time>
      </trkpt>
      <trkpt lat="53.608902040868998" lon="12.467234982177615">
        <ele>61.659999999999997</ele>
        <time>2024-09-14T10:43:07Z</time>
      </trkpt>
      <trkpt lat="53.609985988587141" lon="12.466877996921539">
        <ele>62.140000000000001</ele>
        <time>2024-09-14T10:43:14Z</time>
      </trkpt>
      <trkpt lat="53.611520966514945" lon="12.466411963105202">
        <ele>64.069999999999993</ele>
        <time>2024-09-14T10:43:22Z</time>
      </trkpt>
      <trkpt lat="53.613283010199666" lon="12.465979959815741">
        <ele>69.349999999999994</ele>
        <time>2024-09-14T10:43:31Z</time>
      </trkpt>
      <trkpt lat="53.615437997505069" lon="12.466324958950281">
        <ele>70.310000000000002</ele>
        <time>2024-09-14T10:43:42Z</time>
      </trkpt>
      <trkpt lat="53.615626003593206" lon="12.466358989477158">
        <ele>70.310000000000002</ele>
        <time>2024-09-14T10:43:43Z</time>
      </trkpt>
      <trkpt lat="53.615816021338105" lon="12.466393020004034">
        <ele>69.829999999999998</ele>
        <time>2024-09-14T10:43:44Z</time>
      </trkpt>
      <trkpt lat="53.6174810025841" lon="12.466696025803685">
        <ele>68.870000000000005</ele>
        <time>2024-09-14T10:43:52Z</time>
      </trkpt>
      <trkpt lat="53.619107007980347" lon="12.467002971097827">
        <ele>67.430000000000007</ele>
        <time>2024-09-14T10:44:00Z</time>
      </trkpt>
      <trkpt lat="53.620502008125186" lon="12.467277981340885">
        <ele>72.719999999999999</ele>
        <time>2024-09-14T10:44:08Z</time>
      </trkpt>
      <trkpt lat="53.622190039604902" lon="12.467580987140536">
        <ele>78.480000000000004</ele>
        <time>2024-09-14T10:44:17Z</time>
      </trkpt>
      <trkpt lat="53.623409019783139" lon="12.467804029583931">
        <ele>81.370000000000005</ele>
        <time>2024-09-14T10:44:23Z</time>
      </trkpt>
      <trkpt lat="53.623858038336039" lon="12.467886004596949">
        <ele>82.329999999999998</ele>
        <time>2024-09-14T10:44:25Z</time>
      </trkpt>
      <trkpt lat="53.624096000567079" lon="12.467929003760219">
        <ele>82.810000000000002</ele>
        <time>2024-09-14T10:44:26Z</time>
      </trkpt>
      <trkpt lat="53.624549964442849" lon="12.468011984601617">
        <ele>83.769999999999996</ele>
        <time>2024-09-14T10:44:28Z</time>
      </trkpt>
      <trkpt lat="53.6262690089643" lon="12.468357989564538">
        <ele>85.689999999999998</ele>
        <time>2024-09-14T10:44:36Z</time>
      </trkpt>
      <trkpt lat="53.627294031903148" lon="12.468645991757512">
        <ele>87.620000000000005</ele>
        <time>2024-09-14T10:44:41Z</time>
      </trkpt>
      <trkpt lat="53.627513973042369" lon="12.46879200451076">
        <ele>87.620000000000005</ele>
        <time>2024-09-14T10:44:42Z</time>
      </trkpt>
      <trkpt lat="53.627717988565564" lon="12.468928964808583">
        <ele>88.099999999999994</ele>
        <time>2024-09-14T10:44:43Z</time>
      </trkpt>
      <trkpt lat="53.62932002171874" lon="12.470086002722383">
        <ele>91.459999999999994</ele>
        <time>2024-09-14T10:44:51Z</time>
      </trkpt>
      <trkpt lat="53.630385026335716" lon="12.471246980130672">
        <ele>95.310000000000002</ele>
        <time>2024-09-14T10:44:57Z</time>
      </trkpt>
      <trkpt lat="53.632311020046473" lon="12.473918041214347">
        <ele>101.08</ele>
        <time>2024-09-14T10:45:09Z</time>
      </trkpt>
      <trkpt lat="53.633606024086475" lon="12.475758036598563">
        <ele>104.92</ele>
        <time>2024-09-14T10:45:17Z</time>
      </trkpt>
      <trkpt lat="53.635051986202598" lon="12.477787965908647">
        <ele>106.36</ele>
        <time>2024-09-14T10:45:26Z</time>
      </trkpt>
      <trkpt lat="53.63701100461185" lon="12.480563968420029">
        <ele>103</ele>
        <time>2024-09-14T10:45:38Z</time>
      </trkpt>
      <trkpt lat="53.638594010844827" lon="12.482797997072339">
        <ele>103</ele>
        <time>2024-09-14T10:45:48Z</time>
      </trkpt>
      <trkpt lat="53.63952498883009" lon="12.484114961698651">
        <ele>104.92</ele>
        <time>2024-09-14T10:45:55Z</time>
      </trkpt>
      <trkpt lat="53.639834029600024" lon="12.484480999410152">
        <ele>104.92</ele>
        <time>2024-09-14T10:45:58Z</time>
      </trkpt>
      <trkpt lat="53.640048019587994" lon="12.484684009104967">
        <ele>104.92</ele>
        <time>2024-09-14T10:46:00Z</time>
      </trkpt>
      <trkpt lat="53.640632992610335" lon="12.484996989369392">
        <ele>104.44</ele>
        <time>2024-09-14T10:46:05Z</time>
      </trkpt>
      <trkpt lat="53.640779005363584" lon="12.485049962997437">
        <ele>104.44</ele>
        <time>2024-09-14T10:46:06Z</time>
      </trkpt>
      <trkpt lat="53.640927029773593" lon="12.485104026272893">
        <ele>104.92</ele>
        <time>2024-09-14T10:46:07Z</time>
      </trkpt>
      <trkpt lat="53.641288038343191" lon="12.485360009595752">
        <ele>105.40000000000001</ele>
        <time>2024-09-14T10:46:10Z</time>
      </trkpt>
      <trkpt lat="53.641412006691098" lon="12.485455982387066">
        <ele>105.88</ele>
        <time>2024-09-14T10:46:11Z</time>
      </trkpt>
      <trkpt lat="53.641514014452696" lon="12.48557198792696">
        <ele>105.88</ele>
        <time>2024-09-14T10:46:12Z</time>
      </trkpt>
      <trkpt lat="53.641964960843325" lon="12.486199960112572">
        <ele>106.36</ele>
        <time>2024-09-14T10:46:17Z</time>
      </trkpt>
      <trkpt lat="53.64251104183495" lon="12.486961958929896">
        <ele>107.81</ele>
        <time>2024-09-14T10:46:23Z</time>
      </trkpt>
      <trkpt lat="53.642606008797884" lon="12.487093973904848">
        <ele>108.29000000000001</ele>
        <time>2024-09-14T10:46:24Z</time>
      </trkpt>
      <trkpt lat="53.643682999536395" lon="12.488646972924471">
        <ele>104.92</ele>
        <time>2024-09-14T10:46:36Z</time>
      </trkpt>
      <trkpt lat="53.644443992525339" lon="12.489819014444947">
        <ele>101.08</ele>
        <time>2024-09-14T10:46:45Z</time>
      </trkpt>
      <trkpt lat="53.64476996473968" lon="12.490632981061935">
        <ele>100.11</ele>
        <time>2024-09-14T10:46:50Z</time>
      </trkpt>
      <trkpt lat="53.645160980522633" lon="12.492034016177058">
        <ele>95.790000000000006</ele>
        <time>2024-09-14T10:46:58Z</time>
      </trkpt>
      <trkpt lat="53.645226024091244" lon="12.492184974253178">
        <ele>95.310000000000002</ele>
        <time>2024-09-14T10:46:59Z</time>
      </trkpt>
      <trkpt lat="53.645306993275881" lon="12.492329981178045">
        <ele>94.829999999999998</ele>
        <time>2024-09-14T10:47:00Z</time>
      </trkpt>
      <trkpt lat="53.646197989583015" lon="12.493647029623389">
        <ele>85.689999999999998</ele>
        <time>2024-09-14T10:47:10Z</time>
      </trkpt>
      <trkpt lat="53.647573962807655" lon="12.495611999183893">
        <ele>73.200000000000003</ele>
        <time>2024-09-14T10:47:25Z</time>
      </trkpt>
      <trkpt lat="53.648688001558185" lon="12.497167009860277">
        <ele>66.469999999999999</ele>
        <time>2024-09-14T10:47:37Z</time>
      </trkpt>
      <trkpt lat="53.649789970368147" lon="12.498757978901267">
        <ele>61.18</ele>
        <time>2024-09-14T10:47:49Z</time>
      </trkpt>
      <trkpt lat="53.65039698779583" lon="12.49958099797368">
        <ele>57.82</ele>
        <time>2024-09-14T10:47:57Z</time>
      </trkpt>
      <trkpt lat="53.650584993883967" lon="12.499807979911566">
        <ele>57.340000000000003</ele>
        <time>2024-09-14T10:48:00Z</time>
      </trkpt>
      <trkpt lat="53.650645008310676" lon="12.49988098628819">
        <ele>57.340000000000003</ele>
        <time>2024-09-14T10:48:01Z</time>
      </trkpt>
      <trkpt lat="53.650696976110339" lon="12.49994401820004">
        <ele>57.340000000000003</ele>
        <time>2024-09-14T10:48:02Z</time>
      </trkpt>
      <trkpt lat="53.650751039385796" lon="12.499867994338274">
        <ele>56.859999999999999</ele>
        <time>2024-09-14T10:48:03Z</time>
      </trkpt>
      <trkpt lat="53.650809964165092" lon="12.499760035425425">
        <ele>56.859999999999999</ele>
        <time>2024-09-14T10:48:04Z</time>
      </trkpt>
      <trkpt lat="53.650872996076941" lon="12.499646963551641">
        <ele>56.369999999999997</ele>
        <time>2024-09-14T10:48:05Z</time>
      </trkpt>
      <trkpt lat="53.650939967483282" lon="12.499525006860495">
        <ele>56.369999999999997</ele>
        <time>2024-09-14T10:48:06Z</time>
      </trkpt>
      <trkpt lat="53.651011968031526" lon="12.499393997713923">
        <ele>56.369999999999997</ele>
        <time>2024-09-14T10:48:07Z</time>
      </trkpt>
      <trkpt lat="53.651096038520336" lon="12.499271035194397">
        <ele>56.369999999999997</ele>
        <time>2024-09-14T10:48:08Z</time>
      </trkpt>
      <trkpt lat="53.65119100548327" lon="12.499156035482883">
        <ele>56.369999999999997</ele>
        <time>2024-09-14T10:48:09Z</time>
      </trkpt>
      <trkpt lat="53.651397032663226" lon="12.498907009139657">
        <ele>55.890000000000001</ele>
        <time>2024-09-14T10:48:11Z</time>
      </trkpt>
      <trkpt lat="53.651499040424824" lon="12.498783962801099">
        <ele>55.890000000000001</ele>
        <time>2024-09-14T10:48:12Z</time>
      </trkpt>
      <trkpt lat="53.652323987334967" lon="12.497632037848234">
        <ele>53.490000000000002</ele>
        <time>2024-09-14T10:48:21Z</time>
      </trkpt>
      <trkpt lat="53.652708968147635" lon="12.49700197018683">
        <ele>51.57</ele>
        <time>2024-09-14T10:48:25Z</time>
      </trkpt>
      <trkpt lat="53.652819022536278" lon="12.496878001838923">
        <ele>51.090000000000003</ele>
        <time>2024-09-14T10:48:26Z</time>
      </trkpt>
      <trkpt lat="53.652935028076172" lon="12.49678798019886">
        <ele>50.609999999999999</ele>
        <time>2024-09-14T10:48:27Z</time>
      </trkpt>
      <trkpt lat="53.653048016130924" lon="12.496730983257294">
        <ele>50.130000000000003</ele>
        <time>2024-09-14T10:48:28Z</time>
      </trkpt>
      <trkpt lat="53.653154969215393" lon="12.496697036549449">
        <ele>49.649999999999999</ele>
        <time>2024-09-14T10:48:29Z</time>
      </trkpt>
      <trkpt lat="53.653258988633752" lon="12.496723020449281">
        <ele>49.159999999999997</ele>
        <time>2024-09-14T10:48:30Z</time>
      </trkpt>
      <trkpt lat="53.653343981131911" lon="12.49678404070437">
        <ele>49.159999999999997</ele>
        <time>2024-09-14T10:48:31Z</time>
      </trkpt>
      <trkpt lat="53.653429979458451" lon="12.496882025152445">
        <ele>49.159999999999997</ele>
        <time>2024-09-14T10:48:32Z</time>
      </trkpt>
      <trkpt lat="53.65351296029985" lon="12.496983027085662">
        <ele>49.159999999999997</ele>
        <time>2024-09-14T10:48:33Z</time>
      </trkpt>
      <trkpt lat="53.65359703078866" lon="12.49708796851337">
        <ele>49.159999999999997</ele>
        <time>2024-09-14T10:48:34Z</time>
      </trkpt>
      <trkpt lat="53.65366299636662" lon="12.497201962396502">
        <ele>48.68</ele>
        <time>2024-09-14T10:48:35Z</time>
      </trkpt>
      <trkpt lat="53.653727034106851" lon="12.497330037876964">
        <ele>48.200000000000003</ele>
        <time>2024-09-14T10:48:36Z</time>
      </trkpt>
      <trkpt lat="53.654303038492799" lon="12.498458996415138">
        <ele>47.719999999999999</ele>
        <time>2024-09-14T10:48:43Z</time>
      </trkpt>
      <trkpt lat="53.655209960415959" lon="12.5002880115062">
        <ele>48.200000000000003</ele>
        <time>2024-09-14T10:48:51Z</time>
      </trkpt>
      <trkpt lat="53.65647898055613" lon="12.50284600071609">
        <ele>42.920000000000002</ele>
        <time>2024-09-14T10:49:00Z</time>
      </trkpt>
      <trkpt lat="53.657440971583128" lon="12.504789009690285">
        <ele>38.109999999999999</ele>
        <time>2024-09-14T10:49:07Z</time>
      </trkpt>
      <trkpt lat="53.6589689925313" lon="12.50787103548646">
        <ele>32.340000000000003</ele>
        <time>2024-09-14T10:49:19Z</time>
      </trkpt>
      <trkpt lat="53.6603660043329" lon="12.510707974433899">
        <ele>27.050000000000001</ele>
        <time>2024-09-14T10:49:29Z</time>
      </trkpt>
      <trkpt lat="53.660869002342224" lon="12.511944975703955">
        <ele>25.609999999999999</ele>
        <time>2024-09-14T10:49:33Z</time>
      </trkpt>
      <trkpt lat="53.660960029810667" lon="12.512287041172385">
        <ele>25.609999999999999</ele>
        <time>2024-09-14T10:49:34Z</time>
      </trkpt>
      <trkpt lat="53.662043977528811" lon="12.516849981620908">
        <ele>25.129999999999999</ele>
        <time>2024-09-14T10:49:47Z</time>
      </trkpt>
      <trkpt lat="53.663146030157804" lon="12.521619033068419">
        <ele>27.530000000000001</ele>
        <time>2024-09-14T10:50:01Z</time>
      </trkpt>
      <trkpt lat="53.663623966276646" lon="12.523709982633591">
        <ele>31.379999999999999</ele>
        <time>2024-09-14T10:50:09Z</time>
      </trkpt>
      <trkpt lat="53.664194019511342" lon="12.526189014315605">
        <ele>35.710000000000001</ele>
        <time>2024-09-14T10:50:17Z</time>
      </trkpt>
      <trkpt lat="53.665129020810127" lon="12.530273012816906">
        <ele>32.82</ele>
        <time>2024-09-14T10:50:29Z</time>
      </trkpt>
      <trkpt lat="53.665876016020775" lon="12.533531980589032">
        <ele>29.940000000000001</ele>
        <time>2024-09-14T10:50:39Z</time>
      </trkpt>
      <trkpt lat="53.666757037863135" lon="12.53745898604393">
        <ele>29.940000000000001</ele>
        <time>2024-09-14T10:50:51Z</time>
      </trkpt>
      <trkpt lat="53.667443012818694" lon="12.54083395935595">
        <ele>27.050000000000001</ele>
        <time>2024-09-14T10:51:02Z</time>
      </trkpt>
      <trkpt lat="53.667834028601646" lon="12.542756013572216">
        <ele>23.690000000000001</ele>
        <time>2024-09-14T10:51:10Z</time>
      </trkpt>
      <trkpt lat="53.668019017204642" lon="12.54371096380055">
        <ele>19.84</ele>
        <time>2024-09-14T10:51:17Z</time>
      </trkpt>
      <trkpt lat="53.668048018589616" lon="12.543858988210559">
        <ele>17.440000000000001</ele>
        <time>2024-09-14T10:51:25Z</time>
      </trkpt>
      <trkpt lat="53.668092023581266" lon="12.543936017900705">
        <ele>16.48</ele>
        <time>2024-09-14T10:51:31Z</time>
      </trkpt>
      <trkpt lat="53.668154971674085" lon="12.543925959616899">
        <ele>16</ele>
        <time>2024-09-14T10:51:32Z</time>
      </trkpt>
      <trkpt lat="53.668244993314147" lon="12.543911961838603">
        <ele>15.52</ele>
        <time>2024-09-14T10:51:33Z</time>
      </trkpt>
      <trkpt lat="53.669144036248326" lon="12.543767038732767">
        <ele>14.08</ele>
        <time>2024-09-14T10:51:40Z</time>
      </trkpt>
      <trkpt lat="53.670879006385803" lon="12.54351700656116">
        <ele>11.67</ele>
        <time>2024-09-14T10:51:55Z</time>
      </trkpt>
      <trkpt lat="53.67226897738874" lon="12.543447017669678">
        <ele>10.23</ele>
        <time>2024-09-14T10:52:07Z</time>
      </trkpt>
      <trkpt lat="53.673920966684818" lon="12.543278960511088">
        <ele>13.6</ele>
        <time>2024-09-14T10:52:20Z</time>
      </trkpt>
      <trkpt lat="53.675459967926145" lon="12.543038986623287">
        <ele>15.52</ele>
        <time>2024-09-14T10:52:30Z</time>
      </trkpt>
      <trkpt lat="53.677429966628551" lon="12.542727012187243">
        <ele>16.960000000000001</ele>
        <time>2024-09-14T10:52:40Z</time>
      </trkpt>
      <trkpt lat="53.680270006880164" lon="12.542283022776246">
        <ele>17.440000000000001</ele>
        <time>2024-09-14T10:52:53Z</time>
      </trkpt>
      <trkpt lat="53.682676032185555" lon="12.541913967579603">
        <ele>21.289999999999999</ele>
        <time>2024-09-14T10:53:04Z</time>
      </trkpt>
      <trkpt lat="53.684378983452916" lon="12.541821012273431">
        <ele>22.73</ele>
        <time>2024-09-14T10:53:11Z</time>
      </trkpt>
      <trkpt lat="53.686284022405744" lon="12.542102979496121">
        <ele>27.050000000000001</ele>
        <time>2024-09-14T10:53:19Z</time>
      </trkpt>
      <trkpt lat="53.688079006969929" lon="12.542390981689095">
        <ele>32.82</ele>
        <time>2024-09-14T10:53:27Z</time>
      </trkpt>
      <trkpt lat="53.690357962623239" lon="12.54276598803699">
        <ele>40.030000000000001</ele>
        <time>2024-09-14T10:53:37Z</time>
      </trkpt>
      <trkpt lat="53.691512988880277" lon="12.542885011062026">
        <ele>41.469999999999999</ele>
        <time>2024-09-14T10:53:42Z</time>
      </trkpt>
      <trkpt lat="53.691740976646543" lon="12.542996993288398">
        <ele>41.469999999999999</ele>
        <time>2024-09-14T10:53:43Z</time>
      </trkpt>
      <trkpt lat="53.691965024918318" lon="12.543137976899743">
        <ele>41.950000000000003</ele>
        <time>2024-09-14T10:53:44Z</time>
      </trkpt>
      <trkpt lat="53.694058991968632" lon="12.544252015650272">
        <ele>47.240000000000002</ele>
        <time>2024-09-14T10:53:53Z</time>
      </trkpt>
      <trkpt lat="53.696722006425261" lon="12.544932039454579">
        <ele>51.090000000000003</ele>
        <time>2024-09-14T10:54:05Z</time>
      </trkpt>
      <trkpt lat="53.698852015659213" lon="12.54545004107058">
        <ele>47.240000000000002</ele>
        <time>2024-09-14T10:54:14Z</time>
      </trkpt>
      <trkpt lat="53.699719961732626" lon="12.545620026066899">
        <ele>46.280000000000001</ele>
        <time>2024-09-14T10:54:18Z</time>
      </trkpt>
      <trkpt lat="53.699931018054485" lon="12.545677023008466">
        <ele>46.280000000000001</ele>
        <time>2024-09-14T10:54:19Z</time>
      </trkpt>
      <trkpt lat="53.700127992779016" lon="12.54583703354001">
        <ele>46.759999999999998</ele>
        <time>2024-09-14T10:54:20Z</time>
      </trkpt>
      <trkpt lat="53.701371029019356" lon="12.546672038733959">
        <ele>48.200000000000003</ele>
        <time>2024-09-14T10:54:26Z</time>
      </trkpt>
      <trkpt lat="53.702927967533469" lon="12.547591030597687">
        <ele>52.049999999999997</ele>
        <time>2024-09-14T10:54:35Z</time>
      </trkpt>
      <trkpt lat="53.703982997685671" lon="12.548302989453077">
        <ele>53.009999999999998</ele>
        <time>2024-09-14T10:54:43Z</time>
      </trkpt>
      <trkpt lat="53.705168031156063" lon="12.548657963052392">
        <ele>54.93</ele>
        <time>2024-09-14T10:54:50Z</time>
      </trkpt>
      <trkpt lat="53.706721030175686" lon="12.548954011872411">
        <ele>52.530000000000001</ele>
        <time>2024-09-14T10:54:57Z</time>
      </trkpt>
      <trkpt lat="53.708463963121176" lon="12.548467023298144">
        <ele>46.759999999999998</ele>
        <time>2024-09-14T10:55:04Z</time>
      </trkpt>
      <trkpt lat="53.711341973394156" lon="12.547123990952969">
        <ele>43.880000000000003</ele>
        <time>2024-09-14T10:55:16Z</time>
      </trkpt>
      <trkpt lat="53.71418796479702" lon="12.54579696804285">
        <ele>41.950000000000003</ele>
        <time>2024-09-14T10:55:29Z</time>
      </trkpt>
      <trkpt lat="53.717244006693363" lon="12.544371038675308">
        <ele>50.130000000000003</ele>
        <time>2024-09-14T10:55:43Z</time>
      </trkpt>
      <trkpt lat="53.718293001875281" lon="12.543892012909055">
        <ele>55.890000000000001</ele>
        <time>2024-09-14T10:55:49Z</time>
      </trkpt>
      <trkpt lat="53.719562022015452" lon="12.543233027681708">
        <ele>62.140000000000001</ele>
        <time>2024-09-14T10:56:00Z</time>
      </trkpt>
      <trkpt lat="53.720548991113901" lon="12.542711002752185">
        <ele>63.579999999999998</ele>
        <time>2024-09-14T10:56:08Z</time>
      </trkpt>
      <trkpt lat="53.720692992210388" lon="12.542692981660366">
        <ele>63.579999999999998</ele>
        <time>2024-09-14T10:56:09Z</time>
      </trkpt>
      <trkpt lat="53.721711980178952" lon="12.542745033279061">
        <ele>62.619999999999997</ele>
        <time>2024-09-14T10:56:17Z</time>
      </trkpt>
      <trkpt lat="53.722685035318136" lon="12.542708991095424">
        <ele>63.100000000000001</ele>
        <time>2024-09-14T10:56:23Z</time>
      </trkpt>
      <trkpt lat="53.724283967167139" lon="12.542479997500777">
        <ele>61.659999999999997</ele>
        <time>2024-09-14T10:56:30Z</time>
      </trkpt>
      <trkpt lat="53.724769027903676" lon="12.542400034144521">
        <ele>61.18</ele>
        <time>2024-09-14T10:56:32Z</time>
      </trkpt>
      <trkpt lat="53.725017970427871" lon="12.542431969195604">
        <ele>61.18</ele>
        <time>2024-09-14T10:56:33Z</time>
      </trkpt>
      <trkpt lat="53.725260961800814" lon="12.542490977793932">
        <ele>60.700000000000003</ele>
        <time>2024-09-14T10:56:34Z</time>
      </trkpt>
      <trkpt lat="53.725492972880602" lon="12.542584016919136">
        <ele>60.700000000000003</ele>
        <time>2024-09-14T10:56:35Z</time>
      </trkpt>
      <trkpt lat="53.725718026980758" lon="12.542691975831985">
        <ele>60.219999999999999</ele>
        <time>2024-09-14T10:56:36Z</time>
      </trkpt>
      <trkpt lat="53.726973971351981" lon="12.543411981314421">
        <ele>56.369999999999997</ele>
        <time>2024-09-14T10:56:42Z</time>
      </trkpt>
      <trkpt lat="53.728132015094161" lon="12.544079013168812">
        <ele>52.049999999999997</ele>
        <time>2024-09-14T10:56:49Z</time>
      </trkpt>
      <trkpt lat="53.729704963043332" lon="12.545015020295978">
        <ele>51.090000000000003</ele>
        <time>2024-09-14T10:56:57Z</time>
      </trkpt>
      <trkpt lat="53.731513023376465" lon="12.546542035415769">
        <ele>50.130000000000003</ele>
        <time>2024-09-14T10:57:05Z</time>
      </trkpt>
      <trkpt lat="53.733041966333985" lon="12.548036025837064">
        <ele>49.159999999999997</ele>
        <time>2024-09-14T10:57:12Z</time>
      </trkpt>
      <trkpt lat="53.735656030476093" lon="12.550592003390193">
        <ele>51.57</ele>
        <time>2024-09-14T10:57:25Z</time>
      </trkpt>
      <trkpt lat="53.737100986763835" lon="12.551994966343045">
        <ele>52.049999999999997</ele>
        <time>2024-09-14T10:57:31Z</time>
      </trkpt>
      <trkpt lat="53.739703986793756" lon="12.554534012451768">
        <ele>54.450000000000003</ele>
        <time>2024-09-14T10:57:43Z</time>
      </trkpt>
      <trkpt lat="53.741498971357942" lon="12.556035965681076">
        <ele>53.009999999999998</ele>
        <time>2024-09-14T10:57:52Z</time>
      </trkpt>
      <trkpt lat="53.744128039106727" lon="12.557817036285996">
        <ele>48.200000000000003</ele>
        <time>2024-09-14T10:58:04Z</time>
      </trkpt>
      <trkpt lat="53.747474011033773" lon="12.560075959190726">
        <ele>50.130000000000003</ele>
        <time>2024-09-14T10:58:18Z</time>
      </trkpt>
      <trkpt lat="53.750116992741823" lon="12.561858035624027">
        <ele>51.57</ele>
        <time>2024-09-14T10:58:29Z</time>
      </trkpt>
      <trkpt lat="53.753407979384065" lon="12.564045041799545">
        <ele>53.969999999999999</ele>
        <time>2024-09-14T10:58:43Z</time>
      </trkpt>
      <trkpt lat="53.755253003910184" lon="12.564998986199498">
        <ele>57.82</ele>
        <time>2024-09-14T10:58:51Z</time>
      </trkpt>
      <trkpt lat="53.757529025897384" lon="12.565587982535362">
        <ele>60.219999999999999</ele>
        <time>2024-09-14T10:59:01Z</time>
      </trkpt>
      <trkpt lat="53.759865984320641" lon="12.566189970821142">
        <ele>50.609999999999999</ele>
        <time>2024-09-14T10:59:12Z</time>
      </trkpt>
      <trkpt lat="53.761659041047096" lon="12.566627003252506">
        <ele>42.439999999999998</ele>
        <time>2024-09-14T10:59:22Z</time>
      </trkpt>
      <trkpt lat="53.76355997286737" lon="12.567116003483534">
        <ele>33.299999999999997</ele>
        <time>2024-09-14T10:59:32Z</time>
      </trkpt>
      <trkpt lat="53.764799991622567" lon="12.567487992346287">
        <ele>23.690000000000001</ele>
        <time>2024-09-14T10:59:40Z</time>
      </trkpt>
      <trkpt lat="53.764923037961125" lon="12.567593017593026">
        <ele>22.73</ele>
        <time>2024-09-14T10:59:41Z</time>
      </trkpt>
      <trkpt lat="53.765030996873975" lon="12.56770801730454">
        <ele>22.25</ele>
        <time>2024-09-14T10:59:42Z</time>
      </trkpt>
      <trkpt lat="53.765222020447254" lon="12.567970035597682">
        <ele>20.809999999999999</ele>
        <time>2024-09-14T10:59:44Z</time>
      </trkpt>
      <trkpt lat="53.765302989631891" lon="12.568111019209027">
        <ele>20.32</ele>
        <time>2024-09-14T10:59:45Z</time>
      </trkpt>
      <trkpt lat="53.765383958816528" lon="12.568253008648753">
        <ele>20.32</ele>
        <time>2024-09-14T10:59:46Z</time>
      </trkpt>
      <trkpt lat="53.765843035653234" lon="12.56936302408576">
        <ele>20.32</ele>
        <time>2024-09-14T10:59:52Z</time>
      </trkpt>
      <trkpt lat="53.765930961817503" lon="12.569511970505118">
        <ele>20.809999999999999</ele>
        <time>2024-09-14T10:59:53Z</time>
      </trkpt>
      <trkpt lat="53.766034981235862" lon="12.569590006023645">
        <ele>20.809999999999999</ele>
        <time>2024-09-14T10:59:54Z</time>
      </trkpt>
      <trkpt lat="53.766135983169079" lon="12.569666029885411">
        <ele>21.289999999999999</ele>
        <time>2024-09-14T10:59:55Z</time>
      </trkpt>
      <trkpt lat="53.766242014244199" lon="12.569709029048681">
        <ele>21.289999999999999</ele>
        <time>2024-09-14T10:59:56Z</time>
      </trkpt>
      <trkpt lat="53.766347961500287" lon="12.569737024605274">
        <ele>21.77</ele>
        <time>2024-09-14T10:59:57Z</time>
      </trkpt>
      <trkpt lat="53.766454998403788" lon="12.569765020161867">
        <ele>21.77</ele>
        <time>2024-09-14T10:59:58Z</time>
      </trkpt>
      <trkpt lat="53.766990015283227" lon="12.570000970736146">
        <ele>19.84</ele>
        <time>2024-09-14T11:00:03Z</time>
      </trkpt>
      <trkpt lat="53.767091017216444" lon="12.570086969062686">
        <ele>19.359999999999999</ele>
        <time>2024-09-14T11:00:04Z</time>
      </trkpt>
      <trkpt lat="53.76807102933526" lon="12.571034040302038">
        <ele>14.08</ele>
        <time>2024-09-14T11:00:14Z</time>
      </trkpt>
      <trkpt lat="53.76918900758028" lon="12.572197029367089">
        <ele>12.630000000000001</ele>
        <time>2024-09-14T11:00:25Z</time>
      </trkpt>
      <trkpt lat="53.769600978121161" lon="12.572646969929338">
        <ele>12.630000000000001</ele>
        <time>2024-09-14T11:00:30Z</time>
      </trkpt>
      <trkpt lat="53.769826032221317" lon="12.572891972959042">
        <ele>13.119999999999999</ele>
        <time>2024-09-14T11:00:33Z</time>
      </trkpt>
      <trkpt lat="53.769889986142516" lon="12.572961961850524">
        <ele>13.6</ele>
        <time>2024-09-14T11:00:34Z</time>
      </trkpt>
      <trkpt lat="53.770172959193587" lon="12.573245018720627">
        <ele>14.56</ele>
        <time>2024-09-14T11:00:39Z</time>
      </trkpt>
      <trkpt lat="53.770191986113787" lon="12.573461020365357">
        <ele>15.52</ele>
        <time>2024-09-14T11:00:40Z</time>
      </trkpt>
      <trkpt lat="53.770149992778897" lon="12.573578031733632">
        <ele>16</ele>
        <time>2024-09-14T11:00:41Z</time>
      </trkpt>
      <trkpt lat="53.770099030807614" lon="12.573715997859836">
        <ele>16.48</ele>
        <time>2024-09-14T11:00:42Z</time>
      </trkpt>
      <trkpt lat="53.770053014159203" lon="12.573842983692884">
        <ele>17.440000000000001</ele>
        <time>2024-09-14T11:00:43Z</time>
      </trkpt>
      <trkpt lat="53.770009009167552" lon="12.573964018374681">
        <ele>18.399999999999999</ele>
        <time>2024-09-14T11:00:44Z</time>
      </trkpt>
      <trkpt lat="53.769958969205618" lon="12.574101984500885">
        <ele>19.359999999999999</ele>
        <time>2024-09-14T11:00:45Z</time>
      </trkpt>
      <trkpt lat="53.769422024488449" lon="12.575424984097481">
        <ele>24.170000000000002</ele>
        <time>2024-09-14T11:00:54Z</time>
      </trkpt>
      <trkpt lat="53.768849959596992" lon="12.576943030580878">
        <ele>24.649999999999999</ele>
        <time>2024-09-14T11:01:04Z</time>
      </trkpt>
      <trkpt lat="53.768748035654426" lon="12.577232038602233">
        <ele>24.170000000000002</ele>
        <time>2024-09-14T11:01:06Z</time>
      </trkpt>
      <trkpt lat="53.768705958500504" lon="12.577535966411233">
        <ele>23.690000000000001</ele>
        <time>2024-09-14T11:01:08Z</time>
      </trkpt>
      <trkpt lat="53.768711993470788" lon="12.577689019963145">
        <ele>23.210000000000001</ele>
        <time>2024-09-14T11:01:09Z</time>
      </trkpt>
      <trkpt lat="53.768745018169284" lon="12.577853975817561">
        <ele>23.210000000000001</ele>
        <time>2024-09-14T11:01:10Z</time>
      </trkpt>
      <trkpt lat="53.768783994019032" lon="12.577990014106035">
        <ele>22.73</ele>
        <time>2024-09-14T11:01:11Z</time>
      </trkpt>
      <trkpt lat="53.768849959596992" lon="12.578124040737748">
        <ele>22.73</ele>
        <time>2024-09-14T11:01:12Z</time>
      </trkpt>
      <trkpt lat="53.768927995115519" lon="12.578214984387159">
        <ele>22.25</ele>
        <time>2024-09-14T11:01:13Z</time>
      </trkpt>
      <trkpt lat="53.769024973735213" lon="12.578299976885319">
        <ele>22.25</ele>
        <time>2024-09-14T11:01:14Z</time>
      </trkpt>
      <trkpt lat="53.769128993153572" lon="12.578354040160775">
        <ele>21.77</ele>
        <time>2024-09-14T11:01:15Z</time>
      </trkpt>
      <trkpt lat="53.769242987036705" lon="12.578406007960439">
        <ele>22.25</ele>
        <time>2024-09-14T11:01:16Z</time>
      </trkpt>
      <trkpt lat="53.769454965367913" lon="12.578542968258262">
        <ele>21.77</ele>
        <time>2024-09-14T11:01:18Z</time>
      </trkpt>
      <trkpt lat="53.769556973129511" lon="12.578610023483634">
        <ele>21.289999999999999</ele>
        <time>2024-09-14T11:01:19Z</time>
      </trkpt>
      <trkpt lat="53.770548971369863" lon="12.57926900871098">
        <ele>19.359999999999999</ele>
        <time>2024-09-14T11:01:30Z</time>
      </trkpt>
      <trkpt lat="53.77069003880024" lon="12.579360036179423">
        <ele>18.879999999999999</ele>
        <time>2024-09-14T11:01:32Z</time>
      </trkpt>
      <trkpt lat="53.770750975236297" lon="12.579399012029171">
        <ele>18.879999999999999</ele>
        <time>2024-09-14T11:01:33Z</time>
      </trkpt>
      <trkpt lat="53.77079900354147" lon="12.579431030899286">
        <ele>18.399999999999999</ele>
        <time>2024-09-14T11:01:34Z</time>
      </trkpt>
      <trkpt lat="53.770809983834624" lon="12.579645020887256">
        <ele>17.920000000000002</ele>
        <time>2024-09-14T11:01:35Z</time>
      </trkpt>
      <trkpt lat="53.770777964964509" lon="12.579744011163712">
        <ele>17.920000000000002</ele>
        <time>2024-09-14T11:01:36Z</time>
      </trkpt>
      <trkpt lat="53.770739994943142" lon="12.57986999116838">
        <ele>17.440000000000001</ele>
        <time>2024-09-14T11:01:37Z</time>
      </trkpt>
      <trkpt lat="53.770696995779872" lon="12.580012986436486">
        <ele>16.960000000000001</ele>
        <time>2024-09-14T11:01:38Z</time>
      </trkpt>
      <trkpt lat="53.770651984959841" lon="12.580164028331637">
        <ele>16.48</ele>
        <time>2024-09-14T11:01:39Z</time>
      </trkpt>
      <trkpt lat="53.770087966695428" lon="12.58188801817596">
        <ele>15.039999999999999</ele>
        <time>2024-09-14T11:01:50Z</time>
      </trkpt>
      <trkpt lat="53.770032981410623" lon="12.582048028707504">
        <ele>15.039999999999999</ele>
        <time>2024-09-14T11:01:51Z</time>
      </trkpt>
      <trkpt lat="53.769386988133192" lon="12.584298988804221">
        <ele>15.52</ele>
        <time>2024-09-14T11:02:04Z</time>
      </trkpt>
      <trkpt lat="53.769053975120187" lon="12.585964975878596">
        <ele>16.960000000000001</ele>
        <time>2024-09-14T11:02:12Z</time>
      </trkpt>
      <trkpt lat="53.768661031499505" lon="12.587932962924242">
        <ele>17.440000000000001</ele>
        <time>2024-09-14T11:02:22Z</time>
      </trkpt>
      <trkpt lat="53.768055019900203" lon="12.590925972908735">
        <ele>16</ele>
        <time>2024-09-14T11:02:37Z</time>
      </trkpt>
      <trkpt lat="53.767496030777693" lon="12.593784034252167">
        <ele>16</ele>
        <time>2024-09-14T11:02:47Z</time>
      </trkpt>
      <trkpt lat="53.766612997278571" lon="12.598200039938092">
        <ele>13.119999999999999</ele>
        <time>2024-09-14T11:03:02Z</time>
      </trkpt>
      <trkpt lat="53.765658969059587" lon="12.602975964546204">
        <ele>12.15</ele>
        <time>2024-09-14T11:03:18Z</time>
      </trkpt>
      <trkpt lat="53.765030996873975" lon="12.606171984225512">
        <ele>17.440000000000001</ele>
        <time>2024-09-14T11:03:28Z</time>
      </trkpt>
      <trkpt lat="53.764491034671664" lon="12.608890989795327">
        <ele>25.129999999999999</ele>
        <time>2024-09-14T11:03:36Z</time>
      </trkpt>
      <trkpt lat="53.76388099975884" lon="12.61203596368432">
        <ele>27.530000000000001</ele>
        <time>2024-09-14T11:03:45Z</time>
      </trkpt>
      <trkpt lat="53.762962007895112" lon="12.616622960194945">
        <ele>31.859999999999999</ele>
        <time>2024-09-14T11:03:57Z</time>
      </trkpt>
      <trkpt lat="53.762485999614" lon="12.619010964408517">
        <ele>35.229999999999997</ele>
        <time>2024-09-14T11:04:05Z</time>
      </trkpt>
      <trkpt lat="53.762177964672446" lon="12.620534962043166">
        <ele>40.030000000000001</ele>
        <time>2024-09-14T11:04:13Z</time>
      </trkpt>
      <trkpt lat="53.761563990265131" lon="12.623625034466386">
        <ele>47.240000000000002</ele>
        <time>2024-09-14T11:04:29Z</time>
      </trkpt>
      <trkpt lat="53.76106702722609" lon="12.626137007027864">
        <ele>53.969999999999999</ele>
        <time>2024-09-14T11:04:42Z</time>
      </trkpt>
      <trkpt lat="53.760705012828112" lon="12.627944983541965">
        <ele>55.409999999999997</ele>
        <time>2024-09-14T11:04:49Z</time>
      </trkpt>
      <trkpt lat="53.760150969028473" lon="12.630716040730476">
        <ele>53.009999999999998</ele>
        <time>2024-09-14T11:04:57Z</time>
      </trkpt>
      <trkpt lat="53.759056041017175" lon="12.636268967762589">
        <ele>57.340000000000003</ele>
        <time>2024-09-14T11:05:11Z</time>
      </trkpt>
      <trkpt lat="53.757523996755481" lon="12.643889961764216">
        <ele>65.510000000000005</ele>
        <time>2024-09-14T11:05:29Z</time>
      </trkpt>
      <trkpt lat="53.756740037351847" lon="12.647795006632805">
        <ele>73.680000000000007</ele>
        <time>2024-09-14T11:05:39Z</time>
      </trkpt>
      <trkpt lat="53.756116004660726" lon="12.651013992726803">
        <ele>79.930000000000007</ele>
        <time>2024-09-14T11:05:48Z</time>
      </trkpt>
      <trkpt lat="53.755778968334198" lon="12.652642009779811">
        <ele>83.290000000000006</ele>
        <time>2024-09-14T11:05:56Z</time>
      </trkpt>
      <trkpt lat="53.755360040813684" lon="12.654779981821775">
        <ele>84.25</ele>
        <time>2024-09-14T11:06:07Z</time>
      </trkpt>
      <trkpt lat="53.75490196980536" lon="12.657106965780258">
        <ele>82.810000000000002</ele>
        <time>2024-09-14T11:06:19Z</time>
      </trkpt>
      <trkpt lat="53.754268968477845" lon="12.660173987969756">
        <ele>77.519999999999996</ele>
        <time>2024-09-14T11:06:35Z</time>
      </trkpt>
      <trkpt lat="53.753938972949982" lon="12.662282958626747">
        <ele>71.760000000000005</ele>
        <time>2024-09-14T11:06:45Z</time>
      </trkpt>
      <trkpt lat="53.753960011526942" lon="12.663140008226037">
        <ele>70.310000000000002</ele>
        <time>2024-09-14T11:06:48Z</time>
      </trkpt>
      <trkpt lat="53.753975015133619" lon="12.663774015381932">
        <ele>68.390000000000001</ele>
        <time>2024-09-14T11:06:50Z</time>
      </trkpt>
      <trkpt lat="53.754194034263492" lon="12.665437990799546">
        <ele>63.579999999999998</ele>
        <time>2024-09-14T11:06:55Z</time>
      </trkpt>
      <trkpt lat="53.754510032013059" lon="12.667840998619795">
        <ele>55.409999999999997</ele>
        <time>2024-09-14T11:07:02Z</time>
      </trkpt>
      <trkpt lat="53.754413975402713" lon="12.669654004275799">
        <ele>47.719999999999999</ele>
        <time>2024-09-14T11:07:08Z</time>
      </trkpt>
      <trkpt lat="53.754145000129938" lon="12.672854969277978">
        <ele>38.590000000000003</ele>
        <time>2024-09-14T11:07:18Z</time>
      </trkpt>
      <trkpt lat="53.753875019028783" lon="12.676129024475813">
        <ele>33.299999999999997</ele>
        <time>2024-09-14T11:07:27Z</time>
      </trkpt>
      <trkpt lat="53.753500012680888" lon="12.680563973262906">
        <ele>28.5</ele>
        <time>2024-09-14T11:07:38Z</time>
      </trkpt>
      <trkpt lat="53.753175968304276" lon="12.684129970148206">
        <ele>24.649999999999999</ele>
        <time>2024-09-14T11:07:47Z</time>
      </trkpt>
      <trkpt lat="53.753004977479577" lon="12.686428958550096">
        <ele>21.289999999999999</ele>
        <time>2024-09-14T11:07:54Z</time>
      </trkpt>
      <trkpt lat="53.752699960023165" lon="12.689667977392673">
        <ele>11.67</ele>
        <time>2024-09-14T11:08:04Z</time>
      </trkpt>
      <trkpt lat="53.752601975575089" lon="12.691231034696102">
        <ele>6.87</ele>
        <time>2024-09-14T11:08:10Z</time>
      </trkpt>
      <trkpt lat="53.752619996666908" lon="12.692464012652636">
        <ele>4.46</ele>
        <time>2024-09-14T11:08:16Z</time>
      </trkpt>
      <trkpt lat="53.752640029415488" lon="12.692641038447618">
        <ele>4.46</ele>
        <time>2024-09-14T11:08:17Z</time>
      </trkpt>
      <trkpt lat="53.752957032993436" lon="12.694283975288272">
        <ele>3.02</ele>
        <time>2024-09-14T11:08:26Z</time>
      </trkpt>
      <trkpt lat="53.75339699909091" lon="12.696188008412719">
        <ele>3.02</ele>
        <time>2024-09-14T11:08:36Z</time>
      </trkpt>
      <trkpt lat="53.753953976556659" lon="12.698666034266353">
        <ele>3.98</ele>
        <time>2024-09-14T11:08:49Z</time>
      </trkpt>
      <trkpt lat="53.754481030628085" lon="12.700952030718327">
        <ele>4.46</ele>
        <time>2024-09-14T11:09:01Z</time>
      </trkpt>
      <trkpt lat="53.754630982875824" lon="12.701925002038479">
        <ele>4.94</ele>
        <time>2024-09-14T11:09:06Z</time>
      </trkpt>
      <trkpt lat="53.754649003967643" lon="12.702134968712926">
        <ele>4.94</ele>
        <time>2024-09-14T11:09:07Z</time>
      </trkpt>
      <trkpt lat="53.754735002294183" lon="12.704021986573935">
        <ele>5.42</ele>
        <time>2024-09-14T11:09:14Z</time>
      </trkpt>
      <trkpt lat="53.75485603697598" lon="12.706767981871963">
        <ele>5.91</ele>
        <time>2024-09-14T11:09:21Z</time>
      </trkpt>
      <trkpt lat="53.755017975345254" lon="12.709864005446434">
        <ele>6.39</ele>
        <time>2024-09-14T11:09:29Z</time>
      </trkpt>
      <trkpt lat="53.755532037466764" lon="12.714568013325334">
        <ele>3.98</ele>
        <time>2024-09-14T11:09:41Z</time>
      </trkpt>
      <trkpt lat="53.756047021597624" lon="12.718788972124457">
        <ele>3.5</ele>
        <time>2024-09-14T11:09:52Z</time>
      </trkpt>
      <trkpt lat="53.756476007401943" lon="12.722336025908589">
        <ele>3.02</ele>
        <time>2024-09-14T11:10:02Z</time>
      </trkpt>
      <trkpt lat="53.756715981289744" lon="12.724999040365219">
        <ele>3.5</ele>
        <time>2024-09-14T11:10:12Z</time>
      </trkpt>
      <trkpt lat="53.756665019318461" lon="12.726359004154801">
        <ele>3.5</ele>
        <time>2024-09-14T11:10:19Z</time>
      </trkpt>
      <trkpt lat="53.756644986569881" lon="12.726504011079669">
        <ele>3.98</ele>
        <time>2024-09-14T11:10:20Z</time>
      </trkpt>
      <trkpt lat="53.756627971306443" lon="12.726630996912718">
        <ele>3.98</ele>
        <time>2024-09-14T11:10:21Z</time>
      </trkpt>
      <trkpt lat="53.756718998774886" lon="12.726756976917386">
        <ele>4.46</ele>
        <time>2024-09-14T11:10:22Z</time>
      </trkpt>
      <trkpt lat="53.756800973787904" lon="12.726808022707701">
        <ele>4.94</ele>
        <time>2024-09-14T11:10:23Z</time>
      </trkpt>
      <trkpt lat="53.756893007084727" lon="12.726864013820887">
        <ele>4.94</ele>
        <time>2024-09-14T11:10:24Z</time>
      </trkpt>
      <trkpt lat="53.756968025118113" lon="12.727075992152095">
        <ele>5.42</ele>
        <time>2024-09-14T11:10:25Z</time>
      </trkpt>
      <trkpt lat="53.75702602788806" lon="12.727250000461936">
        <ele>5.42</ele>
        <time>2024-09-14T11:10:26Z</time>
      </trkpt>
      <trkpt lat="53.757060980424285" lon="12.727458039298654">
        <ele>5.42</ele>
        <time>2024-09-14T11:10:27Z</time>
      </trkpt>
      <trkpt lat="53.757096016779542" lon="12.727676974609494">
        <ele>5.42</ele>
        <time>2024-09-14T11:10:28Z</time>
      </trkpt>
      <trkpt lat="53.757126023992896" lon="12.727909991517663">
        <ele>5.42</ele>
        <time>2024-09-14T11:10:29Z</time>
      </trkpt>
      <trkpt lat="53.757403967902064" lon="12.730205040425062">
        <ele>4.46</ele>
        <time>2024-09-14T11:10:37Z</time>
      </trkpt>
      <trkpt lat="53.757885005325079" lon="12.734117964282632">
        <ele>2.54</ele>
        <time>2024-09-14T11:10:49Z</time>
      </trkpt>
      <trkpt lat="53.758512977510691" lon="12.739349026232958">
        <ele>1.1</ele>
        <time>2024-09-14T11:11:05Z</time>
      </trkpt>
      <trkpt lat="53.758760998025537" lon="12.741382978856564">
        <ele>1.1</ele>
        <time>2024-09-14T11:11:13Z</time>
      </trkpt>
      <trkpt lat="53.758843978866935" lon="12.742074988782406">
        <ele>1.1</ele>
        <time>2024-09-14T11:11:17Z</time>
      </trkpt>
      <trkpt lat="53.758859988301992" lon="12.742222007364035">
        <ele>1.1</ele>
        <time>2024-09-14T11:11:18Z</time>
      </trkpt>
      <trkpt lat="53.758943974971771" lon="12.742327032610774">
        <ele>1.58</ele>
        <time>2024-09-14T11:11:19Z</time>
      </trkpt>
      <trkpt lat="53.75902796164155" lon="12.742314040660858">
        <ele>1.58</ele>
        <time>2024-09-14T11:11:20Z</time>
      </trkpt>
      <trkpt lat="53.759130975231528" lon="12.742298031225801">
        <ele>2.06</ele>
        <time>2024-09-14T11:11:21Z</time>
      </trkpt>
      <trkpt lat="53.759246980771422" lon="12.742279004305601">
        <ele>2.06</ele>
        <time>2024-09-14T11:11:22Z</time>
      </trkpt>
      <trkpt lat="53.759368015453219" lon="12.742248997092247">
        <ele>2.54</ele>
        <time>2024-09-14T11:11:23Z</time>
      </trkpt>
      <trkpt lat="53.760754968971014" lon="12.741782041266561">
        <ele>4.94</ele>
        <time>2024-09-14T11:11:32Z</time>
      </trkpt>
      <trkpt lat="53.762940969318151" lon="12.741077039390802">
        <ele>10.710000000000001</ele>
        <time>2024-09-14T11:11:44Z</time>
      </trkpt>
      <trkpt lat="53.764387015253305" lon="12.741057006642222">
        <ele>16</ele>
        <time>2024-09-14T11:11:52Z</time>
      </trkpt>
      <trkpt lat="53.765759970992804" lon="12.741222968325019">
        <ele>19.359999999999999</ele>
        <time>2024-09-14T11:11:59Z</time>
      </trkpt>
      <trkpt lat="53.765924004837871" lon="12.741284994408488">
        <ele>19.84</ele>
        <time>2024-09-14T11:12:00Z</time>
      </trkpt>
      <trkpt lat="53.76611502841115" lon="12.741358000785112">
        <ele>20.32</ele>
        <time>2024-09-14T11:12:01Z</time>
      </trkpt>
      <trkpt lat="53.766298005357385" lon="12.741450034081936">
        <ele>20.809999999999999</ele>
        <time>2024-09-14T11:12:02Z</time>
      </trkpt>
      <trkpt lat="53.766476036980748" lon="12.74156603962183">
        <ele>21.77</ele>
        <time>2024-09-14T11:12:03Z</time>
      </trkpt>
      <trkpt lat="53.766648033633828" lon="12.741710962727666">
        <ele>21.77</ele>
        <time>2024-09-14T11:12:04Z</time>
      </trkpt>
      <trkpt lat="53.767458982765675" lon="12.742613023146987">
        <ele>24.170000000000002</ele>
        <time>2024-09-14T11:12:09Z</time>
      </trkpt>
      <trkpt lat="53.767613964155316" lon="12.742787031456828">
        <ele>24.649999999999999</ele>
        <time>2024-09-14T11:12:10Z</time>
      </trkpt>
      <trkpt lat="53.768041022121906" lon="12.743262033909559">
        <ele>26.09</ele>
        <time>2024-09-14T11:12:13Z</time>
      </trkpt>
      <trkpt lat="53.768604034557939" lon="12.743886988610029">
        <ele>28.98</ele>
        <time>2024-09-14T11:12:18Z</time>
      </trkpt>
      <trkpt lat="53.768725991249084" lon="12.744023026898503">
        <ele>29.460000000000001</ele>
        <time>2024-09-14T11:12:19Z</time>
      </trkpt>
      <trkpt lat="53.769129998981953" lon="12.744474979117513">
        <ele>30.899999999999999</ele>
        <time>2024-09-14T11:12:22Z</time>
      </trkpt>
      <trkpt lat="53.769565019756556" lon="12.744944030418992">
        <ele>31.379999999999999</ele>
        <time>2024-09-14T11:12:25Z</time>
      </trkpt>
      <trkpt lat="53.771067978814244" lon="12.746619991958141">
        <ele>33.299999999999997</ele>
        <time>2024-09-14T11:12:34Z</time>
      </trkpt>
      <trkpt lat="53.772320989519358" lon="12.748017003759742">
        <ele>38.109999999999999</ele>
        <time>2024-09-14T11:12:42Z</time>
      </trkpt>
      <trkpt lat="53.77354902215302" lon="12.749375961720943">
        <ele>40.030000000000001</ele>
        <time>2024-09-14T11:12:50Z</time>
      </trkpt>
      <trkpt lat="53.773685982450843" lon="12.749489033594728">
        <ele>40.030000000000001</ele>
        <time>2024-09-14T11:12:51Z</time>
      </trkpt>
      <trkpt lat="53.773840963840485" lon="12.749616019427776">
        <ele>40.030000000000001</ele>
        <time>2024-09-14T11:12:52Z</time>
      </trkpt>
      <trkpt lat="53.774006003513932" lon="12.749750968068838">
        <ele>40.509999999999998</ele>
        <time>2024-09-14T11:12:53Z</time>
      </trkpt>
      <trkpt lat="53.774169031530619" lon="12.749881977215409">
        <ele>40.509999999999998</ele>
        <time>2024-09-14T11:12:54Z</time>
      </trkpt>
      <trkpt lat="53.774337004870176" lon="12.749993037432432">
        <ele>40.509999999999998</ele>
        <time>2024-09-14T11:12:55Z</time>
      </trkpt>
      <trkpt lat="53.774498021230102" lon="12.75009898468852">
        <ele>40.990000000000002</ele>
        <time>2024-09-14T11:12:56Z</time>
      </trkpt>
      <trkpt lat="53.774659959599376" lon="12.75020501576364">
        <ele>40.990000000000002</ele>
        <time>2024-09-14T11:12:57Z</time>
      </trkpt>
      <trkpt lat="53.776002991944551" lon="12.751144040375948">
        <ele>45.799999999999997</ele>
        <time>2024-09-14T11:13:05Z</time>
      </trkpt>
      <trkpt lat="53.777774004265666" lon="12.75237500667572">
        <ele>51.57</ele>
        <time>2024-09-14T11:13:16Z</time>
      </trkpt>
      <trkpt lat="53.779396992176771" lon="12.753496002405882">
        <ele>55.409999999999997</ele>
        <time>2024-09-14T11:13:27Z</time>
      </trkpt>
      <trkpt lat="53.781179990619421" lon="12.754733003675938">
        <ele>65.030000000000001</ele>
        <time>2024-09-14T11:13:39Z</time>
      </trkpt>
      <trkpt lat="53.783039012923837" lon="12.756030019372702">
        <ele>67.430000000000007</ele>
        <time>2024-09-14T11:13:50Z</time>
      </trkpt>
      <trkpt lat="53.785371026024222" lon="12.757644960656762">
        <ele>66.469999999999999</ele>
        <time>2024-09-14T11:14:02Z</time>
      </trkpt>
      <trkpt lat="53.786952020600438" lon="12.75873402133584">
        <ele>69.829999999999998</ele>
        <time>2024-09-14T11:14:11Z</time>
      </trkpt>
      <trkpt lat="53.788634017109871" lon="12.759924000129104">
        <ele>74.640000000000001</ele>
        <time>2024-09-14T11:14:21Z</time>
      </trkpt>
      <trkpt lat="53.789302976801991" lon="12.760451976209879">
        <ele>78</ele>
        <time>2024-09-14T11:14:25Z</time>
      </trkpt>
      <trkpt lat="53.789446977898479" lon="12.760660015046597">
        <ele>78.969999999999999</ele>
        <time>2024-09-14T11:14:26Z</time>
      </trkpt>
      <trkpt lat="53.789588967338204" lon="12.760863024741411">
        <ele>79.930000000000007</ele>
        <time>2024-09-14T11:14:27Z</time>
      </trkpt>
      <trkpt lat="53.790805013850331" lon="12.762705031782389">
        <ele>86.659999999999997</ele>
        <time>2024-09-14T11:14:36Z</time>
      </trkpt>
      <trkpt lat="53.792352983728051" lon="12.76509203016758">
        <ele>83.769999999999996</ele>
        <time>2024-09-14T11:14:47Z</time>
      </trkpt>
      <trkpt lat="53.793900031596422" lon="12.767454972490668">
        <ele>79.450000000000003</ele>
        <time>2024-09-14T11:14:58Z</time>
      </trkpt>
      <trkpt lat="53.795044999569654" lon="12.769208969548345">
        <ele>78.969999999999999</ele>
        <time>2024-09-14T11:15:07Z</time>
      </trkpt>
      <trkpt lat="53.796327011659741" lon="12.771166982129216">
        <ele>75.120000000000005</ele>
        <time>2024-09-14T11:15:16Z</time>
      </trkpt>
      <trkpt lat="53.796437988057733" lon="12.771335961297154">
        <ele>75.120000000000005</ele>
        <time>2024-09-14T11:15:17Z</time>
      </trkpt>
      <trkpt lat="53.796622976660728" lon="12.771628992632031">
        <ele>74.159999999999997</ele>
        <time>2024-09-14T11:15:19Z</time>
      </trkpt>
      <trkpt lat="53.796686008572578" lon="12.77173301205039">
        <ele>74.159999999999997</ele>
        <time>2024-09-14T11:15:20Z</time>
      </trkpt>
      <trkpt lat="53.796730013564229" lon="12.771804006770253">
        <ele>73.680000000000007</ele>
        <time>2024-09-14T11:15:21Z</time>
      </trkpt>
      <trkpt lat="53.796765971928835" lon="12.771863015368581">
        <ele>73.680000000000007</ele>
        <time>2024-09-14T11:15:22Z</time>
      </trkpt>
      <trkpt lat="53.79679698497057" lon="12.771913977339864">
        <ele>73.200000000000003</ele>
        <time>2024-09-14T11:15:23Z</time>
      </trkpt>
      <trkpt lat="53.796894969418645" lon="12.772071976214647">
        <ele>72.239999999999995</ele>
        <time>2024-09-14T11:15:31Z</time>
      </trkpt>
      <trkpt lat="53.796894969418645" lon="12.772071976214647">
        <ele>72.239999999999995</ele>
        <time>2024-09-14T11:16:04Z</time>
      </trkpt>
      <trkpt lat="53.796894969418645" lon="12.772071976214647">
        <ele>72.239999999999995</ele>
        <time>2024-09-14T11:16:47Z</time>
      </trkpt>
      <trkpt lat="53.796894969418645" lon="12.772071976214647">
        <ele>73.200000000000003</ele>
        <time>2024-09-14T11:17:10Z</time>
      </trkpt>
      <trkpt lat="53.796894969418645" lon="12.772071976214647">
        <ele>72.719999999999999</ele>
        <time>2024-09-14T11:17:42Z</time>
      </trkpt>
      <trkpt lat="53.796894969418645" lon="12.772071976214647">
        <ele>73.200000000000003</ele>
        <time>2024-09-14T11:18:26Z</time>
      </trkpt>
      <trkpt lat="53.796894969418645" lon="12.772071976214647">
        <ele>73.200000000000003</ele>
        <time>2024-09-14T11:19:06Z</time>
      </trkpt>
      <trkpt lat="53.796894969418645" lon="12.772071976214647">
        <ele>73.200000000000003</ele>
        <time>2024-09-14T11:20:17Z</time>
      </trkpt>
      <trkpt lat="53.796894969418645" lon="12.772071976214647">
        <ele>74.159999999999997</ele>
        <time>2024-09-14T11:21:06Z</time>
      </trkpt>
      <trkpt lat="53.796894969418645" lon="12.772071976214647">
        <ele>75.120000000000005</ele>
        <time>2024-09-14T11:21:48Z</time>
      </trkpt>
      <trkpt lat="53.796894969418645" lon="12.772071976214647">
        <ele>75.120000000000005</ele>
        <time>2024-09-14T11:22:28Z</time>
      </trkpt>
      <trkpt lat="53.796894969418645" lon="12.772071976214647">
        <ele>75.120000000000005</ele>
        <time>2024-09-14T11:23:19Z</time>
      </trkpt>
      <trkpt lat="53.796894969418645" lon="12.772071976214647">
        <ele>74.640000000000001</ele>
        <time>2024-09-14T11:24:07Z</time>
      </trkpt>
      <trkpt lat="53.797001000493765" lon="12.772246990352869">
        <ele>75.120000000000005</ele>
        <time>2024-09-14T11:24:45Z</time>
      </trkpt>
      <trkpt lat="53.797550015151501" lon="12.773126000538468">
        <ele>73.680000000000007</ele>
        <time>2024-09-14T11:24:51Z</time>
      </trkpt>
      <trkpt lat="53.798753991723061" lon="12.774832975119352">
        <ele>69.349999999999994</ele>
        <time>2024-09-14T11:24:59Z</time>
      </trkpt>
      <trkpt lat="53.799428986385465" lon="12.77551501058042">
        <ele>65.989999999999995</ele>
        <time>2024-09-14T11:25:03Z</time>
      </trkpt>
      <trkpt lat="53.799613974988461" lon="12.775583993643522">
        <ele>65.510000000000005</ele>
        <time>2024-09-14T11:25:04Z</time>
      </trkpt>
      <trkpt lat="53.799802986904979" lon="12.775654988363385">
        <ele>65.030000000000001</ele>
        <time>2024-09-14T11:25:05Z</time>
      </trkpt>
      <trkpt lat="53.801326984539628" lon="12.775695975869894">
        <ele>60.700000000000003</ele>
        <time>2024-09-14T11:25:12Z</time>
      </trkpt>
      <trkpt lat="53.802142040804029" lon="12.775632021948695">
        <ele>57.82</ele>
        <time>2024-09-14T11:25:16Z</time>
      </trkpt>
      <trkpt lat="53.803392034024" lon="12.775699999183416">
        <ele>51.090000000000003</ele>
        <time>2024-09-14T11:25:23Z</time>
      </trkpt>
      <trkpt lat="53.80356403067708" lon="12.775779962539673">
        <ele>50.130000000000003</ele>
        <time>2024-09-14T11:25:24Z</time>
      </trkpt>
      <trkpt lat="53.803723035380244" lon="12.775893034413457">
        <ele>48.68</ele>
        <time>2024-09-14T11:25:25Z</time>
      </trkpt>
      <trkpt lat="53.803884973749518" lon="12.776037035509944">
        <ele>47.719999999999999</ele>
        <time>2024-09-14T11:25:26Z</time>
      </trkpt>
      <trkpt lat="53.804040960967541" lon="12.776176007464528">
        <ele>46.280000000000001</ele>
        <time>2024-09-14T11:25:27Z</time>
      </trkpt>
      <trkpt lat="53.804233996197581" lon="12.776349009945989">
        <ele>45.32</ele>
        <time>2024-09-14T11:25:28Z</time>
      </trkpt>
      <trkpt lat="53.805182995274663" lon="12.777810981497169">
        <ele>37.149999999999999</ele>
        <time>2024-09-14T11:25:35Z</time>
      </trkpt>
      <trkpt lat="53.806480010971427" lon="12.780041992664337">
        <ele>27.530000000000001</ele>
        <time>2024-09-14T11:25:45Z</time>
      </trkpt>
      <trkpt lat="53.80760301835835" lon="12.781862961128354">
        <ele>19.84</ele>
        <time>2024-09-14T11:25:53Z</time>
      </trkpt>
      <trkpt lat="53.80773302167654" lon="12.782081980258226">
        <ele>18.879999999999999</ele>
        <time>2024-09-14T11:25:54Z</time>
      </trkpt>
      <trkpt lat="53.809866970404983" lon="12.785598021000624">
        <ele>8.310000000000001</ele>
        <time>2024-09-14T11:26:09Z</time>
      </trkpt>
      <trkpt lat="53.81056702695787" lon="12.786652967333794">
        <ele>9.27</ele>
        <time>2024-09-14T11:26:14Z</time>
      </trkpt>
      <trkpt lat="53.810727959498763" lon="12.786810966208577">
        <ele>9.27</ele>
        <time>2024-09-14T11:26:15Z</time>
      </trkpt>
      <trkpt lat="53.810897022485733" lon="12.786948010325432">
        <ele>9.27</ele>
        <time>2024-09-14T11:26:16Z</time>
      </trkpt>
      <trkpt lat="53.811073964461684" lon="12.787054041400552">
        <ele>8.789999999999999</ele>
        <time>2024-09-14T11:26:17Z</time>
      </trkpt>
      <trkpt lat="53.811257025226951" lon="12.787144985049963">
        <ele>8.310000000000001</ele>
        <time>2024-09-14T11:26:18Z</time>
      </trkpt>
      <trkpt lat="53.811445031315088" lon="12.787226960062981">
        <ele>7.83</ele>
        <time>2024-09-14T11:26:19Z</time>
      </trkpt>
      <trkpt lat="53.813777966424823" lon="12.787995999678969">
        <ele>4.46</ele>
        <time>2024-09-14T11:26:32Z</time>
      </trkpt>
      <trkpt lat="53.814892005175352" lon="12.788376035168767">
        <ele>4.94</ele>
        <time>2024-09-14T11:26:41Z</time>
      </trkpt>
      <trkpt lat="53.815846033394337" lon="12.788688009604812">
        <ele>4.46</ele>
        <time>2024-09-14T11:26:50Z</time>
      </trkpt>
      <trkpt lat="53.817533981055021" lon="12.789299972355366">
        <ele>3.5</ele>
        <time>2024-09-14T11:27:05Z</time>
      </trkpt>
      <trkpt lat="53.818200007081032" lon="12.789714960381389">
        <ele>4.46</ele>
        <time>2024-09-14T11:27:11Z</time>
      </trkpt>
      <trkpt lat="53.81933500058949" lon="12.790650967508554">
        <ele>3.02</ele>
        <time>2024-09-14T11:27:22Z</time>
      </trkpt>
      <trkpt lat="53.820435041561723" lon="12.791114989668131">
        <ele>1.58</ele>
        <time>2024-09-14T11:27:33Z</time>
      </trkpt>
      <trkpt lat="53.82066898047924" lon="12.791141979396343">
        <ele>0.62</ele>
        <time>2024-09-14T11:27:36Z</time>
      </trkpt>
      <trkpt lat="53.820747015997767" lon="12.791122030466795">
        <ele>0.62</ele>
        <time>2024-09-14T11:27:37Z</time>
      </trkpt>
      <trkpt lat="53.820841982960701" lon="12.79109001159668">
        <ele>0.62</ele>
        <time>2024-09-14T11:27:38Z</time>
      </trkpt>
      <trkpt lat="53.82122796960175" lon="12.790939975529909">
        <ele>0.14</ele>
        <time>2024-09-14T11:27:43Z</time>
      </trkpt>
      <trkpt lat="53.821284966543317" lon="12.790926983579993">
        <ele>0.14</ele>
        <time>2024-09-14T11:27:44Z</time>
      </trkpt>
      <trkpt lat="53.822370003908873" lon="12.790730008855462">
        <ele>-0.82</ele>
        <time>2024-09-14T11:27:58Z</time>
      </trkpt>
      <trkpt lat="53.82240797393024" lon="12.790724979713559">
        <ele>-1.3</ele>
        <time>2024-09-14T11:27:59Z</time>
      </trkpt>
      <trkpt lat="53.822431024163961" lon="12.790816007182002">
        <ele>-1.3</ele>
        <time>2024-09-14T11:28:00Z</time>
      </trkpt>
      <trkpt lat="53.822457008063793" lon="12.7909180149436">
        <ele>-1.3</ele>
        <time>2024-09-14T11:28:01Z</time>
      </trkpt>
      <trkpt lat="53.822608971968293" lon="12.791080959141254">
        <ele>-1.79</ele>
        <time>2024-09-14T11:28:03Z</time>
      </trkpt>
      <trkpt lat="53.82266697473824" lon="12.791087999939919">
        <ele>-1.79</ele>
        <time>2024-09-14T11:28:04Z</time>
      </trkpt>
      <trkpt lat="53.822733024135232" lon="12.79107098467648">
        <ele>-2.27</ele>
        <time>2024-09-14T11:28:05Z</time>
      </trkpt>
      <trkpt lat="53.82298800162971" lon="12.79096101410687">
        <ele>-2.75</ele>
        <time>2024-09-14T11:28:09Z</time>
      </trkpt>
      <trkpt lat="53.82303100079298" lon="12.79087602160871">
        <ele>-2.75</ele>
        <time>2024-09-14T11:28:10Z</time>
      </trkpt>
      <trkpt lat="53.823055978864431" lon="12.790736965835094">
        <ele>-2.75</ele>
        <time>2024-09-14T11:28:11Z</time>
      </trkpt>
      <trkpt lat="53.823209032416344" lon="12.790633030235767">
        <ele>-2.75</ele>
        <time>2024-09-14T11:28:13Z</time>
      </trkpt>
      <trkpt lat="53.82326602935791" lon="12.790629006922245">
        <ele>-3.23</ele>
        <time>2024-09-14T11:28:14Z</time>
      </trkpt>
      <trkpt lat="53.823333000764251" lon="12.790625989437103">
        <ele>-3.23</ele>
        <time>2024-09-14T11:28:15Z</time>
      </trkpt>
      <trkpt lat="53.823408018797636" lon="12.790621966123581">
        <ele>-3.23</ele>
        <time>2024-09-14T11:28:16Z</time>
      </trkpt>
      <trkpt lat="53.823483036831021" lon="12.790619032457471">
        <ele>-3.23</ele>
        <time>2024-09-14T11:28:17Z</time>
      </trkpt>
      <trkpt lat="53.823569035157561" lon="12.790644010528922">
        <ele>-3.23</ele>
        <time>2024-09-14T11:28:18Z</time>
      </trkpt>
      <trkpt lat="53.823656039312482" lon="12.790669994428754">
        <ele>-3.71</ele>
        <time>2024-09-14T11:28:19Z</time>
      </trkpt>
      <trkpt lat="53.823743965476751" lon="12.790693966671824">
        <ele>-4.19</ele>
        <time>2024-09-14T11:28:20Z</time>
      </trkpt>
      <trkpt lat="53.823829041793942" lon="12.790716011077166">
        <ele>-4.67</ele>
        <time>2024-09-14T11:28:21Z</time>
      </trkpt>
      <trkpt lat="53.823916967958212" lon="12.790737971663475">
        <ele>-4.67</ele>
        <time>2024-09-14T11:28:22Z</time>
      </trkpt>
      <trkpt lat="53.825007034465671" lon="12.791008036583662">
        <ele>-5.63</ele>
        <time>2024-09-14T11:28:32Z</time>
      </trkpt>
      <trkpt lat="53.826498007401824" lon="12.791337026283145">
        <ele>-0.34</ele>
        <time>2024-09-14T11:28:45Z</time>
      </trkpt>
      <trkpt lat="53.826717026531696" lon="12.791467029601336">
        <ele>0.14</ele>
        <time>2024-09-14T11:28:47Z</time>
      </trkpt>
      <trkpt lat="53.826825991272926" lon="12.791530983522534">
        <ele>0.62</ele>
        <time>2024-09-14T11:28:48Z</time>
      </trkpt>
      <trkpt lat="53.826947025954723" lon="12.79162896797061">
        <ele>1.1</ele>
        <time>2024-09-14T11:28:49Z</time>
      </trkpt>
      <trkpt lat="53.827038975432515" lon="12.791759977117181">
        <ele>1.58</ele>
        <time>2024-09-14T11:28:50Z</time>
      </trkpt>
      <trkpt lat="53.8271330203861" lon="12.791892997920513">
        <ele>2.54</ele>
        <time>2024-09-14T11:28:51Z</time>
      </trkpt>
      <trkpt lat="53.827218012884259" lon="12.792030964046717">
        <ele>3.5</ele>
        <time>2024-09-14T11:28:52Z</time>
      </trkpt>
      <trkpt lat="53.827580027282238" lon="12.792634963989258">
        <ele>5.42</ele>
        <time>2024-09-14T11:28:57Z</time>
      </trkpt>
      <trkpt lat="53.827633000910282" lon="12.792576039209962">
        <ele>5.91</ele>
        <time>2024-09-14T11:28:58Z</time>
      </trkpt>
      <trkpt lat="53.827687986195087" lon="12.792515018954873">
        <ele>6.87</ele>
        <time>2024-09-14T11:28:59Z</time>
      </trkpt>
      <trkpt lat="53.827760992571712" lon="12.792434971779585">
        <ele>7.35</ele>
        <time>2024-09-14T11:29:00Z</time>
      </trkpt>
      <trkpt lat="53.827845985069871" lon="12.792342016473413">
        <ele>7.83</ele>
        <time>2024-09-14T11:29:01Z</time>
      </trkpt>
      <trkpt lat="53.828261978924274" lon="12.791901966556907">
        <ele>8.310000000000001</ele>
        <time>2024-09-14T11:29:05Z</time>
      </trkpt>
      <trkpt lat="53.828387958928943" lon="12.79182200320065">
        <ele>8.789999999999999</ele>
        <time>2024-09-14T11:29:06Z</time>
      </trkpt>
      <trkpt lat="53.829964008182287" lon="12.791120018810034">
        <ele>10.710000000000001</ele>
        <time>2024-09-14T11:29:17Z</time>
      </trkpt>
      <trkpt lat="53.831352973356843" lon="12.791082970798016">
        <ele>13.119999999999999</ele>
        <time>2024-09-14T11:29:26Z</time>
      </trkpt>
      <trkpt lat="53.833104036748409" lon="12.790839979425073">
        <ele>16.48</ele>
        <time>2024-09-14T11:29:36Z</time>
      </trkpt>
      <trkpt lat="53.834928022697568" lon="12.790217958390713">
        <ele>20.32</ele>
        <time>2024-09-14T11:29:45Z</time>
      </trkpt>
      <trkpt lat="53.836371973156929" lon="12.789443973451853">
        <ele>19.84</ele>
        <time>2024-09-14T11:29:52Z</time>
      </trkpt>
      <trkpt lat="53.837793041020632" lon="12.788644004613161">
        <ele>21.289999999999999</ele>
        <time>2024-09-14T11:29:59Z</time>
      </trkpt>
      <trkpt lat="53.839151998981833" lon="12.788022989407182">
        <ele>24.170000000000002</ele>
        <time>2024-09-14T11:30:05Z</time>
      </trkpt>
      <trkpt lat="53.841189974918962" lon="12.787111038342118">
        <ele>30.420000000000002</ele>
        <time>2024-09-14T11:30:14Z</time>
      </trkpt>
      <trkpt lat="53.842739034444094" lon="12.786206966266036">
        <ele>33.299999999999997</ele>
        <time>2024-09-14T11:30:21Z</time>
      </trkpt>
      <trkpt lat="53.844829984009266" lon="12.78464499861002">
        <ele>37.149999999999999</ele>
        <time>2024-09-14T11:30:32Z</time>
      </trkpt>
      <trkpt lat="53.846245016902685" lon="12.783188978210092">
        <ele>38.109999999999999</ele>
        <time>2024-09-14T11:30:41Z</time>
      </trkpt>
      <trkpt lat="53.848352981731296" lon="12.780715981498361">
        <ele>35.710000000000001</ele>
        <time>2024-09-14T11:30:54Z</time>
      </trkpt>
      <trkpt lat="53.850194988772273" lon="12.778527969494462">
        <ele>34.259999999999998</ele>
        <time>2024-09-14T11:31:05Z</time>
      </trkpt>
      <trkpt lat="53.851624019443989" lon="12.777285017073154">
        <ele>34.259999999999998</ele>
        <time>2024-09-14T11:31:13Z</time>
      </trkpt>
      <trkpt lat="53.853084985166788" lon="12.776076011359692">
        <ele>34.740000000000002</ele>
        <time>2024-09-14T11:31:22Z</time>
      </trkpt>
      <trkpt lat="53.853739025071263" lon="12.775521967560053">
        <ele>35.229999999999997</ele>
        <time>2024-09-14T11:31:28Z</time>
      </trkpt>
      <trkpt lat="53.853842038661242" lon="12.77545097284019">
        <ele>35.229999999999997</ele>
        <time>2024-09-14T11:31:35Z</time>
      </trkpt>
      <trkpt lat="53.853844972327352" lon="12.775449967011809">
        <ele>35.229999999999997</ele>
        <time>2024-09-14T11:32:04Z</time>
      </trkpt>
      <trkpt lat="53.853810019791126" lon="12.775596985593438">
        <ele>34.740000000000002</ele>
        <time>2024-09-14T11:32:05Z</time>
      </trkpt>
      <trkpt lat="53.853813959285617" lon="12.775652976706624">
        <ele>34.740000000000002</ele>
        <time>2024-09-14T11:32:06Z</time>
      </trkpt>
      <trkpt lat="53.853822005912662" lon="12.775764036923647">
        <ele>34.740000000000002</ele>
        <time>2024-09-14T11:32:07Z</time>
      </trkpt>
      <trkpt lat="53.853831980377436" lon="12.775912983343005">
        <ele>34.740000000000002</ele>
        <time>2024-09-14T11:32:08Z</time>
      </trkpt>
      <trkpt lat="53.853928036987782" lon="12.777291974052787">
        <ele>35.229999999999997</ele>
        <time>2024-09-14T11:32:14Z</time>
      </trkpt>
      <trkpt lat="53.853965001180768" lon="12.777868984267116">
        <ele>35.229999999999997</ele>
        <time>2024-09-14T11:32:16Z</time>
      </trkpt>
      <trkpt lat="53.853984028100967" lon="12.778161009773612">
        <ele>35.229999999999997</ele>
        <time>2024-09-14T11:32:17Z</time>
      </trkpt>
      <trkpt lat="53.854190977290273" lon="12.780540967360139">
        <ele>36.189999999999998</ele>
        <time>2024-09-14T11:32:25Z</time>
      </trkpt>
      <trkpt lat="53.854340007528663" lon="12.781182015314698">
        <ele>36.189999999999998</ele>
        <time>2024-09-14T11:32:27Z</time>
      </trkpt>
      <trkpt lat="53.854447966441512" lon="12.781491978093982">
        <ele>36.189999999999998</ele>
        <time>2024-09-14T11:32:28Z</time>
      </trkpt>
      <trkpt lat="53.855560999363661" lon="12.784471996128559">
        <ele>31.379999999999999</ele>
        <time>2024-09-14T11:32:37Z</time>
      </trkpt>
      <trkpt lat="53.857265040278435" lon="12.788999984040856">
        <ele>28.5</ele>
        <time>2024-09-14T11:32:50Z</time>
      </trkpt>
      <trkpt lat="53.858306994661689" lon="12.791062016040087">
        <ele>31.859999999999999</ele>
        <time>2024-09-14T11:32:57Z</time>
      </trkpt>
      <trkpt lat="53.8607809972018" lon="12.794704958796501">
        <ele>35.710000000000001</ele>
        <time>2024-09-14T11:33:11Z</time>
      </trkpt>
      <trkpt lat="53.862806987017393" lon="12.797679025679827">
        <ele>28.5</ele>
        <time>2024-09-14T11:33:22Z</time>
      </trkpt>
      <trkpt lat="53.863665964454412" lon="12.798932958394289">
        <ele>26.09</ele>
        <time>2024-09-14T11:33:28Z</time>
      </trkpt>
      <trkpt lat="53.863839972764254" lon="12.799185002222657">
        <ele>26.09</ele>
        <time>2024-09-14T11:33:30Z</time>
      </trkpt>
      <trkpt lat="53.863903004676104" lon="12.799280975013971">
        <ele>26.09</ele>
        <time>2024-09-14T11:33:31Z</time>
      </trkpt>
      <trkpt lat="53.863922031596303" lon="12.799438973888755">
        <ele>26.57</ele>
        <time>2024-09-14T11:33:32Z</time>
      </trkpt>
      <trkpt lat="53.863890012726188" lon="12.799537964165211">
        <ele>26.57</ele>
        <time>2024-09-14T11:33:33Z</time>
      </trkpt>
      <trkpt lat="53.863848019391298" lon="12.799668973311782">
        <ele>26.57</ele>
        <time>2024-09-14T11:33:34Z</time>
      </trkpt>
      <trkpt lat="53.863800996914506" lon="12.799816997721791">
        <ele>26.57</ele>
        <time>2024-09-14T11:33:35Z</time>
      </trkpt>
      <trkpt lat="53.863756991922855" lon="12.799952030181885">
        <ele>26.57</ele>
        <time>2024-09-14T11:33:36Z</time>
      </trkpt>
      <trkpt lat="53.863722961395979" lon="12.800149004906416">
        <ele>26.57</ele>
        <time>2024-09-14T11:33:37Z</time>
      </trkpt>
      <trkpt lat="53.863690020516515" lon="12.800339022651315">
        <ele>26.09</ele>
        <time>2024-09-14T11:33:38Z</time>
      </trkpt>
      <trkpt lat="53.863670993596315" lon="12.800558963790536">
        <ele>26.09</ele>
        <time>2024-09-14T11:33:39Z</time>
      </trkpt>
      <trkpt lat="53.863670993596315" lon="12.801513997837901">
        <ele>25.609999999999999</ele>
        <time>2024-09-14T11:33:43Z</time>
      </trkpt>
      <trkpt lat="53.863706029951572" lon="12.801732011139393">
        <ele>25.129999999999999</ele>
        <time>2024-09-14T11:33:44Z</time>
      </trkpt>
      <trkpt lat="53.863755986094475" lon="12.801948012784123">
        <ele>25.129999999999999</ele>
        <time>2024-09-14T11:33:45Z</time>
      </trkpt>
      <trkpt lat="53.863820023834705" lon="12.802176000550389">
        <ele>24.649999999999999</ele>
        <time>2024-09-14T11:33:46Z</time>
      </trkpt>
      <trkpt lat="53.863929994404316" lon="12.802378004416823">
        <ele>24.649999999999999</ele>
        <time>2024-09-14T11:33:47Z</time>
      </trkpt>
      <trkpt lat="53.864047005772591" lon="12.802590988576412">
        <ele>24.170000000000002</ele>
        <time>2024-09-14T11:33:48Z</time>
      </trkpt>
      <trkpt lat="53.864999022334814" lon="12.804247001186013">
        <ele>23.210000000000001</ele>
        <time>2024-09-14T11:33:56Z</time>
      </trkpt>
      <trkpt lat="53.865140005946159" lon="12.804397959262133">
        <ele>23.690000000000001</ele>
        <time>2024-09-14T11:33:57Z</time>
      </trkpt>
      <trkpt lat="53.866352029144764" lon="12.805696986615658">
        <ele>26.09</ele>
        <time>2024-09-14T11:34:04Z</time>
      </trkpt>
      <trkpt lat="53.867596993222833" lon="12.807202963158488">
        <ele>26.57</ele>
        <time>2024-09-14T11:34:11Z</time>
      </trkpt>
      <trkpt lat="53.867734959349036" lon="12.807478979229927">
        <ele>26.09</ele>
        <time>2024-09-14T11:34:12Z</time>
      </trkpt>
      <trkpt lat="53.867849037051201" lon="12.807783996686339">
        <ele>25.129999999999999</ele>
        <time>2024-09-14T11:34:13Z</time>
      </trkpt>
      <trkpt lat="53.867946015670896" lon="12.808110974729061">
        <ele>24.649999999999999</ele>
        <time>2024-09-14T11:34:14Z</time>
      </trkpt>
      <trkpt lat="53.868033019825816" lon="12.80845102854073">
        <ele>24.170000000000002</ele>
        <time>2024-09-14T11:34:15Z</time>
      </trkpt>
      <trkpt lat="53.868068978190422" lon="12.808825029060245">
        <ele>23.690000000000001</ele>
        <time>2024-09-14T11:34:16Z</time>
      </trkpt>
      <trkpt lat="53.86810502037406" lon="12.809207998216152">
        <ele>23.210000000000001</ele>
        <time>2024-09-14T11:34:17Z</time>
      </trkpt>
      <trkpt lat="53.868139972910285" lon="12.80959096737206">
        <ele>22.73</ele>
        <time>2024-09-14T11:34:18Z</time>
      </trkpt>
      <trkpt lat="53.868356980383396" lon="12.812745999544859">
        <ele>20.809999999999999</ele>
        <time>2024-09-14T11:34:27Z</time>
      </trkpt>
      <trkpt lat="53.86838598176837" lon="12.814843989908695">
        <ele>18.399999999999999</ele>
        <time>2024-09-14T11:34:36Z</time>
      </trkpt>
      <trkpt lat="53.868370978161693" lon="12.817377001047134">
        <ele>17.920000000000002</ele>
        <time>2024-09-14T11:34:49Z</time>
      </trkpt>
      <trkpt lat="53.868396962061524" lon="12.818928994238377">
        <ele>19.359999999999999</ele>
        <time>2024-09-14T11:34:57Z</time>
      </trkpt>
      <trkpt lat="53.86842898093164" lon="12.819098979234695">
        <ele>19.359999999999999</ele>
        <time>2024-09-14T11:34:58Z</time>
      </trkpt>
      <trkpt lat="53.868526965379715" lon="12.819611029699445">
        <ele>19.359999999999999</ele>
        <time>2024-09-14T11:35:02Z</time>
      </trkpt>
      <trkpt lat="53.868484972044826" lon="12.819769028574228">
        <ele>19.359999999999999</ele>
        <time>2024-09-14T11:35:03Z</time>
      </trkpt>
      <trkpt lat="53.868426969274879" lon="12.819845974445343">
        <ele>19.359999999999999</ele>
        <time>2024-09-14T11:35:04Z</time>
      </trkpt>
      <trkpt lat="53.868272993713617" lon="12.820047978311777">
        <ele>19.84</ele>
        <time>2024-09-14T11:35:06Z</time>
      </trkpt>
      <trkpt lat="53.868183977901936" lon="12.820164989680052">
        <ele>20.32</ele>
        <time>2024-09-14T11:35:07Z</time>
      </trkpt>
      <trkpt lat="53.868069984018803" lon="12.820316031575203">
        <ele>20.32</ele>
        <time>2024-09-14T11:35:08Z</time>
      </trkpt>
      <trkpt lat="53.868012987077236" lon="12.820430025458336">
        <ele>20.809999999999999</ele>
        <time>2024-09-14T11:35:09Z</time>
      </trkpt>
      <trkpt lat="53.867942998185754" lon="12.820610990747809">
        <ele>20.809999999999999</ele>
        <time>2024-09-14T11:35:10Z</time>
      </trkpt>
      <trkpt lat="53.867877032607794" lon="12.820808971300721">
        <ele>20.809999999999999</ele>
        <time>2024-09-14T11:35:11Z</time>
      </trkpt>
      <trkpt lat="53.867197008803487" lon="12.822641003876925">
        <ele>21.289999999999999</ele>
        <time>2024-09-14T11:35:22Z</time>
      </trkpt>
      <trkpt lat="53.866456970572472" lon="12.824685014784336">
        <ele>19.84</ele>
        <time>2024-09-14T11:35:32Z</time>
      </trkpt>
      <trkpt lat="53.8656369689852" lon="12.827138984575868">
        <ele>19.84</ele>
        <time>2024-09-14T11:35:40Z</time>
      </trkpt>
      <trkpt lat="53.865135982632637" lon="12.829104037955403">
        <ele>21.77</ele>
        <time>2024-09-14T11:35:47Z</time>
      </trkpt>
      <trkpt lat="53.865005979314446" lon="12.82961499877274">
        <ele>23.210000000000001</ele>
        <time>2024-09-14T11:35:51Z</time>
      </trkpt>
      <trkpt lat="53.864979995414615" lon="12.829713989049196">
        <ele>23.210000000000001</ele>
        <time>2024-09-14T11:35:53Z</time>
      </trkpt>
      <trkpt lat="53.864971026778221" lon="12.829752964898944">
        <ele>23.210000000000001</ele>
        <time>2024-09-14T11:35:54Z</time>
      </trkpt>
      <trkpt lat="53.865020982921124" lon="12.829758999869227">
        <ele>23.210000000000001</ele>
        <time>2024-09-14T11:35:55Z</time>
      </trkpt>
      <trkpt lat="53.865076974034309" lon="12.829820020124316">
        <ele>23.210000000000001</ele>
        <time>2024-09-14T11:35:56Z</time>
      </trkpt>
      <trkpt lat="53.865150986239314" lon="12.829900989308953">
        <ele>23.210000000000001</ele>
        <time>2024-09-14T11:35:57Z</time>
      </trkpt>
      <trkpt lat="53.86580603197217" lon="12.830620994791389">
        <ele>23.690000000000001</ele>
        <time>2024-09-14T11:36:03Z</time>
      </trkpt>
      <trkpt lat="53.867338998243213" lon="12.832298967987299">
        <ele>22.73</ele>
        <time>2024-09-14T11:36:13Z</time>
      </trkpt>
      <trkpt lat="53.868737015873194" lon="12.833801005035639">
        <ele>23.690000000000001</ele>
        <time>2024-09-14T11:36:21Z</time>
      </trkpt>
      <trkpt lat="53.870134027674794" lon="12.83530798740685">
        <ele>25.129999999999999</ele>
        <time>2024-09-14T11:36:28Z</time>
      </trkpt>
      <trkpt lat="53.871650984510779" lon="12.836956959217787">
        <ele>24.649999999999999</ele>
        <time>2024-09-14T11:36:35Z</time>
      </trkpt>
      <trkpt lat="53.873410010710359" lon="12.838881025090814">
        <ele>25.129999999999999</ele>
        <time>2024-09-14T11:36:43Z</time>
      </trkpt>
      <trkpt lat="53.87508999556303" lon="12.840719008818269">
        <ele>23.210000000000001</ele>
        <time>2024-09-14T11:36:51Z</time>
      </trkpt>
      <trkpt lat="53.877595011144876" lon="12.843423010781407">
        <ele>19.84</ele>
        <time>2024-09-14T11:37:04Z</time>
      </trkpt>
      <trkpt lat="53.880088962614536" lon="12.846115026623011">
        <ele>21.77</ele>
        <time>2024-09-14T11:37:17Z</time>
      </trkpt>
      <trkpt lat="53.881827034056187" lon="12.848036997020245">
        <ele>21.289999999999999</ele>
        <time>2024-09-14T11:37:26Z</time>
      </trkpt>
      <trkpt lat="53.883148021996021" lon="12.849468039348722">
        <ele>21.289999999999999</ele>
        <time>2024-09-14T11:37:34Z</time>
      </trkpt>
      <trkpt lat="53.884460963308811" lon="12.850879970937967">
        <ele>21.289999999999999</ele>
        <time>2024-09-14T11:37:42Z</time>
      </trkpt>
      <trkpt lat="53.886878974735737" lon="12.853497974574566">
        <ele>20.32</ele>
        <time>2024-09-14T11:37:57Z</time>
      </trkpt>
      <trkpt lat="53.888232987374067" lon="12.854963969439268">
        <ele>16.960000000000001</ele>
        <time>2024-09-14T11:38:06Z</time>
      </trkpt>
      <trkpt lat="53.889327999204397" lon="12.856156965717673">
        <ele>14.08</ele>
        <time>2024-09-14T11:38:14Z</time>
      </trkpt>
      <trkpt lat="53.889438975602388" lon="12.856281017884612">
        <ele>14.08</ele>
        <time>2024-09-14T11:38:15Z</time>
      </trkpt>
      <trkpt lat="53.890514960512519" lon="12.857400001958013">
        <ele>12.630000000000001</ele>
        <time>2024-09-14T11:38:26Z</time>
      </trkpt>
      <trkpt lat="53.890620991587639" lon="12.857431014999747">
        <ele>12.15</ele>
        <time>2024-09-14T11:38:27Z</time>
      </trkpt>
      <trkpt lat="53.890733979642391" lon="12.857463033869863">
        <ele>12.15</ele>
        <time>2024-09-14T11:38:28Z</time>
      </trkpt>
      <trkpt lat="53.890850991010666" lon="12.857495974749327">
        <ele>12.15</ele>
        <time>2024-09-14T11:38:29Z</time>
      </trkpt>
      <trkpt lat="53.89096699655056" lon="12.857528999447823">
        <ele>12.15</ele>
        <time>2024-09-14T11:38:30Z</time>
      </trkpt>
      <trkpt lat="53.892125962302089" lon="12.857606029137969">
        <ele>10.710000000000001</ele>
        <time>2024-09-14T11:38:40Z</time>
      </trkpt>
      <trkpt lat="53.893036991357803" lon="12.857389021664858">
        <ele>9.27</ele>
        <time>2024-09-14T11:38:48Z</time>
      </trkpt>
      <trkpt lat="53.894179025664926" lon="12.857424980029464">
        <ele>6.87</ele>
        <time>2024-09-14T11:38:58Z</time>
      </trkpt>
      <trkpt lat="53.894680012017488" lon="12.857341999188066">
        <ele>6.87</ele>
        <time>2024-09-14T11:39:03Z</time>
      </trkpt>
      <trkpt lat="53.894773973152041" lon="12.857300005853176">
        <ele>6.87</ele>
        <time>2024-09-14T11:39:04Z</time>
      </trkpt>
      <trkpt lat="53.894866006448865" lon="12.857216019183397">
        <ele>6.87</ele>
        <time>2024-09-14T11:39:05Z</time>
      </trkpt>
      <trkpt lat="53.895227015018463" lon="12.856909995898604">
        <ele>6.39</ele>
        <time>2024-09-14T11:39:09Z</time>
      </trkpt>
      <trkpt lat="53.895303960889578" lon="12.856883006170392">
        <ele>6.39</ele>
        <time>2024-09-14T11:39:10Z</time>
      </trkpt>
      <trkpt lat="53.89537001028657" lon="12.856859033927321">
        <ele>6.39</ele>
        <time>2024-09-14T11:39:11Z</time>
      </trkpt>
      <trkpt lat="53.895437987521291" lon="12.856834977865219">
        <ele>6.39</ele>
        <time>2024-09-14T11:39:12Z</time>
      </trkpt>
      <trkpt lat="53.895509988069534" lon="12.856753002852201">
        <ele>6.39</ele>
        <time>2024-09-14T11:39:13Z</time>
      </trkpt>
      <trkpt lat="53.895544018596411" lon="12.856630040332675">
        <ele>6.39</ele>
        <time>2024-09-14T11:39:14Z</time>
      </trkpt>
      <trkpt lat="53.895603027194738" lon="12.856503976508975">
        <ele>6.39</ele>
        <time>2024-09-14T11:39:15Z</time>
      </trkpt>
      <trkpt lat="53.895668992772698" lon="12.856394005939364">
        <ele>6.39</ele>
        <time>2024-09-14T11:39:16Z</time>
      </trkpt>
      <trkpt lat="53.896522019058466" lon="12.855385998263955">
        <ele>5.91</ele>
        <time>2024-09-14T11:39:26Z</time>
      </trkpt>
      <trkpt lat="53.896887972950935" lon="12.854927005246282">
        <ele>5.42</ele>
        <time>2024-09-14T11:39:30Z</time>
      </trkpt>
      <trkpt lat="53.897866979241371" lon="12.853524964302778">
        <ele>4.94</ele>
        <time>2024-09-14T11:39:41Z</time>
      </trkpt>
      <trkpt lat="53.89880902133882" lon="12.851285990327597">
        <ele>6.39</ele>
        <time>2024-09-14T11:39:55Z</time>
      </trkpt>
      <trkpt lat="53.898943969979882" lon="12.850962029770017">
        <ele>7.35</ele>
        <time>2024-09-14T11:39:57Z</time>
      </trkpt>
      <trkpt lat="53.899628017097712" lon="12.849353961646557">
        <ele>8.310000000000001</ele>
        <time>2024-09-14T11:40:07Z</time>
      </trkpt>
      <trkpt lat="53.89977402985096" lon="12.849048022180796">
        <ele>8.789999999999999</ele>
        <time>2024-09-14T11:40:09Z</time>
      </trkpt>
      <trkpt lat="53.899848964065313" lon="12.848896980285645">
        <ele>8.789999999999999</ele>
        <time>2024-09-14T11:40:10Z</time>
      </trkpt>
      <trkpt lat="53.900327989831567" lon="12.847997015342116">
        <ele>9.75</ele>
        <time>2024-09-14T11:40:18Z</time>
      </trkpt>
      <trkpt lat="53.900394039228559" lon="12.847875980660319">
        <ele>9.75</ele>
        <time>2024-09-14T11:40:19Z</time>
      </trkpt>
      <trkpt lat="53.901100968942046" lon="12.846572007983923">
        <ele>9.27</ele>
        <time>2024-09-14T11:40:29Z</time>
      </trkpt>
      <trkpt lat="53.901719972491264" lon="12.845472972840071">
        <ele>9.27</ele>
        <time>2024-09-14T11:40:37Z</time>
      </trkpt>
      <trkpt lat="53.901806976646185" lon="12.845346992835402">
        <ele>9.27</ele>
        <time>2024-09-14T11:40:38Z</time>
      </trkpt>
      <trkpt lat="53.90190496109426" lon="12.845239033922553">
        <ele>9.27</ele>
        <time>2024-09-14T11:40:39Z</time>
      </trkpt>
      <trkpt lat="53.902863012626767" lon="12.844207976013422">
        <ele>7.35</ele>
        <time>2024-09-14T11:40:49Z</time>
      </trkpt>
      <trkpt lat="53.903812011703849" lon="12.842823034152389">
        <ele>6.39</ele>
        <time>2024-09-14T11:41:00Z</time>
      </trkpt>
      <trkpt lat="53.903975961729884" lon="12.842638967558742">
        <ele>6.39</ele>
        <time>2024-09-14T11:41:02Z</time>
      </trkpt>
      <trkpt lat="53.904316015541553" lon="12.842236971482635">
        <ele>6.39</ele>
        <time>2024-09-14T11:41:09Z</time>
      </trkpt>
      <trkpt lat="53.904341999441385" lon="12.842185003682971">
        <ele>6.39</ele>
        <time>2024-09-14T11:41:10Z</time>
      </trkpt>
      <trkpt lat="53.904411988332868" lon="12.842002026736736">
        <ele>6.87</ele>
        <time>2024-09-14T11:41:12Z</time>
      </trkpt>
      <trkpt lat="53.904435038566589" lon="12.8418830037117">
        <ele>7.35</ele>
        <time>2024-09-14T11:41:13Z</time>
      </trkpt>
      <trkpt lat="53.904489018023014" lon="12.841602964326739">
        <ele>7.83</ele>
        <time>2024-09-14T11:41:15Z</time>
      </trkpt>
      <trkpt lat="53.904519025236368" lon="12.841445971280336">
        <ele>7.83</ele>
        <time>2024-09-14T11:41:16Z</time>
      </trkpt>
      <trkpt lat="53.904550960287452" lon="12.841275986284018">
        <ele>7.83</ele>
        <time>2024-09-14T11:41:17Z</time>
      </trkpt>
      <trkpt lat="53.904587002471089" lon="12.841094015166163">
        <ele>7.35</ele>
        <time>2024-09-14T11:41:18Z</time>
      </trkpt>
      <trkpt lat="53.904635030776262" lon="12.840908020734787">
        <ele>7.35</ele>
        <time>2024-09-14T11:41:19Z</time>
      </trkpt>
      <trkpt lat="53.904706025496125" lon="12.840753961354494">
        <ele>7.35</ele>
        <time>2024-09-14T11:41:20Z</time>
      </trkpt>
      <trkpt lat="53.90478003770113" lon="12.84059202298522">
        <ele>6.87</ele>
        <time>2024-09-14T11:41:21Z</time>
      </trkpt>
      <trkpt lat="53.905144985765219" lon="12.839833963662386">
        <ele>5.91</ele>
        <time>2024-09-14T11:41:26Z</time>
      </trkpt>
      <trkpt lat="53.905237019062042" lon="12.839707983657718">
        <ele>5.91</ele>
        <time>2024-09-14T11:41:27Z</time>
      </trkpt>
      <trkpt lat="53.905337015166879" lon="12.839600024744868">
        <ele>5.91</ele>
        <time>2024-09-14T11:41:28Z</time>
      </trkpt>
      <trkpt lat="53.906250977888703" lon="12.838621018454432">
        <ele>6.39</ele>
        <time>2024-09-14T11:41:38Z</time>
      </trkpt>
      <trkpt lat="53.907361999154091" lon="12.837527012452483">
        <ele>11.19</ele>
        <time>2024-09-14T11:41:49Z</time>
      </trkpt>
      <trkpt lat="53.90867100097239" lon="12.836308032274246">
        <ele>15.039999999999999</ele>
        <time>2024-09-14T11:42:02Z</time>
      </trkpt>
      <trkpt lat="53.90884199179709" lon="12.836051965132356">
        <ele>15.039999999999999</ele>
        <time>2024-09-14T11:42:04Z</time>
      </trkpt>
      <trkpt lat="53.909554034471512" lon="12.834601979702711">
        <ele>17.920000000000002</ele>
        <time>2024-09-14T11:42:13Z</time>
      </trkpt>
      <trkpt lat="53.910268004983664" lon="12.833058033138514">
        <ele>18.399999999999999</ele>
        <time>2024-09-14T11:42:20Z</time>
      </trkpt>
      <trkpt lat="53.911303002387285" lon="12.830813024193048">
        <ele>16.48</ele>
        <time>2024-09-14T11:42:30Z</time>
      </trkpt>
      <trkpt lat="53.911672979593277" lon="12.829954968765378">
        <ele>14.08</ele>
        <time>2024-09-14T11:42:34Z</time>
      </trkpt>
      <trkpt lat="53.911799965426326" lon="12.829517014324665">
        <ele>13.119999999999999</ele>
        <time>2024-09-14T11:42:36Z</time>
      </trkpt>
      <trkpt lat="53.911858974024653" lon="12.829300006851554">
        <ele>12.630000000000001</ele>
        <time>2024-09-14T11:42:37Z</time>
      </trkpt>
      <trkpt lat="53.911918988451362" lon="12.829080987721682">
        <ele>12.15</ele>
        <time>2024-09-14T11:42:38Z</time>
      </trkpt>
      <trkpt lat="53.91200297512114" lon="12.828388977795839">
        <ele>11.19</ele>
        <time>2024-09-14T11:42:41Z</time>
      </trkpt>
      <trkpt lat="53.912053015083075" lon="12.826328035444021">
        <ele>8.310000000000001</ele>
        <time>2024-09-14T11:42:49Z</time>
      </trkpt>
      <trkpt lat="53.9120879676193" lon="12.826045984402299">
        <ele>8.310000000000001</ele>
        <time>2024-09-14T11:42:50Z</time>
      </trkpt>
      <trkpt lat="53.912156028673053" lon="12.825759993866086">
        <ele>8.310000000000001</ele>
        <time>2024-09-14T11:42:51Z</time>
      </trkpt>
      <trkpt lat="53.91223800368607" lon="12.825492024421692">
        <ele>8.310000000000001</ele>
        <time>2024-09-14T11:42:52Z</time>
      </trkpt>
      <trkpt lat="53.9123469684273" lon="12.825244003906846">
        <ele>8.310000000000001</ele>
        <time>2024-09-14T11:42:53Z</time>
      </trkpt>
      <trkpt lat="53.91247596591711" lon="12.825035965070128">
        <ele>8.310000000000001</ele>
        <time>2024-09-14T11:42:54Z</time>
      </trkpt>
      <trkpt lat="53.912608986720443" lon="12.824842007830739">
        <ele>8.310000000000001</ele>
        <time>2024-09-14T11:42:55Z</time>
      </trkpt>
      <trkpt lat="53.912745025008917" lon="12.82467101700604">
        <ele>8.310000000000001</ele>
        <time>2024-09-14T11:42:56Z</time>
      </trkpt>
      <trkpt lat="53.914566999301314" lon="12.822585012763739">
        <ele>8.789999999999999</ele>
        <time>2024-09-14T11:43:08Z</time>
      </trkpt>
      <trkpt lat="53.916036011651158" lon="12.820895975455642">
        <ele>9.27</ele>
        <time>2024-09-14T11:43:16Z</time>
      </trkpt>
      <trkpt lat="53.917828984558582" lon="12.818860011175275">
        <ele>8.789999999999999</ele>
        <time>2024-09-14T11:43:25Z</time>
      </trkpt>
      <trkpt lat="53.920061001554132" lon="12.816287018358707">
        <ele>4.94</ele>
        <time>2024-09-14T11:43:36Z</time>
      </trkpt>
      <trkpt lat="53.922155974432826" lon="12.813866995275021">
        <ele>5.42</ele>
        <time>2024-09-14T11:43:46Z</time>
      </trkpt>
      <trkpt lat="53.923837970942259" lon="12.81156700104475">
        <ele>8.310000000000001</ele>
        <time>2024-09-14T11:43:55Z</time>
      </trkpt>
      <trkpt lat="53.9251499902457" lon="12.808540966361761">
        <ele>13.119999999999999</ele>
        <time>2024-09-14T11:44:05Z</time>
      </trkpt>
      <trkpt lat="53.926156992092729" lon="12.806138964369893">
        <ele>16.960000000000001</ele>
        <time>2024-09-14T11:44:13Z</time>
      </trkpt>
      <trkpt lat="53.927561966702342" lon="12.802680004388094">
        <ele>23.690000000000001</ele>
        <time>2024-09-14T11:44:24Z</time>
      </trkpt>
      <trkpt lat="53.929255027323961" lon="12.798485029488802">
        <ele>28.02</ele>
        <time>2024-09-14T11:44:37Z</time>
      </trkpt>
      <trkpt lat="53.930486999452114" lon="12.79549696482718">
        <ele>31.859999999999999</ele>
        <time>2024-09-14T11:44:46Z</time>
      </trkpt>
      <trkpt lat="53.931693993508816" lon="12.792600011453032">
        <ele>37.630000000000003</ele>
        <time>2024-09-14T11:44:55Z</time>
      </trkpt>
      <trkpt lat="53.933289991691709" lon="12.788750035688281">
        <ele>39.07</ele>
        <time>2024-09-14T11:45:07Z</time>
      </trkpt>
      <trkpt lat="53.934746012091637" lon="12.785238018259406">
        <ele>38.590000000000003</ele>
        <time>2024-09-14T11:45:18Z</time>
      </trkpt>
      <trkpt lat="53.93627998419106" lon="12.781518967822194">
        <ele>38.590000000000003</ele>
        <time>2024-09-14T11:45:30Z</time>
      </trkpt>
      <trkpt lat="53.937554033473134" lon="12.778466027230024">
        <ele>41.469999999999999</ele>
        <time>2024-09-14T11:45:41Z</time>
      </trkpt>
      <trkpt lat="53.9383639767766" lon="12.776485970243812">
        <ele>40.990000000000002</ele>
        <time>2024-09-14T11:45:50Z</time>
      </trkpt>
      <trkpt lat="53.939242986962199" lon="12.774342969059944">
        <ele>39.549999999999997</ele>
        <time>2024-09-14T11:46:01Z</time>
      </trkpt>
      <trkpt lat="53.939356980845332" lon="12.774090003222227">
        <ele>39.549999999999997</ele>
        <time>2024-09-14T11:46:03Z</time>
      </trkpt>
      <trkpt lat="53.939391011372209" lon="12.773995036259294">
        <ele>40.030000000000001</ele>
        <time>2024-09-14T11:46:04Z</time>
      </trkpt>
      <trkpt lat="53.939375001937151" lon="12.773863021284342">
        <ele>40.030000000000001</ele>
        <time>2024-09-14T11:46:05Z</time>
      </trkpt>
      <trkpt lat="53.939316999167204" lon="12.773780040442944">
        <ele>40.030000000000001</ele>
        <time>2024-09-14T11:46:06Z</time>
      </trkpt>
      <trkpt lat="53.939239969477057" lon="12.773668980225921">
        <ele>40.030000000000001</ele>
        <time>2024-09-14T11:46:07Z</time>
      </trkpt>
      <trkpt lat="53.939152965322137" lon="12.773543000221252">
        <ele>40.030000000000001</ele>
        <time>2024-09-14T11:46:08Z</time>
      </trkpt>
      <trkpt lat="53.938215030357242" lon="12.772190999239683">
        <ele>40.990000000000002</ele>
        <time>2024-09-14T11:46:17Z</time>
      </trkpt>
      <trkpt lat="53.938119979575276" lon="12.772054960951209">
        <ele>40.990000000000002</ele>
        <time>2024-09-14T11:46:18Z</time>
      </trkpt>
      <trkpt lat="53.938029035925865" lon="12.77192403562367">
        <ele>41.469999999999999</ele>
        <time>2024-09-14T11:46:19Z</time>
      </trkpt>
      <trkpt lat="53.937941025942564" lon="12.771710967645049">
        <ele>41.469999999999999</ele>
        <time>2024-09-14T11:46:20Z</time>
      </trkpt>
      <trkpt lat="53.937453031539917" lon="12.769730994477868">
        <ele>42.920000000000002</ele>
        <time>2024-09-14T11:46:28Z</time>
      </trkpt>
      <trkpt lat="53.936608973890543" lon="12.766926996409893">
        <ele>45.799999999999997</ele>
        <time>2024-09-14T11:46:39Z</time>
      </trkpt>
      <trkpt lat="53.936324995011091" lon="12.765944972634315">
        <ele>48.200000000000003</ele>
        <time>2024-09-14T11:46:43Z</time>
      </trkpt>
      <trkpt lat="53.936319965869188" lon="12.765649007633328">
        <ele>48.200000000000003</ele>
        <time>2024-09-14T11:46:44Z</time>
      </trkpt>
      <trkpt lat="53.936336981132627" lon="12.765383971855044">
        <ele>48.68</ele>
        <time>2024-09-14T11:46:45Z</time>
      </trkpt>
      <trkpt lat="53.936505038291216" lon="12.762740990146995">
        <ele>50.130000000000003</ele>
        <time>2024-09-14T11:46:55Z</time>
      </trkpt>
      <trkpt lat="53.936624983325601" lon="12.761758966371417">
        <ele>48.200000000000003</ele>
        <time>2024-09-14T11:47:01Z</time>
      </trkpt>
      <trkpt lat="53.937013987451792" lon="12.760188030079007">
        <ele>45.32</ele>
        <time>2024-09-14T11:47:12Z</time>
      </trkpt>
      <trkpt lat="53.937046006321907" lon="12.760050985962152">
        <ele>45.32</ele>
        <time>2024-09-14T11:47:13Z</time>
      </trkpt>
      <trkpt lat="53.937462000176311" lon="12.758466973900795">
        <ele>45.32</ele>
        <time>2024-09-14T11:47:22Z</time>
      </trkpt>
      <trkpt lat="53.93827898427844" lon="12.755746962502599">
        <ele>46.759999999999998</ele>
        <time>2024-09-14T11:47:32Z</time>
      </trkpt>
      <trkpt lat="53.93952202051878" lon="12.751505970954895">
        <ele>47.240000000000002</ele>
        <time>2024-09-14T11:47:47Z</time>
      </trkpt>
      <trkpt lat="53.940116968005896" lon="12.749246964231133">
        <ele>47.240000000000002</ele>
        <time>2024-09-14T11:47:55Z</time>
      </trkpt>
      <trkpt lat="53.940522987395525" lon="12.746622003614902">
        <ele>45.799999999999997</ele>
        <time>2024-09-14T11:48:03Z</time>
      </trkpt>
      <trkpt lat="53.941203011199832" lon="12.741342997178435">
        <ele>43.399999999999999</ele>
        <time>2024-09-14T11:48:19Z</time>
      </trkpt>
      <trkpt lat="53.941467041149735" lon="12.739267973229289">
        <ele>41.950000000000003</ele>
        <time>2024-09-14T11:48:27Z</time>
      </trkpt>
      <trkpt lat="53.941562008112669" lon="12.738471021875739">
        <ele>40.990000000000002</ele>
        <time>2024-09-14T11:48:32Z</time>
      </trkpt>
      <trkpt lat="53.941569970920682" lon="12.738402960821986">
        <ele>40.990000000000002</ele>
        <time>2024-09-14T11:48:33Z</time>
      </trkpt>
      <trkpt lat="53.941712966188788" lon="12.73838996887207">
        <ele>40.509999999999998</ele>
        <time>2024-09-14T11:48:34Z</time>
      </trkpt>
      <trkpt lat="53.941712966188788" lon="12.73838996887207">
        <ele>40.030000000000001</ele>
        <time>2024-09-14T11:48:35Z</time>
      </trkpt>
      <trkpt lat="53.941751020029187" lon="12.738384017720819">
        <ele>39.549999999999997</ele>
        <time>2024-09-14T11:48:36Z</time>
      </trkpt>
      <trkpt lat="53.942494997754693" lon="12.738182013854384">
        <ele>41.469999999999999</ele>
        <time>2024-09-14T11:48:43Z</time>
      </trkpt>
      <trkpt lat="53.943165969103575" lon="12.737940028309822">
        <ele>41.469999999999999</ele>
        <time>2024-09-14T11:48:50Z</time>
      </trkpt>
      <trkpt lat="53.943220032379031" lon="12.737919995561242">
        <ele>41.469999999999999</ele>
        <time>2024-09-14T11:48:51Z</time>
      </trkpt>
      <trkpt lat="53.943325979635119" lon="12.737755961716175">
        <ele>41.469999999999999</ele>
        <time>2024-09-14T11:48:52Z</time>
      </trkpt>
      <trkpt lat="53.943308964371681" lon="12.737642973661423">
        <ele>41.469999999999999</ele>
        <time>2024-09-14T11:48:53Z</time>
      </trkpt>
      <trkpt lat="53.943288009613752" lon="12.737496960908175">
        <ele>41.469999999999999</ele>
        <time>2024-09-14T11:48:54Z</time>
      </trkpt>
      <trkpt lat="53.943263031542301" lon="12.737326975911856">
        <ele>41.469999999999999</ele>
        <time>2024-09-14T11:48:55Z</time>
      </trkpt>
      <trkpt lat="53.943150965496898" lon="12.735037039965391">
        <ele>38.590000000000003</ele>
        <time>2024-09-14T11:49:07Z</time>
      </trkpt>
      <trkpt lat="53.94328398630023" lon="12.732876017689705">
        <ele>36.670000000000002</ele>
        <time>2024-09-14T11:49:19Z</time>
      </trkpt>
      <trkpt lat="53.943348024040461" lon="12.732019973918796">
        <ele>36.670000000000002</ele>
        <time>2024-09-14T11:49:24Z</time>
      </trkpt>
      <trkpt lat="53.943362021818757" lon="12.731838002800941">
        <ele>36.670000000000002</ele>
        <time>2024-09-14T11:49:25Z</time>
      </trkpt>
      <trkpt lat="53.943375013768673" lon="12.731652008369565">
        <ele>36.670000000000002</ele>
        <time>2024-09-14T11:49:26Z</time>
      </trkpt>
      <trkpt lat="53.943381970748305" lon="12.731456039473414">
        <ele>36.189999999999998</ele>
        <time>2024-09-14T11:49:27Z</time>
      </trkpt>
      <trkpt lat="53.943361015990376" lon="12.731258980929852">
        <ele>36.189999999999998</ele>
        <time>2024-09-14T11:49:28Z</time>
      </trkpt>
      <trkpt lat="53.943223971873522" lon="12.730210991576314">
        <ele>35.710000000000001</ele>
        <time>2024-09-14T11:49:33Z</time>
      </trkpt>
      <trkpt lat="53.943136967718601" lon="12.73003295995295">
        <ele>35.710000000000001</ele>
        <time>2024-09-14T11:49:34Z</time>
      </trkpt>
      <trkpt lat="53.943045018240809" lon="12.729846965521574">
        <ele>35.710000000000001</ele>
        <time>2024-09-14T11:49:35Z</time>
      </trkpt>
      <trkpt lat="53.942950973287225" lon="12.729656025767326">
        <ele>35.710000000000001</ele>
        <time>2024-09-14T11:49:36Z</time>
      </trkpt>
      <trkpt lat="53.942859023809433" lon="12.729467013850808">
        <ele>35.710000000000001</ele>
        <time>2024-09-14T11:49:37Z</time>
      </trkpt>
      <trkpt lat="53.9426189661026" lon="12.728981031104922">
        <ele>35.229999999999997</ele>
        <time>2024-09-14T11:49:40Z</time>
      </trkpt>
      <trkpt lat="53.942584013566375" lon="12.728779027238488">
        <ele>35.229999999999997</ele>
        <time>2024-09-14T11:49:41Z</time>
      </trkpt>
      <trkpt lat="53.942549983039498" lon="12.728563025593758">
        <ele>35.229999999999997</ele>
        <time>2024-09-14T11:49:42Z</time>
      </trkpt>
      <trkpt lat="53.942564986646175" lon="12.728297989815474">
        <ele>35.229999999999997</ele>
        <time>2024-09-14T11:49:43Z</time>
      </trkpt>
      <trkpt lat="53.942580996081233" lon="12.728019040077925">
        <ele>35.229999999999997</ele>
        <time>2024-09-14T11:49:44Z</time>
      </trkpt>
      <trkpt lat="53.942738994956017" lon="12.725223004817963">
        <ele>37.149999999999999</ele>
        <time>2024-09-14T11:49:52Z</time>
      </trkpt>
      <trkpt lat="53.942958014085889" lon="12.721390966325998">
        <ele>40.030000000000001</ele>
        <time>2024-09-14T11:50:02Z</time>
      </trkpt>
      <trkpt lat="53.943119030445814" lon="12.719414010643959">
        <ele>42.920000000000002</ele>
        <time>2024-09-14T11:50:08Z</time>
      </trkpt>
      <trkpt lat="53.94369101151824" lon="12.716919975355268">
        <ele>42.439999999999998</ele>
        <time>2024-09-14T11:50:16Z</time>
      </trkpt>
      <trkpt lat="53.943840963765979" lon="12.716468023136258">
        <ele>41.469999999999999</ele>
        <time>2024-09-14T11:50:18Z</time>
      </trkpt>
      <trkpt lat="53.943945989012718" lon="12.71627901121974">
        <ele>40.990000000000002</ele>
        <time>2024-09-14T11:50:19Z</time>
      </trkpt>
      <trkpt lat="53.94470002502203" lon="12.714932961389422">
        <ele>37.149999999999999</ele>
        <time>2024-09-14T11:50:26Z</time>
      </trkpt>
      <trkpt lat="53.944832039996982" lon="12.7146250102669">
        <ele>35.710000000000001</ele>
        <time>2024-09-14T11:50:29Z</time>
      </trkpt>
      <trkpt lat="53.944884007796645" lon="12.714459970593452">
        <ele>34.259999999999998</ele>
        <time>2024-09-14T11:50:35Z</time>
      </trkpt>
      <trkpt lat="53.944966988638043" lon="12.714422000572085">
        <ele>33.780000000000001</ele>
        <time>2024-09-14T11:50:36Z</time>
      </trkpt>
      <trkpt lat="53.945043012499809" lon="12.714401967823505">
        <ele>33.780000000000001</ele>
        <time>2024-09-14T11:50:37Z</time>
      </trkpt>
      <trkpt lat="53.945149965584278" lon="12.714372966438532">
        <ele>33.299999999999997</ele>
        <time>2024-09-14T11:50:38Z</time>
      </trkpt>
      <trkpt lat="53.945278041064739" lon="12.714339019730687">
        <ele>32.82</ele>
        <time>2024-09-14T11:50:39Z</time>
      </trkpt>
      <trkpt lat="53.946382021531463" lon="12.714041965082288">
        <ele>28.98</ele>
        <time>2024-09-14T11:50:46Z</time>
      </trkpt>
      <trkpt lat="53.947075959295034" lon="12.713931994512677">
        <ele>26.57</ele>
        <time>2024-09-14T11:50:51Z</time>
      </trkpt>
      <trkpt lat="53.947209985926747" lon="12.713952027261257">
        <ele>26.09</ele>
        <time>2024-09-14T11:50:52Z</time>
      </trkpt>
      <trkpt lat="53.947336971759796" lon="12.714017992839217">
        <ele>25.609999999999999</ele>
        <time>2024-09-14T11:50:53Z</time>
      </trkpt>
      <trkpt lat="53.948337016627192" lon="12.714650994166732">
        <ele>22.25</ele>
        <time>2024-09-14T11:50:59Z</time>
      </trkpt>
      <trkpt lat="53.949023997411132" lon="12.715067993849516">
        <ele>21.289999999999999</ele>
        <time>2024-09-14T11:51:02Z</time>
      </trkpt>
      <trkpt lat="53.94923496991396" lon="12.715119039639831">
        <ele>20.809999999999999</ele>
        <time>2024-09-14T11:51:03Z</time>
      </trkpt>
      <trkpt lat="53.949429010972381" lon="12.715164972469211">
        <ele>20.809999999999999</ele>
        <time>2024-09-14T11:51:04Z</time>
      </trkpt>
      <trkpt lat="53.951453994959593" lon="12.715463032945991">
        <ele>15.52</ele>
        <time>2024-09-14T11:51:15Z</time>
      </trkpt>
      <trkpt lat="53.953644018620253" lon="12.71578598767519">
        <ele>13.119999999999999</ele>
        <time>2024-09-14T11:51:25Z</time>
      </trkpt>
      <trkpt lat="53.956642979755998" lon="12.716228971257806">
        <ele>10.710000000000001</ele>
        <time>2024-09-14T11:51:38Z</time>
      </trkpt>
      <trkpt lat="53.958921013399959" lon="12.716697016730905">
        <ele>8.310000000000001</ele>
        <time>2024-09-14T11:51:48Z</time>
      </trkpt>
      <trkpt lat="53.961141966283321" lon="12.717670993879437">
        <ele>9.75</ele>
        <time>2024-09-14T11:51:58Z</time>
      </trkpt>
      <trkpt lat="53.962157014757395" lon="12.718184972181916">
        <ele>10.710000000000001</ele>
        <time>2024-09-14T11:52:04Z</time>
      </trkpt>
      <trkpt lat="53.962256005033851" lon="12.718260996043682">
        <ele>10.710000000000001</ele>
        <time>2024-09-14T11:52:05Z</time>
      </trkpt>
      <trkpt lat="53.962332028895617" lon="12.718317992985249">
        <ele>11.19</ele>
        <time>2024-09-14T11:52:06Z</time>
      </trkpt>
      <trkpt lat="53.962483992800117" lon="12.718433998525143">
        <ele>11.67</ele>
        <time>2024-09-14T11:52:11Z</time>
      </trkpt>
      <trkpt lat="53.962526991963387" lon="12.718360992148519">
        <ele>11.67</ele>
        <time>2024-09-14T11:52:12Z</time>
      </trkpt>
      <trkpt lat="53.962594969198108" lon="12.718242974951863">
        <ele>11.67</ele>
        <time>2024-09-14T11:52:13Z</time>
      </trkpt>
      <trkpt lat="53.962678033858538" lon="12.718098973855376">
        <ele>11.67</ele>
        <time>2024-09-14T11:52:14Z</time>
      </trkpt>
      <trkpt lat="53.96277098916471" lon="12.717937035486102">
        <ele>11.67</ele>
        <time>2024-09-14T11:52:15Z</time>
      </trkpt>
      <trkpt lat="53.963787965476513" lon="12.716185972094536">
        <ele>12.630000000000001</ele>
        <time>2024-09-14T11:52:26Z</time>
      </trkpt>
      <trkpt lat="53.964603021740913" lon="12.71507796831429">
        <ele>12.15</ele>
        <time>2024-09-14T11:52:35Z</time>
      </trkpt>
      <trkpt lat="53.965725023299456" lon="12.714077001437545">
        <ele>8.789999999999999</ele>
        <time>2024-09-14T11:52:46Z</time>
      </trkpt>
      <trkpt lat="53.966783992946148" lon="12.712889034301043">
        <ele>8.789999999999999</ele>
        <time>2024-09-14T11:52:57Z</time>
      </trkpt>
      <trkpt lat="53.96775302477181" lon="12.71185303106904">
        <ele>10.710000000000001</ele>
        <time>2024-09-14T11:53:07Z</time>
      </trkpt>
      <trkpt lat="53.968253005295992" lon="12.711355984210968">
        <ele>13.6</ele>
        <time>2024-09-14T11:53:12Z</time>
      </trkpt>
      <trkpt lat="53.968736976385117" lon="12.710816022008657">
        <ele>15.039999999999999</ele>
        <time>2024-09-14T11:53:17Z</time>
      </trkpt>
      <trkpt lat="53.968831021338701" lon="12.710704961791635">
        <ele>14.56</ele>
        <time>2024-09-14T11:53:18Z</time>
      </trkpt>
      <trkpt lat="53.96891500800848" lon="12.710584010928869">
        <ele>14.56</ele>
        <time>2024-09-14T11:53:19Z</time>
      </trkpt>
      <trkpt lat="53.969423035159707" lon="12.709761997684836">
        <ele>14.08</ele>
        <time>2024-09-14T11:53:25Z</time>
      </trkpt>
      <trkpt lat="53.97026801481843" lon="12.70839499309659">
        <ele>16.48</ele>
        <time>2024-09-14T11:53:35Z</time>
      </trkpt>
      <trkpt lat="53.970357030630112" lon="12.708264989778399">
        <ele>16.960000000000001</ele>
        <time>2024-09-14T11:53:36Z</time>
      </trkpt>
      <trkpt lat="53.970451997593045" lon="12.708148984238505">
        <ele>17.920000000000002</ele>
        <time>2024-09-14T11:53:37Z</time>
      </trkpt>
      <trkpt lat="53.970550987869501" lon="12.708049993962049">
        <ele>18.879999999999999</ele>
        <time>2024-09-14T11:53:38Z</time>
      </trkpt>
      <trkpt lat="53.970654001459479" lon="12.707946980372071">
        <ele>18.879999999999999</ele>
        <time>2024-09-14T11:53:39Z</time>
      </trkpt>
      <trkpt lat="53.971753036603332" lon="12.706858003512025">
        <ele>19.359999999999999</ele>
        <time>2024-09-14T11:53:50Z</time>
      </trkpt>
      <trkpt lat="53.971852026879787" lon="12.70676102489233">
        <ele>18.879999999999999</ele>
        <time>2024-09-14T11:53:51Z</time>
      </trkpt>
      <trkpt lat="53.971952022984624" lon="12.706663040444255">
        <ele>18.399999999999999</ele>
        <time>2024-09-14T11:53:52Z</time>
      </trkpt>
      <trkpt lat="53.972150003537536" lon="12.706470005214214">
        <ele>18.399999999999999</ele>
        <time>2024-09-14T11:53:54Z</time>
      </trkpt>
      <trkpt lat="53.972535990178585" lon="12.706057028844953">
        <ele>18.879999999999999</ele>
        <time>2024-09-14T11:53:58Z</time>
      </trkpt>
      <trkpt lat="53.97263003513217" lon="12.705948986113071">
        <ele>18.399999999999999</ele>
        <time>2024-09-14T11:53:59Z</time>
      </trkpt>
      <trkpt lat="53.97377198562026" lon="12.70456999540329">
        <ele>17.920000000000002</ele>
        <time>2024-09-14T11:54:11Z</time>
      </trkpt>
      <trkpt lat="53.974143974483013" lon="12.704088035970926">
        <ele>19.359999999999999</ele>
        <time>2024-09-14T11:54:15Z</time>
      </trkpt>
      <trkpt lat="53.974219998344779" lon="12.70394504070282">
        <ele>19.359999999999999</ele>
        <time>2024-09-14T11:54:16Z</time>
      </trkpt>
      <trkpt lat="53.974270960316062" lon="12.703770026564598">
        <ele>19.84</ele>
        <time>2024-09-14T11:54:17Z</time>
      </trkpt>
      <trkpt lat="53.974322006106377" lon="12.703593000769615">
        <ele>20.32</ele>
        <time>2024-09-14T11:54:18Z</time>
      </trkpt>
      <trkpt lat="53.97437397390604" lon="12.703413963317871">
        <ele>20.32</ele>
        <time>2024-09-14T11:54:19Z</time>
      </trkpt>
      <trkpt lat="53.974411021918058" lon="12.703232998028398">
        <ele>20.809999999999999</ele>
        <time>2024-09-14T11:54:20Z</time>
      </trkpt>
      <trkpt lat="53.974439017474651" lon="12.703042980283499">
        <ele>20.809999999999999</ele>
        <time>2024-09-14T11:54:21Z</time>
      </trkpt>
      <trkpt lat="53.974468018859625" lon="12.702851034700871">
        <ele>21.289999999999999</ele>
        <time>2024-09-14T11:54:22Z</time>
      </trkpt>
      <trkpt lat="53.974496014416218" lon="12.702664034441113">
        <ele>21.289999999999999</ele>
        <time>2024-09-14T11:54:23Z</time>
      </trkpt>
      <trkpt lat="53.97463096305728" lon="12.700549028813839">
        <ele>20.809999999999999</ele>
        <time>2024-09-14T11:54:34Z</time>
      </trkpt>
      <trkpt lat="53.974679997190833" lon="12.699581002816558">
        <ele>19.359999999999999</ele>
        <time>2024-09-14T11:54:39Z</time>
      </trkpt>
      <trkpt lat="53.974805977195501" lon="12.697386033833027">
        <ele>16.48</ele>
        <time>2024-09-14T11:54:50Z</time>
      </trkpt>
      <trkpt lat="53.974940003827214" lon="12.694927034899592">
        <ele>15.039999999999999</ele>
        <time>2024-09-14T11:55:02Z</time>
      </trkpt>
      <trkpt lat="53.975064978003502" lon="12.692781016230583">
        <ele>16.960000000000001</ele>
        <time>2024-09-14T11:55:09Z</time>
      </trkpt>
      <trkpt lat="53.975273016840219" lon="12.688834983855486">
        <ele>19.84</ele>
        <time>2024-09-14T11:55:19Z</time>
      </trkpt>
      <trkpt lat="53.975581973791122" lon="12.683442989364266">
        <ele>20.32</ele>
        <time>2024-09-14T11:55:31Z</time>
      </trkpt>
      <trkpt lat="53.975817002356052" lon="12.679353039711714">
        <ele>23.690000000000001</ele>
        <time>2024-09-14T11:55:40Z</time>
      </trkpt>
      <trkpt lat="53.976068962365389" lon="12.674967963248491">
        <ele>26.57</ele>
        <time>2024-09-14T11:55:51Z</time>
      </trkpt>
      <trkpt lat="53.976266020908952" lon="12.671529036015272">
        <ele>25.129999999999999</ele>
        <time>2024-09-14T11:56:00Z</time>
      </trkpt>
      <trkpt lat="53.976536002010107" lon="12.666784962639213">
        <ele>22.73</ele>
        <time>2024-09-14T11:56:12Z</time>
      </trkpt>
      <trkpt lat="53.976787962019444" lon="12.662284970283508">
        <ele>20.32</ele>
        <time>2024-09-14T11:56:23Z</time>
      </trkpt>
      <trkpt lat="53.977077975869179" lon="12.657132027670741">
        <ele>18.399999999999999</ele>
        <time>2024-09-14T11:56:35Z</time>
      </trkpt>
      <trkpt lat="53.977318033576012" lon="12.65291903167963">
        <ele>15.039999999999999</ele>
        <time>2024-09-14T11:56:45Z</time>
      </trkpt>
      <trkpt lat="53.977439990267158" lon="12.650735964998603">
        <ele>13.6</ele>
        <time>2024-09-14T11:56:52Z</time>
      </trkpt>
      <trkpt lat="53.977733021602035" lon="12.648618025705218">
        <ele>14.08</ele>
        <time>2024-09-14T11:56:59Z</time>
      </trkpt>
      <trkpt lat="53.978643966838717" lon="12.6450149808079">
        <ele>15.52</ele>
        <time>2024-09-14T11:57:10Z</time>
      </trkpt>
      <trkpt lat="53.979822965338826" lon="12.640454974025488">
        <ele>16.48</ele>
        <time>2024-09-14T11:57:21Z</time>
      </trkpt>
      <trkpt lat="53.980489997193217" lon="12.636802978813648">
        <ele>15.52</ele>
        <time>2024-09-14T11:57:30Z</time>
      </trkpt>
      <trkpt lat="53.98114001378417" lon="12.63190995901823">
        <ele>15.039999999999999</ele>
        <time>2024-09-14T11:57:42Z</time>
      </trkpt>
      <trkpt lat="53.981777038425207" lon="12.627010988071561">
        <ele>12.630000000000001</ele>
        <time>2024-09-14T11:57:55Z</time>
      </trkpt>
      <trkpt lat="53.982414985075593" lon="12.622138001024723">
        <ele>13.6</ele>
        <time>2024-09-14T11:58:08Z</time>
      </trkpt>
      <trkpt lat="53.983013033866882" lon="12.617566008120775">
        <ele>15.52</ele>
        <time>2024-09-14T11:58:20Z</time>
      </trkpt>
      <trkpt lat="53.983476972207427" lon="12.614034041762352">
        <ele>15.52</ele>
        <time>2024-09-14T11:58:29Z</time>
      </trkpt>
      <trkpt lat="53.984102010726929" lon="12.609267001971602">
        <ele>16</ele>
        <time>2024-09-14T11:58:41Z</time>
      </trkpt>
      <trkpt lat="53.984507024288177" lon="12.606092020869255">
        <ele>16</ele>
        <time>2024-09-14T11:58:49Z</time>
      </trkpt>
      <trkpt lat="53.984840959310532" lon="12.603607960045338">
        <ele>16</ele>
        <time>2024-09-14T11:58:56Z</time>
      </trkpt>
      <trkpt lat="53.985117981210351" lon="12.602053033187985">
        <ele>16.48</ele>
        <time>2024-09-14T11:59:02Z</time>
      </trkpt>
      <trkpt lat="53.985510002821684" lon="12.600351003929973">
        <ele>16.48</ele>
        <time>2024-09-14T11:59:11Z</time>
      </trkpt>
      <trkpt lat="53.986166976392269" lon="12.597499983385205">
        <ele>20.32</ele>
        <time>2024-09-14T11:59:26Z</time>
      </trkpt>
      <trkpt lat="53.986693024635315" lon="12.59521096944809">
        <ele>26.57</ele>
        <time>2024-09-14T11:59:38Z</time>
      </trkpt>
      <trkpt lat="53.987238015979528" lon="12.59282598271966">
        <ele>31.859999999999999</ele>
        <time>2024-09-14T11:59:50Z</time>
      </trkpt>
      <trkpt lat="53.987755011767149" lon="12.590587008744478">
        <ele>31.859999999999999</ele>
        <time>2024-09-14T11:59:58Z</time>
      </trkpt>
      <trkpt lat="53.988417014479637" lon="12.58775400929153">
        <ele>30.420000000000002</ele>
        <time>2024-09-14T12:00:06Z</time>
      </trkpt>
      <trkpt lat="53.989431979134679" lon="12.583362981677055">
        <ele>28.98</ele>
        <time>2024-09-14T12:00:17Z</time>
      </trkpt>
      <trkpt lat="53.990426994860172" lon="12.579199019819498">
        <ele>25.609999999999999</ele>
        <time>2024-09-14T12:00:28Z</time>
      </trkpt>
      <trkpt lat="53.991273986175656" lon="12.577413003891706">
        <ele>23.690000000000001</ele>
        <time>2024-09-14T12:00:34Z</time>
      </trkpt>
      <trkpt lat="53.992258021607995" lon="12.575607039034367">
        <ele>26.09</ele>
        <time>2024-09-14T12:00:42Z</time>
      </trkpt>
      <trkpt lat="53.992364974692464" lon="12.575245024636388">
        <ele>27.050000000000001</ele>
        <time>2024-09-14T12:00:44Z</time>
      </trkpt>
      <trkpt lat="53.992400011047721" lon="12.575060036033392">
        <ele>27.530000000000001</ele>
        <time>2024-09-14T12:00:45Z</time>
      </trkpt>
      <trkpt lat="53.992434963583946" lon="12.574869012460113">
        <ele>28.02</ele>
        <time>2024-09-14T12:00:46Z</time>
      </trkpt>
      <trkpt lat="53.992693964391947" lon="12.572812009602785">
        <ele>28.02</ele>
        <time>2024-09-14T12:00:56Z</time>
      </trkpt>
      <trkpt lat="53.992746016010642" lon="12.572555020451546">
        <ele>28.02</ele>
        <time>2024-09-14T12:00:57Z</time>
      </trkpt>
      <trkpt lat="53.992801001295447" lon="12.572277998551726">
        <ele>28.02</ele>
        <time>2024-09-14T12:00:58Z</time>
      </trkpt>
      <trkpt lat="53.992873001843691" lon="12.572002988308668">
        <ele>28.02</ele>
        <time>2024-09-14T12:00:59Z</time>
      </trkpt>
      <trkpt lat="53.992974003776908" lon="12.571740970015526">
        <ele>28.02</ele>
        <time>2024-09-14T12:01:00Z</time>
      </trkpt>
      <trkpt lat="53.993095038458705" lon="12.571475012227893">
        <ele>28.02</ele>
        <time>2024-09-14T12:01:01Z</time>
      </trkpt>
      <trkpt lat="53.993223030120134" lon="12.571196984499693">
        <ele>28.02</ele>
        <time>2024-09-14T12:01:02Z</time>
      </trkpt>
      <trkpt lat="53.99336401373148" lon="12.570919962599874">
        <ele>28.02</ele>
        <time>2024-09-14T12:01:03Z</time>
      </trkpt>
      <trkpt lat="53.994962023571134" lon="12.567950002849102">
        <ele>26.57</ele>
        <time>2024-09-14T12:01:13Z</time>
      </trkpt>
      <trkpt lat="53.997308034449816" lon="12.563642961904407">
        <ele>33.299999999999997</ele>
        <time>2024-09-14T12:01:27Z</time>
      </trkpt>
      <trkpt lat="53.99875801987946" lon="12.560954969376326">
        <ele>35.229999999999997</ele>
        <time>2024-09-14T12:01:36Z</time>
      </trkpt>
      <trkpt lat="54.000689964741468" lon="12.557427026331425">
        <ele>36.670000000000002</ele>
        <time>2024-09-14T12:01:48Z</time>
      </trkpt>
      <trkpt lat="54.002988031134009" lon="12.553199026733637">
        <ele>39.07</ele>
        <time>2024-09-14T12:02:01Z</time>
      </trkpt>
      <trkpt lat="54.005084009841084" lon="12.549342010170221">
        <ele>39.549999999999997</ele>
        <time>2024-09-14T12:02:13Z</time>
      </trkpt>
      <trkpt lat="54.006989970803261" lon="12.545538973063231">
        <ele>37.149999999999999</ele>
        <time>2024-09-14T12:02:25Z</time>
      </trkpt>
      <trkpt lat="54.008049024268985" lon="12.543249959126115">
        <ele>38.590000000000003</ele>
        <time>2024-09-14T12:02:33Z</time>
      </trkpt>
      <trkpt lat="54.009122997522354" lon="12.541490010917187">
        <ele>42.920000000000002</ele>
        <time>2024-09-14T12:02:42Z</time>
      </trkpt>
      <trkpt lat="54.010408027097583" lon="12.539093038067222">
        <ele>42.920000000000002</ele>
        <time>2024-09-14T12:02:54Z</time>
      </trkpt>
      <trkpt lat="54.011431960389018" lon="12.53631804138422">
        <ele>41.950000000000003</ele>
        <time>2024-09-14T12:03:05Z</time>
      </trkpt>
      <trkpt lat="54.012232013046741" lon="12.532833013683558">
        <ele>40.509999999999998</ele>
        <time>2024-09-14T12:03:17Z</time>
      </trkpt>
      <trkpt lat="54.012532001361251" lon="12.530084000900388">
        <ele>38.109999999999999</ele>
        <time>2024-09-14T12:03:25Z</time>
      </trkpt>
      <trkpt lat="54.012820003554225" lon="12.52677901647985">
        <ele>36.189999999999998</ele>
        <time>2024-09-14T12:03:33Z</time>
      </trkpt>
      <trkpt lat="54.013088978827" lon="12.52366497181356">
        <ele>33.780000000000001</ele>
        <time>2024-09-14T12:03:40Z</time>
      </trkpt>
      <trkpt lat="54.013412017375231" lon="12.520020017400384">
        <ele>31.379999999999999</ele>
        <time>2024-09-14T12:03:47Z</time>
      </trkpt>
      <trkpt lat="54.013478988781571" lon="12.519191969186068">
        <ele>31.379999999999999</ele>
        <time>2024-09-14T12:03:49Z</time>
      </trkpt>
      <trkpt lat="54.013531040400267" lon="12.51880900003016">
        <ele>31.379999999999999</ele>
        <time>2024-09-14T12:03:50Z</time>
      </trkpt>
      <trkpt lat="54.013590971007943" lon="12.518437011167407">
        <ele>31.379999999999999</ele>
        <time>2024-09-14T12:03:51Z</time>
      </trkpt>
      <trkpt lat="54.013699013739824" lon="12.518105003982782">
        <ele>30.899999999999999</ele>
        <time>2024-09-14T12:03:52Z</time>
      </trkpt>
      <trkpt lat="54.013809990137815" lon="12.51777702011168">
        <ele>30.420000000000002</ele>
        <time>2024-09-14T12:03:53Z</time>
      </trkpt>
      <trkpt lat="54.014466963708401" lon="12.515876004472375">
        <ele>29.460000000000001</ele>
        <time>2024-09-14T12:04:00Z</time>
      </trkpt>
      <trkpt lat="54.015081021934748" lon="12.514155032113194">
        <ele>30.420000000000002</ele>
        <time>2024-09-14T12:04:10Z</time>
      </trkpt>
      <trkpt lat="54.015661971643567" lon="12.512490972876549">
        <ele>28.98</ele>
        <time>2024-09-14T12:04:17Z</time>
      </trkpt>
      <trkpt lat="54.016545005142689" lon="12.509960979223251">
        <ele>26.09</ele>
        <time>2024-09-14T12:04:27Z</time>
      </trkpt>
      <trkpt lat="54.017627025023103" lon="12.506873002275825">
        <ele>24.649999999999999</ele>
        <time>2024-09-14T12:04:39Z</time>
      </trkpt>
      <trkpt lat="54.018522966653109" lon="12.504319958388805">
        <ele>23.210000000000001</ele>
        <time>2024-09-14T12:04:49Z</time>
      </trkpt>
      <trkpt lat="54.019375992938876" lon="12.501889960840344">
        <ele>21.77</ele>
        <time>2024-09-14T12:04:59Z</time>
      </trkpt>
      <trkpt lat="54.020277969539165" lon="12.499320991337299">
        <ele>22.25</ele>
        <time>2024-09-14T12:05:10Z</time>
      </trkpt>
      <trkpt lat="54.021365018561482" lon="12.496231002733111">
        <ele>18.879999999999999</ele>
        <time>2024-09-14T12:05:23Z</time>
      </trkpt>
      <trkpt lat="54.021856030449271" lon="12.493579974398017">
        <ele>17.920000000000002</ele>
        <time>2024-09-14T12:05:33Z</time>
      </trkpt>
      <trkpt lat="54.02245600707829" lon="12.489512991160154">
        <ele>14.56</ele>
        <time>2024-09-14T12:05:48Z</time>
      </trkpt>
      <trkpt lat="54.022893039509654" lon="12.486285958439112">
        <ele>11.67</ele>
        <time>2024-09-14T12:06:00Z</time>
      </trkpt>
      <trkpt lat="54.023189004510641" lon="12.484085038304329">
        <ele>9.75</ele>
        <time>2024-09-14T12:06:08Z</time>
      </trkpt>
      <trkpt lat="54.023224962875247" lon="12.483813967555761">
        <ele>9.27</ele>
        <time>2024-09-14T12:06:09Z</time>
      </trkpt>
      <trkpt lat="54.023624025285244" lon="12.480776030570269">
        <ele>7.35</ele>
        <time>2024-09-14T12:06:20Z</time>
      </trkpt>
      <trkpt lat="54.023653026670218" lon="12.480493979528546">
        <ele>6.87</ele>
        <time>2024-09-14T12:06:21Z</time>
      </trkpt>
      <trkpt lat="54.02365998364985" lon="12.479894002899528">
        <ele>6.39</ele>
        <time>2024-09-14T12:06:23Z</time>
      </trkpt>
      <trkpt lat="54.023629976436496" lon="12.479593008756638">
        <ele>5.91</ele>
        <time>2024-09-14T12:06:24Z</time>
      </trkpt>
      <trkpt lat="54.023365024477243" lon="12.477470962330699">
        <ele>3.02</ele>
        <time>2024-09-14T12:06:31Z</time>
      </trkpt>
      <trkpt lat="54.02335898950696" lon="12.477159993723035">
        <ele>2.54</ele>
        <time>2024-09-14T12:06:32Z</time>
      </trkpt>
      <trkpt lat="54.02335898950696" lon="12.47684701345861">
        <ele>2.54</ele>
        <time>2024-09-14T12:06:33Z</time>
      </trkpt>
      <trkpt lat="54.023412968963385" lon="12.476549036800861">
        <ele>2.54</ele>
        <time>2024-09-14T12:06:34Z</time>
      </trkpt>
      <trkpt lat="54.023489998653531" lon="12.476254999637604">
        <ele>2.54</ele>
        <time>2024-09-14T12:06:35Z</time>
      </trkpt>
      <trkpt lat="54.023606004193425" lon="12.475993987172842">
        <ele>2.54</ele>
        <time>2024-09-14T12:06:36Z</time>
      </trkpt>
      <trkpt lat="54.023735001683235" lon="12.475749989971519">
        <ele>2.06</ele>
        <time>2024-09-14T12:06:37Z</time>
      </trkpt>
      <trkpt lat="54.023871961981058" lon="12.47551403939724">
        <ele>2.06</ele>
        <time>2024-09-14T12:06:38Z</time>
      </trkpt>
      <trkpt lat="54.02499102987349" lon="12.473557032644749">
        <ele>3.02</ele>
        <time>2024-09-14T12:06:47Z</time>
      </trkpt>
      <trkpt lat="54.02561598457396" lon="12.472586994990706">
        <ele>3.98</ele>
        <time>2024-09-14T12:06:54Z</time>
      </trkpt>
      <trkpt lat="54.025909015908837" lon="12.472207965329289">
        <ele>3.98</ele>
        <time>2024-09-14T12:06:57Z</time>
      </trkpt>
      <trkpt lat="54.026005994528532" lon="12.472081985324621">
        <ele>3.98</ele>
        <time>2024-09-14T12:06:58Z</time>
      </trkpt>
      <trkpt lat="54.027108969166875" lon="12.470893012359738">
        <ele>3.02</ele>
        <time>2024-09-14T12:07:09Z</time>
      </trkpt>
      <trkpt lat="54.027543989941478" lon="12.469547968357801">
        <ele>8.310000000000001</ele>
        <time>2024-09-14T12:07:17Z</time>
      </trkpt>
      <trkpt lat="54.027620013803244" lon="12.469207998365164">
        <ele>9.75</ele>
        <time>2024-09-14T12:07:20Z</time>
      </trkpt>
      <trkpt lat="54.027637029066682" lon="12.469127029180527">
        <ele>10.23</ele>
        <time>2024-09-14T12:07:21Z</time>
      </trkpt>
      <trkpt lat="54.027669969946146" lon="12.468967018648982">
        <ele>11.67</ele>
        <time>2024-09-14T12:07:29Z</time>
      </trkpt>
      <trkpt lat="54.027736019343138" lon="12.468648003414273">
        <ele>12.630000000000001</ele>
        <time>2024-09-14T12:07:38Z</time>
      </trkpt>
      <trkpt lat="54.027802990749478" lon="12.468570973724127">
        <ele>12.630000000000001</ele>
        <time>2024-09-14T12:07:39Z</time>
      </trkpt>
      <trkpt lat="54.027832997962832" lon="12.468591006472707">
        <ele>12.630000000000001</ele>
        <time>2024-09-14T12:07:40Z</time>
      </trkpt>
      <trkpt lat="54.027868034318089" lon="12.468616990372539">
        <ele>12.15</ele>
        <time>2024-09-14T12:07:41Z</time>
      </trkpt>
      <trkpt lat="54.027904998511076" lon="12.46864297427237">
        <ele>12.630000000000001</ele>
        <time>2024-09-14T12:07:42Z</time>
      </trkpt>
      <trkpt lat="54.027942968532443" lon="12.468669964000583">
        <ele>12.630000000000001</ele>
        <time>2024-09-14T12:07:43Z</time>
      </trkpt>
      <trkpt lat="54.028058974072337" lon="12.468753028661013">
        <ele>12.630000000000001</ele>
        <time>2024-09-14T12:07:47Z</time>
      </trkpt>
      <trkpt lat="54.028134997934103" lon="12.468753028661013">
        <ele>12.630000000000001</ele>
        <time>2024-09-14T12:07:48Z</time>
      </trkpt>
      <trkpt lat="54.028290985152125" lon="12.468730984255672">
        <ele>13.119999999999999</ele>
        <time>2024-09-14T12:07:52Z</time>
      </trkpt>
      <trkpt lat="54.028334990143776" lon="12.46870500035584">
        <ele>13.119999999999999</ele>
        <time>2024-09-14T12:07:53Z</time>
      </trkpt>
      <trkpt lat="54.028381006792188" lon="12.468679016456008">
        <ele>13.6</ele>
        <time>2024-09-14T12:07:54Z</time>
      </trkpt>
      <trkpt lat="54.028518972918391" lon="12.468625959008932">
        <ele>13.119999999999999</ele>
        <time>2024-09-14T12:07:57Z</time>
      </trkpt>
      <trkpt lat="54.028570018708706" lon="12.468608021736145">
        <ele>13.6</ele>
        <time>2024-09-14T12:07:58Z</time>
      </trkpt>
      <trkpt lat="54.02862299233675" lon="12.468588994815946">
        <ele>13.6</ele>
        <time>2024-09-14T12:07:59Z</time>
      </trkpt>
      <trkpt lat="54.028721982613206" lon="12.468553958460689">
        <ele>13.6</ele>
        <time>2024-09-14T12:08:01Z</time>
      </trkpt>
      <trkpt lat="54.028843017295003" lon="12.468568962067366">
        <ele>14.08</ele>
        <time>2024-09-14T12:08:03Z</time>
      </trkpt>
      <trkpt lat="54.028906971216202" lon="12.468594023957849">
        <ele>14.08</ele>
        <time>2024-09-14T12:08:04Z</time>
      </trkpt>
      <trkpt lat="54.028985006734729" lon="12.468627970665693">
        <ele>14.08</ele>
        <time>2024-09-14T12:08:05Z</time>
      </trkpt>
      <trkpt lat="54.029046026989818" lon="12.468701982870698">
        <ele>14.56</ele>
        <time>2024-09-14T12:08:06Z</time>
      </trkpt>
      <trkpt lat="54.029107969254255" lon="12.468778006732464">
        <ele>14.56</ele>
        <time>2024-09-14T12:08:07Z</time>
      </trkpt>
      <trkpt lat="54.029617002233863" lon="12.469396004453301">
        <ele>15.52</ele>
        <time>2024-09-14T12:08:14Z</time>
      </trkpt>
      <trkpt lat="54.029855970293283" lon="12.469686018303037">
        <ele>15.039999999999999</ele>
        <time>2024-09-14T12:08:20Z</time>
      </trkpt>
      <trkpt lat="54.030267018824816" lon="12.470183987170458">
        <ele>15.52</ele>
        <time>2024-09-14T12:08:27Z</time>
      </trkpt>
      <trkpt lat="54.03031999245286" lon="12.470249030739069">
        <ele>16</ele>
        <time>2024-09-14T12:08:28Z</time>
      </trkpt>
      <trkpt lat="54.030372966080904" lon="12.470311978831887">
        <ele>16</ele>
        <time>2024-09-14T12:08:29Z</time>
      </trkpt>
      <trkpt lat="54.030892979353666" lon="12.470955960452557">
        <ele>16.48</ele>
        <time>2024-09-14T12:08:37Z</time>
      </trkpt>
      <trkpt lat="54.03201699256897" lon="12.472410975024104">
        <ele>15.039999999999999</ele>
        <time>2024-09-14T12:08:49Z</time>
      </trkpt>
      <trkpt lat="54.033097000792623" lon="12.473888034000993">
        <ele>14.08</ele>
        <time>2024-09-14T12:09:00Z</time>
      </trkpt>
      <trkpt lat="54.034110959619284" lon="12.475542034953833">
        <ele>13.119999999999999</ele>
        <time>2024-09-14T12:09:08Z</time>
      </trkpt>
      <trkpt lat="54.035310996696353" lon="12.476477958261967">
        <ele>16.960000000000001</ele>
        <time>2024-09-14T12:09:15Z</time>
      </trkpt>
      <trkpt lat="54.036448001861572" lon="12.476914990693331">
        <ele>20.809999999999999</ele>
        <time>2024-09-14T12:09:21Z</time>
      </trkpt>
      <trkpt lat="54.03811801224947" lon="12.477345988154411">
        <ele>24.649999999999999</ele>
        <time>2024-09-14T12:09:30Z</time>
      </trkpt>
      <trkpt lat="54.03865403495729" lon="12.477540029212832">
        <ele>25.609999999999999</ele>
        <time>2024-09-14T12:09:33Z</time>
      </trkpt>
      <trkpt lat="54.038853021338582" lon="12.477612029761076">
        <ele>26.09</ele>
        <time>2024-09-14T12:09:34Z</time>
      </trkpt>
      <trkpt lat="54.039048990234733" lon="12.477683024480939">
        <ele>26.57</ele>
        <time>2024-09-14T12:09:35Z</time>
      </trkpt>
      <trkpt lat="54.040413983166218" lon="12.478186022490263">
        <ele>30.899999999999999</ele>
        <time>2024-09-14T12:09:42Z</time>
      </trkpt>
      <trkpt lat="54.041324006393552" lon="12.478477964177728">
        <ele>34.740000000000002</ele>
        <time>2024-09-14T12:09:47Z</time>
      </trkpt>
      <trkpt lat="54.041477981954813" lon="12.478483999148011">
        <ele>35.229999999999997</ele>
        <time>2024-09-14T12:09:48Z</time>
      </trkpt>
      <trkpt lat="54.042695034295321" lon="12.478193985298276">
        <ele>38.590000000000003</ele>
        <time>2024-09-14T12:09:55Z</time>
      </trkpt>
      <trkpt lat="54.044021973386407" lon="12.477733986452222">
        <ele>39.07</ele>
        <time>2024-09-14T12:10:02Z</time>
      </trkpt>
      <trkpt lat="54.045241959393024" lon="12.477603983134031">
        <ele>40.509999999999998</ele>
        <time>2024-09-14T12:10:09Z</time>
      </trkpt>
      <trkpt lat="54.046244015917182" lon="12.477869018912315">
        <ele>40.990000000000002</ele>
        <time>2024-09-14T12:10:16Z</time>
      </trkpt>
      <trkpt lat="54.04714398086071" lon="12.478419961407781">
        <ele>41.469999999999999</ele>
        <time>2024-09-14T12:10:22Z</time>
      </trkpt>
      <trkpt lat="54.047279013320804" lon="12.478559017181396">
        <ele>41.469999999999999</ele>
        <time>2024-09-14T12:10:23Z</time>
      </trkpt>
      <trkpt lat="54.048667978495359" lon="12.480030963197351">
        <ele>37.630000000000003</ele>
        <time>2024-09-14T12:10:32Z</time>
      </trkpt>
      <trkpt lat="54.050631020218134" lon="12.482204977422953">
        <ele>32.82</ele>
        <time>2024-09-14T12:10:44Z</time>
      </trkpt>
      <trkpt lat="54.051573984324932" lon="12.483972972258925">
        <ele>31.379999999999999</ele>
        <time>2024-09-14T12:10:51Z</time>
      </trkpt>
      <trkpt lat="54.052344029769301" lon="12.485939031466842">
        <ele>31.859999999999999</ele>
        <time>2024-09-14T12:10:58Z</time>
      </trkpt>
      <trkpt lat="54.052892960608006" lon="12.487344006076455">
        <ele>33.299999999999997</ele>
        <time>2024-09-14T12:11:05Z</time>
      </trkpt>
      <trkpt lat="54.053641967475414" lon="12.489208979532123">
        <ele>36.189999999999998</ele>
        <time>2024-09-14T12:11:16Z</time>
      </trkpt>
      <trkpt lat="54.05451200902462" lon="12.491423981264234">
        <ele>37.630000000000003</ele>
        <time>2024-09-14T12:11:29Z</time>
      </trkpt>
      <trkpt lat="54.055164037272334" lon="12.493107989430428">
        <ele>36.670000000000002</ele>
        <time>2024-09-14T12:11:39Z</time>
      </trkpt>
      <trkpt lat="54.055230002850294" lon="12.493277974426746">
        <ele>36.670000000000002</ele>
        <time>2024-09-14T12:11:40Z</time>
      </trkpt>
      <trkpt lat="54.055628981441259" lon="12.494309032335877">
        <ele>37.149999999999999</ele>
        <time>2024-09-14T12:11:46Z</time>
      </trkpt>
      <trkpt lat="54.055840959772468" lon="12.494823010638356">
        <ele>37.630000000000003</ele>
        <time>2024-09-14T12:11:49Z</time>
      </trkpt>
      <trkpt lat="54.056101972237229" lon="12.495263982564211">
        <ele>38.109999999999999</ele>
        <time>2024-09-14T12:11:52Z</time>
      </trkpt>
      <trkpt lat="54.057117020711303" lon="12.496382966637611">
        <ele>37.630000000000003</ele>
        <time>2024-09-14T12:12:02Z</time>
      </trkpt>
      <trkpt lat="54.057926964014769" lon="12.497246973216534">
        <ele>38.109999999999999</ele>
        <time>2024-09-14T12:12:10Z</time>
      </trkpt>
      <trkpt lat="54.058028971776366" lon="12.497356021776795">
        <ele>38.590000000000003</ele>
        <time>2024-09-14T12:12:11Z</time>
      </trkpt>
      <trkpt lat="54.0585280302912" lon="12.497906964272261">
        <ele>40.509999999999998</ele>
        <time>2024-09-14T12:12:16Z</time>
      </trkpt>
      <trkpt lat="54.058628026396036" lon="12.498017018660903">
        <ele>40.990000000000002</ele>
        <time>2024-09-14T12:12:17Z</time>
      </trkpt>
      <trkpt lat="54.058730034157634" lon="12.498125983402133">
        <ele>41.950000000000003</ele>
        <time>2024-09-14T12:12:18Z</time>
      </trkpt>
      <trkpt lat="54.059832002967596" lon="12.499304981902242">
        <ele>44.359999999999999</ele>
        <time>2024-09-14T12:12:29Z</time>
      </trkpt>
      <trkpt lat="54.060749989002943" lon="12.500285999849439">
        <ele>43.880000000000003</ele>
        <time>2024-09-14T12:12:38Z</time>
      </trkpt>
      <trkpt lat="54.061475023627281" lon="12.50106199644506">
        <ele>43.399999999999999</ele>
        <time>2024-09-14T12:12:45Z</time>
      </trkpt>
      <trkpt lat="54.062663996592164" lon="12.502032034099102">
        <ele>38.590000000000003</ele>
        <time>2024-09-14T12:12:56Z</time>
      </trkpt>
      <trkpt lat="54.063200019299984" lon="12.502444004639983">
        <ele>36.189999999999998</ele>
        <time>2024-09-14T12:13:01Z</time>
      </trkpt>
      <trkpt lat="54.063305966556072" lon="12.50252497382462">
        <ele>36.189999999999998</ele>
        <time>2024-09-14T12:13:02Z</time>
      </trkpt>
      <trkpt lat="54.063627999275923" lon="12.502772994339466">
        <ele>35.229999999999997</ele>
        <time>2024-09-14T12:13:05Z</time>
      </trkpt>
      <trkpt lat="54.064737008884549" lon="12.503558965399861">
        <ele>35.229999999999997</ele>
        <time>2024-09-14T12:13:15Z</time>
      </trkpt>
      <trkpt lat="54.06518803909421" lon="12.50387697480619">
        <ele>35.710000000000001</ele>
        <time>2024-09-14T12:13:19Z</time>
      </trkpt>
      <trkpt lat="54.065850041806698" lon="12.504344014450908">
        <ele>35.229999999999997</ele>
        <time>2024-09-14T12:13:25Z</time>
      </trkpt>
      <trkpt lat="54.066751012578607" lon="12.504976009950042">
        <ele>35.229999999999997</ele>
        <time>2024-09-14T12:13:33Z</time>
      </trkpt>
      <trkpt lat="54.067422989755869" lon="12.505436008796096">
        <ele>36.189999999999998</ele>
        <time>2024-09-14T12:13:39Z</time>
      </trkpt>
      <trkpt lat="54.068031013011932" lon="12.505919979885221">
        <ele>34.259999999999998</ele>
        <time>2024-09-14T12:13:44Z</time>
      </trkpt>
      <trkpt lat="54.068167973309755" lon="12.506061969324946">
        <ele>33.299999999999997</ele>
        <time>2024-09-14T12:13:45Z</time>
      </trkpt>
      <trkpt lat="54.068311974406242" lon="12.506212005391717">
        <ele>32.340000000000003</ele>
        <time>2024-09-14T12:13:46Z</time>
      </trkpt>
      <trkpt lat="54.068463016301394" lon="12.506367992609739">
        <ele>31.859999999999999</ele>
        <time>2024-09-14T12:13:47Z</time>
      </trkpt>
      <trkpt lat="54.068596959114075" lon="12.506573013961315">
        <ele>31.859999999999999</ele>
        <time>2024-09-14T12:13:48Z</time>
      </trkpt>
      <trkpt lat="54.069792972877622" lon="12.508418960496783">
        <ele>31.859999999999999</ele>
        <time>2024-09-14T12:13:56Z</time>
      </trkpt>
      <trkpt lat="54.070356991142035" lon="12.509181965142488">
        <ele>32.340000000000003</ele>
        <time>2024-09-14T12:14:00Z</time>
      </trkpt>
      <trkpt lat="54.070536028593779" lon="12.50927098095417">
        <ele>32.82</ele>
        <time>2024-09-14T12:14:01Z</time>
      </trkpt>
      <trkpt lat="54.070725040510297" lon="12.509366031736135">
        <ele>32.82</ele>
        <time>2024-09-14T12:14:02Z</time>
      </trkpt>
      <trkpt lat="54.07255900092423" lon="12.510189972817898">
        <ele>34.740000000000002</ele>
        <time>2024-09-14T12:14:11Z</time>
      </trkpt>
      <trkpt lat="54.074622038751841" lon="12.511121034622192">
        <ele>33.780000000000001</ele>
        <time>2024-09-14T12:14:21Z</time>
      </trkpt>
      <trkpt lat="54.075359981507063" lon="12.511382969096303">
        <ele>32.82</ele>
        <time>2024-09-14T12:14:25Z</time>
      </trkpt>
      <trkpt lat="54.075554022565484" lon="12.511438960209489">
        <ele>32.82</ele>
        <time>2024-09-14T12:14:26Z</time>
      </trkpt>
      <trkpt lat="54.07573901116848" lon="12.511580027639866">
        <ele>32.82</ele>
        <time>2024-09-14T12:14:27Z</time>
      </trkpt>
      <trkpt lat="54.075926011428237" lon="12.511721011251211">
        <ele>32.340000000000003</ele>
        <time>2024-09-14T12:14:28Z</time>
      </trkpt>
      <trkpt lat="54.076117035001516" lon="12.511866018176079">
        <ele>32.340000000000003</ele>
        <time>2024-09-14T12:14:29Z</time>
      </trkpt>
      <trkpt lat="54.077239036560059" lon="12.512756008654833">
        <ele>30.899999999999999</ele>
        <time>2024-09-14T12:14:36Z</time>
      </trkpt>
      <trkpt lat="54.078131960704923" lon="12.513471990823746">
        <ele>30.420000000000002</ele>
        <time>2024-09-14T12:14:43Z</time>
      </trkpt>
      <trkpt lat="54.079479016363621" lon="12.514569014310837">
        <ele>29.940000000000001</ele>
        <time>2024-09-14T12:14:53Z</time>
      </trkpt>
      <trkpt lat="54.080255012959242" lon="12.515295976772904">
        <ele>28.98</ele>
        <time>2024-09-14T12:14:59Z</time>
      </trkpt>
      <trkpt lat="54.081327980384231" lon="12.516300966963172">
        <ele>28.98</ele>
        <time>2024-09-14T12:15:07Z</time>
      </trkpt>
      <trkpt lat="54.082552995532751" lon="12.516860961914062">
        <ele>32.340000000000003</ele>
        <time>2024-09-14T12:15:15Z</time>
      </trkpt>
      <trkpt lat="54.082687022164464" lon="12.516979984939098">
        <ele>32.340000000000003</ele>
        <time>2024-09-14T12:15:16Z</time>
      </trkpt>
      <trkpt lat="54.08280998468399" lon="12.517147958278656">
        <ele>32.82</ele>
        <time>2024-09-14T12:15:17Z</time>
      </trkpt>
      <trkpt lat="54.082933031022549" lon="12.517317021265626">
        <ele>32.82</ele>
        <time>2024-09-14T12:15:18Z</time>
      </trkpt>
      <trkpt lat="54.083054987713695" lon="12.517483988776803">
        <ele>33.299999999999997</ele>
        <time>2024-09-14T12:15:19Z</time>
      </trkpt>
      <trkpt lat="54.083155989646912" lon="12.517700996249914">
        <ele>33.780000000000001</ele>
        <time>2024-09-14T12:15:20Z</time>
      </trkpt>
      <trkpt lat="54.083257997408509" lon="12.517922027036548">
        <ele>34.740000000000002</ele>
        <time>2024-09-14T12:15:21Z</time>
      </trkpt>
      <trkpt lat="54.084104988723993" lon="12.51994801685214">
        <ele>37.630000000000003</ele>
        <time>2024-09-14T12:15:29Z</time>
      </trkpt>
      <trkpt lat="54.084598012268543" lon="12.521185018122196">
        <ele>40.030000000000001</ele>
        <time>2024-09-14T12:15:35Z</time>
      </trkpt>
      <trkpt lat="54.085333021357656" lon="12.523028030991554">
        <ele>45.32</ele>
        <time>2024-09-14T12:15:46Z</time>
      </trkpt>
      <trkpt lat="54.08549202606082" lon="12.523426003754139">
        <ele>46.280000000000001</ele>
        <time>2024-09-14T12:15:49Z</time>
      </trkpt>
      <trkpt lat="54.085548017174006" lon="12.523472020402551">
        <ele>46.280000000000001</ele>
        <time>2024-09-14T12:15:50Z</time>
      </trkpt>
      <trkpt lat="54.085605014115572" lon="12.523484006524086">
        <ele>46.759999999999998</ele>
        <time>2024-09-14T12:15:51Z</time>
      </trkpt>
      <trkpt lat="54.085737029090524" lon="12.52342700958252">
        <ele>47.240000000000002</ele>
        <time>2024-09-14T12:15:52Z</time>
      </trkpt>
      <trkpt lat="54.085740968585014" lon="12.523423992097378">
        <ele>47.719999999999999</ele>
        <time>2024-09-14T12:15:53Z</time>
      </trkpt>
      <trkpt lat="54.085811963304877" lon="12.523370012640953">
        <ele>47.719999999999999</ele>
        <time>2024-09-14T12:15:54Z</time>
      </trkpt>
      <trkpt lat="54.086410012096167" lon="12.522913031280041">
        <ele>45.32</ele>
        <time>2024-09-14T12:16:02Z</time>
      </trkpt>
      <trkpt lat="54.086956009268761" lon="12.522515980526805">
        <ele>42.920000000000002</ele>
        <time>2024-09-14T12:16:09Z</time>
      </trkpt>
      <trkpt lat="54.087047036737204" lon="12.522492008283734">
        <ele>42.439999999999998</ele>
        <time>2024-09-14T12:16:10Z</time>
      </trkpt>
      <trkpt lat="54.087135968729854" lon="12.522469041869044">
        <ele>42.439999999999998</ele>
        <time>2024-09-14T12:16:11Z</time>
      </trkpt>
      <trkpt lat="54.087484991177917" lon="12.522343983873725">
        <ele>40.990000000000002</ele>
        <time>2024-09-14T12:16:15Z</time>
      </trkpt>
      <trkpt lat="54.088551001623273" lon="12.521548038348556">
        <ele>39.549999999999997</ele>
        <time>2024-09-14T12:16:27Z</time>
      </trkpt>
      <trkpt lat="54.089581975713372" lon="12.520796013996005">
        <ele>37.630000000000003</ele>
        <time>2024-09-14T12:16:38Z</time>
      </trkpt>
      <trkpt lat="54.090640023350716" lon="12.519938964396715">
        <ele>35.710000000000001</ele>
        <time>2024-09-14T12:16:47Z</time>
      </trkpt>
      <trkpt lat="54.091877024620771" lon="12.518936991691589">
        <ele>33.780000000000001</ele>
        <time>2024-09-14T12:16:54Z</time>
      </trkpt>
      <trkpt lat="54.093075972050428" lon="12.51799201592803">
        <ele>33.780000000000001</ele>
        <time>2024-09-14T12:17:01Z</time>
      </trkpt>
      <trkpt lat="54.09324998036027" lon="12.517918003723025">
        <ele>34.259999999999998</ele>
        <time>2024-09-14T12:17:02Z</time>
      </trkpt>
      <trkpt lat="54.093431029468775" lon="12.517914986237884">
        <ele>34.259999999999998</ele>
        <time>2024-09-14T12:17:03Z</time>
      </trkpt>
      <trkpt lat="54.093620963394642" lon="12.517953040078282">
        <ele>34.259999999999998</ele>
        <time>2024-09-14T12:17:04Z</time>
      </trkpt>
      <trkpt lat="54.093816010281444" lon="12.51799201592803">
        <ele>34.259999999999998</ele>
        <time>2024-09-14T12:17:05Z</time>
      </trkpt>
      <trkpt lat="54.095763964578509" lon="12.518281023949385">
        <ele>33.299999999999997</ele>
        <time>2024-09-14T12:17:14Z</time>
      </trkpt>
      <trkpt lat="54.098220029845834" lon="12.518155965954065">
        <ele>34.740000000000002</ele>
        <time>2024-09-14T12:17:25Z</time>
      </trkpt>
      <trkpt lat="54.100216012448072" lon="12.518004002049565">
        <ele>33.299999999999997</ele>
        <time>2024-09-14T12:17:34Z</time>
      </trkpt>
      <trkpt lat="54.100635023787618" lon="12.518047001212835">
        <ele>33.780000000000001</ele>
        <time>2024-09-14T12:17:36Z</time>
      </trkpt>
      <trkpt lat="54.100993014872074" lon="12.518083965405822">
        <ele>33.780000000000001</ele>
        <time>2024-09-14T12:17:38Z</time>
      </trkpt>
      <trkpt lat="54.10120096988976" lon="12.517991010099649">
        <ele>33.780000000000001</ele>
        <time>2024-09-14T12:17:39Z</time>
      </trkpt>
      <trkpt lat="54.101386964321136" lon="12.517908029258251">
        <ele>33.299999999999997</ele>
        <time>2024-09-14T12:17:40Z</time>
      </trkpt>
      <trkpt lat="54.101572036743164" lon="12.517824964597821">
        <ele>33.780000000000001</ele>
        <time>2024-09-14T12:17:41Z</time>
      </trkpt>
      <trkpt lat="54.101742021739483" lon="12.517749024555087">
        <ele>33.780000000000001</ele>
        <time>2024-09-14T12:17:42Z</time>
      </trkpt>
      <trkpt lat="54.101909995079041" lon="12.517743995413184">
        <ele>33.780000000000001</ele>
        <time>2024-09-14T12:17:43Z</time>
      </trkpt>
      <trkpt lat="54.102088026702404" lon="12.517786994576454">
        <ele>33.780000000000001</ele>
        <time>2024-09-14T12:17:44Z</time>
      </trkpt>
      <trkpt lat="54.102265974506736" lon="12.517829993739724">
        <ele>33.780000000000001</ele>
        <time>2024-09-14T12:17:45Z</time>
      </trkpt>
      <trkpt lat="54.103066027164459" lon="12.518093017861247">
        <ele>33.299999999999997</ele>
        <time>2024-09-14T12:17:51Z</time>
      </trkpt>
      <trkpt lat="54.103165017440915" lon="12.518126964569092">
        <ele>33.299999999999997</ele>
        <time>2024-09-14T12:17:52Z</time>
      </trkpt>
      <trkpt lat="54.103256966918707" lon="12.518212962895632">
        <ele>33.780000000000001</ele>
        <time>2024-09-14T12:17:53Z</time>
      </trkpt>
      <trkpt lat="54.10332502797246" lon="12.518349001184106">
        <ele>33.780000000000001</ele>
        <time>2024-09-14T12:17:54Z</time>
      </trkpt>
      <trkpt lat="54.103386970236897" lon="12.518472969532013">
        <ele>33.780000000000001</ele>
        <time>2024-09-14T12:17:55Z</time>
      </trkpt>
      <trkpt lat="54.103441033512354" lon="12.518581012263894">
        <ele>34.259999999999998</ele>
        <time>2024-09-14T12:17:56Z</time>
      </trkpt>
      <trkpt lat="54.103486966341734" lon="12.518672961741686">
        <ele>34.740000000000002</ele>
        <time>2024-09-14T12:17:57Z</time>
      </trkpt>
      <trkpt lat="54.103525020182133" lon="12.518748985603452">
        <ele>34.740000000000002</ele>
        <time>2024-09-14T12:17:58Z</time>
      </trkpt>
      <trkpt lat="54.103591991588473" lon="12.51870296895504">
        <ele>35.229999999999997</ele>
        <time>2024-09-14T12:17:59Z</time>
      </trkpt>
      <trkpt lat="54.103664997965097" lon="12.518651001155376">
        <ele>35.229999999999997</ele>
        <time>2024-09-14T12:18:00Z</time>
      </trkpt>
      <trkpt lat="54.103747978806496" lon="12.518591992557049">
        <ele>35.229999999999997</ele>
        <time>2024-09-14T12:18:01Z</time>
      </trkpt>
      <trkpt lat="54.103840012103319" lon="12.518527032807469">
        <ele>35.710000000000001</ele>
        <time>2024-09-14T12:18:02Z</time>
      </trkpt>
      <trkpt lat="54.103935984894633" lon="12.518446985632181">
        <ele>35.710000000000001</ele>
        <time>2024-09-14T12:18:03Z</time>
      </trkpt>
      <trkpt lat="54.104419033974409" lon="12.517977012321353">
        <ele>36.670000000000002</ele>
        <time>2024-09-14T12:18:08Z</time>
      </trkpt>
      <trkpt lat="54.105423018336296" lon="12.517320960760117">
        <ele>37.630000000000003</ele>
        <time>2024-09-14T12:18:17Z</time>
      </trkpt>
      <trkpt lat="54.106446029618382" lon="12.516814023256302">
        <ele>32.340000000000003</ele>
        <time>2024-09-14T12:18:27Z</time>
      </trkpt>
      <trkpt lat="54.107389999553561" lon="12.516351006925106">
        <ele>25.129999999999999</ele>
        <time>2024-09-14T12:18:35Z</time>
      </trkpt>
      <trkpt lat="54.10906596109271" lon="12.515554977580905">
        <ele>21.289999999999999</ele>
        <time>2024-09-14T12:18:45Z</time>
      </trkpt>
      <trkpt lat="54.109960980713367" lon="12.515131020918489">
        <ele>25.129999999999999</ele>
        <time>2024-09-14T12:18:52Z</time>
      </trkpt>
      <trkpt lat="54.110405975952744" lon="12.514919964596629">
        <ele>28.5</ele>
        <time>2024-09-14T12:18:59Z</time>
      </trkpt>
      <trkpt lat="54.11052499897778" lon="12.514928011223674">
        <ele>28.98</ele>
        <time>2024-09-14T12:19:03Z</time>
      </trkpt>
      <trkpt lat="54.110529022291303" lon="12.514979979023337">
        <ele>28.98</ele>
        <time>2024-09-14T12:19:04Z</time>
      </trkpt>
      <trkpt lat="54.110535979270935" lon="12.515078969299793">
        <ele>28.98</ele>
        <time>2024-09-14T12:19:05Z</time>
      </trkpt>
      <trkpt lat="54.11054695956409" lon="12.515229005366564">
        <ele>29.460000000000001</ele>
        <time>2024-09-14T12:19:06Z</time>
      </trkpt>
      <trkpt lat="54.110560035333037" lon="12.515404019504786">
        <ele>29.460000000000001</ele>
        <time>2024-09-14T12:19:07Z</time>
      </trkpt>
      <trkpt lat="54.110578978434205" lon="12.515603005886078">
        <ele>29.940000000000001</ele>
        <time>2024-09-14T12:19:08Z</time>
      </trkpt>
      <trkpt lat="54.110779976472259" lon="12.517703007906675">
        <ele>32.82</ele>
        <time>2024-09-14T12:19:16Z</time>
      </trkpt>
      <trkpt lat="54.110995978116989" lon="12.519964026287198">
        <ele>36.189999999999998</ele>
        <time>2024-09-14T12:19:25Z</time>
      </trkpt>
      <trkpt lat="54.111240981146693" lon="12.522307019680738">
        <ele>36.670000000000002</ele>
        <time>2024-09-14T12:19:36Z</time>
      </trkpt>
      <trkpt lat="54.111569970846176" lon="12.52538301050663">
        <ele>33.780000000000001</ele>
        <time>2024-09-14T12:19:50Z</time>
      </trkpt>
      <trkpt lat="54.111782032996416" lon="12.52766297198832">
        <ele>31.859999999999999</ele>
        <time>2024-09-14T12:20:01Z</time>
      </trkpt>
      <trkpt lat="54.111894015222788" lon="12.528726970776916">
        <ele>32.340000000000003</ele>
        <time>2024-09-14T12:20:07Z</time>
      </trkpt>
      <trkpt lat="54.111956041306257" lon="12.528828978538513">
        <ele>32.340000000000003</ele>
        <time>2024-09-14T12:20:08Z</time>
      </trkpt>
      <trkpt lat="54.11202996969223" lon="12.528817998245358">
        <ele>32.340000000000003</ele>
        <time>2024-09-14T12:20:09Z</time>
      </trkpt>
      <trkpt lat="54.112209007143974" lon="12.528812969103456">
        <ele>31.859999999999999</ele>
        <time>2024-09-14T12:20:11Z</time>
      </trkpt>
      <trkpt lat="54.112314032390714" lon="12.528809029608965">
        <ele>31.859999999999999</ele>
        <time>2024-09-14T12:20:12Z</time>
      </trkpt>
      <trkpt lat="54.11325297318399" lon="12.528769969940186">
        <ele>30.899999999999999</ele>
        <time>2024-09-14T12:20:20Z</time>
      </trkpt>
      <trkpt lat="54.11385596729815" lon="12.528769969940186">
        <ele>29.940000000000001</ele>
        <time>2024-09-14T12:20:25Z</time>
      </trkpt>
      <trkpt lat="54.113979013636708" lon="12.528767958283424">
        <ele>29.940000000000001</ele>
        <time>2024-09-14T12:20:26Z</time>
      </trkpt>
      <trkpt lat="54.115305030718446" lon="12.528749015182257">
        <ele>32.340000000000003</ele>
        <time>2024-09-14T12:20:37Z</time>
      </trkpt>
      <trkpt lat="54.116280013695359" lon="12.528726970776916">
        <ele>32.340000000000003</ele>
        <time>2024-09-14T12:20:45Z</time>
      </trkpt>
      <trkpt lat="54.117593038827181" lon="12.528731999918818">
        <ele>29.460000000000001</ele>
        <time>2024-09-14T12:20:56Z</time>
      </trkpt>
      <trkpt lat="54.118091007694602" lon="12.528846999630332">
        <ele>27.530000000000001</ele>
        <time>2024-09-14T12:21:00Z</time>
      </trkpt>
      <trkpt lat="54.118210030719638" lon="12.528913971036673">
        <ele>27.530000000000001</ele>
        <time>2024-09-14T12:21:01Z</time>
      </trkpt>
      <trkpt lat="54.118324024602771" lon="12.528978008776903">
        <ele>28.02</ele>
        <time>2024-09-14T12:21:02Z</time>
      </trkpt>
      <trkpt lat="54.118547989055514" lon="12.529103988781571">
        <ele>28.02</ele>
        <time>2024-09-14T12:21:04Z</time>
      </trkpt>
      <trkpt lat="54.119451977312565" lon="12.529603969305754">
        <ele>28.5</ele>
        <time>2024-09-14T12:21:12Z</time>
      </trkpt>
      <trkpt lat="54.119680970907211" lon="12.529693990945816">
        <ele>28.98</ele>
        <time>2024-09-14T12:21:14Z</time>
      </trkpt>
      <trkpt lat="54.119793958961964" lon="12.529739001765847">
        <ele>29.460000000000001</ele>
        <time>2024-09-14T12:21:15Z</time>
      </trkpt>
      <trkpt lat="54.119909964501858" lon="12.529784012585878">
        <ele>29.460000000000001</ele>
        <time>2024-09-14T12:21:16Z</time>
      </trkpt>
      <trkpt lat="54.120862986892462" lon="12.52974403090775">
        <ele>30.899999999999999</ele>
        <time>2024-09-14T12:21:24Z</time>
      </trkpt>
      <trkpt lat="54.122052965685725" lon="12.529449993744493">
        <ele>31.379999999999999</ele>
        <time>2024-09-14T12:21:34Z</time>
      </trkpt>
      <trkpt lat="54.123012023046613" lon="12.529201973229647">
        <ele>32.82</ele>
        <time>2024-09-14T12:21:42Z</time>
      </trkpt>
      <trkpt lat="54.124202001839876" lon="12.528894022107124">
        <ele>31.379999999999999</ele>
        <time>2024-09-14T12:21:52Z</time>
      </trkpt>
      <trkpt lat="54.124931981787086" lon="12.528724959120154">
        <ele>30.420000000000002</ele>
        <time>2024-09-14T12:21:58Z</time>
      </trkpt>
      <trkpt lat="54.125051004812121" lon="12.528709033504128">
        <ele>29.940000000000001</ele>
        <time>2024-09-14T12:21:59Z</time>
      </trkpt>
      <trkpt lat="54.125168016180396" lon="12.528722025454044">
        <ele>29.940000000000001</ele>
        <time>2024-09-14T12:22:00Z</time>
      </trkpt>
      <trkpt lat="54.125292990356684" lon="12.528737029060721">
        <ele>29.460000000000001</ele>
        <time>2024-09-14T12:22:01Z</time>
      </trkpt>
      <trkpt lat="54.125426011160016" lon="12.528769969940186">
        <ele>28.98</ele>
        <time>2024-09-14T12:22:02Z</time>
      </trkpt>
      <trkpt lat="54.125536987558007" lon="12.528838030993938">
        <ele>28.02</ele>
        <time>2024-09-14T12:22:03Z</time>
      </trkpt>
      <trkpt lat="54.125644024461508" lon="12.528903996571898">
        <ele>27.050000000000001</ele>
        <time>2024-09-14T12:22:04Z</time>
      </trkpt>
      <trkpt lat="54.126279037445784" lon="12.529440019279718">
        <ele>24.170000000000002</ele>
        <time>2024-09-14T12:22:10Z</time>
      </trkpt>
      <trkpt lat="54.126386996358633" lon="12.529536997899413">
        <ele>24.170000000000002</ele>
        <time>2024-09-14T12:22:11Z</time>
      </trkpt>
      <trkpt lat="54.126654965803027" lon="12.529975958168507">
        <ele>23.690000000000001</ele>
        <time>2024-09-14T12:22:14Z</time>
      </trkpt>
      <trkpt lat="54.127590972930193" lon="12.531633982434869">
        <ele>28.98</ele>
        <time>2024-09-14T12:22:23Z</time>
      </trkpt>
      <trkpt lat="54.128673998638988" lon="12.533371970057487">
        <ele>34.259999999999998</ele>
        <time>2024-09-14T12:22:30Z</time>
      </trkpt>
      <trkpt lat="54.130490021780133" lon="12.536285016685724">
        <ele>39.07</ele>
        <time>2024-09-14T12:22:40Z</time>
      </trkpt>
      <trkpt lat="54.132387014105916" lon="12.539323037490249">
        <ele>38.109999999999999</ele>
        <time>2024-09-14T12:22:51Z</time>
      </trkpt>
      <trkpt lat="54.134604027494788" lon="12.542812004685402">
        <ele>35.710000000000001</ele>
        <time>2024-09-14T12:23:04Z</time>
      </trkpt>
      <trkpt lat="54.136416027322412" lon="12.54568699747324">
        <ele>38.590000000000003</ele>
        <time>2024-09-14T12:23:14Z</time>
      </trkpt>
      <trkpt lat="54.13695003837347" lon="12.546658040955663">
        <ele>39.549999999999997</ele>
        <time>2024-09-14T12:23:17Z</time>
      </trkpt>
      <trkpt lat="54.137877998873591" lon="12.549334969371557">
        <ele>41.469999999999999</ele>
        <time>2024-09-14T12:23:24Z</time>
      </trkpt>
      <trkpt lat="54.13914299570024" lon="12.553044967353344">
        <ele>44.840000000000003</ele>
        <time>2024-09-14T12:23:34Z</time>
      </trkpt>
      <trkpt lat="54.140117978677154" lon="12.555991960689425">
        <ele>45.32</ele>
        <time>2024-09-14T12:23:42Z</time>
      </trkpt>
      <trkpt lat="54.141418011859059" lon="12.559813018888235">
        <ele>44.840000000000003</ele>
        <time>2024-09-14T12:23:52Z</time>
      </trkpt>
      <trkpt lat="54.141928972676396" lon="12.561251018196344">
        <ele>44.359999999999999</ele>
        <time>2024-09-14T12:23:56Z</time>
      </trkpt>
      <trkpt lat="54.142092000693083" lon="12.561561986804008">
        <ele>44.359999999999999</ele>
        <time>2024-09-14T12:23:57Z</time>
      </trkpt>
      <trkpt lat="54.142284030094743" lon="12.56184495985508">
        <ele>44.359999999999999</ele>
        <time>2024-09-14T12:23:58Z</time>
      </trkpt>
      <trkpt lat="54.142501959577203" lon="12.562088035047054">
        <ele>44.359999999999999</ele>
        <time>2024-09-14T12:23:59Z</time>
      </trkpt>
      <trkpt lat="54.142723996192217" lon="12.562335971742868">
        <ele>44.359999999999999</ele>
        <time>2024-09-14T12:24:00Z</time>
      </trkpt>
      <trkpt lat="54.142949972301722" lon="12.562588015571237">
        <ele>44.840000000000003</ele>
        <time>2024-09-14T12:24:01Z</time>
      </trkpt>
      <trkpt lat="54.1444690246135" lon="12.564255008473992">
        <ele>46.280000000000001</ele>
        <time>2024-09-14T12:24:08Z</time>
      </trkpt>
      <trkpt lat="54.14616895839572" lon="12.566075976938009">
        <ele>49.649999999999999</ele>
        <time>2024-09-14T12:24:17Z</time>
      </trkpt>
      <trkpt lat="54.147020978853106" lon="12.566948030143976">
        <ele>47.240000000000002</ele>
        <time>2024-09-14T12:24:24Z</time>
      </trkpt>
      <trkpt lat="54.148210035637021" lon="12.568296007812023">
        <ele>47.240000000000002</ele>
        <time>2024-09-14T12:24:36Z</time>
      </trkpt>
      <trkpt lat="54.14913103915751" lon="12.569271996617317">
        <ele>47.240000000000002</ele>
        <time>2024-09-14T12:24:45Z</time>
      </trkpt>
      <trkpt lat="54.149552984163165" lon="12.569640967994928">
        <ele>47.719999999999999</ele>
        <time>2024-09-14T12:24:49Z</time>
      </trkpt>
      <trkpt lat="54.150537019595504" lon="12.570084035396576">
        <ele>48.68</ele>
        <time>2024-09-14T12:24:58Z</time>
      </trkpt>
      <trkpt lat="54.150868020951748" lon="12.570169027894735">
        <ele>48.200000000000003</ele>
        <time>2024-09-14T12:25:02Z</time>
      </trkpt>
      <trkpt lat="54.15121603757143" lon="12.570332977920771">
        <ele>49.159999999999997</ele>
        <time>2024-09-14T12:25:06Z</time>
      </trkpt>
      <trkpt lat="54.15130103006959" lon="12.570386035367846">
        <ele>49.649999999999999</ele>
        <time>2024-09-14T12:25:07Z</time>
      </trkpt>
      <trkpt lat="54.151393985375762" lon="12.5704609695822">
        <ele>50.130000000000003</ele>
        <time>2024-09-14T12:25:08Z</time>
      </trkpt>
      <trkpt lat="54.15147403255105" lon="12.570545040071011">
        <ele>50.609999999999999</ele>
        <time>2024-09-14T12:25:09Z</time>
      </trkpt>
      <trkpt lat="54.151555001735687" lon="12.57063003256917">
        <ele>50.609999999999999</ele>
        <time>2024-09-14T12:25:10Z</time>
      </trkpt>
      <trkpt lat="54.151637982577085" lon="12.570717036724091">
        <ele>51.090000000000003</ele>
        <time>2024-09-14T12:25:11Z</time>
      </trkpt>
      <trkpt lat="54.151709983125329" lon="12.570792976766825">
        <ele>51.090000000000003</ele>
        <time>2024-09-14T12:25:12Z</time>
      </trkpt>
      <trkpt lat="54.151845015585423" lon="12.57093102671206">
        <ele>51.090000000000003</ele>
        <time>2024-09-14T12:25:14Z</time>
      </trkpt>
      <trkpt lat="54.151891032233834" lon="12.57097695954144">
        <ele>51.090000000000003</ele>
        <time>2024-09-14T12:25:15Z</time>
      </trkpt>
      <trkpt lat="54.151976024731994" lon="12.570984000340104">
        <ele>50.609999999999999</ele>
        <time>2024-09-14T12:25:16Z</time>
      </trkpt>
      <trkpt lat="54.15205598808825" lon="12.570991041138768">
        <ele>50.609999999999999</ele>
        <time>2024-09-14T12:25:17Z</time>
      </trkpt>
      <trkpt lat="54.152143998071551" lon="12.570997998118401">
        <ele>50.609999999999999</ele>
        <time>2024-09-14T12:25:18Z</time>
      </trkpt>
      <trkpt lat="54.152182973921299" lon="12.570970002561808">
        <ele>50.609999999999999</ele>
        <time>2024-09-14T12:25:19Z</time>
      </trkpt>
      <trkpt lat="54.152258997783065" lon="12.570906970649958">
        <ele>50.130000000000003</ele>
        <time>2024-09-14T12:25:20Z</time>
      </trkpt>
      <trkpt lat="54.152330998331308" lon="12.570847040042281">
        <ele>50.130000000000003</ele>
        <time>2024-09-14T12:25:21Z</time>
      </trkpt>
      <trkpt lat="54.152397969737649" lon="12.570790965110064">
        <ele>49.649999999999999</ele>
        <time>2024-09-14T12:25:22Z</time>
      </trkpt>
      <trkpt lat="54.152470976114273" lon="12.570730028674006">
        <ele>49.649999999999999</ele>
        <time>2024-09-14T12:25:23Z</time>
      </trkpt>
      <trkpt lat="54.15278697386384" lon="12.570529030635953">
        <ele>46.759999999999998</ele>
        <time>2024-09-14T12:25:27Z</time>
      </trkpt>
      <trkpt lat="54.152873978018761" lon="12.57050103507936">
        <ele>46.759999999999998</ele>
        <time>2024-09-14T12:25:28Z</time>
      </trkpt>
      <trkpt lat="54.152961988002062" lon="12.570578986778855">
        <ele>46.280000000000001</ele>
        <time>2024-09-14T12:25:29Z</time>
      </trkpt>
      <trkpt lat="54.153048992156982" lon="12.570637995377183">
        <ele>45.799999999999997</ele>
        <time>2024-09-14T12:25:30Z</time>
      </trkpt>
      <trkpt lat="54.153132978826761" lon="12.57069599814713">
        <ele>45.32</ele>
        <time>2024-09-14T12:25:31Z</time>
      </trkpt>
      <trkpt lat="54.153196010738611" lon="12.570800017565489">
        <ele>44.840000000000003</ele>
        <time>2024-09-14T12:25:32Z</time>
      </trkpt>
      <trkpt lat="54.15325996465981" lon="12.570907976478338">
        <ele>44.359999999999999</ele>
        <time>2024-09-14T12:25:33Z</time>
      </trkpt>
      <trkpt lat="54.153325008228421" lon="12.571018030866981">
        <ele>43.399999999999999</ele>
        <time>2024-09-14T12:25:34Z</time>
      </trkpt>
      <trkpt lat="54.153540004044771" lon="12.571195978671312">
        <ele>41.469999999999999</ele>
        <time>2024-09-14T12:25:37Z</time>
      </trkpt>
      <trkpt lat="54.153618039563298" lon="12.571245012804866">
        <ele>40.990000000000002</ele>
        <time>2024-09-14T12:25:38Z</time>
      </trkpt>
      <trkpt lat="54.1536870226264" lon="12.571336962282658">
        <ele>40.990000000000002</ele>
        <time>2024-09-14T12:25:39Z</time>
      </trkpt>
      <trkpt lat="54.153993967920542" lon="12.571162031963468">
        <ele>39.549999999999997</ele>
        <time>2024-09-14T12:25:43Z</time>
      </trkpt>
      <trkpt lat="54.154045013710856" lon="12.571099000051618">
        <ele>39.07</ele>
        <time>2024-09-14T12:25:44Z</time>
      </trkpt>
      <trkpt lat="54.154102010652423" lon="12.571004033088684">
        <ele>38.590000000000003</ele>
        <time>2024-09-14T12:25:45Z</time>
      </trkpt>
      <trkpt lat="54.154144003987312" lon="12.57093396037817">
        <ele>38.109999999999999</ele>
        <time>2024-09-14T12:25:46Z</time>
      </trkpt>
      <trkpt lat="54.15416001342237" lon="12.570793982595205">
        <ele>37.630000000000003</ele>
        <time>2024-09-14T12:25:47Z</time>
      </trkpt>
      <trkpt lat="54.154178034514189" lon="12.570641012862325">
        <ele>37.149999999999999</ele>
        <time>2024-09-14T12:25:48Z</time>
      </trkpt>
      <trkpt lat="54.154196977615356" lon="12.57048100233078">
        <ele>36.189999999999998</ele>
        <time>2024-09-14T12:25:49Z</time>
      </trkpt>
      <trkpt lat="54.154216004535556" lon="12.570319985970855">
        <ele>35.710000000000001</ele>
        <time>2024-09-14T12:25:50Z</time>
      </trkpt>
      <trkpt lat="54.154231008142233" lon="12.570165004581213">
        <ele>35.229999999999997</ele>
        <time>2024-09-14T12:25:51Z</time>
      </trkpt>
      <trkpt lat="54.154251040890813" lon="12.568786013871431">
        <ele>31.379999999999999</ele>
        <time>2024-09-14T12:26:00Z</time>
      </trkpt>
      <trkpt lat="54.154251040890813" lon="12.568626003339887">
        <ele>31.379999999999999</ele>
        <time>2024-09-14T12:26:01Z</time>
      </trkpt>
      <trkpt lat="54.154251040890813" lon="12.568464986979961">
        <ele>31.379999999999999</ele>
        <time>2024-09-14T12:26:02Z</time>
      </trkpt>
      <trkpt lat="54.15428901091218" lon="12.566826995462179">
        <ele>31.859999999999999</ele>
        <time>2024-09-14T12:26:11Z</time>
      </trkpt>
      <trkpt lat="54.154321029782295" lon="12.566649969667196">
        <ele>32.82</ele>
        <time>2024-09-14T12:26:12Z</time>
      </trkpt>
      <trkpt lat="54.154385989531875" lon="12.566280998289585">
        <ele>33.780000000000001</ele>
        <time>2024-09-14T12:26:14Z</time>
      </trkpt>
      <trkpt lat="54.154427982866764" lon="12.566096009686589">
        <ele>33.780000000000001</ele>
        <time>2024-09-14T12:26:15Z</time>
      </trkpt>
      <trkpt lat="54.154477017000318" lon="12.565919989719987">
        <ele>34.740000000000002</ele>
        <time>2024-09-14T12:26:16Z</time>
      </trkpt>
      <trkpt lat="54.154596962034702" lon="12.565612038597465">
        <ele>36.189999999999998</ele>
        <time>2024-09-14T12:26:18Z</time>
      </trkpt>
      <trkpt lat="54.155366001650691" lon="12.564016040414572">
        <ele>38.109999999999999</ele>
        <time>2024-09-14T12:26:28Z</time>
      </trkpt>
      <trkpt lat="54.155441019684076" lon="12.563858963549137">
        <ele>38.590000000000003</ele>
        <time>2024-09-14T12:26:29Z</time>
      </trkpt>
      <trkpt lat="54.155507991090417" lon="12.563699036836624">
        <ele>38.590000000000003</ele>
        <time>2024-09-14T12:26:30Z</time>
      </trkpt>
      <trkpt lat="54.155551996082067" lon="12.56351999938488">
        <ele>39.07</ele>
        <time>2024-09-14T12:26:31Z</time>
      </trkpt>
      <trkpt lat="54.155973019078374" lon="12.561835991218686">
        <ele>39.549999999999997</ele>
        <time>2024-09-14T12:26:39Z</time>
      </trkpt>
      <trkpt lat="54.156548017635942" lon="12.559186974540353">
        <ele>37.149999999999999</ele>
        <time>2024-09-14T12:26:48Z</time>
      </trkpt>
      <trkpt lat="54.157050009816885" lon="12.556244004517794">
        <ele>37.630000000000003</ele>
        <time>2024-09-14T12:26:56Z</time>
      </trkpt>
      <trkpt lat="54.157539010047913" lon="12.553138006478548">
        <ele>34.259999999999998</ele>
        <time>2024-09-14T12:27:04Z</time>
      </trkpt>
      <trkpt lat="54.157842015847564" lon="12.550475997850299">
        <ele>30.420000000000002</ele>
        <time>2024-09-14T12:27:11Z</time>
      </trkpt>
      <trkpt lat="54.157862970605493" lon="12.550121024250984">
        <ele>29.940000000000001</ele>
        <time>2024-09-14T12:27:12Z</time>
      </trkpt>
      <trkpt lat="54.157961960881948" lon="12.547612991183996">
        <ele>28.02</ele>
        <time>2024-09-14T12:27:20Z</time>
      </trkpt>
      <trkpt lat="54.158077966421843" lon="12.545518018305302">
        <ele>28.02</ele>
        <time>2024-09-14T12:27:27Z</time>
      </trkpt>
      <trkpt lat="54.158226996660233" lon="12.543101012706757">
        <ele>27.530000000000001</ele>
        <time>2024-09-14T12:27:35Z</time>
      </trkpt>
      <trkpt lat="54.158340990543365" lon="12.541255988180637">
        <ele>23.210000000000001</ele>
        <time>2024-09-14T12:27:41Z</time>
      </trkpt>
      <trkpt lat="54.158488009124994" lon="12.539068982005119">
        <ele>25.129999999999999</ele>
        <time>2024-09-14T12:27:48Z</time>
      </trkpt>
      <trkpt lat="54.158771988004446" lon="12.537232004106045">
        <ele>26.09</ele>
        <time>2024-09-14T12:27:55Z</time>
      </trkpt>
      <trkpt lat="54.159002993255854" lon="12.53599701449275">
        <ele>24.649999999999999</ele>
        <time>2024-09-14T12:28:03Z</time>
      </trkpt>
      <trkpt lat="54.159180019050837" lon="12.535048015415668">
        <ele>22.73</ele>
        <time>2024-09-14T12:28:10Z</time>
      </trkpt>
      <trkpt lat="54.159212037920952" lon="12.534917006269097">
        <ele>22.25</ele>
        <time>2024-09-14T12:28:11Z</time>
      </trkpt>
      <trkpt lat="54.159247996285558" lon="12.534775016829371">
        <ele>22.25</ele>
        <time>2024-09-14T12:28:12Z</time>
      </trkpt>
      <trkpt lat="54.159284960478544" lon="12.534635961055756">
        <ele>21.77</ele>
        <time>2024-09-14T12:28:13Z</time>
      </trkpt>
      <trkpt lat="54.159321002662182" lon="12.53449397161603">
        <ele>21.289999999999999</ele>
        <time>2024-09-14T12:28:14Z</time>
      </trkpt>
      <trkpt lat="54.159386968240142" lon="12.534354999661446">
        <ele>21.289999999999999</ele>
        <time>2024-09-14T12:28:15Z</time>
      </trkpt>
      <trkpt lat="54.159459974616766" lon="12.534237988293171">
        <ele>21.289999999999999</ele>
        <time>2024-09-14T12:28:16Z</time>
      </trkpt>
      <trkpt lat="54.159527029842138" lon="12.534130029380322">
        <ele>21.289999999999999</ele>
        <time>2024-09-14T12:28:17Z</time>
      </trkpt>
      <trkpt lat="54.159606993198395" lon="12.534031961113214">
        <ele>21.289999999999999</ele>
        <time>2024-09-14T12:28:18Z</time>
      </trkpt>
      <trkpt lat="54.159687962383032" lon="12.533945040777326">
        <ele>21.289999999999999</ele>
        <time>2024-09-14T12:28:19Z</time>
      </trkpt>
      <trkpt lat="54.160348959267139" lon="12.533070975914598">
        <ele>21.77</ele>
        <time>2024-09-14T12:28:28Z</time>
      </trkpt>
      <trkpt lat="54.160967962816358" lon="12.531687961891294">
        <ele>22.73</ele>
        <time>2024-09-14T12:28:39Z</time>
      </trkpt>
      <trkpt lat="54.160986989736557" lon="12.531584026291966">
        <ele>22.25</ele>
        <time>2024-09-14T12:28:40Z</time>
      </trkpt>
      <trkpt lat="54.161263005807996" lon="12.530204029753804">
        <ele>23.210000000000001</ele>
        <time>2024-09-14T12:28:46Z</time>
      </trkpt>
      <trkpt lat="54.161632983013988" lon="12.528978008776903">
        <ele>27.530000000000001</ele>
        <time>2024-09-14T12:28:52Z</time>
      </trkpt>
      <trkpt lat="54.161655027419329" lon="12.528902990743518">
        <ele>28.5</ele>
        <time>2024-09-14T12:28:53Z</time>
      </trkpt>
      <trkpt lat="54.161667013540864" lon="12.528862003237009">
        <ele>29.460000000000001</ele>
        <time>2024-09-14T12:28:54Z</time>
      </trkpt>
      <trkpt lat="54.161674976348877" lon="12.528838030993938">
        <ele>30.420000000000002</ele>
        <time>2024-09-14T12:28:55Z</time>
      </trkpt>
      <trkpt lat="54.161674976348877" lon="12.528838030993938">
        <ele>31.379999999999999</ele>
        <time>2024-09-14T12:29:07Z</time>
      </trkpt>
      <trkpt lat="54.161674976348877" lon="12.528838030993938">
        <ele>33.299999999999997</ele>
        <time>2024-09-14T12:29:53Z</time>
      </trkpt>
      <trkpt lat="54.161674976348877" lon="12.528838030993938">
        <ele>33.299999999999997</ele>
        <time>2024-09-14T12:30:39Z</time>
      </trkpt>
      <trkpt lat="54.161674976348877" lon="12.528838030993938">
        <ele>33.299999999999997</ele>
        <time>2024-09-14T12:31:24Z</time>
      </trkpt>
      <trkpt lat="54.161730967462063" lon="12.528651030734181">
        <ele>34.259999999999998</ele>
        <time>2024-09-14T12:31:41Z</time>
      </trkpt>
      <trkpt lat="54.1617670096457" lon="12.528533013537526">
        <ele>34.259999999999998</ele>
        <time>2024-09-14T12:31:42Z</time>
      </trkpt>
      <trkpt lat="54.162115026265383" lon="12.527376981452107">
        <ele>32.82</ele>
        <time>2024-09-14T12:31:48Z</time>
      </trkpt>
      <trkpt lat="54.162634033709764" lon="12.525655003264546">
        <ele>30.420000000000002</ele>
        <time>2024-09-14T12:31:57Z</time>
      </trkpt>
      <trkpt lat="54.163143988698721" lon="12.52396697178483">
        <ele>29.460000000000001</ele>
        <time>2024-09-14T12:32:07Z</time>
      </trkpt>
      <trkpt lat="54.16346400976181" lon="12.522904984652996">
        <ele>31.859999999999999</ele>
        <time>2024-09-14T12:32:14Z</time>
      </trkpt>
      <trkpt lat="54.163834992796183" lon="12.521675024181604">
        <ele>36.189999999999998</ele>
        <time>2024-09-14T12:32:25Z</time>
      </trkpt>
      <trkpt lat="54.163966001942754" lon="12.521238997578621">
        <ele>34.259999999999998</ele>
        <time>2024-09-14T12:32:29Z</time>
      </trkpt>
      <trkpt lat="54.16399902664125" lon="12.52112902700901">
        <ele>33.299999999999997</ele>
        <time>2024-09-14T12:32:30Z</time>
      </trkpt>
      <trkpt lat="54.164032973349094" lon="12.521018972620368">
        <ele>32.340000000000003</ele>
        <time>2024-09-14T12:32:31Z</time>
      </trkpt>
      <trkpt lat="54.16406599804759" lon="12.520906990393996">
        <ele>31.859999999999999</ele>
        <time>2024-09-14T12:32:32Z</time>
      </trkpt>
      <trkpt lat="54.164099022746086" lon="12.520798025652766">
        <ele>31.379999999999999</ele>
        <time>2024-09-14T12:32:33Z</time>
      </trkpt>
      <trkpt lat="54.164130035787821" lon="12.520696017891169">
        <ele>30.899999999999999</ele>
        <time>2024-09-14T12:32:34Z</time>
      </trkpt>
      <trkpt lat="54.164160965010524" lon="12.520594010129571">
        <ele>29.940000000000001</ele>
        <time>2024-09-14T12:32:35Z</time>
      </trkpt>
      <trkpt lat="54.164197007194161" lon="12.520473981276155">
        <ele>29.460000000000001</ele>
        <time>2024-09-14T12:32:36Z</time>
      </trkpt>
      <trkpt lat="54.16423799470067" lon="12.520338026806712">
        <ele>28.98</ele>
        <time>2024-09-14T12:32:37Z</time>
      </trkpt>
      <trkpt lat="54.16427998803556" lon="12.520196037366986">
        <ele>28.02</ele>
        <time>2024-09-14T12:32:38Z</time>
      </trkpt>
      <trkpt lat="54.164321981370449" lon="12.520059999078512">
        <ele>27.530000000000001</ele>
        <time>2024-09-14T12:32:39Z</time>
      </trkpt>
      <trkpt lat="54.16488197632134" lon="12.518200976774096">
        <ele>27.530000000000001</ele>
        <time>2024-09-14T12:32:53Z</time>
      </trkpt>
      <trkpt lat="54.165200991556048" lon="12.517143012955785">
        <ele>26.09</ele>
        <time>2024-09-14T12:33:01Z</time>
      </trkpt>
      <trkpt lat="54.165580021217465" lon="12.515885978937149">
        <ele>23.210000000000001</ele>
        <time>2024-09-14T12:33:10Z</time>
      </trkpt>
      <trkpt lat="54.166262978687882" lon="12.513620015233755">
        <ele>25.609999999999999</ele>
        <time>2024-09-14T12:33:19Z</time>
      </trkpt>
      <trkpt lat="54.167218012735248" lon="12.510546036064625">
        <ele>27.050000000000001</ele>
        <time>2024-09-14T12:33:30Z</time>
      </trkpt>
      <trkpt lat="54.168029967695475" lon="12.508782986551523">
        <ele>26.57</ele>
        <time>2024-09-14T12:33:37Z</time>
      </trkpt>
      <trkpt lat="54.169891001656651" lon="12.505473978817463">
        <ele>26.57</ele>
        <time>2024-09-14T12:33:51Z</time>
      </trkpt>
      <trkpt lat="54.171718005090952" lon="12.502238983288407">
        <ele>26.09</ele>
        <time>2024-09-14T12:34:04Z</time>
      </trkpt>
      <trkpt lat="54.173046033829451" lon="12.499887021258473">
        <ele>23.690000000000001</ele>
        <time>2024-09-14T12:34:14Z</time>
      </trkpt>
      <trkpt lat="54.173548026010394" lon="12.498854035511613">
        <ele>22.73</ele>
        <time>2024-09-14T12:34:21Z</time>
      </trkpt>
      <trkpt lat="54.173619020730257" lon="12.498707016929984">
        <ele>22.73</ele>
        <time>2024-09-14T12:34:22Z</time>
      </trkpt>
      <trkpt lat="54.173918003216386" lon="12.498159008100629">
        <ele>22.25</ele>
        <time>2024-09-14T12:34:26Z</time>
      </trkpt>
      <trkpt lat="54.173993021249771" lon="12.498050965368748">
        <ele>21.77</ele>
        <time>2024-09-14T12:34:27Z</time>
      </trkpt>
      <trkpt lat="54.174080025404692" lon="12.498000003397465">
        <ele>21.77</ele>
        <time>2024-09-14T12:34:28Z</time>
      </trkpt>
      <trkpt lat="54.174169963225722" lon="12.497948035597801">
        <ele>21.77</ele>
        <time>2024-09-14T12:34:29Z</time>
      </trkpt>
      <trkpt lat="54.174266019836068" lon="12.497905036434531">
        <ele>21.289999999999999</ele>
        <time>2024-09-14T12:34:30Z</time>
      </trkpt>
      <trkpt lat="54.174361992627382" lon="12.497881986200809">
        <ele>20.809999999999999</ele>
        <time>2024-09-14T12:34:31Z</time>
      </trkpt>
      <trkpt lat="54.174457965418696" lon="12.497859019786119">
        <ele>20.809999999999999</ele>
        <time>2024-09-14T12:34:32Z</time>
      </trkpt>
      <trkpt lat="54.17474303394556" lon="12.497790036723018">
        <ele>19.84</ele>
        <time>2024-09-14T12:34:35Z</time>
      </trkpt>
      <trkpt lat="54.174820985645056" lon="12.497729016467929">
        <ele>19.84</ele>
        <time>2024-09-14T12:34:36Z</time>
      </trkpt>
      <trkpt lat="54.174900026991963" lon="12.497649975121021">
        <ele>19.359999999999999</ele>
        <time>2024-09-14T12:34:37Z</time>
      </trkpt>
      <trkpt lat="54.174956018105149" lon="12.497532041743398">
        <ele>19.359999999999999</ele>
        <time>2024-09-14T12:34:38Z</time>
      </trkpt>
      <trkpt lat="54.174992982298136" lon="12.497376976534724">
        <ele>18.879999999999999</ele>
        <time>2024-09-14T12:34:39Z</time>
      </trkpt>
      <trkpt lat="54.175031036138535" lon="12.49721797183156">
        <ele>18.399999999999999</ele>
        <time>2024-09-14T12:34:40Z</time>
      </trkpt>
      <trkpt lat="54.175070011988282" lon="12.497056033462286">
        <ele>17.920000000000002</ele>
        <time>2024-09-14T12:34:41Z</time>
      </trkpt>
      <trkpt lat="54.175405958667397" lon="12.495748037472367">
        <ele>18.399999999999999</ele>
        <time>2024-09-14T12:34:49Z</time>
      </trkpt>
      <trkpt lat="54.17547301389277" lon="12.49560697004199">
        <ele>18.399999999999999</ele>
        <time>2024-09-14T12:34:50Z</time>
      </trkpt>
      <trkpt lat="54.17553897947073" lon="12.495466992259026">
        <ele>18.879999999999999</ele>
        <time>2024-09-14T12:34:51Z</time>
      </trkpt>
      <trkpt lat="54.175622966140509" lon="12.495349980890751">
        <ele>19.84</ele>
        <time>2024-09-14T12:34:52Z</time>
      </trkpt>
      <trkpt lat="54.175716005265713" lon="12.495242021977901">
        <ele>20.32</ele>
        <time>2024-09-14T12:34:53Z</time>
      </trkpt>
      <trkpt lat="54.176609013229609" lon="12.494335016235709">
        <ele>20.32</ele>
        <time>2024-09-14T12:35:01Z</time>
      </trkpt>
      <trkpt lat="54.177790023386478" lon="12.493258025497198">
        <ele>17.920000000000002</ele>
        <time>2024-09-14T12:35:09Z</time>
      </trkpt>
      <trkpt lat="54.179632030427456" lon="12.491846010088921">
        <ele>15.039999999999999</ele>
        <time>2024-09-14T12:35:19Z</time>
      </trkpt>
      <trkpt lat="54.18153103441" lon="12.490380015224218">
        <ele>15.039999999999999</ele>
        <time>2024-09-14T12:35:29Z</time>
      </trkpt>
      <trkpt lat="54.183373963460326" lon="12.488957019522786">
        <ele>14.08</ele>
        <time>2024-09-14T12:35:39Z</time>
      </trkpt>
      <trkpt lat="54.185150004923344" lon="12.488036016002297">
        <ele>15.039999999999999</ele>
        <time>2024-09-14T12:35:48Z</time>
      </trkpt>
      <trkpt lat="54.186550034210086" lon="12.487359009683132">
        <ele>16</ele>
        <time>2024-09-14T12:35:55Z</time>
      </trkpt>
      <trkpt lat="54.188160030171275" lon="12.48658200725913">
        <ele>17.440000000000001</ele>
        <time>2024-09-14T12:36:04Z</time>
      </trkpt>
      <trkpt lat="54.189790980890393" lon="12.485805004835129">
        <ele>18.399999999999999</ele>
        <time>2024-09-14T12:36:15Z</time>
      </trkpt>
      <trkpt lat="54.191128984093666" lon="12.485169991850853">
        <ele>18.399999999999999</ele>
        <time>2024-09-14T12:36:23Z</time>
      </trkpt>
      <trkpt lat="54.191907998174429" lon="12.484801020473242">
        <ele>16.48</ele>
        <time>2024-09-14T12:36:27Z</time>
      </trkpt>
      <trkpt lat="54.192086029797792" lon="12.484717033803463">
        <ele>16</ele>
        <time>2024-09-14T12:36:28Z</time>
      </trkpt>
      <trkpt lat="54.193046009168029" lon="12.48432501219213">
        <ele>13.119999999999999</ele>
        <time>2024-09-14T12:36:35Z</time>
      </trkpt>
      <trkpt lat="54.193511959165335" lon="12.484269021078944">
        <ele>13.6</ele>
        <time>2024-09-14T12:36:39Z</time>
      </trkpt>
      <trkpt lat="54.193637017160654" lon="12.484320988878608">
        <ele>14.08</ele>
        <time>2024-09-14T12:36:40Z</time>
      </trkpt>
      <trkpt lat="54.195037968456745" lon="12.484901016578078">
        <ele>14.08</ele>
        <time>2024-09-14T12:36:50Z</time>
      </trkpt>
      <trkpt lat="54.196367003023624" lon="12.485451037064195">
        <ele>13.119999999999999</ele>
        <time>2024-09-14T12:36:59Z</time>
      </trkpt>
      <trkpt lat="54.198432974517345" lon="12.486327029764652">
        <ele>12.15</ele>
        <time>2024-09-14T12:37:10Z</time>
      </trkpt>
      <trkpt lat="54.199936017394066" lon="12.486779987812042">
        <ele>10.23</ele>
        <time>2024-09-14T12:37:18Z</time>
      </trkpt>
      <trkpt lat="54.200216978788376" lon="12.486725002527237">
        <ele>10.23</ele>
        <time>2024-09-14T12:37:20Z</time>
      </trkpt>
      <trkpt lat="54.200330972671509" lon="12.486676974222064">
        <ele>9.75</ele>
        <time>2024-09-14T12:37:21Z</time>
      </trkpt>
      <trkpt lat="54.200449995696545" lon="12.486626012250781">
        <ele>9.75</ele>
        <time>2024-09-14T12:37:22Z</time>
      </trkpt>
      <trkpt lat="54.200501963496208" lon="12.48647203668952">
        <ele>9.75</ele>
        <time>2024-09-14T12:37:23Z</time>
      </trkpt>
      <trkpt lat="54.200550997629762" lon="12.48632401227951">
        <ele>9.75</ele>
        <time>2024-09-14T12:37:24Z</time>
      </trkpt>
      <trkpt lat="54.200598020106554" lon="12.486182022839785">
        <ele>10.23</ele>
        <time>2024-09-14T12:37:25Z</time>
      </trkpt>
      <trkpt lat="54.200876969844103" lon="12.485405020415783">
        <ele>10.23</ele>
        <time>2024-09-14T12:37:30Z</time>
      </trkpt>
      <trkpt lat="54.200967997312546" lon="12.485264036804438">
        <ele>10.23</ele>
        <time>2024-09-14T12:37:31Z</time>
      </trkpt>
      <trkpt lat="54.201656989753246" lon="12.484145974740386">
        <ele>8.789999999999999</ele>
        <time>2024-09-14T12:37:39Z</time>
      </trkpt>
      <trkpt lat="54.201727984473109" lon="12.483979007229209">
        <ele>8.789999999999999</ele>
        <time>2024-09-14T12:37:40Z</time>
      </trkpt>
      <trkpt lat="54.202611017972231" lon="12.482303967699409">
        <ele>6.39</ele>
        <time>2024-09-14T12:37:51Z</time>
      </trkpt>
      <trkpt lat="54.202765999361873" lon="12.481995010748506">
        <ele>6.39</ele>
        <time>2024-09-14T12:37:53Z</time>
      </trkpt>
      <trkpt lat="54.202853003516793" lon="12.481821002438664">
        <ele>6.87</ele>
        <time>2024-09-14T12:37:54Z</time>
      </trkpt>
      <trkpt lat="54.202880999073386" lon="12.481645988300443">
        <ele>6.87</ele>
        <time>2024-09-14T12:37:55Z</time>
      </trkpt>
      <trkpt lat="54.202912012115121" lon="12.481449013575912">
        <ele>6.39</ele>
        <time>2024-09-14T12:37:56Z</time>
      </trkpt>
      <trkpt lat="54.202934978529811" lon="12.481247009709477">
        <ele>5.91</ele>
        <time>2024-09-14T12:37:57Z</time>
      </trkpt>
      <trkpt lat="54.202917963266373" lon="12.481056991964579">
        <ele>5.42</ele>
        <time>2024-09-14T12:37:58Z</time>
      </trkpt>
      <trkpt lat="54.202834982424974" lon="12.480895975604653">
        <ele>4.94</ele>
        <time>2024-09-14T12:37:59Z</time>
      </trkpt>
      <trkpt lat="54.202754013240337" lon="12.480750968679786">
        <ele>4.46</ele>
        <time>2024-09-14T12:38:00Z</time>
      </trkpt>
      <trkpt lat="54.202661979943514" lon="12.480617025867105">
        <ele>4.46</ele>
        <time>2024-09-14T12:38:01Z</time>
      </trkpt>
      <trkpt lat="54.202569024637341" lon="12.480484005063772">
        <ele>4.46</ele>
        <time>2024-09-14T12:38:02Z</time>
      </trkpt>
      <trkpt lat="54.202296026051044" lon="12.480088965967298">
        <ele>4.46</ele>
        <time>2024-09-14T12:38:05Z</time>
      </trkpt>
      <trkpt lat="54.202206004410982" lon="12.479959968477488">
        <ele>4.94</ele>
        <time>2024-09-14T12:38:06Z</time>
      </trkpt>
      <trkpt lat="54.202153030782938" lon="12.479767017066479">
        <ele>5.42</ele>
        <time>2024-09-14T12:38:07Z</time>
      </trkpt>
      <trkpt lat="54.202101984992623" lon="12.479525031521916">
        <ele>5.42</ele>
        <time>2024-09-14T12:38:08Z</time>
      </trkpt>
      <trkpt lat="54.202089998871088" lon="12.47936200350523">
        <ele>5.91</ele>
        <time>2024-09-14T12:38:09Z</time>
      </trkpt>
      <trkpt lat="54.201998971402645" lon="12.478131959214807">
        <ele>6.39</ele>
        <time>2024-09-14T12:38:15Z</time>
      </trkpt>
      <trkpt lat="54.201983967795968" lon="12.477939007803798">
        <ele>5.91</ele>
        <time>2024-09-14T12:38:16Z</time>
      </trkpt>
      <trkpt lat="54.201826974749565" lon="12.475682012736797">
        <ele>4.94</ele>
        <time>2024-09-14T12:38:25Z</time>
      </trkpt>
      <trkpt lat="54.201688002794981" lon="12.473577987402678">
        <ele>7.83</ele>
        <time>2024-09-14T12:38:32Z</time>
      </trkpt>
      <trkpt lat="54.201711975038052" lon="12.47328101657331">
        <ele>7.83</ele>
        <time>2024-09-14T12:38:33Z</time>
      </trkpt>
      <trkpt lat="54.201767966151237" lon="12.472996031865478">
        <ele>8.310000000000001</ele>
        <time>2024-09-14T12:38:34Z</time>
      </trkpt>
      <trkpt lat="54.202367020770907" lon="12.47023000381887">
        <ele>8.789999999999999</ele>
        <time>2024-09-14T12:38:44Z</time>
      </trkpt>
      <trkpt lat="54.202839005738497" lon="12.468045009300113">
        <ele>10.23</ele>
        <time>2024-09-14T12:38:53Z</time>
      </trkpt>
      <trkpt lat="54.203139999881387" lon="12.465706039220095">
        <ele>12.630000000000001</ele>
        <time>2024-09-14T12:39:02Z</time>
      </trkpt>
      <trkpt lat="54.203182999044657" lon="12.465448966249824">
        <ele>12.630000000000001</ele>
        <time>2024-09-14T12:39:03Z</time>
      </trkpt>
      <trkpt lat="54.203265979886055" lon="12.465237993746996">
        <ele>13.119999999999999</ele>
        <time>2024-09-14T12:39:04Z</time>
      </trkpt>
      <trkpt lat="54.203351978212595" lon="12.465016962960362">
        <ele>13.119999999999999</ele>
        <time>2024-09-14T12:39:05Z</time>
      </trkpt>
      <trkpt lat="54.203460020944476" lon="12.464810013771057">
        <ele>13.119999999999999</ele>
        <time>2024-09-14T12:39:06Z</time>
      </trkpt>
      <trkpt lat="54.203577032312751" lon="12.464600969105959">
        <ele>13.119999999999999</ele>
        <time>2024-09-14T12:39:07Z</time>
      </trkpt>
      <trkpt lat="54.203699994832277" lon="12.464378010481596">
        <ele>13.6</ele>
        <time>2024-09-14T12:39:08Z</time>
      </trkpt>
      <trkpt lat="54.203835027292371" lon="12.464136024937034">
        <ele>13.6</ele>
        <time>2024-09-14T12:39:09Z</time>
      </trkpt>
      <trkpt lat="54.205331029370427" lon="12.461482984945178">
        <ele>13.6</ele>
        <time>2024-09-14T12:39:19Z</time>
      </trkpt>
      <trkpt lat="54.205606961622834" lon="12.460915027186275">
        <ele>14.56</ele>
        <time>2024-09-14T12:39:21Z</time>
      </trkpt>
      <trkpt lat="54.20660600066185" lon="12.458179006353021">
        <ele>16</ele>
        <time>2024-09-14T12:39:29Z</time>
      </trkpt>
      <trkpt lat="54.206990981474519" lon="12.457187008112669">
        <ele>16</ele>
        <time>2024-09-14T12:39:32Z</time>
      </trkpt>
      <trkpt lat="54.207114027813077" lon="12.456876961514354">
        <ele>16.48</ele>
        <time>2024-09-14T12:39:33Z</time>
      </trkpt>
      <trkpt lat="54.208055986091495" lon="12.454837979748845">
        <ele>17.920000000000002</ele>
        <time>2024-09-14T12:39:40Z</time>
      </trkpt>
      <trkpt lat="54.209437994286418" lon="12.452309997752309">
        <ele>16.960000000000001</ele>
        <time>2024-09-14T12:39:50Z</time>
      </trkpt>
      <trkpt lat="54.209868991747499" lon="12.451638020575047">
        <ele>16.960000000000001</ele>
        <time>2024-09-14T12:39:53Z</time>
      </trkpt>
      <trkpt lat="54.21004300005734" lon="12.451469041407108">
        <ele>16.960000000000001</ele>
        <time>2024-09-14T12:39:54Z</time>
      </trkpt>
      <trkpt lat="54.211328029632568" lon="12.4504420068115">
        <ele>13.6</ele>
        <time>2024-09-14T12:40:01Z</time>
      </trkpt>
      <trkpt lat="54.211795991286635" lon="12.450037999078631">
        <ele>12.630000000000001</ele>
        <time>2024-09-14T12:40:04Z</time>
      </trkpt>
      <trkpt lat="54.21193496324122" lon="12.449888968840241">
        <ele>12.630000000000001</ele>
        <time>2024-09-14T12:40:05Z</time>
      </trkpt>
      <trkpt lat="54.2120620328933" lon="12.449665004387498">
        <ele>12.15</ele>
        <time>2024-09-14T12:40:06Z</time>
      </trkpt>
      <trkpt lat="54.213166013360023" lon="12.447394011542201">
        <ele>11.19</ele>
        <time>2024-09-14T12:40:15Z</time>
      </trkpt>
      <trkpt lat="54.214452970772982" lon="12.444855971261859">
        <ele>10.23</ele>
        <time>2024-09-14T12:40:25Z</time>
      </trkpt>
      <trkpt lat="54.215708998963237" lon="12.442500991746783">
        <ele>9.27</ele>
        <time>2024-09-14T12:40:35Z</time>
      </trkpt>
      <trkpt lat="54.216345017775893" lon="12.441310007125139">
        <ele>7.35</ele>
        <time>2024-09-14T12:40:42Z</time>
      </trkpt>
      <trkpt lat="54.216583985835314" lon="12.440841039642692">
        <ele>5.91</ele>
        <time>2024-09-14T12:40:48Z</time>
      </trkpt>
      <trkpt lat="54.216625979170203" lon="12.440756969153881">
        <ele>5.42</ele>
        <time>2024-09-14T12:40:53Z</time>
      </trkpt>
      <trkpt lat="54.216699991375208" lon="12.440735008567572">
        <ele>5.42</ele>
        <time>2024-09-14T12:40:54Z</time>
      </trkpt>
      <trkpt lat="54.216766962781549" lon="12.440720004960895">
        <ele>4.94</ele>
        <time>2024-09-14T12:40:55Z</time>
      </trkpt>
      <trkpt lat="54.216849021613598" lon="12.440700978040695">
        <ele>4.46</ele>
        <time>2024-09-14T12:40:56Z</time>
      </trkpt>
      <trkpt lat="54.21696100383997" lon="12.440674994140863">
        <ele>4.46</ele>
        <time>2024-09-14T12:40:57Z</time>
      </trkpt>
      <trkpt lat="54.217093018814921" lon="12.440644986927509">
        <ele>4.46</ele>
        <time>2024-09-14T12:40:58Z</time>
      </trkpt>
      <trkpt lat="54.21855197288096" lon="12.440286995843053">
        <ele>4.94</ele>
        <time>2024-09-14T12:41:07Z</time>
      </trkpt>
      <trkpt lat="54.219974968582392" lon="12.439552992582321">
        <ele>7.35</ele>
        <time>2024-09-14T12:41:15Z</time>
      </trkpt>
      <trkpt lat="54.220965960994363" lon="12.438902975991368">
        <ele>8.310000000000001</ele>
        <time>2024-09-14T12:41:22Z</time>
      </trkpt>
      <trkpt lat="54.222147976979613" lon="12.438200991600752">
        <ele>10.710000000000001</ele>
        <time>2024-09-14T12:41:30Z</time>
      </trkpt>
      <trkpt lat="54.222327014431357" lon="12.438161009922624">
        <ele>11.19</ele>
        <time>2024-09-14T12:41:31Z</time>
      </trkpt>
      <trkpt lat="54.224258037284017" lon="12.438114993274212">
        <ele>9.75</ele>
        <time>2024-09-14T12:41:41Z</time>
      </trkpt>
      <trkpt lat="54.226309005171061" lon="12.438065959140658">
        <ele>7.35</ele>
        <time>2024-09-14T12:41:51Z</time>
      </trkpt>
      <trkpt lat="54.227940961718559" lon="12.438026983290911">
        <ele>7.83</ele>
        <time>2024-09-14T12:42:00Z</time>
      </trkpt>
      <trkpt lat="54.228909993544221" lon="12.43802597746253">
        <ele>7.83</ele>
        <time>2024-09-14T12:42:08Z</time>
      </trkpt>
      <trkpt lat="54.229267984628677" lon="12.438004016876221">
        <ele>8.789999999999999</ele>
        <time>2024-09-14T12:42:15Z</time>
      </trkpt>
      <trkpt lat="54.229977009817958" lon="12.438004016876221">
        <ele>9.27</ele>
        <time>2024-09-14T12:42:22Z</time>
      </trkpt>
      <trkpt lat="54.231641991063952" lon="12.437973003834486">
        <ele>8.789999999999999</ele>
        <time>2024-09-14T12:42:33Z</time>
      </trkpt>
      <trkpt lat="54.233043026179075" lon="12.437950037419796">
        <ele>7.35</ele>
        <time>2024-09-14T12:42:43Z</time>
      </trkpt>
      <trkpt lat="54.234132003039122" lon="12.437920030206442">
        <ele>5.91</ele>
        <time>2024-09-14T12:42:52Z</time>
      </trkpt>
      <trkpt lat="54.235446033999324" lon="12.437593974173069">
        <ele>4.94</ele>
        <time>2024-09-14T12:43:03Z</time>
      </trkpt>
      <trkpt lat="54.237014958634973" lon="12.437244029715657">
        <ele>4.94</ele>
        <time>2024-09-14T12:43:16Z</time>
      </trkpt>
      <trkpt lat="54.237481998279691" lon="12.437225002795458">
        <ele>3.98</ele>
        <time>2024-09-14T12:43:20Z</time>
      </trkpt>
      <trkpt lat="54.237821968272328" lon="12.437305971980095">
        <ele>3.98</ele>
        <time>2024-09-14T12:43:24Z</time>
      </trkpt>
      <trkpt lat="54.237872008234262" lon="12.437446033582091">
        <ele>4.46</ele>
        <time>2024-09-14T12:43:25Z</time>
      </trkpt>
      <trkpt lat="54.237923976033926" lon="12.437498001381755">
        <ele>4.46</ele>
        <time>2024-09-14T12:43:26Z</time>
      </trkpt>
      <trkpt lat="54.238012991845608" lon="12.437495989724994">
        <ele>4.94</ele>
        <time>2024-09-14T12:43:27Z</time>
      </trkpt>
      <trkpt lat="54.238111982122064" lon="12.437467994168401">
        <ele>4.94</ele>
        <time>2024-09-14T12:43:28Z</time>
      </trkpt>
      <trkpt lat="54.238198986276984" lon="12.437541000545025">
        <ele>4.94</ele>
        <time>2024-09-14T12:43:29Z</time>
      </trkpt>
      <trkpt lat="54.238291019573808" lon="12.437618030235171">
        <ele>4.46</ele>
        <time>2024-09-14T12:43:30Z</time>
      </trkpt>
      <trkpt lat="54.238797035068274" lon="12.438086997717619">
        <ele>3.5</ele>
        <time>2024-09-14T12:43:35Z</time>
      </trkpt>
      <trkpt lat="54.238874986767769" lon="12.438229992985725">
        <ele>3.02</ele>
        <time>2024-09-14T12:43:36Z</time>
      </trkpt>
      <trkpt lat="54.238909017294645" lon="12.438407018780708">
        <ele>3.02</ele>
        <time>2024-09-14T12:43:37Z</time>
      </trkpt>
      <trkpt lat="54.238941958174109" lon="12.438594019040465">
        <ele>2.54</ele>
        <time>2024-09-14T12:43:38Z</time>
      </trkpt>
      <trkpt lat="54.238967020064592" lon="12.438790993764997">
        <ele>2.54</ele>
        <time>2024-09-14T12:43:39Z</time>
      </trkpt>
      <trkpt lat="54.238970959559083" lon="12.438999032601714">
        <ele>2.54</ele>
        <time>2024-09-14T12:43:40Z</time>
      </trkpt>
      <trkpt lat="54.238975988700986" lon="12.439208999276161">
        <ele>2.06</ele>
        <time>2024-09-14T12:43:41Z</time>
      </trkpt>
      <trkpt lat="54.239004990085959" lon="12.440696032717824">
        <ele>0.62</ele>
        <time>2024-09-14T12:43:48Z</time>
      </trkpt>
      <trkpt lat="54.239009013399482" lon="12.440900970250368">
        <ele>0.62</ele>
        <time>2024-09-14T12:43:49Z</time>
      </trkpt>
      <trkpt lat="54.239009013399482" lon="12.441090987995267">
        <ele>0.62</ele>
        <time>2024-09-14T12:43:50Z</time>
      </trkpt>
      <trkpt lat="54.239009013399482" lon="12.44126901961863">
        <ele>0.62</ele>
        <time>2024-09-14T12:43:51Z</time>
      </trkpt>
      <trkpt lat="54.239009013399482" lon="12.441418971866369">
        <ele>0.62</ele>
        <time>2024-09-14T12:43:52Z</time>
      </trkpt>
      <trkpt lat="54.239009013399482" lon="12.441715020686388">
        <ele>1.58</ele>
        <time>2024-09-14T12:43:57Z</time>
      </trkpt>
      <trkpt lat="54.238923015072942" lon="12.441888023167849">
        <ele>1.58</ele>
        <time>2024-09-14T12:43:58Z</time>
      </trkpt>
      <trkpt lat="54.238923015072942" lon="12.441888023167849">
        <ele>1.58</ele>
        <time>2024-09-14T12:43:59Z</time>
      </trkpt>
      <trkpt lat="54.238910023123026" lon="12.441969998180866">
        <ele>2.06</ele>
        <time>2024-09-14T12:44:00Z</time>
      </trkpt>
      <trkpt lat="54.238927038386464" lon="12.442076029255986">
        <ele>2.06</ele>
        <time>2024-09-14T12:44:01Z</time>
      </trkpt>
      <trkpt lat="54.238969031721354" lon="12.442166972905397">
        <ele>2.54</ele>
        <time>2024-09-14T12:44:02Z</time>
      </trkpt>
      <trkpt lat="54.239027034491301" lon="12.442166972905397">
        <ele>3.02</ele>
        <time>2024-09-14T12:44:03Z</time>
      </trkpt>
      <trkpt lat="54.23906902782619" lon="12.442080974578857">
        <ele>3.02</ele>
        <time>2024-09-14T12:44:04Z</time>
      </trkpt>
      <trkpt lat="54.239110015332699" lon="12.441988019272685">
        <ele>3.02</ele>
        <time>2024-09-14T12:44:05Z</time>
      </trkpt>
      <trkpt lat="54.239216968417168" lon="12.441951977089047">
        <ele>3.5</ele>
        <time>2024-09-14T12:44:06Z</time>
      </trkpt>
      <trkpt lat="54.239305984228849" lon="12.44193303398788">
        <ele>3.98</ele>
        <time>2024-09-14T12:44:07Z</time>
      </trkpt>
      <trkpt lat="54.239694988355041" lon="12.441815016791224">
        <ele>6.39</ele>
        <time>2024-09-14T12:44:11Z</time>
      </trkpt>
      <trkpt lat="54.239784004166722" lon="12.441761959344149">
        <ele>6.87</ele>
        <time>2024-09-14T12:44:12Z</time>
      </trkpt>
      <trkpt lat="54.239860028028488" lon="12.44167897850275">
        <ele>6.87</ele>
        <time>2024-09-14T12:44:13Z</time>
      </trkpt>
      <trkpt lat="54.239901015534997" lon="12.441543024033308">
        <ele>6.87</ele>
        <time>2024-09-14T12:44:14Z</time>
      </trkpt>
      <trkpt lat="54.239924987778068" lon="12.44137697853148">
        <ele>6.87</ele>
        <time>2024-09-14T12:44:15Z</time>
      </trkpt>
      <trkpt lat="54.239926999434829" lon="12.441201964393258">
        <ele>6.87</ele>
        <time>2024-09-14T12:44:16Z</time>
      </trkpt>
      <trkpt lat="54.239919036626816" lon="12.441019993275404">
        <ele>6.39</ele>
        <time>2024-09-14T12:44:17Z</time>
      </trkpt>
      <trkpt lat="54.239833038300276" lon="12.440056996420026">
        <ele>4.46</ele>
        <time>2024-09-14T12:44:23Z</time>
      </trkpt>
      <trkpt lat="54.239803031086922" lon="12.439056029543281">
        <ele>2.06</ele>
        <time>2024-09-14T12:44:32Z</time>
      </trkpt>
      <trkpt lat="54.239803031086922" lon="12.439056029543281">
        <ele>1.58</ele>
        <time>2024-09-14T12:44:33Z</time>
      </trkpt>
      <trkpt lat="54.239695994183421" lon="12.43832596577704">
        <ele>1.1</ele>
        <time>2024-09-14T12:44:37Z</time>
      </trkpt>
      <trkpt lat="54.239688031375408" lon="12.4382399674505">
        <ele>1.1</ele>
        <time>2024-09-14T12:44:38Z</time>
      </trkpt>
      <trkpt lat="54.239664981141686" lon="12.437966968864202">
        <ele>0.62</ele>
        <time>2024-09-14T12:44:40Z</time>
      </trkpt>
      <trkpt lat="54.239654000848532" lon="12.437826991081238">
        <ele>0.62</ele>
        <time>2024-09-14T12:44:41Z</time>
      </trkpt>
      <trkpt lat="54.239641008898616" lon="12.437678966671228">
        <ele>0.14</ele>
        <time>2024-09-14T12:44:42Z</time>
      </trkpt>
      <trkpt lat="54.239578982815146" lon="12.4369499925524">
        <ele>-0.82</ele>
        <time>2024-09-14T12:44:48Z</time>
      </trkpt>
      <trkpt lat="54.239573031663895" lon="12.436872040852904">
        <ele>-0.82</ele>
        <time>2024-09-14T12:44:49Z</time>
      </trkpt>
      <trkpt lat="54.239591974765062" lon="12.436791993677616">
        <ele>-0.82</ele>
        <time>2024-09-14T12:44:50Z</time>
      </trkpt>
      <trkpt lat="54.239647965878248" lon="12.436768021434546">
        <ele>-0.82</ele>
        <time>2024-09-14T12:44:51Z</time>
      </trkpt>
      <trkpt lat="54.23971401527524" lon="12.436741031706333">
        <ele>-0.82</ele>
        <time>2024-09-14T12:44:52Z</time>
      </trkpt>
      <trkpt lat="54.239790039137006" lon="12.436709012836218">
        <ele>-0.82</ele>
        <time>2024-09-14T12:44:53Z</time>
      </trkpt>
      <trkpt lat="54.24046796746552" lon="12.436423022300005">
        <ele>-1.79</ele>
        <time>2024-09-14T12:45:02Z</time>
      </trkpt>
      <trkpt lat="54.24050803296268" lon="12.436406007036567">
        <ele>-2.27</ele>
        <time>2024-09-14T12:45:03Z</time>
      </trkpt>
      <trkpt lat="54.240537034347653" lon="12.436394020915031">
        <ele>-2.27</ele>
        <time>2024-09-14T12:45:04Z</time>
      </trkpt>
      <trkpt lat="54.24055396579206" lon="12.436386980116367">
        <ele>-3.23</ele>
        <time>2024-09-14T12:45:14Z</time>
      </trkpt>
      <trkpt lat="54.24055396579206" lon="12.436386980116367">
        <ele>-3.23</ele>
        <time>2024-09-14T12:46:01Z</time>
      </trkpt>
      <trkpt lat="54.24074599519372" lon="12.43630601093173">
        <ele>-3.71</ele>
        <time>2024-09-14T12:46:26Z</time>
      </trkpt>
      <trkpt lat="54.24079000018537" lon="12.436287989839911">
        <ele>-3.71</ele>
        <time>2024-09-14T12:46:27Z</time>
      </trkpt>
      <trkpt lat="54.240946993231773" lon="12.43626301176846">
        <ele>-3.23</ele>
        <time>2024-09-14T12:46:28Z</time>
      </trkpt>
      <trkpt lat="54.240958979353309" lon="12.436154969036579">
        <ele>-3.23</ele>
        <time>2024-09-14T12:46:29Z</time>
      </trkpt>
      <trkpt lat="54.240970965474844" lon="12.436038963496685">
        <ele>-3.23</ele>
        <time>2024-09-14T12:46:30Z</time>
      </trkpt>
      <trkpt lat="54.24098202958703" lon="12.435937961563468">
        <ele>-3.23</ele>
        <time>2024-09-14T12:46:31Z</time>
      </trkpt>
      <trkpt lat="54.240992004051805" lon="12.435841988772154">
        <ele>-2.75</ele>
        <time>2024-09-14T12:46:32Z</time>
      </trkpt>
      <trkpt lat="54.241032991558313" lon="12.435457007959485">
        <ele>-2.75</ele>
        <time>2024-09-14T12:46:38Z</time>
      </trkpt>
      <trkpt lat="54.241276988759637" lon="12.435576030984521">
        <ele>-2.75</ele>
        <time>2024-09-14T12:46:42Z</time>
      </trkpt>
      <trkpt lat="54.241942008957267" lon="12.435779962688684">
        <ele>-3.71</ele>
        <time>2024-09-14T12:46:51Z</time>
      </trkpt>
      <trkpt lat="54.242214001715183" lon="12.435851041227579">
        <ele>-3.71</ele>
        <time>2024-09-14T12:47:00Z</time>
      </trkpt>
      <trkpt lat="54.242214001715183" lon="12.435851041227579">
        <ele>-3.71</ele>
        <time>2024-09-14T12:47:35Z</time>
      </trkpt>
      <trkpt lat="54.242570986971259" lon="12.435879958793521">
        <ele>-3.71</ele>
        <time>2024-09-14T12:47:54Z</time>
      </trkpt>
      <trkpt lat="54.242570986971259" lon="12.435879958793521">
        <ele>-3.71</ele>
        <time>2024-09-14T12:47:55Z</time>
      </trkpt>
      <trkpt lat="54.24257299862802" lon="12.435865039005876">
        <ele>-3.71</ele>
        <time>2024-09-14T12:47:56Z</time>
      </trkpt>
      <trkpt lat="54.242581967264414" lon="12.435782980173826">
        <ele>-3.71</ele>
        <time>2024-09-14T12:47:57Z</time>
      </trkpt>
      <trkpt lat="54.2425930313766" lon="12.435676027089357">
        <ele>-3.23</ele>
        <time>2024-09-14T12:47:58Z</time>
      </trkpt>
      <trkpt lat="54.242606023326516" lon="12.435558009892702">
        <ele>-3.23</ele>
        <time>2024-09-14T12:47:59Z</time>
      </trkpt>
      <trkpt lat="54.24272496253252" lon="12.434256970882416">
        <ele>-2.27</ele>
        <time>2024-09-14T12:48:08Z</time>
      </trkpt>
      <trkpt lat="54.242800986394286" lon="12.433477034792304">
        <ele>-1.79</ele>
        <time>2024-09-14T12:48:14Z</time>
      </trkpt>
      <trkpt lat="54.242963008582592" lon="12.432067031040788">
        <ele>-0.82</ele>
        <time>2024-09-14T12:48:25Z</time>
      </trkpt>
      <trkpt lat="54.24310902133584" lon="12.430604975670576">
        <ele>-2.75</ele>
        <time>2024-09-14T12:48:36Z</time>
      </trkpt>
      <trkpt lat="54.243311025202274" lon="12.428852990269661">
        <ele>-2.75</ele>
        <time>2024-09-14T12:48:49Z</time>
      </trkpt>
      <trkpt lat="54.243329968303442" lon="12.428711000829935">
        <ele>-2.75</ele>
        <time>2024-09-14T12:48:50Z</time>
      </trkpt>
      <trkpt lat="54.243546975776553" lon="12.427160013467073">
        <ele>-4.19</ele>
        <time>2024-09-14T12:49:01Z</time>
      </trkpt>
      <trkpt lat="54.243568014353514" lon="12.427016012370586">
        <ele>-4.67</ele>
        <time>2024-09-14T12:49:02Z</time>
      </trkpt>
      <trkpt lat="54.243588969111443" lon="12.426868993788958">
        <ele>-4.67</ele>
        <time>2024-09-14T12:49:03Z</time>
      </trkpt>
      <trkpt lat="54.24360397271812" lon="12.426719041541219">
        <ele>-4.67</ele>
        <time>2024-09-14T12:49:04Z</time>
      </trkpt>
      <trkpt lat="54.243616964668036" lon="12.426399020478129">
        <ele>-3.71</ele>
        <time>2024-09-14T12:49:06Z</time>
      </trkpt>
      <trkpt lat="54.2436240054667" lon="12.426236998289824">
        <ele>-3.71</ele>
        <time>2024-09-14T12:49:07Z</time>
      </trkpt>
      <trkpt lat="54.243639009073377" lon="12.425565021112561">
        <ele>-3.71</ele>
        <time>2024-09-14T12:49:11Z</time>
      </trkpt>
      <trkpt lat="54.243631968274713" lon="12.425397969782352">
        <ele>-3.71</ele>
        <time>2024-09-14T12:49:12Z</time>
      </trkpt>
      <trkpt lat="54.243593998253345" lon="12.424739990383387">
        <ele>-5.15</ele>
        <time>2024-09-14T12:49:16Z</time>
      </trkpt>
      <trkpt lat="54.243586035445333" lon="12.424578974023461">
        <ele>-5.63</ele>
        <time>2024-09-14T12:49:17Z</time>
      </trkpt>
      <trkpt lat="54.24355803988874" lon="12.423959970474243">
        <ele>-6.11</ele>
        <time>2024-09-14T12:49:21Z</time>
      </trkpt>
      <trkpt lat="54.24355803988874" lon="12.423598961904645">
        <ele>-6.11</ele>
        <time>2024-09-14T12:49:24Z</time>
      </trkpt>
      <trkpt lat="54.243615036830306" lon="12.423592004925013">
        <ele>-6.11</ele>
        <time>2024-09-14T12:49:25Z</time>
      </trkpt>
      <trkpt lat="54.243677984923124" lon="12.423503994941711">
        <ele>-6.59</ele>
        <time>2024-09-14T12:49:26Z</time>
      </trkpt>
      <trkpt lat="54.24364403821528" lon="12.42326301522553">
        <ele>-6.59</ele>
        <time>2024-09-14T12:49:27Z</time>
      </trkpt>
      <trkpt lat="54.243658035993576" lon="12.42322102189064">
        <ele>-6.59</ele>
        <time>2024-09-14T12:49:28Z</time>
      </trkpt>
      <trkpt lat="54.243697011843324" lon="12.423105016350746">
        <ele>-6.59</ele>
        <time>2024-09-14T12:49:29Z</time>
      </trkpt>
      <trkpt lat="54.243740011006594" lon="12.422974007204175">
        <ele>-6.11</ele>
        <time>2024-09-14T12:49:30Z</time>
      </trkpt>
      <trkpt lat="54.244314003735781" lon="12.421311037614942">
        <ele>-6.59</ele>
        <time>2024-09-14T12:49:42Z</time>
      </trkpt>
      <trkpt lat="54.244363959878683" lon="12.421174999326468">
        <ele>-6.59</ele>
        <time>2024-09-14T12:49:43Z</time>
      </trkpt>
      <trkpt lat="54.244506033137441" lon="12.420780966058373">
        <ele>-7.07</ele>
        <time>2024-09-14T12:49:46Z</time>
      </trkpt>
      <trkpt lat="54.244540985673666" lon="12.420638976618648">
        <ele>-7.07</ele>
        <time>2024-09-14T12:49:47Z</time>
      </trkpt>
      <trkpt lat="54.244932001456618" lon="12.419040966778994">
        <ele>-6.59</ele>
        <time>2024-09-14T12:49:58Z</time>
      </trkpt>
      <trkpt lat="54.245393006131053" lon="12.41701397113502">
        <ele>-8.51</ele>
        <time>2024-09-14T12:50:11Z</time>
      </trkpt>
      <trkpt lat="54.245853004977107" lon="12.415009019896388">
        <ele>-6.59</ele>
        <time>2024-09-14T12:50:22Z</time>
      </trkpt>
      <trkpt lat="54.246378969401121" lon="12.412666026502848">
        <ele>-6.11</ele>
        <time>2024-09-14T12:50:35Z</time>
      </trkpt>
      <trkpt lat="54.246878027915955" lon="12.410497041419148">
        <ele>-6.59</ele>
        <time>2024-09-14T12:50:48Z</time>
      </trkpt>
      <trkpt lat="54.247337020933628" lon="12.408412965014577">
        <ele>-5.15</ele>
        <time>2024-09-14T12:50:59Z</time>
      </trkpt>
      <trkpt lat="54.247930040583014" lon="12.405722960829735">
        <ele>-6.59</ele>
        <time>2024-09-14T12:51:13Z</time>
      </trkpt>
      <trkpt lat="54.24843798391521" lon="12.403205037117004">
        <ele>-7.07</ele>
        <time>2024-09-14T12:51:26Z</time>
      </trkpt>
      <trkpt lat="54.248812990263104" lon="12.401211988180876">
        <ele>-5.15</ele>
        <time>2024-09-14T12:51:36Z</time>
      </trkpt>
      <trkpt lat="54.249120019376278" lon="12.399082984775305">
        <ele>-3.71</ele>
        <time>2024-09-14T12:51:43Z</time>
      </trkpt>
      <trkpt lat="54.249387988820672" lon="12.397415991872549">
        <ele>-3.71</ele>
        <time>2024-09-14T12:51:48Z</time>
      </trkpt>
      <trkpt lat="54.249477004632354" lon="12.397124972194433">
        <ele>-3.71</ele>
        <time>2024-09-14T12:51:49Z</time>
      </trkpt>
      <trkpt lat="54.249569037929177" lon="12.396823978051543">
        <ele>-4.19</ele>
        <time>2024-09-14T12:51:50Z</time>
      </trkpt>
      <trkpt lat="54.250847026705742" lon="12.39348404109478">
        <ele>-7.07</ele>
        <time>2024-09-14T12:52:01Z</time>
      </trkpt>
      <trkpt lat="54.252202967181802" lon="12.391253029927611">
        <ele>-8.029999999999999</ele>
        <time>2024-09-14T12:52:10Z</time>
      </trkpt>
      <trkpt lat="54.252939987927675" lon="12.390037989243865">
        <ele>-7.55</ele>
        <time>2024-09-14T12:52:17Z</time>
      </trkpt>
      <trkpt lat="54.253513980656862" lon="12.38899502903223">
        <ele>-6.11</ele>
        <time>2024-09-14T12:52:24Z</time>
      </trkpt>
      <trkpt lat="54.253752026706934" lon="12.388279968872666">
        <ele>-7.07</ele>
        <time>2024-09-14T12:52:28Z</time>
      </trkpt>
      <trkpt lat="54.253799971193075" lon="12.388090034946799">
        <ele>-7.07</ele>
        <time>2024-09-14T12:52:29Z</time>
      </trkpt>
      <trkpt lat="54.253818998113275" lon="12.387887025251985">
        <ele>-7.55</ele>
        <time>2024-09-14T12:52:30Z</time>
      </trkpt>
      <trkpt lat="54.254118986427784" lon="12.385248988866806">
        <ele>-7.55</ele>
        <time>2024-09-14T12:52:43Z</time>
      </trkpt>
      <trkpt lat="54.254157962277532" lon="12.382970033213496">
        <ele>-5.63</ele>
        <time>2024-09-14T12:52:54Z</time>
      </trkpt>
      <trkpt lat="54.254157962277532" lon="12.382708014920354">
        <ele>-5.63</ele>
        <time>2024-09-14T12:52:55Z</time>
      </trkpt>
      <trkpt lat="54.254160979762673" lon="12.382558984681964">
        <ele>-6.11</ele>
        <time>2024-09-14T12:52:56Z</time>
      </trkpt>
      <trkpt lat="54.254181012511253" lon="12.381495991721749">
        <ele>-5.63</ele>
        <time>2024-09-14T12:53:01Z</time>
      </trkpt>
      <trkpt lat="54.254185035824776" lon="12.381300022825599">
        <ele>-5.63</ele>
        <time>2024-09-14T12:53:02Z</time>
      </trkpt>
      <trkpt lat="54.254188975319266" lon="12.381095001474023">
        <ele>-5.15</ele>
        <time>2024-09-14T12:53:03Z</time>
      </trkpt>
      <trkpt lat="54.254192998632789" lon="12.380871959030628">
        <ele>-5.15</ele>
        <time>2024-09-14T12:53:04Z</time>
      </trkpt>
      <trkpt lat="54.254197021946311" lon="12.380643971264362">
        <ele>-5.15</ele>
        <time>2024-09-14T12:53:05Z</time>
      </trkpt>
      <trkpt lat="54.254231974482536" lon="12.380173997953534">
        <ele>-5.15</ele>
        <time>2024-09-14T12:53:07Z</time>
      </trkpt>
      <trkpt lat="54.254393996670842" lon="12.379295993596315">
        <ele>-4.19</ele>
        <time>2024-09-14T12:53:10Z</time>
      </trkpt>
      <trkpt lat="54.254795992746949" lon="12.37745800986886">
        <ele>-0.34</ele>
        <time>2024-09-14T12:53:17Z</time>
      </trkpt>
      <trkpt lat="54.255385994911194" lon="12.374769011512399">
        <ele>3.98</ele>
        <time>2024-09-14T12:53:25Z</time>
      </trkpt>
      <trkpt lat="54.256030982360244" lon="12.371774995699525">
        <ele>8.789999999999999</ele>
        <time>2024-09-14T12:53:33Z</time>
      </trkpt>
      <trkpt lat="54.256900018081069" lon="12.367753023281693">
        <ele>21.77</ele>
        <time>2024-09-14T12:53:44Z</time>
      </trkpt>
      <trkpt lat="54.25741801969707" lon="12.365354960784316">
        <ele>28.5</ele>
        <time>2024-09-14T12:53:50Z</time>
      </trkpt>
      <trkpt lat="54.258332988247275" lon="12.361116986721754">
        <ele>34.740000000000002</ele>
        <time>2024-09-14T12:54:01Z</time>
      </trkpt>
      <trkpt lat="54.259191965684295" lon="12.357257036492229">
        <ele>39.549999999999997</ele>
        <time>2024-09-14T12:54:11Z</time>
      </trkpt>
      <trkpt lat="54.259323980659246" lon="12.356883035972714">
        <ele>39.549999999999997</ele>
        <time>2024-09-14T12:54:12Z</time>
      </trkpt>
      <trkpt lat="54.259466975927353" lon="12.35659796744585">
        <ele>39.549999999999997</ele>
        <time>2024-09-14T12:54:13Z</time>
      </trkpt>
      <trkpt lat="54.259618017822504" lon="12.356323041021824">
        <ele>39.07</ele>
        <time>2024-09-14T12:54:14Z</time>
      </trkpt>
      <trkpt lat="54.259776016697288" lon="12.356083989143372">
        <ele>38.109999999999999</ele>
        <time>2024-09-14T12:54:15Z</time>
      </trkpt>
      <trkpt lat="54.260599035769701" lon="12.354796025902033">
        <ele>29.460000000000001</ele>
        <time>2024-09-14T12:54:22Z</time>
      </trkpt>
      <trkpt lat="54.260940011590719" lon="12.353984992951155">
        <ele>22.73</ele>
        <time>2024-09-14T12:54:29Z</time>
      </trkpt>
      <trkpt lat="54.260948980227113" lon="12.353917015716434">
        <ele>21.77</ele>
        <time>2024-09-14T12:54:30Z</time>
      </trkpt>
      <trkpt lat="54.261087030172348" lon="12.353852977976203">
        <ele>21.289999999999999</ele>
        <time>2024-09-14T12:54:31Z</time>
      </trkpt>
      <trkpt lat="54.261138997972012" lon="12.353863958269358">
        <ele>20.809999999999999</ele>
        <time>2024-09-14T12:54:32Z</time>
      </trkpt>
      <trkpt lat="54.261204041540623" lon="12.353878039866686">
        <ele>20.32</ele>
        <time>2024-09-14T12:54:33Z</time>
      </trkpt>
      <trkpt lat="54.261261038482189" lon="12.353890025988221">
        <ele>19.359999999999999</ele>
        <time>2024-09-14T12:54:34Z</time>
      </trkpt>
      <trkpt lat="54.262073999270797" lon="12.354068979620934">
        <ele>15.039999999999999</ele>
        <time>2024-09-14T12:54:40Z</time>
      </trkpt>
      <trkpt lat="54.263807041570544" lon="12.354637021198869">
        <ele>8.789999999999999</ele>
        <time>2024-09-14T12:54:52Z</time>
      </trkpt>
      <trkpt lat="54.265814004465938" lon="12.355387033894658">
        <ele>4.46</ele>
        <time>2024-09-14T12:55:05Z</time>
      </trkpt>
      <trkpt lat="54.268201002851129" lon="12.356005031615496">
        <ele>3.5</ele>
        <time>2024-09-14T12:55:18Z</time>
      </trkpt>
      <trkpt lat="54.269859027117491" lon="12.356598973274231">
        <ele>0.14</ele>
        <time>2024-09-14T12:55:27Z</time>
      </trkpt>
      <trkpt lat="54.27168401889503" lon="12.357557024806738">
        <ele>-0.34</ele>
        <time>2024-09-14T12:55:37Z</time>
      </trkpt>
      <trkpt lat="54.272383991628885" lon="12.357916021719575">
        <ele>-1.3</ele>
        <time>2024-09-14T12:55:41Z</time>
      </trkpt>
      <trkpt lat="54.272735025733709" lon="12.358047030866146">
        <ele>-2.27</ele>
        <time>2024-09-14T12:55:43Z</time>
      </trkpt>
      <trkpt lat="54.273111959919333" lon="12.358140992000699">
        <ele>-2.75</ele>
        <time>2024-09-14T12:55:45Z</time>
      </trkpt>
      <trkpt lat="54.274612991139293" lon="12.357861958444118">
        <ele>-4.19</ele>
        <time>2024-09-14T12:55:53Z</time>
      </trkpt>
      <trkpt lat="54.277015998959541" lon="12.357130972668529">
        <ele>-2.75</ele>
        <time>2024-09-14T12:56:06Z</time>
      </trkpt>
      <trkpt lat="54.278543014079332" lon="12.356667034327984">
        <ele>-2.27</ele>
        <time>2024-09-14T12:56:14Z</time>
      </trkpt>
      <trkpt lat="54.278965964913368" lon="12.356538958847523">
        <ele>-1.79</ele>
        <time>2024-09-14T12:56:16Z</time>
      </trkpt>
      <trkpt lat="54.279191019013524" lon="12.356470981612802">
        <ele>-1.79</ele>
        <time>2024-09-14T12:56:17Z</time>
      </trkpt>
      <trkpt lat="54.279841035604477" lon="12.35627400688827">
        <ele>-0.82</ele>
        <time>2024-09-14T12:56:20Z</time>
      </trkpt>
      <trkpt lat="54.281540969386697" lon="12.355762040242553">
        <ele>-2.27</ele>
        <time>2024-09-14T12:56:28Z</time>
      </trkpt>
      <trkpt lat="54.284105999395251" lon="12.354989983141422">
        <ele>-5.15</ele>
        <time>2024-09-14T12:56:41Z</time>
      </trkpt>
      <trkpt lat="54.286855012178421" lon="12.354165958240628">
        <ele>-6.59</ele>
        <time>2024-09-14T12:56:55Z</time>
      </trkpt>
      <trkpt lat="54.288029987365007" lon="12.353819031268358">
        <ele>-6.59</ele>
        <time>2024-09-14T12:57:02Z</time>
      </trkpt>
      <trkpt lat="54.289491958916187" lon="12.353401025757194">
        <ele>-7.55</ele>
        <time>2024-09-14T12:57:13Z</time>
      </trkpt>
      <trkpt lat="54.290145998820662" lon="12.353199021890759">
        <ele>-7.55</ele>
        <time>2024-09-14T12:57:18Z</time>
      </trkpt>
      <trkpt lat="54.290277007967234" lon="12.353159040212631">
        <ele>-8.029999999999999</ele>
        <time>2024-09-14T12:57:19Z</time>
      </trkpt>
      <trkpt lat="54.291258025914431" lon="12.352859973907471">
        <ele>-6.59</ele>
        <time>2024-09-14T12:57:27Z</time>
      </trkpt>
      <trkpt lat="54.291837969794869" lon="12.352687977254391">
        <ele>-7.07</ele>
        <time>2024-09-14T12:57:35Z</time>
      </trkpt>
      <trkpt lat="54.291957998648286" lon="12.352651013061404">
        <ele>-7.07</ele>
        <time>2024-09-14T12:57:43Z</time>
      </trkpt>
      <trkpt lat="54.292014995589852" lon="12.352631986141205">
        <ele>-6.59</ele>
        <time>2024-09-14T12:58:13Z</time>
      </trkpt>
      <trkpt lat="54.292083978652954" lon="12.352611031383276">
        <ele>-6.11</ele>
        <time>2024-09-14T12:58:14Z</time>
      </trkpt>
      <trkpt lat="54.292242983356118" lon="12.352435011416674">
        <ele>-6.11</ele>
        <time>2024-09-14T12:58:15Z</time>
      </trkpt>
      <trkpt lat="54.292240971699357" lon="12.352295033633709">
        <ele>-6.59</ele>
        <time>2024-09-14T12:58:16Z</time>
      </trkpt>
      <trkpt lat="54.292238038033247" lon="12.352133011445403">
        <ele>-6.59</ele>
        <time>2024-09-14T12:58:17Z</time>
      </trkpt>
      <trkpt lat="54.292235020548105" lon="12.351959003135562">
        <ele>-6.59</ele>
        <time>2024-09-14T12:58:18Z</time>
      </trkpt>
      <trkpt lat="54.292232003062963" lon="12.351775020360947">
        <ele>-6.59</ele>
        <time>2024-09-14T12:58:19Z</time>
      </trkpt>
      <trkpt lat="54.292218005284667" lon="12.350970022380352">
        <ele>-7.07</ele>
        <time>2024-09-14T12:58:23Z</time>
      </trkpt>
      <trkpt lat="54.292184980586171" lon="12.349060960114002">
        <ele>-9</ele>
        <time>2024-09-14T12:58:32Z</time>
      </trkpt>
      <trkpt lat="54.291921034455299" lon="12.347545009106398">
        <ele>-9.960000000000001</ele>
        <time>2024-09-14T12:58:39Z</time>
      </trkpt>
      <trkpt lat="54.291477967053652" lon="12.345738038420677">
        <ele>-10.44</ele>
        <time>2024-09-14T12:58:47Z</time>
      </trkpt>
      <trkpt lat="54.291423987597227" lon="12.345517007634044">
        <ele>-10.44</ele>
        <time>2024-09-14T12:58:48Z</time>
      </trkpt>
      <trkpt lat="54.291272023692727" lon="12.344830026850104">
        <ele>-10.44</ele>
        <time>2024-09-14T12:58:51Z</time>
      </trkpt>
      <trkpt lat="54.291216032579541" lon="12.344576977193356">
        <ele>-10.92</ele>
        <time>2024-09-14T12:58:52Z</time>
      </trkpt>
      <trkpt lat="54.291076976805925" lon="12.342077996581793">
        <ele>-10.44</ele>
        <time>2024-09-14T12:59:03Z</time>
      </trkpt>
      <trkpt lat="54.29095602594316" lon="12.339710025116801">
        <ele>-9.48</ele>
        <time>2024-09-14T12:59:13Z</time>
      </trkpt>
      <trkpt lat="54.290926018729806" lon="12.339010974392295">
        <ele>-9</ele>
        <time>2024-09-14T12:59:16Z</time>
      </trkpt>
      <trkpt lat="54.290916966274381" lon="12.338788015767932">
        <ele>-9</ele>
        <time>2024-09-14T12:59:17Z</time>
      </trkpt>
      <trkpt lat="54.290866004303098" lon="12.33760298229754">
        <ele>-9</ele>
        <time>2024-09-14T12:59:23Z</time>
      </trkpt>
      <trkpt lat="54.290858963504434" lon="12.337426962330937">
        <ele>-9</ele>
        <time>2024-09-14T12:59:24Z</time>
      </trkpt>
      <trkpt lat="54.290695013478398" lon="12.335968008264899">
        <ele>-8.029999999999999</ele>
        <time>2024-09-14T12:59:33Z</time>
      </trkpt>
      <trkpt lat="54.290517987683415" lon="12.335586966946721">
        <ele>-8.51</ele>
        <time>2024-09-14T12:59:36Z</time>
      </trkpt>
      <trkpt lat="54.290042985230684" lon="12.334648026153445">
        <ele>-11.4</ele>
        <time>2024-09-14T12:59:45Z</time>
      </trkpt>
      <trkpt lat="54.289779961109161" lon="12.33414301648736">
        <ele>-11.880000000000001</ele>
        <time>2024-09-14T12:59:50Z</time>
      </trkpt>
      <trkpt lat="54.289740985259414" lon="12.334069004282355">
        <ele>-12.359999999999999</ele>
        <time>2024-09-14T12:59:51Z</time>
      </trkpt>
      <trkpt lat="54.289699997752905" lon="12.333871023729444">
        <ele>-12.84</ele>
        <time>2024-09-14T12:59:54Z</time>
      </trkpt>
      <trkpt lat="54.289756994694471" lon="12.333744959905744">
        <ele>-13.32</ele>
        <time>2024-09-14T12:59:56Z</time>
      </trkpt>
      <trkpt lat="54.289787001907825" lon="12.333680000156164">
        <ele>-13.32</ele>
        <time>2024-09-14T12:59:57Z</time>
      </trkpt>
      <trkpt lat="54.29026703350246" lon="12.332625975832343">
        <ele>-12.359999999999999</ele>
        <time>2024-09-14T13:00:09Z</time>
      </trkpt>
      <trkpt lat="54.290838008746505" lon="12.331374976783991">
        <ele>-10.92</ele>
        <time>2024-09-14T13:00:21Z</time>
      </trkpt>
      <trkpt lat="54.290878996253014" lon="12.33128403313458">
        <ele>-10.44</ele>
        <time>2024-09-14T13:00:22Z</time>
      </trkpt>
      <trkpt lat="54.290915960446" lon="12.33120197430253">
        <ele>-10.44</ele>
        <time>2024-09-14T13:00:23Z</time>
      </trkpt>
      <trkpt lat="54.290946973487735" lon="12.33113600872457">
        <ele>-9.960000000000001</ele>
        <time>2024-09-14T13:00:24Z</time>
      </trkpt>
      <trkpt lat="54.290968012064695" lon="12.331087980419397">
        <ele>-9.960000000000001</ele>
        <time>2024-09-14T13:00:25Z</time>
      </trkpt>
      <trkpt lat="54.291044035926461" lon="12.331081023439765">
        <ele>-9.960000000000001</ele>
        <time>2024-09-14T13:00:26Z</time>
      </trkpt>
      <trkpt lat="54.291073959320784" lon="12.331126034259796">
        <ele>-9.48</ele>
        <time>2024-09-14T13:00:27Z</time>
      </trkpt>
      <trkpt lat="54.29110798984766" lon="12.331175990402699">
        <ele>-9</ele>
        <time>2024-09-14T13:00:28Z</time>
      </trkpt>
      <trkpt lat="54.291146965697408" lon="12.331234999001026">
        <ele>-9</ele>
        <time>2024-09-14T13:00:29Z</time>
      </trkpt>
      <trkpt lat="54.291316028684378" lon="12.331488970667124">
        <ele>-8.51</ele>
        <time>2024-09-14T13:00:33Z</time>
      </trkpt>
      <trkpt lat="54.291357016190886" lon="12.331549990922213">
        <ele>-8.029999999999999</ele>
        <time>2024-09-14T13:00:34Z</time>
      </trkpt>
      <trkpt lat="54.291514009237289" lon="12.331785019487143">
        <ele>-8.51</ele>
        <time>2024-09-14T13:00:38Z</time>
      </trkpt>
      <trkpt lat="54.291554996743798" lon="12.331847967579961">
        <ele>-8.029999999999999</ele>
        <time>2024-09-14T13:00:39Z</time>
      </trkpt>
      <trkpt lat="54.291956992819905" lon="12.332537965849042">
        <ele>-8.029999999999999</ele>
        <time>2024-09-14T13:00:49Z</time>
      </trkpt>
      <trkpt lat="54.29222303442657" lon="12.333009028807282">
        <ele>-6.59</ele>
        <time>2024-09-14T13:01:00Z</time>
      </trkpt>
      <trkpt lat="54.292224040254951" lon="12.333011962473392">
        <ele>-6.59</ele>
        <time>2024-09-14T13:01:11Z</time>
      </trkpt>
      <trkpt lat="54.292224040254951" lon="12.333011962473392">
        <ele>-6.59</ele>
        <time>2024-09-14T13:01:37Z</time>
      </trkpt>
      <trkpt lat="54.29220300167799" lon="12.333055967465043">
        <ele>-6.59</ele>
        <time>2024-09-14T13:01:38Z</time>
      </trkpt>
      <trkpt lat="54.292197972536087" lon="12.333067031577229">
        <ele>-7.07</ele>
        <time>2024-09-14T13:01:39Z</time>
      </trkpt>
      <trkpt lat="54.292183974757791" lon="12.333097038790584">
        <ele>-7.07</ele>
        <time>2024-09-14T13:01:40Z</time>
      </trkpt>
      <trkpt lat="54.292155979201198" lon="12.333155041560531">
        <ele>-7.07</ele>
        <time>2024-09-14T13:01:41Z</time>
      </trkpt>
      <trkpt lat="54.292123960331082" lon="12.333223018795252">
        <ele>-7.07</ele>
        <time>2024-09-14T13:01:42Z</time>
      </trkpt>
      <trkpt lat="54.292094958946109" lon="12.333284039050341">
        <ele>-7.07</ele>
        <time>2024-09-14T13:01:43Z</time>
      </trkpt>
      <trkpt lat="54.292068975046277" lon="12.333339024335146">
        <ele>-7.07</ele>
        <time>2024-09-14T13:01:44Z</time>
      </trkpt>
      <trkpt lat="54.291947018355131" lon="12.333599030971527">
        <ele>-6.59</ele>
        <time>2024-09-14T13:01:49Z</time>
      </trkpt>
      <trkpt lat="54.291910976171494" lon="12.333674971014261">
        <ele>-6.59</ele>
        <time>2024-09-14T13:01:50Z</time>
      </trkpt>
      <trkpt lat="54.291868982836604" lon="12.333763986825943">
        <ele>-6.59</ele>
        <time>2024-09-14T13:01:51Z</time>
      </trkpt>
      <trkpt lat="54.291823972016573" lon="12.333859037607908">
        <ele>-6.59</ele>
        <time>2024-09-14T13:01:52Z</time>
      </trkpt>
      <trkpt lat="54.291777033358812" lon="12.333957022055984">
        <ele>-6.59</ele>
        <time>2024-09-14T13:01:53Z</time>
      </trkpt>
      <trkpt lat="54.291393980383873" lon="12.334768977016211">
        <ele>-7.55</ele>
        <time>2024-09-14T13:02:02Z</time>
      </trkpt>
      <trkpt lat="54.291324997320771" lon="12.334912978112698">
        <ele>-8.51</ele>
        <time>2024-09-14T13:02:04Z</time>
      </trkpt>
      <trkpt lat="54.291287027299404" lon="12.334994031116366">
        <ele>-9</ele>
        <time>2024-09-14T13:02:05Z</time>
      </trkpt>
      <trkpt lat="54.291246961802244" lon="12.335080029442906">
        <ele>-9</ele>
        <time>2024-09-14T13:02:06Z</time>
      </trkpt>
      <trkpt lat="54.291203962638974" lon="12.335170973092318">
        <ele>-9.48</ele>
        <time>2024-09-14T13:02:07Z</time>
      </trkpt>
      <trkpt lat="54.291160041466355" lon="12.335263006389141">
        <ele>-9.48</ele>
        <time>2024-09-14T13:02:08Z</time>
      </trkpt>
      <trkpt lat="54.290831973776221" lon="12.335957027971745">
        <ele>-11.4</ele>
        <time>2024-09-14T13:02:18Z</time>
      </trkpt>
      <trkpt lat="54.290786040946841" lon="12.336054006591439">
        <ele>-10.92</ele>
        <time>2024-09-14T13:02:20Z</time>
      </trkpt>
      <trkpt lat="54.290744969621301" lon="12.336152996867895">
        <ele>-10.92</ele>
        <time>2024-09-14T13:02:21Z</time>
      </trkpt>
      <trkpt lat="54.290761984884739" lon="12.336266990751028">
        <ele>-10.44</ele>
        <time>2024-09-14T13:02:22Z</time>
      </trkpt>
      <trkpt lat="54.290777994319797" lon="12.336377967149019">
        <ele>-10.44</ele>
        <time>2024-09-14T13:02:23Z</time>
      </trkpt>
      <trkpt lat="54.290796015411615" lon="12.336500007659197">
        <ele>-10.44</ele>
        <time>2024-09-14T13:02:24Z</time>
      </trkpt>
      <trkpt lat="54.290814958512783" lon="12.336627999320626">
        <ele>-10.44</ele>
        <time>2024-09-14T13:02:25Z</time>
      </trkpt>
      <trkpt lat="54.29082996211946" lon="12.336749034002423">
        <ele>-9.960000000000001</ele>
        <time>2024-09-14T13:02:26Z</time>
      </trkpt>
      <trkpt lat="54.290834991261363" lon="12.336860010400414">
        <ele>-9.960000000000001</ele>
        <time>2024-09-14T13:02:27Z</time>
      </trkpt>
      <trkpt lat="54.290857035666704" lon="12.337370971217752">
        <ele>-9</ele>
        <time>2024-09-14T13:02:32Z</time>
      </trkpt>
      <trkpt lat="54.290859969332814" lon="12.337457975372672">
        <ele>-9</ele>
        <time>2024-09-14T13:02:33Z</time>
      </trkpt>
      <trkpt lat="54.290863992646337" lon="12.337536010891199">
        <ele>-9</ele>
        <time>2024-09-14T13:02:34Z</time>
      </trkpt>
      <trkpt lat="54.290866004303098" lon="12.337601976469159">
        <ele>-8.51</ele>
        <time>2024-09-14T13:02:35Z</time>
      </trkpt>
      <trkpt lat="54.290869021788239" lon="12.337654028087854">
        <ele>-9</ele>
        <time>2024-09-14T13:02:36Z</time>
      </trkpt>
      <trkpt lat="54.29087002761662" lon="12.337684035301208">
        <ele>-9</ele>
        <time>2024-09-14T13:02:37Z</time>
      </trkpt>
      <trkpt lat="54.29087002761662" lon="12.337687974795699">
        <ele>-9</ele>
        <time>2024-09-14T13:02:38Z</time>
      </trkpt>
      <trkpt lat="54.29087002761662" lon="12.337676994502544">
        <ele>-9</ele>
        <time>2024-09-14T13:02:39Z</time>
      </trkpt>
      <trkpt lat="54.29087002761662" lon="12.337676994502544">
        <ele>-9.48</ele>
        <time>2024-09-14T13:02:40Z</time>
      </trkpt>
      <trkpt lat="54.290868015959859" lon="12.337638018652797">
        <ele>-9.48</ele>
        <time>2024-09-14T13:02:41Z</time>
      </trkpt>
      <trkpt lat="54.290868015959859" lon="12.337638018652797">
        <ele>-10.44</ele>
        <time>2024-09-14T13:02:43Z</time>
      </trkpt>
      <trkpt lat="54.290868015959859" lon="12.337638018652797">
        <ele>-10.44</ele>
        <time>2024-09-14T13:03:01Z</time>
      </trkpt>
      <trkpt lat="54.290864998474717" lon="12.337565012276173">
        <ele>-10.92</ele>
        <time>2024-09-14T13:03:02Z</time>
      </trkpt>
      <trkpt lat="54.290862986817956" lon="12.337524024769664">
        <ele>-11.4</ele>
        <time>2024-09-14T13:03:03Z</time>
      </trkpt>
      <trkpt lat="54.290860975161195" lon="12.337471973150969">
        <ele>-10.92</ele>
        <time>2024-09-14T13:03:04Z</time>
      </trkpt>
      <trkpt lat="54.290858041495085" lon="12.33740801922977">
        <ele>-10.44</ele>
        <time>2024-09-14T13:03:05Z</time>
      </trkpt>
      <trkpt lat="54.290855024009943" lon="12.33732302673161">
        <ele>-9.48</ele>
        <time>2024-09-14T13:03:06Z</time>
      </trkpt>
      <trkpt lat="54.290819987654686" lon="12.336662029847503">
        <ele>-9</ele>
        <time>2024-09-14T13:03:12Z</time>
      </trkpt>
      <trkpt lat="54.290803978219628" lon="12.336553987115622">
        <ele>-9</ele>
        <time>2024-09-14T13:03:13Z</time>
      </trkpt>
      <trkpt lat="54.290775982663035" lon="12.336360029876232">
        <ele>-8.51</ele>
        <time>2024-09-14T13:03:15Z</time>
      </trkpt>
      <trkpt lat="54.290765002369881" lon="12.336287023499608">
        <ele>-9</ele>
        <time>2024-09-14T13:03:16Z</time>
      </trkpt>
      <trkpt lat="54.290749998763204" lon="12.336131036281586">
        <ele>-9</ele>
        <time>2024-09-14T13:03:17Z</time>
      </trkpt>
      <trkpt lat="54.290771959349513" lon="12.336084013804793">
        <ele>-9</ele>
        <time>2024-09-14T13:03:18Z</time>
      </trkpt>
      <trkpt lat="54.290839014574885" lon="12.336223991587758">
        <ele>-9</ele>
        <time>2024-09-14T13:03:19Z</time>
      </trkpt>
      <trkpt lat="54.290884025394917" lon="12.336261039599776">
        <ele>-9</ele>
        <time>2024-09-14T13:03:20Z</time>
      </trkpt>
      <trkpt lat="54.290941022336483" lon="12.336308984085917">
        <ele>-9</ele>
        <time>2024-09-14T13:03:21Z</time>
      </trkpt>
      <trkpt lat="54.291004976257682" lon="12.336362041532993">
        <ele>-9</ele>
        <time>2024-09-14T13:03:22Z</time>
      </trkpt>
      <trkpt lat="54.291720958426595" lon="12.33695900067687">
        <ele>-10.44</ele>
        <time>2024-09-14T13:03:33Z</time>
      </trkpt>
      <trkpt lat="54.292101999744773" lon="12.337276004254818">
        <ele>-9.960000000000001</ele>
        <time>2024-09-14T13:03:39Z</time>
      </trkpt>
      <trkpt lat="54.292737012729049" lon="12.337827030569315">
        <ele>-8.51</ele>
        <time>2024-09-14T13:03:49Z</time>
      </trkpt>
      <trkpt lat="54.292799038812518" lon="12.337885033339262">
        <ele>-8.51</ele>
        <time>2024-09-14T13:03:50Z</time>
      </trkpt>
      <trkpt lat="54.293539999052882" lon="12.338584000244737">
        <ele>-8.51</ele>
        <time>2024-09-14T13:04:02Z</time>
      </trkpt>
      <trkpt lat="54.29407199844718" lon="12.339097978547215">
        <ele>-8.51</ele>
        <time>2024-09-14T13:04:11Z</time>
      </trkpt>
      <trkpt lat="54.294262016192079" lon="12.339283972978592">
        <ele>-8.029999999999999</ele>
        <time>2024-09-14T13:04:14Z</time>
      </trkpt>
      <trkpt lat="54.294327981770039" lon="12.339348010718822">
        <ele>-8.029999999999999</ele>
        <time>2024-09-14T13:04:15Z</time>
      </trkpt>
      <trkpt lat="54.29469795897603" lon="12.339697033166885">
        <ele>-8.51</ele>
        <time>2024-09-14T13:04:21Z</time>
      </trkpt>
      <trkpt lat="54.295229958370328" lon="12.340176980942488">
        <ele>-7.55</ele>
        <time>2024-09-14T13:04:29Z</time>
      </trkpt>
      <trkpt lat="54.295298019424081" lon="12.340238001197577">
        <ele>-7.55</ele>
        <time>2024-09-14T13:04:30Z</time>
      </trkpt>
      <trkpt lat="54.295635977759957" lon="12.340543018653989">
        <ele>-7.07</ele>
        <time>2024-09-14T13:04:35Z</time>
      </trkpt>
      <trkpt lat="54.295819038525224" lon="12.34071702696383">
        <ele>-7.55</ele>
        <time>2024-09-14T13:04:38Z</time>
      </trkpt>
      <trkpt lat="54.295880980789661" lon="12.340775029733777">
        <ele>-7.55</ele>
        <time>2024-09-14T13:04:39Z</time>
      </trkpt>
      <trkpt lat="54.296398982405663" lon="12.341265035793185">
        <ele>-5.63</ele>
        <time>2024-09-14T13:04:47Z</time>
      </trkpt>
      <trkpt lat="54.296462014317513" lon="12.341324966400862">
        <ele>-4.67</ele>
        <time>2024-09-14T13:04:48Z</time>
      </trkpt>
      <trkpt lat="54.296527979895473" lon="12.341387998312712">
        <ele>-4.19</ele>
        <time>2024-09-14T13:04:49Z</time>
      </trkpt>
      <trkpt lat="54.296850012615323" lon="12.341693015769124">
        <ele>-1.79</ele>
        <time>2024-09-14T13:04:54Z</time>
      </trkpt>
      <trkpt lat="54.296914972364902" lon="12.341754036024213">
        <ele>-1.3</ele>
        <time>2024-09-14T13:04:55Z</time>
      </trkpt>
      <trkpt lat="54.297245973721147" lon="12.342067016288638">
        <ele>1.1</ele>
        <time>2024-09-14T13:05:00Z</time>
      </trkpt>
      <trkpt lat="54.297899007797241" lon="12.342689037322998">
        <ele>3.5</ele>
        <time>2024-09-14T13:05:10Z</time>
      </trkpt>
      <trkpt lat="54.298345008864999" lon="12.343104025349021">
        <ele>2.06</ele>
        <time>2024-09-14T13:05:17Z</time>
      </trkpt>
      <trkpt lat="54.298787992447615" lon="12.343517001718283">
        <ele>0.14</ele>
        <time>2024-09-14T13:05:24Z</time>
      </trkpt>
      <trkpt lat="54.298850018531084" lon="12.34357500448823">
        <ele>0.14</ele>
        <time>2024-09-14T13:05:25Z</time>
      </trkpt>
      <trkpt lat="54.299374977126718" lon="12.344065010547638">
        <ele>-1.3</ele>
        <time>2024-09-14T13:05:33Z</time>
      </trkpt>
      <trkpt lat="54.299440020695329" lon="12.344125024974346">
        <ele>-1.79</ele>
        <time>2024-09-14T13:05:34Z</time>
      </trkpt>
      <trkpt lat="54.299504980444908" lon="12.344185961410403">
        <ele>-1.79</ele>
        <time>2024-09-14T13:05:35Z</time>
      </trkpt>
      <trkpt lat="54.300202019512653" lon="12.344835978001356">
        <ele>-3.23</ele>
        <time>2024-09-14T13:05:46Z</time>
      </trkpt>
      <trkpt lat="54.300331017002463" lon="12.344956006854773">
        <ele>-3.71</ele>
        <time>2024-09-14T13:05:48Z</time>
      </trkpt>
      <trkpt lat="54.300395976752043" lon="12.345017027109861">
        <ele>-4.19</ele>
        <time>2024-09-14T13:05:49Z</time>
      </trkpt>
      <trkpt lat="54.30064701475203" lon="12.345249960198998">
        <ele>-5.63</ele>
        <time>2024-09-14T13:05:53Z</time>
      </trkpt>
      <trkpt lat="54.300703005865216" lon="12.345302011817694">
        <ele>-5.63</ele>
        <time>2024-09-14T13:05:54Z</time>
      </trkpt>
      <trkpt lat="54.300756985321641" lon="12.345353979617357">
        <ele>-6.11</ele>
        <time>2024-09-14T13:05:55Z</time>
      </trkpt>
      <trkpt lat="54.300812976434827" lon="12.345405025407672">
        <ele>-9</ele>
        <time>2024-09-14T13:06:01Z</time>
      </trkpt>
      <trkpt lat="54.300870979204774" lon="12.345460010692477">
        <ele>-9.960000000000001</ele>
        <time>2024-09-14T13:06:03Z</time>
      </trkpt>
      <trkpt lat="54.300913978368044" lon="12.345499992370605">
        <ele>-9.960000000000001</ele>
        <time>2024-09-14T13:06:04Z</time>
      </trkpt>
      <trkpt lat="54.300923030823469" lon="12.34548800624907">
        <ele>-10.44</ele>
        <time>2024-09-14T13:06:05Z</time>
      </trkpt>
      <trkpt lat="54.300962006673217" lon="12.345430003479123">
        <ele>-10.92</ele>
        <time>2024-09-14T13:06:06Z</time>
      </trkpt>
      <trkpt lat="54.301002994179726" lon="12.345368983224034">
        <ele>-11.4</ele>
        <time>2024-09-14T13:06:07Z</time>
      </trkpt>
      <trkpt lat="54.301039958372712" lon="12.34531500376761">
        <ele>-11.4</ele>
        <time>2024-09-14T13:06:08Z</time>
      </trkpt>
      <trkpt lat="54.301067031919956" lon="12.345276027917862">
        <ele>-11.880000000000001</ele>
        <time>2024-09-14T13:06:09Z</time>
      </trkpt>
      <trkpt lat="54.301083963364363" lon="12.345250966027379">
        <ele>-11.880000000000001</ele>
        <time>2024-09-14T13:06:10Z</time>
      </trkpt>
      <trkpt lat="54.301083963364363" lon="12.345250966027379">
        <ele>-12.84</ele>
        <time>2024-09-14T13:06:22Z</time>
      </trkpt>
      <trkpt lat="54.301164010539651" lon="12.345132026821375">
        <ele>-13.32</ele>
        <time>2024-09-14T13:06:35Z</time>
      </trkpt>
      <trkpt lat="54.301177002489567" lon="12.345112999901175">
        <ele>-13.800000000000001</ele>
        <time>2024-09-14T13:06:39Z</time>
      </trkpt>
      <trkpt lat="54.30116199888289" lon="12.345134960487485">
        <ele>-13.32</ele>
        <time>2024-09-14T13:06:40Z</time>
      </trkpt>
      <trkpt lat="54.300870979204774" lon="12.34555296599865">
        <ele>-13.32</ele>
        <time>2024-09-14T13:06:48Z</time>
      </trkpt>
      <trkpt lat="54.300275025889277" lon="12.346273977309465">
        <ele>-15.720000000000001</ele>
        <time>2024-09-14T13:06:59Z</time>
      </trkpt>
      <trkpt lat="54.299370031803846" lon="12.347368989139795">
        <ele>-14.279999999999999</ele>
        <time>2024-09-14T13:07:10Z</time>
      </trkpt>
      <trkpt lat="54.298466965556145" lon="12.348461989313364">
        <ele>-14.76</ele>
        <time>2024-09-14T13:07:21Z</time>
      </trkpt>
      <trkpt lat="54.297363990917802" lon="12.349796975031495">
        <ele>-14.76</ele>
        <time>2024-09-14T13:07:33Z</time>
      </trkpt>
      <trkpt lat="54.296515993773937" lon="12.350906990468502">
        <ele>-14.279999999999999</ele>
        <time>2024-09-14T13:07:44Z</time>
      </trkpt>
      <trkpt lat="54.296493027359247" lon="12.35107303597033">
        <ele>-14.76</ele>
        <time>2024-09-14T13:07:45Z</time>
      </trkpt>
      <trkpt lat="54.296481963247061" lon="12.351157022640109">
        <ele>-14.279999999999999</ele>
        <time>2024-09-14T13:07:46Z</time>
      </trkpt>
      <trkpt lat="54.296474000439048" lon="12.351213013753295">
        <ele>-13.800000000000001</ele>
        <time>2024-09-14T13:07:47Z</time>
      </trkpt>
      <trkpt lat="54.296467965468764" lon="12.351256012916565">
        <ele>-13.800000000000001</ele>
        <time>2024-09-14T13:07:48Z</time>
      </trkpt>
      <trkpt lat="54.296451034024358" lon="12.351379981264472">
        <ele>-13.800000000000001</ele>
        <time>2024-09-14T13:07:53Z</time>
      </trkpt>
      <trkpt lat="54.296463020145893" lon="12.351379981264472">
        <ele>-13.32</ele>
        <time>2024-09-14T13:07:54Z</time>
      </trkpt>
      <trkpt lat="54.296516999602318" lon="12.351380987092853">
        <ele>-13.32</ele>
        <time>2024-09-14T13:07:55Z</time>
      </trkpt>
      <trkpt lat="54.296593023464084" lon="12.351382998749614">
        <ele>-13.32</ele>
        <time>2024-09-14T13:07:56Z</time>
      </trkpt>
      <trkpt lat="54.296687990427017" lon="12.351385010406375">
        <ele>-13.32</ele>
        <time>2024-09-14T13:07:57Z</time>
      </trkpt>
      <trkpt lat="54.297465998679399" lon="12.351424992084503">
        <ele>-13.800000000000001</ele>
        <time>2024-09-14T13:08:02Z</time>
      </trkpt>
      <trkpt lat="54.299448989331722" lon="12.351946011185646">
        <ele>-13.32</ele>
        <time>2024-09-14T13:08:12Z</time>
      </trkpt>
      <trkpt lat="54.302241001278162" lon="12.352680014446378">
        <ele>-11.4</ele>
        <time>2024-09-14T13:08:27Z</time>
      </trkpt>
      <trkpt lat="54.303904976695776" lon="12.35311696305871">
        <ele>-9.960000000000001</ele>
        <time>2024-09-14T13:08:37Z</time>
      </trkpt>
      <trkpt lat="54.305658973753452" lon="12.353589031845331">
        <ele>-9</ele>
        <time>2024-09-14T13:08:50Z</time>
      </trkpt>
      <trkpt lat="54.307137038558722" lon="12.353969989344478">
        <ele>-9.960000000000001</ele>
        <time>2024-09-14T13:09:01Z</time>
      </trkpt>
      <trkpt lat="54.308205982670188" lon="12.354238964617252">
        <ele>-9.960000000000001</ele>
        <time>2024-09-14T13:09:07Z</time>
      </trkpt>
      <trkpt lat="54.30964800529182" lon="12.354784961789846">
        <ele>-10.44</ele>
        <time>2024-09-14T13:09:15Z</time>
      </trkpt>
      <trkpt lat="54.311182983219624" lon="12.356072003021836">
        <ele>-10.44</ele>
        <time>2024-09-14T13:09:25Z</time>
      </trkpt>
      <trkpt lat="54.313192963600159" lon="12.357919039204717">
        <ele>-10.92</ele>
        <time>2024-09-14T13:09:39Z</time>
      </trkpt>
      <trkpt lat="54.315209984779358" lon="12.359789963811636">
        <ele>-8.029999999999999</ele>
        <time>2024-09-14T13:09:52Z</time>
      </trkpt>
      <trkpt lat="54.317816002294421" lon="12.362191965803504">
        <ele>-9.48</ele>
        <time>2024-09-14T13:10:08Z</time>
      </trkpt>
      <trkpt lat="54.31931896135211" lon="12.36357900314033">
        <ele>-9.960000000000001</ele>
        <time>2024-09-14T13:10:17Z</time>
      </trkpt>
      <trkpt lat="54.321542009711266" lon="12.365630976855755">
        <ele>-11.4</ele>
        <time>2024-09-14T13:10:30Z</time>
      </trkpt>
      <trkpt lat="54.323622984811664" lon="12.367542972788215">
        <ele>-10.44</ele>
        <time>2024-09-14T13:10:42Z</time>
      </trkpt>
      <trkpt lat="54.325751988217235" lon="12.369515988975763">
        <ele>-9</ele>
        <time>2024-09-14T13:10:55Z</time>
      </trkpt>
      <trkpt lat="54.327865988016129" lon="12.371480958536267">
        <ele>-8.51</ele>
        <time>2024-09-14T13:11:08Z</time>
      </trkpt>
      <trkpt lat="54.329743031412363" lon="12.372916024178267">
        <ele>-9</ele>
        <time>2024-09-14T13:11:19Z</time>
      </trkpt>
      <trkpt lat="54.331359984353185" lon="12.374090999364853">
        <ele>-8.51</ele>
        <time>2024-09-14T13:11:29Z</time>
      </trkpt>
      <trkpt lat="54.332985989749432" lon="12.375234039500356">
        <ele>-9</ele>
        <time>2024-09-14T13:11:39Z</time>
      </trkpt>
      <trkpt lat="54.334910977631807" lon="12.376583022996783">
        <ele>-9.960000000000001</ele>
        <time>2024-09-14T13:11:51Z</time>
      </trkpt>
      <trkpt lat="54.336955994367599" lon="12.378053041175008">
        <ele>-9</ele>
        <time>2024-09-14T13:12:04Z</time>
      </trkpt>
      <trkpt lat="54.338257033377886" lon="12.378971027210355">
        <ele>-8.51</ele>
        <time>2024-09-14T13:12:13Z</time>
      </trkpt>
      <trkpt lat="54.340098034590483" lon="12.380280029028654">
        <ele>-7.55</ele>
        <time>2024-09-14T13:12:24Z</time>
      </trkpt>
      <trkpt lat="54.342721989378333" lon="12.382286991924047">
        <ele>-6.59</ele>
        <time>2024-09-14T13:12:41Z</time>
      </trkpt>
      <trkpt lat="54.343519024550915" lon="12.383877038955688">
        <ele>-6.11</ele>
        <time>2024-09-14T13:12:48Z</time>
      </trkpt>
      <trkpt lat="54.344857027754188" lon="12.387736989185214">
        <ele>-5.63</ele>
        <time>2024-09-14T13:13:03Z</time>
      </trkpt>
      <trkpt lat="54.345267992466688" lon="12.388955969363451">
        <ele>-5.63</ele>
        <time>2024-09-14T13:13:08Z</time>
      </trkpt>
      <trkpt lat="54.345327001065016" lon="12.389227962121367">
        <ele>-6.11</ele>
        <time>2024-09-14T13:13:09Z</time>
      </trkpt>
      <trkpt lat="54.345377963036299" lon="12.389503978192806">
        <ele>-6.11</ele>
        <time>2024-09-14T13:13:10Z</time>
      </trkpt>
      <trkpt lat="54.345428002998233" lon="12.389782005921006">
        <ele>-6.11</ele>
        <time>2024-09-14T13:13:11Z</time>
      </trkpt>
      <trkpt lat="54.345463961362839" lon="12.390079982578754">
        <ele>-6.11</ele>
        <time>2024-09-14T13:13:12Z</time>
      </trkpt>
      <trkpt lat="54.345472007989883" lon="12.390373013913631">
        <ele>-5.63</ele>
        <time>2024-09-14T13:13:13Z</time>
      </trkpt>
      <trkpt lat="54.345479970797896" lon="12.390657998621464">
        <ele>-5.63</ele>
        <time>2024-09-14T13:13:14Z</time>
      </trkpt>
      <trkpt lat="54.345461027696729" lon="12.390947006642818">
        <ele>-5.63</ele>
        <time>2024-09-14T13:13:15Z</time>
      </trkpt>
      <trkpt lat="54.345436971634626" lon="12.391215981915593">
        <ele>-5.15</ele>
        <time>2024-09-14T13:13:16Z</time>
      </trkpt>
      <trkpt lat="54.345415011048317" lon="12.3914660140872">
        <ele>-5.15</ele>
        <time>2024-09-14T13:13:17Z</time>
      </trkpt>
      <trkpt lat="54.345218036323786" lon="12.393212970346212">
        <ele>-4.19</ele>
        <time>2024-09-14T13:13:26Z</time>
      </trkpt>
      <trkpt lat="54.345030030235648" lon="12.394906030967832">
        <ele>-4.67</ele>
        <time>2024-09-14T13:13:37Z</time>
      </trkpt>
      <trkpt lat="54.345019971951842" lon="12.395063024014235">
        <ele>-4.67</ele>
        <time>2024-09-14T13:13:38Z</time>
      </trkpt>
      <trkpt lat="54.345009997487068" lon="12.395219011232257">
        <ele>-4.67</ele>
        <time>2024-09-14T13:13:39Z</time>
      </trkpt>
      <trkpt lat="54.345023995265365" lon="12.395371980965137">
        <ele>-5.15</ele>
        <time>2024-09-14T13:13:40Z</time>
      </trkpt>
      <trkpt lat="54.345038998872042" lon="12.39552604034543">
        <ele>-5.15</ele>
        <time>2024-09-14T13:13:41Z</time>
      </trkpt>
      <trkpt lat="54.345157016068697" lon="12.396318968385458">
        <ele>-4.67</ele>
        <time>2024-09-14T13:13:47Z</time>
      </trkpt>
      <trkpt lat="54.345233039930463" lon="12.39653698168695">
        <ele>-4.19</ele>
        <time>2024-09-14T13:13:49Z</time>
      </trkpt>
      <trkpt lat="54.345270004123449" lon="12.396642006933689">
        <ele>-4.19</ele>
        <time>2024-09-14T13:13:50Z</time>
      </trkpt>
      <trkpt lat="54.345313003286719" lon="12.396719958633184">
        <ele>-4.19</ele>
        <time>2024-09-14T13:13:51Z</time>
      </trkpt>
      <trkpt lat="54.345433032140136" lon="12.396832024678588">
        <ele>-4.19</ele>
        <time>2024-09-14T13:13:53Z</time>
      </trkpt>
      <trkpt lat="54.345494974404573" lon="12.396890027448535">
        <ele>-3.71</ele>
        <time>2024-09-14T13:13:54Z</time>
      </trkpt>
      <trkpt lat="54.345555994659662" lon="12.396947024390101">
        <ele>-3.71</ele>
        <time>2024-09-14T13:13:55Z</time>
      </trkpt>
      <trkpt lat="54.346229983493686" lon="12.397538032382727">
        <ele>-2.75</ele>
        <time>2024-09-14T13:14:05Z</time>
      </trkpt>
      <trkpt lat="54.34630298987031" lon="12.397593017667532">
        <ele>-2.27</ele>
        <time>2024-09-14T13:14:06Z</time>
      </trkpt>
      <trkpt lat="54.346375996246934" lon="12.397646997123957">
        <ele>-2.27</ele>
        <time>2024-09-14T13:14:07Z</time>
      </trkpt>
      <trkpt lat="54.346444979310036" lon="12.39769896492362">
        <ele>-1.79</ele>
        <time>2024-09-14T13:14:08Z</time>
      </trkpt>
      <trkpt lat="54.346514968201518" lon="12.397752022370696">
        <ele>-1.3</ele>
        <time>2024-09-14T13:14:09Z</time>
      </trkpt>
      <trkpt lat="54.346587974578142" lon="12.397807007655501">
        <ele>-0.82</ele>
        <time>2024-09-14T13:14:10Z</time>
      </trkpt>
      <trkpt lat="54.346657963469625" lon="12.397858975455165">
        <ele>-0.34</ele>
        <time>2024-09-14T13:14:11Z</time>
      </trkpt>
      <trkpt lat="54.346726024523377" lon="12.39791002124548">
        <ele>0.14</ele>
        <time>2024-09-14T13:14:12Z</time>
      </trkpt>
      <trkpt lat="54.346800958737731" lon="12.397969029843807">
        <ele>0.62</ele>
        <time>2024-09-14T13:14:13Z</time>
      </trkpt>
      <trkpt lat="54.347585001960397" lon="12.398607982322574">
        <ele>3.5</ele>
        <time>2024-09-14T13:14:24Z</time>
      </trkpt>
      <trkpt lat="54.347664965316653" lon="12.398688029497862">
        <ele>3.98</ele>
        <time>2024-09-14T13:14:25Z</time>
      </trkpt>
      <trkpt lat="54.347756998613477" lon="12.398779978975654">
        <ele>4.46</ele>
        <time>2024-09-14T13:14:31Z</time>
      </trkpt>
      <trkpt lat="54.347838973626494" lon="12.398862037807703">
        <ele>5.42</ele>
        <time>2024-09-14T13:14:43Z</time>
      </trkpt>
      <trkpt lat="54.347900999709964" lon="12.398798000067472">
        <ele>5.91</ele>
        <time>2024-09-14T13:14:44Z</time>
      </trkpt>
      <trkpt lat="54.347936036065221" lon="12.398716025054455">
        <ele>5.91</ele>
        <time>2024-09-14T13:14:45Z</time>
      </trkpt>
      <trkpt lat="54.347979035228491" lon="12.398614017292857">
        <ele>6.39</ele>
        <time>2024-09-14T13:14:46Z</time>
      </trkpt>
      <trkpt lat="54.34802102856338" lon="12.398514021188021">
        <ele>6.87</ele>
        <time>2024-09-14T13:14:47Z</time>
      </trkpt>
      <trkpt lat="54.348066039383411" lon="12.398408995941281">
        <ele>6.87</ele>
        <time>2024-09-14T13:14:48Z</time>
      </trkpt>
      <trkpt lat="54.348437022417784" lon="12.397496961057186">
        <ele>6.87</ele>
        <time>2024-09-14T13:14:56Z</time>
      </trkpt>
      <trkpt lat="54.348484966903925" lon="12.39737399853766">
        <ele>6.87</ele>
        <time>2024-09-14T13:14:57Z</time>
      </trkpt>
      <trkpt lat="54.34853701852262" lon="12.397242989391088">
        <ele>6.39</ele>
        <time>2024-09-14T13:14:58Z</time>
      </trkpt>
      <trkpt lat="54.348640032112598" lon="12.396978959441185">
        <ele>4.94</ele>
        <time>2024-09-14T13:15:00Z</time>
      </trkpt>
      <trkpt lat="54.34868797659874" lon="12.396857002750039">
        <ele>4.46</ele>
        <time>2024-09-14T13:15:01Z</time>
      </trkpt>
      <trkpt lat="54.348733993247151" lon="12.396739991381764">
        <ele>4.46</ele>
        <time>2024-09-14T13:15:02Z</time>
      </trkpt>
      <trkpt lat="54.348779004067183" lon="12.396627003327012">
        <ele>3.98</ele>
        <time>2024-09-14T13:15:03Z</time>
      </trkpt>
      <trkpt lat="54.348822003230453" lon="12.396517032757401">
        <ele>3.98</ele>
        <time>2024-09-14T13:15:04Z</time>
      </trkpt>
      <trkpt lat="54.348959969356656" lon="12.396169016137719">
        <ele>3.98</ele>
        <time>2024-09-14T13:15:07Z</time>
      </trkpt>
      <trkpt lat="54.349006991833448" lon="12.396050998941064">
        <ele>3.98</ele>
        <time>2024-09-14T13:15:08Z</time>
      </trkpt>
      <trkpt lat="54.349054014310241" lon="12.395932981744409">
        <ele>3.98</ele>
        <time>2024-09-14T13:15:09Z</time>
      </trkpt>
      <trkpt lat="54.349102964624763" lon="12.395811025053263">
        <ele>3.98</ele>
        <time>2024-09-14T13:15:10Z</time>
      </trkpt>
      <trkpt lat="54.349149987101555" lon="12.395696025341749">
        <ele>4.46</ele>
        <time>2024-09-14T13:15:11Z</time>
      </trkpt>
      <trkpt lat="54.349194997921586" lon="12.395582031458616">
        <ele>4.46</ele>
        <time>2024-09-14T13:15:12Z</time>
      </trkpt>
      <trkpt lat="54.34924403205514" lon="12.395460996776819">
        <ele>4.46</ele>
        <time>2024-09-14T13:15:13Z</time>
      </trkpt>
      <trkpt lat="54.349345033988357" lon="12.395209958776832">
        <ele>5.42</ele>
        <time>2024-09-14T13:15:15Z</time>
      </trkpt>
      <trkpt lat="54.34954502619803" lon="12.394712995737791">
        <ele>5.42</ele>
        <time>2024-09-14T13:15:19Z</time>
      </trkpt>
      <trkpt lat="54.349594982340932" lon="12.394589027389884">
        <ele>5.91</ele>
        <time>2024-09-14T13:15:20Z</time>
      </trkpt>
      <trkpt lat="54.349647033959627" lon="12.394458018243313">
        <ele>5.91</ele>
        <time>2024-09-14T13:15:21Z</time>
      </trkpt>
      <trkpt lat="54.349746024236083" lon="12.394212009385228">
        <ele>6.39</ele>
        <time>2024-09-14T13:15:23Z</time>
      </trkpt>
      <trkpt lat="54.35004198923707" lon="12.393456967547536">
        <ele>6.87</ele>
        <time>2024-09-14T13:15:30Z</time>
      </trkpt>
      <trkpt lat="54.350092029199004" lon="12.393326964229345">
        <ele>6.87</ele>
        <time>2024-09-14T13:15:31Z</time>
      </trkpt>
      <trkpt lat="54.350392017513514" lon="12.392552979290485">
        <ele>9.75</ele>
        <time>2024-09-14T13:15:37Z</time>
      </trkpt>
      <trkpt lat="54.350548004731536" lon="12.392151989042759">
        <ele>8.789999999999999</ele>
        <time>2024-09-14T13:15:40Z</time>
      </trkpt>
      <trkpt lat="54.350712960585952" lon="12.391727026551962">
        <ele>8.310000000000001</ele>
        <time>2024-09-14T13:15:44Z</time>
      </trkpt>
      <trkpt lat="54.350774986669421" lon="12.391568021848798">
        <ele>7.83</ele>
        <time>2024-09-14T13:15:46Z</time>
      </trkpt>
      <trkpt lat="54.350804993882775" lon="12.391490992158651">
        <ele>7.83</ele>
        <time>2024-09-14T13:15:47Z</time>
      </trkpt>
      <trkpt lat="54.350835001096129" lon="12.391412034630775">
        <ele>7.83</ele>
        <time>2024-09-14T13:15:48Z</time>
      </trkpt>
      <trkpt lat="54.350860984995961" lon="12.391345985233784">
        <ele>7.35</ele>
        <time>2024-09-14T13:15:49Z</time>
      </trkpt>
      <trkpt lat="54.35087900608778" lon="12.391298962756991">
        <ele>7.35</ele>
        <time>2024-09-14T13:15:50Z</time>
      </trkpt>
      <trkpt lat="54.351042034104466" lon="12.390833012759686">
        <ele>6.87</ele>
        <time>2024-09-14T13:15:58Z</time>
      </trkpt>
      <trkpt lat="54.351062988862395" lon="12.390770986676216">
        <ele>6.39</ele>
        <time>2024-09-14T13:15:59Z</time>
      </trkpt>
      <trkpt lat="54.351081009954214" lon="12.39071398973465">
        <ele>6.39</ele>
        <time>2024-09-14T13:16:00Z</time>
      </trkpt>
      <trkpt lat="54.35118000023067" lon="12.390405032783747">
        <ele>3.98</ele>
        <time>2024-09-14T13:16:08Z</time>
      </trkpt>
      <trkpt lat="54.351201960816979" lon="12.390332026407123">
        <ele>3.5</ele>
        <time>2024-09-14T13:16:09Z</time>
      </trkpt>
      <trkpt lat="54.351220987737179" lon="12.390243010595441">
        <ele>3.98</ele>
        <time>2024-09-14T13:16:10Z</time>
      </trkpt>
      <trkpt lat="54.351337999105453" lon="12.389480005949736">
        <ele>3.5</ele>
        <time>2024-09-14T13:16:18Z</time>
      </trkpt>
      <trkpt lat="54.351518964394927" lon="12.388292038813233">
        <ele>3.5</ele>
        <time>2024-09-14T13:16:32Z</time>
      </trkpt>
      <trkpt lat="54.351603034883738" lon="12.38772802054882">
        <ele>2.54</ele>
        <time>2024-09-14T13:16:41Z</time>
      </trkpt>
      <trkpt lat="54.351618960499763" lon="12.387619977816939">
        <ele>2.06</ele>
        <time>2024-09-14T13:16:45Z</time>
      </trkpt>
      <trkpt lat="54.351621977984905" lon="12.38759801723063">
        <ele>0.62</ele>
        <time>2024-09-14T13:16:47Z</time>
      </trkpt>
      <trkpt lat="54.351661959663033" lon="12.3876410163939">
        <ele>-0.34</ele>
        <time>2024-09-14T13:16:49Z</time>
      </trkpt>
      <trkpt lat="54.351607980206609" lon="12.387694995850325">
        <ele>-0.82</ele>
        <time>2024-09-14T13:16:50Z</time>
      </trkpt>
      <trkpt lat="54.351601023226976" lon="12.387739000841975">
        <ele>-0.82</ele>
        <time>2024-09-14T13:16:51Z</time>
      </trkpt>
      <trkpt lat="54.351595994085073" lon="12.387775965034962">
        <ele>-1.3</ele>
        <time>2024-09-14T13:16:52Z</time>
      </trkpt>
      <trkpt lat="54.351590964943171" lon="12.387809995561838">
        <ele>-1.3</ele>
        <time>2024-09-14T13:16:53Z</time>
      </trkpt>
      <trkpt lat="54.351585013791919" lon="12.387846959754825">
        <ele>-1.79</ele>
        <time>2024-09-14T13:16:54Z</time>
      </trkpt>
      <trkpt lat="54.351578978821635" lon="12.387889958918095">
        <ele>-2.27</ele>
        <time>2024-09-14T13:16:55Z</time>
      </trkpt>
      <trkpt lat="54.351571016013622" lon="12.387945028021932">
        <ele>-2.27</ele>
        <time>2024-09-14T13:16:56Z</time>
      </trkpt>
      <trkpt lat="54.351561041548848" lon="12.388013005256653">
        <ele>-2.75</ele>
        <time>2024-09-14T13:16:57Z</time>
      </trkpt>
      <trkpt lat="54.351398013532162" lon="12.389106005430222">
        <ele>-6.11</ele>
        <time>2024-09-14T13:17:09Z</time>
      </trkpt>
      <trkpt lat="54.351255018264055" lon="12.390021979808807">
        <ele>-6.59</ele>
        <time>2024-09-14T13:17:18Z</time>
      </trkpt>
      <trkpt lat="54.351219981908798" lon="12.390246028080583">
        <ele>-6.59</ele>
        <time>2024-09-14T13:17:20Z</time>
      </trkpt>
      <trkpt lat="54.351193998008966" lon="12.390360021963716">
        <ele>-6.59</ele>
        <time>2024-09-14T13:17:21Z</time>
      </trkpt>
      <trkpt lat="54.351160973310471" lon="12.390465969219804">
        <ele>-6.59</ele>
        <time>2024-09-14T13:17:22Z</time>
      </trkpt>
      <trkpt lat="54.351017978042364" lon="12.39090601913631">
        <ele>-6.11</ele>
        <time>2024-09-14T13:17:26Z</time>
      </trkpt>
      <trkpt lat="54.350983025506139" lon="12.391010960564017">
        <ele>-6.59</ele>
        <time>2024-09-14T13:17:27Z</time>
      </trkpt>
      <trkpt lat="54.350951006636024" lon="12.391106011345983">
        <ele>-6.59</ele>
        <time>2024-09-14T13:17:28Z</time>
      </trkpt>
      <trkpt lat="54.350919993594289" lon="12.391193015500903">
        <ele>-6.59</ele>
        <time>2024-09-14T13:17:29Z</time>
      </trkpt>
      <trkpt lat="54.350885963067412" lon="12.391282031312585">
        <ele>-6.59</ele>
        <time>2024-09-14T13:17:30Z</time>
      </trkpt>
      <trkpt lat="54.350848998874426" lon="12.391374986618757">
        <ele>-7.07</ele>
        <time>2024-09-14T13:17:31Z</time>
      </trkpt>
      <trkpt lat="54.350732993334532" lon="12.391675980761647">
        <ele>-7.55</ele>
        <time>2024-09-14T13:17:34Z</time>
      </trkpt>
      <trkpt lat="54.350689994171262" lon="12.391785029321909">
        <ele>-8.029999999999999</ele>
        <time>2024-09-14T13:17:35Z</time>
      </trkpt>
      <trkpt lat="54.350139973685145" lon="12.393201990053058">
        <ele>-10.44</ele>
        <time>2024-09-14T13:17:47Z</time>
      </trkpt>
      <trkpt lat="54.349858006462455" lon="12.393929036334157">
        <ele>-9.960000000000001</ele>
        <time>2024-09-14T13:17:54Z</time>
      </trkpt>
      <trkpt lat="54.349816013127565" lon="12.394036995247006">
        <ele>-9.960000000000001</ele>
        <time>2024-09-14T13:17:55Z</time>
      </trkpt>
      <trkpt lat="54.349772008135915" lon="12.394148977473378">
        <ele>-9.48</ele>
        <time>2024-09-14T13:17:56Z</time>
      </trkpt>
      <trkpt lat="54.349593976512551" lon="12.394591039046645">
        <ele>-9</ele>
        <time>2024-09-14T13:18:00Z</time>
      </trkpt>
      <trkpt lat="54.349443018436432" lon="12.394965961575508">
        <ele>-9</ele>
        <time>2024-09-14T13:18:04Z</time>
      </trkpt>
      <trkpt lat="54.349403958767653" lon="12.395063024014235">
        <ele>-9</ele>
        <time>2024-09-14T13:18:05Z</time>
      </trkpt>
      <trkpt lat="54.349363977089524" lon="12.395163020119071">
        <ele>-9</ele>
        <time>2024-09-14T13:18:06Z</time>
      </trkpt>
      <trkpt lat="54.349284013733268" lon="12.395361000671983">
        <ele>-9</ele>
        <time>2024-09-14T13:18:08Z</time>
      </trkpt>
      <trkpt lat="54.349033981561661" lon="12.395985033363104">
        <ele>-9</ele>
        <time>2024-09-14T13:18:14Z</time>
      </trkpt>
      <trkpt lat="54.348980002105236" lon="12.396118976175785">
        <ele>-9</ele>
        <time>2024-09-14T13:18:15Z</time>
      </trkpt>
      <trkpt lat="54.348948989063501" lon="12.396195000037551">
        <ele>-8.51</ele>
        <time>2024-09-14T13:18:16Z</time>
      </trkpt>
      <trkpt lat="54.348908001556993" lon="12.39629901945591">
        <ele>-8.029999999999999</ele>
        <time>2024-09-14T13:18:17Z</time>
      </trkpt>
      <trkpt lat="54.348867014050484" lon="12.396403038874269">
        <ele>-8.029999999999999</ele>
        <time>2024-09-14T13:18:18Z</time>
      </trkpt>
      <trkpt lat="54.348827032372355" lon="12.396505968645215">
        <ele>-8.029999999999999</ele>
        <time>2024-09-14T13:18:19Z</time>
      </trkpt>
      <trkpt lat="54.348335014656186" lon="12.397757973521948">
        <ele>-5.63</ele>
        <time>2024-09-14T13:18:31Z</time>
      </trkpt>
      <trkpt lat="54.348071990534663" lon="12.398393992334604">
        <ele>-4.67</ele>
        <time>2024-09-14T13:18:40Z</time>
      </trkpt>
      <trkpt lat="54.347932012751698" lon="12.398725999519229">
        <ele>-4.19</ele>
        <time>2024-09-14T13:18:50Z</time>
      </trkpt>
      <trkpt lat="54.347932012751698" lon="12.398725999519229">
        <ele>-4.19</ele>
        <time>2024-09-14T13:19:24Z</time>
      </trkpt>
      <trkpt lat="54.347916003316641" lon="12.398938983678818">
        <ele>2.06</ele>
        <time>2024-09-14T13:19:32Z</time>
      </trkpt>
      <trkpt lat="54.347952967509627" lon="12.398976031690836">
        <ele>1.58</ele>
        <time>2024-09-14T13:19:33Z</time>
      </trkpt>
      <trkpt lat="54.348532995209098" lon="12.399626970291138">
        <ele>-1.79</ele>
        <time>2024-09-14T13:19:44Z</time>
      </trkpt>
      <trkpt lat="54.349274961277843" lon="12.400522995740175">
        <ele>-2.27</ele>
        <time>2024-09-14T13:19:54Z</time>
      </trkpt>
      <trkpt lat="54.350203005596995" lon="12.401719009503722">
        <ele>-1.79</ele>
        <time>2024-09-14T13:20:04Z</time>
      </trkpt>
      <trkpt lat="54.351244037970901" lon="12.403105963021517">
        <ele>-3.23</ele>
        <time>2024-09-14T13:20:15Z</time>
      </trkpt>
      <trkpt lat="54.352582041174173" lon="12.40489399060607">
        <ele>-5.15</ele>
        <time>2024-09-14T13:20:28Z</time>
      </trkpt>
      <trkpt lat="54.353721980005503" lon="12.406432991847396">
        <ele>-3.23</ele>
        <time>2024-09-14T13:20:36Z</time>
      </trkpt>
      <trkpt lat="54.355279002338648" lon="12.408023038879037">
        <ele>-0.34</ele>
        <time>2024-09-14T13:20:46Z</time>
      </trkpt>
      <trkpt lat="54.356661010533571" lon="12.409144034609199">
        <ele>0.62</ele>
        <time>2024-09-14T13:20:56Z</time>
      </trkpt>
      <trkpt lat="54.356790008023381" lon="12.409171024337411">
        <ele>0.62</ele>
        <time>2024-09-14T13:20:57Z</time>
      </trkpt>
      <trkpt lat="54.357906980440021" lon="12.409318964928389">
        <ele>1.1</ele>
        <time>2024-09-14T13:21:06Z</time>
      </trkpt>
      <trkpt lat="54.358749026432633" lon="12.409395994618535">
        <ele>2.06</ele>
        <time>2024-09-14T13:21:13Z</time>
      </trkpt>
      <trkpt lat="54.359859963878989" lon="12.409498002380133">
        <ele>0.62</ele>
        <time>2024-09-14T13:21:23Z</time>
      </trkpt>
      <trkpt lat="54.361375998705626" lon="12.409460032358766">
        <ele>-3.23</ele>
        <time>2024-09-14T13:21:36Z</time>
      </trkpt>
      <trkpt lat="54.361489992588758" lon="12.409432958811522">
        <ele>-3.71</ele>
        <time>2024-09-14T13:21:37Z</time>
      </trkpt>
      <trkpt lat="54.36159904114902" lon="12.409392977133393">
        <ele>-3.71</ele>
        <time>2024-09-14T13:21:38Z</time>
      </trkpt>
      <trkpt lat="54.362549968063831" lon="12.409065999090672">
        <ele>-2.27</ele>
        <time>2024-09-14T13:21:46Z</time>
      </trkpt>
      <trkpt lat="54.362667985260487" lon="12.409100029617548">
        <ele>-2.27</ele>
        <time>2024-09-14T13:21:47Z</time>
      </trkpt>
      <trkpt lat="54.362787008285522" lon="12.409133976325393">
        <ele>-2.27</ele>
        <time>2024-09-14T13:21:48Z</time>
      </trkpt>
      <trkpt lat="54.362904019653797" lon="12.409167001023889">
        <ele>-2.27</ele>
        <time>2024-09-14T13:21:49Z</time>
      </trkpt>
      <trkpt lat="54.363022958859801" lon="12.409202037379146">
        <ele>-2.75</ele>
        <time>2024-09-14T13:21:50Z</time>
      </trkpt>
      <trkpt lat="54.364335983991623" lon="12.409565979614854">
        <ele>-5.15</ele>
        <time>2024-09-14T13:22:01Z</time>
      </trkpt>
      <trkpt lat="54.365862999111414" lon="12.410123040899634">
        <ele>-7.55</ele>
        <time>2024-09-14T13:22:13Z</time>
      </trkpt>
      <trkpt lat="54.367009978741407" lon="12.410967014729977">
        <ele>-7.55</ele>
        <time>2024-09-14T13:22:21Z</time>
      </trkpt>
      <trkpt lat="54.368163999170065" lon="12.412101002410054">
        <ele>-5.63</ele>
        <time>2024-09-14T13:22:30Z</time>
      </trkpt>
      <trkpt lat="54.368251003324986" lon="12.412253972142935">
        <ele>-5.63</ele>
        <time>2024-09-14T13:22:31Z</time>
      </trkpt>
      <trkpt lat="54.368332978338003" lon="12.412424962967634">
        <ele>-5.63</ele>
        <time>2024-09-14T13:22:32Z</time>
      </trkpt>
      <trkpt lat="54.368391986936331" lon="12.412610035389662">
        <ele>-5.63</ele>
        <time>2024-09-14T13:22:33Z</time>
      </trkpt>
      <trkpt lat="54.368452001363039" lon="12.412797035649419">
        <ele>-6.11</ele>
        <time>2024-09-14T13:22:34Z</time>
      </trkpt>
      <trkpt lat="54.368510004132986" lon="12.412981018424034">
        <ele>-6.11</ele>
        <time>2024-09-14T13:22:35Z</time>
      </trkpt>
      <trkpt lat="54.368567001074553" lon="12.413158966228366">
        <ele>-6.11</ele>
        <time>2024-09-14T13:22:36Z</time>
      </trkpt>
      <trkpt lat="54.368752995505929" lon="12.413654001429677">
        <ele>-5.63</ele>
        <time>2024-09-14T13:22:39Z</time>
      </trkpt>
      <trkpt lat="54.36882097274065" lon="12.413817029446363">
        <ele>-5.63</ele>
        <time>2024-09-14T13:22:40Z</time>
      </trkpt>
      <trkpt lat="54.3689030315727" lon="12.413946026936173">
        <ele>-5.15</ele>
        <time>2024-09-14T13:22:41Z</time>
      </trkpt>
      <trkpt lat="54.369002021849155" lon="12.414057003334165">
        <ele>-5.15</ele>
        <time>2024-09-14T13:22:42Z</time>
      </trkpt>
      <trkpt lat="54.369106041267514" lon="12.414158005267382">
        <ele>-4.67</ele>
        <time>2024-09-14T13:22:43Z</time>
      </trkpt>
      <trkpt lat="54.369210982695222" lon="12.414256995543838">
        <ele>-4.19</ele>
        <time>2024-09-14T13:22:44Z</time>
      </trkpt>
      <trkpt lat="54.370402973145247" lon="12.415195014327765">
        <ele>-2.75</ele>
        <time>2024-09-14T13:22:55Z</time>
      </trkpt>
      <trkpt lat="54.371307967230678" lon="12.415884006768465">
        <ele>-3.71</ele>
        <time>2024-09-14T13:23:04Z</time>
      </trkpt>
      <trkpt lat="54.372239029034972" lon="12.416138984262943">
        <ele>-4.67</ele>
        <time>2024-09-14T13:23:12Z</time>
      </trkpt>
      <trkpt lat="54.373101023957133" lon="12.416129009798169">
        <ele>-4.67</ele>
        <time>2024-09-14T13:23:20Z</time>
      </trkpt>
      <trkpt lat="54.373434958979487" lon="12.416123980656266">
        <ele>-5.63</ele>
        <time>2024-09-14T13:23:23Z</time>
      </trkpt>
      <trkpt lat="54.373543001711369" lon="12.416121968999505">
        <ele>-6.11</ele>
        <time>2024-09-14T13:23:24Z</time>
      </trkpt>
      <trkpt lat="54.373651966452599" lon="12.416120041161776">
        <ele>-6.11</ele>
        <time>2024-09-14T13:23:25Z</time>
      </trkpt>
      <trkpt lat="54.373759003356099" lon="12.416118029505014">
        <ele>-6.11</ele>
        <time>2024-09-14T13:23:26Z</time>
      </trkpt>
      <trkpt lat="54.373863022774458" lon="12.416126998141408">
        <ele>-6.11</ele>
        <time>2024-09-14T13:23:27Z</time>
      </trkpt>
      <trkpt lat="54.374857032671571" lon="12.41634601727128">
        <ele>-7.07</ele>
        <time>2024-09-14T13:23:38Z</time>
      </trkpt>
      <trkpt lat="54.3755860067904" lon="12.416347023099661">
        <ele>-8.029999999999999</ele>
        <time>2024-09-14T13:23:47Z</time>
      </trkpt>
      <trkpt lat="54.376739021390676" lon="12.416179971769452">
        <ele>-7.55</ele>
        <time>2024-09-14T13:23:59Z</time>
      </trkpt>
      <trkpt lat="54.376840023323894" lon="12.416164968162775">
        <ele>-7.07</ele>
        <time>2024-09-14T13:24:00Z</time>
      </trkpt>
      <trkpt lat="54.376941025257111" lon="12.416200004518032">
        <ele>-7.07</ele>
        <time>2024-09-14T13:24:01Z</time>
      </trkpt>
      <trkpt lat="54.377032974734902" lon="12.416257001459599">
        <ele>-6.59</ele>
        <time>2024-09-14T13:24:02Z</time>
      </trkpt>
      <trkpt lat="54.377121990546584" lon="12.416310980916023">
        <ele>-6.59</ele>
        <time>2024-09-14T13:24:03Z</time>
      </trkpt>
      <trkpt lat="54.377207988873124" lon="12.416364038363099">
        <ele>-6.59</ele>
        <time>2024-09-14T13:24:04Z</time>
      </trkpt>
      <trkpt lat="54.377883989363909" lon="12.41697097197175">
        <ele>-6.59</ele>
        <time>2024-09-14T13:24:14Z</time>
      </trkpt>
      <trkpt lat="54.378095967695117" lon="12.417151015251875">
        <ele>-7.07</ele>
        <time>2024-09-14T13:24:18Z</time>
      </trkpt>
      <trkpt lat="54.378570970147848" lon="12.417599027976394">
        <ele>-8.51</ele>
        <time>2024-09-14T13:24:28Z</time>
      </trkpt>
      <trkpt lat="54.378613969311118" lon="12.417642027139664">
        <ele>-8.51</ele>
        <time>2024-09-14T13:24:29Z</time>
      </trkpt>
      <trkpt lat="54.378654034808278" lon="12.417682008817792">
        <ele>-8.51</ele>
        <time>2024-09-14T13:24:30Z</time>
      </trkpt>
      <trkpt lat="54.378692004829645" lon="12.417719978839159">
        <ele>-8.51</ele>
        <time>2024-09-14T13:24:31Z</time>
      </trkpt>
      <trkpt lat="54.378725029528141" lon="12.417753003537655">
        <ele>-8.51</ele>
        <time>2024-09-14T13:24:32Z</time>
      </trkpt>
      <trkpt lat="54.378756964579225" lon="12.41778502240777">
        <ele>-9</ele>
        <time>2024-09-14T13:24:33Z</time>
      </trkpt>
      <trkpt lat="54.379063993692398" lon="12.418112000450492">
        <ele>-9.48</ele>
        <time>2024-09-14T13:24:42Z</time>
      </trkpt>
      <trkpt lat="54.379102969542146" lon="12.418152987957001">
        <ele>-9.48</ele>
        <time>2024-09-14T13:24:43Z</time>
      </trkpt>
      <trkpt lat="54.379183016717434" lon="12.418239992111921">
        <ele>-9.48</ele>
        <time>2024-09-14T13:24:45Z</time>
      </trkpt>
      <trkpt lat="54.379419973120093" lon="12.418487006798387">
        <ele>-10.44</ele>
        <time>2024-09-14T13:24:54Z</time>
      </trkpt>
      <trkpt lat="54.379591969773173" lon="12.418641988188028">
        <ele>-11.4</ele>
        <time>2024-09-14T13:25:04Z</time>
      </trkpt>
      <trkpt lat="54.379591969773173" lon="12.418641988188028">
        <ele>-11.880000000000001</ele>
        <time>2024-09-14T13:25:05Z</time>
      </trkpt>
      <trkpt lat="54.379577971994877" lon="12.418778026476502">
        <ele>-11.880000000000001</ele>
        <time>2024-09-14T13:25:06Z</time>
      </trkpt>
      <trkpt lat="54.379573026672006" lon="12.418807027861476">
        <ele>-11.880000000000001</ele>
        <time>2024-09-14T13:25:07Z</time>
      </trkpt>
      <trkpt lat="54.379565985873342" lon="12.418851032853127">
        <ele>-11.880000000000001</ele>
        <time>2024-09-14T13:25:08Z</time>
      </trkpt>
      <trkpt lat="54.379556011408567" lon="12.418910041451454">
        <ele>-11.880000000000001</ele>
        <time>2024-09-14T13:25:09Z</time>
      </trkpt>
      <trkpt lat="54.379546036943793" lon="12.418969972059131">
        <ele>-12.359999999999999</ele>
        <time>2024-09-14T13:25:10Z</time>
      </trkpt>
      <trkpt lat="54.379494991153479" lon="12.41926702670753">
        <ele>-14.279999999999999</ele>
        <time>2024-09-14T13:25:22Z</time>
      </trkpt>
      <trkpt lat="54.379494991153479" lon="12.41926702670753">
        <ele>-15.24</ele>
        <time>2024-09-14T13:25:37Z</time>
      </trkpt>
      <trkpt lat="54.379473030567169" lon="12.419365011155605">
        <ele>-32.07</ele>
        <time>2024-09-14T14:40:29Z</time>
      </trkpt>
      <trkpt lat="54.37943397089839" lon="12.419409016147256">
        <ele>-20.530000000000001</ele>
        <time>2024-09-14T14:41:04Z</time>
      </trkpt>
      <trkpt lat="54.379420978948474" lon="12.419480010867119">
        <ele>-16.690000000000001</ele>
        <time>2024-09-14T14:41:29Z</time>
      </trkpt>
      <trkpt lat="54.379459032788873" lon="12.419502977281809">
        <ele>-19.09</ele>
        <time>2024-09-14T14:41:37Z</time>
      </trkpt>
      <trkpt lat="54.379537990316749" lon="12.419014982879162">
        <ele>-18.609999999999999</ele>
        <time>2024-09-14T14:41:49Z</time>
      </trkpt>
      <trkpt lat="54.379694983363152" lon="12.418728992342949">
        <ele>-17.170000000000002</ele>
        <time>2024-09-14T14:41:58Z</time>
      </trkpt>
      <trkpt lat="54.379728008061647" lon="12.418756987899542">
        <ele>-17.170000000000002</ele>
        <time>2024-09-14T14:41:59Z</time>
      </trkpt>
      <trkpt lat="54.379781987518072" lon="12.418801998719573">
        <ele>-17.170000000000002</ele>
        <time>2024-09-14T14:42:00Z</time>
      </trkpt>
      <trkpt lat="54.380169985815883" lon="12.419126965105534">
        <ele>-17.170000000000002</ele>
        <time>2024-09-14T14:42:07Z</time>
      </trkpt>
      <trkpt lat="54.380212984979153" lon="12.419163007289171">
        <ele>-17.170000000000002</ele>
        <time>2024-09-14T14:42:08Z</time>
      </trkpt>
      <trkpt lat="54.3802519608289" lon="12.419195026159286">
        <ele>-17.649999999999999</ele>
        <time>2024-09-14T14:42:09Z</time>
      </trkpt>
      <trkpt lat="54.380280962213874" lon="12.419220004230738">
        <ele>-18.129999999999999</ele>
        <time>2024-09-14T14:42:10Z</time>
      </trkpt>
      <trkpt lat="54.380306024104357" lon="12.419240958988667">
        <ele>-18.129999999999999</ele>
        <time>2024-09-14T14:42:11Z</time>
      </trkpt>
      <trkpt lat="54.380322033539414" lon="12.419255040585995">
        <ele>-18.609999999999999</ele>
        <time>2024-09-14T14:42:12Z</time>
      </trkpt>
      <trkpt lat="54.380322033539414" lon="12.419255040585995">
        <ele>-18.609999999999999</ele>
        <time>2024-09-14T14:42:26Z</time>
      </trkpt>
      <trkpt lat="54.380349023267627" lon="12.419277001172304">
        <ele>-19.09</ele>
        <time>2024-09-14T14:42:46Z</time>
      </trkpt>
      <trkpt lat="54.380394034087658" lon="12.419314971193671">
        <ele>-19.09</ele>
        <time>2024-09-14T14:42:47Z</time>
      </trkpt>
      <trkpt lat="54.38042102381587" lon="12.419339027255774">
        <ele>-19.09</ele>
        <time>2024-09-14T14:42:48Z</time>
      </trkpt>
      <trkpt lat="54.380613975226879" lon="12.419515969231725">
        <ele>-20.050000000000001</ele>
        <time>2024-09-14T14:42:52Z</time>
      </trkpt>
      <trkpt lat="54.380780020728707" lon="12.419668016955256">
        <ele>-20.530000000000001</ele>
        <time>2024-09-14T14:42:55Z</time>
      </trkpt>
      <trkpt lat="54.380886973813176" lon="12.419766001403332">
        <ele>-21.010000000000002</ele>
        <time>2024-09-14T14:42:57Z</time>
      </trkpt>
      <trkpt lat="54.38093701377511" lon="12.419812018051744">
        <ele>-21.010000000000002</ele>
        <time>2024-09-14T14:42:58Z</time>
      </trkpt>
      <trkpt lat="54.380987975746393" lon="12.419858034700155">
        <ele>-21.010000000000002</ele>
        <time>2024-09-14T14:42:59Z</time>
      </trkpt>
      <trkpt lat="54.381360970437527" lon="12.420199010521173">
        <ele>-21.489999999999998</ele>
        <time>2024-09-14T14:43:07Z</time>
      </trkpt>
      <trkpt lat="54.381402963772416" lon="12.420237986370921">
        <ele>-21.489999999999998</ele>
        <time>2024-09-14T14:43:08Z</time>
      </trkpt>
      <trkpt lat="54.381933035328984" lon="12.420884985476732">
        <ele>-20.530000000000001</ele>
        <time>2024-09-14T14:43:18Z</time>
      </trkpt>
      <trkpt lat="54.382439972832799" lon="12.421753015369177">
        <ele>-20.050000000000001</ele>
        <time>2024-09-14T14:43:28Z</time>
      </trkpt>
      <trkpt lat="54.382983036339283" lon="12.423391006886959">
        <ele>-18.609999999999999</ele>
        <time>2024-09-14T14:43:43Z</time>
      </trkpt>
      <trkpt lat="54.383160984143615" lon="12.423788979649544">
        <ele>-18.129999999999999</ele>
        <time>2024-09-14T14:43:47Z</time>
      </trkpt>
      <trkpt lat="54.383205994963646" lon="12.423889981582761">
        <ele>-18.129999999999999</ele>
        <time>2024-09-14T14:43:48Z</time>
      </trkpt>
      <trkpt lat="54.383889958262444" lon="12.424817020073533">
        <ele>-16.690000000000001</ele>
        <time>2024-09-14T14:44:00Z</time>
      </trkpt>
      <trkpt lat="54.384610969573259" lon="12.425981014966965">
        <ele>-13.800000000000001</ele>
        <time>2024-09-14T14:44:13Z</time>
      </trkpt>
      <trkpt lat="54.385353019461036" lon="12.427554968744516">
        <ele>-10.92</ele>
        <time>2024-09-14T14:44:24Z</time>
      </trkpt>
      <trkpt lat="54.386277040466666" lon="12.429628986865282">
        <ele>-8.029999999999999</ele>
        <time>2024-09-14T14:44:37Z</time>
      </trkpt>
      <trkpt lat="54.387092012912035" lon="12.431929986923933">
        <ele>-5.15</ele>
        <time>2024-09-14T14:44:50Z</time>
      </trkpt>
      <trkpt lat="54.38787697814405" lon="12.433969974517822">
        <ele>-2.27</ele>
        <time>2024-09-14T14:45:02Z</time>
      </trkpt>
      <trkpt lat="54.389011971652508" lon="12.435544012114406">
        <ele>-2.27</ele>
        <time>2024-09-14T14:45:14Z</time>
      </trkpt>
      <trkpt lat="54.390252996236086" lon="12.437215028330684">
        <ele>-1.79</ele>
        <time>2024-09-14T14:45:27Z</time>
      </trkpt>
      <trkpt lat="54.391067968681455" lon="12.438426967710257">
        <ele>-3.71</ele>
        <time>2024-09-14T14:45:36Z</time>
      </trkpt>
      <trkpt lat="54.391209958121181" lon="12.438757969066501">
        <ele>-4.19</ele>
        <time>2024-09-14T14:45:38Z</time>
      </trkpt>
      <trkpt lat="54.391306014731526" lon="12.438890989869833">
        <ele>-4.19</ele>
        <time>2024-09-14T14:45:39Z</time>
      </trkpt>
      <trkpt lat="54.391409028321505" lon="12.438978999853134">
        <ele>-4.19</ele>
        <time>2024-09-14T14:45:40Z</time>
      </trkpt>
      <trkpt lat="54.392450982704759" lon="12.440385986119509">
        <ele>-6.11</ele>
        <time>2024-09-14T14:45:51Z</time>
      </trkpt>
      <trkpt lat="54.393285987898707" lon="12.441618964076042">
        <ele>-7.55</ele>
        <time>2024-09-14T14:45:58Z</time>
      </trkpt>
      <trkpt lat="54.394946023821831" lon="12.444057008251548">
        <ele>-9.48</ele>
        <time>2024-09-14T14:46:09Z</time>
      </trkpt>
      <trkpt lat="54.396439008414745" lon="12.446229010820389">
        <ele>-9.960000000000001</ele>
        <time>2024-09-14T14:46:20Z</time>
      </trkpt>
      <trkpt lat="54.397870972752571" lon="12.44818702340126">
        <ele>-9.960000000000001</ele>
        <time>2024-09-14T14:46:31Z</time>
      </trkpt>
      <trkpt lat="54.399234959855676" lon="12.449955018237233">
        <ele>-9</ele>
        <time>2024-09-14T14:46:41Z</time>
      </trkpt>
      <trkpt lat="54.399548023939133" lon="12.450694972649217">
        <ele>-9.48</ele>
        <time>2024-09-14T14:46:44Z</time>
      </trkpt>
      <trkpt lat="54.399621030315757" lon="12.450961014255881">
        <ele>-9.48</ele>
        <time>2024-09-14T14:46:45Z</time>
      </trkpt>
      <trkpt lat="54.400327038019896" lon="12.454023007303476">
        <ele>-11.4</ele>
        <time>2024-09-14T14:46:56Z</time>
      </trkpt>
      <trkpt lat="54.40104897134006" lon="12.457281975075603">
        <ele>-15.24</ele>
        <time>2024-09-14T14:47:07Z</time>
      </trkpt>
      <trkpt lat="54.402000987902284" lon="12.461473010480404">
        <ele>-21.010000000000002</ele>
        <time>2024-09-14T14:47:21Z</time>
      </trkpt>
      <trkpt lat="54.402654021978378" lon="12.464349009096622">
        <ele>-25.82</ele>
        <time>2024-09-14T14:47:31Z</time>
      </trkpt>
      <trkpt lat="54.40317302942276" lon="12.466642968356609">
        <ele>-25.34</ele>
        <time>2024-09-14T14:47:39Z</time>
      </trkpt>
      <trkpt lat="54.403472011908889" lon="12.468909015879035">
        <ele>-24.379999999999999</ele>
        <time>2024-09-14T14:47:47Z</time>
      </trkpt>
      <trkpt lat="54.403465976938605" lon="12.469200035557151">
        <ele>-24.379999999999999</ele>
        <time>2024-09-14T14:47:48Z</time>
      </trkpt>
      <trkpt lat="54.403160037472844" lon="12.471711002290249">
        <ele>-25.82</ele>
        <time>2024-09-14T14:47:56Z</time>
      </trkpt>
      <trkpt lat="54.402785031124949" lon="12.474562022835016">
        <ele>-27.260000000000002</ele>
        <time>2024-09-14T14:48:05Z</time>
      </trkpt>
      <trkpt lat="54.402505997568369" lon="12.476684991270304">
        <ele>-33.030000000000001</ele>
        <time>2024-09-14T14:48:12Z</time>
      </trkpt>
      <trkpt lat="54.402172984555364" lon="12.479273993521929">
        <ele>-40.240000000000002</ele>
        <time>2024-09-14T14:48:20Z</time>
      </trkpt>
      <trkpt lat="54.401856986805797" lon="12.481916975229979">
        <ele>-47.93</ele>
        <time>2024-09-14T14:48:28Z</time>
      </trkpt>
      <trkpt lat="54.401447027921677" lon="12.484716027975082">
        <ele>-61.869999999999997</ele>
        <time>2024-09-14T14:48:37Z</time>
      </trkpt>
      <trkpt lat="54.401385001838207" lon="12.485023979097605">
        <ele>-63.789999999999999</ele>
        <time>2024-09-14T14:48:38Z</time>
      </trkpt>
      <trkpt lat="54.40109197050333" lon="12.486185040324926">
        <ele>-71.480000000000004</ele>
        <time>2024-09-14T14:48:42Z</time>
      </trkpt>
      <trkpt lat="54.400415970012546" lon="12.488332986831665">
        <ele>-82.060000000000002</ele>
        <time>2024-09-14T14:48:50Z</time>
      </trkpt>
      <trkpt lat="54.399709962308407" lon="12.490571038797498">
        <ele>-87.340000000000003</ele>
        <time>2024-09-14T14:48:58Z</time>
      </trkpt>
      <trkpt lat="54.399152984842658" lon="12.492555035278201">
        <ele>-88.299999999999997</ele>
        <time>2024-09-14T14:49:05Z</time>
      </trkpt>
      <trkpt lat="54.398272968828678" lon="12.495401026681066">
        <ele>-91.670000000000002</ele>
        <time>2024-09-14T14:49:15Z</time>
      </trkpt>
      <trkpt lat="54.397387001663446" lon="12.4982900172472">
        <ele>-98.879999999999995</ele>
        <time>2024-09-14T14:49:25Z</time>
      </trkpt>
      <trkpt lat="54.396527018398046" lon="12.500895028933883">
        <ele>-104.65000000000001</ele>
        <time>2024-09-14T14:49:34Z</time>
      </trkpt>
      <trkpt lat="54.395935004577041" lon="12.502582976594567">
        <ele>-108.01000000000001</ele>
        <time>2024-09-14T14:49:40Z</time>
      </trkpt>
      <trkpt lat="54.395740041509271" lon="12.503140037879348">
        <ele>-108.97</ele>
        <time>2024-09-14T14:49:42Z</time>
      </trkpt>
      <trkpt lat="54.395638033747673" lon="12.503430973738432">
        <ele>-109.45</ele>
        <time>2024-09-14T14:49:43Z</time>
      </trkpt>
      <trkpt lat="54.395537031814456" lon="12.503720987588167">
        <ele>-109.93000000000001</ele>
        <time>2024-09-14T14:49:44Z</time>
      </trkpt>
      <trkpt lat="54.395435024052858" lon="12.504007983952761">
        <ele>-110.41</ele>
        <time>2024-09-14T14:49:45Z</time>
      </trkpt>
      <trkpt lat="54.395384984090924" lon="12.504308978095651">
        <ele>-109.93000000000001</ele>
        <time>2024-09-14T14:49:46Z</time>
      </trkpt>
      <trkpt lat="54.395334022119641" lon="12.504636039957404">
        <ele>-109.93000000000001</ele>
        <time>2024-09-14T14:49:47Z</time>
      </trkpt>
      <trkpt lat="54.39500997774303" lon="12.507005017250776">
        <ele>-109.93000000000001</ele>
        <time>2024-09-14T14:49:54Z</time>
      </trkpt>
      <trkpt lat="54.394685011357069" lon="12.509458987042308">
        <ele>-108.97</ele>
        <time>2024-09-14T14:50:01Z</time>
      </trkpt>
      <trkpt lat="54.394391980022192" lon="12.511680023744702">
        <ele>-108.01000000000001</ele>
        <time>2024-09-14T14:50:08Z</time>
      </trkpt>
      <trkpt lat="54.39395897090435" lon="12.514947960153222">
        <ele>-98.400000000000006</ele>
        <time>2024-09-14T14:50:18Z</time>
      </trkpt>
      <trkpt lat="54.393507018685341" lon="12.517549032345414">
        <ele>-89.269999999999996</ele>
        <time>2024-09-14T14:50:26Z</time>
      </trkpt>
      <trkpt lat="54.393307026475668" lon="12.518125036731362">
        <ele>-89.269999999999996</ele>
        <time>2024-09-14T14:50:28Z</time>
      </trkpt>
      <trkpt lat="54.393196972087026" lon="12.518423013389111">
        <ele>-88.780000000000001</ele>
        <time>2024-09-14T14:50:29Z</time>
      </trkpt>
      <trkpt lat="54.392283009365201" lon="12.520686965435743">
        <ele>-92.150000000000006</ele>
        <time>2024-09-14T14:50:37Z</time>
      </trkpt>
      <trkpt lat="54.391165031120181" lon="12.523483000695705">
        <ele>-96.959999999999994</ele>
        <time>2024-09-14T14:50:47Z</time>
      </trkpt>
      <trkpt lat="54.390300018712878" lon="12.525715017691255">
        <ele>-97.920000000000002</ele>
        <time>2024-09-14T14:50:55Z</time>
      </trkpt>
      <trkpt lat="54.390204967930913" lon="12.52596203237772">
        <ele>-98.400000000000006</ele>
        <time>2024-09-14T14:50:56Z</time>
      </trkpt>
      <trkpt lat="54.390114024281502" lon="12.52619999460876">
        <ele>-99.359999999999999</ele>
        <time>2024-09-14T14:50:57Z</time>
      </trkpt>
      <trkpt lat="54.390028025954962" lon="12.526423037052155">
        <ele>-99.840000000000003</ele>
        <time>2024-09-14T14:50:58Z</time>
      </trkpt>
      <trkpt lat="54.389945967122912" lon="12.526638032868505">
        <ele>-100.31999999999999</ele>
        <time>2024-09-14T14:50:59Z</time>
      </trkpt>
      <trkpt lat="54.389771036803722" lon="12.527096020057797">
        <ele>-101.76000000000001</ele>
        <time>2024-09-14T14:51:01Z</time>
      </trkpt>
      <trkpt lat="54.389571966603398" lon="12.527783000841737">
        <ele>-103.68000000000001</ele>
        <time>2024-09-14T14:51:05Z</time>
      </trkpt>
      <trkpt lat="54.389298968017101" lon="12.529567005112767">
        <ele>-101.28</ele>
        <time>2024-09-14T14:51:14Z</time>
      </trkpt>
      <trkpt lat="54.389298968017101" lon="12.529760962352157">
        <ele>-100.31999999999999</ele>
        <time>2024-09-14T14:51:15Z</time>
      </trkpt>
      <trkpt lat="54.3893370218575" lon="12.530358005315065">
        <ele>-96.959999999999994</ele>
        <time>2024-09-14T14:51:18Z</time>
      </trkpt>
      <trkpt lat="54.389363005757332" lon="12.530535031110048">
        <ele>-96.959999999999994</ele>
        <time>2024-09-14T14:51:19Z</time>
      </trkpt>
      <trkpt lat="54.389508012682199" lon="12.531510014086962">
        <ele>-96.959999999999994</ele>
        <time>2024-09-14T14:51:24Z</time>
      </trkpt>
      <trkpt lat="54.389537014067173" lon="12.531700031831861">
        <ele>-96.959999999999994</ele>
        <time>2024-09-14T14:51:25Z</time>
      </trkpt>
      <trkpt lat="54.389973962679505" lon="12.533855019137263">
        <ele>-101.28</ele>
        <time>2024-09-14T14:51:36Z</time>
      </trkpt>
      <trkpt lat="54.390480984002352" lon="12.536164987832308">
        <ele>-99.840000000000003</ele>
        <time>2024-09-14T14:51:48Z</time>
      </trkpt>
      <trkpt lat="54.39097099006176" lon="12.537862993776798">
        <ele>-88.780000000000001</ele>
        <time>2024-09-14T14:51:57Z</time>
      </trkpt>
      <trkpt lat="54.391518998891115" lon="12.539476007223129">
        <ele>-71</ele>
        <time>2024-09-14T14:52:06Z</time>
      </trkpt>
      <trkpt lat="54.391707004979253" lon="12.5400370080024">
        <ele>-68.599999999999994</ele>
        <time>2024-09-14T14:52:09Z</time>
      </trkpt>
      <trkpt lat="54.392130961641669" lon="12.542482009157538">
        <ele>-52.740000000000002</ele>
        <time>2024-09-14T14:52:21Z</time>
      </trkpt>
      <trkpt lat="54.392407983541489" lon="12.545205038040876">
        <ele>-36.390000000000001</ele>
        <time>2024-09-14T14:52:33Z</time>
      </trkpt>
      <trkpt lat="54.39277402125299" lon="12.548547992482781">
        <ele>-26.300000000000001</ele>
        <time>2024-09-14T14:52:44Z</time>
      </trkpt>
      <trkpt lat="54.393309038132429" lon="12.550829965621233">
        <ele>-22.449999999999999</ele>
        <time>2024-09-14T14:52:52Z</time>
      </trkpt>
      <trkpt lat="54.39421596005559" lon="12.553565986454487">
        <ele>-19.09</ele>
        <time>2024-09-14T14:53:03Z</time>
      </trkpt>
      <trkpt lat="54.39518197439611" lon="12.556426981464028">
        <ele>-18.129999999999999</ele>
        <time>2024-09-14T14:53:14Z</time>
      </trkpt>
      <trkpt lat="54.396145977079868" lon="12.559279007837176">
        <ele>-21.489999999999998</ele>
        <time>2024-09-14T14:53:25Z</time>
      </trkpt>
      <trkpt lat="54.397034961730242" lon="12.56190799176693">
        <ele>-21.489999999999998</ele>
        <time>2024-09-14T14:53:35Z</time>
      </trkpt>
      <trkpt lat="54.397365963086486" lon="12.562886998057365">
        <ele>-21.489999999999998</ele>
        <time>2024-09-14T14:53:39Z</time>
      </trkpt>
      <trkpt lat="54.397457996383309" lon="12.563122026622295">
        <ele>-21.010000000000002</ele>
        <time>2024-09-14T14:53:40Z</time>
      </trkpt>
      <trkpt lat="54.397560004144907" lon="12.563344985246658">
        <ele>-21.010000000000002</ele>
        <time>2024-09-14T14:53:41Z</time>
      </trkpt>
      <trkpt lat="54.39780299551785" lon="12.563754022121429">
        <ele>-20.530000000000001</ele>
        <time>2024-09-14T14:53:43Z</time>
      </trkpt>
      <trkpt lat="54.397945990785956" lon="12.563931969925761">
        <ele>-20.530000000000001</ele>
        <time>2024-09-14T14:53:44Z</time>
      </trkpt>
      <trkpt lat="54.398250002413988" lon="12.564182002097368">
        <ele>-20.050000000000001</ele>
        <time>2024-09-14T14:53:46Z</time>
      </trkpt>
      <trkpt lat="54.399680960923433" lon="12.565362006425858">
        <ele>-19.09</ele>
        <time>2024-09-14T14:53:56Z</time>
      </trkpt>
      <trkpt lat="54.401076966896653" lon="12.566515021026134">
        <ele>-17.170000000000002</ele>
        <time>2024-09-14T14:54:06Z</time>
      </trkpt>
      <trkpt lat="54.403313007205725" lon="12.568363985046744">
        <ele>-16.210000000000001</ele>
        <time>2024-09-14T14:54:18Z</time>
      </trkpt>
      <trkpt lat="54.404704989865422" lon="12.569509958848357">
        <ele>-15.24</ele>
        <time>2024-09-14T14:54:26Z</time>
      </trkpt>
      <trkpt lat="54.40588298253715" lon="12.57035200484097">
        <ele>-14.76</ele>
        <time>2024-09-14T14:54:35Z</time>
      </trkpt>
      <trkpt lat="54.406013991683722" lon="12.570398021489382">
        <ele>-14.76</ele>
        <time>2024-09-14T14:54:36Z</time>
      </trkpt>
      <trkpt lat="54.407307989895344" lon="12.570398021489382">
        <ele>-12.84</ele>
        <time>2024-09-14T14:54:47Z</time>
      </trkpt>
      <trkpt lat="54.408032018691301" lon="12.570459041744471">
        <ele>-11.880000000000001</ele>
        <time>2024-09-14T14:54:53Z</time>
      </trkpt>
      <trkpt lat="54.408494029194117" lon="12.570662973448634">
        <ele>-11.4</ele>
        <time>2024-09-14T14:54:57Z</time>
      </trkpt>
      <trkpt lat="54.409468006342649" lon="12.57136101834476">
        <ele>-11.4</ele>
        <time>2024-09-14T14:55:06Z</time>
      </trkpt>
      <trkpt lat="54.410314997658134" lon="12.572401966899633">
        <ele>-10.44</ele>
        <time>2024-09-14T14:55:15Z</time>
      </trkpt>
      <trkpt lat="54.410391021519899" lon="12.572559965774417">
        <ele>-10.44</ele>
        <time>2024-09-14T14:55:16Z</time>
      </trkpt>
      <trkpt lat="54.411299033090472" lon="12.574833976104856">
        <ele>-9</ele>
        <time>2024-09-14T14:55:29Z</time>
      </trkpt>
      <trkpt lat="54.412164967507124" lon="12.576956022530794">
        <ele>-8.029999999999999</ele>
        <time>2024-09-14T14:55:41Z</time>
      </trkpt>
      <trkpt lat="54.412801992148161" lon="12.578201992437243">
        <ele>-7.55</ele>
        <time>2024-09-14T14:55:49Z</time>
      </trkpt>
      <trkpt lat="54.413908990100026" lon="12.579131964594126">
        <ele>-8.029999999999999</ele>
        <time>2024-09-14T14:55:58Z</time>
      </trkpt>
      <trkpt lat="54.415105003863573" lon="12.579228021204472">
        <ele>-7.55</ele>
        <time>2024-09-14T14:56:06Z</time>
      </trkpt>
      <trkpt lat="54.416304035112262" lon="12.578606000170112">
        <ele>-7.07</ele>
        <time>2024-09-14T14:56:15Z</time>
      </trkpt>
      <trkpt lat="54.417061004787683" lon="12.57800099439919">
        <ele>-7.07</ele>
        <time>2024-09-14T14:56:21Z</time>
      </trkpt>
      <trkpt lat="54.417174998670816" lon="12.577876020222902">
        <ele>-7.55</ele>
        <time>2024-09-14T14:56:22Z</time>
      </trkpt>
      <trkpt lat="54.418198009952903" lon="12.576680006459355">
        <ele>-7.55</ele>
        <time>2024-09-14T14:56:31Z</time>
      </trkpt>
      <trkpt lat="54.418588019907475" lon="12.576212966814637">
        <ele>-7.55</ele>
        <time>2024-09-14T14:56:35Z</time>
      </trkpt>
      <trkpt lat="54.418753981590271" lon="12.576128980144858">
        <ele>-7.55</ele>
        <time>2024-09-14T14:56:36Z</time>
      </trkpt>
      <trkpt lat="54.418887002393603" lon="12.576062008738518">
        <ele>-7.55</ele>
        <time>2024-09-14T14:56:37Z</time>
      </trkpt>
      <trkpt lat="54.420181000605226" lon="12.575406040996313">
        <ele>-6.59</ele>
        <time>2024-09-14T14:56:46Z</time>
      </trkpt>
      <trkpt lat="54.421175010502338" lon="12.574419993907213">
        <ele>-7.55</ele>
        <time>2024-09-14T14:56:53Z</time>
      </trkpt>
      <trkpt lat="54.422245966270566" lon="12.573294974863529">
        <ele>-9.960000000000001</ele>
        <time>2024-09-14T14:57:01Z</time>
      </trkpt>
      <trkpt lat="54.422629019245505" lon="12.572875041514635">
        <ele>-10.92</ele>
        <time>2024-09-14T14:57:04Z</time>
      </trkpt>
      <trkpt lat="54.423599978908896" lon="12.571881031617522">
        <ele>-12.359999999999999</ele>
        <time>2024-09-14T14:57:12Z</time>
      </trkpt>
      <trkpt lat="54.423716990277171" lon="12.571831997483969">
        <ele>-12.359999999999999</ele>
        <time>2024-09-14T14:57:13Z</time>
      </trkpt>
      <trkpt lat="54.423851016908884" lon="12.571823028847575">
        <ele>-12.84</ele>
        <time>2024-09-14T14:57:14Z</time>
      </trkpt>
      <trkpt lat="54.423996023833752" lon="12.57181397639215">
        <ele>-12.84</ele>
        <time>2024-09-14T14:57:15Z</time>
      </trkpt>
      <trkpt lat="54.424142958596349" lon="12.571876002475619">
        <ele>-12.84</ele>
        <time>2024-09-14T14:57:16Z</time>
      </trkpt>
      <trkpt lat="54.424312021583319" lon="12.571945991367102">
        <ele>-12.84</ele>
        <time>2024-09-14T14:57:17Z</time>
      </trkpt>
      <trkpt lat="54.426203984767199" lon="12.572687035426497">
        <ele>-12.359999999999999</ele>
        <time>2024-09-14T14:57:27Z</time>
      </trkpt>
      <trkpt lat="54.428315972909331" lon="12.573518017306924">
        <ele>-12.359999999999999</ele>
        <time>2024-09-14T14:57:38Z</time>
      </trkpt>
      <trkpt lat="54.430316984653473" lon="12.574300970882177">
        <ele>-15.24</ele>
        <time>2024-09-14T14:57:49Z</time>
      </trkpt>
      <trkpt lat="54.432412041351199" lon="12.575120972469449">
        <ele>-14.76</ele>
        <time>2024-09-14T14:58:01Z</time>
      </trkpt>
      <trkpt lat="54.434374999254942" lon="12.575884982943535">
        <ele>-12.84</ele>
        <time>2024-09-14T14:58:12Z</time>
      </trkpt>
      <trkpt lat="54.436122039332986" lon="12.576574981212616">
        <ele>-11.4</ele>
        <time>2024-09-14T14:58:22Z</time>
      </trkpt>
      <trkpt lat="54.437502035871148" lon="12.577175041660666">
        <ele>-9.48</ele>
        <time>2024-09-14T14:58:30Z</time>
      </trkpt>
      <trkpt lat="54.43896803073585" lon="12.578397039324045">
        <ele>-9</ele>
        <time>2024-09-14T14:58:40Z</time>
      </trkpt>
      <trkpt lat="54.440255993977189" lon="12.579824980348349">
        <ele>-10.44</ele>
        <time>2024-09-14T14:58:49Z</time>
      </trkpt>
      <trkpt lat="54.441560972481966" lon="12.582035036757588">
        <ele>-9.48</ele>
        <time>2024-09-14T14:59:00Z</time>
      </trkpt>
      <trkpt lat="54.441807987168431" lon="12.582350028678775">
        <ele>-9.48</ele>
        <time>2024-09-14T14:59:02Z</time>
      </trkpt>
      <trkpt lat="54.441935978829861" lon="12.582465028390288">
        <ele>-9.48</ele>
        <time>2024-09-14T14:59:03Z</time>
      </trkpt>
      <trkpt lat="54.442890007048845" lon="12.583028040826321">
        <ele>-8.029999999999999</ele>
        <time>2024-09-14T14:59:11Z</time>
      </trkpt>
      <trkpt lat="54.443005006760359" lon="12.583062993362546">
        <ele>-8.029999999999999</ele>
        <time>2024-09-14T14:59:12Z</time>
      </trkpt>
      <trkpt lat="54.444100018590689" lon="12.583002978935838">
        <ele>-6.11</ele>
        <time>2024-09-14T14:59:22Z</time>
      </trkpt>
      <trkpt lat="54.445043988525867" lon="12.582803992554545">
        <ele>-6.59</ele>
        <time>2024-09-14T14:59:31Z</time>
      </trkpt>
      <trkpt lat="54.445903971791267" lon="12.583100963383913">
        <ele>-5.63</ele>
        <time>2024-09-14T14:59:39Z</time>
      </trkpt>
      <trkpt lat="54.446403030306101" lon="12.583619970828295">
        <ele>-4.67</ele>
        <time>2024-09-14T14:59:45Z</time>
      </trkpt>
      <trkpt lat="54.446450974792242" lon="12.583671016618609">
        <ele>-4.19</ele>
        <time>2024-09-14T14:59:46Z</time>
      </trkpt>
      <trkpt lat="54.446482993662357" lon="12.583708986639977">
        <ele>-4.19</ele>
        <time>2024-09-14T14:59:47Z</time>
      </trkpt>
      <trkpt lat="54.446505038067698" lon="12.583733964711428">
        <ele>-4.19</ele>
        <time>2024-09-14T14:59:48Z</time>
      </trkpt>
      <trkpt lat="54.446521969512105" lon="12.583753997460008">
        <ele>-3.71</ele>
        <time>2024-09-14T14:59:49Z</time>
      </trkpt>
      <trkpt lat="54.446537978947163" lon="12.583773024380207">
        <ele>-3.71</ele>
        <time>2024-09-14T14:59:50Z</time>
      </trkpt>
      <trkpt lat="54.446554994210601" lon="12.583792973309755">
        <ele>-3.71</ele>
        <time>2024-09-14T14:59:51Z</time>
      </trkpt>
      <trkpt lat="54.446568991988897" lon="12.583808982744813">
        <ele>-3.71</ele>
        <time>2024-09-14T14:59:52Z</time>
      </trkpt>
      <trkpt lat="54.44687501527369" lon="12.583443028852344">
        <ele>-4.67</ele>
        <time>2024-09-14T15:00:02Z</time>
      </trkpt>
      <trkpt lat="54.446943998336792" lon="12.583375973626971">
        <ele>-5.15</ele>
        <time>2024-09-14T15:00:05Z</time>
      </trkpt>
      <trkpt lat="54.447020022198558" lon="12.583065005019307">
        <ele>-5.63</ele>
        <time>2024-09-14T15:00:18Z</time>
      </trkpt>
      <trkpt lat="54.446920026093721" lon="12.58315603248775">
        <ele>-7.07</ele>
        <time>2024-09-14T15:13:32Z</time>
      </trkpt>
      <trkpt lat="54.446996971964836" lon="12.583057964220643">
        <ele>-13.32</ele>
        <time>2024-09-14T15:13:53Z</time>
      </trkpt>
      <trkpt lat="54.447039971128106" lon="12.58289996534586">
        <ele>-10.44</ele>
        <time>2024-09-14T15:14:33Z</time>
      </trkpt>
      <trkpt lat="54.446980962529778" lon="12.582888985052705">
        <ele>-9.960000000000001</ele>
        <time>2024-09-14T15:14:40Z</time>
      </trkpt>
      <trkpt lat="54.446945004165173" lon="12.582913041114807">
        <ele>-9.960000000000001</ele>
        <time>2024-09-14T15:14:41Z</time>
      </trkpt>
      <trkpt lat="54.446565974503756" lon="12.583160977810621">
        <ele>-9</ele>
        <time>2024-09-14T15:14:53Z</time>
      </trkpt>
      <trkpt lat="54.446525992825627" lon="12.583186961710453">
        <ele>-8.029999999999999</ele>
        <time>2024-09-14T15:14:58Z</time>
      </trkpt>
      <trkpt lat="54.446482993662357" lon="12.583229960873723">
        <ele>-8.029999999999999</ele>
        <time>2024-09-14T15:14:59Z</time>
      </trkpt>
      <trkpt lat="54.446462038904428" lon="12.583143962547183">
        <ele>-8.029999999999999</ele>
        <time>2024-09-14T15:15:00Z</time>
      </trkpt>
      <trkpt lat="54.446525992825627" lon="12.583186961710453">
        <ele>-8.029999999999999</ele>
        <time>2024-09-14T15:15:01Z</time>
      </trkpt>
      <trkpt lat="54.446482993662357" lon="12.583229960873723">
        <ele>-7.55</ele>
        <time>2024-09-14T15:15:02Z</time>
      </trkpt>
      <trkpt lat="54.446518030017614" lon="12.583376979455352">
        <ele>-7.55</ele>
        <time>2024-09-14T15:15:03Z</time>
      </trkpt>
      <trkpt lat="54.446518030017614" lon="12.583376979455352">
        <ele>-5.15</ele>
        <time>2024-09-14T15:15:16Z</time>
      </trkpt>
      <trkpt lat="54.446532027795911" lon="12.58343699388206">
        <ele>-5.15</ele>
        <time>2024-09-14T15:15:27Z</time>
      </trkpt>
      <trkpt lat="54.446454998105764" lon="12.583675961941481">
        <ele>-5.63</ele>
        <time>2024-09-14T15:15:28Z</time>
      </trkpt>
      <trkpt lat="54.446520041674376" lon="12.583750979974866">
        <ele>-5.63</ele>
        <time>2024-09-14T15:15:29Z</time>
      </trkpt>
      <trkpt lat="54.44663898088038" lon="12.583956001326442">
        <ele>-5.63</ele>
        <time>2024-09-14T15:15:31Z</time>
      </trkpt>
      <trkpt lat="54.446759009733796" lon="12.584207961335778">
        <ele>-5.63</ele>
        <time>2024-09-14T15:15:33Z</time>
      </trkpt>
      <trkpt lat="54.44681198336184" lon="12.584331007674336">
        <ele>-5.63</ele>
        <time>2024-09-14T15:15:34Z</time>
      </trkpt>
      <trkpt lat="54.446865962818265" lon="12.58446604013443">
        <ele>-5.63</ele>
        <time>2024-09-14T15:15:35Z</time>
      </trkpt>
      <trkpt lat="54.446922037750483" lon="12.584609035402536">
        <ele>-5.63</ele>
        <time>2024-09-14T15:15:36Z</time>
      </trkpt>
      <trkpt lat="54.446980962529778" lon="12.584754964336753">
        <ele>-5.63</ele>
        <time>2024-09-14T15:15:37Z</time>
      </trkpt>
      <trkpt lat="54.447039971128106" lon="12.584903994575143">
        <ele>-5.63</ele>
        <time>2024-09-14T15:15:38Z</time>
      </trkpt>
      <trkpt lat="54.44754296913743" lon="12.586109982803464">
        <ele>-4.19</ele>
        <time>2024-09-14T15:15:46Z</time>
      </trkpt>
      <trkpt lat="54.447701973840594" lon="12.586322966963053">
        <ele>-4.19</ele>
        <time>2024-09-14T15:15:48Z</time>
      </trkpt>
      <trkpt lat="54.447865001857281" lon="12.586543997749686">
        <ele>-4.67</ele>
        <time>2024-09-14T15:15:50Z</time>
      </trkpt>
      <trkpt lat="54.447951000183821" lon="12.58666000328958">
        <ele>-4.67</ele>
        <time>2024-09-14T15:15:51Z</time>
      </trkpt>
      <trkpt lat="54.448036998510361" lon="12.586786989122629">
        <ele>-5.15</ele>
        <time>2024-09-14T15:15:52Z</time>
      </trkpt>
      <trkpt lat="54.448193991556764" lon="12.587075997143984">
        <ele>-5.63</ele>
        <time>2024-09-14T15:15:54Z</time>
      </trkpt>
      <trkpt lat="54.448646027594805" lon="12.58846303448081">
        <ele>-7.07</ele>
        <time>2024-09-14T15:16:02Z</time>
      </trkpt>
      <trkpt lat="54.449221026152372" lon="12.590406965464354">
        <ele>-11.4</ele>
        <time>2024-09-14T15:16:13Z</time>
      </trkpt>
      <trkpt lat="54.449661998078227" lon="12.591818980872631">
        <ele>-14.279999999999999</ele>
        <time>2024-09-14T15:16:21Z</time>
      </trkpt>
      <trkpt lat="54.449716983363032" lon="12.591993995010853">
        <ele>-14.279999999999999</ele>
        <time>2024-09-14T15:16:22Z</time>
      </trkpt>
      <trkpt lat="54.450123002752662" lon="12.593762995675206">
        <ele>-16.210000000000001</ele>
        <time>2024-09-14T15:16:30Z</time>
      </trkpt>
      <trkpt lat="54.450153009966016" lon="12.595932986587286">
        <ele>-16.690000000000001</ele>
        <time>2024-09-14T15:16:37Z</time>
      </trkpt>
      <trkpt lat="54.449702985584736" lon="12.598263993859291">
        <ele>-12.84</ele>
        <time>2024-09-14T15:16:45Z</time>
      </trkpt>
      <trkpt lat="54.449277017265558" lon="12.601061034947634">
        <ele>-9</ele>
        <time>2024-09-14T15:16:54Z</time>
      </trkpt>
      <trkpt lat="54.448780976235867" lon="12.603423977270722">
        <ele>-4.19</ele>
        <time>2024-09-14T15:17:02Z</time>
      </trkpt>
      <trkpt lat="54.448245959356427" lon="12.605686001479626">
        <ele>0.62</ele>
        <time>2024-09-14T15:17:10Z</time>
      </trkpt>
      <trkpt lat="54.448213018476963" lon="12.605978026986122">
        <ele>0.62</ele>
        <time>2024-09-14T15:17:11Z</time>
      </trkpt>
      <trkpt lat="54.447938008233905" lon="12.609291980043054">
        <ele>2.06</ele>
        <time>2024-09-14T15:17:22Z</time>
      </trkpt>
      <trkpt lat="54.44762603379786" lon="12.613486032932997">
        <ele>0.62</ele>
        <time>2024-09-14T15:17:35Z</time>
      </trkpt>
      <trkpt lat="54.447220014408231" lon="12.618938963860273">
        <ele>-2.27</ele>
        <time>2024-09-14T15:17:51Z</time>
      </trkpt>
      <trkpt lat="54.446914996951818" lon="12.622938975691795">
        <ele>-0.82</ele>
        <time>2024-09-14T15:18:03Z</time>
      </trkpt>
      <trkpt lat="54.44683101028204" lon="12.623580023646355">
        <ele>-0.82</ele>
        <time>2024-09-14T15:18:05Z</time>
      </trkpt>
      <trkpt lat="54.446140006184578" lon="12.626627013087273">
        <ele>1.1</ele>
        <time>2024-09-14T15:18:15Z</time>
      </trkpt>
      <trkpt lat="54.445438021793962" lon="12.629748014733195">
        <ele>0.62</ele>
        <time>2024-09-14T15:18:25Z</time>
      </trkpt>
      <trkpt lat="54.444567980244756" lon="12.633874006569386">
        <ele>-0.34</ele>
        <time>2024-09-14T15:18:38Z</time>
      </trkpt>
      <trkpt lat="54.443877981975675" lon="12.638188004493713">
        <ele>-1.3</ele>
        <time>2024-09-14T15:18:51Z</time>
      </trkpt>
      <trkpt lat="54.443388981744647" lon="12.64129601418972">
        <ele>0.62</ele>
        <time>2024-09-14T15:19:01Z</time>
      </trkpt>
      <trkpt lat="54.443080024793744" lon="12.643277999013662">
        <ele>1.1</ele>
        <time>2024-09-14T15:19:09Z</time>
      </trkpt>
      <trkpt lat="54.442495973780751" lon="12.6450149808079">
        <ele>-1.3</ele>
        <time>2024-09-14T15:19:17Z</time>
      </trkpt>
      <trkpt lat="54.442395977675915" lon="12.645196029916406">
        <ele>-1.3</ele>
        <time>2024-09-14T15:19:18Z</time>
      </trkpt>
      <trkpt lat="54.441265007480979" lon="12.646572003141046">
        <ele>-3.23</ele>
        <time>2024-09-14T15:19:27Z</time>
      </trkpt>
      <trkpt lat="54.439815022051334" lon="12.647893996909261">
        <ele>-9.48</ele>
        <time>2024-09-14T15:19:37Z</time>
      </trkpt>
      <trkpt lat="54.438458997756243" lon="12.649111971259117">
        <ele>-17.170000000000002</ele>
        <time>2024-09-14T15:19:45Z</time>
      </trkpt>
      <trkpt lat="54.438291024416685" lon="12.649263013154268">
        <ele>-18.129999999999999</ele>
        <time>2024-09-14T15:19:46Z</time>
      </trkpt>
      <trkpt lat="54.436699971556664" lon="12.650691960006952">
        <ele>-24.859999999999999</ele>
        <time>2024-09-14T15:19:55Z</time>
      </trkpt>
      <trkpt lat="54.436520012095571" lon="12.650853982195258">
        <ele>-24.859999999999999</ele>
        <time>2024-09-14T15:19:56Z</time>
      </trkpt>
      <trkpt lat="54.436336029320955" lon="12.651019021868706">
        <ele>-25.34</ele>
        <time>2024-09-14T15:19:57Z</time>
      </trkpt>
      <trkpt lat="54.436151962727308" lon="12.651184983551502">
        <ele>-25.34</ele>
        <time>2024-09-14T15:19:58Z</time>
      </trkpt>
      <trkpt lat="54.43522903136909" lon="12.651901971548796">
        <ele>-26.780000000000001</ele>
        <time>2024-09-14T15:20:03Z</time>
      </trkpt>
      <trkpt lat="54.434829968959093" lon="12.652066005393863">
        <ele>-27.260000000000002</ele>
        <time>2024-09-14T15:20:05Z</time>
      </trkpt>
      <trkpt lat="54.434419004246593" lon="12.652145968750119">
        <ele>-26.780000000000001</ele>
        <time>2024-09-14T15:20:07Z</time>
      </trkpt>
      <trkpt lat="54.434217000380158" lon="12.652135994285345">
        <ele>-27.260000000000002</ele>
        <time>2024-09-14T15:20:08Z</time>
      </trkpt>
      <trkpt lat="54.432156980037689" lon="12.651844974607229">
        <ele>-26.780000000000001</ele>
        <time>2024-09-14T15:20:18Z</time>
      </trkpt>
      <trkpt lat="54.430154040455818" lon="12.651486983522773">
        <ele>-24.379999999999999</ele>
        <time>2024-09-14T15:20:28Z</time>
      </trkpt>
      <trkpt lat="54.428379004821181" lon="12.651168974116445">
        <ele>-22.93</ele>
        <time>2024-09-14T15:20:37Z</time>
      </trkpt>
      <trkpt lat="54.42633599974215" lon="12.650971999391913">
        <ele>-21.489999999999998</ele>
        <time>2024-09-14T15:20:47Z</time>
      </trkpt>
      <trkpt lat="54.424051009118557" lon="12.651011981070042">
        <ele>-21.969999999999999</ele>
        <time>2024-09-14T15:20:58Z</time>
      </trkpt>
      <trkpt lat="54.422098025679588" lon="12.651255978271365">
        <ele>-25.34</ele>
        <time>2024-09-14T15:21:08Z</time>
      </trkpt>
      <trkpt lat="54.420959008857608" lon="12.652357025071979">
        <ele>-24.859999999999999</ele>
        <time>2024-09-14T15:21:15Z</time>
      </trkpt>
      <trkpt lat="54.420811990275979" lon="12.652584007009864">
        <ele>-24.859999999999999</ele>
        <time>2024-09-14T15:21:16Z</time>
      </trkpt>
      <trkpt lat="54.419841030612588" lon="12.654825998470187">
        <ele>-22.449999999999999</ele>
        <time>2024-09-14T15:21:24Z</time>
      </trkpt>
      <trkpt lat="54.418875016272068" lon="12.65706698410213">
        <ele>-20.050000000000001</ele>
        <time>2024-09-14T15:21:32Z</time>
      </trkpt>
      <trkpt lat="54.418004974722862" lon="12.659001024439931">
        <ele>-19.57</ele>
        <time>2024-09-14T15:21:39Z</time>
      </trkpt>
      <trkpt lat="54.417578000575304" lon="12.659728992730379">
        <ele>-19.09</ele>
        <time>2024-09-14T15:21:42Z</time>
      </trkpt>
      <trkpt lat="54.417432993650436" lon="12.65996603295207">
        <ele>-19.09</ele>
        <time>2024-09-14T15:21:43Z</time>
      </trkpt>
      <trkpt lat="54.416112005710602" lon="12.660956019535661">
        <ele>-18.129999999999999</ele>
        <time>2024-09-14T15:21:50Z</time>
      </trkpt>
      <trkpt lat="54.414616003632545" lon="12.662139963358641">
        <ele>-15.24</ele>
        <time>2024-09-14T15:21:58Z</time>
      </trkpt>
      <trkpt lat="54.411137010902166" lon="12.665362972766161">
        <ele>-12.84</ele>
        <time>2024-09-14T15:22:17Z</time>
      </trkpt>
      <trkpt lat="54.410198992118239" lon="12.666157996281981">
        <ele>-11.4</ele>
        <time>2024-09-14T15:22:24Z</time>
      </trkpt>
      <trkpt lat="54.410086004063487" lon="12.666185991838574">
        <ele>-11.4</ele>
        <time>2024-09-14T15:22:25Z</time>
      </trkpt>
      <trkpt lat="54.409975027665496" lon="12.666213987395167">
        <ele>-11.4</ele>
        <time>2024-09-14T15:22:26Z</time>
      </trkpt>
      <trkpt lat="54.409850975498557" lon="12.666178029030561">
        <ele>-11.4</ele>
        <time>2024-09-14T15:22:27Z</time>
      </trkpt>
      <trkpt lat="54.40974703989923" lon="12.666103010997176">
        <ele>-11.4</ele>
        <time>2024-09-14T15:22:28Z</time>
      </trkpt>
      <trkpt lat="54.409645032137632" lon="12.666015001013875">
        <ele>-10.92</ele>
        <time>2024-09-14T15:22:29Z</time>
      </trkpt>
      <trkpt lat="54.409556016325951" lon="12.665920034050941">
        <ele>-10.92</ele>
        <time>2024-09-14T15:22:30Z</time>
      </trkpt>
      <trkpt lat="54.408961990848184" lon="12.665333971381187">
        <ele>-9</ele>
        <time>2024-09-14T15:22:38Z</time>
      </trkpt>
      <trkpt lat="54.408878004178405" lon="12.665319973602891">
        <ele>-9</ele>
        <time>2024-09-14T15:22:39Z</time>
      </trkpt>
      <trkpt lat="54.408791000023484" lon="12.665312010794878">
        <ele>-9</ele>
        <time>2024-09-14T15:22:40Z</time>
      </trkpt>
      <trkpt lat="54.40871799364686" lon="12.665304969996214">
        <ele>-9</ele>
        <time>2024-09-14T15:22:41Z</time>
      </trkpt>
      <trkpt lat="54.408638030290604" lon="12.665369007736444">
        <ele>-9</ele>
        <time>2024-09-14T15:22:42Z</time>
      </trkpt>
      <trkpt lat="54.408562006428838" lon="12.665430027991533">
        <ele>-9</ele>
        <time>2024-09-14T15:22:43Z</time>
      </trkpt>
      <trkpt lat="54.408487994223833" lon="12.665489036589861">
        <ele>-9</ele>
        <time>2024-09-14T15:22:44Z</time>
      </trkpt>
      <trkpt lat="54.40839596092701" lon="12.665562964975834">
        <ele>-9</ele>
        <time>2024-09-14T15:22:45Z</time>
      </trkpt>
      <trkpt lat="54.40835396759212" lon="12.665608981624246">
        <ele>-8.51</ele>
        <time>2024-09-14T15:22:46Z</time>
      </trkpt>
      <trkpt lat="54.408290013670921" lon="12.665680982172489">
        <ele>-8.029999999999999</ele>
        <time>2024-09-14T15:22:47Z</time>
      </trkpt>
      <trkpt lat="54.408203009516001" lon="12.665777038782835">
        <ele>-7.55</ele>
        <time>2024-09-14T15:22:48Z</time>
      </trkpt>
      <trkpt lat="54.407322993502021" lon="12.6668840367347">
        <ele>-3.71</ele>
        <time>2024-09-14T15:23:02Z</time>
      </trkpt>
      <trkpt lat="54.4062689691782" lon="12.668185997754335">
        <ele>-3.71</ele>
        <time>2024-09-14T15:23:16Z</time>
      </trkpt>
      <trkpt lat="54.405419966205955" lon="12.669313028454781">
        <ele>-3.71</ele>
        <time>2024-09-14T15:23:25Z</time>
      </trkpt>
      <trkpt lat="54.405348971486092" lon="12.669425010681152">
        <ele>-3.71</ele>
        <time>2024-09-14T15:23:26Z</time>
      </trkpt>
      <trkpt lat="54.405278982594609" lon="12.669644029811025">
        <ele>-3.71</ele>
        <time>2024-09-14T15:23:27Z</time>
      </trkpt>
      <trkpt lat="54.405221985653043" lon="12.669818960130215">
        <ele>-3.23</ele>
        <time>2024-09-14T15:23:28Z</time>
      </trkpt>
      <trkpt lat="54.405167000368237" lon="12.669991040602326">
        <ele>-3.23</ele>
        <time>2024-09-14T15:23:29Z</time>
      </trkpt>
      <trkpt lat="54.405130036175251" lon="12.670169994235039">
        <ele>-3.23</ele>
        <time>2024-09-14T15:23:30Z</time>
      </trkpt>
      <trkpt lat="54.405097011476755" lon="12.670359006151557">
        <ele>-2.75</ele>
        <time>2024-09-14T15:23:31Z</time>
      </trkpt>
      <trkpt lat="54.405090976506472" lon="12.670553969219327">
        <ele>-2.75</ele>
        <time>2024-09-14T15:23:32Z</time>
      </trkpt>
      <trkpt lat="54.405090976506472" lon="12.67075496725738">
        <ele>-2.75</ele>
        <time>2024-09-14T15:23:33Z</time>
      </trkpt>
      <trkpt lat="54.405090976506472" lon="12.670959988608956">
        <ele>-2.75</ele>
        <time>2024-09-14T15:23:34Z</time>
      </trkpt>
      <trkpt lat="54.405205976217985" lon="12.672941973432899">
        <ele>-3.23</ele>
        <time>2024-09-14T15:23:42Z</time>
      </trkpt>
      <trkpt lat="54.405262973159552" lon="12.674259021878242">
        <ele>-3.71</ele>
        <time>2024-09-14T15:23:47Z</time>
      </trkpt>
      <trkpt lat="54.405262973159552" lon="12.67440302297473">
        <ele>-3.71</ele>
        <time>2024-09-14T15:23:48Z</time>
      </trkpt>
      <trkpt lat="54.405189966782928" lon="12.674696976318955">
        <ele>-4.19</ele>
        <time>2024-09-14T15:23:49Z</time>
      </trkpt>
      <trkpt lat="54.405133975669742" lon="12.674918007105589">
        <ele>-4.19</ele>
        <time>2024-09-14T15:23:50Z</time>
      </trkpt>
      <trkpt lat="54.405070021748543" lon="12.675068965181708">
        <ele>-4.19</ele>
        <time>2024-09-14T15:23:51Z</time>
      </trkpt>
      <trkpt lat="54.404955022037029" lon="12.675199974328279">
        <ele>-4.19</ele>
        <time>2024-09-14T15:23:52Z</time>
      </trkpt>
      <trkpt lat="54.404838010668755" lon="12.675296030938625">
        <ele>-4.19</ele>
        <time>2024-09-14T15:23:53Z</time>
      </trkpt>
      <trkpt lat="54.404703984037042" lon="12.675386974588037">
        <ele>-4.67</ele>
        <time>2024-09-14T15:23:54Z</time>
      </trkpt>
      <trkpt lat="54.403688013553619" lon="12.676047971472144">
        <ele>-4.19</ele>
        <time>2024-09-14T15:24:03Z</time>
      </trkpt>
      <trkpt lat="54.402024038136005" lon="12.67704801633954">
        <ele>-6.11</ele>
        <time>2024-09-14T15:24:18Z</time>
      </trkpt>
      <trkpt lat="54.400732973590493" lon="12.677188999950886">
        <ele>-8.51</ele>
        <time>2024-09-14T15:24:28Z</time>
      </trkpt>
      <trkpt lat="54.398933965712786" lon="12.677293019369245">
        <ele>-8.51</ele>
        <time>2024-09-14T15:24:38Z</time>
      </trkpt>
      <trkpt lat="54.396481001749635" lon="12.677382035180926">
        <ele>-9.960000000000001</ele>
        <time>2024-09-14T15:24:51Z</time>
      </trkpt>
      <trkpt lat="54.394267005845904" lon="12.677430985495448">
        <ele>-9.960000000000001</ele>
        <time>2024-09-14T15:25:03Z</time>
      </trkpt>
      <trkpt lat="54.391932981088758" lon="12.677468033507466">
        <ele>-10.92</ele>
        <time>2024-09-14T15:25:16Z</time>
      </trkpt>
      <trkpt lat="54.388987999409437" lon="12.677526958286762">
        <ele>-9.48</ele>
        <time>2024-09-14T15:25:31Z</time>
      </trkpt>
      <trkpt lat="54.385826010257006" lon="12.677589990198612">
        <ele>-8.51</ele>
        <time>2024-09-14T15:25:47Z</time>
      </trkpt>
      <trkpt lat="54.383916025981307" lon="12.677635001018643">
        <ele>-7.07</ele>
        <time>2024-09-14T15:25:58Z</time>
      </trkpt>
      <trkpt lat="54.383659958839417" lon="12.677613962441683">
        <ele>-6.59</ele>
        <time>2024-09-14T15:26:00Z</time>
      </trkpt>
      <trkpt lat="54.38334496691823" lon="12.677595019340515">
        <ele>-6.11</ele>
        <time>2024-09-14T15:26:03Z</time>
      </trkpt>
      <trkpt lat="54.383242959156632" lon="12.677587978541851">
        <ele>-6.11</ele>
        <time>2024-09-14T15:26:04Z</time>
      </trkpt>
      <trkpt lat="54.38291497528553" lon="12.677662996575236">
        <ele>-6.11</ele>
        <time>2024-09-14T15:26:07Z</time>
      </trkpt>
      <trkpt lat="54.382802993059158" lon="12.677717981860042">
        <ele>-6.11</ele>
        <time>2024-09-14T15:26:08Z</time>
      </trkpt>
      <trkpt lat="54.382696961984038" lon="12.677795011550188">
        <ele>-6.11</ele>
        <time>2024-09-14T15:26:09Z</time>
      </trkpt>
      <trkpt lat="54.381105992943048" lon="12.678980967029929">
        <ele>-5.63</ele>
        <time>2024-09-14T15:26:24Z</time>
      </trkpt>
      <trkpt lat="54.380478020757437" lon="12.679338958114386">
        <ele>-5.63</ele>
        <time>2024-09-14T15:26:30Z</time>
      </trkpt>
      <trkpt lat="54.380372995510697" lon="12.679338958114386">
        <ele>-5.63</ele>
        <time>2024-09-14T15:26:31Z</time>
      </trkpt>
      <trkpt lat="54.380284985527396" lon="12.679279027506709">
        <ele>-5.63</ele>
        <time>2024-09-14T15:26:32Z</time>
      </trkpt>
      <trkpt lat="54.380187001079321" lon="12.679190011695027">
        <ele>-5.63</ele>
        <time>2024-09-14T15:26:33Z</time>
      </trkpt>
      <trkpt lat="54.380093961954117" lon="12.679093033075333">
        <ele>-5.63</ele>
        <time>2024-09-14T15:26:34Z</time>
      </trkpt>
      <trkpt lat="54.380005029961467" lon="12.67895900644362">
        <ele>-5.63</ele>
        <time>2024-09-14T15:26:35Z</time>
      </trkpt>
      <trkpt lat="54.379924982786179" lon="12.678824979811907">
        <ele>-5.63</ele>
        <time>2024-09-14T15:26:36Z</time>
      </trkpt>
      <trkpt lat="54.379852982237935" lon="12.678654994815588">
        <ele>-5.63</ele>
        <time>2024-09-14T15:26:37Z</time>
      </trkpt>
      <trkpt lat="54.379780981689692" lon="12.678488027304411">
        <ele>-5.63</ele>
        <time>2024-09-14T15:26:38Z</time>
      </trkpt>
      <trkpt lat="54.379728008061647" lon="12.678312007337809">
        <ele>-5.63</ele>
        <time>2024-09-14T15:26:39Z</time>
      </trkpt>
      <trkpt lat="54.3796890322119" lon="12.678125007078052">
        <ele>-5.63</ele>
        <time>2024-09-14T15:26:40Z</time>
      </trkpt>
      <trkpt lat="54.379650978371501" lon="12.677942030131817">
        <ele>-5.63</ele>
        <time>2024-09-14T15:26:41Z</time>
      </trkpt>
      <trkpt lat="54.379113027825952" lon="12.676154002547264">
        <ele>-6.11</ele>
        <time>2024-09-14T15:26:51Z</time>
      </trkpt>
      <trkpt lat="54.378585973754525" lon="12.674828991293907">
        <ele>-6.11</ele>
        <time>2024-09-14T15:27:00Z</time>
      </trkpt>
      <trkpt lat="54.378437027335167" lon="12.674583988264203">
        <ele>-6.59</ele>
        <time>2024-09-14T15:27:02Z</time>
      </trkpt>
      <trkpt lat="54.378355974331498" lon="12.67446898855269">
        <ele>-6.59</ele>
        <time>2024-09-14T15:27:03Z</time>
      </trkpt>
      <trkpt lat="54.378256984055042" lon="12.674369998276234">
        <ele>-7.07</ele>
        <time>2024-09-14T15:27:04Z</time>
      </trkpt>
      <trkpt lat="54.378154976293445" lon="12.67429699189961">
        <ele>-7.07</ele>
        <time>2024-09-14T15:27:05Z</time>
      </trkpt>
      <trkpt lat="54.378042994067073" lon="12.674250975251198">
        <ele>-7.55</ele>
        <time>2024-09-14T15:27:06Z</time>
      </trkpt>
      <trkpt lat="54.377932017669082" lon="12.674204958602786">
        <ele>-8.029999999999999</ele>
        <time>2024-09-14T15:27:07Z</time>
      </trkpt>
      <trkpt lat="54.376603988930583" lon="12.67376197502017">
        <ele>-10.44</ele>
        <time>2024-09-14T15:27:18Z</time>
      </trkpt>
      <trkpt lat="54.374939007684588" lon="12.673250008374453">
        <ele>-9.48</ele>
        <time>2024-09-14T15:27:28Z</time>
      </trkpt>
      <trkpt lat="54.372639013454318" lon="12.672539977356791">
        <ele>-8.029999999999999</ele>
        <time>2024-09-14T15:27:40Z</time>
      </trkpt>
      <trkpt lat="54.371085008606315" lon="12.672609966248274">
        <ele>-6.59</ele>
        <time>2024-09-14T15:27:48Z</time>
      </trkpt>
      <trkpt lat="54.368435991927981" lon="12.672995030879974">
        <ele>-7.55</ele>
        <time>2024-09-14T15:28:02Z</time>
      </trkpt>
      <trkpt lat="54.366401033475995" lon="12.67328797839582">
        <ele>-7.55</ele>
        <time>2024-09-14T15:28:14Z</time>
      </trkpt>
      <trkpt lat="54.365586983039975" lon="12.673578998073936">
        <ele>-7.55</ele>
        <time>2024-09-14T15:28:21Z</time>
      </trkpt>
      <trkpt lat="54.365544989705086" lon="12.67360900528729">
        <ele>-7.07</ele>
        <time>2024-09-14T15:28:22Z</time>
      </trkpt>
      <trkpt lat="54.365452034398913" lon="12.673736996948719">
        <ele>-7.07</ele>
        <time>2024-09-14T15:28:23Z</time>
      </trkpt>
      <trkpt lat="54.365376010537148" lon="12.673842022195458">
        <ele>-6.59</ele>
        <time>2024-09-14T15:28:24Z</time>
      </trkpt>
      <trkpt lat="54.365322031080723" lon="12.673959033563733">
        <ele>-6.59</ele>
        <time>2024-09-14T15:28:25Z</time>
      </trkpt>
      <trkpt lat="54.365266039967537" lon="12.674080990254879">
        <ele>-6.59</ele>
        <time>2024-09-14T15:28:26Z</time>
      </trkpt>
      <trkpt lat="54.36525103636086" lon="12.67427695915103">
        <ele>-6.59</ele>
        <time>2024-09-14T15:28:27Z</time>
      </trkpt>
      <trkpt lat="54.365235026925802" lon="12.674484997987747">
        <ele>-7.07</ele>
        <time>2024-09-14T15:28:28Z</time>
      </trkpt>
      <trkpt lat="54.365228991955519" lon="12.674709968268871">
        <ele>-7.07</ele>
        <time>2024-09-14T15:28:29Z</time>
      </trkpt>
      <trkpt lat="54.365248018875718" lon="12.674935022369027">
        <ele>-7.07</ele>
        <time>2024-09-14T15:28:30Z</time>
      </trkpt>
      <trkpt lat="54.365268973633647" lon="12.675169967114925">
        <ele>-7.07</ele>
        <time>2024-09-14T15:28:31Z</time>
      </trkpt>
      <trkpt lat="54.365290012210608" lon="12.675412036478519">
        <ele>-7.07</ele>
        <time>2024-09-14T15:28:32Z</time>
      </trkpt>
      <trkpt lat="54.365312978625298" lon="12.675648992881179">
        <ele>-7.55</ele>
        <time>2024-09-14T15:28:33Z</time>
      </trkpt>
      <trkpt lat="54.365441976115108" lon="12.677420005202293">
        <ele>-8.51</ele>
        <time>2024-09-14T15:28:41Z</time>
      </trkpt>
      <trkpt lat="54.365644985809922" lon="12.679872969165444">
        <ele>-9.48</ele>
        <time>2024-09-14T15:28:52Z</time>
      </trkpt>
      <trkpt lat="54.365796027705073" lon="12.681827964261174">
        <ele>-9.960000000000001</ele>
        <time>2024-09-14T15:29:01Z</time>
      </trkpt>
      <trkpt lat="54.365967018529773" lon="12.684122007340193">
        <ele>-10.44</ele>
        <time>2024-09-14T15:29:11Z</time>
      </trkpt>
      <trkpt lat="54.366196012124419" lon="12.686445973813534">
        <ele>-10.44</ele>
        <time>2024-09-14T15:29:22Z</time>
      </trkpt>
      <trkpt lat="54.366362979635596" lon="12.68789897672832">
        <ele>-6.59</ele>
        <time>2024-09-14T15:29:32Z</time>
      </trkpt>
      <trkpt lat="54.366544028744102" lon="12.689563035964966">
        <ele>-4.67</ele>
        <time>2024-09-14T15:29:43Z</time>
      </trkpt>
      <trkpt lat="54.366867989301682" lon="12.69202496856451">
        <ele>-4.67</ele>
        <time>2024-09-14T15:29:57Z</time>
      </trkpt>
      <trkpt lat="54.367297980934381" lon="12.695065001025796">
        <ele>-5.15</ele>
        <time>2024-09-14T15:30:13Z</time>
      </trkpt>
      <trkpt lat="54.367650020867586" lon="12.697571022436023">
        <ele>-5.63</ele>
        <time>2024-09-14T15:30:26Z</time>
      </trkpt>
      <trkpt lat="54.36806601472199" lon="12.700479039922357">
        <ele>-5.63</ele>
        <time>2024-09-14T15:30:41Z</time>
      </trkpt>
      <trkpt lat="54.368333984166384" lon="12.703232998028398">
        <ele>-4.67</ele>
        <time>2024-09-14T15:30:55Z</time>
      </trkpt>
      <trkpt lat="54.368284028023481" lon="12.704175040125847">
        <ele>-6.11</ele>
        <time>2024-09-14T15:31:02Z</time>
      </trkpt>
      <trkpt lat="54.368211021646857" lon="12.704739980399609">
        <ele>-7.55</ele>
        <time>2024-09-14T15:31:08Z</time>
      </trkpt>
      <trkpt lat="54.36823801137507" lon="12.704824972897768">
        <ele>-7.55</ele>
        <time>2024-09-14T15:31:09Z</time>
      </trkpt>
      <trkpt lat="54.368268018588424" lon="12.704917006194592">
        <ele>-7.55</ele>
        <time>2024-09-14T15:31:10Z</time>
      </trkpt>
      <trkpt lat="54.368297019973397" lon="12.705009961500764">
        <ele>-7.55</ele>
        <time>2024-09-14T15:31:11Z</time>
      </trkpt>
      <trkpt lat="54.368327027186751" lon="12.705101994797587">
        <ele>-7.55</ele>
        <time>2024-09-14T15:31:12Z</time>
      </trkpt>
      <trkpt lat="54.368358962237835" lon="12.705199979245663">
        <ele>-8.029999999999999</ele>
        <time>2024-09-14T15:31:13Z</time>
      </trkpt>
      <trkpt lat="54.368391986936331" lon="12.705302992835641">
        <ele>-8.029999999999999</ele>
        <time>2024-09-14T15:31:14Z</time>
      </trkpt>
      <trkpt lat="54.368399027734995" lon="12.705435007810593">
        <ele>-8.029999999999999</ele>
        <time>2024-09-14T15:31:15Z</time>
      </trkpt>
      <trkpt lat="54.368399027734995" lon="12.705569034442306">
        <ele>-8.029999999999999</ele>
        <time>2024-09-14T15:31:16Z</time>
      </trkpt>
      <trkpt lat="54.368399027734995" lon="12.705705994740129">
        <ele>-8.51</ele>
        <time>2024-09-14T15:31:17Z</time>
      </trkpt>
      <trkpt lat="54.368399027734995" lon="12.707867017015815">
        <ele>-9</ele>
        <time>2024-09-14T15:31:34Z</time>
      </trkpt>
      <trkpt lat="54.368356028571725" lon="12.70964004099369">
        <ele>-7.55</ele>
        <time>2024-09-14T15:31:45Z</time>
      </trkpt>
      <trkpt lat="54.368350999429822" lon="12.712430963292718">
        <ele>-5.15</ele>
        <time>2024-09-14T15:31:59Z</time>
      </trkpt>
      <trkpt lat="54.368340019136667" lon="12.714025033637881">
        <ele>-2.75</ele>
        <time>2024-09-14T15:32:07Z</time>
      </trkpt>
      <trkpt lat="54.368333984166384" lon="12.715007979422808">
        <ele>-1.79</ele>
        <time>2024-09-14T15:32:12Z</time>
      </trkpt>
      <trkpt lat="54.368358040228486" lon="12.717208983376622">
        <ele>-0.82</ele>
        <time>2024-09-14T15:32:23Z</time>
      </trkpt>
      <trkpt lat="54.368398021906614" lon="12.718709008768201">
        <ele>-2.75</ele>
        <time>2024-09-14T15:32:32Z</time>
      </trkpt>
      <trkpt lat="54.368405984714627" lon="12.718975972384214">
        <ele>-2.75</ele>
        <time>2024-09-14T15:32:35Z</time>
      </trkpt>
      <trkpt lat="54.368407996371388" lon="12.719046967104077">
        <ele>-3.23</ele>
        <time>2024-09-14T15:32:36Z</time>
      </trkpt>
      <trkpt lat="54.368409002199769" lon="12.719113016501069">
        <ele>-3.23</ele>
        <time>2024-09-14T15:32:37Z</time>
      </trkpt>
      <trkpt lat="54.36841101385653" lon="12.719184011220932">
        <ele>-3.23</ele>
        <time>2024-09-14T15:32:38Z</time>
      </trkpt>
      <trkpt lat="54.368414031341672" lon="12.719264980405569">
        <ele>-3.23</ele>
        <time>2024-09-14T15:32:39Z</time>
      </trkpt>
      <trkpt lat="54.368415959179401" lon="12.719347039237618">
        <ele>-3.71</ele>
        <time>2024-09-14T15:32:40Z</time>
      </trkpt>
      <trkpt lat="54.368417970836163" lon="12.719430020079017">
        <ele>-3.71</ele>
        <time>2024-09-14T15:32:41Z</time>
      </trkpt>
      <trkpt lat="54.368419982492924" lon="12.719511995092034">
        <ele>-3.71</ele>
        <time>2024-09-14T15:32:42Z</time>
      </trkpt>
      <trkpt lat="54.368424005806446" lon="12.719582989811897">
        <ele>-3.71</ele>
        <time>2024-09-14T15:32:43Z</time>
      </trkpt>
      <trkpt lat="54.368469016626477" lon="12.720441967248917">
        <ele>-5.63</ele>
        <time>2024-09-14T15:32:54Z</time>
      </trkpt>
      <trkpt lat="54.368481002748013" lon="12.720666015520692">
        <ele>-5.63</ele>
        <time>2024-09-14T15:32:57Z</time>
      </trkpt>
      <trkpt lat="54.36847697943449" lon="12.721288958564401">
        <ele>-6.59</ele>
        <time>2024-09-14T15:33:10Z</time>
      </trkpt>
      <trkpt lat="54.368434986099601" lon="12.721306979656219">
        <ele>-7.07</ele>
        <time>2024-09-14T15:33:11Z</time>
      </trkpt>
      <trkpt lat="54.368385029956698" lon="12.721329024061561">
        <ele>-7.55</ele>
        <time>2024-09-14T15:33:12Z</time>
      </trkpt>
      <trkpt lat="54.368330966681242" lon="12.721352996304631">
        <ele>-8.51</ele>
        <time>2024-09-14T15:33:13Z</time>
      </trkpt>
      <trkpt lat="54.368276987224817" lon="12.721375962719321">
        <ele>-8.51</ele>
        <time>2024-09-14T15:33:14Z</time>
      </trkpt>
      <trkpt lat="54.368226025253534" lon="12.721399012953043">
        <ele>-9</ele>
        <time>2024-09-14T15:33:15Z</time>
      </trkpt>
      <trkpt lat="54.368184031918645" lon="12.721417034044862">
        <ele>-9.48</ele>
        <time>2024-09-14T15:33:16Z</time>
      </trkpt>
      <trkpt lat="54.368184031918645" lon="12.721417034044862">
        <ele>-9.960000000000001</ele>
        <time>2024-09-14T15:33:17Z</time>
      </trkpt>
      <trkpt lat="54.368184031918645" lon="12.721417034044862">
        <ele>-9.960000000000001</ele>
        <time>2024-09-14T15:33:18Z</time>
      </trkpt>
      <trkpt lat="54.3677459936589" lon="12.721120985224843">
        <ele>-11.4</ele>
        <time>2024-09-14T15:33:23Z</time>
      </trkpt>
      <trkpt lat="54.367678016424179" lon="12.721145041286945">
        <ele>-11.4</ele>
        <time>2024-09-14T15:33:24Z</time>
      </trkpt>
      <trkpt lat="54.367608027532697" lon="12.721170019358397">
        <ele>-11.4</ele>
        <time>2024-09-14T15:33:25Z</time>
      </trkpt>
      <trkpt lat="54.36652198433876" lon="12.721657007932663">
        <ele>-11.4</ele>
        <time>2024-09-14T15:33:40Z</time>
      </trkpt>
      <trkpt lat="54.365677004680037" lon="12.722195964306593">
        <ele>-8.51</ele>
        <time>2024-09-14T15:33:52Z</time>
      </trkpt>
      <trkpt lat="54.365652026608586" lon="12.72221096791327">
        <ele>-8.51</ele>
        <time>2024-09-14T15:33:53Z</time>
      </trkpt>
      <trkpt lat="54.365463014692068" lon="12.722250027582049">
        <ele>-8.51</ele>
        <time>2024-09-14T15:33:54Z</time>
      </trkpt>
      <trkpt lat="54.365438958629966" lon="12.722336025908589">
        <ele>-8.029999999999999</ele>
        <time>2024-09-14T15:33:55Z</time>
      </trkpt>
      <trkpt lat="54.365415992215276" lon="12.722420012578368">
        <ele>-7.55</ele>
        <time>2024-09-14T15:33:56Z</time>
      </trkpt>
      <trkpt lat="54.365370981395245" lon="12.722581028938293">
        <ele>-7.07</ele>
        <time>2024-09-14T15:33:58Z</time>
      </trkpt>
      <trkpt lat="54.365347009152174" lon="12.722668033093214">
        <ele>-7.07</ele>
        <time>2024-09-14T15:33:59Z</time>
      </trkpt>
      <trkpt lat="54.365276014432311" lon="12.722925022244453">
        <ele>-6.59</ele>
        <time>2024-09-14T15:34:02Z</time>
      </trkpt>
      <trkpt lat="54.365225974470377" lon="12.723103975877166">
        <ele>-6.59</ele>
        <time>2024-09-14T15:34:04Z</time>
      </trkpt>
      <trkpt lat="54.365203008055687" lon="12.723188968375325">
        <ele>-6.59</ele>
        <time>2024-09-14T15:34:05Z</time>
      </trkpt>
      <trkpt lat="54.365159003064036" lon="12.723347973078489">
        <ele>-6.59</ele>
        <time>2024-09-14T15:34:06Z</time>
      </trkpt>
      <trkpt lat="54.365027993917465" lon="12.723530028015375">
        <ele>-7.07</ele>
        <time>2024-09-14T15:34:10Z</time>
      </trkpt>
      <trkpt lat="54.364978959783912" lon="12.7235649805516">
        <ele>-7.07</ele>
        <time>2024-09-14T15:34:11Z</time>
      </trkpt>
      <trkpt lat="54.364685006439686" lon="12.723760027438402">
        <ele>-7.07</ele>
        <time>2024-09-14T15:34:16Z</time>
      </trkpt>
      <trkpt lat="54.364235987886786" lon="12.723832027986646">
        <ele>-7.55</ele>
        <time>2024-09-14T15:34:22Z</time>
      </trkpt>
      <trkpt lat="54.364162981510162" lon="12.723844014108181">
        <ele>-7.07</ele>
        <time>2024-09-14T15:34:23Z</time>
      </trkpt>
      <trkpt lat="54.364091986790299" lon="12.723854994401336">
        <ele>-7.07</ele>
        <time>2024-09-14T15:34:24Z</time>
      </trkpt>
      <trkpt lat="54.364043036475778" lon="12.72386304102838">
        <ele>-7.07</ele>
        <time>2024-09-14T15:34:25Z</time>
      </trkpt>
      <trkpt lat="54.364043036475778" lon="12.72386304102838">
        <ele>-6.59</ele>
        <time>2024-09-14T15:34:26Z</time>
      </trkpt>
      <trkpt lat="54.364063991233706" lon="12.724161017686129">
        <ele>-6.11</ele>
        <time>2024-09-14T15:34:27Z</time>
      </trkpt>
      <trkpt lat="54.363858969882131" lon="12.724405014887452">
        <ele>-5.63</ele>
        <time>2024-09-14T15:34:29Z</time>
      </trkpt>
      <trkpt lat="54.363752016797662" lon="12.724711960181594">
        <ele>-5.15</ele>
        <time>2024-09-14T15:34:32Z</time>
      </trkpt>
      <trkpt lat="54.363679010421038" lon="12.724866019561887">
        <ele>-5.15</ele>
        <time>2024-09-14T15:34:34Z</time>
      </trkpt>
      <trkpt lat="54.363549007102847" lon="12.725364994257689">
        <ele>-5.15</ele>
        <time>2024-09-14T15:34:42Z</time>
      </trkpt>
      <trkpt lat="54.363549007102847" lon="12.725364994257689">
        <ele>-5.15</ele>
        <time>2024-09-14T15:34:44Z</time>
      </trkpt>
      <trkpt lat="54.363549007102847" lon="12.725364994257689">
        <ele>-5.63</ele>
        <time>2024-09-14T15:34:46Z</time>
      </trkpt>
      <trkpt lat="54.363656966015697" lon="12.725321995094419">
        <ele>-6.11</ele>
        <time>2024-09-14T15:34:47Z</time>
      </trkpt>
      <trkpt lat="54.363656966015697" lon="12.725321995094419">
        <ele>-6.59</ele>
        <time>2024-09-14T15:34:48Z</time>
      </trkpt>
      <trkpt lat="54.364348975941539" lon="12.725714016705751">
        <ele>-8.51</ele>
        <time>2024-09-14T15:34:58Z</time>
      </trkpt>
      <trkpt lat="54.364589033648372" lon="12.725856006145477">
        <ele>-8.51</ele>
        <time>2024-09-14T15:35:02Z</time>
      </trkpt>
      <trkpt lat="54.364634966477752" lon="12.72588400170207">
        <ele>-8.029999999999999</ele>
        <time>2024-09-14T15:35:03Z</time>
      </trkpt>
      <trkpt lat="54.364668997004628" lon="12.725945021957159">
        <ele>-8.029999999999999</ele>
        <time>2024-09-14T15:35:04Z</time>
      </trkpt>
      <trkpt lat="54.364677965641022" lon="12.726029008626938">
        <ele>-8.029999999999999</ele>
        <time>2024-09-14T15:35:05Z</time>
      </trkpt>
      <trkpt lat="54.364659022539854" lon="12.726148031651974">
        <ele>-7.55</ele>
        <time>2024-09-14T15:35:06Z</time>
      </trkpt>
      <trkpt lat="54.364606970921159" lon="12.726209973916411">
        <ele>-7.55</ele>
        <time>2024-09-14T15:35:07Z</time>
      </trkpt>
      <trkpt lat="54.364546034485102" lon="12.726280968636274">
        <ele>-7.55</ele>
        <time>2024-09-14T15:35:08Z</time>
      </trkpt>
      <trkpt lat="54.364480990916491" lon="12.726357998326421">
        <ele>-7.55</ele>
        <time>2024-09-14T15:35:09Z</time>
      </trkpt>
      <trkpt lat="54.363893000409007" lon="12.727054031565785">
        <ele>-7.07</ele>
        <time>2024-09-14T15:35:19Z</time>
      </trkpt>
      <trkpt lat="54.363863999024034" lon="12.727095019072294">
        <ele>-7.07</ele>
        <time>2024-09-14T15:35:20Z</time>
      </trkpt>
      <trkpt lat="54.363764002919197" lon="12.727231979370117">
        <ele>-7.55</ele>
        <time>2024-09-14T15:35:23Z</time>
      </trkpt>
      <trkpt lat="54.363666018471122" lon="12.727395007386804">
        <ele>-7.07</ele>
        <time>2024-09-14T15:35:25Z</time>
      </trkpt>
      <trkpt lat="54.363611033186316" lon="12.727487040683627">
        <ele>-7.07</ele>
        <time>2024-09-14T15:35:26Z</time>
      </trkpt>
      <trkpt lat="54.362965039908886" lon="12.728882040828466">
        <ele>-4.67</ele>
        <time>2024-09-14T15:35:36Z</time>
      </trkpt>
      <trkpt lat="54.36278197914362" lon="12.729399036616087">
        <ele>-4.19</ele>
        <time>2024-09-14T15:35:39Z</time>
      </trkpt>
      <trkpt lat="54.362722970545292" lon="12.729568015784025">
        <ele>-3.71</ele>
        <time>2024-09-14T15:35:40Z</time>
      </trkpt>
      <trkpt lat="54.362539993599057" lon="12.730082999914885">
        <ele>-3.23</ele>
        <time>2024-09-14T15:35:43Z</time>
      </trkpt>
      <trkpt lat="54.36248098500073" lon="12.730249967426062">
        <ele>-3.23</ele>
        <time>2024-09-14T15:35:44Z</time>
      </trkpt>
      <trkpt lat="54.36211796477437" lon="12.731271972879767">
        <ele>-1.79</ele>
        <time>2024-09-14T15:35:50Z</time>
      </trkpt>
      <trkpt lat="54.362059962004423" lon="12.731440030038357">
        <ele>-1.79</ele>
        <time>2024-09-14T15:35:51Z</time>
      </trkpt>
      <trkpt lat="54.361463002860546" lon="12.733135018497705">
        <ele>-0.82</ele>
        <time>2024-09-14T15:36:01Z</time>
      </trkpt>
      <trkpt lat="54.361015995964408" lon="12.734332960098982">
        <ele>2.06</ele>
        <time>2024-09-14T15:36:08Z</time>
      </trkpt>
      <trkpt lat="54.360943995416164" lon="12.734492970630527">
        <ele>2.06</ele>
        <time>2024-09-14T15:36:09Z</time>
      </trkpt>
      <trkpt lat="54.360152995213866" lon="12.736235987395048">
        <ele>4.94</ele>
        <time>2024-09-14T15:36:20Z</time>
      </trkpt>
      <trkpt lat="54.359096037223935" lon="12.73858099244535">
        <ele>3.5</ele>
        <time>2024-09-14T15:36:35Z</time>
      </trkpt>
      <trkpt lat="54.35837703756988" lon="12.740412019193172">
        <ele>4.94</ele>
        <time>2024-09-14T15:36:46Z</time>
      </trkpt>
      <trkpt lat="54.358314005658031" lon="12.74066498503089">
        <ele>4.46</ele>
        <time>2024-09-14T15:36:47Z</time>
      </trkpt>
      <trkpt lat="54.35816103592515" lon="12.741666035726666">
        <ele>3.98</ele>
        <time>2024-09-14T15:36:51Z</time>
      </trkpt>
      <trkpt lat="54.357933970168233" lon="12.743148040026426">
        <ele>3.5</ele>
        <time>2024-09-14T15:36:56Z</time>
      </trkpt>
      <trkpt lat="54.357543038204312" lon="12.745839972048998">
        <ele>8.789999999999999</ele>
        <time>2024-09-14T15:37:05Z</time>
      </trkpt>
      <trkpt lat="54.357185969129205" lon="12.74818598292768">
        <ele>15.52</ele>
        <time>2024-09-14T15:37:13Z</time>
      </trkpt>
      <trkpt lat="54.356986982747912" lon="12.749313013628125">
        <ele>18.879999999999999</ele>
        <time>2024-09-14T15:37:17Z</time>
      </trkpt>
      <trkpt lat="54.356501000002027" lon="12.751484010368586">
        <ele>21.77</ele>
        <time>2024-09-14T15:37:25Z</time>
      </trkpt>
      <trkpt lat="54.356222972273827" lon="12.752521019428968">
        <ele>21.77</ele>
        <time>2024-09-14T15:37:29Z</time>
      </trkpt>
      <trkpt lat="54.356118030846119" lon="12.752773985266685">
        <ele>21.77</ele>
        <time>2024-09-14T15:37:30Z</time>
      </trkpt>
      <trkpt lat="54.356002025306225" lon="12.75299702771008">
        <ele>21.77</ele>
        <time>2024-09-14T15:37:31Z</time>
      </trkpt>
      <trkpt lat="54.355862969532609" lon="12.75323498994112">
        <ele>21.289999999999999</ele>
        <time>2024-09-14T15:37:32Z</time>
      </trkpt>
      <trkpt lat="54.355717040598392" lon="12.753455014899373">
        <ele>21.77</ele>
        <time>2024-09-14T15:37:33Z</time>
      </trkpt>
      <trkpt lat="54.355582008138299" lon="12.753656012937427">
        <ele>21.77</ele>
        <time>2024-09-14T15:37:34Z</time>
      </trkpt>
      <trkpt lat="54.355184035375714" lon="12.754275016486645">
        <ele>22.25</ele>
        <time>2024-09-14T15:37:37Z</time>
      </trkpt>
      <trkpt lat="54.355058977380395" lon="12.754509039223194">
        <ele>23.210000000000001</ele>
        <time>2024-09-14T15:37:38Z</time>
      </trkpt>
      <trkpt lat="54.354221960529685" lon="12.756637958809733">
        <ele>26.57</ele>
        <time>2024-09-14T15:37:46Z</time>
      </trkpt>
      <trkpt lat="54.353209007531404" lon="12.758921021595597">
        <ele>28.5</ele>
        <time>2024-09-14T15:37:55Z</time>
      </trkpt>
      <trkpt lat="54.352208962664008" lon="12.761488985270262">
        <ele>28.02</ele>
        <time>2024-09-14T15:38:04Z</time>
      </trkpt>
      <trkpt lat="54.351230040192604" lon="12.7637629956007">
        <ele>26.57</ele>
        <time>2024-09-14T15:38:13Z</time>
      </trkpt>
      <trkpt lat="54.349860018119216" lon="12.765764007344842">
        <ele>20.32</ele>
        <time>2024-09-14T15:38:21Z</time>
      </trkpt>
      <trkpt lat="54.34810702688992" lon="12.768695997074246">
        <ele>14.56</ele>
        <time>2024-09-14T15:38:31Z</time>
      </trkpt>
      <trkpt lat="54.345734026283026" lon="12.773441998288035">
        <ele>11.19</ele>
        <time>2024-09-14T15:38:46Z</time>
      </trkpt>
      <trkpt lat="54.343913979828358" lon="12.77708200737834">
        <ele>5.91</ele>
        <time>2024-09-14T15:38:58Z</time>
      </trkpt>
      <trkpt lat="54.343340992927551" lon="12.778111975640059">
        <ele>3.5</ele>
        <time>2024-09-14T15:39:04Z</time>
      </trkpt>
      <trkpt lat="54.343006974086165" lon="12.778900964185596">
        <ele>2.54</ele>
        <time>2024-09-14T15:39:09Z</time>
      </trkpt>
      <trkpt lat="54.342895997688174" lon="12.779269013553858">
        <ele>2.06</ele>
        <time>2024-09-14T15:39:11Z</time>
      </trkpt>
      <trkpt lat="54.342433987185359" lon="12.781568001955748">
        <ele>-0.34</ele>
        <time>2024-09-14T15:39:23Z</time>
      </trkpt>
      <trkpt lat="54.342383025214076" lon="12.781735975295305">
        <ele>-0.34</ele>
        <time>2024-09-14T15:39:24Z</time>
      </trkpt>
      <trkpt lat="54.342310018837452" lon="12.781893974170089">
        <ele>-0.34</ele>
        <time>2024-09-14T15:39:25Z</time>
      </trkpt>
      <trkpt lat="54.342227037996054" lon="12.782039986923337">
        <ele>-0.82</ele>
        <time>2024-09-14T15:39:26Z</time>
      </trkpt>
      <trkpt lat="54.341620020568371" lon="12.783000972121954">
        <ele>-2.27</ele>
        <time>2024-09-14T15:39:33Z</time>
      </trkpt>
      <trkpt lat="54.341559000313282" lon="12.783156959339976">
        <ele>-2.75</ele>
        <time>2024-09-14T15:39:34Z</time>
      </trkpt>
      <trkpt lat="54.341493034735322" lon="12.783326022326946">
        <ele>-3.23</ele>
        <time>2024-09-14T15:39:35Z</time>
      </trkpt>
      <trkpt lat="54.341448023915291" lon="12.783526014536619">
        <ele>-3.23</ele>
        <time>2024-09-14T15:39:36Z</time>
      </trkpt>
      <trkpt lat="54.341423967853189" lon="12.783741010352969">
        <ele>-3.71</ele>
        <time>2024-09-14T15:39:37Z</time>
      </trkpt>
      <trkpt lat="54.341416005045176" lon="12.783967992290854">
        <ele>-4.19</ele>
        <time>2024-09-14T15:39:38Z</time>
      </trkpt>
      <trkpt lat="54.341407036408782" lon="12.784218024462461">
        <ele>-4.19</ele>
        <time>2024-09-14T15:39:39Z</time>
      </trkpt>
      <trkpt lat="54.341320032253861" lon="12.786667970940471">
        <ele>-5.15</ele>
        <time>2024-09-14T15:39:47Z</time>
      </trkpt>
      <trkpt lat="54.341218024492264" lon="12.788995038717985">
        <ele>-6.11</ele>
        <time>2024-09-14T15:39:54Z</time>
      </trkpt>
      <trkpt lat="54.341165972873569" lon="12.789289997890592">
        <ele>-6.59</ele>
        <time>2024-09-14T15:39:55Z</time>
      </trkpt>
      <trkpt lat="54.34110595844686" lon="12.789600966498256">
        <ele>-7.07</ele>
        <time>2024-09-14T15:39:56Z</time>
      </trkpt>
      <trkpt lat="54.340984001755714" lon="12.78984303586185">
        <ele>-7.07</ele>
        <time>2024-09-14T15:39:57Z</time>
      </trkpt>
      <trkpt lat="54.340850980952382" lon="12.790099019184709">
        <ele>-7.55</ele>
        <time>2024-09-14T15:39:58Z</time>
      </trkpt>
      <trkpt lat="54.34069499373436" lon="12.79031896032393">
        <ele>-7.55</ele>
        <time>2024-09-14T15:39:59Z</time>
      </trkpt>
      <trkpt lat="54.340513022616506" lon="12.790533034130931">
        <ele>-8.029999999999999</ele>
        <time>2024-09-14T15:40:00Z</time>
      </trkpt>
      <trkpt lat="54.340323004871607" lon="12.790759010240436">
        <ele>-8.51</ele>
        <time>2024-09-14T15:40:01Z</time>
      </trkpt>
      <trkpt lat="54.338113032281399" lon="12.793330997228622">
        <ele>-8.029999999999999</ele>
        <time>2024-09-14T15:40:12Z</time>
      </trkpt>
      <trkpt lat="54.336103973910213" lon="12.795610036700964">
        <ele>-6.11</ele>
        <time>2024-09-14T15:40:22Z</time>
      </trkpt>
      <trkpt lat="54.335234016180038" lon="12.796576973050833">
        <ele>-7.55</ele>
        <time>2024-09-14T15:40:28Z</time>
      </trkpt>
      <trkpt lat="54.334947019815445" lon="12.796918032690883">
        <ele>-7.07</ele>
        <time>2024-09-14T15:40:31Z</time>
      </trkpt>
      <trkpt lat="54.33487200178206" lon="12.797002019360662">
        <ele>-7.07</ele>
        <time>2024-09-14T15:40:32Z</time>
      </trkpt>
      <trkpt lat="54.334603026509285" lon="12.797289015725255">
        <ele>-7.55</ele>
        <time>2024-09-14T15:40:36Z</time>
      </trkpt>
      <trkpt lat="54.334534965455532" lon="12.797345006838441">
        <ele>-7.55</ele>
        <time>2024-09-14T15:40:37Z</time>
      </trkpt>
      <trkpt lat="54.334462964907289" lon="12.797376019880176">
        <ele>-8.029999999999999</ele>
        <time>2024-09-14T15:40:38Z</time>
      </trkpt>
      <trkpt lat="54.334409991279244" lon="12.797398986294866">
        <ele>-8.029999999999999</ele>
        <time>2024-09-14T15:40:39Z</time>
      </trkpt>
      <trkpt lat="54.334315024316311" lon="12.797316005453467">
        <ele>-8.51</ele>
        <time>2024-09-14T15:40:40Z</time>
      </trkpt>
      <trkpt lat="54.334239000454545" lon="12.797250039875507">
        <ele>-9</ele>
        <time>2024-09-14T15:40:41Z</time>
      </trkpt>
      <trkpt lat="54.334158031269908" lon="12.797179967164993">
        <ele>-9</ele>
        <time>2024-09-14T15:40:42Z</time>
      </trkpt>
      <trkpt lat="54.333723010495305" lon="12.796814013272524">
        <ele>-9.48</ele>
        <time>2024-09-14T15:40:47Z</time>
      </trkpt>
      <trkpt lat="54.333636006340384" lon="12.796791968867183">
        <ele>-9.48</ele>
        <time>2024-09-14T15:40:48Z</time>
      </trkpt>
      <trkpt lat="54.333572974428535" lon="12.796775959432125">
        <ele>-9.48</ele>
        <time>2024-09-14T15:40:49Z</time>
      </trkpt>
      <trkpt lat="54.333486976101995" lon="12.796862963587046">
        <ele>-9.48</ele>
        <time>2024-09-14T15:40:50Z</time>
      </trkpt>
      <trkpt lat="54.333420004695654" lon="12.796930018812418">
        <ele>-9</ele>
        <time>2024-09-14T15:40:51Z</time>
      </trkpt>
      <trkpt lat="54.333380023017526" lon="12.796970000490546">
        <ele>-9</ele>
        <time>2024-09-14T15:40:52Z</time>
      </trkpt>
      <trkpt lat="54.333335012197495" lon="12.797079971060157">
        <ele>-8.51</ele>
        <time>2024-09-14T15:40:53Z</time>
      </trkpt>
      <trkpt lat="54.333297964185476" lon="12.797169992700219">
        <ele>-8.51</ele>
        <time>2024-09-14T15:40:54Z</time>
      </trkpt>
      <trkpt lat="54.333264017477632" lon="12.797253979369998">
        <ele>-8.51</ele>
        <time>2024-09-14T15:40:55Z</time>
      </trkpt>
      <trkpt lat="54.333230992779136" lon="12.797333020716906">
        <ele>-8.51</ele>
        <time>2024-09-14T15:40:56Z</time>
      </trkpt>
      <trkpt lat="54.333113981410861" lon="12.797383982688189">
        <ele>-8.51</ele>
        <time>2024-09-14T15:40:57Z</time>
      </trkpt>
      <trkpt lat="54.333067964762449" lon="12.797349030151963">
        <ele>-8.51</ele>
        <time>2024-09-14T15:40:58Z</time>
      </trkpt>
      <trkpt lat="54.333006022498012" lon="12.79729999601841">
        <ele>-8.51</ele>
        <time>2024-09-14T15:40:59Z</time>
      </trkpt>
      <trkpt lat="54.332938967272639" lon="12.797247022390366">
        <ele>-8.51</ele>
        <time>2024-09-14T15:41:00Z</time>
      </trkpt>
      <trkpt lat="54.332866966724396" lon="12.797188013792038">
        <ele>-8.51</ele>
        <time>2024-09-14T15:41:01Z</time>
      </trkpt>
      <trkpt lat="54.332508975639939" lon="12.796966983005404">
        <ele>-8.51</ele>
        <time>2024-09-14T15:41:05Z</time>
      </trkpt>
      <trkpt lat="54.332406967878342" lon="12.796923983842134">
        <ele>-8.51</ele>
        <time>2024-09-14T15:41:06Z</time>
      </trkpt>
      <trkpt lat="54.332304960116744" lon="12.796879978850484">
        <ele>-8.51</ele>
        <time>2024-09-14T15:41:07Z</time>
      </trkpt>
      <trkpt lat="54.332179985940456" lon="12.796868998557329">
        <ele>-8.51</ele>
        <time>2024-09-14T15:41:08Z</time>
      </trkpt>
      <trkpt lat="54.332054005935788" lon="12.796877967193723">
        <ele>-8.51</ele>
        <time>2024-09-14T15:41:09Z</time>
      </trkpt>
      <trkpt lat="54.330725977197289" lon="12.796616032719612">
        <ele>-9.48</ele>
        <time>2024-09-14T15:41:20Z</time>
      </trkpt>
      <trkpt lat="54.329540021717548" lon="12.79618201777339">
        <ele>-9.48</ele>
        <time>2024-09-14T15:41:30Z</time>
      </trkpt>
      <trkpt lat="54.329428961500525" lon="12.796129966154695">
        <ele>-9.48</ele>
        <time>2024-09-14T15:41:31Z</time>
      </trkpt>
      <trkpt lat="54.329318990930915" lon="12.796081015840173">
        <ele>-9.48</ele>
        <time>2024-09-14T15:41:32Z</time>
      </trkpt>
      <trkpt lat="54.327605981379747" lon="12.795477015897632">
        <ele>-9.960000000000001</ele>
        <time>2024-09-14T15:41:45Z</time>
      </trkpt>
      <trkpt lat="54.326208969578147" lon="12.795160012319684">
        <ele>-10.44</ele>
        <time>2024-09-14T15:41:54Z</time>
      </trkpt>
      <trkpt lat="54.325906969606876" lon="12.795094968751073">
        <ele>-10.44</ele>
        <time>2024-09-14T15:41:56Z</time>
      </trkpt>
      <trkpt lat="54.324510041624308" lon="12.79480897821486">
        <ele>-9.960000000000001</ele>
        <time>2024-09-14T15:42:05Z</time>
      </trkpt>
      <trkpt lat="54.322982020676136" lon="12.794474959373474">
        <ele>-9</ele>
        <time>2024-09-14T15:42:14Z</time>
      </trkpt>
      <trkpt lat="54.32150999084115" lon="12.793879006057978">
        <ele>-6.59</ele>
        <time>2024-09-14T15:42:21Z</time>
      </trkpt>
      <trkpt lat="54.319859007373452" lon="12.793210968375206">
        <ele>-5.63</ele>
        <time>2024-09-14T15:42:28Z</time>
      </trkpt>
      <trkpt lat="54.318378008902073" lon="12.792942998930812">
        <ele>-3.71</ele>
        <time>2024-09-14T15:42:34Z</time>
      </trkpt>
      <trkpt lat="54.315690016373992" lon="12.792815007269382">
        <ele>-3.71</ele>
        <time>2024-09-14T15:42:45Z</time>
      </trkpt>
      <trkpt lat="54.311911035329103" lon="12.792628007009625">
        <ele>-2.75</ele>
        <time>2024-09-14T15:43:00Z</time>
      </trkpt>
      <trkpt lat="54.309995016083121" lon="12.792087038978934">
        <ele>-2.27</ele>
        <time>2024-09-14T15:43:08Z</time>
      </trkpt>
      <trkpt lat="54.309110976755619" lon="12.79167003929615">
        <ele>-2.27</ele>
        <time>2024-09-14T15:43:12Z</time>
      </trkpt>
      <trkpt lat="54.308881983160973" lon="12.791674984619021">
        <ele>-2.27</ele>
        <time>2024-09-14T15:43:13Z</time>
      </trkpt>
      <trkpt lat="54.307579016312957" lon="12.791707003489137">
        <ele>-2.75</ele>
        <time>2024-09-14T15:43:20Z</time>
      </trkpt>
      <trkpt lat="54.306697994470596" lon="12.791838012635708">
        <ele>-3.71</ele>
        <time>2024-09-14T15:43:27Z</time>
      </trkpt>
      <trkpt lat="54.305670959874988" lon="12.792372023686767">
        <ele>-5.15</ele>
        <time>2024-09-14T15:43:36Z</time>
      </trkpt>
      <trkpt lat="54.304475029930472" lon="12.79238099232316">
        <ele>-7.07</ele>
        <time>2024-09-14T15:43:46Z</time>
      </trkpt>
      <trkpt lat="54.3035479914397" lon="12.792105982080102">
        <ele>-8.51</ele>
        <time>2024-09-14T15:43:55Z</time>
      </trkpt>
      <trkpt lat="54.303437015041709" lon="12.792168008163571">
        <ele>-8.51</ele>
        <time>2024-09-14T15:43:56Z</time>
      </trkpt>
      <trkpt lat="54.303393010050058" lon="12.792260041460395">
        <ele>-8.51</ele>
        <time>2024-09-14T15:43:57Z</time>
      </trkpt>
      <trkpt lat="54.303346993401647" lon="12.79235802590847">
        <ele>-9</ele>
        <time>2024-09-14T15:43:58Z</time>
      </trkpt>
      <trkpt lat="54.303295025601983" lon="12.792467996478081">
        <ele>-9</ele>
        <time>2024-09-14T15:43:59Z</time>
      </trkpt>
      <trkpt lat="54.302742993459105" lon="12.793640960007906">
        <ele>-9</ele>
        <time>2024-09-14T15:44:08Z</time>
      </trkpt>
      <trkpt lat="54.302683984860778" lon="12.793768029659986">
        <ele>-9</ele>
        <time>2024-09-14T15:44:09Z</time>
      </trkpt>
      <trkpt lat="54.302497990429401" lon="12.794314026832581">
        <ele>-10.44</ele>
        <time>2024-09-14T15:44:13Z</time>
      </trkpt>
      <trkpt lat="54.302407968789339" lon="12.794610997661948">
        <ele>-10.92</ele>
        <time>2024-09-14T15:44:16Z</time>
      </trkpt>
      <trkpt lat="54.302364969626069" lon="12.794662965461612">
        <ele>-11.4</ele>
        <time>2024-09-14T15:44:17Z</time>
      </trkpt>
      <trkpt lat="54.302317025139928" lon="12.79467998072505">
        <ele>-11.4</ele>
        <time>2024-09-14T15:44:18Z</time>
      </trkpt>
      <trkpt lat="54.302276037633419" lon="12.794694984331727">
        <ele>-11.4</ele>
        <time>2024-09-14T15:44:19Z</time>
      </trkpt>
      <trkpt lat="54.302246030420065" lon="12.794705964624882">
        <ele>-11.880000000000001</ele>
        <time>2024-09-14T15:44:20Z</time>
      </trkpt>
      <trkpt lat="54.302222980186343" lon="12.794715017080307">
        <ele>-11.880000000000001</ele>
        <time>2024-09-14T15:44:21Z</time>
      </trkpt>
      <trkpt lat="54.302202025428414" lon="12.794721974059939">
        <ele>-12.359999999999999</ele>
        <time>2024-09-14T15:44:22Z</time>
      </trkpt>
      <trkpt lat="54.302169000729918" lon="12.794847032055259">
        <ele>-12.359999999999999</ele>
        <time>2024-09-14T15:44:23Z</time>
      </trkpt>
      <trkpt lat="54.302176963537931" lon="12.794931018725038">
        <ele>-12.359999999999999</ele>
        <time>2024-09-14T15:44:24Z</time>
      </trkpt>
      <trkpt lat="54.302190039306879" lon="12.795062027871609">
        <ele>-11.880000000000001</ele>
        <time>2024-09-14T15:44:25Z</time>
      </trkpt>
      <trkpt lat="54.302204959094524" lon="12.795222038403153">
        <ele>-12.359999999999999</ele>
        <time>2024-09-14T15:44:26Z</time>
      </trkpt>
      <trkpt lat="54.302221974357963" lon="12.795404009521008">
        <ele>-12.359999999999999</ele>
        <time>2024-09-14T15:44:27Z</time>
      </trkpt>
      <trkpt lat="54.302239995449781" lon="12.795607019215822">
        <ele>-12.359999999999999</ele>
        <time>2024-09-14T15:44:28Z</time>
      </trkpt>
      <trkpt lat="54.302419032901525" lon="12.796770008280873">
        <ele>-11.880000000000001</ele>
        <time>2024-09-14T15:44:33Z</time>
      </trkpt>
      <trkpt lat="54.302788004279137" lon="12.798452004790306">
        <ele>-12.359999999999999</ele>
        <time>2024-09-14T15:44:40Z</time>
      </trkpt>
      <trkpt lat="54.3031370267272" lon="12.800639010965824">
        <ele>-10.92</ele>
        <time>2024-09-14T15:44:48Z</time>
      </trkpt>
      <trkpt lat="54.30311699397862" lon="12.800917960703373">
        <ele>-10.44</ele>
        <time>2024-09-14T15:44:49Z</time>
      </trkpt>
      <trkpt lat="54.30309503339231" lon="12.801198000088334">
        <ele>-9.960000000000001</ele>
        <time>2024-09-14T15:44:50Z</time>
      </trkpt>
      <trkpt lat="54.302837960422039" lon="12.803859002888203">
        <ele>-4.67</ele>
        <time>2024-09-14T15:44:58Z</time>
      </trkpt>
      <trkpt lat="54.302512994036078" lon="12.807878963649273">
        <ele>-1.3</ele>
        <time>2024-09-14T15:45:08Z</time>
      </trkpt>
      <trkpt lat="54.302169000729918" lon="12.813225025311112">
        <ele>0.62</ele>
        <time>2024-09-14T15:45:21Z</time>
      </trkpt>
      <trkpt lat="54.301915029063821" lon="12.8171749971807">
        <ele>2.54</ele>
        <time>2024-09-14T15:45:31Z</time>
      </trkpt>
      <trkpt lat="54.301732974126935" lon="12.820076979696751">
        <ele>2.54</ele>
        <time>2024-09-14T15:45:38Z</time>
      </trkpt>
      <trkpt lat="54.301620991900563" lon="12.821937007829547">
        <ele>3.98</ele>
        <time>2024-09-14T15:45:44Z</time>
      </trkpt>
      <trkpt lat="54.301466010510921" lon="12.824530033394694">
        <ele>4.46</ele>
        <time>2024-09-14T15:45:51Z</time>
      </trkpt>
      <trkpt lat="54.301258977502584" lon="12.828073985874653">
        <ele>3.5</ele>
        <time>2024-09-14T15:45:58Z</time>
      </trkpt>
      <trkpt lat="54.301082035526633" lon="12.8308189753443">
        <ele>1.58</ele>
        <time>2024-09-14T15:46:03Z</time>
      </trkpt>
      <trkpt lat="54.300853963941336" lon="12.83429897390306">
        <ele>-1.3</ele>
        <time>2024-09-14T15:46:11Z</time>
      </trkpt>
      <trkpt lat="54.300624970346689" lon="12.837861031293869">
        <ele>-3.71</ele>
        <time>2024-09-14T15:46:20Z</time>
      </trkpt>
      <trkpt lat="54.300349960103631" lon="12.842188021168113">
        <ele>-6.11</ele>
        <time>2024-09-14T15:46:31Z</time>
      </trkpt>
      <trkpt lat="54.30004402063787" lon="12.847093027085066">
        <ele>-8.029999999999999</ele>
        <time>2024-09-14T15:46:43Z</time>
      </trkpt>
      <trkpt lat="54.299763981252909" lon="12.851703995838761">
        <ele>-5.15</ele>
        <time>2024-09-14T15:46:54Z</time>
      </trkpt>
      <trkpt lat="54.299488971009851" lon="12.8563869651407">
        <ele>-2.27</ele>
        <time>2024-09-14T15:47:05Z</time>
      </trkpt>
      <trkpt lat="54.299175990745425" lon="12.861013021320105">
        <ele>3.02</ele>
        <time>2024-09-14T15:47:16Z</time>
      </trkpt>
      <trkpt lat="54.298943979665637" lon="12.86504102870822">
        <ele>7.35</ele>
        <time>2024-09-14T15:47:27Z</time>
      </trkpt>
      <trkpt lat="54.298581965267658" lon="12.868334027007222">
        <ele>10.23</ele>
        <time>2024-09-14T15:47:36Z</time>
      </trkpt>
      <trkpt lat="54.297662973403931" lon="12.871126038953662">
        <ele>13.119999999999999</ele>
        <time>2024-09-14T15:47:44Z</time>
      </trkpt>
      <trkpt lat="54.296645997092128" lon="12.873806990683079">
        <ele>16.960000000000001</ele>
        <time>2024-09-14T15:47:52Z</time>
      </trkpt>
      <trkpt lat="54.296408034861088" lon="12.875881008803844">
        <ele>17.920000000000002</ele>
        <time>2024-09-14T15:47:57Z</time>
      </trkpt>
      <trkpt lat="54.296713974326849" lon="12.878420976921916">
        <ele>16</ele>
        <time>2024-09-14T15:48:03Z</time>
      </trkpt>
      <trkpt lat="54.297301964834332" lon="12.880128035321832">
        <ele>15.039999999999999</ele>
        <time>2024-09-14T15:48:08Z</time>
      </trkpt>
      <trkpt lat="54.297882998362184" lon="12.881978005170822">
        <ele>13.6</ele>
        <time>2024-09-14T15:48:15Z</time>
      </trkpt>
      <trkpt lat="54.298083996400237" lon="12.884132992476225">
        <ele>12.15</ele>
        <time>2024-09-14T15:48:23Z</time>
      </trkpt>
      <trkpt lat="54.298254987224936" lon="12.886955011636019">
        <ele>9.75</ele>
        <time>2024-09-14T15:48:32Z</time>
      </trkpt>
      <trkpt lat="54.298505019396544" lon="12.89082502014935">
        <ele>5.42</ele>
        <time>2024-09-14T15:48:41Z</time>
      </trkpt>
      <trkpt lat="54.298945991322398" lon="12.897740006446838">
        <ele>8.310000000000001</ele>
        <time>2024-09-14T15:48:57Z</time>
      </trkpt>
      <trkpt lat="54.299266012385488" lon="12.902754982933402">
        <ele>12.15</ele>
        <time>2024-09-14T15:49:10Z</time>
      </trkpt>
      <trkpt lat="54.29959399625659" lon="12.907759984955192">
        <ele>8.789999999999999</ele>
        <time>2024-09-14T15:49:23Z</time>
      </trkpt>
      <trkpt lat="54.299912005662918" lon="12.912502968683839">
        <ele>8.789999999999999</ele>
        <time>2024-09-14T15:49:35Z</time>
      </trkpt>
      <trkpt lat="54.300177041441202" lon="12.916470961645246">
        <ele>9.27</ele>
        <time>2024-09-14T15:49:45Z</time>
      </trkpt>
      <trkpt lat="54.300455991178751" lon="12.920738020911813">
        <ele>10.710000000000001</ele>
        <time>2024-09-14T15:49:56Z</time>
      </trkpt>
      <trkpt lat="54.300618013367057" lon="12.923521986231208">
        <ele>10.23</ele>
        <time>2024-09-14T15:50:04Z</time>
      </trkpt>
      <trkpt lat="54.300617007538676" lon="12.926572998985648">
        <ele>6.87</ele>
        <time>2024-09-14T15:50:14Z</time>
      </trkpt>
      <trkpt lat="54.300571996718645" lon="12.927664993330836">
        <ele>3.02</ele>
        <time>2024-09-14T15:50:20Z</time>
      </trkpt>
      <trkpt lat="54.300556993111968" lon="12.928018039092422">
        <ele>0.14</ele>
        <time>2024-09-14T15:50:26Z</time>
      </trkpt>
      <trkpt lat="54.300553975626826" lon="12.928098002448678">
        <ele>1.58</ele>
        <time>2024-09-14T15:50:41Z</time>
      </trkpt>
      <trkpt lat="54.300520028918982" lon="12.928967038169503">
        <ele>5.91</ele>
        <time>2024-09-14T15:50:47Z</time>
      </trkpt>
      <trkpt lat="54.300451967865229" lon="12.931176004931331">
        <ele>10.23</ele>
        <time>2024-09-14T15:50:56Z</time>
      </trkpt>
      <trkpt lat="54.300349960103631" lon="12.934911986812949">
        <ele>13.6</ele>
        <time>2024-09-14T15:51:08Z</time>
      </trkpt>
      <trkpt lat="54.30023998953402" lon="12.939155995845795">
        <ele>15.039999999999999</ele>
        <time>2024-09-14T15:51:21Z</time>
      </trkpt>
      <trkpt lat="54.300117027014494" lon="12.943178974092007">
        <ele>17.440000000000001</ele>
        <time>2024-09-14T15:51:31Z</time>
      </trkpt>
      <trkpt lat="54.299941007047892" lon="12.949130041524768">
        <ele>20.32</ele>
        <time>2024-09-14T15:51:44Z</time>
      </trkpt>
      <trkpt lat="54.29980899207294" lon="12.95379901304841">
        <ele>16.48</ele>
        <time>2024-09-14T15:51:55Z</time>
      </trkpt>
      <trkpt lat="54.299870012328029" lon="12.956877015531063">
        <ele>13.119999999999999</ele>
        <time>2024-09-14T15:52:04Z</time>
      </trkpt>
      <trkpt lat="54.300321964547038" lon="12.959795007482171">
        <ele>14.56</ele>
        <time>2024-09-14T15:52:13Z</time>
      </trkpt>
      <trkpt lat="54.300936022773385" lon="12.963255979120731">
        <ele>14.56</ele>
        <time>2024-09-14T15:52:22Z</time>
      </trkpt>
      <trkpt lat="54.301340030506253" lon="12.965492019429803">
        <ele>15.039999999999999</ele>
        <time>2024-09-14T15:52:28Z</time>
      </trkpt>
      <trkpt lat="54.301843028515577" lon="12.96853699721396">
        <ele>14.56</ele>
        <time>2024-09-14T15:52:38Z</time>
      </trkpt>
      <trkpt lat="54.301941012963653" lon="12.971408972516656">
        <ele>11.67</ele>
        <time>2024-09-14T15:52:47Z</time>
      </trkpt>
      <trkpt lat="54.302031034603715" lon="12.974464008584619">
        <ele>7.35</ele>
        <time>2024-09-14T15:52:55Z</time>
      </trkpt>
      <trkpt lat="54.302157014608383" lon="12.97837701626122">
        <ele>9.75</ele>
        <time>2024-09-14T15:53:05Z</time>
      </trkpt>
      <trkpt lat="54.302209988236427" lon="12.980236038565636">
        <ele>13.119999999999999</ele>
        <time>2024-09-14T15:53:12Z</time>
      </trkpt>
      <trkpt lat="54.302246030420065" lon="12.981527019292116">
        <ele>15.039999999999999</ele>
        <time>2024-09-14T15:53:20Z</time>
      </trkpt>
      <trkpt lat="54.302250975742936" lon="12.981713013723493">
        <ele>15.52</ele>
        <time>2024-09-14T15:53:22Z</time>
      </trkpt>
      <trkpt lat="54.302251981571317" lon="12.981788031756878">
        <ele>16</ele>
        <time>2024-09-14T15:53:23Z</time>
      </trkpt>
      <trkpt lat="54.302253993228078" lon="12.981847962364554">
        <ele>16</ele>
        <time>2024-09-14T15:53:24Z</time>
      </trkpt>
      <trkpt lat="54.302254999056458" lon="12.981890039518476">
        <ele>16</ele>
        <time>2024-09-14T15:53:25Z</time>
      </trkpt>
      <trkpt lat="54.302254999056458" lon="12.981890039518476">
        <ele>16</ele>
        <time>2024-09-14T15:53:35Z</time>
      </trkpt>
      <trkpt lat="54.302254999056458" lon="12.981890039518476">
        <ele>16</ele>
        <time>2024-09-14T15:54:20Z</time>
      </trkpt>
      <trkpt lat="54.3022580165416" lon="12.982016019523144">
        <ele>16.48</ele>
        <time>2024-09-14T15:54:26Z</time>
      </trkpt>
      <trkpt lat="54.302289029583335" lon="12.983316974714398">
        <ele>20.809999999999999</ele>
        <time>2024-09-14T15:54:36Z</time>
      </trkpt>
      <trkpt lat="54.302345020696521" lon="12.985115982592106">
        <ele>21.289999999999999</ele>
        <time>2024-09-14T15:54:45Z</time>
      </trkpt>
      <trkpt lat="54.302426995709538" lon="12.98763801343739">
        <ele>20.32</ele>
        <time>2024-09-14T15:54:55Z</time>
      </trkpt>
      <trkpt lat="54.302525985985994" lon="12.991133015602827">
        <ele>16.960000000000001</ele>
        <time>2024-09-14T15:55:07Z</time>
      </trkpt>
      <trkpt lat="54.302607960999012" lon="12.99451301805675">
        <ele>13.6</ele>
        <time>2024-09-14T15:55:17Z</time>
      </trkpt>
      <trkpt lat="54.302693959325552" lon="12.997663021087646">
        <ele>12.630000000000001</ele>
        <time>2024-09-14T15:55:26Z</time>
      </trkpt>
      <trkpt lat="54.302503019571304" lon="13.000237019732594">
        <ele>14.08</ele>
        <time>2024-09-14T15:55:35Z</time>
      </trkpt>
      <trkpt lat="54.301884016022086" lon="13.002701969817281">
        <ele>14.08</ele>
        <time>2024-09-14T15:55:43Z</time>
      </trkpt>
      <trkpt lat="54.30060401558876" lon="13.0068230163306">
        <ele>18.399999999999999</ele>
        <time>2024-09-14T15:55:56Z</time>
      </trkpt>
      <trkpt lat="54.300058018416166" lon="13.009837986901402">
        <ele>22.73</ele>
        <time>2024-09-14T15:56:04Z</time>
      </trkpt>
      <trkpt lat="54.299826007336378" lon="13.013556031510234">
        <ele>25.609999999999999</ele>
        <time>2024-09-14T15:56:13Z</time>
      </trkpt>
      <trkpt lat="54.29974403232336" lon="13.017882015556097">
        <ele>23.690000000000001</ele>
        <time>2024-09-14T15:56:24Z</time>
      </trkpt>
      <trkpt lat="54.299480002373457" lon="13.021817989647388">
        <ele>22.25</ele>
        <time>2024-09-14T15:56:33Z</time>
      </trkpt>
      <trkpt lat="54.298908021301031" lon="13.024958018213511">
        <ele>23.210000000000001</ele>
        <time>2024-09-14T15:56:41Z</time>
      </trkpt>
      <trkpt lat="54.298690007999539" lon="13.025715993717313">
        <ele>23.690000000000001</ele>
        <time>2024-09-14T15:56:43Z</time>
      </trkpt>
      <trkpt lat="54.297263994812965" lon="13.030139040201902">
        <ele>22.73</ele>
        <time>2024-09-14T15:56:55Z</time>
      </trkpt>
      <trkpt lat="54.296680027619004" lon="13.033484006300569">
        <ele>20.32</ele>
        <time>2024-09-14T15:57:03Z</time>
      </trkpt>
      <trkpt lat="54.296611966565251" lon="13.036826960742474">
        <ele>18.879999999999999</ele>
        <time>2024-09-14T15:57:11Z</time>
      </trkpt>
      <trkpt lat="54.29656402207911" lon="13.040593033656478">
        <ele>20.32</ele>
        <time>2024-09-14T15:57:21Z</time>
      </trkpt>
      <trkpt lat="54.296125983819366" lon="13.044511992484331">
        <ele>17.920000000000002</ele>
        <time>2024-09-14T15:57:31Z</time>
      </trkpt>
      <trkpt lat="54.295603036880493" lon="13.047439958900213">
        <ele>14.56</ele>
        <time>2024-09-14T15:57:46Z</time>
      </trkpt>
      <trkpt lat="54.294401993975043" lon="13.052321998402476">
        <ele>13.6</ele>
        <time>2024-09-14T15:57:54Z</time>
      </trkpt>
      <trkpt lat="54.293409995734692" lon="13.055254993960261">
        <ele>12.630000000000001</ele>
        <time>2024-09-14T15:58:03Z</time>
      </trkpt>
      <trkpt lat="54.291948024183512" lon="13.058353029191494">
        <ele>12.15</ele>
        <time>2024-09-14T15:58:13Z</time>
      </trkpt>
      <trkpt lat="54.289822960272431" lon="13.061883989721537">
        <ele>14.08</ele>
        <time>2024-09-14T15:58:26Z</time>
      </trkpt>
      <trkpt lat="54.287864025682211" lon="13.065617037937045">
        <ele>14.08</ele>
        <time>2024-09-14T15:58:39Z</time>
      </trkpt>
      <trkpt lat="54.286730960011482" lon="13.068666039034724">
        <ele>13.6</ele>
        <time>2024-09-14T15:58:48Z</time>
      </trkpt>
      <trkpt lat="54.285941971465945" lon="13.07200999930501">
        <ele>13.6</ele>
        <time>2024-09-14T15:58:58Z</time>
      </trkpt>
      <trkpt lat="54.285852033644915" lon="13.072660015895963">
        <ele>14.08</ele>
        <time>2024-09-14T15:59:00Z</time>
      </trkpt>
      <trkpt lat="54.285867037251592" lon="13.072986993938684">
        <ele>14.08</ele>
        <time>2024-09-14T15:59:01Z</time>
      </trkpt>
      <trkpt lat="54.285882040858269" lon="13.073311960324645">
        <ele>14.08</ele>
        <time>2024-09-14T15:59:02Z</time>
      </trkpt>
      <trkpt lat="54.285955969244242" lon="13.073939010500908">
        <ele>14.08</ele>
        <time>2024-09-14T15:59:04Z</time>
      </trkpt>
      <trkpt lat="54.286028975620866" lon="13.074242016300559">
        <ele>14.08</ele>
        <time>2024-09-14T15:59:05Z</time>
      </trkpt>
      <trkpt lat="54.286112962290645" lon="13.074535969644785">
        <ele>13.6</ele>
        <time>2024-09-14T15:59:06Z</time>
      </trkpt>
      <trkpt lat="54.286238020285964" lon="13.074799999594688">
        <ele>13.6</ele>
        <time>2024-09-14T15:59:07Z</time>
      </trkpt>
      <trkpt lat="54.28636098280549" lon="13.07506101205945">
        <ele>13.119999999999999</ele>
        <time>2024-09-14T15:59:08Z</time>
      </trkpt>
      <trkpt lat="54.286491991952062" lon="13.07529604062438">
        <ele>13.119999999999999</ele>
        <time>2024-09-14T15:59:09Z</time>
      </trkpt>
      <trkpt lat="54.286655019968748" lon="13.075466025620699">
        <ele>13.119999999999999</ele>
        <time>2024-09-14T15:59:10Z</time>
      </trkpt>
      <trkpt lat="54.286820981651545" lon="13.075638022273779">
        <ele>13.119999999999999</ele>
        <time>2024-09-14T15:59:11Z</time>
      </trkpt>
      <trkpt lat="54.286985015496612" lon="13.075808007270098">
        <ele>13.6</ele>
        <time>2024-09-14T15:59:12Z</time>
      </trkpt>
      <trkpt lat="54.287172015756369" lon="13.075883025303483">
        <ele>13.6</ele>
        <time>2024-09-14T15:59:13Z</time>
      </trkpt>
      <trkpt lat="54.287357004359365" lon="13.075954020023346">
        <ele>13.6</ele>
        <time>2024-09-14T15:59:14Z</time>
      </trkpt>
      <trkpt lat="54.287546016275883" lon="13.07602702639997">
        <ele>13.6</ele>
        <time>2024-09-14T15:59:15Z</time>
      </trkpt>
      <trkpt lat="54.287727987393737" lon="13.076018979772925">
        <ele>13.6</ele>
        <time>2024-09-14T15:59:16Z</time>
      </trkpt>
      <trkpt lat="54.287918005138636" lon="13.076011016964912">
        <ele>13.6</ele>
        <time>2024-09-14T15:59:17Z</time>
      </trkpt>
      <trkpt lat="54.289734028279781" lon="13.076269011944532">
        <ele>14.56</ele>
        <time>2024-09-14T15:59:27Z</time>
      </trkpt>
      <trkpt lat="54.291100027039647" lon="13.077401993796229">
        <ele>14.56</ele>
        <time>2024-09-14T15:59:35Z</time>
      </trkpt>
      <trkpt lat="54.292989978566766" lon="13.079454973340034">
        <ele>13.119999999999999</ele>
        <time>2024-09-14T15:59:46Z</time>
      </trkpt>
      <trkpt lat="54.295928003266454" lon="13.082645041868091">
        <ele>13.6</ele>
        <time>2024-09-14T16:00:02Z</time>
      </trkpt>
      <trkpt lat="54.298206036910415" lon="13.085354994982481">
        <ele>17.440000000000001</ele>
        <time>2024-09-14T16:00:15Z</time>
      </trkpt>
      <trkpt lat="54.298972981050611" lon="13.087348965927958">
        <ele>16.960000000000001</ele>
        <time>2024-09-14T16:00:22Z</time>
      </trkpt>
      <trkpt lat="54.299027966335416" lon="13.087639985606074">
        <ele>16.960000000000001</ele>
        <time>2024-09-14T16:00:23Z</time>
      </trkpt>
      <trkpt lat="54.299016986042261" lon="13.087937962263823">
        <ele>16.960000000000001</ele>
        <time>2024-09-14T16:00:24Z</time>
      </trkpt>
      <trkpt lat="54.299117987975478" lon="13.090151036158204">
        <ele>13.119999999999999</ele>
        <time>2024-09-14T16:00:33Z</time>
      </trkpt>
      <trkpt lat="54.299079012125731" lon="13.091612001881003">
        <ele>7.35</ele>
        <time>2024-09-14T16:00:42Z</time>
      </trkpt>
      <trkpt lat="54.299051016569138" lon="13.092398978769779">
        <ele>2.06</ele>
        <time>2024-09-14T16:00:51Z</time>
      </trkpt>
      <trkpt lat="54.299051016569138" lon="13.092398978769779">
        <ele>1.1</ele>
        <time>2024-09-14T16:01:04Z</time>
      </trkpt>
      <trkpt lat="54.299051016569138" lon="13.092398978769779">
        <ele>1.1</ele>
        <time>2024-09-14T16:01:50Z</time>
      </trkpt>
      <trkpt lat="54.299069037660956" lon="13.092913962900639">
        <ele>0.14</ele>
        <time>2024-09-14T16:02:00Z</time>
      </trkpt>
      <trkpt lat="54.29910097271204" lon="13.093076990917325">
        <ele>-0.34</ele>
        <time>2024-09-14T16:02:01Z</time>
      </trkpt>
      <trkpt lat="54.299156041815877" lon="13.093143040314317">
        <ele>-0.82</ele>
        <time>2024-09-14T16:02:02Z</time>
      </trkpt>
      <trkpt lat="54.299226030707359" lon="13.093220992013812">
        <ele>-0.82</ele>
        <time>2024-09-14T16:02:03Z</time>
      </trkpt>
      <trkpt lat="54.299304988235235" lon="13.093278994783759">
        <ele>-1.3</ele>
        <time>2024-09-14T16:02:04Z</time>
      </trkpt>
      <trkpt lat="54.299383023753762" lon="13.093344960361719">
        <ele>-1.3</ele>
        <time>2024-09-14T16:02:05Z</time>
      </trkpt>
      <trkpt lat="54.299470027908683" lon="13.093416038900614">
        <ele>-1.79</ele>
        <time>2024-09-14T16:02:06Z</time>
      </trkpt>
      <trkpt lat="54.299564994871616" lon="13.09347303584218">
        <ele>-2.27</ele>
        <time>2024-09-14T16:02:07Z</time>
      </trkpt>
      <trkpt lat="54.299670020118356" lon="13.093535983934999">
        <ele>-2.27</ele>
        <time>2024-09-14T16:02:08Z</time>
      </trkpt>
      <trkpt lat="54.30075203999877" lon="13.094221958890557">
        <ele>-4.67</ele>
        <time>2024-09-14T16:02:19Z</time>
      </trkpt>
      <trkpt lat="54.301581010222435" lon="13.094832999631763">
        <ele>-4.67</ele>
        <time>2024-09-14T16:02:29Z</time>
      </trkpt>
      <trkpt lat="54.301730040460825" lon="13.094952022656798">
        <ele>-4.67</ele>
        <time>2024-09-14T16:02:31Z</time>
      </trkpt>
      <trkpt lat="54.301773039624095" lon="13.095012037083507">
        <ele>-4.67</ele>
        <time>2024-09-14T16:02:32Z</time>
      </trkpt>
      <trkpt lat="54.30183095857501" lon="13.095093006268144">
        <ele>-4.67</ele>
        <time>2024-09-14T16:02:33Z</time>
      </trkpt>
      <trkpt lat="54.301951993256807" lon="13.09499996714294">
        <ele>-4.67</ele>
        <time>2024-09-14T16:02:34Z</time>
      </trkpt>
      <trkpt lat="54.302029022946954" lon="13.095069034025073">
        <ele>-4.67</ele>
        <time>2024-09-14T16:02:35Z</time>
      </trkpt>
      <trkpt lat="54.302121978253126" lon="13.095153020694852">
        <ele>-4.67</ele>
        <time>2024-09-14T16:02:36Z</time>
      </trkpt>
      <trkpt lat="54.302219962701201" lon="13.095248993486166">
        <ele>-4.67</ele>
        <time>2024-09-14T16:02:37Z</time>
      </trkpt>
      <trkpt lat="54.30328999646008" lon="13.096028007566929">
        <ele>-5.63</ele>
        <time>2024-09-14T16:02:47Z</time>
      </trkpt>
      <trkpt lat="54.304338991641998" lon="13.096754970028996">
        <ele>-6.11</ele>
        <time>2024-09-14T16:02:57Z</time>
      </trkpt>
      <trkpt lat="54.305011974647641" lon="13.097228966653347">
        <ele>-6.59</ele>
        <time>2024-09-14T16:03:05Z</time>
      </trkpt>
      <trkpt lat="54.305661991238594" lon="13.097687959671021">
        <ele>-8.51</ele>
        <time>2024-09-14T16:03:15Z</time>
      </trkpt>
      <trkpt lat="54.306455003097653" lon="13.098205961287022">
        <ele>-9.48</ele>
        <time>2024-09-14T16:03:25Z</time>
      </trkpt>
      <trkpt lat="54.306545024737716" lon="13.098205961287022">
        <ele>-9</ele>
        <time>2024-09-14T16:03:26Z</time>
      </trkpt>
      <trkpt lat="54.307597959414124" lon="13.098047962412238">
        <ele>-6.59</ele>
        <time>2024-09-14T16:03:37Z</time>
      </trkpt>
      <trkpt lat="54.308720966801047" lon="13.097870014607906">
        <ele>-6.11</ele>
        <time>2024-09-14T16:03:48Z</time>
      </trkpt>
      <trkpt lat="54.308821968734264" lon="13.097859034314752">
        <ele>-5.63</ele>
        <time>2024-09-14T16:03:49Z</time>
      </trkpt>
      <trkpt lat="54.310237001627684" lon="13.09757899492979">
        <ele>1.1</ele>
        <time>2024-09-14T16:04:03Z</time>
      </trkpt>
      <trkpt lat="54.311236962676048" lon="13.097355030477047">
        <ele>3.5</ele>
        <time>2024-09-14T16:04:13Z</time>
      </trkpt>
      <trkpt lat="54.312010025605559" lon="13.09708203189075">
        <ele>3.02</ele>
        <time>2024-09-14T16:04:22Z</time>
      </trkpt>
      <trkpt lat="54.312071967869997" lon="13.097054958343506">
        <ele>3.02</ele>
        <time>2024-09-14T16:04:23Z</time>
      </trkpt>
      <trkpt lat="54.312266008928418" lon="13.096819007769227">
        <ele>2.54</ele>
        <time>2024-09-14T16:04:31Z</time>
      </trkpt>
      <trkpt lat="54.312394000589848" lon="13.096690010279417">
        <ele>2.06</ele>
        <time>2024-09-14T16:04:32Z</time>
      </trkpt>
      <trkpt lat="54.312530960887671" lon="13.096532011404634">
        <ele>1.58</ele>
        <time>2024-09-14T16:04:36Z</time>
      </trkpt>
      <trkpt lat="54.312569014728069" lon="13.096489012241364">
        <ele>1.58</ele>
        <time>2024-09-14T16:04:37Z</time>
      </trkpt>
      <trkpt lat="54.312610002234578" lon="13.096441989764571">
        <ele>1.58</ele>
        <time>2024-09-14T16:04:38Z</time>
      </trkpt>
      <trkpt lat="54.312653001397848" lon="13.096392033621669">
        <ele>1.1</ele>
        <time>2024-09-14T16:04:39Z</time>
      </trkpt>
      <trkpt lat="54.312706980854273" lon="13.096341993659735">
        <ele>1.1</ele>
        <time>2024-09-14T16:04:40Z</time>
      </trkpt>
      <trkpt lat="54.312756014987826" lon="13.096302011981606">
        <ele>0.62</ele>
        <time>2024-09-14T16:04:41Z</time>
      </trkpt>
      <trkpt lat="54.312814017757773" lon="13.096265969797969">
        <ele>0.62</ele>
        <time>2024-09-14T16:04:42Z</time>
      </trkpt>
      <trkpt lat="54.312861040234566" lon="13.096241997554898">
        <ele>0.62</ele>
        <time>2024-09-14T16:04:43Z</time>
      </trkpt>
      <trkpt lat="54.312955001369119" lon="13.096195980906487">
        <ele>0.14</ele>
        <time>2024-09-14T16:04:45Z</time>
      </trkpt>
      <trkpt lat="54.31300001218915" lon="13.096173014491796">
        <ele>0.14</ele>
        <time>2024-09-14T16:04:46Z</time>
      </trkpt>
      <trkpt lat="54.313093973323703" lon="13.096125992015004">
        <ele>0.14</ele>
        <time>2024-09-14T16:04:48Z</time>
      </trkpt>
      <trkpt lat="54.313144013285637" lon="13.096101013943553">
        <ele>-0.34</ele>
        <time>2024-09-14T16:04:49Z</time>
      </trkpt>
      <trkpt lat="54.313761005178094" lon="13.095905967056751">
        <ele>-1.79</ele>
        <time>2024-09-14T16:05:01Z</time>
      </trkpt>
      <trkpt lat="54.313916992396116" lon="13.095844024792314">
        <ele>-2.27</ele>
        <time>2024-09-14T16:05:08Z</time>
      </trkpt>
      <trkpt lat="54.313914980739355" lon="13.095808988437057">
        <ele>-2.27</ele>
        <time>2024-09-14T16:05:09Z</time>
      </trkpt>
      <trkpt lat="54.313912969082594" lon="13.095756014809012">
        <ele>-2.27</ele>
        <time>2024-09-14T16:05:10Z</time>
      </trkpt>
      <trkpt lat="54.313911041244864" lon="13.095709998160601">
        <ele>-2.75</ele>
        <time>2024-09-14T16:05:11Z</time>
      </trkpt>
      <trkpt lat="54.313910035416484" lon="13.095671022310853">
        <ele>-2.75</ele>
        <time>2024-09-14T16:05:12Z</time>
      </trkpt>
      <trkpt lat="54.313901988789439" lon="13.095487039536238">
        <ele>-5.63</ele>
        <time>2024-09-14T16:05:24Z</time>
      </trkpt>
      <trkpt lat="54.313851026818156" lon="13.095448985695839">
        <ele>3.5</ele>
        <time>2024-09-14T16:27:53Z</time>
      </trkpt>
      <trkpt lat="54.313939958810806" lon="13.095458038151264">
        <ele>-0.34</ele>
        <time>2024-09-14T16:28:24Z</time>
      </trkpt>
      <trkpt lat="54.31394699960947" lon="13.095461977645755">
        <ele>0.14</ele>
        <time>2024-09-14T16:28:59Z</time>
      </trkpt>
      <trkpt lat="54.313929984346032" lon="13.095442028716207">
        <ele>-0.82</ele>
        <time>2024-09-14T16:29:09Z</time>
      </trkpt>
      <trkpt lat="54.313898971304297" lon="13.095391988754272">
        <ele>-1.3</ele>
        <time>2024-09-14T16:29:11Z</time>
      </trkpt>
      <trkpt lat="54.313896959647536" lon="13.095347983762622">
        <ele>-1.3</ele>
        <time>2024-09-14T16:29:12Z</time>
      </trkpt>
      <trkpt lat="54.313897965475917" lon="13.095314959064126">
        <ele>-1.3</ele>
        <time>2024-09-14T16:29:13Z</time>
      </trkpt>
      <trkpt lat="54.313898971304297" lon="13.095291992649436">
        <ele>-1.79</ele>
        <time>2024-09-14T16:29:14Z</time>
      </trkpt>
      <trkpt lat="54.313899977132678" lon="13.095262991264462">
        <ele>-2.27</ele>
        <time>2024-09-14T16:29:15Z</time>
      </trkpt>
      <trkpt lat="54.313901988789439" lon="13.095233989879489">
        <ele>-2.75</ele>
        <time>2024-09-14T16:29:16Z</time>
      </trkpt>
      <trkpt lat="54.313901988789439" lon="13.095233989879489">
        <ele>-2.75</ele>
        <time>2024-09-14T16:29:17Z</time>
      </trkpt>
      <trkpt lat="54.313901988789439" lon="13.095233989879489">
        <ele>-2.75</ele>
        <time>2024-09-14T16:29:27Z</time>
      </trkpt>
      <trkpt lat="54.313888996839523" lon="13.095337003469467">
        <ele>-2.75</ele>
        <time>2024-09-14T16:29:28Z</time>
      </trkpt>
      <trkpt lat="54.31388002820313" lon="13.095334991812706">
        <ele>-2.75</ele>
        <time>2024-09-14T16:29:29Z</time>
      </trkpt>
      <trkpt lat="54.313900982961059" lon="13.095247987657785">
        <ele>-3.23</ele>
        <time>2024-09-14T16:29:30Z</time>
      </trkpt>
      <trkpt lat="54.313896959647536" lon="13.095362987369299">
        <ele>-3.71</ele>
        <time>2024-09-14T16:29:36Z</time>
      </trkpt>
      <trkpt lat="54.313899977132678" lon="13.095425013452768">
        <ele>-3.71</ele>
        <time>2024-09-14T16:29:37Z</time>
      </trkpt>
      <trkpt lat="54.313901988789439" lon="13.09549299068749">
        <ele>-3.71</ele>
        <time>2024-09-14T16:29:38Z</time>
      </trkpt>
      <trkpt lat="54.3139230273664" lon="13.095914013683796">
        <ele>-6.59</ele>
        <time>2024-09-14T16:29:46Z</time>
      </trkpt>
      <trkpt lat="54.313942976295948" lon="13.096061032265425">
        <ele>-7.07</ele>
        <time>2024-09-14T16:29:48Z</time>
      </trkpt>
      <trkpt lat="54.313960997387767" lon="13.096201010048389">
        <ele>-7.07</ele>
        <time>2024-09-14T16:29:50Z</time>
      </trkpt>
      <trkpt lat="54.31396996602416" lon="13.096263036131859">
        <ele>-8.029999999999999</ele>
        <time>2024-09-14T16:29:51Z</time>
      </trkpt>
      <trkpt lat="54.313977006822824" lon="13.096321960911155">
        <ele>-8.029999999999999</ele>
        <time>2024-09-14T16:29:52Z</time>
      </trkpt>
      <trkpt lat="54.313984969630837" lon="13.096380969509482">
        <ele>-8.51</ele>
        <time>2024-09-14T16:29:53Z</time>
      </trkpt>
      <trkpt lat="54.314104998484254" lon="13.096478031948209">
        <ele>-8.51</ele>
        <time>2024-09-14T16:29:54Z</time>
      </trkpt>
      <trkpt lat="54.314147997647524" lon="13.096461016684771">
        <ele>-9</ele>
        <time>2024-09-14T16:29:55Z</time>
      </trkpt>
      <trkpt lat="54.314199965447187" lon="13.09643997810781">
        <ele>-9</ele>
        <time>2024-09-14T16:29:56Z</time>
      </trkpt>
      <trkpt lat="54.314256962388754" lon="13.09641701169312">
        <ele>-9</ele>
        <time>2024-09-14T16:29:57Z</time>
      </trkpt>
      <trkpt lat="54.31431395933032" lon="13.096394967287779">
        <ele>-9</ele>
        <time>2024-09-14T16:29:58Z</time>
      </trkpt>
      <trkpt lat="54.314372967928648" lon="13.096370995044708">
        <ele>-9.48</ele>
        <time>2024-09-14T16:29:59Z</time>
      </trkpt>
      <trkpt lat="54.314495008438826" lon="13.096321960911155">
        <ele>-9.48</ele>
        <time>2024-09-14T16:30:01Z</time>
      </trkpt>
      <trkpt lat="54.314550999552011" lon="13.096300000324845">
        <ele>-9.48</ele>
        <time>2024-09-14T16:30:02Z</time>
      </trkpt>
      <trkpt lat="54.31469801813364" lon="13.096240991726518">
        <ele>-9.960000000000001</ele>
        <time>2024-09-14T16:30:05Z</time>
      </trkpt>
      <trkpt lat="54.314760966226459" lon="13.096215007826686">
        <ele>-9.960000000000001</ele>
        <time>2024-09-14T16:30:06Z</time>
      </trkpt>
      <trkpt lat="54.314813017845154" lon="13.096185000613332">
        <ele>-10.44</ele>
        <time>2024-09-14T16:30:07Z</time>
      </trkpt>
      <trkpt lat="54.314857022836804" lon="13.096160022541881">
        <ele>-10.92</ele>
        <time>2024-09-14T16:30:08Z</time>
      </trkpt>
      <trkpt lat="54.314911002293229" lon="13.096129009500146">
        <ele>-10.92</ele>
        <time>2024-09-14T16:30:09Z</time>
      </trkpt>
      <trkpt lat="54.314963975921273" lon="13.096099002286792">
        <ele>-11.4</ele>
        <time>2024-09-14T16:30:10Z</time>
      </trkpt>
      <trkpt lat="54.31501803919673" lon="13.096067989245057">
        <ele>-11.880000000000001</ele>
        <time>2024-09-14T16:30:11Z</time>
      </trkpt>
      <trkpt lat="54.315071012824774" lon="13.096037982031703">
        <ele>-12.359999999999999</ele>
        <time>2024-09-14T16:30:12Z</time>
      </trkpt>
      <trkpt lat="54.315131027251482" lon="13.096003029495478">
        <ele>-12.359999999999999</ele>
        <time>2024-09-14T16:30:13Z</time>
      </trkpt>
      <trkpt lat="54.315175032243133" lon="13.095977967604995">
        <ele>-12.359999999999999</ele>
        <time>2024-09-14T16:30:14Z</time>
      </trkpt>
      <trkpt lat="54.3156429938972" lon="13.095611007884145">
        <ele>-12.359999999999999</ele>
        <time>2024-09-14T16:30:25Z</time>
      </trkpt>
      <trkpt lat="54.315681969746947" lon="13.09557999484241">
        <ele>-11.880000000000001</ele>
        <time>2024-09-14T16:30:26Z</time>
      </trkpt>
      <trkpt lat="54.315763022750616" lon="13.095604972913861">
        <ele>-11.880000000000001</ele>
        <time>2024-09-14T16:30:27Z</time>
      </trkpt>
      <trkpt lat="54.315782971680164" lon="13.095674039795995">
        <ele>-11.880000000000001</ele>
        <time>2024-09-14T16:30:28Z</time>
      </trkpt>
      <trkpt lat="54.315808033570647" lon="13.095758026465774">
        <ele>-11.880000000000001</ele>
        <time>2024-09-14T16:30:29Z</time>
      </trkpt>
      <trkpt lat="54.315830999985337" lon="13.095836983993649">
        <ele>-11.880000000000001</ele>
        <time>2024-09-14T16:30:30Z</time>
      </trkpt>
      <trkpt lat="54.315852038562298" lon="13.095907978713512">
        <ele>-11.4</ele>
        <time>2024-09-14T16:30:31Z</time>
      </trkpt>
      <trkpt lat="54.315883973613381" lon="13.096053991466761">
        <ele>-10.92</ele>
        <time>2024-09-14T16:30:34Z</time>
      </trkpt>
      <trkpt lat="54.315863018855453" lon="13.096074024215341">
        <ele>-10.92</ele>
        <time>2024-09-14T16:30:35Z</time>
      </trkpt>
      <trkpt lat="54.315834017470479" lon="13.096102019771934">
        <ele>-10.92</ele>
        <time>2024-09-14T16:30:36Z</time>
      </trkpt>
      <trkpt lat="54.315797975286841" lon="13.096135966479778">
        <ele>-10.44</ele>
        <time>2024-09-14T16:30:37Z</time>
      </trkpt>
      <trkpt lat="54.315761011093855" lon="13.096171002835035">
        <ele>-10.92</ele>
        <time>2024-09-14T16:30:38Z</time>
      </trkpt>
      <trkpt lat="54.315723041072488" lon="13.096206961199641">
        <ele>-10.44</ele>
        <time>2024-09-14T16:30:39Z</time>
      </trkpt>
      <trkpt lat="54.315684987232089" lon="13.096244009211659">
        <ele>-10.92</ele>
        <time>2024-09-14T16:30:40Z</time>
      </trkpt>
      <trkpt lat="54.3156429938972" lon="13.096283990889788">
        <ele>-10.92</ele>
        <time>2024-09-14T16:30:41Z</time>
      </trkpt>
      <trkpt lat="54.315592031925917" lon="13.096333025023341">
        <ele>-10.92</ele>
        <time>2024-09-14T16:30:42Z</time>
      </trkpt>
      <trkpt lat="54.315542997792363" lon="13.096379041671753">
        <ele>-11.4</ele>
        <time>2024-09-14T16:30:43Z</time>
      </trkpt>
      <trkpt lat="54.31545096449554" lon="13.096466967836022">
        <ele>-11.880000000000001</ele>
        <time>2024-09-14T16:30:45Z</time>
      </trkpt>
      <trkpt lat="54.315303023904562" lon="13.096608035266399">
        <ele>-11.4</ele>
        <time>2024-09-14T16:30:48Z</time>
      </trkpt>
      <trkpt lat="54.315250972285867" lon="13.096656985580921">
        <ele>-11.4</ele>
        <time>2024-09-14T16:30:49Z</time>
      </trkpt>
      <trkpt lat="54.3152130022645" lon="13.096694033592939">
        <ele>-11.4</ele>
        <time>2024-09-14T16:30:50Z</time>
      </trkpt>
      <trkpt lat="54.315176038071513" lon="13.096728986129165">
        <ele>-10.92</ele>
        <time>2024-09-14T16:30:51Z</time>
      </trkpt>
      <trkpt lat="54.315142007544637" lon="13.09676100499928">
        <ele>-10.44</ele>
        <time>2024-09-14T16:30:52Z</time>
      </trkpt>
      <trkpt lat="54.315109988674521" lon="13.096792018041015">
        <ele>-9.48</ele>
        <time>2024-09-14T16:30:53Z</time>
      </trkpt>
      <trkpt lat="54.314963975921273" lon="13.096983041614294">
        <ele>-7.07</ele>
        <time>2024-09-14T16:30:58Z</time>
      </trkpt>
      <trkpt lat="54.314945032820106" lon="13.097196025773883">
        <ele>-7.07</ele>
        <time>2024-09-14T16:31:02Z</time>
      </trkpt>
      <trkpt lat="54.314942015334964" lon="13.097226032987237">
        <ele>-7.07</ele>
        <time>2024-09-14T16:31:03Z</time>
      </trkpt>
      <trkpt lat="54.314938997849822" lon="13.097261991351843">
        <ele>-7.07</ele>
        <time>2024-09-14T16:31:04Z</time>
      </trkpt>
      <trkpt lat="54.3149349745363" lon="13.097304990515113">
        <ele>-7.07</ele>
        <time>2024-09-14T16:31:05Z</time>
      </trkpt>
      <trkpt lat="54.314931035041809" lon="13.097346983850002">
        <ele>-6.59</ele>
        <time>2024-09-14T16:31:06Z</time>
      </trkpt>
      <trkpt lat="54.314928017556667" lon="13.097385037690401">
        <ele>-6.59</ele>
        <time>2024-09-14T16:31:07Z</time>
      </trkpt>
      <trkpt lat="54.314926005899906" lon="13.097398029640317">
        <ele>-6.59</ele>
        <time>2024-09-14T16:31:08Z</time>
      </trkpt>
      <trkpt lat="54.314926005899906" lon="13.097398029640317">
        <ele>-6.59</ele>
        <time>2024-09-14T16:31:09Z</time>
      </trkpt>
      <trkpt lat="54.314926005899906" lon="13.097398029640317">
        <ele>-6.11</ele>
        <time>2024-09-14T16:31:10Z</time>
      </trkpt>
      <trkpt lat="54.314926005899906" lon="13.097398029640317">
        <ele>-6.11</ele>
        <time>2024-09-14T16:31:22Z</time>
      </trkpt>
      <trkpt lat="54.314926005899906" lon="13.097398029640317">
        <ele>-6.11</ele>
        <time>2024-09-14T16:31:57Z</time>
      </trkpt>
    </trkseg>
  </trk>

</gpx>